<?xml version="1.0" encoding="UTF-8" standalone="no" ?>
<gpx xmlns="http://www.topografix.com/GPX/1/1" xmlns:xsi="http://www.w3.org/2001/XMLSchema-instance" xsi:schemaLocation="http://www.topografix.com/GPX/1/1 http://www.topografix.com/GPX/1/1/gpx.xsd" version="1.1" creator="VisuGPX - https://www.visugpx.com">
  <metadata>
    <name>Col du Fau Roissard Mens Saint Jean d' Heran</name>
    <desc><![CDATA[Très beau parcours mais mauvais passage après Mens pour rejoindre St Sébastien (piste caillouteuse) qui m'oblige à la faire à pied]]></desc>
  </metadata>
  <trk>
    <name><![CDATA[Col du Fau Roissard Mens Saint Jean d' Heran]]></name>
    <trkseg>
      <trkpt lat="44.9293" lon="5.63832">
        <ele>789.9</ele>
        <time>2021-04-22T09:37:19Z</time>
      </trkpt>
      <trkpt lat="44.92931" lon="5.63832">
        <ele>789.9</ele>
        <time>2021-04-22T09:37:20Z</time>
      </trkpt>
      <trkpt lat="44.92933" lon="5.63831">
        <ele>789.9</ele>
        <time>2021-04-22T09:37:21Z</time>
      </trkpt>
      <trkpt lat="44.92934" lon="5.63831">
        <ele>789.9</ele>
        <time>2021-04-22T09:37:22Z</time>
      </trkpt>
      <trkpt lat="44.92933" lon="5.63831">
        <ele>789.9</ele>
        <time>2021-04-22T09:37:23Z</time>
      </trkpt>
      <trkpt lat="44.92933" lon="5.63831">
        <ele>789.9</ele>
        <time>2021-04-22T09:37:24Z</time>
      </trkpt>
      <trkpt lat="44.92933" lon="5.6383">
        <ele>789.9</ele>
        <time>2021-04-22T09:37:25Z</time>
      </trkpt>
      <trkpt lat="44.92933" lon="5.6383">
        <ele>789.9</ele>
        <time>2021-04-22T09:37:26Z</time>
      </trkpt>
      <trkpt lat="44.92932" lon="5.6383">
        <ele>789.9</ele>
        <time>2021-04-22T09:37:27Z</time>
      </trkpt>
      <trkpt lat="44.92932" lon="5.6383">
        <ele>789.9</ele>
        <time>2021-04-22T09:37:28Z</time>
      </trkpt>
      <trkpt lat="44.92931" lon="5.63829">
        <ele>789.9</ele>
        <time>2021-04-22T09:37:29Z</time>
      </trkpt>
      <trkpt lat="44.92931" lon="5.63829">
        <ele>789.9</ele>
        <time>2021-04-22T09:37:30Z</time>
      </trkpt>
      <trkpt lat="44.92932" lon="5.63829">
        <ele>789.9</ele>
        <time>2021-04-22T09:37:31Z</time>
      </trkpt>
      <trkpt lat="44.92932" lon="5.63829">
        <ele>789.9</ele>
        <time>2021-04-22T09:37:32Z</time>
      </trkpt>
      <trkpt lat="44.92932" lon="5.63829">
        <ele>789.9</ele>
        <time>2021-04-22T09:37:33Z</time>
      </trkpt>
      <trkpt lat="44.92932" lon="5.63829">
        <ele>789.9</ele>
        <time>2021-04-22T09:37:34Z</time>
      </trkpt>
      <trkpt lat="44.92932" lon="5.63829">
        <ele>789.9</ele>
        <time>2021-04-22T09:37:35Z</time>
      </trkpt>
      <trkpt lat="44.92932" lon="5.63829">
        <ele>789.9</ele>
        <time>2021-04-22T09:37:36Z</time>
      </trkpt>
      <trkpt lat="44.92932" lon="5.63829">
        <ele>789.9</ele>
        <time>2021-04-22T09:37:37Z</time>
      </trkpt>
      <trkpt lat="44.92932" lon="5.63829">
        <ele>789.9</ele>
        <time>2021-04-22T09:37:38Z</time>
      </trkpt>
      <trkpt lat="44.92932" lon="5.63829">
        <ele>789.9</ele>
        <time>2021-04-22T09:37:40Z</time>
      </trkpt>
      <trkpt lat="44.92934" lon="5.63827">
        <ele>789.9</ele>
        <time>2021-04-22T09:38:27Z</time>
      </trkpt>
      <trkpt lat="44.92935" lon="5.63828">
        <ele>789.9</ele>
        <time>2021-04-22T09:38:28Z</time>
      </trkpt>
      <trkpt lat="44.92935" lon="5.63827">
        <ele>789.9</ele>
        <time>2021-04-22T09:38:29Z</time>
      </trkpt>
      <trkpt lat="44.92935" lon="5.63828">
        <ele>789.9</ele>
        <time>2021-04-22T09:38:30Z</time>
      </trkpt>
      <trkpt lat="44.92935" lon="5.63827">
        <ele>789.9</ele>
        <time>2021-04-22T09:38:31Z</time>
      </trkpt>
      <trkpt lat="44.92935" lon="5.63827">
        <ele>789.9</ele>
        <time>2021-04-22T09:38:32Z</time>
      </trkpt>
      <trkpt lat="44.92934" lon="5.63827">
        <ele>789.9</ele>
        <time>2021-04-22T09:38:33Z</time>
      </trkpt>
      <trkpt lat="44.92934" lon="5.63827">
        <ele>789.9</ele>
        <time>2021-04-22T09:38:34Z</time>
      </trkpt>
      <trkpt lat="44.92934" lon="5.63827">
        <ele>789.9</ele>
        <time>2021-04-22T09:38:35Z</time>
      </trkpt>
      <trkpt lat="44.92934" lon="5.63826">
        <ele>789.9</ele>
        <time>2021-04-22T09:38:36Z</time>
      </trkpt>
      <trkpt lat="44.92934" lon="5.63826">
        <ele>789.9</ele>
        <time>2021-04-22T09:38:37Z</time>
      </trkpt>
      <trkpt lat="44.92934" lon="5.63826">
        <ele>789.9</ele>
        <time>2021-04-22T09:38:38Z</time>
      </trkpt>
      <trkpt lat="44.92934" lon="5.63826">
        <ele>789.9</ele>
        <time>2021-04-22T09:38:39Z</time>
      </trkpt>
      <trkpt lat="44.92933" lon="5.63827">
        <ele>789.9</ele>
        <time>2021-04-22T09:38:40Z</time>
      </trkpt>
      <trkpt lat="44.92937" lon="5.63827">
        <ele>789.9</ele>
        <time>2021-04-22T09:40:06Z</time>
      </trkpt>
      <trkpt lat="44.92942" lon="5.63827">
        <ele>789.9</ele>
        <time>2021-04-22T09:40:08Z</time>
      </trkpt>
      <trkpt lat="44.92943" lon="5.63829">
        <ele>789.9</ele>
        <time>2021-04-22T09:40:09Z</time>
      </trkpt>
      <trkpt lat="44.92944" lon="5.63831">
        <ele>789.9</ele>
        <time>2021-04-22T09:40:10Z</time>
      </trkpt>
      <trkpt lat="44.92945" lon="5.63835">
        <ele>789.9</ele>
        <time>2021-04-22T09:40:11Z</time>
      </trkpt>
      <trkpt lat="44.92945" lon="5.63837">
        <ele>789.9</ele>
        <time>2021-04-22T09:40:12Z</time>
      </trkpt>
      <trkpt lat="44.92946" lon="5.63839">
        <ele>789.9</ele>
        <time>2021-04-22T09:40:13Z</time>
      </trkpt>
      <trkpt lat="44.92946" lon="5.63841">
        <ele>790</ele>
        <time>2021-04-22T09:40:14Z</time>
      </trkpt>
      <trkpt lat="44.92943" lon="5.63844">
        <ele>790</ele>
        <time>2021-04-22T09:40:15Z</time>
      </trkpt>
      <trkpt lat="44.92939" lon="5.63847">
        <ele>790</ele>
        <time>2021-04-22T09:40:16Z</time>
      </trkpt>
      <trkpt lat="44.92937" lon="5.6385">
        <ele>790</ele>
        <time>2021-04-22T09:40:17Z</time>
      </trkpt>
      <trkpt lat="44.92936" lon="5.6385">
        <ele>790</ele>
        <time>2021-04-22T09:40:18Z</time>
      </trkpt>
      <trkpt lat="44.92935" lon="5.63851">
        <ele>790</ele>
        <time>2021-04-22T09:40:19Z</time>
      </trkpt>
      <trkpt lat="44.92935" lon="5.63851">
        <ele>790</ele>
        <time>2021-04-22T09:40:21Z</time>
      </trkpt>
      <trkpt lat="44.92935" lon="5.63852">
        <ele>790</ele>
        <time>2021-04-22T09:40:22Z</time>
      </trkpt>
      <trkpt lat="44.92935" lon="5.63853">
        <ele>790</ele>
        <time>2021-04-22T09:40:23Z</time>
      </trkpt>
      <trkpt lat="44.92935" lon="5.63856">
        <ele>790</ele>
        <time>2021-04-22T09:40:25Z</time>
      </trkpt>
      <trkpt lat="44.92934" lon="5.63859">
        <ele>790</ele>
        <time>2021-04-22T09:40:26Z</time>
      </trkpt>
      <trkpt lat="44.92934" lon="5.63861">
        <ele>790</ele>
        <time>2021-04-22T09:40:27Z</time>
      </trkpt>
      <trkpt lat="44.92933" lon="5.63866">
        <ele>790</ele>
        <time>2021-04-22T09:40:28Z</time>
      </trkpt>
      <trkpt lat="44.92932" lon="5.63867">
        <ele>790</ele>
        <time>2021-04-22T09:40:29Z</time>
      </trkpt>
      <trkpt lat="44.92932" lon="5.63872">
        <ele>790</ele>
        <time>2021-04-22T09:40:30Z</time>
      </trkpt>
      <trkpt lat="44.92929" lon="5.63881">
        <ele>790</ele>
        <time>2021-04-22T09:40:32Z</time>
      </trkpt>
      <trkpt lat="44.92928" lon="5.63886">
        <ele>790</ele>
        <time>2021-04-22T09:40:33Z</time>
      </trkpt>
      <trkpt lat="44.92926" lon="5.63892">
        <ele>790.1</ele>
        <time>2021-04-22T09:40:34Z</time>
      </trkpt>
      <trkpt lat="44.92923" lon="5.63899">
        <ele>790.1</ele>
        <time>2021-04-22T09:40:35Z</time>
      </trkpt>
      <trkpt lat="44.92918" lon="5.63907">
        <ele>790.1</ele>
        <time>2021-04-22T09:40:37Z</time>
      </trkpt>
      <trkpt lat="44.92914" lon="5.63916">
        <ele>790.3</ele>
        <time>2021-04-22T09:40:39Z</time>
      </trkpt>
      <trkpt lat="44.92912" lon="5.6392">
        <ele>790.4</ele>
        <time>2021-04-22T09:40:40Z</time>
      </trkpt>
      <trkpt lat="44.92906" lon="5.63926">
        <ele>790.5</ele>
        <time>2021-04-22T09:40:42Z</time>
      </trkpt>
      <trkpt lat="44.92901" lon="5.63926">
        <ele>790.6</ele>
        <time>2021-04-22T09:40:43Z</time>
      </trkpt>
      <trkpt lat="44.92894" lon="5.63923">
        <ele>790.7</ele>
        <time>2021-04-22T09:40:45Z</time>
      </trkpt>
      <trkpt lat="44.92886" lon="5.63921">
        <ele>790.8</ele>
        <time>2021-04-22T09:40:47Z</time>
      </trkpt>
      <trkpt lat="44.92879" lon="5.63917">
        <ele>791</ele>
        <time>2021-04-22T09:40:49Z</time>
      </trkpt>
      <trkpt lat="44.92875" lon="5.63915">
        <ele>791</ele>
        <time>2021-04-22T09:40:50Z</time>
      </trkpt>
      <trkpt lat="44.92871" lon="5.63912">
        <ele>791.1</ele>
        <time>2021-04-22T09:40:51Z</time>
      </trkpt>
      <trkpt lat="44.92867" lon="5.6391">
        <ele>791.1</ele>
        <time>2021-04-22T09:40:52Z</time>
      </trkpt>
      <trkpt lat="44.92863" lon="5.63908">
        <ele>791.2</ele>
        <time>2021-04-22T09:40:53Z</time>
      </trkpt>
      <trkpt lat="44.92858" lon="5.63905">
        <ele>791.4</ele>
        <time>2021-04-22T09:40:54Z</time>
      </trkpt>
      <trkpt lat="44.92851" lon="5.63898">
        <ele>791.5</ele>
        <time>2021-04-22T09:40:56Z</time>
      </trkpt>
      <trkpt lat="44.92848" lon="5.63896">
        <ele>791.6</ele>
        <time>2021-04-22T09:40:57Z</time>
      </trkpt>
      <trkpt lat="44.92843" lon="5.63893">
        <ele>791.7</ele>
        <time>2021-04-22T09:40:58Z</time>
      </trkpt>
      <trkpt lat="44.92835" lon="5.6389">
        <ele>791.9</ele>
        <time>2021-04-22T09:41:00Z</time>
      </trkpt>
      <trkpt lat="44.92832" lon="5.63888">
        <ele>792</ele>
        <time>2021-04-22T09:41:01Z</time>
      </trkpt>
      <trkpt lat="44.92828" lon="5.63886">
        <ele>792.1</ele>
        <time>2021-04-22T09:41:02Z</time>
      </trkpt>
      <trkpt lat="44.92823" lon="5.63885">
        <ele>792.2</ele>
        <time>2021-04-22T09:41:03Z</time>
      </trkpt>
      <trkpt lat="44.92814" lon="5.63884">
        <ele>792.4</ele>
        <time>2021-04-22T09:41:05Z</time>
      </trkpt>
      <trkpt lat="44.92811" lon="5.63884">
        <ele>792.5</ele>
        <time>2021-04-22T09:41:06Z</time>
      </trkpt>
      <trkpt lat="44.92806" lon="5.63883">
        <ele>792.5</ele>
        <time>2021-04-22T09:41:07Z</time>
      </trkpt>
      <trkpt lat="44.92798" lon="5.63881">
        <ele>792.7</ele>
        <time>2021-04-22T09:41:09Z</time>
      </trkpt>
      <trkpt lat="44.92794" lon="5.63879">
        <ele>792.8</ele>
        <time>2021-04-22T09:41:10Z</time>
      </trkpt>
      <trkpt lat="44.9279" lon="5.63878">
        <ele>792.9</ele>
        <time>2021-04-22T09:41:11Z</time>
      </trkpt>
      <trkpt lat="44.92785" lon="5.63877">
        <ele>793</ele>
        <time>2021-04-22T09:41:12Z</time>
      </trkpt>
      <trkpt lat="44.92781" lon="5.63877">
        <ele>793.1</ele>
        <time>2021-04-22T09:41:13Z</time>
      </trkpt>
      <trkpt lat="44.92778" lon="5.63877">
        <ele>793.2</ele>
        <time>2021-04-22T09:41:14Z</time>
      </trkpt>
      <trkpt lat="44.92775" lon="5.63876">
        <ele>793.3</ele>
        <time>2021-04-22T09:41:15Z</time>
      </trkpt>
      <trkpt lat="44.92773" lon="5.63876">
        <ele>793.3</ele>
        <time>2021-04-22T09:41:16Z</time>
      </trkpt>
      <trkpt lat="44.92769" lon="5.63874">
        <ele>793.4</ele>
        <time>2021-04-22T09:41:17Z</time>
      </trkpt>
      <trkpt lat="44.92764" lon="5.63872">
        <ele>793.5</ele>
        <time>2021-04-22T09:41:18Z</time>
      </trkpt>
      <trkpt lat="44.92759" lon="5.6387">
        <ele>793.7</ele>
        <time>2021-04-22T09:41:19Z</time>
      </trkpt>
      <trkpt lat="44.92749" lon="5.63866">
        <ele>794</ele>
        <time>2021-04-22T09:41:21Z</time>
      </trkpt>
      <trkpt lat="44.92741" lon="5.63863">
        <ele>794.2</ele>
        <time>2021-04-22T09:41:23Z</time>
      </trkpt>
      <trkpt lat="44.92737" lon="5.63862">
        <ele>794.3</ele>
        <time>2021-04-22T09:41:24Z</time>
      </trkpt>
      <trkpt lat="44.92733" lon="5.63861">
        <ele>794.4</ele>
        <time>2021-04-22T09:41:25Z</time>
      </trkpt>
      <trkpt lat="44.92728" lon="5.63859">
        <ele>794.5</ele>
        <time>2021-04-22T09:41:26Z</time>
      </trkpt>
      <trkpt lat="44.92721" lon="5.63857">
        <ele>794.7</ele>
        <time>2021-04-22T09:41:28Z</time>
      </trkpt>
      <trkpt lat="44.92715" lon="5.63855">
        <ele>794.9</ele>
        <time>2021-04-22T09:41:29Z</time>
      </trkpt>
      <trkpt lat="44.92707" lon="5.63852">
        <ele>795.1</ele>
        <time>2021-04-22T09:41:31Z</time>
      </trkpt>
      <trkpt lat="44.92703" lon="5.63851">
        <ele>795.2</ele>
        <time>2021-04-22T09:41:32Z</time>
      </trkpt>
      <trkpt lat="44.927" lon="5.6385">
        <ele>795.3</ele>
        <time>2021-04-22T09:41:33Z</time>
      </trkpt>
      <trkpt lat="44.92696" lon="5.63848">
        <ele>795.4</ele>
        <time>2021-04-22T09:41:34Z</time>
      </trkpt>
      <trkpt lat="44.92693" lon="5.63846">
        <ele>795.5</ele>
        <time>2021-04-22T09:41:35Z</time>
      </trkpt>
      <trkpt lat="44.92689" lon="5.63844">
        <ele>795.6</ele>
        <time>2021-04-22T09:41:36Z</time>
      </trkpt>
      <trkpt lat="44.92685" lon="5.63842">
        <ele>795.7</ele>
        <time>2021-04-22T09:41:37Z</time>
      </trkpt>
      <trkpt lat="44.92679" lon="5.63839">
        <ele>795.8</ele>
        <time>2021-04-22T09:41:38Z</time>
      </trkpt>
      <trkpt lat="44.92677" lon="5.63838">
        <ele>795.9</ele>
        <time>2021-04-22T09:41:39Z</time>
      </trkpt>
      <trkpt lat="44.9267" lon="5.63834">
        <ele>796.1</ele>
        <time>2021-04-22T09:41:41Z</time>
      </trkpt>
      <trkpt lat="44.92666" lon="5.63832">
        <ele>796.2</ele>
        <time>2021-04-22T09:41:42Z</time>
      </trkpt>
      <trkpt lat="44.92662" lon="5.63831">
        <ele>796.3</ele>
        <time>2021-04-22T09:41:43Z</time>
      </trkpt>
      <trkpt lat="44.92658" lon="5.63829">
        <ele>796.4</ele>
        <time>2021-04-22T09:41:44Z</time>
      </trkpt>
      <trkpt lat="44.92651" lon="5.63825">
        <ele>796.6</ele>
        <time>2021-04-22T09:41:46Z</time>
      </trkpt>
      <trkpt lat="44.92648" lon="5.63822">
        <ele>796.7</ele>
        <time>2021-04-22T09:41:47Z</time>
      </trkpt>
      <trkpt lat="44.92644" lon="5.6382">
        <ele>796.8</ele>
        <time>2021-04-22T09:41:48Z</time>
      </trkpt>
      <trkpt lat="44.92639" lon="5.63817">
        <ele>796.9</ele>
        <time>2021-04-22T09:41:49Z</time>
      </trkpt>
      <trkpt lat="44.92633" lon="5.63813">
        <ele>797.1</ele>
        <time>2021-04-22T09:41:50Z</time>
      </trkpt>
      <trkpt lat="44.92628" lon="5.6381">
        <ele>797.2</ele>
        <time>2021-04-22T09:41:52Z</time>
      </trkpt>
      <trkpt lat="44.9262" lon="5.63805">
        <ele>797.4</ele>
        <time>2021-04-22T09:41:54Z</time>
      </trkpt>
      <trkpt lat="44.92616" lon="5.63803">
        <ele>797.5</ele>
        <time>2021-04-22T09:41:55Z</time>
      </trkpt>
      <trkpt lat="44.92608" lon="5.638">
        <ele>797.6</ele>
        <time>2021-04-22T09:41:57Z</time>
      </trkpt>
      <trkpt lat="44.92605" lon="5.63799">
        <ele>797.8</ele>
        <time>2021-04-22T09:41:58Z</time>
      </trkpt>
      <trkpt lat="44.92601" lon="5.63798">
        <ele>797.9</ele>
        <time>2021-04-22T09:41:59Z</time>
      </trkpt>
      <trkpt lat="44.92596" lon="5.63797">
        <ele>798.1</ele>
        <time>2021-04-22T09:42:00Z</time>
      </trkpt>
      <trkpt lat="44.9259" lon="5.63796">
        <ele>798.2</ele>
        <time>2021-04-22T09:42:01Z</time>
      </trkpt>
      <trkpt lat="44.92584" lon="5.6379">
        <ele>798.3</ele>
        <time>2021-04-22T09:42:03Z</time>
      </trkpt>
      <trkpt lat="44.92581" lon="5.63788">
        <ele>798.4</ele>
        <time>2021-04-22T09:42:04Z</time>
      </trkpt>
      <trkpt lat="44.92576" lon="5.63786">
        <ele>798.4</ele>
        <time>2021-04-22T09:42:05Z</time>
      </trkpt>
      <trkpt lat="44.92566" lon="5.63785">
        <ele>798.7</ele>
        <time>2021-04-22T09:42:07Z</time>
      </trkpt>
      <trkpt lat="44.92561" lon="5.63788">
        <ele>798.8</ele>
        <time>2021-04-22T09:42:08Z</time>
      </trkpt>
      <trkpt lat="44.92556" lon="5.63791">
        <ele>798.9</ele>
        <time>2021-04-22T09:42:09Z</time>
      </trkpt>
      <trkpt lat="44.92553" lon="5.63791">
        <ele>799</ele>
        <time>2021-04-22T09:42:10Z</time>
      </trkpt>
      <trkpt lat="44.92548" lon="5.63784">
        <ele>799.1</ele>
        <time>2021-04-22T09:42:12Z</time>
      </trkpt>
      <trkpt lat="44.92544" lon="5.63782">
        <ele>799.2</ele>
        <time>2021-04-22T09:42:13Z</time>
      </trkpt>
      <trkpt lat="44.92536" lon="5.63781">
        <ele>799.4</ele>
        <time>2021-04-22T09:42:15Z</time>
      </trkpt>
      <trkpt lat="44.92533" lon="5.6378">
        <ele>799.5</ele>
        <time>2021-04-22T09:42:16Z</time>
      </trkpt>
      <trkpt lat="44.92528" lon="5.63779">
        <ele>799.6</ele>
        <time>2021-04-22T09:42:17Z</time>
      </trkpt>
      <trkpt lat="44.92522" lon="5.63779">
        <ele>799.7</ele>
        <time>2021-04-22T09:42:18Z</time>
      </trkpt>
      <trkpt lat="44.92517" lon="5.63779">
        <ele>799.8</ele>
        <time>2021-04-22T09:42:20Z</time>
      </trkpt>
      <trkpt lat="44.92509" lon="5.63776">
        <ele>800</ele>
        <time>2021-04-22T09:42:22Z</time>
      </trkpt>
      <trkpt lat="44.92505" lon="5.63775">
        <ele>800.1</ele>
        <time>2021-04-22T09:42:23Z</time>
      </trkpt>
      <trkpt lat="44.92502" lon="5.63774">
        <ele>800.2</ele>
        <time>2021-04-22T09:42:24Z</time>
      </trkpt>
      <trkpt lat="44.92497" lon="5.63773">
        <ele>800.3</ele>
        <time>2021-04-22T09:42:25Z</time>
      </trkpt>
      <trkpt lat="44.92491" lon="5.63772">
        <ele>800.4</ele>
        <time>2021-04-22T09:42:26Z</time>
      </trkpt>
      <trkpt lat="44.92481" lon="5.6377">
        <ele>800.6</ele>
        <time>2021-04-22T09:42:28Z</time>
      </trkpt>
      <trkpt lat="44.92475" lon="5.63768">
        <ele>800.8</ele>
        <time>2021-04-22T09:42:30Z</time>
      </trkpt>
      <trkpt lat="44.92471" lon="5.63767">
        <ele>800.8</ele>
        <time>2021-04-22T09:42:31Z</time>
      </trkpt>
      <trkpt lat="44.92464" lon="5.63764">
        <ele>801</ele>
        <time>2021-04-22T09:42:33Z</time>
      </trkpt>
      <trkpt lat="44.9246" lon="5.63763">
        <ele>801.1</ele>
        <time>2021-04-22T09:42:34Z</time>
      </trkpt>
      <trkpt lat="44.92455" lon="5.6376">
        <ele>801.2</ele>
        <time>2021-04-22T09:42:35Z</time>
      </trkpt>
      <trkpt lat="44.9245" lon="5.63759">
        <ele>801.3</ele>
        <time>2021-04-22T09:42:36Z</time>
      </trkpt>
      <trkpt lat="44.92445" lon="5.63758">
        <ele>801.4</ele>
        <time>2021-04-22T09:42:37Z</time>
      </trkpt>
      <trkpt lat="44.92441" lon="5.63758">
        <ele>801.4</ele>
        <time>2021-04-22T09:42:38Z</time>
      </trkpt>
      <trkpt lat="44.92437" lon="5.63761">
        <ele>801.5</ele>
        <time>2021-04-22T09:42:39Z</time>
      </trkpt>
      <trkpt lat="44.92429" lon="5.63752">
        <ele>801.7</ele>
        <time>2021-04-22T09:42:41Z</time>
      </trkpt>
      <trkpt lat="44.92424" lon="5.63748">
        <ele>801.8</ele>
        <time>2021-04-22T09:42:42Z</time>
      </trkpt>
      <trkpt lat="44.92419" lon="5.63742">
        <ele>802</ele>
        <time>2021-04-22T09:42:43Z</time>
      </trkpt>
      <trkpt lat="44.92413" lon="5.63743">
        <ele>802.1</ele>
        <time>2021-04-22T09:42:45Z</time>
      </trkpt>
      <trkpt lat="44.92409" lon="5.63741">
        <ele>802.1</ele>
        <time>2021-04-22T09:42:46Z</time>
      </trkpt>
      <trkpt lat="44.92404" lon="5.63738">
        <ele>802.2</ele>
        <time>2021-04-22T09:42:47Z</time>
      </trkpt>
      <trkpt lat="44.92399" lon="5.63737">
        <ele>802.3</ele>
        <time>2021-04-22T09:42:48Z</time>
      </trkpt>
      <trkpt lat="44.92394" lon="5.63735">
        <ele>802.4</ele>
        <time>2021-04-22T09:42:49Z</time>
      </trkpt>
      <trkpt lat="44.92389" lon="5.63734">
        <ele>802.4</ele>
        <time>2021-04-22T09:42:50Z</time>
      </trkpt>
      <trkpt lat="44.92385" lon="5.63733">
        <ele>802.5</ele>
        <time>2021-04-22T09:42:51Z</time>
      </trkpt>
      <trkpt lat="44.9238" lon="5.63732">
        <ele>802.6</ele>
        <time>2021-04-22T09:42:52Z</time>
      </trkpt>
      <trkpt lat="44.92376" lon="5.63731">
        <ele>802.6</ele>
        <time>2021-04-22T09:42:53Z</time>
      </trkpt>
      <trkpt lat="44.92371" lon="5.6373">
        <ele>802.7</ele>
        <time>2021-04-22T09:42:54Z</time>
      </trkpt>
      <trkpt lat="44.92366" lon="5.63728">
        <ele>802.7</ele>
        <time>2021-04-22T09:42:55Z</time>
      </trkpt>
      <trkpt lat="44.92361" lon="5.63727">
        <ele>802.8</ele>
        <time>2021-04-22T09:42:56Z</time>
      </trkpt>
      <trkpt lat="44.92357" lon="5.63725">
        <ele>802.8</ele>
        <time>2021-04-22T09:42:57Z</time>
      </trkpt>
      <trkpt lat="44.92352" lon="5.63724">
        <ele>802.9</ele>
        <time>2021-04-22T09:42:58Z</time>
      </trkpt>
      <trkpt lat="44.92349" lon="5.63722">
        <ele>802.9</ele>
        <time>2021-04-22T09:42:59Z</time>
      </trkpt>
      <trkpt lat="44.92344" lon="5.63721">
        <ele>803</ele>
        <time>2021-04-22T09:43:00Z</time>
      </trkpt>
      <trkpt lat="44.92339" lon="5.63719">
        <ele>803</ele>
        <time>2021-04-22T09:43:01Z</time>
      </trkpt>
      <trkpt lat="44.92334" lon="5.63717">
        <ele>803</ele>
        <time>2021-04-22T09:43:02Z</time>
      </trkpt>
      <trkpt lat="44.9233" lon="5.63716">
        <ele>803.1</ele>
        <time>2021-04-22T09:43:03Z</time>
      </trkpt>
      <trkpt lat="44.92325" lon="5.63714">
        <ele>803.1</ele>
        <time>2021-04-22T09:43:04Z</time>
      </trkpt>
      <trkpt lat="44.9232" lon="5.63713">
        <ele>803.2</ele>
        <time>2021-04-22T09:43:05Z</time>
      </trkpt>
      <trkpt lat="44.92315" lon="5.63712">
        <ele>803.2</ele>
        <time>2021-04-22T09:43:06Z</time>
      </trkpt>
      <trkpt lat="44.92311" lon="5.6371">
        <ele>803.3</ele>
        <time>2021-04-22T09:43:07Z</time>
      </trkpt>
      <trkpt lat="44.92305" lon="5.63709">
        <ele>803.3</ele>
        <time>2021-04-22T09:43:08Z</time>
      </trkpt>
      <trkpt lat="44.92301" lon="5.63707">
        <ele>803.4</ele>
        <time>2021-04-22T09:43:09Z</time>
      </trkpt>
      <trkpt lat="44.92296" lon="5.63706">
        <ele>803.4</ele>
        <time>2021-04-22T09:43:10Z</time>
      </trkpt>
      <trkpt lat="44.92291" lon="5.63704">
        <ele>803.4</ele>
        <time>2021-04-22T09:43:11Z</time>
      </trkpt>
      <trkpt lat="44.92286" lon="5.63702">
        <ele>803.5</ele>
        <time>2021-04-22T09:43:12Z</time>
      </trkpt>
      <trkpt lat="44.92281" lon="5.637">
        <ele>803.5</ele>
        <time>2021-04-22T09:43:13Z</time>
      </trkpt>
      <trkpt lat="44.92276" lon="5.63698">
        <ele>803.5</ele>
        <time>2021-04-22T09:43:14Z</time>
      </trkpt>
      <trkpt lat="44.92271" lon="5.63696">
        <ele>803.6</ele>
        <time>2021-04-22T09:43:15Z</time>
      </trkpt>
      <trkpt lat="44.92265" lon="5.63695">
        <ele>803.6</ele>
        <time>2021-04-22T09:43:16Z</time>
      </trkpt>
      <trkpt lat="44.9226" lon="5.63694">
        <ele>803.6</ele>
        <time>2021-04-22T09:43:17Z</time>
      </trkpt>
      <trkpt lat="44.92255" lon="5.63693">
        <ele>803.6</ele>
        <time>2021-04-22T09:43:18Z</time>
      </trkpt>
      <trkpt lat="44.9225" lon="5.63691">
        <ele>803.7</ele>
        <time>2021-04-22T09:43:19Z</time>
      </trkpt>
      <trkpt lat="44.92245" lon="5.63689">
        <ele>803.7</ele>
        <time>2021-04-22T09:43:20Z</time>
      </trkpt>
      <trkpt lat="44.9224" lon="5.63688">
        <ele>803.7</ele>
        <time>2021-04-22T09:43:21Z</time>
      </trkpt>
      <trkpt lat="44.92235" lon="5.63686">
        <ele>803.7</ele>
        <time>2021-04-22T09:43:22Z</time>
      </trkpt>
      <trkpt lat="44.92229" lon="5.63685">
        <ele>803.7</ele>
        <time>2021-04-22T09:43:23Z</time>
      </trkpt>
      <trkpt lat="44.92225" lon="5.63683">
        <ele>803.8</ele>
        <time>2021-04-22T09:43:24Z</time>
      </trkpt>
      <trkpt lat="44.9222" lon="5.6368">
        <ele>803.8</ele>
        <time>2021-04-22T09:43:25Z</time>
      </trkpt>
      <trkpt lat="44.92215" lon="5.63678">
        <ele>803.8</ele>
        <time>2021-04-22T09:43:26Z</time>
      </trkpt>
      <trkpt lat="44.9221" lon="5.63676">
        <ele>803.8</ele>
        <time>2021-04-22T09:43:27Z</time>
      </trkpt>
      <trkpt lat="44.92204" lon="5.63675">
        <ele>803.8</ele>
        <time>2021-04-22T09:43:28Z</time>
      </trkpt>
      <trkpt lat="44.92199" lon="5.63673">
        <ele>803.8</ele>
        <time>2021-04-22T09:43:29Z</time>
      </trkpt>
      <trkpt lat="44.92194" lon="5.63672">
        <ele>803.9</ele>
        <time>2021-04-22T09:43:30Z</time>
      </trkpt>
      <trkpt lat="44.92189" lon="5.6367">
        <ele>803.9</ele>
        <time>2021-04-22T09:43:31Z</time>
      </trkpt>
      <trkpt lat="44.92184" lon="5.63669">
        <ele>803.9</ele>
        <time>2021-04-22T09:43:32Z</time>
      </trkpt>
      <trkpt lat="44.92178" lon="5.63667">
        <ele>803.9</ele>
        <time>2021-04-22T09:43:33Z</time>
      </trkpt>
      <trkpt lat="44.92173" lon="5.63666">
        <ele>803.9</ele>
        <time>2021-04-22T09:43:34Z</time>
      </trkpt>
      <trkpt lat="44.92168" lon="5.63664">
        <ele>803.9</ele>
        <time>2021-04-22T09:43:35Z</time>
      </trkpt>
      <trkpt lat="44.92163" lon="5.63663">
        <ele>803.9</ele>
        <time>2021-04-22T09:43:36Z</time>
      </trkpt>
      <trkpt lat="44.92158" lon="5.63662">
        <ele>803.9</ele>
        <time>2021-04-22T09:43:37Z</time>
      </trkpt>
      <trkpt lat="44.92153" lon="5.63661">
        <ele>804</ele>
        <time>2021-04-22T09:43:38Z</time>
      </trkpt>
      <trkpt lat="44.92148" lon="5.63659">
        <ele>804</ele>
        <time>2021-04-22T09:43:39Z</time>
      </trkpt>
      <trkpt lat="44.92143" lon="5.63658">
        <ele>804</ele>
        <time>2021-04-22T09:43:40Z</time>
      </trkpt>
      <trkpt lat="44.92139" lon="5.63653">
        <ele>804</ele>
        <time>2021-04-22T09:43:41Z</time>
      </trkpt>
      <trkpt lat="44.92135" lon="5.63648">
        <ele>804</ele>
        <time>2021-04-22T09:43:42Z</time>
      </trkpt>
      <trkpt lat="44.92131" lon="5.63641">
        <ele>804</ele>
        <time>2021-04-22T09:43:43Z</time>
      </trkpt>
      <trkpt lat="44.92129" lon="5.63634">
        <ele>804</ele>
        <time>2021-04-22T09:43:44Z</time>
      </trkpt>
      <trkpt lat="44.92127" lon="5.63625">
        <ele>803.5</ele>
        <time>2021-04-22T09:43:45Z</time>
      </trkpt>
      <trkpt lat="44.92125" lon="5.63617">
        <ele>802.9</ele>
        <time>2021-04-22T09:43:46Z</time>
      </trkpt>
      <trkpt lat="44.9212" lon="5.6361">
        <ele>803</ele>
        <time>2021-04-22T09:43:47Z</time>
      </trkpt>
      <trkpt lat="44.92116" lon="5.63604">
        <ele>803.1</ele>
        <time>2021-04-22T09:43:48Z</time>
      </trkpt>
      <trkpt lat="44.92112" lon="5.63596">
        <ele>803.2</ele>
        <time>2021-04-22T09:43:49Z</time>
      </trkpt>
      <trkpt lat="44.92109" lon="5.63589">
        <ele>803.3</ele>
        <time>2021-04-22T09:43:50Z</time>
      </trkpt>
      <trkpt lat="44.92106" lon="5.63581">
        <ele>803.3</ele>
        <time>2021-04-22T09:43:51Z</time>
      </trkpt>
      <trkpt lat="44.92104" lon="5.63573">
        <ele>803.4</ele>
        <time>2021-04-22T09:43:52Z</time>
      </trkpt>
      <trkpt lat="44.92101" lon="5.63565">
        <ele>803.6</ele>
        <time>2021-04-22T09:43:53Z</time>
      </trkpt>
      <trkpt lat="44.92098" lon="5.63557">
        <ele>803.7</ele>
        <time>2021-04-22T09:43:54Z</time>
      </trkpt>
      <trkpt lat="44.92095" lon="5.6355">
        <ele>803.9</ele>
        <time>2021-04-22T09:43:55Z</time>
      </trkpt>
      <trkpt lat="44.92092" lon="5.63543">
        <ele>804.1</ele>
        <time>2021-04-22T09:43:56Z</time>
      </trkpt>
      <trkpt lat="44.92089" lon="5.63537">
        <ele>804.2</ele>
        <time>2021-04-22T09:43:57Z</time>
      </trkpt>
      <trkpt lat="44.92085" lon="5.63531">
        <ele>804.3</ele>
        <time>2021-04-22T09:43:58Z</time>
      </trkpt>
      <trkpt lat="44.92083" lon="5.63525">
        <ele>804.5</ele>
        <time>2021-04-22T09:43:59Z</time>
      </trkpt>
      <trkpt lat="44.9208" lon="5.63519">
        <ele>804.6</ele>
        <time>2021-04-22T09:44:00Z</time>
      </trkpt>
      <trkpt lat="44.92077" lon="5.63515">
        <ele>804.8</ele>
        <time>2021-04-22T09:44:01Z</time>
      </trkpt>
      <trkpt lat="44.92074" lon="5.63511">
        <ele>804.9</ele>
        <time>2021-04-22T09:44:02Z</time>
      </trkpt>
      <trkpt lat="44.92073" lon="5.6351">
        <ele>804.9</ele>
        <time>2021-04-22T09:44:03Z</time>
      </trkpt>
      <trkpt lat="44.9207" lon="5.63506">
        <ele>805.1</ele>
        <time>2021-04-22T09:44:04Z</time>
      </trkpt>
      <trkpt lat="44.92067" lon="5.63502">
        <ele>805.2</ele>
        <time>2021-04-22T09:44:05Z</time>
      </trkpt>
      <trkpt lat="44.92064" lon="5.63498">
        <ele>805.3</ele>
        <time>2021-04-22T09:44:06Z</time>
      </trkpt>
      <trkpt lat="44.92061" lon="5.63494">
        <ele>805.5</ele>
        <time>2021-04-22T09:44:07Z</time>
      </trkpt>
      <trkpt lat="44.92057" lon="5.6349">
        <ele>805.6</ele>
        <time>2021-04-22T09:44:08Z</time>
      </trkpt>
      <trkpt lat="44.92053" lon="5.63479">
        <ele>805.9</ele>
        <time>2021-04-22T09:44:10Z</time>
      </trkpt>
      <trkpt lat="44.92049" lon="5.63476">
        <ele>806.1</ele>
        <time>2021-04-22T09:44:11Z</time>
      </trkpt>
      <trkpt lat="44.92042" lon="5.63471">
        <ele>806.4</ele>
        <time>2021-04-22T09:44:13Z</time>
      </trkpt>
      <trkpt lat="44.92038" lon="5.63469">
        <ele>806.6</ele>
        <time>2021-04-22T09:44:14Z</time>
      </trkpt>
      <trkpt lat="44.92033" lon="5.63467">
        <ele>806.8</ele>
        <time>2021-04-22T09:44:15Z</time>
      </trkpt>
      <trkpt lat="44.92024" lon="5.63462">
        <ele>807.2</ele>
        <time>2021-04-22T09:44:17Z</time>
      </trkpt>
      <trkpt lat="44.92017" lon="5.63459">
        <ele>807.5</ele>
        <time>2021-04-22T09:44:19Z</time>
      </trkpt>
      <trkpt lat="44.92009" lon="5.63457">
        <ele>807.8</ele>
        <time>2021-04-22T09:44:21Z</time>
      </trkpt>
      <trkpt lat="44.92003" lon="5.63456">
        <ele>808.1</ele>
        <time>2021-04-22T09:44:22Z</time>
      </trkpt>
      <trkpt lat="44.91995" lon="5.63455">
        <ele>808.4</ele>
        <time>2021-04-22T09:44:24Z</time>
      </trkpt>
      <trkpt lat="44.91986" lon="5.63455">
        <ele>808.8</ele>
        <time>2021-04-22T09:44:26Z</time>
      </trkpt>
      <trkpt lat="44.91978" lon="5.63455">
        <ele>809.1</ele>
        <time>2021-04-22T09:44:28Z</time>
      </trkpt>
      <trkpt lat="44.9197" lon="5.63456">
        <ele>809.5</ele>
        <time>2021-04-22T09:44:30Z</time>
      </trkpt>
      <trkpt lat="44.91966" lon="5.63457">
        <ele>809.6</ele>
        <time>2021-04-22T09:44:31Z</time>
      </trkpt>
      <trkpt lat="44.91962" lon="5.63456">
        <ele>809.8</ele>
        <time>2021-04-22T09:44:32Z</time>
      </trkpt>
      <trkpt lat="44.91957" lon="5.63457">
        <ele>810.1</ele>
        <time>2021-04-22T09:44:33Z</time>
      </trkpt>
      <trkpt lat="44.9195" lon="5.63457">
        <ele>810.4</ele>
        <time>2021-04-22T09:44:35Z</time>
      </trkpt>
      <trkpt lat="44.91948" lon="5.63458">
        <ele>810.6</ele>
        <time>2021-04-22T09:44:36Z</time>
      </trkpt>
      <trkpt lat="44.9194" lon="5.63458">
        <ele>811</ele>
        <time>2021-04-22T09:44:38Z</time>
      </trkpt>
      <trkpt lat="44.91933" lon="5.63457">
        <ele>811.4</ele>
        <time>2021-04-22T09:44:40Z</time>
      </trkpt>
      <trkpt lat="44.91929" lon="5.63455">
        <ele>811.7</ele>
        <time>2021-04-22T09:44:41Z</time>
      </trkpt>
      <trkpt lat="44.91922" lon="5.63452">
        <ele>812.2</ele>
        <time>2021-04-22T09:44:43Z</time>
      </trkpt>
      <trkpt lat="44.91919" lon="5.6345">
        <ele>812.4</ele>
        <time>2021-04-22T09:44:44Z</time>
      </trkpt>
      <trkpt lat="44.91916" lon="5.63449">
        <ele>812.7</ele>
        <time>2021-04-22T09:44:45Z</time>
      </trkpt>
      <trkpt lat="44.91913" lon="5.63446">
        <ele>812.9</ele>
        <time>2021-04-22T09:44:46Z</time>
      </trkpt>
      <trkpt lat="44.9191" lon="5.63444">
        <ele>813.2</ele>
        <time>2021-04-22T09:44:47Z</time>
      </trkpt>
      <trkpt lat="44.91907" lon="5.63442">
        <ele>813.4</ele>
        <time>2021-04-22T09:44:48Z</time>
      </trkpt>
      <trkpt lat="44.91904" lon="5.63439">
        <ele>813.7</ele>
        <time>2021-04-22T09:44:49Z</time>
      </trkpt>
      <trkpt lat="44.91902" lon="5.63436">
        <ele>813.9</ele>
        <time>2021-04-22T09:44:50Z</time>
      </trkpt>
      <trkpt lat="44.91899" lon="5.63433">
        <ele>814.2</ele>
        <time>2021-04-22T09:44:51Z</time>
      </trkpt>
      <trkpt lat="44.91896" lon="5.6343">
        <ele>814.4</ele>
        <time>2021-04-22T09:44:52Z</time>
      </trkpt>
      <trkpt lat="44.91893" lon="5.63427">
        <ele>814.7</ele>
        <time>2021-04-22T09:44:53Z</time>
      </trkpt>
      <trkpt lat="44.9189" lon="5.63424">
        <ele>815</ele>
        <time>2021-04-22T09:44:54Z</time>
      </trkpt>
      <trkpt lat="44.91885" lon="5.63417">
        <ele>815.5</ele>
        <time>2021-04-22T09:44:56Z</time>
      </trkpt>
      <trkpt lat="44.91882" lon="5.63414">
        <ele>815.8</ele>
        <time>2021-04-22T09:44:57Z</time>
      </trkpt>
      <trkpt lat="44.91876" lon="5.63407">
        <ele>816.3</ele>
        <time>2021-04-22T09:44:59Z</time>
      </trkpt>
      <trkpt lat="44.91874" lon="5.63404">
        <ele>816.6</ele>
        <time>2021-04-22T09:45:00Z</time>
      </trkpt>
      <trkpt lat="44.91869" lon="5.63399">
        <ele>817</ele>
        <time>2021-04-22T09:45:02Z</time>
      </trkpt>
      <trkpt lat="44.91866" lon="5.63397">
        <ele>817.2</ele>
        <time>2021-04-22T09:45:03Z</time>
      </trkpt>
      <trkpt lat="44.91863" lon="5.63393">
        <ele>817.5</ele>
        <time>2021-04-22T09:45:04Z</time>
      </trkpt>
      <trkpt lat="44.91858" lon="5.63387">
        <ele>817.9</ele>
        <time>2021-04-22T09:45:06Z</time>
      </trkpt>
      <trkpt lat="44.91855" lon="5.63384">
        <ele>818.2</ele>
        <time>2021-04-22T09:45:07Z</time>
      </trkpt>
      <trkpt lat="44.91852" lon="5.6338">
        <ele>818.5</ele>
        <time>2021-04-22T09:45:09Z</time>
      </trkpt>
      <trkpt lat="44.91849" lon="5.63377">
        <ele>818.7</ele>
        <time>2021-04-22T09:45:10Z</time>
      </trkpt>
      <trkpt lat="44.91844" lon="5.63373">
        <ele>819</ele>
        <time>2021-04-22T09:45:12Z</time>
      </trkpt>
      <trkpt lat="44.91842" lon="5.63371">
        <ele>819.2</ele>
        <time>2021-04-22T09:45:13Z</time>
      </trkpt>
      <trkpt lat="44.91839" lon="5.63369">
        <ele>819.4</ele>
        <time>2021-04-22T09:45:14Z</time>
      </trkpt>
      <trkpt lat="44.91835" lon="5.63365">
        <ele>819.7</ele>
        <time>2021-04-22T09:45:15Z</time>
      </trkpt>
      <trkpt lat="44.91833" lon="5.63363">
        <ele>819.8</ele>
        <time>2021-04-22T09:45:16Z</time>
      </trkpt>
      <trkpt lat="44.91828" lon="5.63359">
        <ele>820.1</ele>
        <time>2021-04-22T09:45:18Z</time>
      </trkpt>
      <trkpt lat="44.91825" lon="5.63354">
        <ele>820.3</ele>
        <time>2021-04-22T09:45:19Z</time>
      </trkpt>
      <trkpt lat="44.91819" lon="5.63349">
        <ele>820.6</ele>
        <time>2021-04-22T09:45:21Z</time>
      </trkpt>
      <trkpt lat="44.91815" lon="5.63344">
        <ele>820.9</ele>
        <time>2021-04-22T09:45:22Z</time>
      </trkpt>
      <trkpt lat="44.91812" lon="5.63341">
        <ele>821</ele>
        <time>2021-04-22T09:45:24Z</time>
      </trkpt>
      <trkpt lat="44.91806" lon="5.63335">
        <ele>821.3</ele>
        <time>2021-04-22T09:45:26Z</time>
      </trkpt>
      <trkpt lat="44.91801" lon="5.63329">
        <ele>821.6</ele>
        <time>2021-04-22T09:45:28Z</time>
      </trkpt>
      <trkpt lat="44.91795" lon="5.63323">
        <ele>821.9</ele>
        <time>2021-04-22T09:45:30Z</time>
      </trkpt>
      <trkpt lat="44.91789" lon="5.63317">
        <ele>822.1</ele>
        <time>2021-04-22T09:45:32Z</time>
      </trkpt>
      <trkpt lat="44.91784" lon="5.63313">
        <ele>822.3</ele>
        <time>2021-04-22T09:45:34Z</time>
      </trkpt>
      <trkpt lat="44.91778" lon="5.63308">
        <ele>822.6</ele>
        <time>2021-04-22T09:45:36Z</time>
      </trkpt>
      <trkpt lat="44.91772" lon="5.63304">
        <ele>822.8</ele>
        <time>2021-04-22T09:45:37Z</time>
      </trkpt>
      <trkpt lat="44.91766" lon="5.633">
        <ele>823</ele>
        <time>2021-04-22T09:45:39Z</time>
      </trkpt>
      <trkpt lat="44.9176" lon="5.63295">
        <ele>823.2</ele>
        <time>2021-04-22T09:45:41Z</time>
      </trkpt>
      <trkpt lat="44.91757" lon="5.63293">
        <ele>823.2</ele>
        <time>2021-04-22T09:45:42Z</time>
      </trkpt>
      <trkpt lat="44.91754" lon="5.63292">
        <ele>823.3</ele>
        <time>2021-04-22T09:45:43Z</time>
      </trkpt>
      <trkpt lat="44.9175" lon="5.6329">
        <ele>823.4</ele>
        <time>2021-04-22T09:45:44Z</time>
      </trkpt>
      <trkpt lat="44.91745" lon="5.63289">
        <ele>823.5</ele>
        <time>2021-04-22T09:45:45Z</time>
      </trkpt>
      <trkpt lat="44.91738" lon="5.63289">
        <ele>823.6</ele>
        <time>2021-04-22T09:45:47Z</time>
      </trkpt>
      <trkpt lat="44.91733" lon="5.63289">
        <ele>823.7</ele>
        <time>2021-04-22T09:45:48Z</time>
      </trkpt>
      <trkpt lat="44.91727" lon="5.6329">
        <ele>823.8</ele>
        <time>2021-04-22T09:45:49Z</time>
      </trkpt>
      <trkpt lat="44.91719" lon="5.63291">
        <ele>824</ele>
        <time>2021-04-22T09:45:51Z</time>
      </trkpt>
      <trkpt lat="44.91715" lon="5.63292">
        <ele>824</ele>
        <time>2021-04-22T09:45:52Z</time>
      </trkpt>
      <trkpt lat="44.91707" lon="5.63299">
        <ele>824.2</ele>
        <time>2021-04-22T09:45:54Z</time>
      </trkpt>
      <trkpt lat="44.91703" lon="5.63301">
        <ele>824.3</ele>
        <time>2021-04-22T09:45:55Z</time>
      </trkpt>
      <trkpt lat="44.91699" lon="5.63304">
        <ele>824.4</ele>
        <time>2021-04-22T09:45:56Z</time>
      </trkpt>
      <trkpt lat="44.91694" lon="5.63307">
        <ele>824.5</ele>
        <time>2021-04-22T09:45:57Z</time>
      </trkpt>
      <trkpt lat="44.9169" lon="5.6331">
        <ele>824.5</ele>
        <time>2021-04-22T09:45:58Z</time>
      </trkpt>
      <trkpt lat="44.91686" lon="5.63314">
        <ele>824.6</ele>
        <time>2021-04-22T09:45:59Z</time>
      </trkpt>
      <trkpt lat="44.91682" lon="5.63317">
        <ele>824.6</ele>
        <time>2021-04-22T09:46:00Z</time>
      </trkpt>
      <trkpt lat="44.91677" lon="5.6332">
        <ele>824.6</ele>
        <time>2021-04-22T09:46:01Z</time>
      </trkpt>
      <trkpt lat="44.91671" lon="5.63329">
        <ele>824.7</ele>
        <time>2021-04-22T09:46:03Z</time>
      </trkpt>
      <trkpt lat="44.91668" lon="5.63334">
        <ele>824.8</ele>
        <time>2021-04-22T09:46:04Z</time>
      </trkpt>
      <trkpt lat="44.91664" lon="5.63338">
        <ele>824.9</ele>
        <time>2021-04-22T09:46:05Z</time>
      </trkpt>
      <trkpt lat="44.91661" lon="5.63342">
        <ele>825</ele>
        <time>2021-04-22T09:46:06Z</time>
      </trkpt>
      <trkpt lat="44.91658" lon="5.63346">
        <ele>825.1</ele>
        <time>2021-04-22T09:46:07Z</time>
      </trkpt>
      <trkpt lat="44.91655" lon="5.63351">
        <ele>825.2</ele>
        <time>2021-04-22T09:46:08Z</time>
      </trkpt>
      <trkpt lat="44.91651" lon="5.63356">
        <ele>825.3</ele>
        <time>2021-04-22T09:46:09Z</time>
      </trkpt>
      <trkpt lat="44.91648" lon="5.6336">
        <ele>825.4</ele>
        <time>2021-04-22T09:46:10Z</time>
      </trkpt>
      <trkpt lat="44.91644" lon="5.63365">
        <ele>825.6</ele>
        <time>2021-04-22T09:46:11Z</time>
      </trkpt>
      <trkpt lat="44.9164" lon="5.6337">
        <ele>825.7</ele>
        <time>2021-04-22T09:46:12Z</time>
      </trkpt>
      <trkpt lat="44.91634" lon="5.63377">
        <ele>826</ele>
        <time>2021-04-22T09:46:14Z</time>
      </trkpt>
      <trkpt lat="44.9163" lon="5.63382">
        <ele>826.1</ele>
        <time>2021-04-22T09:46:15Z</time>
      </trkpt>
      <trkpt lat="44.91627" lon="5.63386">
        <ele>826.3</ele>
        <time>2021-04-22T09:46:16Z</time>
      </trkpt>
      <trkpt lat="44.91624" lon="5.63389">
        <ele>826.4</ele>
        <time>2021-04-22T09:46:17Z</time>
      </trkpt>
      <trkpt lat="44.91618" lon="5.63395">
        <ele>826.7</ele>
        <time>2021-04-22T09:46:18Z</time>
      </trkpt>
      <trkpt lat="44.91617" lon="5.63404">
        <ele>826.9</ele>
        <time>2021-04-22T09:46:20Z</time>
      </trkpt>
      <trkpt lat="44.9161" lon="5.63406">
        <ele>827</ele>
        <time>2021-04-22T09:46:21Z</time>
      </trkpt>
      <trkpt lat="44.91602" lon="5.63407">
        <ele>827.3</ele>
        <time>2021-04-22T09:46:23Z</time>
      </trkpt>
      <trkpt lat="44.91597" lon="5.63406">
        <ele>827.7</ele>
        <time>2021-04-22T09:46:24Z</time>
      </trkpt>
      <trkpt lat="44.91591" lon="5.63406">
        <ele>828.2</ele>
        <time>2021-04-22T09:46:26Z</time>
      </trkpt>
      <trkpt lat="44.91585" lon="5.63405">
        <ele>828.6</ele>
        <time>2021-04-22T09:46:28Z</time>
      </trkpt>
      <trkpt lat="44.91579" lon="5.634">
        <ele>829.1</ele>
        <time>2021-04-22T09:46:30Z</time>
      </trkpt>
      <trkpt lat="44.91576" lon="5.63398">
        <ele>829.3</ele>
        <time>2021-04-22T09:46:31Z</time>
      </trkpt>
      <trkpt lat="44.9157" lon="5.63395">
        <ele>829.7</ele>
        <time>2021-04-22T09:46:33Z</time>
      </trkpt>
      <trkpt lat="44.91567" lon="5.63394">
        <ele>829.9</ele>
        <time>2021-04-22T09:46:34Z</time>
      </trkpt>
      <trkpt lat="44.91563" lon="5.63392">
        <ele>830.2</ele>
        <time>2021-04-22T09:46:35Z</time>
      </trkpt>
      <trkpt lat="44.91556" lon="5.6339">
        <ele>830.4</ele>
        <time>2021-04-22T09:46:37Z</time>
      </trkpt>
      <trkpt lat="44.91551" lon="5.63389">
        <ele>830.5</ele>
        <time>2021-04-22T09:46:38Z</time>
      </trkpt>
      <trkpt lat="44.91548" lon="5.63388">
        <ele>830.6</ele>
        <time>2021-04-22T09:46:40Z</time>
      </trkpt>
      <trkpt lat="44.91543" lon="5.63386">
        <ele>830.8</ele>
        <time>2021-04-22T09:46:42Z</time>
      </trkpt>
      <trkpt lat="44.9154" lon="5.63385">
        <ele>830.9</ele>
        <time>2021-04-22T09:46:43Z</time>
      </trkpt>
      <trkpt lat="44.91537" lon="5.63384">
        <ele>831.1</ele>
        <time>2021-04-22T09:46:44Z</time>
      </trkpt>
      <trkpt lat="44.91531" lon="5.63382">
        <ele>831.6</ele>
        <time>2021-04-22T09:46:46Z</time>
      </trkpt>
      <trkpt lat="44.91526" lon="5.63379">
        <ele>832</ele>
        <time>2021-04-22T09:46:48Z</time>
      </trkpt>
      <trkpt lat="44.91522" lon="5.63377">
        <ele>832.4</ele>
        <time>2021-04-22T09:46:49Z</time>
      </trkpt>
      <trkpt lat="44.91516" lon="5.63375">
        <ele>832.9</ele>
        <time>2021-04-22T09:46:51Z</time>
      </trkpt>
      <trkpt lat="44.9151" lon="5.63371">
        <ele>833.3</ele>
        <time>2021-04-22T09:46:53Z</time>
      </trkpt>
      <trkpt lat="44.91505" lon="5.63368">
        <ele>833.8</ele>
        <time>2021-04-22T09:46:55Z</time>
      </trkpt>
      <trkpt lat="44.91502" lon="5.63366">
        <ele>834</ele>
        <time>2021-04-22T09:46:56Z</time>
      </trkpt>
      <trkpt lat="44.91499" lon="5.63365">
        <ele>834.3</ele>
        <time>2021-04-22T09:46:57Z</time>
      </trkpt>
      <trkpt lat="44.91496" lon="5.63363">
        <ele>834.5</ele>
        <time>2021-04-22T09:46:59Z</time>
      </trkpt>
      <trkpt lat="44.91493" lon="5.63362">
        <ele>834.7</ele>
        <time>2021-04-22T09:47:00Z</time>
      </trkpt>
      <trkpt lat="44.91487" lon="5.63358">
        <ele>835.2</ele>
        <time>2021-04-22T09:47:02Z</time>
      </trkpt>
      <trkpt lat="44.91482" lon="5.63356">
        <ele>835.6</ele>
        <time>2021-04-22T09:47:03Z</time>
      </trkpt>
      <trkpt lat="44.91477" lon="5.63354">
        <ele>836</ele>
        <time>2021-04-22T09:47:05Z</time>
      </trkpt>
      <trkpt lat="44.91472" lon="5.63352">
        <ele>836.3</ele>
        <time>2021-04-22T09:47:06Z</time>
      </trkpt>
      <trkpt lat="44.91468" lon="5.6335">
        <ele>836.7</ele>
        <time>2021-04-22T09:47:08Z</time>
      </trkpt>
      <trkpt lat="44.91463" lon="5.63348">
        <ele>837</ele>
        <time>2021-04-22T09:47:09Z</time>
      </trkpt>
      <trkpt lat="44.9146" lon="5.63346">
        <ele>837.2</ele>
        <time>2021-04-22T09:47:11Z</time>
      </trkpt>
      <trkpt lat="44.91455" lon="5.63343">
        <ele>837.6</ele>
        <time>2021-04-22T09:47:13Z</time>
      </trkpt>
      <trkpt lat="44.91451" lon="5.63342">
        <ele>837.8</ele>
        <time>2021-04-22T09:47:14Z</time>
      </trkpt>
      <trkpt lat="44.91446" lon="5.6334">
        <ele>838.2</ele>
        <time>2021-04-22T09:47:16Z</time>
      </trkpt>
      <trkpt lat="44.91442" lon="5.63338">
        <ele>838.4</ele>
        <time>2021-04-22T09:47:17Z</time>
      </trkpt>
      <trkpt lat="44.91437" lon="5.63336">
        <ele>838.7</ele>
        <time>2021-04-22T09:47:19Z</time>
      </trkpt>
      <trkpt lat="44.91434" lon="5.63335">
        <ele>838.9</ele>
        <time>2021-04-22T09:47:20Z</time>
      </trkpt>
      <trkpt lat="44.91427" lon="5.63331">
        <ele>839.2</ele>
        <time>2021-04-22T09:47:22Z</time>
      </trkpt>
      <trkpt lat="44.91421" lon="5.63328">
        <ele>839.6</ele>
        <time>2021-04-22T09:47:24Z</time>
      </trkpt>
      <trkpt lat="44.91417" lon="5.63326">
        <ele>839.8</ele>
        <time>2021-04-22T09:47:25Z</time>
      </trkpt>
      <trkpt lat="44.91411" lon="5.63322">
        <ele>840</ele>
        <time>2021-04-22T09:47:27Z</time>
      </trkpt>
      <trkpt lat="44.91407" lon="5.63321">
        <ele>840.1</ele>
        <time>2021-04-22T09:47:28Z</time>
      </trkpt>
      <trkpt lat="44.91401" lon="5.63318">
        <ele>840.3</ele>
        <time>2021-04-22T09:47:30Z</time>
      </trkpt>
      <trkpt lat="44.91397" lon="5.63315">
        <ele>840.4</ele>
        <time>2021-04-22T09:47:31Z</time>
      </trkpt>
      <trkpt lat="44.9139" lon="5.63312">
        <ele>840.6</ele>
        <time>2021-04-22T09:47:33Z</time>
      </trkpt>
      <trkpt lat="44.91385" lon="5.63309">
        <ele>840.9</ele>
        <time>2021-04-22T09:47:35Z</time>
      </trkpt>
      <trkpt lat="44.91382" lon="5.63307">
        <ele>841.1</ele>
        <time>2021-04-22T09:47:36Z</time>
      </trkpt>
      <trkpt lat="44.91377" lon="5.63304">
        <ele>841.4</ele>
        <time>2021-04-22T09:47:38Z</time>
      </trkpt>
      <trkpt lat="44.91373" lon="5.63302">
        <ele>841.7</ele>
        <time>2021-04-22T09:47:39Z</time>
      </trkpt>
      <trkpt lat="44.91367" lon="5.63298">
        <ele>842</ele>
        <time>2021-04-22T09:47:40Z</time>
      </trkpt>
      <trkpt lat="44.91363" lon="5.63296">
        <ele>842.2</ele>
        <time>2021-04-22T09:47:42Z</time>
      </trkpt>
      <trkpt lat="44.91359" lon="5.63293">
        <ele>842.4</ele>
        <time>2021-04-22T09:47:43Z</time>
      </trkpt>
      <trkpt lat="44.91354" lon="5.63291">
        <ele>842.7</ele>
        <time>2021-04-22T09:47:45Z</time>
      </trkpt>
      <trkpt lat="44.91348" lon="5.63287">
        <ele>843</ele>
        <time>2021-04-22T09:47:46Z</time>
      </trkpt>
      <trkpt lat="44.91345" lon="5.63285">
        <ele>843.1</ele>
        <time>2021-04-22T09:47:47Z</time>
      </trkpt>
      <trkpt lat="44.91341" lon="5.63283">
        <ele>843.3</ele>
        <time>2021-04-22T09:47:49Z</time>
      </trkpt>
      <trkpt lat="44.9134" lon="5.63283">
        <ele>843.4</ele>
        <time>2021-04-22T09:47:50Z</time>
      </trkpt>
      <trkpt lat="44.91333" lon="5.6328">
        <ele>843.7</ele>
        <time>2021-04-22T09:47:52Z</time>
      </trkpt>
      <trkpt lat="44.91327" lon="5.63277">
        <ele>844</ele>
        <time>2021-04-22T09:47:54Z</time>
      </trkpt>
      <trkpt lat="44.91323" lon="5.63275">
        <ele>844.2</ele>
        <time>2021-04-22T09:47:55Z</time>
      </trkpt>
      <trkpt lat="44.91322" lon="5.63274">
        <ele>844.3</ele>
        <time>2021-04-22T09:47:56Z</time>
      </trkpt>
      <trkpt lat="44.91317" lon="5.63272">
        <ele>844.5</ele>
        <time>2021-04-22T09:47:57Z</time>
      </trkpt>
      <trkpt lat="44.91312" lon="5.63269">
        <ele>844.7</ele>
        <time>2021-04-22T09:47:58Z</time>
      </trkpt>
      <trkpt lat="44.91308" lon="5.63267">
        <ele>845</ele>
        <time>2021-04-22T09:48:00Z</time>
      </trkpt>
      <trkpt lat="44.91304" lon="5.63265">
        <ele>845</ele>
        <time>2021-04-22T09:48:01Z</time>
      </trkpt>
      <trkpt lat="44.91303" lon="5.63264">
        <ele>845</ele>
        <time>2021-04-22T09:48:02Z</time>
      </trkpt>
      <trkpt lat="44.91299" lon="5.63262">
        <ele>845.2</ele>
        <time>2021-04-22T09:48:03Z</time>
      </trkpt>
      <trkpt lat="44.91294" lon="5.63258">
        <ele>845.2</ele>
        <time>2021-04-22T09:48:05Z</time>
      </trkpt>
      <trkpt lat="44.9129" lon="5.63254">
        <ele>845.4</ele>
        <time>2021-04-22T09:48:06Z</time>
      </trkpt>
      <trkpt lat="44.91286" lon="5.63252">
        <ele>845.5</ele>
        <time>2021-04-22T09:48:08Z</time>
      </trkpt>
      <trkpt lat="44.91281" lon="5.6325">
        <ele>845.6</ele>
        <time>2021-04-22T09:48:09Z</time>
      </trkpt>
      <trkpt lat="44.91277" lon="5.63246">
        <ele>845.8</ele>
        <time>2021-04-22T09:48:11Z</time>
      </trkpt>
      <trkpt lat="44.91275" lon="5.63245">
        <ele>845.8</ele>
        <time>2021-04-22T09:48:12Z</time>
      </trkpt>
      <trkpt lat="44.91274" lon="5.63244">
        <ele>845.9</ele>
        <time>2021-04-22T09:48:13Z</time>
      </trkpt>
      <trkpt lat="44.91267" lon="5.6324">
        <ele>846</ele>
        <time>2021-04-22T09:48:15Z</time>
      </trkpt>
      <trkpt lat="44.91262" lon="5.63236">
        <ele>846.2</ele>
        <time>2021-04-22T09:48:17Z</time>
      </trkpt>
      <trkpt lat="44.91256" lon="5.63231">
        <ele>846.3</ele>
        <time>2021-04-22T09:48:19Z</time>
      </trkpt>
      <trkpt lat="44.91251" lon="5.63225">
        <ele>846.5</ele>
        <time>2021-04-22T09:48:21Z</time>
      </trkpt>
      <trkpt lat="44.91245" lon="5.6322">
        <ele>846.7</ele>
        <time>2021-04-22T09:48:23Z</time>
      </trkpt>
      <trkpt lat="44.91241" lon="5.63219">
        <ele>846.8</ele>
        <time>2021-04-22T09:48:24Z</time>
      </trkpt>
      <trkpt lat="44.91236" lon="5.63217">
        <ele>847</ele>
        <time>2021-04-22T09:48:25Z</time>
      </trkpt>
      <trkpt lat="44.91228" lon="5.63214">
        <ele>847.2</ele>
        <time>2021-04-22T09:48:27Z</time>
      </trkpt>
      <trkpt lat="44.91221" lon="5.63211">
        <ele>847.4</ele>
        <time>2021-04-22T09:48:29Z</time>
      </trkpt>
      <trkpt lat="44.91214" lon="5.63208">
        <ele>847.7</ele>
        <time>2021-04-22T09:48:31Z</time>
      </trkpt>
      <trkpt lat="44.91211" lon="5.63206">
        <ele>847.8</ele>
        <time>2021-04-22T09:48:32Z</time>
      </trkpt>
      <trkpt lat="44.91208" lon="5.63204">
        <ele>847.9</ele>
        <time>2021-04-22T09:48:33Z</time>
      </trkpt>
      <trkpt lat="44.91204" lon="5.63201">
        <ele>848</ele>
        <time>2021-04-22T09:48:34Z</time>
      </trkpt>
      <trkpt lat="44.912" lon="5.63199">
        <ele>848.1</ele>
        <time>2021-04-22T09:48:35Z</time>
      </trkpt>
      <trkpt lat="44.91195" lon="5.63194">
        <ele>848.3</ele>
        <time>2021-04-22T09:48:37Z</time>
      </trkpt>
      <trkpt lat="44.91192" lon="5.63192">
        <ele>848.4</ele>
        <time>2021-04-22T09:48:38Z</time>
      </trkpt>
      <trkpt lat="44.91188" lon="5.63189">
        <ele>848.5</ele>
        <time>2021-04-22T09:48:40Z</time>
      </trkpt>
      <trkpt lat="44.91186" lon="5.63187">
        <ele>848.6</ele>
        <time>2021-04-22T09:48:41Z</time>
      </trkpt>
      <trkpt lat="44.91185" lon="5.63187">
        <ele>848.6</ele>
        <time>2021-04-22T09:48:42Z</time>
      </trkpt>
      <trkpt lat="44.91181" lon="5.63185">
        <ele>848.7</ele>
        <time>2021-04-22T09:48:44Z</time>
      </trkpt>
      <trkpt lat="44.91179" lon="5.63184">
        <ele>848.8</ele>
        <time>2021-04-22T09:48:45Z</time>
      </trkpt>
      <trkpt lat="44.91176" lon="5.63183">
        <ele>848.9</ele>
        <time>2021-04-22T09:48:47Z</time>
      </trkpt>
      <trkpt lat="44.91173" lon="5.63182">
        <ele>849</ele>
        <time>2021-04-22T09:48:49Z</time>
      </trkpt>
      <trkpt lat="44.91171" lon="5.63182">
        <ele>849</ele>
        <time>2021-04-22T09:48:50Z</time>
      </trkpt>
      <trkpt lat="44.91166" lon="5.63178">
        <ele>849.2</ele>
        <time>2021-04-22T09:48:52Z</time>
      </trkpt>
      <trkpt lat="44.91163" lon="5.63176">
        <ele>849.3</ele>
        <time>2021-04-22T09:48:53Z</time>
      </trkpt>
      <trkpt lat="44.91157" lon="5.63172">
        <ele>849.6</ele>
        <time>2021-04-22T09:48:54Z</time>
      </trkpt>
      <trkpt lat="44.91151" lon="5.63168">
        <ele>849.8</ele>
        <time>2021-04-22T09:48:56Z</time>
      </trkpt>
      <trkpt lat="44.91147" lon="5.63165">
        <ele>850</ele>
        <time>2021-04-22T09:48:57Z</time>
      </trkpt>
      <trkpt lat="44.91141" lon="5.63162">
        <ele>850.2</ele>
        <time>2021-04-22T09:48:59Z</time>
      </trkpt>
      <trkpt lat="44.91137" lon="5.63159">
        <ele>850.4</ele>
        <time>2021-04-22T09:49:00Z</time>
      </trkpt>
      <trkpt lat="44.91132" lon="5.63156">
        <ele>850.6</ele>
        <time>2021-04-22T09:49:02Z</time>
      </trkpt>
      <trkpt lat="44.91125" lon="5.63153">
        <ele>851</ele>
        <time>2021-04-22T09:49:04Z</time>
      </trkpt>
      <trkpt lat="44.91122" lon="5.63151">
        <ele>851.2</ele>
        <time>2021-04-22T09:49:05Z</time>
      </trkpt>
      <trkpt lat="44.91118" lon="5.6315">
        <ele>851.4</ele>
        <time>2021-04-22T09:49:06Z</time>
      </trkpt>
      <trkpt lat="44.91111" lon="5.63147">
        <ele>851.8</ele>
        <time>2021-04-22T09:49:08Z</time>
      </trkpt>
      <trkpt lat="44.91104" lon="5.63143">
        <ele>852.2</ele>
        <time>2021-04-22T09:49:10Z</time>
      </trkpt>
      <trkpt lat="44.91098" lon="5.6314">
        <ele>852.6</ele>
        <time>2021-04-22T09:49:11Z</time>
      </trkpt>
      <trkpt lat="44.91094" lon="5.63138">
        <ele>852.8</ele>
        <time>2021-04-22T09:49:13Z</time>
      </trkpt>
      <trkpt lat="44.91086" lon="5.63135">
        <ele>853.3</ele>
        <time>2021-04-22T09:49:15Z</time>
      </trkpt>
      <trkpt lat="44.91081" lon="5.63132">
        <ele>853.6</ele>
        <time>2021-04-22T09:49:16Z</time>
      </trkpt>
      <trkpt lat="44.91074" lon="5.63128">
        <ele>854.1</ele>
        <time>2021-04-22T09:49:18Z</time>
      </trkpt>
      <trkpt lat="44.91066" lon="5.63125">
        <ele>854.6</ele>
        <time>2021-04-22T09:49:20Z</time>
      </trkpt>
      <trkpt lat="44.91057" lon="5.63121">
        <ele>855.2</ele>
        <time>2021-04-22T09:49:22Z</time>
      </trkpt>
      <trkpt lat="44.91051" lon="5.63118">
        <ele>855.6</ele>
        <time>2021-04-22T09:49:24Z</time>
      </trkpt>
      <trkpt lat="44.91049" lon="5.63117">
        <ele>855.8</ele>
        <time>2021-04-22T09:49:25Z</time>
      </trkpt>
      <trkpt lat="44.91044" lon="5.63115">
        <ele>856.2</ele>
        <time>2021-04-22T09:49:27Z</time>
      </trkpt>
      <trkpt lat="44.91041" lon="5.63113">
        <ele>856.5</ele>
        <time>2021-04-22T09:49:28Z</time>
      </trkpt>
      <trkpt lat="44.91039" lon="5.63113">
        <ele>856.6</ele>
        <time>2021-04-22T09:49:29Z</time>
      </trkpt>
      <trkpt lat="44.91036" lon="5.63111">
        <ele>856.9</ele>
        <time>2021-04-22T09:49:30Z</time>
      </trkpt>
      <trkpt lat="44.91035" lon="5.63111">
        <ele>857</ele>
        <time>2021-04-22T09:49:31Z</time>
      </trkpt>
      <trkpt lat="44.91031" lon="5.63109">
        <ele>857.3</ele>
        <time>2021-04-22T09:49:32Z</time>
      </trkpt>
      <trkpt lat="44.9103" lon="5.63108">
        <ele>857.5</ele>
        <time>2021-04-22T09:49:33Z</time>
      </trkpt>
      <trkpt lat="44.91027" lon="5.63107">
        <ele>857.7</ele>
        <time>2021-04-22T09:49:34Z</time>
      </trkpt>
      <trkpt lat="44.91022" lon="5.63104">
        <ele>858.2</ele>
        <time>2021-04-22T09:49:36Z</time>
      </trkpt>
      <trkpt lat="44.91019" lon="5.63102">
        <ele>858.5</ele>
        <time>2021-04-22T09:49:37Z</time>
      </trkpt>
      <trkpt lat="44.91016" lon="5.63098">
        <ele>858.8</ele>
        <time>2021-04-22T09:49:38Z</time>
      </trkpt>
      <trkpt lat="44.91013" lon="5.63094">
        <ele>859.2</ele>
        <time>2021-04-22T09:49:39Z</time>
      </trkpt>
      <trkpt lat="44.9101" lon="5.63092">
        <ele>859.5</ele>
        <time>2021-04-22T09:49:40Z</time>
      </trkpt>
      <trkpt lat="44.91006" lon="5.63089">
        <ele>859.9</ele>
        <time>2021-04-22T09:49:41Z</time>
      </trkpt>
      <trkpt lat="44.91002" lon="5.63087">
        <ele>860.2</ele>
        <time>2021-04-22T09:49:42Z</time>
      </trkpt>
      <trkpt lat="44.90998" lon="5.63085">
        <ele>860.6</ele>
        <time>2021-04-22T09:49:44Z</time>
      </trkpt>
      <trkpt lat="44.90994" lon="5.63084">
        <ele>861</ele>
        <time>2021-04-22T09:49:45Z</time>
      </trkpt>
      <trkpt lat="44.90992" lon="5.63083">
        <ele>861.1</ele>
        <time>2021-04-22T09:49:46Z</time>
      </trkpt>
      <trkpt lat="44.90989" lon="5.63082">
        <ele>861.4</ele>
        <time>2021-04-22T09:49:47Z</time>
      </trkpt>
      <trkpt lat="44.90983" lon="5.6308">
        <ele>862</ele>
        <time>2021-04-22T09:49:49Z</time>
      </trkpt>
      <trkpt lat="44.90979" lon="5.63078">
        <ele>862.4</ele>
        <time>2021-04-22T09:49:50Z</time>
      </trkpt>
      <trkpt lat="44.90975" lon="5.63076">
        <ele>862.8</ele>
        <time>2021-04-22T09:49:51Z</time>
      </trkpt>
      <trkpt lat="44.90972" lon="5.63074">
        <ele>863.1</ele>
        <time>2021-04-22T09:49:53Z</time>
      </trkpt>
      <trkpt lat="44.90967" lon="5.63072">
        <ele>863.7</ele>
        <time>2021-04-22T09:49:55Z</time>
      </trkpt>
      <trkpt lat="44.90964" lon="5.6307">
        <ele>863.9</ele>
        <time>2021-04-22T09:49:56Z</time>
      </trkpt>
      <trkpt lat="44.90962" lon="5.63069">
        <ele>864.2</ele>
        <time>2021-04-22T09:49:57Z</time>
      </trkpt>
      <trkpt lat="44.90959" lon="5.63068">
        <ele>864.5</ele>
        <time>2021-04-22T09:49:58Z</time>
      </trkpt>
      <trkpt lat="44.90956" lon="5.63066">
        <ele>864.8</ele>
        <time>2021-04-22T09:49:59Z</time>
      </trkpt>
      <trkpt lat="44.90953" lon="5.63064">
        <ele>865.2</ele>
        <time>2021-04-22T09:50:00Z</time>
      </trkpt>
      <trkpt lat="44.90947" lon="5.63062">
        <ele>865.7</ele>
        <time>2021-04-22T09:50:02Z</time>
      </trkpt>
      <trkpt lat="44.90943" lon="5.63061">
        <ele>866.1</ele>
        <time>2021-04-22T09:50:04Z</time>
      </trkpt>
      <trkpt lat="44.9094" lon="5.6306">
        <ele>866.4</ele>
        <time>2021-04-22T09:50:05Z</time>
      </trkpt>
      <trkpt lat="44.90939" lon="5.6306">
        <ele>866.5</ele>
        <time>2021-04-22T09:50:06Z</time>
      </trkpt>
      <trkpt lat="44.90935" lon="5.63058">
        <ele>866.8</ele>
        <time>2021-04-22T09:50:07Z</time>
      </trkpt>
      <trkpt lat="44.90931" lon="5.63056">
        <ele>867.2</ele>
        <time>2021-04-22T09:50:09Z</time>
      </trkpt>
      <trkpt lat="44.90927" lon="5.63054">
        <ele>867.6</ele>
        <time>2021-04-22T09:50:11Z</time>
      </trkpt>
      <trkpt lat="44.90924" lon="5.63053">
        <ele>867.8</ele>
        <time>2021-04-22T09:50:12Z</time>
      </trkpt>
      <trkpt lat="44.90923" lon="5.63053">
        <ele>867.9</ele>
        <time>2021-04-22T09:50:13Z</time>
      </trkpt>
      <trkpt lat="44.9092" lon="5.63051">
        <ele>868.2</ele>
        <time>2021-04-22T09:50:14Z</time>
      </trkpt>
      <trkpt lat="44.90919" lon="5.6305">
        <ele>868.4</ele>
        <time>2021-04-22T09:50:15Z</time>
      </trkpt>
      <trkpt lat="44.90916" lon="5.63049">
        <ele>868.6</ele>
        <time>2021-04-22T09:50:16Z</time>
      </trkpt>
      <trkpt lat="44.90912" lon="5.63047">
        <ele>869</ele>
        <time>2021-04-22T09:50:18Z</time>
      </trkpt>
      <trkpt lat="44.90908" lon="5.63046">
        <ele>869.3</ele>
        <time>2021-04-22T09:50:20Z</time>
      </trkpt>
      <trkpt lat="44.90905" lon="5.63044">
        <ele>869.6</ele>
        <time>2021-04-22T09:50:22Z</time>
      </trkpt>
      <trkpt lat="44.90903" lon="5.63042">
        <ele>869.8</ele>
        <time>2021-04-22T09:50:23Z</time>
      </trkpt>
      <trkpt lat="44.90898" lon="5.63039">
        <ele>870.3</ele>
        <time>2021-04-22T09:50:25Z</time>
      </trkpt>
      <trkpt lat="44.90895" lon="5.63036">
        <ele>870.6</ele>
        <time>2021-04-22T09:50:27Z</time>
      </trkpt>
      <trkpt lat="44.90893" lon="5.63035">
        <ele>870.8</ele>
        <time>2021-04-22T09:50:28Z</time>
      </trkpt>
      <trkpt lat="44.90889" lon="5.63032">
        <ele>871.1</ele>
        <time>2021-04-22T09:50:30Z</time>
      </trkpt>
      <trkpt lat="44.90886" lon="5.6303">
        <ele>871.5</ele>
        <time>2021-04-22T09:50:31Z</time>
      </trkpt>
      <trkpt lat="44.90882" lon="5.63028">
        <ele>871.8</ele>
        <time>2021-04-22T09:50:33Z</time>
      </trkpt>
      <trkpt lat="44.90879" lon="5.63025">
        <ele>872.1</ele>
        <time>2021-04-22T09:50:34Z</time>
      </trkpt>
      <trkpt lat="44.90876" lon="5.63024">
        <ele>872.4</ele>
        <time>2021-04-22T09:50:35Z</time>
      </trkpt>
      <trkpt lat="44.9087" lon="5.63021">
        <ele>872.9</ele>
        <time>2021-04-22T09:50:37Z</time>
      </trkpt>
      <trkpt lat="44.90866" lon="5.63017">
        <ele>873.4</ele>
        <time>2021-04-22T09:50:39Z</time>
      </trkpt>
      <trkpt lat="44.90864" lon="5.63015">
        <ele>873.6</ele>
        <time>2021-04-22T09:50:40Z</time>
      </trkpt>
      <trkpt lat="44.9086" lon="5.6301">
        <ele>874</ele>
        <time>2021-04-22T09:50:42Z</time>
      </trkpt>
      <trkpt lat="44.90857" lon="5.63007">
        <ele>874.3</ele>
        <time>2021-04-22T09:50:44Z</time>
      </trkpt>
      <trkpt lat="44.90855" lon="5.63003">
        <ele>874.6</ele>
        <time>2021-04-22T09:50:46Z</time>
      </trkpt>
      <trkpt lat="44.90852" lon="5.62999">
        <ele>874.8</ele>
        <time>2021-04-22T09:50:48Z</time>
      </trkpt>
      <trkpt lat="44.90848" lon="5.62994">
        <ele>875</ele>
        <time>2021-04-22T09:50:50Z</time>
      </trkpt>
      <trkpt lat="44.90846" lon="5.62993">
        <ele>875</ele>
        <time>2021-04-22T09:50:51Z</time>
      </trkpt>
      <trkpt lat="44.90845" lon="5.62991">
        <ele>875.1</ele>
        <time>2021-04-22T09:50:52Z</time>
      </trkpt>
      <trkpt lat="44.90842" lon="5.62985">
        <ele>875.3</ele>
        <time>2021-04-22T09:50:54Z</time>
      </trkpt>
      <trkpt lat="44.90839" lon="5.6298">
        <ele>875.6</ele>
        <time>2021-04-22T09:50:55Z</time>
      </trkpt>
      <trkpt lat="44.90838" lon="5.62979">
        <ele>875.7</ele>
        <time>2021-04-22T09:50:56Z</time>
      </trkpt>
      <trkpt lat="44.90836" lon="5.62977">
        <ele>875.8</ele>
        <time>2021-04-22T09:50:57Z</time>
      </trkpt>
      <trkpt lat="44.90833" lon="5.62973">
        <ele>876</ele>
        <time>2021-04-22T09:50:59Z</time>
      </trkpt>
      <trkpt lat="44.90831" lon="5.62971">
        <ele>876.2</ele>
        <time>2021-04-22T09:51:00Z</time>
      </trkpt>
      <trkpt lat="44.90828" lon="5.62966">
        <ele>876.5</ele>
        <time>2021-04-22T09:51:02Z</time>
      </trkpt>
      <trkpt lat="44.90825" lon="5.62962">
        <ele>876.7</ele>
        <time>2021-04-22T09:51:03Z</time>
      </trkpt>
      <trkpt lat="44.90823" lon="5.62957">
        <ele>877</ele>
        <time>2021-04-22T09:51:05Z</time>
      </trkpt>
      <trkpt lat="44.90822" lon="5.62956">
        <ele>877</ele>
        <time>2021-04-22T09:51:06Z</time>
      </trkpt>
      <trkpt lat="44.90819" lon="5.62951">
        <ele>877.4</ele>
        <time>2021-04-22T09:51:08Z</time>
      </trkpt>
      <trkpt lat="44.90815" lon="5.62945">
        <ele>877.8</ele>
        <time>2021-04-22T09:51:10Z</time>
      </trkpt>
      <trkpt lat="44.90812" lon="5.6294">
        <ele>878.2</ele>
        <time>2021-04-22T09:51:12Z</time>
      </trkpt>
      <trkpt lat="44.9081" lon="5.62934">
        <ele>878.6</ele>
        <time>2021-04-22T09:51:14Z</time>
      </trkpt>
      <trkpt lat="44.90808" lon="5.62931">
        <ele>878.8</ele>
        <time>2021-04-22T09:51:15Z</time>
      </trkpt>
      <trkpt lat="44.90806" lon="5.62926">
        <ele>879.1</ele>
        <time>2021-04-22T09:51:17Z</time>
      </trkpt>
      <trkpt lat="44.90804" lon="5.62923">
        <ele>879.4</ele>
        <time>2021-04-22T09:51:18Z</time>
      </trkpt>
      <trkpt lat="44.90803" lon="5.62919">
        <ele>879.6</ele>
        <time>2021-04-22T09:51:19Z</time>
      </trkpt>
      <trkpt lat="44.908" lon="5.62912">
        <ele>880.1</ele>
        <time>2021-04-22T09:51:21Z</time>
      </trkpt>
      <trkpt lat="44.90797" lon="5.62905">
        <ele>880.5</ele>
        <time>2021-04-22T09:51:23Z</time>
      </trkpt>
      <trkpt lat="44.90796" lon="5.629">
        <ele>880.8</ele>
        <time>2021-04-22T09:51:25Z</time>
      </trkpt>
      <trkpt lat="44.90795" lon="5.62897">
        <ele>881</ele>
        <time>2021-04-22T09:51:26Z</time>
      </trkpt>
      <trkpt lat="44.90793" lon="5.62892">
        <ele>881.3</ele>
        <time>2021-04-22T09:51:28Z</time>
      </trkpt>
      <trkpt lat="44.90791" lon="5.62887">
        <ele>881.7</ele>
        <time>2021-04-22T09:51:29Z</time>
      </trkpt>
      <trkpt lat="44.9079" lon="5.62885">
        <ele>881.8</ele>
        <time>2021-04-22T09:51:30Z</time>
      </trkpt>
      <trkpt lat="44.90789" lon="5.62881">
        <ele>882</ele>
        <time>2021-04-22T09:51:32Z</time>
      </trkpt>
      <trkpt lat="44.90787" lon="5.62878">
        <ele>882.3</ele>
        <time>2021-04-22T09:51:34Z</time>
      </trkpt>
      <trkpt lat="44.90786" lon="5.62875">
        <ele>882.5</ele>
        <time>2021-04-22T09:51:35Z</time>
      </trkpt>
      <trkpt lat="44.90783" lon="5.6287">
        <ele>882.9</ele>
        <time>2021-04-22T09:51:37Z</time>
      </trkpt>
      <trkpt lat="44.9078" lon="5.62865">
        <ele>883.2</ele>
        <time>2021-04-22T09:51:38Z</time>
      </trkpt>
      <trkpt lat="44.9078" lon="5.62864">
        <ele>883.3</ele>
        <time>2021-04-22T09:51:39Z</time>
      </trkpt>
      <trkpt lat="44.90777" lon="5.62858">
        <ele>883.7</ele>
        <time>2021-04-22T09:51:41Z</time>
      </trkpt>
      <trkpt lat="44.90776" lon="5.62854">
        <ele>883.9</ele>
        <time>2021-04-22T09:51:42Z</time>
      </trkpt>
      <trkpt lat="44.90773" lon="5.62849">
        <ele>884.3</ele>
        <time>2021-04-22T09:51:44Z</time>
      </trkpt>
      <trkpt lat="44.90771" lon="5.62845">
        <ele>884.5</ele>
        <time>2021-04-22T09:51:45Z</time>
      </trkpt>
      <trkpt lat="44.9077" lon="5.6284">
        <ele>884.8</ele>
        <time>2021-04-22T09:51:47Z</time>
      </trkpt>
      <trkpt lat="44.90768" lon="5.62835">
        <ele>885.1</ele>
        <time>2021-04-22T09:51:48Z</time>
      </trkpt>
      <trkpt lat="44.90768" lon="5.62833">
        <ele>885.2</ele>
        <time>2021-04-22T09:51:49Z</time>
      </trkpt>
      <trkpt lat="44.90767" lon="5.62829">
        <ele>885.5</ele>
        <time>2021-04-22T09:51:50Z</time>
      </trkpt>
      <trkpt lat="44.90766" lon="5.62825">
        <ele>885.8</ele>
        <time>2021-04-22T09:51:51Z</time>
      </trkpt>
      <trkpt lat="44.90765" lon="5.6282">
        <ele>886.1</ele>
        <time>2021-04-22T09:51:53Z</time>
      </trkpt>
      <trkpt lat="44.90765" lon="5.62815">
        <ele>886.4</ele>
        <time>2021-04-22T09:51:54Z</time>
      </trkpt>
      <trkpt lat="44.90765" lon="5.62811">
        <ele>886.6</ele>
        <time>2021-04-22T09:51:55Z</time>
      </trkpt>
      <trkpt lat="44.90765" lon="5.62806">
        <ele>886.9</ele>
        <time>2021-04-22T09:51:57Z</time>
      </trkpt>
      <trkpt lat="44.90765" lon="5.62802">
        <ele>887.2</ele>
        <time>2021-04-22T09:51:58Z</time>
      </trkpt>
      <trkpt lat="44.90765" lon="5.62797">
        <ele>887.5</ele>
        <time>2021-04-22T09:51:59Z</time>
      </trkpt>
      <trkpt lat="44.90765" lon="5.62792">
        <ele>887.8</ele>
        <time>2021-04-22T09:52:01Z</time>
      </trkpt>
      <trkpt lat="44.90765" lon="5.62787">
        <ele>888.3</ele>
        <time>2021-04-22T09:52:02Z</time>
      </trkpt>
      <trkpt lat="44.90763" lon="5.62783">
        <ele>888.5</ele>
        <time>2021-04-22T09:52:04Z</time>
      </trkpt>
      <trkpt lat="44.9076" lon="5.6278">
        <ele>888.7</ele>
        <time>2021-04-22T09:52:05Z</time>
      </trkpt>
      <trkpt lat="44.90758" lon="5.62779">
        <ele>888.9</ele>
        <time>2021-04-22T09:52:06Z</time>
      </trkpt>
      <trkpt lat="44.90755" lon="5.62778">
        <ele>889.1</ele>
        <time>2021-04-22T09:52:08Z</time>
      </trkpt>
      <trkpt lat="44.9075" lon="5.62777">
        <ele>889.4</ele>
        <time>2021-04-22T09:52:09Z</time>
      </trkpt>
      <trkpt lat="44.90745" lon="5.62777">
        <ele>889.7</ele>
        <time>2021-04-22T09:52:11Z</time>
      </trkpt>
      <trkpt lat="44.90744" lon="5.62776">
        <ele>889.8</ele>
        <time>2021-04-22T09:52:12Z</time>
      </trkpt>
      <trkpt lat="44.90742" lon="5.62776">
        <ele>889.9</ele>
        <time>2021-04-22T09:52:13Z</time>
      </trkpt>
      <trkpt lat="44.90739" lon="5.62774">
        <ele>890.2</ele>
        <time>2021-04-22T09:52:14Z</time>
      </trkpt>
      <trkpt lat="44.90734" lon="5.6277">
        <ele>890.5</ele>
        <time>2021-04-22T09:52:16Z</time>
      </trkpt>
      <trkpt lat="44.90731" lon="5.62767">
        <ele>890.7</ele>
        <time>2021-04-22T09:52:17Z</time>
      </trkpt>
      <trkpt lat="44.90728" lon="5.62763">
        <ele>891</ele>
        <time>2021-04-22T09:52:19Z</time>
      </trkpt>
      <trkpt lat="44.90726" lon="5.62759">
        <ele>891.3</ele>
        <time>2021-04-22T09:52:20Z</time>
      </trkpt>
      <trkpt lat="44.90725" lon="5.62757">
        <ele>891.4</ele>
        <time>2021-04-22T09:52:21Z</time>
      </trkpt>
      <trkpt lat="44.90722" lon="5.62751">
        <ele>891.7</ele>
        <time>2021-04-22T09:52:23Z</time>
      </trkpt>
      <trkpt lat="44.90721" lon="5.62746">
        <ele>892</ele>
        <time>2021-04-22T09:52:25Z</time>
      </trkpt>
      <trkpt lat="44.9072" lon="5.62744">
        <ele>892.1</ele>
        <time>2021-04-22T09:52:26Z</time>
      </trkpt>
      <trkpt lat="44.90718" lon="5.6274">
        <ele>892.4</ele>
        <time>2021-04-22T09:52:28Z</time>
      </trkpt>
      <trkpt lat="44.90716" lon="5.62734">
        <ele>892.7</ele>
        <time>2021-04-22T09:52:30Z</time>
      </trkpt>
      <trkpt lat="44.90714" lon="5.62729">
        <ele>893</ele>
        <time>2021-04-22T09:52:32Z</time>
      </trkpt>
      <trkpt lat="44.90713" lon="5.62725">
        <ele>893.2</ele>
        <time>2021-04-22T09:52:33Z</time>
      </trkpt>
      <trkpt lat="44.9071" lon="5.62719">
        <ele>893.5</ele>
        <time>2021-04-22T09:52:35Z</time>
      </trkpt>
      <trkpt lat="44.90709" lon="5.62715">
        <ele>893.8</ele>
        <time>2021-04-22T09:52:36Z</time>
      </trkpt>
      <trkpt lat="44.90707" lon="5.62712">
        <ele>894</ele>
        <time>2021-04-22T09:52:37Z</time>
      </trkpt>
      <trkpt lat="44.90705" lon="5.62708">
        <ele>894.2</ele>
        <time>2021-04-22T09:52:39Z</time>
      </trkpt>
      <trkpt lat="44.90703" lon="5.62704">
        <ele>894.5</ele>
        <time>2021-04-22T09:52:40Z</time>
      </trkpt>
      <trkpt lat="44.90702" lon="5.62701">
        <ele>894.7</ele>
        <time>2021-04-22T09:52:41Z</time>
      </trkpt>
      <trkpt lat="44.90699" lon="5.62697">
        <ele>895</ele>
        <time>2021-04-22T09:52:43Z</time>
      </trkpt>
      <trkpt lat="44.90697" lon="5.62693">
        <ele>895.2</ele>
        <time>2021-04-22T09:52:44Z</time>
      </trkpt>
      <trkpt lat="44.90696" lon="5.62692">
        <ele>895.3</ele>
        <time>2021-04-22T09:52:45Z</time>
      </trkpt>
      <trkpt lat="44.90693" lon="5.62687">
        <ele>895.6</ele>
        <time>2021-04-22T09:52:47Z</time>
      </trkpt>
      <trkpt lat="44.9069" lon="5.62684">
        <ele>895.9</ele>
        <time>2021-04-22T09:52:48Z</time>
      </trkpt>
      <trkpt lat="44.90689" lon="5.62683">
        <ele>896</ele>
        <time>2021-04-22T09:52:49Z</time>
      </trkpt>
      <trkpt lat="44.90686" lon="5.62678">
        <ele>896.3</ele>
        <time>2021-04-22T09:52:50Z</time>
      </trkpt>
      <trkpt lat="44.90683" lon="5.62674">
        <ele>896.6</ele>
        <time>2021-04-22T09:52:52Z</time>
      </trkpt>
      <trkpt lat="44.9068" lon="5.6267">
        <ele>896.8</ele>
        <time>2021-04-22T09:52:54Z</time>
      </trkpt>
      <trkpt lat="44.90676" lon="5.62666">
        <ele>897.1</ele>
        <time>2021-04-22T09:52:55Z</time>
      </trkpt>
      <trkpt lat="44.90673" lon="5.62663">
        <ele>897.3</ele>
        <time>2021-04-22T09:52:57Z</time>
      </trkpt>
      <trkpt lat="44.90669" lon="5.62659">
        <ele>897.6</ele>
        <time>2021-04-22T09:52:58Z</time>
      </trkpt>
      <trkpt lat="44.90665" lon="5.62656">
        <ele>897.8</ele>
        <time>2021-04-22T09:53:00Z</time>
      </trkpt>
      <trkpt lat="44.90662" lon="5.62653">
        <ele>898</ele>
        <time>2021-04-22T09:53:02Z</time>
      </trkpt>
      <trkpt lat="44.90658" lon="5.6265">
        <ele>898.1</ele>
        <time>2021-04-22T09:53:03Z</time>
      </trkpt>
      <trkpt lat="44.90657" lon="5.62649">
        <ele>898.2</ele>
        <time>2021-04-22T09:53:04Z</time>
      </trkpt>
      <trkpt lat="44.90654" lon="5.62646">
        <ele>898.3</ele>
        <time>2021-04-22T09:53:05Z</time>
      </trkpt>
      <trkpt lat="44.90649" lon="5.62642">
        <ele>898.5</ele>
        <time>2021-04-22T09:53:06Z</time>
      </trkpt>
      <trkpt lat="44.90645" lon="5.62639">
        <ele>898.7</ele>
        <time>2021-04-22T09:53:08Z</time>
      </trkpt>
      <trkpt lat="44.90642" lon="5.62637">
        <ele>898.8</ele>
        <time>2021-04-22T09:53:09Z</time>
      </trkpt>
      <trkpt lat="44.90637" lon="5.62634">
        <ele>898.9</ele>
        <time>2021-04-22T09:53:11Z</time>
      </trkpt>
      <trkpt lat="44.90634" lon="5.62632">
        <ele>899</ele>
        <time>2021-04-22T09:53:12Z</time>
      </trkpt>
      <trkpt lat="44.90629" lon="5.6263">
        <ele>899</ele>
        <time>2021-04-22T09:53:14Z</time>
      </trkpt>
      <trkpt lat="44.90625" lon="5.62628">
        <ele>899.1</ele>
        <time>2021-04-22T09:53:15Z</time>
      </trkpt>
      <trkpt lat="44.90621" lon="5.62625">
        <ele>899.1</ele>
        <time>2021-04-22T09:53:17Z</time>
      </trkpt>
      <trkpt lat="44.90617" lon="5.62623">
        <ele>899.1</ele>
        <time>2021-04-22T09:53:18Z</time>
      </trkpt>
      <trkpt lat="44.90616" lon="5.62622">
        <ele>899.1</ele>
        <time>2021-04-22T09:53:19Z</time>
      </trkpt>
      <trkpt lat="44.90612" lon="5.62621">
        <ele>899.1</ele>
        <time>2021-04-22T09:53:20Z</time>
      </trkpt>
      <trkpt lat="44.90608" lon="5.6262">
        <ele>899.1</ele>
        <time>2021-04-22T09:53:22Z</time>
      </trkpt>
      <trkpt lat="44.90604" lon="5.62618">
        <ele>899.1</ele>
        <time>2021-04-22T09:53:23Z</time>
      </trkpt>
      <trkpt lat="44.90593" lon="5.62615">
        <ele>899</ele>
        <time>2021-04-22T09:53:25Z</time>
      </trkpt>
      <trkpt lat="44.90588" lon="5.62613">
        <ele>898.9</ele>
        <time>2021-04-22T09:53:26Z</time>
      </trkpt>
      <trkpt lat="44.90579" lon="5.6261">
        <ele>898.8</ele>
        <time>2021-04-22T09:53:27Z</time>
      </trkpt>
      <trkpt lat="44.90571" lon="5.62609">
        <ele>898.6</ele>
        <time>2021-04-22T09:53:28Z</time>
      </trkpt>
      <trkpt lat="44.90563" lon="5.62609">
        <ele>898.3</ele>
        <time>2021-04-22T09:53:29Z</time>
      </trkpt>
      <trkpt lat="44.90556" lon="5.62609">
        <ele>898.1</ele>
        <time>2021-04-22T09:53:30Z</time>
      </trkpt>
      <trkpt lat="44.90548" lon="5.62611">
        <ele>897.8</ele>
        <time>2021-04-22T09:53:31Z</time>
      </trkpt>
      <trkpt lat="44.90541" lon="5.62613">
        <ele>897.4</ele>
        <time>2021-04-22T09:53:32Z</time>
      </trkpt>
      <trkpt lat="44.90533" lon="5.62617">
        <ele>897</ele>
        <time>2021-04-22T09:53:33Z</time>
      </trkpt>
      <trkpt lat="44.90526" lon="5.62621">
        <ele>896.6</ele>
        <time>2021-04-22T09:53:34Z</time>
      </trkpt>
      <trkpt lat="44.90519" lon="5.62627">
        <ele>896.1</ele>
        <time>2021-04-22T09:53:35Z</time>
      </trkpt>
      <trkpt lat="44.90511" lon="5.62633">
        <ele>895.7</ele>
        <time>2021-04-22T09:53:36Z</time>
      </trkpt>
      <trkpt lat="44.90504" lon="5.62641">
        <ele>895.4</ele>
        <time>2021-04-22T09:53:37Z</time>
      </trkpt>
      <trkpt lat="44.90497" lon="5.6265">
        <ele>894.9</ele>
        <time>2021-04-22T09:53:38Z</time>
      </trkpt>
      <trkpt lat="44.90491" lon="5.6266">
        <ele>894.3</ele>
        <time>2021-04-22T09:53:39Z</time>
      </trkpt>
      <trkpt lat="44.90485" lon="5.6267">
        <ele>893.8</ele>
        <time>2021-04-22T09:53:40Z</time>
      </trkpt>
      <trkpt lat="44.90479" lon="5.62679">
        <ele>893.3</ele>
        <time>2021-04-22T09:53:41Z</time>
      </trkpt>
      <trkpt lat="44.90473" lon="5.6269">
        <ele>892.7</ele>
        <time>2021-04-22T09:53:42Z</time>
      </trkpt>
      <trkpt lat="44.90466" lon="5.627">
        <ele>892.1</ele>
        <time>2021-04-22T09:53:43Z</time>
      </trkpt>
      <trkpt lat="44.90459" lon="5.6271">
        <ele>891.5</ele>
        <time>2021-04-22T09:53:44Z</time>
      </trkpt>
      <trkpt lat="44.90452" lon="5.62719">
        <ele>891</ele>
        <time>2021-04-22T09:53:45Z</time>
      </trkpt>
      <trkpt lat="44.90444" lon="5.62727">
        <ele>890.4</ele>
        <time>2021-04-22T09:53:46Z</time>
      </trkpt>
      <trkpt lat="44.90435" lon="5.62732">
        <ele>889.8</ele>
        <time>2021-04-22T09:53:47Z</time>
      </trkpt>
      <trkpt lat="44.90426" lon="5.62737">
        <ele>889.1</ele>
        <time>2021-04-22T09:53:48Z</time>
      </trkpt>
      <trkpt lat="44.90416" lon="5.62742">
        <ele>888.5</ele>
        <time>2021-04-22T09:53:49Z</time>
      </trkpt>
      <trkpt lat="44.90407" lon="5.62748">
        <ele>887.9</ele>
        <time>2021-04-22T09:53:50Z</time>
      </trkpt>
      <trkpt lat="44.90399" lon="5.62756">
        <ele>887.3</ele>
        <time>2021-04-22T09:53:51Z</time>
      </trkpt>
      <trkpt lat="44.90391" lon="5.62765">
        <ele>886.8</ele>
        <time>2021-04-22T09:53:52Z</time>
      </trkpt>
      <trkpt lat="44.90383" lon="5.62775">
        <ele>886.2</ele>
        <time>2021-04-22T09:53:53Z</time>
      </trkpt>
      <trkpt lat="44.90377" lon="5.62788">
        <ele>885.6</ele>
        <time>2021-04-22T09:53:54Z</time>
      </trkpt>
      <trkpt lat="44.90372" lon="5.628">
        <ele>885</ele>
        <time>2021-04-22T09:53:55Z</time>
      </trkpt>
      <trkpt lat="44.90366" lon="5.62812">
        <ele>884.5</ele>
        <time>2021-04-22T09:53:56Z</time>
      </trkpt>
      <trkpt lat="44.9036" lon="5.62825">
        <ele>883.9</ele>
        <time>2021-04-22T09:53:57Z</time>
      </trkpt>
      <trkpt lat="44.90354" lon="5.62837">
        <ele>883.4</ele>
        <time>2021-04-22T09:53:58Z</time>
      </trkpt>
      <trkpt lat="44.90347" lon="5.62849">
        <ele>882.9</ele>
        <time>2021-04-22T09:53:59Z</time>
      </trkpt>
      <trkpt lat="44.9034" lon="5.6286">
        <ele>882.5</ele>
        <time>2021-04-22T09:54:00Z</time>
      </trkpt>
      <trkpt lat="44.90332" lon="5.6287">
        <ele>882</ele>
        <time>2021-04-22T09:54:01Z</time>
      </trkpt>
      <trkpt lat="44.90322" lon="5.62877">
        <ele>881.5</ele>
        <time>2021-04-22T09:54:02Z</time>
      </trkpt>
      <trkpt lat="44.90312" lon="5.62883">
        <ele>880.9</ele>
        <time>2021-04-22T09:54:03Z</time>
      </trkpt>
      <trkpt lat="44.90301" lon="5.62887">
        <ele>880.3</ele>
        <time>2021-04-22T09:54:04Z</time>
      </trkpt>
      <trkpt lat="44.9029" lon="5.62889">
        <ele>879.6</ele>
        <time>2021-04-22T09:54:05Z</time>
      </trkpt>
      <trkpt lat="44.90279" lon="5.6289">
        <ele>878.8</ele>
        <time>2021-04-22T09:54:06Z</time>
      </trkpt>
      <trkpt lat="44.90269" lon="5.62884">
        <ele>877.9</ele>
        <time>2021-04-22T09:54:07Z</time>
      </trkpt>
      <trkpt lat="44.90259" lon="5.62874">
        <ele>877.1</ele>
        <time>2021-04-22T09:54:08Z</time>
      </trkpt>
      <trkpt lat="44.90249" lon="5.62868">
        <ele>876.2</ele>
        <time>2021-04-22T09:54:09Z</time>
      </trkpt>
      <trkpt lat="44.90239" lon="5.62866">
        <ele>875.6</ele>
        <time>2021-04-22T09:54:10Z</time>
      </trkpt>
      <trkpt lat="44.90229" lon="5.62867">
        <ele>875.1</ele>
        <time>2021-04-22T09:54:11Z</time>
      </trkpt>
      <trkpt lat="44.9022" lon="5.62869">
        <ele>874.6</ele>
        <time>2021-04-22T09:54:12Z</time>
      </trkpt>
      <trkpt lat="44.9021" lon="5.62869">
        <ele>874</ele>
        <time>2021-04-22T09:54:13Z</time>
      </trkpt>
      <trkpt lat="44.902" lon="5.62867">
        <ele>873.4</ele>
        <time>2021-04-22T09:54:14Z</time>
      </trkpt>
      <trkpt lat="44.90189" lon="5.62861">
        <ele>872.6</ele>
        <time>2021-04-22T09:54:15Z</time>
      </trkpt>
      <trkpt lat="44.90181" lon="5.6285">
        <ele>871.9</ele>
        <time>2021-04-22T09:54:16Z</time>
      </trkpt>
      <trkpt lat="44.90173" lon="5.6284">
        <ele>871.2</ele>
        <time>2021-04-22T09:54:17Z</time>
      </trkpt>
      <trkpt lat="44.90164" lon="5.62833">
        <ele>870.6</ele>
        <time>2021-04-22T09:54:18Z</time>
      </trkpt>
      <trkpt lat="44.90153" lon="5.62828">
        <ele>870</ele>
        <time>2021-04-22T09:54:19Z</time>
      </trkpt>
      <trkpt lat="44.90143" lon="5.62827">
        <ele>869.4</ele>
        <time>2021-04-22T09:54:20Z</time>
      </trkpt>
      <trkpt lat="44.90132" lon="5.62831">
        <ele>868.8</ele>
        <time>2021-04-22T09:54:21Z</time>
      </trkpt>
      <trkpt lat="44.90121" lon="5.62836">
        <ele>868.2</ele>
        <time>2021-04-22T09:54:22Z</time>
      </trkpt>
      <trkpt lat="44.90111" lon="5.62842">
        <ele>867.6</ele>
        <time>2021-04-22T09:54:23Z</time>
      </trkpt>
      <trkpt lat="44.901" lon="5.62846">
        <ele>867</ele>
        <time>2021-04-22T09:54:24Z</time>
      </trkpt>
      <trkpt lat="44.90089" lon="5.62848">
        <ele>866.3</ele>
        <time>2021-04-22T09:54:25Z</time>
      </trkpt>
      <trkpt lat="44.90077" lon="5.62847">
        <ele>865.5</ele>
        <time>2021-04-22T09:54:26Z</time>
      </trkpt>
      <trkpt lat="44.90068" lon="5.62841">
        <ele>864.9</ele>
        <time>2021-04-22T09:54:27Z</time>
      </trkpt>
      <trkpt lat="44.90061" lon="5.62828">
        <ele>864.1</ele>
        <time>2021-04-22T09:54:28Z</time>
      </trkpt>
      <trkpt lat="44.90053" lon="5.62816">
        <ele>863.3</ele>
        <time>2021-04-22T09:54:29Z</time>
      </trkpt>
      <trkpt lat="44.90044" lon="5.62807">
        <ele>862.7</ele>
        <time>2021-04-22T09:54:30Z</time>
      </trkpt>
      <trkpt lat="44.90035" lon="5.62799">
        <ele>862.2</ele>
        <time>2021-04-22T09:54:31Z</time>
      </trkpt>
      <trkpt lat="44.90024" lon="5.62793">
        <ele>861.6</ele>
        <time>2021-04-22T09:54:32Z</time>
      </trkpt>
      <trkpt lat="44.90014" lon="5.62787">
        <ele>861.1</ele>
        <time>2021-04-22T09:54:33Z</time>
      </trkpt>
      <trkpt lat="44.90003" lon="5.62782">
        <ele>860.5</ele>
        <time>2021-04-22T09:54:34Z</time>
      </trkpt>
      <trkpt lat="44.89992" lon="5.62778">
        <ele>860</ele>
        <time>2021-04-22T09:54:35Z</time>
      </trkpt>
      <trkpt lat="44.89981" lon="5.62775">
        <ele>859.5</ele>
        <time>2021-04-22T09:54:36Z</time>
      </trkpt>
      <trkpt lat="44.89971" lon="5.62773">
        <ele>859</ele>
        <time>2021-04-22T09:54:37Z</time>
      </trkpt>
      <trkpt lat="44.89959" lon="5.62774">
        <ele>858.4</ele>
        <time>2021-04-22T09:54:38Z</time>
      </trkpt>
      <trkpt lat="44.89948" lon="5.62776">
        <ele>857.8</ele>
        <time>2021-04-22T09:54:39Z</time>
      </trkpt>
      <trkpt lat="44.89937" lon="5.62779">
        <ele>857.2</ele>
        <time>2021-04-22T09:54:40Z</time>
      </trkpt>
      <trkpt lat="44.89927" lon="5.62782">
        <ele>856.7</ele>
        <time>2021-04-22T09:54:41Z</time>
      </trkpt>
      <trkpt lat="44.89916" lon="5.62786">
        <ele>856.1</ele>
        <time>2021-04-22T09:54:42Z</time>
      </trkpt>
      <trkpt lat="44.89905" lon="5.62789">
        <ele>855.6</ele>
        <time>2021-04-22T09:54:43Z</time>
      </trkpt>
      <trkpt lat="44.89895" lon="5.62792">
        <ele>855</ele>
        <time>2021-04-22T09:54:44Z</time>
      </trkpt>
      <trkpt lat="44.89884" lon="5.62796">
        <ele>854.5</ele>
        <time>2021-04-22T09:54:45Z</time>
      </trkpt>
      <trkpt lat="44.89874" lon="5.62799">
        <ele>854</ele>
        <time>2021-04-22T09:54:46Z</time>
      </trkpt>
      <trkpt lat="44.89863" lon="5.62803">
        <ele>853.5</ele>
        <time>2021-04-22T09:54:47Z</time>
      </trkpt>
      <trkpt lat="44.89853" lon="5.62808">
        <ele>853</ele>
        <time>2021-04-22T09:54:48Z</time>
      </trkpt>
      <trkpt lat="44.89843" lon="5.62815">
        <ele>852.5</ele>
        <time>2021-04-22T09:54:49Z</time>
      </trkpt>
      <trkpt lat="44.89834" lon="5.62822">
        <ele>852</ele>
        <time>2021-04-22T09:54:50Z</time>
      </trkpt>
      <trkpt lat="44.89825" lon="5.62832">
        <ele>851.5</ele>
        <time>2021-04-22T09:54:51Z</time>
      </trkpt>
      <trkpt lat="44.89817" lon="5.62843">
        <ele>851.1</ele>
        <time>2021-04-22T09:54:52Z</time>
      </trkpt>
      <trkpt lat="44.89811" lon="5.62855">
        <ele>850.6</ele>
        <time>2021-04-22T09:54:53Z</time>
      </trkpt>
      <trkpt lat="44.89805" lon="5.62869">
        <ele>850</ele>
        <time>2021-04-22T09:54:54Z</time>
      </trkpt>
      <trkpt lat="44.898" lon="5.62883">
        <ele>849.4</ele>
        <time>2021-04-22T09:54:55Z</time>
      </trkpt>
      <trkpt lat="44.89794" lon="5.62897">
        <ele>848.9</ele>
        <time>2021-04-22T09:54:56Z</time>
      </trkpt>
      <trkpt lat="44.89789" lon="5.6291">
        <ele>848.5</ele>
        <time>2021-04-22T09:54:57Z</time>
      </trkpt>
      <trkpt lat="44.89784" lon="5.62925">
        <ele>848.1</ele>
        <time>2021-04-22T09:54:58Z</time>
      </trkpt>
      <trkpt lat="44.89778" lon="5.62939">
        <ele>847.7</ele>
        <time>2021-04-22T09:54:59Z</time>
      </trkpt>
      <trkpt lat="44.89775" lon="5.62952">
        <ele>847.4</ele>
        <time>2021-04-22T09:55:00Z</time>
      </trkpt>
      <trkpt lat="44.89774" lon="5.62967">
        <ele>847</ele>
        <time>2021-04-22T09:55:01Z</time>
      </trkpt>
      <trkpt lat="44.89777" lon="5.6298">
        <ele>846.7</ele>
        <time>2021-04-22T09:55:02Z</time>
      </trkpt>
      <trkpt lat="44.89783" lon="5.62992">
        <ele>846.4</ele>
        <time>2021-04-22T09:55:03Z</time>
      </trkpt>
      <trkpt lat="44.89794" lon="5.62999">
        <ele>846</ele>
        <time>2021-04-22T09:55:04Z</time>
      </trkpt>
      <trkpt lat="44.89803" lon="5.63004">
        <ele>845.7</ele>
        <time>2021-04-22T09:55:05Z</time>
      </trkpt>
      <trkpt lat="44.89811" lon="5.63011">
        <ele>845.3</ele>
        <time>2021-04-22T09:55:06Z</time>
      </trkpt>
      <trkpt lat="44.89818" lon="5.6302">
        <ele>844.9</ele>
        <time>2021-04-22T09:55:07Z</time>
      </trkpt>
      <trkpt lat="44.89823" lon="5.63029">
        <ele>844.4</ele>
        <time>2021-04-22T09:55:08Z</time>
      </trkpt>
      <trkpt lat="44.89826" lon="5.63038">
        <ele>843.9</ele>
        <time>2021-04-22T09:55:09Z</time>
      </trkpt>
      <trkpt lat="44.89822" lon="5.63045">
        <ele>843.5</ele>
        <time>2021-04-22T09:55:10Z</time>
      </trkpt>
      <trkpt lat="44.89819" lon="5.63048">
        <ele>843.2</ele>
        <time>2021-04-22T09:55:11Z</time>
      </trkpt>
      <trkpt lat="44.8981" lon="5.63046">
        <ele>842.6</ele>
        <time>2021-04-22T09:55:12Z</time>
      </trkpt>
      <trkpt lat="44.89798" lon="5.63049">
        <ele>841.8</ele>
        <time>2021-04-22T09:55:13Z</time>
      </trkpt>
      <trkpt lat="44.89785" lon="5.63052">
        <ele>840.9</ele>
        <time>2021-04-22T09:55:14Z</time>
      </trkpt>
      <trkpt lat="44.89773" lon="5.63057">
        <ele>840.2</ele>
        <time>2021-04-22T09:55:15Z</time>
      </trkpt>
      <trkpt lat="44.89762" lon="5.63066">
        <ele>839.6</ele>
        <time>2021-04-22T09:55:16Z</time>
      </trkpt>
      <trkpt lat="44.89752" lon="5.63075">
        <ele>839</ele>
        <time>2021-04-22T09:55:17Z</time>
      </trkpt>
      <trkpt lat="44.89745" lon="5.63087">
        <ele>838.4</ele>
        <time>2021-04-22T09:55:18Z</time>
      </trkpt>
      <trkpt lat="44.8974" lon="5.63102">
        <ele>837.8</ele>
        <time>2021-04-22T09:55:19Z</time>
      </trkpt>
      <trkpt lat="44.89739" lon="5.63116">
        <ele>837.3</ele>
        <time>2021-04-22T09:55:20Z</time>
      </trkpt>
      <trkpt lat="44.8974" lon="5.63132">
        <ele>836.7</ele>
        <time>2021-04-22T09:55:21Z</time>
      </trkpt>
      <trkpt lat="44.89744" lon="5.63146">
        <ele>836.2</ele>
        <time>2021-04-22T09:55:22Z</time>
      </trkpt>
      <trkpt lat="44.89749" lon="5.63159">
        <ele>835.7</ele>
        <time>2021-04-22T09:55:23Z</time>
      </trkpt>
      <trkpt lat="44.89754" lon="5.63173">
        <ele>835.1</ele>
        <time>2021-04-22T09:55:24Z</time>
      </trkpt>
      <trkpt lat="44.89756" lon="5.63188">
        <ele>834.5</ele>
        <time>2021-04-22T09:55:25Z</time>
      </trkpt>
      <trkpt lat="44.89756" lon="5.63204">
        <ele>833.8</ele>
        <time>2021-04-22T09:55:26Z</time>
      </trkpt>
      <trkpt lat="44.89752" lon="5.63219">
        <ele>833.1</ele>
        <time>2021-04-22T09:55:27Z</time>
      </trkpt>
      <trkpt lat="44.89746" lon="5.63233">
        <ele>832.5</ele>
        <time>2021-04-22T09:55:28Z</time>
      </trkpt>
      <trkpt lat="44.89741" lon="5.63247">
        <ele>831.8</ele>
        <time>2021-04-22T09:55:29Z</time>
      </trkpt>
      <trkpt lat="44.89736" lon="5.63261">
        <ele>831.2</ele>
        <time>2021-04-22T09:55:30Z</time>
      </trkpt>
      <trkpt lat="44.89732" lon="5.63276">
        <ele>830.7</ele>
        <time>2021-04-22T09:55:31Z</time>
      </trkpt>
      <trkpt lat="44.89728" lon="5.6329">
        <ele>830.3</ele>
        <time>2021-04-22T09:55:32Z</time>
      </trkpt>
      <trkpt lat="44.89726" lon="5.63305">
        <ele>829.8</ele>
        <time>2021-04-22T09:55:33Z</time>
      </trkpt>
      <trkpt lat="44.89726" lon="5.6332">
        <ele>829.4</ele>
        <time>2021-04-22T09:55:34Z</time>
      </trkpt>
      <trkpt lat="44.89728" lon="5.63335">
        <ele>828.8</ele>
        <time>2021-04-22T09:55:35Z</time>
      </trkpt>
      <trkpt lat="44.8973" lon="5.63351">
        <ele>828.2</ele>
        <time>2021-04-22T09:55:36Z</time>
      </trkpt>
      <trkpt lat="44.89732" lon="5.63366">
        <ele>827.6</ele>
        <time>2021-04-22T09:55:37Z</time>
      </trkpt>
      <trkpt lat="44.8973" lon="5.63382">
        <ele>827</ele>
        <time>2021-04-22T09:55:38Z</time>
      </trkpt>
      <trkpt lat="44.89725" lon="5.63396">
        <ele>826.3</ele>
        <time>2021-04-22T09:55:39Z</time>
      </trkpt>
      <trkpt lat="44.89716" lon="5.63408">
        <ele>825.7</ele>
        <time>2021-04-22T09:55:40Z</time>
      </trkpt>
      <trkpt lat="44.89706" lon="5.63416">
        <ele>825</ele>
        <time>2021-04-22T09:55:41Z</time>
      </trkpt>
      <trkpt lat="44.89696" lon="5.63423">
        <ele>824.4</ele>
        <time>2021-04-22T09:55:42Z</time>
      </trkpt>
      <trkpt lat="44.89686" lon="5.63431">
        <ele>823.8</ele>
        <time>2021-04-22T09:55:43Z</time>
      </trkpt>
      <trkpt lat="44.89677" lon="5.63439">
        <ele>823.3</ele>
        <time>2021-04-22T09:55:44Z</time>
      </trkpt>
      <trkpt lat="44.89668" lon="5.63447">
        <ele>822.7</ele>
        <time>2021-04-22T09:55:45Z</time>
      </trkpt>
      <trkpt lat="44.89658" lon="5.63455">
        <ele>822.1</ele>
        <time>2021-04-22T09:55:46Z</time>
      </trkpt>
      <trkpt lat="44.89649" lon="5.63463">
        <ele>821.6</ele>
        <time>2021-04-22T09:55:47Z</time>
      </trkpt>
      <trkpt lat="44.8964" lon="5.63472">
        <ele>821.1</ele>
        <time>2021-04-22T09:55:48Z</time>
      </trkpt>
      <trkpt lat="44.89631" lon="5.63481">
        <ele>820.7</ele>
        <time>2021-04-22T09:55:49Z</time>
      </trkpt>
      <trkpt lat="44.89622" lon="5.63488">
        <ele>820.2</ele>
        <time>2021-04-22T09:55:50Z</time>
      </trkpt>
      <trkpt lat="44.89613" lon="5.63496">
        <ele>819.6</ele>
        <time>2021-04-22T09:55:51Z</time>
      </trkpt>
      <trkpt lat="44.89603" lon="5.63504">
        <ele>819</ele>
        <time>2021-04-22T09:55:52Z</time>
      </trkpt>
      <trkpt lat="44.89592" lon="5.6351">
        <ele>818.4</ele>
        <time>2021-04-22T09:55:53Z</time>
      </trkpt>
      <trkpt lat="44.89582" lon="5.63515">
        <ele>817.8</ele>
        <time>2021-04-22T09:55:54Z</time>
      </trkpt>
      <trkpt lat="44.89571" lon="5.6352">
        <ele>817.1</ele>
        <time>2021-04-22T09:55:55Z</time>
      </trkpt>
      <trkpt lat="44.89559" lon="5.63523">
        <ele>816.4</ele>
        <time>2021-04-22T09:55:56Z</time>
      </trkpt>
      <trkpt lat="44.89548" lon="5.63525">
        <ele>815.8</ele>
        <time>2021-04-22T09:55:57Z</time>
      </trkpt>
      <trkpt lat="44.89536" lon="5.63526">
        <ele>815.2</ele>
        <time>2021-04-22T09:55:58Z</time>
      </trkpt>
      <trkpt lat="44.89524" lon="5.63528">
        <ele>814.6</ele>
        <time>2021-04-22T09:55:59Z</time>
      </trkpt>
      <trkpt lat="44.89513" lon="5.63531">
        <ele>814</ele>
        <time>2021-04-22T09:56:00Z</time>
      </trkpt>
      <trkpt lat="44.89501" lon="5.63533">
        <ele>813.4</ele>
        <time>2021-04-22T09:56:01Z</time>
      </trkpt>
      <trkpt lat="44.8949" lon="5.63535">
        <ele>812.8</ele>
        <time>2021-04-22T09:56:02Z</time>
      </trkpt>
      <trkpt lat="44.89479" lon="5.63538">
        <ele>812.3</ele>
        <time>2021-04-22T09:56:03Z</time>
      </trkpt>
      <trkpt lat="44.89467" lon="5.6354">
        <ele>811.9</ele>
        <time>2021-04-22T09:56:04Z</time>
      </trkpt>
      <trkpt lat="44.89456" lon="5.63542">
        <ele>811.4</ele>
        <time>2021-04-22T09:56:05Z</time>
      </trkpt>
      <trkpt lat="44.89445" lon="5.63544">
        <ele>811</ele>
        <time>2021-04-22T09:56:06Z</time>
      </trkpt>
      <trkpt lat="44.89433" lon="5.63545">
        <ele>810.6</ele>
        <time>2021-04-22T09:56:07Z</time>
      </trkpt>
      <trkpt lat="44.89422" lon="5.63547">
        <ele>810.1</ele>
        <time>2021-04-22T09:56:08Z</time>
      </trkpt>
      <trkpt lat="44.89411" lon="5.63549">
        <ele>809.7</ele>
        <time>2021-04-22T09:56:09Z</time>
      </trkpt>
      <trkpt lat="44.894" lon="5.63552">
        <ele>809.2</ele>
        <time>2021-04-22T09:56:10Z</time>
      </trkpt>
      <trkpt lat="44.89389" lon="5.63558">
        <ele>808.5</ele>
        <time>2021-04-22T09:56:11Z</time>
      </trkpt>
      <trkpt lat="44.89377" lon="5.63563">
        <ele>807.8</ele>
        <time>2021-04-22T09:56:12Z</time>
      </trkpt>
      <trkpt lat="44.89366" lon="5.63565">
        <ele>807.1</ele>
        <time>2021-04-22T09:56:13Z</time>
      </trkpt>
      <trkpt lat="44.89354" lon="5.63564">
        <ele>806.4</ele>
        <time>2021-04-22T09:56:14Z</time>
      </trkpt>
      <trkpt lat="44.89342" lon="5.63559">
        <ele>805.7</ele>
        <time>2021-04-22T09:56:15Z</time>
      </trkpt>
      <trkpt lat="44.89331" lon="5.63552">
        <ele>805</ele>
        <time>2021-04-22T09:56:16Z</time>
      </trkpt>
      <trkpt lat="44.89321" lon="5.63544">
        <ele>804.4</ele>
        <time>2021-04-22T09:56:17Z</time>
      </trkpt>
      <trkpt lat="44.89311" lon="5.63534">
        <ele>803.8</ele>
        <time>2021-04-22T09:56:18Z</time>
      </trkpt>
      <trkpt lat="44.89302" lon="5.63524">
        <ele>803.3</ele>
        <time>2021-04-22T09:56:19Z</time>
      </trkpt>
      <trkpt lat="44.89293" lon="5.63513">
        <ele>802.7</ele>
        <time>2021-04-22T09:56:20Z</time>
      </trkpt>
      <trkpt lat="44.89286" lon="5.63502">
        <ele>802.1</ele>
        <time>2021-04-22T09:56:21Z</time>
      </trkpt>
      <trkpt lat="44.89278" lon="5.6349">
        <ele>801.6</ele>
        <time>2021-04-22T09:56:22Z</time>
      </trkpt>
      <trkpt lat="44.89271" lon="5.63478">
        <ele>801</ele>
        <time>2021-04-22T09:56:23Z</time>
      </trkpt>
      <trkpt lat="44.89264" lon="5.63466">
        <ele>800.5</ele>
        <time>2021-04-22T09:56:24Z</time>
      </trkpt>
      <trkpt lat="44.89257" lon="5.63454">
        <ele>800</ele>
        <time>2021-04-22T09:56:25Z</time>
      </trkpt>
      <trkpt lat="44.89249" lon="5.63444">
        <ele>799.5</ele>
        <time>2021-04-22T09:56:26Z</time>
      </trkpt>
      <trkpt lat="44.89242" lon="5.63434">
        <ele>799.1</ele>
        <time>2021-04-22T09:56:27Z</time>
      </trkpt>
      <trkpt lat="44.89233" lon="5.63426">
        <ele>798.7</ele>
        <time>2021-04-22T09:56:28Z</time>
      </trkpt>
      <trkpt lat="44.89224" lon="5.6342">
        <ele>798.2</ele>
        <time>2021-04-22T09:56:29Z</time>
      </trkpt>
      <trkpt lat="44.89213" lon="5.63419">
        <ele>797.8</ele>
        <time>2021-04-22T09:56:30Z</time>
      </trkpt>
      <trkpt lat="44.89203" lon="5.63421">
        <ele>797.3</ele>
        <time>2021-04-22T09:56:31Z</time>
      </trkpt>
      <trkpt lat="44.89192" lon="5.63428">
        <ele>796.8</ele>
        <time>2021-04-22T09:56:32Z</time>
      </trkpt>
      <trkpt lat="44.89182" lon="5.63436">
        <ele>796.3</ele>
        <time>2021-04-22T09:56:33Z</time>
      </trkpt>
      <trkpt lat="44.89172" lon="5.63445">
        <ele>795.7</ele>
        <time>2021-04-22T09:56:34Z</time>
      </trkpt>
      <trkpt lat="44.89163" lon="5.63454">
        <ele>795.2</ele>
        <time>2021-04-22T09:56:35Z</time>
      </trkpt>
      <trkpt lat="44.89153" lon="5.63464">
        <ele>794.6</ele>
        <time>2021-04-22T09:56:36Z</time>
      </trkpt>
      <trkpt lat="44.89144" lon="5.63473">
        <ele>794</ele>
        <time>2021-04-22T09:56:37Z</time>
      </trkpt>
      <trkpt lat="44.89134" lon="5.63482">
        <ele>793.5</ele>
        <time>2021-04-22T09:56:38Z</time>
      </trkpt>
      <trkpt lat="44.89124" lon="5.63491">
        <ele>792.9</ele>
        <time>2021-04-22T09:56:39Z</time>
      </trkpt>
      <trkpt lat="44.89114" lon="5.63501">
        <ele>792.3</ele>
        <time>2021-04-22T09:56:40Z</time>
      </trkpt>
      <trkpt lat="44.89105" lon="5.6351">
        <ele>791.8</ele>
        <time>2021-04-22T09:56:41Z</time>
      </trkpt>
      <trkpt lat="44.89095" lon="5.63519">
        <ele>791.3</ele>
        <time>2021-04-22T09:56:42Z</time>
      </trkpt>
      <trkpt lat="44.89086" lon="5.63528">
        <ele>790.8</ele>
        <time>2021-04-22T09:56:43Z</time>
      </trkpt>
      <trkpt lat="44.89076" lon="5.63537">
        <ele>790.3</ele>
        <time>2021-04-22T09:56:44Z</time>
      </trkpt>
      <trkpt lat="44.89066" lon="5.63546">
        <ele>789.8</ele>
        <time>2021-04-22T09:56:45Z</time>
      </trkpt>
      <trkpt lat="44.89056" lon="5.63555">
        <ele>789.3</ele>
        <time>2021-04-22T09:56:46Z</time>
      </trkpt>
      <trkpt lat="44.89046" lon="5.63563">
        <ele>788.9</ele>
        <time>2021-04-22T09:56:47Z</time>
      </trkpt>
      <trkpt lat="44.89036" lon="5.63573">
        <ele>788.4</ele>
        <time>2021-04-22T09:56:48Z</time>
      </trkpt>
      <trkpt lat="44.89027" lon="5.63583">
        <ele>787.9</ele>
        <time>2021-04-22T09:56:49Z</time>
      </trkpt>
      <trkpt lat="44.89018" lon="5.63592">
        <ele>787.4</ele>
        <time>2021-04-22T09:56:50Z</time>
      </trkpt>
      <trkpt lat="44.89009" lon="5.63602">
        <ele>786.9</ele>
        <time>2021-04-22T09:56:51Z</time>
      </trkpt>
      <trkpt lat="44.89" lon="5.63612">
        <ele>786.3</ele>
        <time>2021-04-22T09:56:52Z</time>
      </trkpt>
      <trkpt lat="44.88991" lon="5.63621">
        <ele>785.8</ele>
        <time>2021-04-22T09:56:53Z</time>
      </trkpt>
      <trkpt lat="44.88982" lon="5.63631">
        <ele>785.2</ele>
        <time>2021-04-22T09:56:54Z</time>
      </trkpt>
      <trkpt lat="44.88973" lon="5.63642">
        <ele>784.6</ele>
        <time>2021-04-22T09:56:55Z</time>
      </trkpt>
      <trkpt lat="44.88964" lon="5.63652">
        <ele>784.1</ele>
        <time>2021-04-22T09:56:56Z</time>
      </trkpt>
      <trkpt lat="44.88955" lon="5.63662">
        <ele>783.5</ele>
        <time>2021-04-22T09:56:57Z</time>
      </trkpt>
      <trkpt lat="44.88946" lon="5.63671">
        <ele>783</ele>
        <time>2021-04-22T09:56:58Z</time>
      </trkpt>
      <trkpt lat="44.88937" lon="5.63681">
        <ele>782.5</ele>
        <time>2021-04-22T09:56:59Z</time>
      </trkpt>
      <trkpt lat="44.88928" lon="5.63691">
        <ele>782</ele>
        <time>2021-04-22T09:57:00Z</time>
      </trkpt>
      <trkpt lat="44.88918" lon="5.637">
        <ele>781.5</ele>
        <time>2021-04-22T09:57:01Z</time>
      </trkpt>
      <trkpt lat="44.8891" lon="5.63709">
        <ele>781</ele>
        <time>2021-04-22T09:57:02Z</time>
      </trkpt>
      <trkpt lat="44.88901" lon="5.63718">
        <ele>780.5</ele>
        <time>2021-04-22T09:57:03Z</time>
      </trkpt>
      <trkpt lat="44.88892" lon="5.63727">
        <ele>780</ele>
        <time>2021-04-22T09:57:04Z</time>
      </trkpt>
      <trkpt lat="44.88883" lon="5.63736">
        <ele>779.5</ele>
        <time>2021-04-22T09:57:05Z</time>
      </trkpt>
      <trkpt lat="44.88874" lon="5.63745">
        <ele>779</ele>
        <time>2021-04-22T09:57:06Z</time>
      </trkpt>
      <trkpt lat="44.88864" lon="5.63753">
        <ele>778.4</ele>
        <time>2021-04-22T09:57:07Z</time>
      </trkpt>
      <trkpt lat="44.88854" lon="5.63761">
        <ele>777.9</ele>
        <time>2021-04-22T09:57:08Z</time>
      </trkpt>
      <trkpt lat="44.88844" lon="5.63769">
        <ele>777.4</ele>
        <time>2021-04-22T09:57:09Z</time>
      </trkpt>
      <trkpt lat="44.88834" lon="5.63776">
        <ele>776.9</ele>
        <time>2021-04-22T09:57:10Z</time>
      </trkpt>
      <trkpt lat="44.88823" lon="5.63784">
        <ele>776.4</ele>
        <time>2021-04-22T09:57:11Z</time>
      </trkpt>
      <trkpt lat="44.88813" lon="5.63791">
        <ele>775.9</ele>
        <time>2021-04-22T09:57:12Z</time>
      </trkpt>
      <trkpt lat="44.88803" lon="5.63799">
        <ele>775.5</ele>
        <time>2021-04-22T09:57:13Z</time>
      </trkpt>
      <trkpt lat="44.88793" lon="5.63807">
        <ele>775</ele>
        <time>2021-04-22T09:57:14Z</time>
      </trkpt>
      <trkpt lat="44.88783" lon="5.63815">
        <ele>774.5</ele>
        <time>2021-04-22T09:57:15Z</time>
      </trkpt>
      <trkpt lat="44.88773" lon="5.63823">
        <ele>774</ele>
        <time>2021-04-22T09:57:16Z</time>
      </trkpt>
      <trkpt lat="44.88762" lon="5.63831">
        <ele>773.6</ele>
        <time>2021-04-22T09:57:17Z</time>
      </trkpt>
      <trkpt lat="44.88752" lon="5.63838">
        <ele>773.1</ele>
        <time>2021-04-22T09:57:18Z</time>
      </trkpt>
      <trkpt lat="44.88741" lon="5.63844">
        <ele>772.7</ele>
        <time>2021-04-22T09:57:19Z</time>
      </trkpt>
      <trkpt lat="44.8873" lon="5.63848">
        <ele>772.2</ele>
        <time>2021-04-22T09:57:20Z</time>
      </trkpt>
      <trkpt lat="44.88719" lon="5.63848">
        <ele>772.1</ele>
        <time>2021-04-22T09:57:21Z</time>
      </trkpt>
      <trkpt lat="44.88706" lon="5.63848">
        <ele>771.4</ele>
        <time>2021-04-22T09:57:22Z</time>
      </trkpt>
      <trkpt lat="44.88694" lon="5.63848">
        <ele>770.8</ele>
        <time>2021-04-22T09:57:23Z</time>
      </trkpt>
      <trkpt lat="44.88683" lon="5.63849">
        <ele>770.2</ele>
        <time>2021-04-22T09:57:24Z</time>
      </trkpt>
      <trkpt lat="44.88672" lon="5.63851">
        <ele>769.6</ele>
        <time>2021-04-22T09:57:25Z</time>
      </trkpt>
      <trkpt lat="44.88662" lon="5.63855">
        <ele>769</ele>
        <time>2021-04-22T09:57:26Z</time>
      </trkpt>
      <trkpt lat="44.88652" lon="5.63862">
        <ele>768.4</ele>
        <time>2021-04-22T09:57:27Z</time>
      </trkpt>
      <trkpt lat="44.88642" lon="5.6387">
        <ele>767.9</ele>
        <time>2021-04-22T09:57:28Z</time>
      </trkpt>
      <trkpt lat="44.88633" lon="5.63878">
        <ele>767.4</ele>
        <time>2021-04-22T09:57:29Z</time>
      </trkpt>
      <trkpt lat="44.88625" lon="5.63886">
        <ele>767</ele>
        <time>2021-04-22T09:57:30Z</time>
      </trkpt>
      <trkpt lat="44.88617" lon="5.63896">
        <ele>766.5</ele>
        <time>2021-04-22T09:57:31Z</time>
      </trkpt>
      <trkpt lat="44.88611" lon="5.63907">
        <ele>766.1</ele>
        <time>2021-04-22T09:57:32Z</time>
      </trkpt>
      <trkpt lat="44.88605" lon="5.63918">
        <ele>765.9</ele>
        <time>2021-04-22T09:57:33Z</time>
      </trkpt>
      <trkpt lat="44.886" lon="5.63931">
        <ele>765.7</ele>
        <time>2021-04-22T09:57:34Z</time>
      </trkpt>
      <trkpt lat="44.88598" lon="5.63945">
        <ele>765.6</ele>
        <time>2021-04-22T09:57:35Z</time>
      </trkpt>
      <trkpt lat="44.88597" lon="5.6396">
        <ele>765.5</ele>
        <time>2021-04-22T09:57:36Z</time>
      </trkpt>
      <trkpt lat="44.88596" lon="5.63974">
        <ele>765.5</ele>
        <time>2021-04-22T09:57:37Z</time>
      </trkpt>
      <trkpt lat="44.88596" lon="5.63988">
        <ele>765.4</ele>
        <time>2021-04-22T09:57:38Z</time>
      </trkpt>
      <trkpt lat="44.88596" lon="5.64002">
        <ele>765.1</ele>
        <time>2021-04-22T09:57:39Z</time>
      </trkpt>
      <trkpt lat="44.88596" lon="5.64016">
        <ele>764.8</ele>
        <time>2021-04-22T09:57:40Z</time>
      </trkpt>
      <trkpt lat="44.88596" lon="5.64029">
        <ele>764.6</ele>
        <time>2021-04-22T09:57:41Z</time>
      </trkpt>
      <trkpt lat="44.88597" lon="5.64042">
        <ele>764.3</ele>
        <time>2021-04-22T09:57:42Z</time>
      </trkpt>
      <trkpt lat="44.88597" lon="5.64055">
        <ele>764.1</ele>
        <time>2021-04-22T09:57:43Z</time>
      </trkpt>
      <trkpt lat="44.88597" lon="5.64068">
        <ele>763.8</ele>
        <time>2021-04-22T09:57:44Z</time>
      </trkpt>
      <trkpt lat="44.88597" lon="5.6408">
        <ele>763.6</ele>
        <time>2021-04-22T09:57:45Z</time>
      </trkpt>
      <trkpt lat="44.88596" lon="5.64093">
        <ele>763.3</ele>
        <time>2021-04-22T09:57:46Z</time>
      </trkpt>
      <trkpt lat="44.88595" lon="5.64106">
        <ele>763.1</ele>
        <time>2021-04-22T09:57:47Z</time>
      </trkpt>
      <trkpt lat="44.88592" lon="5.64118">
        <ele>762.9</ele>
        <time>2021-04-22T09:57:48Z</time>
      </trkpt>
      <trkpt lat="44.88589" lon="5.6413">
        <ele>762.7</ele>
        <time>2021-04-22T09:57:49Z</time>
      </trkpt>
      <trkpt lat="44.88584" lon="5.64141">
        <ele>762.4</ele>
        <time>2021-04-22T09:57:50Z</time>
      </trkpt>
      <trkpt lat="44.88578" lon="5.64152">
        <ele>762.1</ele>
        <time>2021-04-22T09:57:51Z</time>
      </trkpt>
      <trkpt lat="44.88572" lon="5.64162">
        <ele>761.8</ele>
        <time>2021-04-22T09:57:52Z</time>
      </trkpt>
      <trkpt lat="44.88565" lon="5.64172">
        <ele>761.5</ele>
        <time>2021-04-22T09:57:53Z</time>
      </trkpt>
      <trkpt lat="44.88558" lon="5.64182">
        <ele>761.3</ele>
        <time>2021-04-22T09:57:54Z</time>
      </trkpt>
      <trkpt lat="44.88551" lon="5.64192">
        <ele>761</ele>
        <time>2021-04-22T09:57:55Z</time>
      </trkpt>
      <trkpt lat="44.88545" lon="5.64201">
        <ele>760.8</ele>
        <time>2021-04-22T09:57:56Z</time>
      </trkpt>
      <trkpt lat="44.88538" lon="5.6421">
        <ele>760.6</ele>
        <time>2021-04-22T09:57:57Z</time>
      </trkpt>
      <trkpt lat="44.88531" lon="5.64218">
        <ele>760.4</ele>
        <time>2021-04-22T09:57:58Z</time>
      </trkpt>
      <trkpt lat="44.88524" lon="5.64228">
        <ele>760.2</ele>
        <time>2021-04-22T09:57:59Z</time>
      </trkpt>
      <trkpt lat="44.88518" lon="5.64238">
        <ele>760</ele>
        <time>2021-04-22T09:58:00Z</time>
      </trkpt>
      <trkpt lat="44.88512" lon="5.64248">
        <ele>759.8</ele>
        <time>2021-04-22T09:58:01Z</time>
      </trkpt>
      <trkpt lat="44.88506" lon="5.64258">
        <ele>759.5</ele>
        <time>2021-04-22T09:58:02Z</time>
      </trkpt>
      <trkpt lat="44.88499" lon="5.64268">
        <ele>759.2</ele>
        <time>2021-04-22T09:58:03Z</time>
      </trkpt>
      <trkpt lat="44.88494" lon="5.64278">
        <ele>759</ele>
        <time>2021-04-22T09:58:04Z</time>
      </trkpt>
      <trkpt lat="44.88488" lon="5.64288">
        <ele>758.8</ele>
        <time>2021-04-22T09:58:05Z</time>
      </trkpt>
      <trkpt lat="44.88482" lon="5.64298">
        <ele>758.5</ele>
        <time>2021-04-22T09:58:06Z</time>
      </trkpt>
      <trkpt lat="44.88476" lon="5.64309">
        <ele>758.3</ele>
        <time>2021-04-22T09:58:07Z</time>
      </trkpt>
      <trkpt lat="44.88471" lon="5.6432">
        <ele>758.1</ele>
        <time>2021-04-22T09:58:08Z</time>
      </trkpt>
      <trkpt lat="44.88466" lon="5.64331">
        <ele>757.9</ele>
        <time>2021-04-22T09:58:09Z</time>
      </trkpt>
      <trkpt lat="44.88463" lon="5.64342">
        <ele>757.7</ele>
        <time>2021-04-22T09:58:10Z</time>
      </trkpt>
      <trkpt lat="44.8846" lon="5.64355">
        <ele>757.5</ele>
        <time>2021-04-22T09:58:11Z</time>
      </trkpt>
      <trkpt lat="44.88459" lon="5.64368">
        <ele>757.4</ele>
        <time>2021-04-22T09:58:12Z</time>
      </trkpt>
      <trkpt lat="44.88458" lon="5.64381">
        <ele>757.2</ele>
        <time>2021-04-22T09:58:13Z</time>
      </trkpt>
      <trkpt lat="44.88458" lon="5.64394">
        <ele>756.9</ele>
        <time>2021-04-22T09:58:14Z</time>
      </trkpt>
      <trkpt lat="44.88457" lon="5.64407">
        <ele>756.7</ele>
        <time>2021-04-22T09:58:15Z</time>
      </trkpt>
      <trkpt lat="44.88458" lon="5.64421">
        <ele>756.5</ele>
        <time>2021-04-22T09:58:16Z</time>
      </trkpt>
      <trkpt lat="44.8846" lon="5.64435">
        <ele>756.3</ele>
        <time>2021-04-22T09:58:17Z</time>
      </trkpt>
      <trkpt lat="44.8846" lon="5.64448">
        <ele>756.1</ele>
        <time>2021-04-22T09:58:18Z</time>
      </trkpt>
      <trkpt lat="44.8846" lon="5.64461">
        <ele>755.9</ele>
        <time>2021-04-22T09:58:19Z</time>
      </trkpt>
      <trkpt lat="44.8846" lon="5.64474">
        <ele>755.7</ele>
        <time>2021-04-22T09:58:20Z</time>
      </trkpt>
      <trkpt lat="44.88459" lon="5.64488">
        <ele>755.4</ele>
        <time>2021-04-22T09:58:21Z</time>
      </trkpt>
      <trkpt lat="44.88457" lon="5.64501">
        <ele>755.2</ele>
        <time>2021-04-22T09:58:22Z</time>
      </trkpt>
      <trkpt lat="44.88454" lon="5.64513">
        <ele>755</ele>
        <time>2021-04-22T09:58:23Z</time>
      </trkpt>
      <trkpt lat="44.88449" lon="5.64524">
        <ele>754.8</ele>
        <time>2021-04-22T09:58:24Z</time>
      </trkpt>
      <trkpt lat="44.88444" lon="5.64535">
        <ele>754.6</ele>
        <time>2021-04-22T09:58:25Z</time>
      </trkpt>
      <trkpt lat="44.88436" lon="5.64546">
        <ele>754.3</ele>
        <time>2021-04-22T09:58:26Z</time>
      </trkpt>
      <trkpt lat="44.88429" lon="5.64554">
        <ele>754</ele>
        <time>2021-04-22T09:58:27Z</time>
      </trkpt>
      <trkpt lat="44.88421" lon="5.64561">
        <ele>753.7</ele>
        <time>2021-04-22T09:58:28Z</time>
      </trkpt>
      <trkpt lat="44.88412" lon="5.64568">
        <ele>753.4</ele>
        <time>2021-04-22T09:58:29Z</time>
      </trkpt>
      <trkpt lat="44.88404" lon="5.64575">
        <ele>753.2</ele>
        <time>2021-04-22T09:58:30Z</time>
      </trkpt>
      <trkpt lat="44.88395" lon="5.64582">
        <ele>752.9</ele>
        <time>2021-04-22T09:58:31Z</time>
      </trkpt>
      <trkpt lat="44.88387" lon="5.64589">
        <ele>752.7</ele>
        <time>2021-04-22T09:58:32Z</time>
      </trkpt>
      <trkpt lat="44.8838" lon="5.64596">
        <ele>752.4</ele>
        <time>2021-04-22T09:58:33Z</time>
      </trkpt>
      <trkpt lat="44.88371" lon="5.64602">
        <ele>752.2</ele>
        <time>2021-04-22T09:58:34Z</time>
      </trkpt>
      <trkpt lat="44.88363" lon="5.64609">
        <ele>752</ele>
        <time>2021-04-22T09:58:35Z</time>
      </trkpt>
      <trkpt lat="44.88355" lon="5.64615">
        <ele>751.8</ele>
        <time>2021-04-22T09:58:36Z</time>
      </trkpt>
      <trkpt lat="44.88346" lon="5.6462">
        <ele>751.6</ele>
        <time>2021-04-22T09:58:37Z</time>
      </trkpt>
      <trkpt lat="44.88337" lon="5.64627">
        <ele>751.4</ele>
        <time>2021-04-22T09:58:38Z</time>
      </trkpt>
      <trkpt lat="44.88329" lon="5.64634">
        <ele>751.2</ele>
        <time>2021-04-22T09:58:39Z</time>
      </trkpt>
      <trkpt lat="44.88321" lon="5.64639">
        <ele>751</ele>
        <time>2021-04-22T09:58:40Z</time>
      </trkpt>
      <trkpt lat="44.88313" lon="5.64646">
        <ele>750.9</ele>
        <time>2021-04-22T09:58:41Z</time>
      </trkpt>
      <trkpt lat="44.88305" lon="5.64654">
        <ele>750.7</ele>
        <time>2021-04-22T09:58:42Z</time>
      </trkpt>
      <trkpt lat="44.88297" lon="5.64662">
        <ele>750.5</ele>
        <time>2021-04-22T09:58:43Z</time>
      </trkpt>
      <trkpt lat="44.88291" lon="5.64671">
        <ele>750.3</ele>
        <time>2021-04-22T09:58:44Z</time>
      </trkpt>
      <trkpt lat="44.88285" lon="5.64681">
        <ele>750</ele>
        <time>2021-04-22T09:58:45Z</time>
      </trkpt>
      <trkpt lat="44.88278" lon="5.64691">
        <ele>749.8</ele>
        <time>2021-04-22T09:58:46Z</time>
      </trkpt>
      <trkpt lat="44.88272" lon="5.64701">
        <ele>749.5</ele>
        <time>2021-04-22T09:58:47Z</time>
      </trkpt>
      <trkpt lat="44.88265" lon="5.64711">
        <ele>749.2</ele>
        <time>2021-04-22T09:58:48Z</time>
      </trkpt>
      <trkpt lat="44.88258" lon="5.64721">
        <ele>749</ele>
        <time>2021-04-22T09:58:49Z</time>
      </trkpt>
      <trkpt lat="44.88251" lon="5.64732">
        <ele>748.8</ele>
        <time>2021-04-22T09:58:50Z</time>
      </trkpt>
      <trkpt lat="44.88244" lon="5.64741">
        <ele>748.5</ele>
        <time>2021-04-22T09:58:51Z</time>
      </trkpt>
      <trkpt lat="44.88236" lon="5.64751">
        <ele>748.3</ele>
        <time>2021-04-22T09:58:52Z</time>
      </trkpt>
      <trkpt lat="44.8823" lon="5.6476">
        <ele>748.1</ele>
        <time>2021-04-22T09:58:53Z</time>
      </trkpt>
      <trkpt lat="44.88222" lon="5.64769">
        <ele>747.9</ele>
        <time>2021-04-22T09:58:54Z</time>
      </trkpt>
      <trkpt lat="44.88216" lon="5.64777">
        <ele>747.7</ele>
        <time>2021-04-22T09:58:55Z</time>
      </trkpt>
      <trkpt lat="44.88209" lon="5.64786">
        <ele>747.5</ele>
        <time>2021-04-22T09:58:56Z</time>
      </trkpt>
      <trkpt lat="44.88202" lon="5.64795">
        <ele>747.3</ele>
        <time>2021-04-22T09:58:57Z</time>
      </trkpt>
      <trkpt lat="44.88195" lon="5.64805">
        <ele>747.1</ele>
        <time>2021-04-22T09:58:58Z</time>
      </trkpt>
      <trkpt lat="44.88188" lon="5.64815">
        <ele>746.9</ele>
        <time>2021-04-22T09:58:59Z</time>
      </trkpt>
      <trkpt lat="44.88181" lon="5.64824">
        <ele>746.7</ele>
        <time>2021-04-22T09:59:00Z</time>
      </trkpt>
      <trkpt lat="44.88174" lon="5.64833">
        <ele>746.5</ele>
        <time>2021-04-22T09:59:01Z</time>
      </trkpt>
      <trkpt lat="44.88167" lon="5.64841">
        <ele>746.3</ele>
        <time>2021-04-22T09:59:02Z</time>
      </trkpt>
      <trkpt lat="44.8816" lon="5.6485">
        <ele>746</ele>
        <time>2021-04-22T09:59:03Z</time>
      </trkpt>
      <trkpt lat="44.88152" lon="5.64857">
        <ele>745.8</ele>
        <time>2021-04-22T09:59:04Z</time>
      </trkpt>
      <trkpt lat="44.88143" lon="5.64863">
        <ele>745.5</ele>
        <time>2021-04-22T09:59:05Z</time>
      </trkpt>
      <trkpt lat="44.88135" lon="5.64866">
        <ele>745.3</ele>
        <time>2021-04-22T09:59:06Z</time>
      </trkpt>
      <trkpt lat="44.88118" lon="5.64866">
        <ele>744.8</ele>
        <time>2021-04-22T09:59:08Z</time>
      </trkpt>
      <trkpt lat="44.8811" lon="5.64864">
        <ele>744.6</ele>
        <time>2021-04-22T09:59:09Z</time>
      </trkpt>
      <trkpt lat="44.88101" lon="5.64861">
        <ele>744.4</ele>
        <time>2021-04-22T09:59:10Z</time>
      </trkpt>
      <trkpt lat="44.88093" lon="5.64859">
        <ele>744.3</ele>
        <time>2021-04-22T09:59:11Z</time>
      </trkpt>
      <trkpt lat="44.88085" lon="5.64858">
        <ele>744.1</ele>
        <time>2021-04-22T09:59:12Z</time>
      </trkpt>
      <trkpt lat="44.88076" lon="5.64858">
        <ele>743.9</ele>
        <time>2021-04-22T09:59:13Z</time>
      </trkpt>
      <trkpt lat="44.88068" lon="5.6486">
        <ele>743.7</ele>
        <time>2021-04-22T09:59:14Z</time>
      </trkpt>
      <trkpt lat="44.8806" lon="5.64863">
        <ele>743.5</ele>
        <time>2021-04-22T09:59:15Z</time>
      </trkpt>
      <trkpt lat="44.88052" lon="5.64868">
        <ele>743.5</ele>
        <time>2021-04-22T09:59:16Z</time>
      </trkpt>
      <trkpt lat="44.88044" lon="5.64873">
        <ele>743.5</ele>
        <time>2021-04-22T09:59:17Z</time>
      </trkpt>
      <trkpt lat="44.88036" lon="5.64879">
        <ele>743.5</ele>
        <time>2021-04-22T09:59:18Z</time>
      </trkpt>
      <trkpt lat="44.88028" lon="5.64885">
        <ele>743.5</ele>
        <time>2021-04-22T09:59:19Z</time>
      </trkpt>
      <trkpt lat="44.8802" lon="5.6489">
        <ele>743.3</ele>
        <time>2021-04-22T09:59:20Z</time>
      </trkpt>
      <trkpt lat="44.88011" lon="5.64893">
        <ele>743.1</ele>
        <time>2021-04-22T09:59:21Z</time>
      </trkpt>
      <trkpt lat="44.88002" lon="5.64895">
        <ele>742.9</ele>
        <time>2021-04-22T09:59:22Z</time>
      </trkpt>
      <trkpt lat="44.87994" lon="5.64896">
        <ele>742.7</ele>
        <time>2021-04-22T09:59:23Z</time>
      </trkpt>
      <trkpt lat="44.87985" lon="5.64896">
        <ele>742.5</ele>
        <time>2021-04-22T09:59:24Z</time>
      </trkpt>
      <trkpt lat="44.87977" lon="5.64894">
        <ele>742.2</ele>
        <time>2021-04-22T09:59:25Z</time>
      </trkpt>
      <trkpt lat="44.87969" lon="5.64892">
        <ele>742</ele>
        <time>2021-04-22T09:59:26Z</time>
      </trkpt>
      <trkpt lat="44.87961" lon="5.64889">
        <ele>741.8</ele>
        <time>2021-04-22T09:59:27Z</time>
      </trkpt>
      <trkpt lat="44.87953" lon="5.64886">
        <ele>741.6</ele>
        <time>2021-04-22T09:59:28Z</time>
      </trkpt>
      <trkpt lat="44.87945" lon="5.64882">
        <ele>741.4</ele>
        <time>2021-04-22T09:59:29Z</time>
      </trkpt>
      <trkpt lat="44.87938" lon="5.64879">
        <ele>741.3</ele>
        <time>2021-04-22T09:59:30Z</time>
      </trkpt>
      <trkpt lat="44.8793" lon="5.64876">
        <ele>741.1</ele>
        <time>2021-04-22T09:59:31Z</time>
      </trkpt>
      <trkpt lat="44.87922" lon="5.64873">
        <ele>741</ele>
        <time>2021-04-22T09:59:32Z</time>
      </trkpt>
      <trkpt lat="44.87914" lon="5.64871">
        <ele>740.9</ele>
        <time>2021-04-22T09:59:33Z</time>
      </trkpt>
      <trkpt lat="44.87906" lon="5.6487">
        <ele>740.7</ele>
        <time>2021-04-22T09:59:34Z</time>
      </trkpt>
      <trkpt lat="44.87898" lon="5.6487">
        <ele>740.6</ele>
        <time>2021-04-22T09:59:35Z</time>
      </trkpt>
      <trkpt lat="44.8789" lon="5.64871">
        <ele>740.4</ele>
        <time>2021-04-22T09:59:36Z</time>
      </trkpt>
      <trkpt lat="44.87882" lon="5.64875">
        <ele>740.2</ele>
        <time>2021-04-22T09:59:37Z</time>
      </trkpt>
      <trkpt lat="44.87875" lon="5.64882">
        <ele>740</ele>
        <time>2021-04-22T09:59:38Z</time>
      </trkpt>
      <trkpt lat="44.87868" lon="5.64889">
        <ele>739.8</ele>
        <time>2021-04-22T09:59:39Z</time>
      </trkpt>
      <trkpt lat="44.87862" lon="5.64898">
        <ele>739.6</ele>
        <time>2021-04-22T09:59:40Z</time>
      </trkpt>
      <trkpt lat="44.87856" lon="5.64908">
        <ele>739.3</ele>
        <time>2021-04-22T09:59:41Z</time>
      </trkpt>
      <trkpt lat="44.87851" lon="5.64919">
        <ele>739.1</ele>
        <time>2021-04-22T09:59:42Z</time>
      </trkpt>
      <trkpt lat="44.87847" lon="5.64931">
        <ele>738.8</ele>
        <time>2021-04-22T09:59:43Z</time>
      </trkpt>
      <trkpt lat="44.87843" lon="5.64942">
        <ele>738.6</ele>
        <time>2021-04-22T09:59:44Z</time>
      </trkpt>
      <trkpt lat="44.87839" lon="5.64953">
        <ele>738.3</ele>
        <time>2021-04-22T09:59:45Z</time>
      </trkpt>
      <trkpt lat="44.87834" lon="5.64964">
        <ele>738.1</ele>
        <time>2021-04-22T09:59:46Z</time>
      </trkpt>
      <trkpt lat="44.87829" lon="5.64975">
        <ele>737.9</ele>
        <time>2021-04-22T09:59:47Z</time>
      </trkpt>
      <trkpt lat="44.87825" lon="5.64986">
        <ele>737.8</ele>
        <time>2021-04-22T09:59:48Z</time>
      </trkpt>
      <trkpt lat="44.8782" lon="5.64997">
        <ele>737.6</ele>
        <time>2021-04-22T09:59:49Z</time>
      </trkpt>
      <trkpt lat="44.87816" lon="5.65008">
        <ele>737.4</ele>
        <time>2021-04-22T09:59:50Z</time>
      </trkpt>
      <trkpt lat="44.87811" lon="5.65019">
        <ele>737.2</ele>
        <time>2021-04-22T09:59:51Z</time>
      </trkpt>
      <trkpt lat="44.87806" lon="5.65028">
        <ele>737</ele>
        <time>2021-04-22T09:59:52Z</time>
      </trkpt>
      <trkpt lat="44.878" lon="5.65036">
        <ele>736.8</ele>
        <time>2021-04-22T09:59:53Z</time>
      </trkpt>
      <trkpt lat="44.87793" lon="5.65042">
        <ele>736.6</ele>
        <time>2021-04-22T09:59:54Z</time>
      </trkpt>
      <trkpt lat="44.87785" lon="5.65047">
        <ele>736.4</ele>
        <time>2021-04-22T09:59:55Z</time>
      </trkpt>
      <trkpt lat="44.87776" lon="5.65051">
        <ele>736.2</ele>
        <time>2021-04-22T09:59:56Z</time>
      </trkpt>
      <trkpt lat="44.87768" lon="5.65054">
        <ele>735.9</ele>
        <time>2021-04-22T09:59:57Z</time>
      </trkpt>
      <trkpt lat="44.87759" lon="5.65055">
        <ele>735.7</ele>
        <time>2021-04-22T09:59:58Z</time>
      </trkpt>
      <trkpt lat="44.87751" lon="5.65055">
        <ele>735.5</ele>
        <time>2021-04-22T09:59:59Z</time>
      </trkpt>
      <trkpt lat="44.87742" lon="5.65056">
        <ele>735.3</ele>
        <time>2021-04-22T10:00:00Z</time>
      </trkpt>
      <trkpt lat="44.87734" lon="5.65058">
        <ele>735.1</ele>
        <time>2021-04-22T10:00:01Z</time>
      </trkpt>
      <trkpt lat="44.87725" lon="5.65059">
        <ele>735</ele>
        <time>2021-04-22T10:00:02Z</time>
      </trkpt>
      <trkpt lat="44.87718" lon="5.65059">
        <ele>734.8</ele>
        <time>2021-04-22T10:00:03Z</time>
      </trkpt>
      <trkpt lat="44.8771" lon="5.65059">
        <ele>734.7</ele>
        <time>2021-04-22T10:00:04Z</time>
      </trkpt>
      <trkpt lat="44.87702" lon="5.6506">
        <ele>734.5</ele>
        <time>2021-04-22T10:00:05Z</time>
      </trkpt>
      <trkpt lat="44.87694" lon="5.65061">
        <ele>734.4</ele>
        <time>2021-04-22T10:00:06Z</time>
      </trkpt>
      <trkpt lat="44.87686" lon="5.65063">
        <ele>734.2</ele>
        <time>2021-04-22T10:00:07Z</time>
      </trkpt>
      <trkpt lat="44.87677" lon="5.65064">
        <ele>734.1</ele>
        <time>2021-04-22T10:00:08Z</time>
      </trkpt>
      <trkpt lat="44.87669" lon="5.65065">
        <ele>733.9</ele>
        <time>2021-04-22T10:00:09Z</time>
      </trkpt>
      <trkpt lat="44.87661" lon="5.65066">
        <ele>733.8</ele>
        <time>2021-04-22T10:00:10Z</time>
      </trkpt>
      <trkpt lat="44.87654" lon="5.65065">
        <ele>733.6</ele>
        <time>2021-04-22T10:00:11Z</time>
      </trkpt>
      <trkpt lat="44.87645" lon="5.65065">
        <ele>733.4</ele>
        <time>2021-04-22T10:00:12Z</time>
      </trkpt>
      <trkpt lat="44.87637" lon="5.65063">
        <ele>733.3</ele>
        <time>2021-04-22T10:00:13Z</time>
      </trkpt>
      <trkpt lat="44.87629" lon="5.6506">
        <ele>733.1</ele>
        <time>2021-04-22T10:00:14Z</time>
      </trkpt>
      <trkpt lat="44.87621" lon="5.65057">
        <ele>732.9</ele>
        <time>2021-04-22T10:00:15Z</time>
      </trkpt>
      <trkpt lat="44.87613" lon="5.65053">
        <ele>732.7</ele>
        <time>2021-04-22T10:00:16Z</time>
      </trkpt>
      <trkpt lat="44.87606" lon="5.65048">
        <ele>732.6</ele>
        <time>2021-04-22T10:00:17Z</time>
      </trkpt>
      <trkpt lat="44.87599" lon="5.65044">
        <ele>732.4</ele>
        <time>2021-04-22T10:00:18Z</time>
      </trkpt>
      <trkpt lat="44.87591" lon="5.6504">
        <ele>732.2</ele>
        <time>2021-04-22T10:00:19Z</time>
      </trkpt>
      <trkpt lat="44.87584" lon="5.65036">
        <ele>732</ele>
        <time>2021-04-22T10:00:20Z</time>
      </trkpt>
      <trkpt lat="44.87577" lon="5.65031">
        <ele>731.8</ele>
        <time>2021-04-22T10:00:21Z</time>
      </trkpt>
      <trkpt lat="44.8757" lon="5.65026">
        <ele>731.7</ele>
        <time>2021-04-22T10:00:22Z</time>
      </trkpt>
      <trkpt lat="44.87563" lon="5.65023">
        <ele>731.5</ele>
        <time>2021-04-22T10:00:23Z</time>
      </trkpt>
      <trkpt lat="44.87556" lon="5.65018">
        <ele>731.3</ele>
        <time>2021-04-22T10:00:24Z</time>
      </trkpt>
      <trkpt lat="44.8755" lon="5.65013">
        <ele>731.2</ele>
        <time>2021-04-22T10:00:25Z</time>
      </trkpt>
      <trkpt lat="44.87543" lon="5.65009">
        <ele>731</ele>
        <time>2021-04-22T10:00:26Z</time>
      </trkpt>
      <trkpt lat="44.87536" lon="5.65004">
        <ele>730.9</ele>
        <time>2021-04-22T10:00:27Z</time>
      </trkpt>
      <trkpt lat="44.87529" lon="5.64999">
        <ele>730.7</ele>
        <time>2021-04-22T10:00:28Z</time>
      </trkpt>
      <trkpt lat="44.87522" lon="5.64995">
        <ele>730.5</ele>
        <time>2021-04-22T10:00:29Z</time>
      </trkpt>
      <trkpt lat="44.87515" lon="5.64991">
        <ele>730.4</ele>
        <time>2021-04-22T10:00:30Z</time>
      </trkpt>
      <trkpt lat="44.87507" lon="5.64988">
        <ele>730.2</ele>
        <time>2021-04-22T10:00:31Z</time>
      </trkpt>
      <trkpt lat="44.87499" lon="5.64984">
        <ele>730.1</ele>
        <time>2021-04-22T10:00:32Z</time>
      </trkpt>
      <trkpt lat="44.87492" lon="5.64981">
        <ele>729.9</ele>
        <time>2021-04-22T10:00:33Z</time>
      </trkpt>
      <trkpt lat="44.87484" lon="5.64978">
        <ele>729.8</ele>
        <time>2021-04-22T10:00:34Z</time>
      </trkpt>
      <trkpt lat="44.87477" lon="5.64974">
        <ele>729.6</ele>
        <time>2021-04-22T10:00:35Z</time>
      </trkpt>
      <trkpt lat="44.8747" lon="5.64971">
        <ele>729.5</ele>
        <time>2021-04-22T10:00:36Z</time>
      </trkpt>
      <trkpt lat="44.87462" lon="5.64967">
        <ele>729.4</ele>
        <time>2021-04-22T10:00:37Z</time>
      </trkpt>
      <trkpt lat="44.87455" lon="5.64963">
        <ele>729.2</ele>
        <time>2021-04-22T10:00:38Z</time>
      </trkpt>
      <trkpt lat="44.87448" lon="5.64962">
        <ele>729.1</ele>
        <time>2021-04-22T10:00:39Z</time>
      </trkpt>
      <trkpt lat="44.87441" lon="5.64962">
        <ele>729</ele>
        <time>2021-04-22T10:00:40Z</time>
      </trkpt>
      <trkpt lat="44.87434" lon="5.64962">
        <ele>728.9</ele>
        <time>2021-04-22T10:00:41Z</time>
      </trkpt>
      <trkpt lat="44.87427" lon="5.64963">
        <ele>728.7</ele>
        <time>2021-04-22T10:00:42Z</time>
      </trkpt>
      <trkpt lat="44.8742" lon="5.64965">
        <ele>728.5</ele>
        <time>2021-04-22T10:00:43Z</time>
      </trkpt>
      <trkpt lat="44.87414" lon="5.64968">
        <ele>728.4</ele>
        <time>2021-04-22T10:00:44Z</time>
      </trkpt>
      <trkpt lat="44.87408" lon="5.64972">
        <ele>728.2</ele>
        <time>2021-04-22T10:00:45Z</time>
      </trkpt>
      <trkpt lat="44.87401" lon="5.64978">
        <ele>728</ele>
        <time>2021-04-22T10:00:46Z</time>
      </trkpt>
      <trkpt lat="44.87396" lon="5.64986">
        <ele>727.8</ele>
        <time>2021-04-22T10:00:47Z</time>
      </trkpt>
      <trkpt lat="44.87391" lon="5.64995">
        <ele>727.6</ele>
        <time>2021-04-22T10:00:48Z</time>
      </trkpt>
      <trkpt lat="44.87386" lon="5.65004">
        <ele>727.4</ele>
        <time>2021-04-22T10:00:49Z</time>
      </trkpt>
      <trkpt lat="44.87382" lon="5.65012">
        <ele>727.2</ele>
        <time>2021-04-22T10:00:50Z</time>
      </trkpt>
      <trkpt lat="44.87379" lon="5.65019">
        <ele>727.1</ele>
        <time>2021-04-22T10:00:51Z</time>
      </trkpt>
      <trkpt lat="44.87377" lon="5.65023">
        <ele>727</ele>
        <time>2021-04-22T10:00:52Z</time>
      </trkpt>
      <trkpt lat="44.87376" lon="5.65023">
        <ele>727</ele>
        <time>2021-04-22T10:00:53Z</time>
      </trkpt>
      <trkpt lat="44.87374" lon="5.65024">
        <ele>726.9</ele>
        <time>2021-04-22T10:00:54Z</time>
      </trkpt>
      <trkpt lat="44.87374" lon="5.65023">
        <ele>726.9</ele>
        <time>2021-04-22T10:00:55Z</time>
      </trkpt>
      <trkpt lat="44.87374" lon="5.65024">
        <ele>726.9</ele>
        <time>2021-04-22T10:00:56Z</time>
      </trkpt>
      <trkpt lat="44.87374" lon="5.65024">
        <ele>726.9</ele>
        <time>2021-04-22T10:00:57Z</time>
      </trkpt>
      <trkpt lat="44.87376" lon="5.65023">
        <ele>726.9</ele>
        <time>2021-04-22T10:00:58Z</time>
      </trkpt>
      <trkpt lat="44.87377" lon="5.65023">
        <ele>726.9</ele>
        <time>2021-04-22T10:00:59Z</time>
      </trkpt>
      <trkpt lat="44.87377" lon="5.65023">
        <ele>726.8</ele>
        <time>2021-04-22T10:01:00Z</time>
      </trkpt>
      <trkpt lat="44.87378" lon="5.65024">
        <ele>726.8</ele>
        <time>2021-04-22T10:01:01Z</time>
      </trkpt>
      <trkpt lat="44.87378" lon="5.65024">
        <ele>726.8</ele>
        <time>2021-04-22T10:01:02Z</time>
      </trkpt>
      <trkpt lat="44.87377" lon="5.65024">
        <ele>726.8</ele>
        <time>2021-04-22T10:01:03Z</time>
      </trkpt>
      <trkpt lat="44.87377" lon="5.65024">
        <ele>726.8</ele>
        <time>2021-04-22T10:01:04Z</time>
      </trkpt>
      <trkpt lat="44.87377" lon="5.65024">
        <ele>726.8</ele>
        <time>2021-04-22T10:01:05Z</time>
      </trkpt>
      <trkpt lat="44.87377" lon="5.65025">
        <ele>726.8</ele>
        <time>2021-04-22T10:01:06Z</time>
      </trkpt>
      <trkpt lat="44.87377" lon="5.65025">
        <ele>726.8</ele>
        <time>2021-04-22T10:01:07Z</time>
      </trkpt>
      <trkpt lat="44.87377" lon="5.65025">
        <ele>726.8</ele>
        <time>2021-04-22T10:01:08Z</time>
      </trkpt>
      <trkpt lat="44.87377" lon="5.65026">
        <ele>726.8</ele>
        <time>2021-04-22T10:01:09Z</time>
      </trkpt>
      <trkpt lat="44.87377" lon="5.65025">
        <ele>726.8</ele>
        <time>2021-04-22T10:01:10Z</time>
      </trkpt>
      <trkpt lat="44.87377" lon="5.65025">
        <ele>726.8</ele>
        <time>2021-04-22T10:01:11Z</time>
      </trkpt>
      <trkpt lat="44.87378" lon="5.65026">
        <ele>726.8</ele>
        <time>2021-04-22T10:01:13Z</time>
      </trkpt>
      <trkpt lat="44.87378" lon="5.65026">
        <ele>726.7</ele>
        <time>2021-04-22T10:01:14Z</time>
      </trkpt>
      <trkpt lat="44.87378" lon="5.65027">
        <ele>726.7</ele>
        <time>2021-04-22T10:01:15Z</time>
      </trkpt>
      <trkpt lat="44.87377" lon="5.65027">
        <ele>726.7</ele>
        <time>2021-04-22T10:01:16Z</time>
      </trkpt>
      <trkpt lat="44.87377" lon="5.65028">
        <ele>726.7</ele>
        <time>2021-04-22T10:01:17Z</time>
      </trkpt>
      <trkpt lat="44.87377" lon="5.65029">
        <ele>726.7</ele>
        <time>2021-04-22T10:01:18Z</time>
      </trkpt>
      <trkpt lat="44.87377" lon="5.65029">
        <ele>726.7</ele>
        <time>2021-04-22T10:01:19Z</time>
      </trkpt>
      <trkpt lat="44.87377" lon="5.65028">
        <ele>726.7</ele>
        <time>2021-04-22T10:01:20Z</time>
      </trkpt>
      <trkpt lat="44.87377" lon="5.65028">
        <ele>726.7</ele>
        <time>2021-04-22T10:01:21Z</time>
      </trkpt>
      <trkpt lat="44.87377" lon="5.65028">
        <ele>726.7</ele>
        <time>2021-04-22T10:01:22Z</time>
      </trkpt>
      <trkpt lat="44.87377" lon="5.65028">
        <ele>726.7</ele>
        <time>2021-04-22T10:01:23Z</time>
      </trkpt>
      <trkpt lat="44.87377" lon="5.65028">
        <ele>726.7</ele>
        <time>2021-04-22T10:01:24Z</time>
      </trkpt>
      <trkpt lat="44.87377" lon="5.65028">
        <ele>726.7</ele>
        <time>2021-04-22T10:01:25Z</time>
      </trkpt>
      <trkpt lat="44.87377" lon="5.65028">
        <ele>726.7</ele>
        <time>2021-04-22T10:01:26Z</time>
      </trkpt>
      <trkpt lat="44.87377" lon="5.65028">
        <ele>726.7</ele>
        <time>2021-04-22T10:01:27Z</time>
      </trkpt>
      <trkpt lat="44.87377" lon="5.65028">
        <ele>726.7</ele>
        <time>2021-04-22T10:01:28Z</time>
      </trkpt>
      <trkpt lat="44.87377" lon="5.65033">
        <ele>726.6</ele>
        <time>2021-04-22T10:03:22Z</time>
      </trkpt>
      <trkpt lat="44.87376" lon="5.65038">
        <ele>726.5</ele>
        <time>2021-04-22T10:03:23Z</time>
      </trkpt>
      <trkpt lat="44.87374" lon="5.65042">
        <ele>726.4</ele>
        <time>2021-04-22T10:03:24Z</time>
      </trkpt>
      <trkpt lat="44.87373" lon="5.65045">
        <ele>726.3</ele>
        <time>2021-04-22T10:03:25Z</time>
      </trkpt>
      <trkpt lat="44.87371" lon="5.6505">
        <ele>726.2</ele>
        <time>2021-04-22T10:03:26Z</time>
      </trkpt>
      <trkpt lat="44.87368" lon="5.65054">
        <ele>726.1</ele>
        <time>2021-04-22T10:03:27Z</time>
      </trkpt>
      <trkpt lat="44.87366" lon="5.65059">
        <ele>726</ele>
        <time>2021-04-22T10:03:28Z</time>
      </trkpt>
      <trkpt lat="44.87364" lon="5.65065">
        <ele>725.9</ele>
        <time>2021-04-22T10:03:29Z</time>
      </trkpt>
      <trkpt lat="44.8736" lon="5.6507">
        <ele>725.7</ele>
        <time>2021-04-22T10:03:30Z</time>
      </trkpt>
      <trkpt lat="44.87357" lon="5.65076">
        <ele>725.6</ele>
        <time>2021-04-22T10:03:31Z</time>
      </trkpt>
      <trkpt lat="44.87352" lon="5.65081">
        <ele>725.4</ele>
        <time>2021-04-22T10:03:32Z</time>
      </trkpt>
      <trkpt lat="44.87348" lon="5.65087">
        <ele>725.2</ele>
        <time>2021-04-22T10:03:33Z</time>
      </trkpt>
      <trkpt lat="44.87343" lon="5.65093">
        <ele>725</ele>
        <time>2021-04-22T10:03:34Z</time>
      </trkpt>
      <trkpt lat="44.87332" lon="5.65093">
        <ele>724.7</ele>
        <time>2021-04-22T10:03:35Z</time>
      </trkpt>
      <trkpt lat="44.87324" lon="5.65096">
        <ele>724.4</ele>
        <time>2021-04-22T10:03:36Z</time>
      </trkpt>
      <trkpt lat="44.87318" lon="5.651">
        <ele>724.2</ele>
        <time>2021-04-22T10:03:37Z</time>
      </trkpt>
      <trkpt lat="44.87312" lon="5.65106">
        <ele>724</ele>
        <time>2021-04-22T10:03:38Z</time>
      </trkpt>
      <trkpt lat="44.87306" lon="5.65112">
        <ele>723.8</ele>
        <time>2021-04-22T10:03:39Z</time>
      </trkpt>
      <trkpt lat="44.873" lon="5.65118">
        <ele>723.6</ele>
        <time>2021-04-22T10:03:40Z</time>
      </trkpt>
      <trkpt lat="44.87294" lon="5.65124">
        <ele>723.4</ele>
        <time>2021-04-22T10:03:41Z</time>
      </trkpt>
      <trkpt lat="44.87288" lon="5.65131">
        <ele>723.3</ele>
        <time>2021-04-22T10:03:42Z</time>
      </trkpt>
      <trkpt lat="44.87283" lon="5.6514">
        <ele>723.1</ele>
        <time>2021-04-22T10:03:43Z</time>
      </trkpt>
      <trkpt lat="44.87279" lon="5.65149">
        <ele>722.9</ele>
        <time>2021-04-22T10:03:44Z</time>
      </trkpt>
      <trkpt lat="44.87275" lon="5.65159">
        <ele>722.7</ele>
        <time>2021-04-22T10:03:45Z</time>
      </trkpt>
      <trkpt lat="44.87271" lon="5.6517">
        <ele>722.5</ele>
        <time>2021-04-22T10:03:46Z</time>
      </trkpt>
      <trkpt lat="44.87268" lon="5.65182">
        <ele>722.2</ele>
        <time>2021-04-22T10:03:47Z</time>
      </trkpt>
      <trkpt lat="44.87265" lon="5.65194">
        <ele>722</ele>
        <time>2021-04-22T10:03:48Z</time>
      </trkpt>
      <trkpt lat="44.87262" lon="5.65206">
        <ele>721.7</ele>
        <time>2021-04-22T10:03:49Z</time>
      </trkpt>
      <trkpt lat="44.8726" lon="5.65217">
        <ele>721.7</ele>
        <time>2021-04-22T10:03:50Z</time>
      </trkpt>
      <trkpt lat="44.87257" lon="5.65228">
        <ele>721.6</ele>
        <time>2021-04-22T10:03:51Z</time>
      </trkpt>
      <trkpt lat="44.87255" lon="5.6524">
        <ele>721.4</ele>
        <time>2021-04-22T10:03:52Z</time>
      </trkpt>
      <trkpt lat="44.87252" lon="5.65251">
        <ele>721.1</ele>
        <time>2021-04-22T10:03:53Z</time>
      </trkpt>
      <trkpt lat="44.8725" lon="5.65263">
        <ele>720.7</ele>
        <time>2021-04-22T10:03:54Z</time>
      </trkpt>
      <trkpt lat="44.87248" lon="5.65275">
        <ele>720.4</ele>
        <time>2021-04-22T10:03:55Z</time>
      </trkpt>
      <trkpt lat="44.87248" lon="5.65286">
        <ele>720</ele>
        <time>2021-04-22T10:03:56Z</time>
      </trkpt>
      <trkpt lat="44.87249" lon="5.65297">
        <ele>719.6</ele>
        <time>2021-04-22T10:03:57Z</time>
      </trkpt>
      <trkpt lat="44.87252" lon="5.65308">
        <ele>719.2</ele>
        <time>2021-04-22T10:03:58Z</time>
      </trkpt>
      <trkpt lat="44.87256" lon="5.65318">
        <ele>718.8</ele>
        <time>2021-04-22T10:03:59Z</time>
      </trkpt>
      <trkpt lat="44.87262" lon="5.65328">
        <ele>718.3</ele>
        <time>2021-04-22T10:04:00Z</time>
      </trkpt>
      <trkpt lat="44.87268" lon="5.65339">
        <ele>717.7</ele>
        <time>2021-04-22T10:04:01Z</time>
      </trkpt>
      <trkpt lat="44.87274" lon="5.6535">
        <ele>717.2</ele>
        <time>2021-04-22T10:04:02Z</time>
      </trkpt>
      <trkpt lat="44.8728" lon="5.65361">
        <ele>716.7</ele>
        <time>2021-04-22T10:04:03Z</time>
      </trkpt>
      <trkpt lat="44.87286" lon="5.65373">
        <ele>716.1</ele>
        <time>2021-04-22T10:04:04Z</time>
      </trkpt>
      <trkpt lat="44.87292" lon="5.65384">
        <ele>715.6</ele>
        <time>2021-04-22T10:04:05Z</time>
      </trkpt>
      <trkpt lat="44.87299" lon="5.65395">
        <ele>715</ele>
        <time>2021-04-22T10:04:06Z</time>
      </trkpt>
      <trkpt lat="44.87306" lon="5.65407">
        <ele>714.4</ele>
        <time>2021-04-22T10:04:07Z</time>
      </trkpt>
      <trkpt lat="44.87312" lon="5.65419">
        <ele>713.9</ele>
        <time>2021-04-22T10:04:08Z</time>
      </trkpt>
      <trkpt lat="44.87319" lon="5.65431">
        <ele>713.3</ele>
        <time>2021-04-22T10:04:09Z</time>
      </trkpt>
      <trkpt lat="44.87325" lon="5.65442">
        <ele>712.7</ele>
        <time>2021-04-22T10:04:10Z</time>
      </trkpt>
      <trkpt lat="44.87332" lon="5.65454">
        <ele>712.2</ele>
        <time>2021-04-22T10:04:11Z</time>
      </trkpt>
      <trkpt lat="44.87338" lon="5.65466">
        <ele>711.7</ele>
        <time>2021-04-22T10:04:12Z</time>
      </trkpt>
      <trkpt lat="44.87345" lon="5.65478">
        <ele>711.1</ele>
        <time>2021-04-22T10:04:13Z</time>
      </trkpt>
      <trkpt lat="44.8735" lon="5.65489">
        <ele>710.7</ele>
        <time>2021-04-22T10:04:14Z</time>
      </trkpt>
      <trkpt lat="44.87356" lon="5.65499">
        <ele>710.3</ele>
        <time>2021-04-22T10:04:15Z</time>
      </trkpt>
      <trkpt lat="44.87364" lon="5.65506">
        <ele>709.9</ele>
        <time>2021-04-22T10:04:16Z</time>
      </trkpt>
      <trkpt lat="44.87374" lon="5.65513">
        <ele>709.6</ele>
        <time>2021-04-22T10:04:17Z</time>
      </trkpt>
      <trkpt lat="44.87382" lon="5.65522">
        <ele>709.6</ele>
        <time>2021-04-22T10:04:18Z</time>
      </trkpt>
      <trkpt lat="44.87387" lon="5.65534">
        <ele>709.5</ele>
        <time>2021-04-22T10:04:19Z</time>
      </trkpt>
      <trkpt lat="44.87387" lon="5.65541">
        <ele>709.5</ele>
        <time>2021-04-22T10:04:20Z</time>
      </trkpt>
      <trkpt lat="44.87377" lon="5.65541">
        <ele>709.4</ele>
        <time>2021-04-22T10:04:21Z</time>
      </trkpt>
      <trkpt lat="44.87365" lon="5.65541">
        <ele>708</ele>
        <time>2021-04-22T10:04:22Z</time>
      </trkpt>
      <trkpt lat="44.87353" lon="5.65538">
        <ele>706.4</ele>
        <time>2021-04-22T10:04:23Z</time>
      </trkpt>
      <trkpt lat="44.8734" lon="5.65534">
        <ele>704.9</ele>
        <time>2021-04-22T10:04:24Z</time>
      </trkpt>
      <trkpt lat="44.87327" lon="5.65532">
        <ele>703.4</ele>
        <time>2021-04-22T10:04:25Z</time>
      </trkpt>
      <trkpt lat="44.87315" lon="5.65529">
        <ele>702.2</ele>
        <time>2021-04-22T10:04:26Z</time>
      </trkpt>
      <trkpt lat="44.87303" lon="5.65527">
        <ele>701</ele>
        <time>2021-04-22T10:04:27Z</time>
      </trkpt>
      <trkpt lat="44.87291" lon="5.65526">
        <ele>700</ele>
        <time>2021-04-22T10:04:28Z</time>
      </trkpt>
      <trkpt lat="44.87279" lon="5.65525">
        <ele>699</ele>
        <time>2021-04-22T10:04:29Z</time>
      </trkpt>
      <trkpt lat="44.87267" lon="5.65526">
        <ele>698</ele>
        <time>2021-04-22T10:04:30Z</time>
      </trkpt>
      <trkpt lat="44.87254" lon="5.65528">
        <ele>697</ele>
        <time>2021-04-22T10:04:31Z</time>
      </trkpt>
      <trkpt lat="44.87243" lon="5.65531">
        <ele>696</ele>
        <time>2021-04-22T10:04:32Z</time>
      </trkpt>
      <trkpt lat="44.87231" lon="5.65537">
        <ele>694.9</ele>
        <time>2021-04-22T10:04:33Z</time>
      </trkpt>
      <trkpt lat="44.8722" lon="5.65543">
        <ele>693.8</ele>
        <time>2021-04-22T10:04:34Z</time>
      </trkpt>
      <trkpt lat="44.87211" lon="5.6555">
        <ele>692.9</ele>
        <time>2021-04-22T10:04:35Z</time>
      </trkpt>
      <trkpt lat="44.87202" lon="5.6556">
        <ele>691.9</ele>
        <time>2021-04-22T10:04:36Z</time>
      </trkpt>
      <trkpt lat="44.87191" lon="5.65569">
        <ele>690.9</ele>
        <time>2021-04-22T10:04:37Z</time>
      </trkpt>
      <trkpt lat="44.87178" lon="5.65573">
        <ele>690.1</ele>
        <time>2021-04-22T10:04:38Z</time>
      </trkpt>
      <trkpt lat="44.87166" lon="5.65574">
        <ele>689.3</ele>
        <time>2021-04-22T10:04:39Z</time>
      </trkpt>
      <trkpt lat="44.87153" lon="5.65574">
        <ele>688.5</ele>
        <time>2021-04-22T10:04:40Z</time>
      </trkpt>
      <trkpt lat="44.87141" lon="5.65578">
        <ele>687.4</ele>
        <time>2021-04-22T10:04:41Z</time>
      </trkpt>
      <trkpt lat="44.8713" lon="5.65585">
        <ele>686.2</ele>
        <time>2021-04-22T10:04:42Z</time>
      </trkpt>
      <trkpt lat="44.8712" lon="5.65595">
        <ele>684.9</ele>
        <time>2021-04-22T10:04:43Z</time>
      </trkpt>
      <trkpt lat="44.87113" lon="5.65609">
        <ele>683.7</ele>
        <time>2021-04-22T10:04:44Z</time>
      </trkpt>
      <trkpt lat="44.87107" lon="5.65625">
        <ele>682.4</ele>
        <time>2021-04-22T10:04:45Z</time>
      </trkpt>
      <trkpt lat="44.87101" lon="5.65642">
        <ele>681.2</ele>
        <time>2021-04-22T10:04:46Z</time>
      </trkpt>
      <trkpt lat="44.87096" lon="5.65658">
        <ele>680.2</ele>
        <time>2021-04-22T10:04:47Z</time>
      </trkpt>
      <trkpt lat="44.87089" lon="5.65674">
        <ele>679.2</ele>
        <time>2021-04-22T10:04:48Z</time>
      </trkpt>
      <trkpt lat="44.8708" lon="5.65688">
        <ele>678.4</ele>
        <time>2021-04-22T10:04:49Z</time>
      </trkpt>
      <trkpt lat="44.8707" lon="5.657">
        <ele>677.7</ele>
        <time>2021-04-22T10:04:50Z</time>
      </trkpt>
      <trkpt lat="44.87059" lon="5.65708">
        <ele>677</ele>
        <time>2021-04-22T10:04:51Z</time>
      </trkpt>
      <trkpt lat="44.87048" lon="5.65717">
        <ele>676.3</ele>
        <time>2021-04-22T10:04:52Z</time>
      </trkpt>
      <trkpt lat="44.8704" lon="5.6573">
        <ele>675.7</ele>
        <time>2021-04-22T10:04:53Z</time>
      </trkpt>
      <trkpt lat="44.87036" lon="5.65746">
        <ele>674.8</ele>
        <time>2021-04-22T10:04:54Z</time>
      </trkpt>
      <trkpt lat="44.87031" lon="5.65763">
        <ele>673.9</ele>
        <time>2021-04-22T10:04:55Z</time>
      </trkpt>
      <trkpt lat="44.87029" lon="5.65781">
        <ele>672.9</ele>
        <time>2021-04-22T10:04:56Z</time>
      </trkpt>
      <trkpt lat="44.87028" lon="5.658">
        <ele>671.5</ele>
        <time>2021-04-22T10:04:57Z</time>
      </trkpt>
      <trkpt lat="44.87024" lon="5.65815">
        <ele>670.3</ele>
        <time>2021-04-22T10:04:58Z</time>
      </trkpt>
      <trkpt lat="44.87018" lon="5.65827">
        <ele>669.2</ele>
        <time>2021-04-22T10:04:59Z</time>
      </trkpt>
      <trkpt lat="44.87007" lon="5.65829">
        <ele>668.1</ele>
        <time>2021-04-22T10:05:00Z</time>
      </trkpt>
      <trkpt lat="44.86995" lon="5.65831">
        <ele>666.8</ele>
        <time>2021-04-22T10:05:01Z</time>
      </trkpt>
      <trkpt lat="44.86984" lon="5.65836">
        <ele>665.6</ele>
        <time>2021-04-22T10:05:02Z</time>
      </trkpt>
      <trkpt lat="44.86974" lon="5.65843">
        <ele>664.5</ele>
        <time>2021-04-22T10:05:03Z</time>
      </trkpt>
      <trkpt lat="44.86964" lon="5.65853">
        <ele>663.3</ele>
        <time>2021-04-22T10:05:04Z</time>
      </trkpt>
      <trkpt lat="44.86954" lon="5.65862">
        <ele>662.2</ele>
        <time>2021-04-22T10:05:05Z</time>
      </trkpt>
      <trkpt lat="44.86943" lon="5.65871">
        <ele>661.1</ele>
        <time>2021-04-22T10:05:06Z</time>
      </trkpt>
      <trkpt lat="44.86932" lon="5.6588">
        <ele>659.9</ele>
        <time>2021-04-22T10:05:07Z</time>
      </trkpt>
      <trkpt lat="44.86921" lon="5.65889">
        <ele>658.9</ele>
        <time>2021-04-22T10:05:08Z</time>
      </trkpt>
      <trkpt lat="44.8691" lon="5.659">
        <ele>657.8</ele>
        <time>2021-04-22T10:05:09Z</time>
      </trkpt>
      <trkpt lat="44.869" lon="5.65911">
        <ele>656.8</ele>
        <time>2021-04-22T10:05:10Z</time>
      </trkpt>
      <trkpt lat="44.86891" lon="5.65923">
        <ele>655.9</ele>
        <time>2021-04-22T10:05:11Z</time>
      </trkpt>
      <trkpt lat="44.86883" lon="5.65937">
        <ele>655.2</ele>
        <time>2021-04-22T10:05:12Z</time>
      </trkpt>
      <trkpt lat="44.86875" lon="5.65951">
        <ele>654.8</ele>
        <time>2021-04-22T10:05:13Z</time>
      </trkpt>
      <trkpt lat="44.86868" lon="5.65965">
        <ele>654.5</ele>
        <time>2021-04-22T10:05:14Z</time>
      </trkpt>
      <trkpt lat="44.86862" lon="5.65979">
        <ele>654.3</ele>
        <time>2021-04-22T10:05:15Z</time>
      </trkpt>
      <trkpt lat="44.86856" lon="5.65993">
        <ele>654.1</ele>
        <time>2021-04-22T10:05:16Z</time>
      </trkpt>
      <trkpt lat="44.86851" lon="5.66008">
        <ele>653.9</ele>
        <time>2021-04-22T10:05:17Z</time>
      </trkpt>
      <trkpt lat="44.8685" lon="5.66023">
        <ele>653.5</ele>
        <time>2021-04-22T10:05:18Z</time>
      </trkpt>
      <trkpt lat="44.86849" lon="5.66039">
        <ele>652.3</ele>
        <time>2021-04-22T10:05:19Z</time>
      </trkpt>
      <trkpt lat="44.86852" lon="5.66054">
        <ele>651.1</ele>
        <time>2021-04-22T10:05:20Z</time>
      </trkpt>
      <trkpt lat="44.86858" lon="5.66063">
        <ele>650.1</ele>
        <time>2021-04-22T10:05:21Z</time>
      </trkpt>
      <trkpt lat="44.86867" lon="5.66068">
        <ele>649.2</ele>
        <time>2021-04-22T10:05:22Z</time>
      </trkpt>
      <trkpt lat="44.86877" lon="5.66073">
        <ele>648.2</ele>
        <time>2021-04-22T10:05:23Z</time>
      </trkpt>
      <trkpt lat="44.8689" lon="5.66076">
        <ele>647.1</ele>
        <time>2021-04-22T10:05:24Z</time>
      </trkpt>
      <trkpt lat="44.86904" lon="5.66078">
        <ele>645.9</ele>
        <time>2021-04-22T10:05:25Z</time>
      </trkpt>
      <trkpt lat="44.86917" lon="5.66082">
        <ele>644.8</ele>
        <time>2021-04-22T10:05:26Z</time>
      </trkpt>
      <trkpt lat="44.86928" lon="5.66088">
        <ele>643.8</ele>
        <time>2021-04-22T10:05:27Z</time>
      </trkpt>
      <trkpt lat="44.8694" lon="5.66095">
        <ele>642.9</ele>
        <time>2021-04-22T10:05:28Z</time>
      </trkpt>
      <trkpt lat="44.86951" lon="5.66103">
        <ele>642</ele>
        <time>2021-04-22T10:05:29Z</time>
      </trkpt>
      <trkpt lat="44.86964" lon="5.66111">
        <ele>641.5</ele>
        <time>2021-04-22T10:05:30Z</time>
      </trkpt>
      <trkpt lat="44.86975" lon="5.66121">
        <ele>641.2</ele>
        <time>2021-04-22T10:05:31Z</time>
      </trkpt>
      <trkpt lat="44.86986" lon="5.66131">
        <ele>641.1</ele>
        <time>2021-04-22T10:05:32Z</time>
      </trkpt>
      <trkpt lat="44.86996" lon="5.66141">
        <ele>641</ele>
        <time>2021-04-22T10:05:33Z</time>
      </trkpt>
      <trkpt lat="44.87004" lon="5.66153">
        <ele>640.5</ele>
        <time>2021-04-22T10:05:34Z</time>
      </trkpt>
      <trkpt lat="44.87012" lon="5.66165">
        <ele>639.5</ele>
        <time>2021-04-22T10:05:35Z</time>
      </trkpt>
      <trkpt lat="44.87018" lon="5.66176">
        <ele>638.4</ele>
        <time>2021-04-22T10:05:36Z</time>
      </trkpt>
      <trkpt lat="44.8702" lon="5.66183">
        <ele>637.8</ele>
        <time>2021-04-22T10:05:37Z</time>
      </trkpt>
      <trkpt lat="44.87016" lon="5.66186">
        <ele>637.4</ele>
        <time>2021-04-22T10:05:38Z</time>
      </trkpt>
      <trkpt lat="44.87007" lon="5.66188">
        <ele>636.6</ele>
        <time>2021-04-22T10:05:39Z</time>
      </trkpt>
      <trkpt lat="44.87" lon="5.66194">
        <ele>635.8</ele>
        <time>2021-04-22T10:05:40Z</time>
      </trkpt>
      <trkpt lat="44.86988" lon="5.66204">
        <ele>634.8</ele>
        <time>2021-04-22T10:05:41Z</time>
      </trkpt>
      <trkpt lat="44.86976" lon="5.66216">
        <ele>633.6</ele>
        <time>2021-04-22T10:05:42Z</time>
      </trkpt>
      <trkpt lat="44.86964" lon="5.6623">
        <ele>632.4</ele>
        <time>2021-04-22T10:05:43Z</time>
      </trkpt>
      <trkpt lat="44.86955" lon="5.66244">
        <ele>631.2</ele>
        <time>2021-04-22T10:05:44Z</time>
      </trkpt>
      <trkpt lat="44.86944" lon="5.66274">
        <ele>629.1</ele>
        <time>2021-04-22T10:05:46Z</time>
      </trkpt>
      <trkpt lat="44.8694" lon="5.66291">
        <ele>628.1</ele>
        <time>2021-04-22T10:05:47Z</time>
      </trkpt>
      <trkpt lat="44.86937" lon="5.66308">
        <ele>627.1</ele>
        <time>2021-04-22T10:05:48Z</time>
      </trkpt>
      <trkpt lat="44.86932" lon="5.66324">
        <ele>626.1</ele>
        <time>2021-04-22T10:05:49Z</time>
      </trkpt>
      <trkpt lat="44.86928" lon="5.66341">
        <ele>625.3</ele>
        <time>2021-04-22T10:05:50Z</time>
      </trkpt>
      <trkpt lat="44.86922" lon="5.66356">
        <ele>624.6</ele>
        <time>2021-04-22T10:05:51Z</time>
      </trkpt>
      <trkpt lat="44.86915" lon="5.6637">
        <ele>624</ele>
        <time>2021-04-22T10:05:52Z</time>
      </trkpt>
      <trkpt lat="44.86908" lon="5.66384">
        <ele>623.4</ele>
        <time>2021-04-22T10:05:53Z</time>
      </trkpt>
      <trkpt lat="44.86898" lon="5.66395">
        <ele>622.6</ele>
        <time>2021-04-22T10:05:54Z</time>
      </trkpt>
      <trkpt lat="44.86889" lon="5.66404">
        <ele>621.7</ele>
        <time>2021-04-22T10:05:55Z</time>
      </trkpt>
      <trkpt lat="44.86884" lon="5.66417">
        <ele>620.7</ele>
        <time>2021-04-22T10:05:56Z</time>
      </trkpt>
      <trkpt lat="44.86882" lon="5.66431">
        <ele>619.8</ele>
        <time>2021-04-22T10:05:57Z</time>
      </trkpt>
      <trkpt lat="44.86886" lon="5.66444">
        <ele>618.9</ele>
        <time>2021-04-22T10:05:58Z</time>
      </trkpt>
      <trkpt lat="44.8689" lon="5.66458">
        <ele>618</ele>
        <time>2021-04-22T10:05:59Z</time>
      </trkpt>
      <trkpt lat="44.86895" lon="5.66472">
        <ele>617.2</ele>
        <time>2021-04-22T10:06:00Z</time>
      </trkpt>
      <trkpt lat="44.86901" lon="5.66486">
        <ele>616.4</ele>
        <time>2021-04-22T10:06:01Z</time>
      </trkpt>
      <trkpt lat="44.86906" lon="5.66501">
        <ele>615.6</ele>
        <time>2021-04-22T10:06:02Z</time>
      </trkpt>
      <trkpt lat="44.86912" lon="5.66515">
        <ele>614.8</ele>
        <time>2021-04-22T10:06:03Z</time>
      </trkpt>
      <trkpt lat="44.86917" lon="5.66529">
        <ele>613.9</ele>
        <time>2021-04-22T10:06:04Z</time>
      </trkpt>
      <trkpt lat="44.86924" lon="5.66542">
        <ele>613.1</ele>
        <time>2021-04-22T10:06:05Z</time>
      </trkpt>
      <trkpt lat="44.8693" lon="5.66555">
        <ele>612.2</ele>
        <time>2021-04-22T10:06:06Z</time>
      </trkpt>
      <trkpt lat="44.86937" lon="5.66566">
        <ele>611.3</ele>
        <time>2021-04-22T10:06:07Z</time>
      </trkpt>
      <trkpt lat="44.86947" lon="5.66575">
        <ele>610.3</ele>
        <time>2021-04-22T10:06:08Z</time>
      </trkpt>
      <trkpt lat="44.86959" lon="5.66581">
        <ele>609.4</ele>
        <time>2021-04-22T10:06:09Z</time>
      </trkpt>
      <trkpt lat="44.8697" lon="5.66587">
        <ele>608.6</ele>
        <time>2021-04-22T10:06:10Z</time>
      </trkpt>
      <trkpt lat="44.86982" lon="5.66591">
        <ele>608</ele>
        <time>2021-04-22T10:06:11Z</time>
      </trkpt>
      <trkpt lat="44.86994" lon="5.66597">
        <ele>607.4</ele>
        <time>2021-04-22T10:06:12Z</time>
      </trkpt>
      <trkpt lat="44.87005" lon="5.66603">
        <ele>607</ele>
        <time>2021-04-22T10:06:13Z</time>
      </trkpt>
      <trkpt lat="44.87017" lon="5.66608">
        <ele>606.7</ele>
        <time>2021-04-22T10:06:14Z</time>
      </trkpt>
      <trkpt lat="44.87029" lon="5.66613">
        <ele>606.5</ele>
        <time>2021-04-22T10:06:15Z</time>
      </trkpt>
      <trkpt lat="44.87039" lon="5.6662">
        <ele>606.2</ele>
        <time>2021-04-22T10:06:16Z</time>
      </trkpt>
      <trkpt lat="44.87047" lon="5.6663">
        <ele>605.9</ele>
        <time>2021-04-22T10:06:17Z</time>
      </trkpt>
      <trkpt lat="44.8705" lon="5.66644">
        <ele>605.4</ele>
        <time>2021-04-22T10:06:18Z</time>
      </trkpt>
      <trkpt lat="44.87051" lon="5.66658">
        <ele>604.9</ele>
        <time>2021-04-22T10:06:19Z</time>
      </trkpt>
      <trkpt lat="44.87049" lon="5.66673">
        <ele>603.8</ele>
        <time>2021-04-22T10:06:20Z</time>
      </trkpt>
      <trkpt lat="44.87042" lon="5.66689">
        <ele>602.7</ele>
        <time>2021-04-22T10:06:21Z</time>
      </trkpt>
      <trkpt lat="44.87039" lon="5.66704">
        <ele>601.8</ele>
        <time>2021-04-22T10:06:22Z</time>
      </trkpt>
      <trkpt lat="44.87038" lon="5.6672">
        <ele>600.9</ele>
        <time>2021-04-22T10:06:23Z</time>
      </trkpt>
      <trkpt lat="44.87039" lon="5.66735">
        <ele>600</ele>
        <time>2021-04-22T10:06:24Z</time>
      </trkpt>
      <trkpt lat="44.87043" lon="5.66749">
        <ele>599.2</ele>
        <time>2021-04-22T10:06:25Z</time>
      </trkpt>
      <trkpt lat="44.8705" lon="5.6676">
        <ele>598.3</ele>
        <time>2021-04-22T10:06:26Z</time>
      </trkpt>
      <trkpt lat="44.87059" lon="5.66768">
        <ele>597.6</ele>
        <time>2021-04-22T10:06:27Z</time>
      </trkpt>
      <trkpt lat="44.87069" lon="5.66775">
        <ele>596.9</ele>
        <time>2021-04-22T10:06:28Z</time>
      </trkpt>
      <trkpt lat="44.87079" lon="5.6678">
        <ele>596.3</ele>
        <time>2021-04-22T10:06:29Z</time>
      </trkpt>
      <trkpt lat="44.87089" lon="5.66786">
        <ele>595.8</ele>
        <time>2021-04-22T10:06:30Z</time>
      </trkpt>
      <trkpt lat="44.87095" lon="5.66794">
        <ele>595.3</ele>
        <time>2021-04-22T10:06:31Z</time>
      </trkpt>
      <trkpt lat="44.87098" lon="5.66806">
        <ele>594.6</ele>
        <time>2021-04-22T10:06:32Z</time>
      </trkpt>
      <trkpt lat="44.87098" lon="5.66817">
        <ele>593.8</ele>
        <time>2021-04-22T10:06:33Z</time>
      </trkpt>
      <trkpt lat="44.87095" lon="5.66826">
        <ele>593.2</ele>
        <time>2021-04-22T10:06:34Z</time>
      </trkpt>
      <trkpt lat="44.87089" lon="5.66831">
        <ele>592.5</ele>
        <time>2021-04-22T10:06:35Z</time>
      </trkpt>
      <trkpt lat="44.87078" lon="5.66834">
        <ele>591.4</ele>
        <time>2021-04-22T10:06:36Z</time>
      </trkpt>
      <trkpt lat="44.87062" lon="5.66834">
        <ele>590.1</ele>
        <time>2021-04-22T10:06:37Z</time>
      </trkpt>
      <trkpt lat="44.87047" lon="5.66832">
        <ele>588.8</ele>
        <time>2021-04-22T10:06:38Z</time>
      </trkpt>
      <trkpt lat="44.87034" lon="5.6683">
        <ele>587.8</ele>
        <time>2021-04-22T10:06:39Z</time>
      </trkpt>
      <trkpt lat="44.87022" lon="5.66829">
        <ele>586.8</ele>
        <time>2021-04-22T10:06:40Z</time>
      </trkpt>
      <trkpt lat="44.87009" lon="5.66829">
        <ele>585.8</ele>
        <time>2021-04-22T10:06:41Z</time>
      </trkpt>
      <trkpt lat="44.86996" lon="5.66829">
        <ele>584.8</ele>
        <time>2021-04-22T10:06:42Z</time>
      </trkpt>
      <trkpt lat="44.86984" lon="5.66829">
        <ele>583.8</ele>
        <time>2021-04-22T10:06:43Z</time>
      </trkpt>
      <trkpt lat="44.86972" lon="5.6683">
        <ele>582.9</ele>
        <time>2021-04-22T10:06:44Z</time>
      </trkpt>
      <trkpt lat="44.8696" lon="5.66831">
        <ele>581.9</ele>
        <time>2021-04-22T10:06:45Z</time>
      </trkpt>
      <trkpt lat="44.86949" lon="5.66834">
        <ele>580.9</ele>
        <time>2021-04-22T10:06:46Z</time>
      </trkpt>
      <trkpt lat="44.86938" lon="5.6684">
        <ele>579.8</ele>
        <time>2021-04-22T10:06:47Z</time>
      </trkpt>
      <trkpt lat="44.86929" lon="5.6685">
        <ele>579.9</ele>
        <time>2021-04-22T10:06:48Z</time>
      </trkpt>
      <trkpt lat="44.86923" lon="5.66862">
        <ele>579.5</ele>
        <time>2021-04-22T10:06:49Z</time>
      </trkpt>
      <trkpt lat="44.8692" lon="5.66877">
        <ele>578.7</ele>
        <time>2021-04-22T10:06:50Z</time>
      </trkpt>
      <trkpt lat="44.8692" lon="5.66891">
        <ele>577.9</ele>
        <time>2021-04-22T10:06:51Z</time>
      </trkpt>
      <trkpt lat="44.86921" lon="5.66907">
        <ele>577.1</ele>
        <time>2021-04-22T10:06:52Z</time>
      </trkpt>
      <trkpt lat="44.86921" lon="5.66923">
        <ele>576.3</ele>
        <time>2021-04-22T10:06:53Z</time>
      </trkpt>
      <trkpt lat="44.86922" lon="5.66938">
        <ele>575.5</ele>
        <time>2021-04-22T10:06:54Z</time>
      </trkpt>
      <trkpt lat="44.86923" lon="5.66954">
        <ele>574.7</ele>
        <time>2021-04-22T10:06:55Z</time>
      </trkpt>
      <trkpt lat="44.86922" lon="5.66969">
        <ele>574</ele>
        <time>2021-04-22T10:06:56Z</time>
      </trkpt>
      <trkpt lat="44.86923" lon="5.66985">
        <ele>573.3</ele>
        <time>2021-04-22T10:06:57Z</time>
      </trkpt>
      <trkpt lat="44.86923" lon="5.67001">
        <ele>572.8</ele>
        <time>2021-04-22T10:06:58Z</time>
      </trkpt>
      <trkpt lat="44.86924" lon="5.67016">
        <ele>572.3</ele>
        <time>2021-04-22T10:06:59Z</time>
      </trkpt>
      <trkpt lat="44.86925" lon="5.6703">
        <ele>571.8</ele>
        <time>2021-04-22T10:07:00Z</time>
      </trkpt>
      <trkpt lat="44.86925" lon="5.67041">
        <ele>571.4</ele>
        <time>2021-04-22T10:07:01Z</time>
      </trkpt>
      <trkpt lat="44.86922" lon="5.6705">
        <ele>571</ele>
        <time>2021-04-22T10:07:02Z</time>
      </trkpt>
      <trkpt lat="44.86916" lon="5.6705">
        <ele>570.6</ele>
        <time>2021-04-22T10:07:03Z</time>
      </trkpt>
      <trkpt lat="44.8691" lon="5.67038">
        <ele>569.8</ele>
        <time>2021-04-22T10:07:04Z</time>
      </trkpt>
      <trkpt lat="44.86905" lon="5.67025">
        <ele>569</ele>
        <time>2021-04-22T10:07:05Z</time>
      </trkpt>
      <trkpt lat="44.86904" lon="5.67011">
        <ele>568.3</ele>
        <time>2021-04-22T10:07:06Z</time>
      </trkpt>
      <trkpt lat="44.86906" lon="5.66996">
        <ele>567.6</ele>
        <time>2021-04-22T10:07:07Z</time>
      </trkpt>
      <trkpt lat="44.86908" lon="5.66982">
        <ele>566.9</ele>
        <time>2021-04-22T10:07:08Z</time>
      </trkpt>
      <trkpt lat="44.86909" lon="5.66967">
        <ele>566.3</ele>
        <time>2021-04-22T10:07:09Z</time>
      </trkpt>
      <trkpt lat="44.86908" lon="5.66953">
        <ele>565.6</ele>
        <time>2021-04-22T10:07:10Z</time>
      </trkpt>
      <trkpt lat="44.86907" lon="5.66939">
        <ele>564.9</ele>
        <time>2021-04-22T10:07:11Z</time>
      </trkpt>
      <trkpt lat="44.86905" lon="5.66925">
        <ele>564.3</ele>
        <time>2021-04-22T10:07:12Z</time>
      </trkpt>
      <trkpt lat="44.86901" lon="5.66912">
        <ele>563.6</ele>
        <time>2021-04-22T10:07:13Z</time>
      </trkpt>
      <trkpt lat="44.86895" lon="5.66899">
        <ele>562.9</ele>
        <time>2021-04-22T10:07:14Z</time>
      </trkpt>
      <trkpt lat="44.86889" lon="5.66887">
        <ele>562.2</ele>
        <time>2021-04-22T10:07:15Z</time>
      </trkpt>
      <trkpt lat="44.86884" lon="5.66874">
        <ele>561.5</ele>
        <time>2021-04-22T10:07:16Z</time>
      </trkpt>
      <trkpt lat="44.86878" lon="5.66861">
        <ele>560.8</ele>
        <time>2021-04-22T10:07:17Z</time>
      </trkpt>
      <trkpt lat="44.86874" lon="5.66847">
        <ele>560.2</ele>
        <time>2021-04-22T10:07:18Z</time>
      </trkpt>
      <trkpt lat="44.86871" lon="5.66832">
        <ele>559.6</ele>
        <time>2021-04-22T10:07:19Z</time>
      </trkpt>
      <trkpt lat="44.86869" lon="5.66818">
        <ele>559</ele>
        <time>2021-04-22T10:07:20Z</time>
      </trkpt>
      <trkpt lat="44.86865" lon="5.66811">
        <ele>558.5</ele>
        <time>2021-04-22T10:07:21Z</time>
      </trkpt>
      <trkpt lat="44.8686" lon="5.66808">
        <ele>558.2</ele>
        <time>2021-04-22T10:07:22Z</time>
      </trkpt>
      <trkpt lat="44.86856" lon="5.66811">
        <ele>557.5</ele>
        <time>2021-04-22T10:07:23Z</time>
      </trkpt>
      <trkpt lat="44.86854" lon="5.66823">
        <ele>556.8</ele>
        <time>2021-04-22T10:07:24Z</time>
      </trkpt>
      <trkpt lat="44.86853" lon="5.66836">
        <ele>556.1</ele>
        <time>2021-04-22T10:07:25Z</time>
      </trkpt>
      <trkpt lat="44.86854" lon="5.66849">
        <ele>555.4</ele>
        <time>2021-04-22T10:07:26Z</time>
      </trkpt>
      <trkpt lat="44.86856" lon="5.66863">
        <ele>554.6</ele>
        <time>2021-04-22T10:07:27Z</time>
      </trkpt>
      <trkpt lat="44.86856" lon="5.66877">
        <ele>554</ele>
        <time>2021-04-22T10:07:28Z</time>
      </trkpt>
      <trkpt lat="44.86853" lon="5.66889">
        <ele>553.2</ele>
        <time>2021-04-22T10:07:29Z</time>
      </trkpt>
      <trkpt lat="44.86852" lon="5.66903">
        <ele>552.4</ele>
        <time>2021-04-22T10:07:30Z</time>
      </trkpt>
      <trkpt lat="44.86851" lon="5.66918">
        <ele>551.6</ele>
        <time>2021-04-22T10:07:31Z</time>
      </trkpt>
      <trkpt lat="44.8685" lon="5.66933">
        <ele>550.8</ele>
        <time>2021-04-22T10:07:32Z</time>
      </trkpt>
      <trkpt lat="44.86849" lon="5.66947">
        <ele>550.1</ele>
        <time>2021-04-22T10:07:33Z</time>
      </trkpt>
      <trkpt lat="44.86847" lon="5.66961">
        <ele>549.5</ele>
        <time>2021-04-22T10:07:34Z</time>
      </trkpt>
      <trkpt lat="44.86845" lon="5.66974">
        <ele>548.9</ele>
        <time>2021-04-22T10:07:35Z</time>
      </trkpt>
      <trkpt lat="44.86842" lon="5.66988">
        <ele>548.4</ele>
        <time>2021-04-22T10:07:36Z</time>
      </trkpt>
      <trkpt lat="44.8684" lon="5.67003">
        <ele>547.9</ele>
        <time>2021-04-22T10:07:37Z</time>
      </trkpt>
      <trkpt lat="44.86837" lon="5.67017">
        <ele>547.6</ele>
        <time>2021-04-22T10:07:38Z</time>
      </trkpt>
      <trkpt lat="44.86833" lon="5.6703">
        <ele>547.3</ele>
        <time>2021-04-22T10:07:39Z</time>
      </trkpt>
      <trkpt lat="44.86828" lon="5.67043">
        <ele>547.1</ele>
        <time>2021-04-22T10:07:40Z</time>
      </trkpt>
      <trkpt lat="44.86822" lon="5.67055">
        <ele>547</ele>
        <time>2021-04-22T10:07:41Z</time>
      </trkpt>
      <trkpt lat="44.86818" lon="5.67066">
        <ele>546.9</ele>
        <time>2021-04-22T10:07:42Z</time>
      </trkpt>
      <trkpt lat="44.86813" lon="5.67076">
        <ele>546.8</ele>
        <time>2021-04-22T10:07:43Z</time>
      </trkpt>
      <trkpt lat="44.86807" lon="5.67084">
        <ele>546.7</ele>
        <time>2021-04-22T10:07:44Z</time>
      </trkpt>
      <trkpt lat="44.86803" lon="5.67094">
        <ele>546.7</ele>
        <time>2021-04-22T10:07:45Z</time>
      </trkpt>
      <trkpt lat="44.86799" lon="5.67104">
        <ele>546.6</ele>
        <time>2021-04-22T10:07:46Z</time>
      </trkpt>
      <trkpt lat="44.86795" lon="5.67114">
        <ele>546.6</ele>
        <time>2021-04-22T10:07:47Z</time>
      </trkpt>
      <trkpt lat="44.86792" lon="5.67123">
        <ele>546.5</ele>
        <time>2021-04-22T10:07:48Z</time>
      </trkpt>
      <trkpt lat="44.86788" lon="5.67133">
        <ele>546.5</ele>
        <time>2021-04-22T10:07:49Z</time>
      </trkpt>
      <trkpt lat="44.86785" lon="5.67142">
        <ele>546.5</ele>
        <time>2021-04-22T10:07:50Z</time>
      </trkpt>
      <trkpt lat="44.86782" lon="5.67151">
        <ele>546.6</ele>
        <time>2021-04-22T10:07:51Z</time>
      </trkpt>
      <trkpt lat="44.86778" lon="5.6716">
        <ele>546.8</ele>
        <time>2021-04-22T10:07:52Z</time>
      </trkpt>
      <trkpt lat="44.86774" lon="5.67169">
        <ele>547</ele>
        <time>2021-04-22T10:07:53Z</time>
      </trkpt>
      <trkpt lat="44.86771" lon="5.67176">
        <ele>547.2</ele>
        <time>2021-04-22T10:07:54Z</time>
      </trkpt>
      <trkpt lat="44.86769" lon="5.67183">
        <ele>547.6</ele>
        <time>2021-04-22T10:07:55Z</time>
      </trkpt>
      <trkpt lat="44.86766" lon="5.67189">
        <ele>548</ele>
        <time>2021-04-22T10:07:56Z</time>
      </trkpt>
      <trkpt lat="44.86763" lon="5.67194">
        <ele>548.4</ele>
        <time>2021-04-22T10:07:57Z</time>
      </trkpt>
      <trkpt lat="44.86759" lon="5.67198">
        <ele>548.8</ele>
        <time>2021-04-22T10:07:58Z</time>
      </trkpt>
      <trkpt lat="44.86756" lon="5.67202">
        <ele>549.2</ele>
        <time>2021-04-22T10:07:59Z</time>
      </trkpt>
      <trkpt lat="44.86753" lon="5.67206">
        <ele>549.5</ele>
        <time>2021-04-22T10:08:00Z</time>
      </trkpt>
      <trkpt lat="44.86752" lon="5.67207">
        <ele>549.6</ele>
        <time>2021-04-22T10:08:01Z</time>
      </trkpt>
      <trkpt lat="44.86751" lon="5.67212">
        <ele>550</ele>
        <time>2021-04-22T10:08:02Z</time>
      </trkpt>
      <trkpt lat="44.8675" lon="5.67213">
        <ele>550.1</ele>
        <time>2021-04-22T10:08:03Z</time>
      </trkpt>
      <trkpt lat="44.86749" lon="5.67217">
        <ele>550.4</ele>
        <time>2021-04-22T10:08:04Z</time>
      </trkpt>
      <trkpt lat="44.86748" lon="5.67222">
        <ele>550.7</ele>
        <time>2021-04-22T10:08:05Z</time>
      </trkpt>
      <trkpt lat="44.86747" lon="5.67225">
        <ele>550.9</ele>
        <time>2021-04-22T10:08:06Z</time>
      </trkpt>
      <trkpt lat="44.86749" lon="5.67222">
        <ele>551.2</ele>
        <time>2021-04-22T10:08:07Z</time>
      </trkpt>
      <trkpt lat="44.86745" lon="5.67229">
        <ele>551.8</ele>
        <time>2021-04-22T10:08:09Z</time>
      </trkpt>
      <trkpt lat="44.8674" lon="5.67237">
        <ele>552.4</ele>
        <time>2021-04-22T10:08:11Z</time>
      </trkpt>
      <trkpt lat="44.86739" lon="5.67243">
        <ele>552.8</ele>
        <time>2021-04-22T10:08:13Z</time>
      </trkpt>
      <trkpt lat="44.86737" lon="5.67247">
        <ele>552.9</ele>
        <time>2021-04-22T10:08:14Z</time>
      </trkpt>
      <trkpt lat="44.86736" lon="5.67249">
        <ele>552.9</ele>
        <time>2021-04-22T10:08:15Z</time>
      </trkpt>
      <trkpt lat="44.86734" lon="5.67253">
        <ele>552.9</ele>
        <time>2021-04-22T10:08:16Z</time>
      </trkpt>
      <trkpt lat="44.86733" lon="5.67254">
        <ele>552.9</ele>
        <time>2021-04-22T10:08:17Z</time>
      </trkpt>
      <trkpt lat="44.86731" lon="5.67258">
        <ele>553.1</ele>
        <time>2021-04-22T10:08:18Z</time>
      </trkpt>
      <trkpt lat="44.8673" lon="5.67259">
        <ele>553.2</ele>
        <time>2021-04-22T10:08:19Z</time>
      </trkpt>
      <trkpt lat="44.86729" lon="5.67263">
        <ele>553.6</ele>
        <time>2021-04-22T10:08:20Z</time>
      </trkpt>
      <trkpt lat="44.86728" lon="5.67265">
        <ele>553.7</ele>
        <time>2021-04-22T10:08:21Z</time>
      </trkpt>
      <trkpt lat="44.86727" lon="5.67273">
        <ele>554.3</ele>
        <time>2021-04-22T10:08:23Z</time>
      </trkpt>
      <trkpt lat="44.86726" lon="5.6728">
        <ele>554.8</ele>
        <time>2021-04-22T10:08:24Z</time>
      </trkpt>
      <trkpt lat="44.86725" lon="5.67284">
        <ele>555.1</ele>
        <time>2021-04-22T10:08:26Z</time>
      </trkpt>
      <trkpt lat="44.86724" lon="5.67289">
        <ele>555.4</ele>
        <time>2021-04-22T10:08:27Z</time>
      </trkpt>
      <trkpt lat="44.86724" lon="5.67293">
        <ele>555.6</ele>
        <time>2021-04-22T10:08:28Z</time>
      </trkpt>
      <trkpt lat="44.86723" lon="5.673">
        <ele>556.1</ele>
        <time>2021-04-22T10:08:29Z</time>
      </trkpt>
      <trkpt lat="44.86723" lon="5.67305">
        <ele>556.4</ele>
        <time>2021-04-22T10:08:30Z</time>
      </trkpt>
      <trkpt lat="44.86723" lon="5.67312">
        <ele>556.9</ele>
        <time>2021-04-22T10:08:32Z</time>
      </trkpt>
      <trkpt lat="44.86722" lon="5.67315">
        <ele>557</ele>
        <time>2021-04-22T10:08:33Z</time>
      </trkpt>
      <trkpt lat="44.86722" lon="5.67317">
        <ele>557.2</ele>
        <time>2021-04-22T10:08:34Z</time>
      </trkpt>
      <trkpt lat="44.86722" lon="5.67323">
        <ele>557.6</ele>
        <time>2021-04-22T10:08:35Z</time>
      </trkpt>
      <trkpt lat="44.86722" lon="5.67328">
        <ele>557.9</ele>
        <time>2021-04-22T10:08:37Z</time>
      </trkpt>
      <trkpt lat="44.86721" lon="5.67334">
        <ele>558.3</ele>
        <time>2021-04-22T10:08:38Z</time>
      </trkpt>
      <trkpt lat="44.86721" lon="5.67336">
        <ele>558.4</ele>
        <time>2021-04-22T10:08:39Z</time>
      </trkpt>
      <trkpt lat="44.86721" lon="5.67342">
        <ele>558.8</ele>
        <time>2021-04-22T10:08:40Z</time>
      </trkpt>
      <trkpt lat="44.86721" lon="5.67347">
        <ele>559.1</ele>
        <time>2021-04-22T10:08:42Z</time>
      </trkpt>
      <trkpt lat="44.86721" lon="5.67351">
        <ele>559.4</ele>
        <time>2021-04-22T10:08:43Z</time>
      </trkpt>
      <trkpt lat="44.8672" lon="5.67356">
        <ele>559.7</ele>
        <time>2021-04-22T10:08:45Z</time>
      </trkpt>
      <trkpt lat="44.8672" lon="5.6736">
        <ele>559.9</ele>
        <time>2021-04-22T10:08:46Z</time>
      </trkpt>
      <trkpt lat="44.8672" lon="5.67366">
        <ele>560.3</ele>
        <time>2021-04-22T10:08:48Z</time>
      </trkpt>
      <trkpt lat="44.8672" lon="5.6737">
        <ele>560.6</ele>
        <time>2021-04-22T10:08:49Z</time>
      </trkpt>
      <trkpt lat="44.86719" lon="5.67376">
        <ele>561</ele>
        <time>2021-04-22T10:08:50Z</time>
      </trkpt>
      <trkpt lat="44.86719" lon="5.67379">
        <ele>561.1</ele>
        <time>2021-04-22T10:08:51Z</time>
      </trkpt>
      <trkpt lat="44.86718" lon="5.67382">
        <ele>561.4</ele>
        <time>2021-04-22T10:08:53Z</time>
      </trkpt>
      <trkpt lat="44.86718" lon="5.67387">
        <ele>561.6</ele>
        <time>2021-04-22T10:08:54Z</time>
      </trkpt>
      <trkpt lat="44.86717" lon="5.6739">
        <ele>561.8</ele>
        <time>2021-04-22T10:08:55Z</time>
      </trkpt>
      <trkpt lat="44.86717" lon="5.67394">
        <ele>562</ele>
        <time>2021-04-22T10:08:57Z</time>
      </trkpt>
      <trkpt lat="44.86717" lon="5.67397">
        <ele>562.2</ele>
        <time>2021-04-22T10:08:58Z</time>
      </trkpt>
      <trkpt lat="44.86717" lon="5.67401">
        <ele>562.5</ele>
        <time>2021-04-22T10:09:00Z</time>
      </trkpt>
      <trkpt lat="44.86716" lon="5.67406">
        <ele>562.7</ele>
        <time>2021-04-22T10:09:01Z</time>
      </trkpt>
      <trkpt lat="44.86716" lon="5.67409">
        <ele>562.8</ele>
        <time>2021-04-22T10:09:02Z</time>
      </trkpt>
      <trkpt lat="44.86715" lon="5.67414">
        <ele>563.1</ele>
        <time>2021-04-22T10:09:04Z</time>
      </trkpt>
      <trkpt lat="44.86714" lon="5.67418">
        <ele>563.4</ele>
        <time>2021-04-22T10:09:05Z</time>
      </trkpt>
      <trkpt lat="44.86714" lon="5.67425">
        <ele>563.7</ele>
        <time>2021-04-22T10:09:07Z</time>
      </trkpt>
      <trkpt lat="44.86713" lon="5.67428">
        <ele>563.8</ele>
        <time>2021-04-22T10:09:08Z</time>
      </trkpt>
      <trkpt lat="44.86712" lon="5.67434">
        <ele>564.1</ele>
        <time>2021-04-22T10:09:10Z</time>
      </trkpt>
      <trkpt lat="44.8671" lon="5.67439">
        <ele>564.4</ele>
        <time>2021-04-22T10:09:11Z</time>
      </trkpt>
      <trkpt lat="44.8671" lon="5.67441">
        <ele>564.5</ele>
        <time>2021-04-22T10:09:12Z</time>
      </trkpt>
      <trkpt lat="44.86709" lon="5.67445">
        <ele>564.7</ele>
        <time>2021-04-22T10:09:13Z</time>
      </trkpt>
      <trkpt lat="44.86708" lon="5.67451">
        <ele>565</ele>
        <time>2021-04-22T10:09:15Z</time>
      </trkpt>
      <trkpt lat="44.86707" lon="5.67456">
        <ele>565.2</ele>
        <time>2021-04-22T10:09:16Z</time>
      </trkpt>
      <trkpt lat="44.86707" lon="5.67458">
        <ele>565.3</ele>
        <time>2021-04-22T10:09:17Z</time>
      </trkpt>
      <trkpt lat="44.86705" lon="5.67464">
        <ele>565.6</ele>
        <time>2021-04-22T10:09:19Z</time>
      </trkpt>
      <trkpt lat="44.86704" lon="5.67469">
        <ele>565.9</ele>
        <time>2021-04-22T10:09:21Z</time>
      </trkpt>
      <trkpt lat="44.86704" lon="5.67474">
        <ele>566.1</ele>
        <time>2021-04-22T10:09:22Z</time>
      </trkpt>
      <trkpt lat="44.86704" lon="5.67477">
        <ele>566.2</ele>
        <time>2021-04-22T10:09:23Z</time>
      </trkpt>
      <trkpt lat="44.86704" lon="5.6748">
        <ele>566.4</ele>
        <time>2021-04-22T10:09:24Z</time>
      </trkpt>
      <trkpt lat="44.86704" lon="5.67484">
        <ele>566.6</ele>
        <time>2021-04-22T10:09:26Z</time>
      </trkpt>
      <trkpt lat="44.86704" lon="5.67489">
        <ele>566.9</ele>
        <time>2021-04-22T10:09:27Z</time>
      </trkpt>
      <trkpt lat="44.86704" lon="5.67491">
        <ele>567</ele>
        <time>2021-04-22T10:09:28Z</time>
      </trkpt>
      <trkpt lat="44.86705" lon="5.67495">
        <ele>567.2</ele>
        <time>2021-04-22T10:09:29Z</time>
      </trkpt>
      <trkpt lat="44.86705" lon="5.67501">
        <ele>567.5</ele>
        <time>2021-04-22T10:09:31Z</time>
      </trkpt>
      <trkpt lat="44.86706" lon="5.67509">
        <ele>567.9</ele>
        <time>2021-04-22T10:09:33Z</time>
      </trkpt>
      <trkpt lat="44.86707" lon="5.67515">
        <ele>568.2</ele>
        <time>2021-04-22T10:09:35Z</time>
      </trkpt>
      <trkpt lat="44.86708" lon="5.67519">
        <ele>568.5</ele>
        <time>2021-04-22T10:09:36Z</time>
      </trkpt>
      <trkpt lat="44.86709" lon="5.67521">
        <ele>568.6</ele>
        <time>2021-04-22T10:09:37Z</time>
      </trkpt>
      <trkpt lat="44.86709" lon="5.67525">
        <ele>568.8</ele>
        <time>2021-04-22T10:09:38Z</time>
      </trkpt>
      <trkpt lat="44.86711" lon="5.6753">
        <ele>569</ele>
        <time>2021-04-22T10:09:39Z</time>
      </trkpt>
      <trkpt lat="44.86712" lon="5.67534">
        <ele>569.3</ele>
        <time>2021-04-22T10:09:40Z</time>
      </trkpt>
      <trkpt lat="44.86714" lon="5.67541">
        <ele>569.6</ele>
        <time>2021-04-22T10:09:42Z</time>
      </trkpt>
      <trkpt lat="44.86715" lon="5.67544">
        <ele>569.8</ele>
        <time>2021-04-22T10:09:43Z</time>
      </trkpt>
      <trkpt lat="44.86716" lon="5.6755">
        <ele>570</ele>
        <time>2021-04-22T10:09:45Z</time>
      </trkpt>
      <trkpt lat="44.86718" lon="5.67556">
        <ele>570.4</ele>
        <time>2021-04-22T10:09:47Z</time>
      </trkpt>
      <trkpt lat="44.86718" lon="5.6756">
        <ele>570.5</ele>
        <time>2021-04-22T10:09:48Z</time>
      </trkpt>
      <trkpt lat="44.8672" lon="5.67567">
        <ele>570.9</ele>
        <time>2021-04-22T10:09:50Z</time>
      </trkpt>
      <trkpt lat="44.86721" lon="5.67571">
        <ele>571.1</ele>
        <time>2021-04-22T10:09:51Z</time>
      </trkpt>
      <trkpt lat="44.86722" lon="5.67575">
        <ele>571.3</ele>
        <time>2021-04-22T10:09:52Z</time>
      </trkpt>
      <trkpt lat="44.86723" lon="5.67582">
        <ele>571.6</ele>
        <time>2021-04-22T10:09:54Z</time>
      </trkpt>
      <trkpt lat="44.86723" lon="5.67584">
        <ele>571.7</ele>
        <time>2021-04-22T10:09:55Z</time>
      </trkpt>
      <trkpt lat="44.86723" lon="5.6759">
        <ele>572</ele>
        <time>2021-04-22T10:09:57Z</time>
      </trkpt>
      <trkpt lat="44.86722" lon="5.67598">
        <ele>572.4</ele>
        <time>2021-04-22T10:09:59Z</time>
      </trkpt>
      <trkpt lat="44.86722" lon="5.67603">
        <ele>572.7</ele>
        <time>2021-04-22T10:10:01Z</time>
      </trkpt>
      <trkpt lat="44.86721" lon="5.67608">
        <ele>572.9</ele>
        <time>2021-04-22T10:10:02Z</time>
      </trkpt>
      <trkpt lat="44.86721" lon="5.6761">
        <ele>573</ele>
        <time>2021-04-22T10:10:03Z</time>
      </trkpt>
      <trkpt lat="44.8672" lon="5.67615">
        <ele>573.2</ele>
        <time>2021-04-22T10:10:04Z</time>
      </trkpt>
      <trkpt lat="44.8672" lon="5.67622">
        <ele>573.6</ele>
        <time>2021-04-22T10:10:06Z</time>
      </trkpt>
      <trkpt lat="44.8672" lon="5.67627">
        <ele>573.8</ele>
        <time>2021-04-22T10:10:07Z</time>
      </trkpt>
      <trkpt lat="44.8672" lon="5.67633">
        <ele>574.2</ele>
        <time>2021-04-22T10:10:09Z</time>
      </trkpt>
      <trkpt lat="44.86721" lon="5.67637">
        <ele>574.4</ele>
        <time>2021-04-22T10:10:10Z</time>
      </trkpt>
      <trkpt lat="44.8672" lon="5.67641">
        <ele>574.6</ele>
        <time>2021-04-22T10:10:11Z</time>
      </trkpt>
      <trkpt lat="44.86718" lon="5.67649">
        <ele>575.1</ele>
        <time>2021-04-22T10:10:13Z</time>
      </trkpt>
      <trkpt lat="44.86717" lon="5.67652">
        <ele>575.4</ele>
        <time>2021-04-22T10:10:14Z</time>
      </trkpt>
      <trkpt lat="44.86715" lon="5.67655">
        <ele>575.6</ele>
        <time>2021-04-22T10:10:15Z</time>
      </trkpt>
      <trkpt lat="44.86712" lon="5.67658">
        <ele>575.9</ele>
        <time>2021-04-22T10:10:17Z</time>
      </trkpt>
      <trkpt lat="44.86709" lon="5.67658">
        <ele>576.1</ele>
        <time>2021-04-22T10:10:18Z</time>
      </trkpt>
      <trkpt lat="44.86708" lon="5.67658">
        <ele>576.2</ele>
        <time>2021-04-22T10:10:19Z</time>
      </trkpt>
      <trkpt lat="44.86707" lon="5.67657">
        <ele>576.3</ele>
        <time>2021-04-22T10:10:20Z</time>
      </trkpt>
      <trkpt lat="44.86704" lon="5.67654">
        <ele>576.6</ele>
        <time>2021-04-22T10:10:21Z</time>
      </trkpt>
      <trkpt lat="44.86702" lon="5.67648">
        <ele>576.9</ele>
        <time>2021-04-22T10:10:23Z</time>
      </trkpt>
      <trkpt lat="44.86701" lon="5.67641">
        <ele>577.2</ele>
        <time>2021-04-22T10:10:25Z</time>
      </trkpt>
      <trkpt lat="44.86701" lon="5.67636">
        <ele>577.3</ele>
        <time>2021-04-22T10:10:26Z</time>
      </trkpt>
      <trkpt lat="44.86702" lon="5.67626">
        <ele>577.6</ele>
        <time>2021-04-22T10:10:28Z</time>
      </trkpt>
      <trkpt lat="44.86704" lon="5.67615">
        <ele>577.7</ele>
        <time>2021-04-22T10:10:30Z</time>
      </trkpt>
      <trkpt lat="44.86704" lon="5.67608">
        <ele>577.8</ele>
        <time>2021-04-22T10:10:31Z</time>
      </trkpt>
      <trkpt lat="44.86705" lon="5.67599">
        <ele>578</ele>
        <time>2021-04-22T10:10:33Z</time>
      </trkpt>
      <trkpt lat="44.86704" lon="5.67594">
        <ele>578</ele>
        <time>2021-04-22T10:10:34Z</time>
      </trkpt>
      <trkpt lat="44.86704" lon="5.67587">
        <ele>578.1</ele>
        <time>2021-04-22T10:10:35Z</time>
      </trkpt>
      <trkpt lat="44.86702" lon="5.67579">
        <ele>578.3</ele>
        <time>2021-04-22T10:10:37Z</time>
      </trkpt>
      <trkpt lat="44.867" lon="5.67573">
        <ele>578.4</ele>
        <time>2021-04-22T10:10:38Z</time>
      </trkpt>
      <trkpt lat="44.86698" lon="5.67567">
        <ele>578.7</ele>
        <time>2021-04-22T10:10:40Z</time>
      </trkpt>
      <trkpt lat="44.86696" lon="5.67561">
        <ele>578.9</ele>
        <time>2021-04-22T10:10:41Z</time>
      </trkpt>
      <trkpt lat="44.86692" lon="5.67553">
        <ele>579.2</ele>
        <time>2021-04-22T10:10:43Z</time>
      </trkpt>
      <trkpt lat="44.86688" lon="5.67548">
        <ele>579.5</ele>
        <time>2021-04-22T10:10:45Z</time>
      </trkpt>
      <trkpt lat="44.86686" lon="5.67543">
        <ele>579.7</ele>
        <time>2021-04-22T10:10:46Z</time>
      </trkpt>
      <trkpt lat="44.86686" lon="5.67542">
        <ele>579.8</ele>
        <time>2021-04-22T10:10:47Z</time>
      </trkpt>
      <trkpt lat="44.86684" lon="5.67538">
        <ele>580</ele>
        <time>2021-04-22T10:10:48Z</time>
      </trkpt>
      <trkpt lat="44.86681" lon="5.67531">
        <ele>580.3</ele>
        <time>2021-04-22T10:10:50Z</time>
      </trkpt>
      <trkpt lat="44.8668" lon="5.67527">
        <ele>580.5</ele>
        <time>2021-04-22T10:10:51Z</time>
      </trkpt>
      <trkpt lat="44.86677" lon="5.67522">
        <ele>580.8</ele>
        <time>2021-04-22T10:10:52Z</time>
      </trkpt>
      <trkpt lat="44.86674" lon="5.67516">
        <ele>581.2</ele>
        <time>2021-04-22T10:10:54Z</time>
      </trkpt>
      <trkpt lat="44.86672" lon="5.6751">
        <ele>581.5</ele>
        <time>2021-04-22T10:10:56Z</time>
      </trkpt>
      <trkpt lat="44.8667" lon="5.67504">
        <ele>581.9</ele>
        <time>2021-04-22T10:10:57Z</time>
      </trkpt>
      <trkpt lat="44.86666" lon="5.67497">
        <ele>582.3</ele>
        <time>2021-04-22T10:10:59Z</time>
      </trkpt>
      <trkpt lat="44.86665" lon="5.67493">
        <ele>582.5</ele>
        <time>2021-04-22T10:11:00Z</time>
      </trkpt>
      <trkpt lat="44.86665" lon="5.67488">
        <ele>582.7</ele>
        <time>2021-04-22T10:11:01Z</time>
      </trkpt>
      <trkpt lat="44.86663" lon="5.67483">
        <ele>583</ele>
        <time>2021-04-22T10:11:02Z</time>
      </trkpt>
      <trkpt lat="44.86662" lon="5.67479">
        <ele>583.2</ele>
        <time>2021-04-22T10:11:03Z</time>
      </trkpt>
      <trkpt lat="44.8666" lon="5.67476">
        <ele>583.5</ele>
        <time>2021-04-22T10:11:04Z</time>
      </trkpt>
      <trkpt lat="44.86658" lon="5.67471">
        <ele>583.8</ele>
        <time>2021-04-22T10:11:06Z</time>
      </trkpt>
      <trkpt lat="44.86655" lon="5.67467">
        <ele>584.1</ele>
        <time>2021-04-22T10:11:08Z</time>
      </trkpt>
      <trkpt lat="44.86654" lon="5.67464">
        <ele>584.3</ele>
        <time>2021-04-22T10:11:09Z</time>
      </trkpt>
      <trkpt lat="44.86653" lon="5.67462">
        <ele>584.4</ele>
        <time>2021-04-22T10:11:10Z</time>
      </trkpt>
      <trkpt lat="44.86652" lon="5.67458">
        <ele>584.6</ele>
        <time>2021-04-22T10:11:12Z</time>
      </trkpt>
      <trkpt lat="44.86652" lon="5.67456">
        <ele>584.7</ele>
        <time>2021-04-22T10:11:13Z</time>
      </trkpt>
      <trkpt lat="44.86651" lon="5.67454">
        <ele>584.8</ele>
        <time>2021-04-22T10:11:14Z</time>
      </trkpt>
      <trkpt lat="44.86649" lon="5.67448">
        <ele>585.2</ele>
        <time>2021-04-22T10:11:16Z</time>
      </trkpt>
      <trkpt lat="44.86648" lon="5.67445">
        <ele>585.4</ele>
        <time>2021-04-22T10:11:17Z</time>
      </trkpt>
      <trkpt lat="44.86646" lon="5.6744">
        <ele>585.6</ele>
        <time>2021-04-22T10:11:19Z</time>
      </trkpt>
      <trkpt lat="44.86644" lon="5.67436">
        <ele>585.9</ele>
        <time>2021-04-22T10:11:20Z</time>
      </trkpt>
      <trkpt lat="44.86643" lon="5.67435">
        <ele>586</ele>
        <time>2021-04-22T10:11:21Z</time>
      </trkpt>
      <trkpt lat="44.86641" lon="5.67429">
        <ele>586.4</ele>
        <time>2021-04-22T10:11:23Z</time>
      </trkpt>
      <trkpt lat="44.86639" lon="5.67423">
        <ele>586.8</ele>
        <time>2021-04-22T10:11:25Z</time>
      </trkpt>
      <trkpt lat="44.86638" lon="5.67421">
        <ele>586.9</ele>
        <time>2021-04-22T10:11:26Z</time>
      </trkpt>
      <trkpt lat="44.86637" lon="5.67419">
        <ele>587.1</ele>
        <time>2021-04-22T10:11:27Z</time>
      </trkpt>
      <trkpt lat="44.86636" lon="5.67414">
        <ele>587.4</ele>
        <time>2021-04-22T10:11:28Z</time>
      </trkpt>
      <trkpt lat="44.86634" lon="5.67409">
        <ele>587.7</ele>
        <time>2021-04-22T10:11:30Z</time>
      </trkpt>
      <trkpt lat="44.86633" lon="5.67408">
        <ele>587.8</ele>
        <time>2021-04-22T10:11:31Z</time>
      </trkpt>
      <trkpt lat="44.86631" lon="5.67404">
        <ele>588.1</ele>
        <time>2021-04-22T10:11:32Z</time>
      </trkpt>
      <trkpt lat="44.8663" lon="5.67399">
        <ele>588.4</ele>
        <time>2021-04-22T10:11:33Z</time>
      </trkpt>
      <trkpt lat="44.86628" lon="5.67396">
        <ele>588.6</ele>
        <time>2021-04-22T10:11:35Z</time>
      </trkpt>
      <trkpt lat="44.86626" lon="5.67394">
        <ele>588.8</ele>
        <time>2021-04-22T10:11:37Z</time>
      </trkpt>
      <trkpt lat="44.86623" lon="5.67389">
        <ele>589.2</ele>
        <time>2021-04-22T10:11:39Z</time>
      </trkpt>
      <trkpt lat="44.8662" lon="5.67383">
        <ele>589.6</ele>
        <time>2021-04-22T10:11:41Z</time>
      </trkpt>
      <trkpt lat="44.86619" lon="5.67378">
        <ele>590</ele>
        <time>2021-04-22T10:11:42Z</time>
      </trkpt>
      <trkpt lat="44.86618" lon="5.67375">
        <ele>590.2</ele>
        <time>2021-04-22T10:11:43Z</time>
      </trkpt>
      <trkpt lat="44.86617" lon="5.67372">
        <ele>590.4</ele>
        <time>2021-04-22T10:11:45Z</time>
      </trkpt>
      <trkpt lat="44.86616" lon="5.67367">
        <ele>590.7</ele>
        <time>2021-04-22T10:11:47Z</time>
      </trkpt>
      <trkpt lat="44.86613" lon="5.67362">
        <ele>591.1</ele>
        <time>2021-04-22T10:11:49Z</time>
      </trkpt>
      <trkpt lat="44.8661" lon="5.67357">
        <ele>591.5</ele>
        <time>2021-04-22T10:11:51Z</time>
      </trkpt>
      <trkpt lat="44.86606" lon="5.67354">
        <ele>591.9</ele>
        <time>2021-04-22T10:11:53Z</time>
      </trkpt>
      <trkpt lat="44.86602" lon="5.67351">
        <ele>592.2</ele>
        <time>2021-04-22T10:11:54Z</time>
      </trkpt>
      <trkpt lat="44.86601" lon="5.67351">
        <ele>592.4</ele>
        <time>2021-04-22T10:11:55Z</time>
      </trkpt>
      <trkpt lat="44.86596" lon="5.67351">
        <ele>592.7</ele>
        <time>2021-04-22T10:11:57Z</time>
      </trkpt>
      <trkpt lat="44.86591" lon="5.67355">
        <ele>593.1</ele>
        <time>2021-04-22T10:11:59Z</time>
      </trkpt>
      <trkpt lat="44.86589" lon="5.67358">
        <ele>593.3</ele>
        <time>2021-04-22T10:12:00Z</time>
      </trkpt>
      <trkpt lat="44.86588" lon="5.67363">
        <ele>593.6</ele>
        <time>2021-04-22T10:12:01Z</time>
      </trkpt>
      <trkpt lat="44.86589" lon="5.67371">
        <ele>593.9</ele>
        <time>2021-04-22T10:12:02Z</time>
      </trkpt>
      <trkpt lat="44.8659" lon="5.67382">
        <ele>594.5</ele>
        <time>2021-04-22T10:12:04Z</time>
      </trkpt>
      <trkpt lat="44.86592" lon="5.67388">
        <ele>594.8</ele>
        <time>2021-04-22T10:12:05Z</time>
      </trkpt>
      <trkpt lat="44.86593" lon="5.67393">
        <ele>595</ele>
        <time>2021-04-22T10:12:06Z</time>
      </trkpt>
      <trkpt lat="44.86593" lon="5.67396">
        <ele>595.1</ele>
        <time>2021-04-22T10:12:08Z</time>
      </trkpt>
      <trkpt lat="44.86593" lon="5.67398">
        <ele>595.2</ele>
        <time>2021-04-22T10:12:10Z</time>
      </trkpt>
      <trkpt lat="44.86594" lon="5.674">
        <ele>595.3</ele>
        <time>2021-04-22T10:12:11Z</time>
      </trkpt>
      <trkpt lat="44.86594" lon="5.67406">
        <ele>595.6</ele>
        <time>2021-04-22T10:12:12Z</time>
      </trkpt>
      <trkpt lat="44.86595" lon="5.6741">
        <ele>595.8</ele>
        <time>2021-04-22T10:12:14Z</time>
      </trkpt>
      <trkpt lat="44.86595" lon="5.67414">
        <ele>596.1</ele>
        <time>2021-04-22T10:12:15Z</time>
      </trkpt>
      <trkpt lat="44.86597" lon="5.67421">
        <ele>596.4</ele>
        <time>2021-04-22T10:12:16Z</time>
      </trkpt>
      <trkpt lat="44.86597" lon="5.67426">
        <ele>596.7</ele>
        <time>2021-04-22T10:12:18Z</time>
      </trkpt>
      <trkpt lat="44.86597" lon="5.67428">
        <ele>596.8</ele>
        <time>2021-04-22T10:12:19Z</time>
      </trkpt>
      <trkpt lat="44.86597" lon="5.67433">
        <ele>597.1</ele>
        <time>2021-04-22T10:12:20Z</time>
      </trkpt>
      <trkpt lat="44.86597" lon="5.67435">
        <ele>597.2</ele>
        <time>2021-04-22T10:12:21Z</time>
      </trkpt>
      <trkpt lat="44.86597" lon="5.67443">
        <ele>597.6</ele>
        <time>2021-04-22T10:12:23Z</time>
      </trkpt>
      <trkpt lat="44.86597" lon="5.67449">
        <ele>598</ele>
        <time>2021-04-22T10:12:24Z</time>
      </trkpt>
      <trkpt lat="44.86596" lon="5.67454">
        <ele>598.3</ele>
        <time>2021-04-22T10:12:26Z</time>
      </trkpt>
      <trkpt lat="44.86596" lon="5.67459">
        <ele>598.6</ele>
        <time>2021-04-22T10:12:28Z</time>
      </trkpt>
      <trkpt lat="44.86595" lon="5.67464">
        <ele>598.8</ele>
        <time>2021-04-22T10:12:29Z</time>
      </trkpt>
      <trkpt lat="44.86594" lon="5.67467">
        <ele>599</ele>
        <time>2021-04-22T10:12:30Z</time>
      </trkpt>
      <trkpt lat="44.86592" lon="5.67473">
        <ele>599.4</ele>
        <time>2021-04-22T10:12:32Z</time>
      </trkpt>
      <trkpt lat="44.86591" lon="5.67477">
        <ele>599.6</ele>
        <time>2021-04-22T10:12:33Z</time>
      </trkpt>
      <trkpt lat="44.86589" lon="5.67482">
        <ele>599.9</ele>
        <time>2021-04-22T10:12:35Z</time>
      </trkpt>
      <trkpt lat="44.86588" lon="5.67486">
        <ele>600.2</ele>
        <time>2021-04-22T10:12:36Z</time>
      </trkpt>
      <trkpt lat="44.86587" lon="5.67492">
        <ele>600.5</ele>
        <time>2021-04-22T10:12:38Z</time>
      </trkpt>
      <trkpt lat="44.86585" lon="5.67498">
        <ele>600.4</ele>
        <time>2021-04-22T10:12:40Z</time>
      </trkpt>
      <trkpt lat="44.86583" lon="5.67504">
        <ele>600.6</ele>
        <time>2021-04-22T10:12:42Z</time>
      </trkpt>
      <trkpt lat="44.86582" lon="5.67509">
        <ele>600.9</ele>
        <time>2021-04-22T10:12:43Z</time>
      </trkpt>
      <trkpt lat="44.8658" lon="5.67514">
        <ele>601.2</ele>
        <time>2021-04-22T10:12:45Z</time>
      </trkpt>
      <trkpt lat="44.86578" lon="5.67519">
        <ele>601.5</ele>
        <time>2021-04-22T10:12:47Z</time>
      </trkpt>
      <trkpt lat="44.86575" lon="5.67524">
        <ele>601.8</ele>
        <time>2021-04-22T10:12:49Z</time>
      </trkpt>
      <trkpt lat="44.86573" lon="5.67529">
        <ele>602.1</ele>
        <time>2021-04-22T10:12:51Z</time>
      </trkpt>
      <trkpt lat="44.86571" lon="5.67534">
        <ele>602.4</ele>
        <time>2021-04-22T10:12:53Z</time>
      </trkpt>
      <trkpt lat="44.8657" lon="5.67536">
        <ele>602.5</ele>
        <time>2021-04-22T10:12:54Z</time>
      </trkpt>
      <trkpt lat="44.86568" lon="5.67538">
        <ele>602.6</ele>
        <time>2021-04-22T10:12:56Z</time>
      </trkpt>
      <trkpt lat="44.86565" lon="5.67544">
        <ele>602.9</ele>
        <time>2021-04-22T10:12:58Z</time>
      </trkpt>
      <trkpt lat="44.86564" lon="5.67545">
        <ele>603.1</ele>
        <time>2021-04-22T10:12:59Z</time>
      </trkpt>
      <trkpt lat="44.86563" lon="5.67547">
        <ele>603.2</ele>
        <time>2021-04-22T10:13:00Z</time>
      </trkpt>
      <trkpt lat="44.86562" lon="5.67552">
        <ele>603.4</ele>
        <time>2021-04-22T10:13:01Z</time>
      </trkpt>
      <trkpt lat="44.86561" lon="5.67554">
        <ele>603.5</ele>
        <time>2021-04-22T10:13:02Z</time>
      </trkpt>
      <trkpt lat="44.8656" lon="5.67559">
        <ele>603.7</ele>
        <time>2021-04-22T10:13:04Z</time>
      </trkpt>
      <trkpt lat="44.86558" lon="5.67563">
        <ele>603.9</ele>
        <time>2021-04-22T10:13:05Z</time>
      </trkpt>
      <trkpt lat="44.86556" lon="5.67569">
        <ele>604.1</ele>
        <time>2021-04-22T10:13:07Z</time>
      </trkpt>
      <trkpt lat="44.86554" lon="5.67573">
        <ele>604.3</ele>
        <time>2021-04-22T10:13:08Z</time>
      </trkpt>
      <trkpt lat="44.86552" lon="5.67579">
        <ele>604.6</ele>
        <time>2021-04-22T10:13:10Z</time>
      </trkpt>
      <trkpt lat="44.86551" lon="5.67583">
        <ele>604.8</ele>
        <time>2021-04-22T10:13:11Z</time>
      </trkpt>
      <trkpt lat="44.86549" lon="5.67586">
        <ele>605</ele>
        <time>2021-04-22T10:13:12Z</time>
      </trkpt>
      <trkpt lat="44.86547" lon="5.6759">
        <ele>605.1</ele>
        <time>2021-04-22T10:13:13Z</time>
      </trkpt>
      <trkpt lat="44.86545" lon="5.67593">
        <ele>605.3</ele>
        <time>2021-04-22T10:13:15Z</time>
      </trkpt>
      <trkpt lat="44.86541" lon="5.67599">
        <ele>605.7</ele>
        <time>2021-04-22T10:13:17Z</time>
      </trkpt>
      <trkpt lat="44.8654" lon="5.67605">
        <ele>605.9</ele>
        <time>2021-04-22T10:13:18Z</time>
      </trkpt>
      <trkpt lat="44.86538" lon="5.67612">
        <ele>606.3</ele>
        <time>2021-04-22T10:13:19Z</time>
      </trkpt>
      <trkpt lat="44.86537" lon="5.67617">
        <ele>606.5</ele>
        <time>2021-04-22T10:13:21Z</time>
      </trkpt>
      <trkpt lat="44.86536" lon="5.67623">
        <ele>606.8</ele>
        <time>2021-04-22T10:13:22Z</time>
      </trkpt>
      <trkpt lat="44.86534" lon="5.67629">
        <ele>607.1</ele>
        <time>2021-04-22T10:13:23Z</time>
      </trkpt>
      <trkpt lat="44.86532" lon="5.67634">
        <ele>607.4</ele>
        <time>2021-04-22T10:13:24Z</time>
      </trkpt>
      <trkpt lat="44.86531" lon="5.67637">
        <ele>607.6</ele>
        <time>2021-04-22T10:13:26Z</time>
      </trkpt>
      <trkpt lat="44.86529" lon="5.6764">
        <ele>607.8</ele>
        <time>2021-04-22T10:13:28Z</time>
      </trkpt>
      <trkpt lat="44.86526" lon="5.67648">
        <ele>608.2</ele>
        <time>2021-04-22T10:13:30Z</time>
      </trkpt>
      <trkpt lat="44.86526" lon="5.67655">
        <ele>608.6</ele>
        <time>2021-04-22T10:13:31Z</time>
      </trkpt>
      <trkpt lat="44.86525" lon="5.67661">
        <ele>608.9</ele>
        <time>2021-04-22T10:13:33Z</time>
      </trkpt>
      <trkpt lat="44.86525" lon="5.67666">
        <ele>609.2</ele>
        <time>2021-04-22T10:13:34Z</time>
      </trkpt>
      <trkpt lat="44.86524" lon="5.67671">
        <ele>609.4</ele>
        <time>2021-04-22T10:13:35Z</time>
      </trkpt>
      <trkpt lat="44.86522" lon="5.6768">
        <ele>609.9</ele>
        <time>2021-04-22T10:13:37Z</time>
      </trkpt>
      <trkpt lat="44.8652" lon="5.67686">
        <ele>610.3</ele>
        <time>2021-04-22T10:13:39Z</time>
      </trkpt>
      <trkpt lat="44.8652" lon="5.67689">
        <ele>610.4</ele>
        <time>2021-04-22T10:13:40Z</time>
      </trkpt>
      <trkpt lat="44.86519" lon="5.67691">
        <ele>610.5</ele>
        <time>2021-04-22T10:13:41Z</time>
      </trkpt>
      <trkpt lat="44.86516" lon="5.67697">
        <ele>610.9</ele>
        <time>2021-04-22T10:13:43Z</time>
      </trkpt>
      <trkpt lat="44.86514" lon="5.677">
        <ele>611.1</ele>
        <time>2021-04-22T10:13:44Z</time>
      </trkpt>
      <trkpt lat="44.86511" lon="5.67706">
        <ele>611.5</ele>
        <time>2021-04-22T10:13:46Z</time>
      </trkpt>
      <trkpt lat="44.86509" lon="5.67709">
        <ele>611.7</ele>
        <time>2021-04-22T10:13:47Z</time>
      </trkpt>
      <trkpt lat="44.86506" lon="5.67714">
        <ele>612</ele>
        <time>2021-04-22T10:13:49Z</time>
      </trkpt>
      <trkpt lat="44.86504" lon="5.67718">
        <ele>612.3</ele>
        <time>2021-04-22T10:13:50Z</time>
      </trkpt>
      <trkpt lat="44.86501" lon="5.6772">
        <ele>612.6</ele>
        <time>2021-04-22T10:13:51Z</time>
      </trkpt>
      <trkpt lat="44.86498" lon="5.67722">
        <ele>612.8</ele>
        <time>2021-04-22T10:13:52Z</time>
      </trkpt>
      <trkpt lat="44.86493" lon="5.67721">
        <ele>613.2</ele>
        <time>2021-04-22T10:13:54Z</time>
      </trkpt>
      <trkpt lat="44.86492" lon="5.6772">
        <ele>613.4</ele>
        <time>2021-04-22T10:13:55Z</time>
      </trkpt>
      <trkpt lat="44.8649" lon="5.6772">
        <ele>613.5</ele>
        <time>2021-04-22T10:13:56Z</time>
      </trkpt>
      <trkpt lat="44.86486" lon="5.67714">
        <ele>614</ele>
        <time>2021-04-22T10:13:58Z</time>
      </trkpt>
      <trkpt lat="44.86483" lon="5.67707">
        <ele>614.5</ele>
        <time>2021-04-22T10:14:00Z</time>
      </trkpt>
      <trkpt lat="44.86482" lon="5.67701">
        <ele>614.9</ele>
        <time>2021-04-22T10:14:01Z</time>
      </trkpt>
      <trkpt lat="44.86482" lon="5.67699">
        <ele>615</ele>
        <time>2021-04-22T10:14:02Z</time>
      </trkpt>
      <trkpt lat="44.8648" lon="5.67691">
        <ele>615.5</ele>
        <time>2021-04-22T10:14:04Z</time>
      </trkpt>
      <trkpt lat="44.86479" lon="5.67687">
        <ele>615.7</ele>
        <time>2021-04-22T10:14:05Z</time>
      </trkpt>
      <trkpt lat="44.86477" lon="5.6768">
        <ele>616.1</ele>
        <time>2021-04-22T10:14:07Z</time>
      </trkpt>
      <trkpt lat="44.86476" lon="5.67676">
        <ele>616.3</ele>
        <time>2021-04-22T10:14:08Z</time>
      </trkpt>
      <trkpt lat="44.86475" lon="5.6767">
        <ele>616.6</ele>
        <time>2021-04-22T10:14:10Z</time>
      </trkpt>
      <trkpt lat="44.86474" lon="5.67665">
        <ele>616.9</ele>
        <time>2021-04-22T10:14:12Z</time>
      </trkpt>
      <trkpt lat="44.86473" lon="5.67661">
        <ele>617.1</ele>
        <time>2021-04-22T10:14:13Z</time>
      </trkpt>
      <trkpt lat="44.86472" lon="5.6766">
        <ele>617.2</ele>
        <time>2021-04-22T10:14:14Z</time>
      </trkpt>
      <trkpt lat="44.86471" lon="5.67656">
        <ele>617.4</ele>
        <time>2021-04-22T10:14:15Z</time>
      </trkpt>
      <trkpt lat="44.86471" lon="5.67654">
        <ele>617.5</ele>
        <time>2021-04-22T10:14:16Z</time>
      </trkpt>
      <trkpt lat="44.8647" lon="5.6765">
        <ele>617.7</ele>
        <time>2021-04-22T10:14:17Z</time>
      </trkpt>
      <trkpt lat="44.86469" lon="5.67646">
        <ele>617.9</ele>
        <time>2021-04-22T10:14:18Z</time>
      </trkpt>
      <trkpt lat="44.86467" lon="5.67641">
        <ele>618.3</ele>
        <time>2021-04-22T10:14:20Z</time>
      </trkpt>
      <trkpt lat="44.86466" lon="5.67637">
        <ele>618.5</ele>
        <time>2021-04-22T10:14:21Z</time>
      </trkpt>
      <trkpt lat="44.86465" lon="5.67633">
        <ele>618.7</ele>
        <time>2021-04-22T10:14:22Z</time>
      </trkpt>
      <trkpt lat="44.86464" lon="5.67628">
        <ele>619</ele>
        <time>2021-04-22T10:14:23Z</time>
      </trkpt>
      <trkpt lat="44.86464" lon="5.67626">
        <ele>619.1</ele>
        <time>2021-04-22T10:14:24Z</time>
      </trkpt>
      <trkpt lat="44.86463" lon="5.67621">
        <ele>619.4</ele>
        <time>2021-04-22T10:14:25Z</time>
      </trkpt>
      <trkpt lat="44.86463" lon="5.6762">
        <ele>619.5</ele>
        <time>2021-04-22T10:14:26Z</time>
      </trkpt>
      <trkpt lat="44.86461" lon="5.67614">
        <ele>619.9</ele>
        <time>2021-04-22T10:14:28Z</time>
      </trkpt>
      <trkpt lat="44.86461" lon="5.67611">
        <ele>620.1</ele>
        <time>2021-04-22T10:14:29Z</time>
      </trkpt>
      <trkpt lat="44.8646" lon="5.67609">
        <ele>620.2</ele>
        <time>2021-04-22T10:14:30Z</time>
      </trkpt>
      <trkpt lat="44.8646" lon="5.67605">
        <ele>620.5</ele>
        <time>2021-04-22T10:14:31Z</time>
      </trkpt>
      <trkpt lat="44.86459" lon="5.67603">
        <ele>620.6</ele>
        <time>2021-04-22T10:14:32Z</time>
      </trkpt>
      <trkpt lat="44.86459" lon="5.67599">
        <ele>621</ele>
        <time>2021-04-22T10:14:33Z</time>
      </trkpt>
      <trkpt lat="44.86459" lon="5.67596">
        <ele>621.1</ele>
        <time>2021-04-22T10:14:34Z</time>
      </trkpt>
      <trkpt lat="44.86458" lon="5.67592">
        <ele>621.4</ele>
        <time>2021-04-22T10:14:36Z</time>
      </trkpt>
      <trkpt lat="44.86458" lon="5.67591">
        <ele>621.5</ele>
        <time>2021-04-22T10:14:37Z</time>
      </trkpt>
      <trkpt lat="44.86456" lon="5.67586">
        <ele>621.8</ele>
        <time>2021-04-22T10:14:39Z</time>
      </trkpt>
      <trkpt lat="44.86454" lon="5.67582">
        <ele>622.2</ele>
        <time>2021-04-22T10:14:40Z</time>
      </trkpt>
      <trkpt lat="44.86452" lon="5.67576">
        <ele>622.7</ele>
        <time>2021-04-22T10:14:41Z</time>
      </trkpt>
      <trkpt lat="44.86451" lon="5.6757">
        <ele>623.1</ele>
        <time>2021-04-22T10:14:43Z</time>
      </trkpt>
      <trkpt lat="44.86449" lon="5.67563">
        <ele>623.5</ele>
        <time>2021-04-22T10:14:45Z</time>
      </trkpt>
      <trkpt lat="44.86449" lon="5.6756">
        <ele>623.7</ele>
        <time>2021-04-22T10:14:46Z</time>
      </trkpt>
      <trkpt lat="44.86448" lon="5.67552">
        <ele>624</ele>
        <time>2021-04-22T10:14:48Z</time>
      </trkpt>
      <trkpt lat="44.86447" lon="5.67546">
        <ele>624.2</ele>
        <time>2021-04-22T10:14:50Z</time>
      </trkpt>
      <trkpt lat="44.86446" lon="5.67542">
        <ele>624.4</ele>
        <time>2021-04-22T10:14:51Z</time>
      </trkpt>
      <trkpt lat="44.86446" lon="5.6754">
        <ele>624.5</ele>
        <time>2021-04-22T10:14:52Z</time>
      </trkpt>
      <trkpt lat="44.86445" lon="5.67537">
        <ele>624.6</ele>
        <time>2021-04-22T10:14:53Z</time>
      </trkpt>
      <trkpt lat="44.86444" lon="5.67531">
        <ele>624.8</ele>
        <time>2021-04-22T10:14:55Z</time>
      </trkpt>
      <trkpt lat="44.86442" lon="5.67526">
        <ele>624.9</ele>
        <time>2021-04-22T10:14:56Z</time>
      </trkpt>
      <trkpt lat="44.86437" lon="5.67522">
        <ele>625.2</ele>
        <time>2021-04-22T10:14:58Z</time>
      </trkpt>
      <trkpt lat="44.86431" lon="5.67523">
        <ele>625.5</ele>
        <time>2021-04-22T10:15:00Z</time>
      </trkpt>
      <trkpt lat="44.86428" lon="5.67524">
        <ele>625.6</ele>
        <time>2021-04-22T10:15:01Z</time>
      </trkpt>
      <trkpt lat="44.86426" lon="5.67527">
        <ele>625.7</ele>
        <time>2021-04-22T10:15:02Z</time>
      </trkpt>
      <trkpt lat="44.86422" lon="5.67536">
        <ele>626</ele>
        <time>2021-04-22T10:15:04Z</time>
      </trkpt>
      <trkpt lat="44.86422" lon="5.67543">
        <ele>626.1</ele>
        <time>2021-04-22T10:15:05Z</time>
      </trkpt>
      <trkpt lat="44.86422" lon="5.67549">
        <ele>626.3</ele>
        <time>2021-04-22T10:15:06Z</time>
      </trkpt>
      <trkpt lat="44.86422" lon="5.67557">
        <ele>626.5</ele>
        <time>2021-04-22T10:15:07Z</time>
      </trkpt>
      <trkpt lat="44.86423" lon="5.67563">
        <ele>626.7</ele>
        <time>2021-04-22T10:15:09Z</time>
      </trkpt>
      <trkpt lat="44.86424" lon="5.67567">
        <ele>626.8</ele>
        <time>2021-04-22T10:15:10Z</time>
      </trkpt>
      <trkpt lat="44.86424" lon="5.67572">
        <ele>627.1</ele>
        <time>2021-04-22T10:15:11Z</time>
      </trkpt>
      <trkpt lat="44.86424" lon="5.67578">
        <ele>627.3</ele>
        <time>2021-04-22T10:15:12Z</time>
      </trkpt>
      <trkpt lat="44.86424" lon="5.67585">
        <ele>627.7</ele>
        <time>2021-04-22T10:15:14Z</time>
      </trkpt>
      <trkpt lat="44.86424" lon="5.6759">
        <ele>628</ele>
        <time>2021-04-22T10:15:15Z</time>
      </trkpt>
      <trkpt lat="44.86423" lon="5.67593">
        <ele>628.2</ele>
        <time>2021-04-22T10:15:16Z</time>
      </trkpt>
      <trkpt lat="44.86422" lon="5.67599">
        <ele>628.5</ele>
        <time>2021-04-22T10:15:17Z</time>
      </trkpt>
      <trkpt lat="44.86421" lon="5.67604">
        <ele>628.7</ele>
        <time>2021-04-22T10:15:19Z</time>
      </trkpt>
      <trkpt lat="44.8642" lon="5.67606">
        <ele>628.8</ele>
        <time>2021-04-22T10:15:20Z</time>
      </trkpt>
      <trkpt lat="44.86419" lon="5.67613">
        <ele>629.2</ele>
        <time>2021-04-22T10:15:21Z</time>
      </trkpt>
      <trkpt lat="44.86418" lon="5.67615">
        <ele>629.4</ele>
        <time>2021-04-22T10:15:22Z</time>
      </trkpt>
      <trkpt lat="44.86417" lon="5.67619">
        <ele>629.5</ele>
        <time>2021-04-22T10:15:23Z</time>
      </trkpt>
      <trkpt lat="44.86416" lon="5.67621">
        <ele>629.7</ele>
        <time>2021-04-22T10:15:25Z</time>
      </trkpt>
      <trkpt lat="44.86414" lon="5.67626">
        <ele>630</ele>
        <time>2021-04-22T10:15:26Z</time>
      </trkpt>
      <trkpt lat="44.86413" lon="5.67628">
        <ele>630.1</ele>
        <time>2021-04-22T10:15:27Z</time>
      </trkpt>
      <trkpt lat="44.86411" lon="5.67631">
        <ele>630.3</ele>
        <time>2021-04-22T10:15:28Z</time>
      </trkpt>
      <trkpt lat="44.86409" lon="5.67637">
        <ele>630.6</ele>
        <time>2021-04-22T10:15:30Z</time>
      </trkpt>
      <trkpt lat="44.86408" lon="5.6764">
        <ele>630.8</ele>
        <time>2021-04-22T10:15:31Z</time>
      </trkpt>
      <trkpt lat="44.86406" lon="5.67645">
        <ele>631.1</ele>
        <time>2021-04-22T10:15:33Z</time>
      </trkpt>
      <trkpt lat="44.86404" lon="5.67649">
        <ele>631.3</ele>
        <time>2021-04-22T10:15:34Z</time>
      </trkpt>
      <trkpt lat="44.86402" lon="5.67655">
        <ele>631.7</ele>
        <time>2021-04-22T10:15:36Z</time>
      </trkpt>
      <trkpt lat="44.864" lon="5.6766">
        <ele>632</ele>
        <time>2021-04-22T10:15:38Z</time>
      </trkpt>
      <trkpt lat="44.86398" lon="5.67666">
        <ele>632.3</ele>
        <time>2021-04-22T10:15:40Z</time>
      </trkpt>
      <trkpt lat="44.86396" lon="5.67671">
        <ele>632.6</ele>
        <time>2021-04-22T10:15:42Z</time>
      </trkpt>
      <trkpt lat="44.86395" lon="5.67674">
        <ele>632.8</ele>
        <time>2021-04-22T10:15:43Z</time>
      </trkpt>
      <trkpt lat="44.86392" lon="5.6768">
        <ele>633.1</ele>
        <time>2021-04-22T10:15:45Z</time>
      </trkpt>
      <trkpt lat="44.86391" lon="5.67683">
        <ele>633.4</ele>
        <time>2021-04-22T10:15:46Z</time>
      </trkpt>
      <trkpt lat="44.86389" lon="5.67688">
        <ele>633.7</ele>
        <time>2021-04-22T10:15:48Z</time>
      </trkpt>
      <trkpt lat="44.86387" lon="5.67692">
        <ele>634</ele>
        <time>2021-04-22T10:15:49Z</time>
      </trkpt>
      <trkpt lat="44.86387" lon="5.67693">
        <ele>634</ele>
        <time>2021-04-22T10:15:50Z</time>
      </trkpt>
      <trkpt lat="44.86385" lon="5.67697">
        <ele>634.3</ele>
        <time>2021-04-22T10:15:51Z</time>
      </trkpt>
      <trkpt lat="44.86384" lon="5.677">
        <ele>634.5</ele>
        <time>2021-04-22T10:15:52Z</time>
      </trkpt>
      <trkpt lat="44.86382" lon="5.67704">
        <ele>634.8</ele>
        <time>2021-04-22T10:15:53Z</time>
      </trkpt>
      <trkpt lat="44.8638" lon="5.67709">
        <ele>635.1</ele>
        <time>2021-04-22T10:15:55Z</time>
      </trkpt>
      <trkpt lat="44.86376" lon="5.67714">
        <ele>635.6</ele>
        <time>2021-04-22T10:15:56Z</time>
      </trkpt>
      <trkpt lat="44.86374" lon="5.67718">
        <ele>635.8</ele>
        <time>2021-04-22T10:15:57Z</time>
      </trkpt>
      <trkpt lat="44.86372" lon="5.67723">
        <ele>636.2</ele>
        <time>2021-04-22T10:15:59Z</time>
      </trkpt>
      <trkpt lat="44.86372" lon="5.67725">
        <ele>636.3</ele>
        <time>2021-04-22T10:16:00Z</time>
      </trkpt>
      <trkpt lat="44.86371" lon="5.67727">
        <ele>636.4</ele>
        <time>2021-04-22T10:16:01Z</time>
      </trkpt>
      <trkpt lat="44.8637" lon="5.67732">
        <ele>636.7</ele>
        <time>2021-04-22T10:16:02Z</time>
      </trkpt>
      <trkpt lat="44.86368" lon="5.67736">
        <ele>637</ele>
        <time>2021-04-22T10:16:04Z</time>
      </trkpt>
      <trkpt lat="44.86365" lon="5.67742">
        <ele>637.4</ele>
        <time>2021-04-22T10:16:06Z</time>
      </trkpt>
      <trkpt lat="44.86364" lon="5.67746">
        <ele>637.6</ele>
        <time>2021-04-22T10:16:08Z</time>
      </trkpt>
      <trkpt lat="44.86363" lon="5.67749">
        <ele>637.8</ele>
        <time>2021-04-22T10:16:09Z</time>
      </trkpt>
      <trkpt lat="44.86361" lon="5.67754">
        <ele>638.2</ele>
        <time>2021-04-22T10:16:11Z</time>
      </trkpt>
      <trkpt lat="44.86358" lon="5.67759">
        <ele>638.5</ele>
        <time>2021-04-22T10:16:13Z</time>
      </trkpt>
      <trkpt lat="44.86357" lon="5.67763">
        <ele>638.7</ele>
        <time>2021-04-22T10:16:14Z</time>
      </trkpt>
      <trkpt lat="44.86355" lon="5.67768">
        <ele>639.1</ele>
        <time>2021-04-22T10:16:15Z</time>
      </trkpt>
      <trkpt lat="44.86353" lon="5.67772">
        <ele>639.3</ele>
        <time>2021-04-22T10:16:17Z</time>
      </trkpt>
      <trkpt lat="44.86351" lon="5.67777">
        <ele>639.6</ele>
        <time>2021-04-22T10:16:18Z</time>
      </trkpt>
      <trkpt lat="44.8635" lon="5.6778">
        <ele>639.8</ele>
        <time>2021-04-22T10:16:19Z</time>
      </trkpt>
      <trkpt lat="44.86349" lon="5.67785">
        <ele>640.1</ele>
        <time>2021-04-22T10:16:21Z</time>
      </trkpt>
      <trkpt lat="44.86346" lon="5.67789">
        <ele>640.4</ele>
        <time>2021-04-22T10:16:23Z</time>
      </trkpt>
      <trkpt lat="44.86344" lon="5.67795">
        <ele>640.8</ele>
        <time>2021-04-22T10:16:25Z</time>
      </trkpt>
      <trkpt lat="44.86343" lon="5.67799">
        <ele>641</ele>
        <time>2021-04-22T10:16:26Z</time>
      </trkpt>
      <trkpt lat="44.86342" lon="5.678">
        <ele>641.1</ele>
        <time>2021-04-22T10:16:27Z</time>
      </trkpt>
      <trkpt lat="44.8634" lon="5.67803">
        <ele>641.3</ele>
        <time>2021-04-22T10:16:28Z</time>
      </trkpt>
      <trkpt lat="44.86338" lon="5.67808">
        <ele>641.7</ele>
        <time>2021-04-22T10:16:30Z</time>
      </trkpt>
      <trkpt lat="44.86337" lon="5.67812">
        <ele>641.9</ele>
        <time>2021-04-22T10:16:31Z</time>
      </trkpt>
      <trkpt lat="44.86335" lon="5.67817">
        <ele>642.2</ele>
        <time>2021-04-22T10:16:33Z</time>
      </trkpt>
      <trkpt lat="44.86333" lon="5.67821">
        <ele>642.5</ele>
        <time>2021-04-22T10:16:34Z</time>
      </trkpt>
      <trkpt lat="44.86332" lon="5.67825">
        <ele>642.7</ele>
        <time>2021-04-22T10:16:35Z</time>
      </trkpt>
      <trkpt lat="44.8633" lon="5.67829">
        <ele>643</ele>
        <time>2021-04-22T10:16:37Z</time>
      </trkpt>
      <trkpt lat="44.86328" lon="5.67836">
        <ele>643.4</ele>
        <time>2021-04-22T10:16:39Z</time>
      </trkpt>
      <trkpt lat="44.86325" lon="5.67843">
        <ele>643.8</ele>
        <time>2021-04-22T10:16:41Z</time>
      </trkpt>
      <trkpt lat="44.86322" lon="5.6785">
        <ele>644.2</ele>
        <time>2021-04-22T10:16:43Z</time>
      </trkpt>
      <trkpt lat="44.8632" lon="5.67855">
        <ele>644.5</ele>
        <time>2021-04-22T10:16:45Z</time>
      </trkpt>
      <trkpt lat="44.86318" lon="5.6786">
        <ele>644.8</ele>
        <time>2021-04-22T10:16:46Z</time>
      </trkpt>
      <trkpt lat="44.86316" lon="5.67866">
        <ele>645.2</ele>
        <time>2021-04-22T10:16:48Z</time>
      </trkpt>
      <trkpt lat="44.86314" lon="5.6787">
        <ele>645.5</ele>
        <time>2021-04-22T10:16:50Z</time>
      </trkpt>
      <trkpt lat="44.86312" lon="5.67874">
        <ele>645.7</ele>
        <time>2021-04-22T10:16:51Z</time>
      </trkpt>
      <trkpt lat="44.8631" lon="5.67879">
        <ele>646</ele>
        <time>2021-04-22T10:16:53Z</time>
      </trkpt>
      <trkpt lat="44.86309" lon="5.67883">
        <ele>646.2</ele>
        <time>2021-04-22T10:16:54Z</time>
      </trkpt>
      <trkpt lat="44.86307" lon="5.67887">
        <ele>646.4</ele>
        <time>2021-04-22T10:16:55Z</time>
      </trkpt>
      <trkpt lat="44.86305" lon="5.67891">
        <ele>646.7</ele>
        <time>2021-04-22T10:16:57Z</time>
      </trkpt>
      <trkpt lat="44.86304" lon="5.67894">
        <ele>646.9</ele>
        <time>2021-04-22T10:16:58Z</time>
      </trkpt>
      <trkpt lat="44.86302" lon="5.67898">
        <ele>647.2</ele>
        <time>2021-04-22T10:16:59Z</time>
      </trkpt>
      <trkpt lat="44.863" lon="5.67903">
        <ele>647.5</ele>
        <time>2021-04-22T10:17:01Z</time>
      </trkpt>
      <trkpt lat="44.86298" lon="5.67907">
        <ele>647.7</ele>
        <time>2021-04-22T10:17:02Z</time>
      </trkpt>
      <trkpt lat="44.86297" lon="5.67913">
        <ele>648</ele>
        <time>2021-04-22T10:17:04Z</time>
      </trkpt>
      <trkpt lat="44.86295" lon="5.67917">
        <ele>648.3</ele>
        <time>2021-04-22T10:17:05Z</time>
      </trkpt>
      <trkpt lat="44.86294" lon="5.67922">
        <ele>648.6</ele>
        <time>2021-04-22T10:17:06Z</time>
      </trkpt>
      <trkpt lat="44.86293" lon="5.67923">
        <ele>648.7</ele>
        <time>2021-04-22T10:17:07Z</time>
      </trkpt>
      <trkpt lat="44.86292" lon="5.67927">
        <ele>648.8</ele>
        <time>2021-04-22T10:17:08Z</time>
      </trkpt>
      <trkpt lat="44.86291" lon="5.67932">
        <ele>649.1</ele>
        <time>2021-04-22T10:17:10Z</time>
      </trkpt>
      <trkpt lat="44.8629" lon="5.67934">
        <ele>649.2</ele>
        <time>2021-04-22T10:17:11Z</time>
      </trkpt>
      <trkpt lat="44.86289" lon="5.67938">
        <ele>649.4</ele>
        <time>2021-04-22T10:17:12Z</time>
      </trkpt>
      <trkpt lat="44.86287" lon="5.67943">
        <ele>649.6</ele>
        <time>2021-04-22T10:17:14Z</time>
      </trkpt>
      <trkpt lat="44.86286" lon="5.67946">
        <ele>649.8</ele>
        <time>2021-04-22T10:17:15Z</time>
      </trkpt>
      <trkpt lat="44.86284" lon="5.67952">
        <ele>650</ele>
        <time>2021-04-22T10:17:17Z</time>
      </trkpt>
      <trkpt lat="44.86283" lon="5.67954">
        <ele>650.1</ele>
        <time>2021-04-22T10:17:18Z</time>
      </trkpt>
      <trkpt lat="44.86279" lon="5.67959">
        <ele>650.4</ele>
        <time>2021-04-22T10:17:20Z</time>
      </trkpt>
      <trkpt lat="44.86276" lon="5.67962">
        <ele>650.5</ele>
        <time>2021-04-22T10:17:21Z</time>
      </trkpt>
      <trkpt lat="44.86275" lon="5.67962">
        <ele>650.6</ele>
        <time>2021-04-22T10:17:22Z</time>
      </trkpt>
      <trkpt lat="44.86272" lon="5.67965">
        <ele>650.7</ele>
        <time>2021-04-22T10:17:23Z</time>
      </trkpt>
      <trkpt lat="44.86271" lon="5.67966">
        <ele>650.8</ele>
        <time>2021-04-22T10:17:24Z</time>
      </trkpt>
      <trkpt lat="44.86268" lon="5.6797">
        <ele>651</ele>
        <time>2021-04-22T10:17:25Z</time>
      </trkpt>
      <trkpt lat="44.86265" lon="5.67976">
        <ele>651.2</ele>
        <time>2021-04-22T10:17:27Z</time>
      </trkpt>
      <trkpt lat="44.86261" lon="5.67982">
        <ele>651.4</ele>
        <time>2021-04-22T10:17:29Z</time>
      </trkpt>
      <trkpt lat="44.86258" lon="5.67987">
        <ele>651.5</ele>
        <time>2021-04-22T10:17:30Z</time>
      </trkpt>
      <trkpt lat="44.86257" lon="5.67989">
        <ele>651.6</ele>
        <time>2021-04-22T10:17:31Z</time>
      </trkpt>
      <trkpt lat="44.86254" lon="5.67994">
        <ele>651.8</ele>
        <time>2021-04-22T10:17:33Z</time>
      </trkpt>
      <trkpt lat="44.86253" lon="5.67997">
        <ele>651.9</ele>
        <time>2021-04-22T10:17:34Z</time>
      </trkpt>
      <trkpt lat="44.86251" lon="5.68001">
        <ele>652</ele>
        <time>2021-04-22T10:17:35Z</time>
      </trkpt>
      <trkpt lat="44.86248" lon="5.68007">
        <ele>652.1</ele>
        <time>2021-04-22T10:17:37Z</time>
      </trkpt>
      <trkpt lat="44.86245" lon="5.68011">
        <ele>652.3</ele>
        <time>2021-04-22T10:17:38Z</time>
      </trkpt>
      <trkpt lat="44.86245" lon="5.68012">
        <ele>652.3</ele>
        <time>2021-04-22T10:17:39Z</time>
      </trkpt>
      <trkpt lat="44.86243" lon="5.68014">
        <ele>652.4</ele>
        <time>2021-04-22T10:17:40Z</time>
      </trkpt>
      <trkpt lat="44.86242" lon="5.68015">
        <ele>652.4</ele>
        <time>2021-04-22T10:17:41Z</time>
      </trkpt>
      <trkpt lat="44.86244" lon="5.68013">
        <ele>652.5</ele>
        <time>2021-04-22T10:17:43Z</time>
      </trkpt>
      <trkpt lat="44.86245" lon="5.68012">
        <ele>652.6</ele>
        <time>2021-04-22T10:17:44Z</time>
      </trkpt>
      <trkpt lat="44.86245" lon="5.68012">
        <ele>652.6</ele>
        <time>2021-04-22T10:17:45Z</time>
      </trkpt>
      <trkpt lat="44.86245" lon="5.68011">
        <ele>652.6</ele>
        <time>2021-04-22T10:17:46Z</time>
      </trkpt>
      <trkpt lat="44.86245" lon="5.68011">
        <ele>652.6</ele>
        <time>2021-04-22T10:17:48Z</time>
      </trkpt>
      <trkpt lat="44.86245" lon="5.68011">
        <ele>652.6</ele>
        <time>2021-04-22T10:17:49Z</time>
      </trkpt>
      <trkpt lat="44.86245" lon="5.68011">
        <ele>652.6</ele>
        <time>2021-04-22T10:17:50Z</time>
      </trkpt>
      <trkpt lat="44.86244" lon="5.68011">
        <ele>652.7</ele>
        <time>2021-04-22T10:17:51Z</time>
      </trkpt>
      <trkpt lat="44.86243" lon="5.68015">
        <ele>652.8</ele>
        <time>2021-04-22T10:19:22Z</time>
      </trkpt>
      <trkpt lat="44.86243" lon="5.68016">
        <ele>652.8</ele>
        <time>2021-04-22T10:19:23Z</time>
      </trkpt>
      <trkpt lat="44.86242" lon="5.68017">
        <ele>652.9</ele>
        <time>2021-04-22T10:19:24Z</time>
      </trkpt>
      <trkpt lat="44.86242" lon="5.68017">
        <ele>652.9</ele>
        <time>2021-04-22T10:19:25Z</time>
      </trkpt>
      <trkpt lat="44.86241" lon="5.68017">
        <ele>652.9</ele>
        <time>2021-04-22T10:19:26Z</time>
      </trkpt>
      <trkpt lat="44.8624" lon="5.68017">
        <ele>653</ele>
        <time>2021-04-22T10:19:27Z</time>
      </trkpt>
      <trkpt lat="44.8624" lon="5.68017">
        <ele>653</ele>
        <time>2021-04-22T10:19:28Z</time>
      </trkpt>
      <trkpt lat="44.8624" lon="5.68017">
        <ele>653</ele>
        <time>2021-04-22T10:19:29Z</time>
      </trkpt>
      <trkpt lat="44.8624" lon="5.68017">
        <ele>653</ele>
        <time>2021-04-22T10:19:30Z</time>
      </trkpt>
      <trkpt lat="44.8624" lon="5.68017">
        <ele>653</ele>
        <time>2021-04-22T10:19:31Z</time>
      </trkpt>
      <trkpt lat="44.8624" lon="5.68017">
        <ele>653</ele>
        <time>2021-04-22T10:19:32Z</time>
      </trkpt>
      <trkpt lat="44.86239" lon="5.68018">
        <ele>653</ele>
        <time>2021-04-22T10:19:33Z</time>
      </trkpt>
      <trkpt lat="44.86239" lon="5.68019">
        <ele>653.1</ele>
        <time>2021-04-22T10:19:34Z</time>
      </trkpt>
      <trkpt lat="44.86239" lon="5.6802">
        <ele>653.1</ele>
        <time>2021-04-22T10:19:35Z</time>
      </trkpt>
      <trkpt lat="44.86239" lon="5.68021">
        <ele>653.1</ele>
        <time>2021-04-22T10:19:36Z</time>
      </trkpt>
      <trkpt lat="44.86238" lon="5.68023">
        <ele>653.2</ele>
        <time>2021-04-22T10:19:37Z</time>
      </trkpt>
      <trkpt lat="44.86237" lon="5.68026">
        <ele>653.3</ele>
        <time>2021-04-22T10:19:38Z</time>
      </trkpt>
      <trkpt lat="44.86235" lon="5.68029">
        <ele>653.5</ele>
        <time>2021-04-22T10:19:39Z</time>
      </trkpt>
      <trkpt lat="44.86232" lon="5.68034">
        <ele>653.8</ele>
        <time>2021-04-22T10:19:41Z</time>
      </trkpt>
      <trkpt lat="44.86229" lon="5.68039">
        <ele>654</ele>
        <time>2021-04-22T10:19:43Z</time>
      </trkpt>
      <trkpt lat="44.86226" lon="5.68043">
        <ele>654.2</ele>
        <time>2021-04-22T10:19:44Z</time>
      </trkpt>
      <trkpt lat="44.86225" lon="5.68045">
        <ele>654.3</ele>
        <time>2021-04-22T10:19:45Z</time>
      </trkpt>
      <trkpt lat="44.86222" lon="5.6805">
        <ele>654.6</ele>
        <time>2021-04-22T10:19:47Z</time>
      </trkpt>
      <trkpt lat="44.86218" lon="5.68057">
        <ele>655</ele>
        <time>2021-04-22T10:19:49Z</time>
      </trkpt>
      <trkpt lat="44.86215" lon="5.68063">
        <ele>655.4</ele>
        <time>2021-04-22T10:19:51Z</time>
      </trkpt>
      <trkpt lat="44.86212" lon="5.68067">
        <ele>655.6</ele>
        <time>2021-04-22T10:19:52Z</time>
      </trkpt>
      <trkpt lat="44.86211" lon="5.68068">
        <ele>655.7</ele>
        <time>2021-04-22T10:19:53Z</time>
      </trkpt>
      <trkpt lat="44.86209" lon="5.68071">
        <ele>655.9</ele>
        <time>2021-04-22T10:19:54Z</time>
      </trkpt>
      <trkpt lat="44.86207" lon="5.68074">
        <ele>656.1</ele>
        <time>2021-04-22T10:19:55Z</time>
      </trkpt>
      <trkpt lat="44.86205" lon="5.68077">
        <ele>656.3</ele>
        <time>2021-04-22T10:19:56Z</time>
      </trkpt>
      <trkpt lat="44.86203" lon="5.6808">
        <ele>656.5</ele>
        <time>2021-04-22T10:19:57Z</time>
      </trkpt>
      <trkpt lat="44.86201" lon="5.68082">
        <ele>656.7</ele>
        <time>2021-04-22T10:19:58Z</time>
      </trkpt>
      <trkpt lat="44.86199" lon="5.68086">
        <ele>657</ele>
        <time>2021-04-22T10:19:59Z</time>
      </trkpt>
      <trkpt lat="44.86196" lon="5.6809">
        <ele>657.3</ele>
        <time>2021-04-22T10:20:01Z</time>
      </trkpt>
      <trkpt lat="44.86193" lon="5.68094">
        <ele>657.6</ele>
        <time>2021-04-22T10:20:02Z</time>
      </trkpt>
      <trkpt lat="44.86189" lon="5.68099">
        <ele>658</ele>
        <time>2021-04-22T10:20:04Z</time>
      </trkpt>
      <trkpt lat="44.86186" lon="5.68103">
        <ele>658.3</ele>
        <time>2021-04-22T10:20:05Z</time>
      </trkpt>
      <trkpt lat="44.86185" lon="5.68104">
        <ele>658.4</ele>
        <time>2021-04-22T10:20:06Z</time>
      </trkpt>
      <trkpt lat="44.86181" lon="5.68108">
        <ele>658.8</ele>
        <time>2021-04-22T10:20:08Z</time>
      </trkpt>
      <trkpt lat="44.86179" lon="5.68112">
        <ele>659.1</ele>
        <time>2021-04-22T10:20:09Z</time>
      </trkpt>
      <trkpt lat="44.86178" lon="5.68113">
        <ele>659.2</ele>
        <time>2021-04-22T10:20:10Z</time>
      </trkpt>
      <trkpt lat="44.86175" lon="5.68116">
        <ele>659.6</ele>
        <time>2021-04-22T10:20:11Z</time>
      </trkpt>
      <trkpt lat="44.86173" lon="5.68117">
        <ele>659.7</ele>
        <time>2021-04-22T10:20:12Z</time>
      </trkpt>
      <trkpt lat="44.86171" lon="5.68119">
        <ele>659.9</ele>
        <time>2021-04-22T10:20:13Z</time>
      </trkpt>
      <trkpt lat="44.86169" lon="5.68121">
        <ele>660.1</ele>
        <time>2021-04-22T10:20:14Z</time>
      </trkpt>
      <trkpt lat="44.86165" lon="5.68124">
        <ele>660.5</ele>
        <time>2021-04-22T10:20:15Z</time>
      </trkpt>
      <trkpt lat="44.86164" lon="5.68125">
        <ele>660.6</ele>
        <time>2021-04-22T10:20:16Z</time>
      </trkpt>
      <trkpt lat="44.86162" lon="5.68127">
        <ele>660.9</ele>
        <time>2021-04-22T10:20:17Z</time>
      </trkpt>
      <trkpt lat="44.86157" lon="5.6813">
        <ele>661.3</ele>
        <time>2021-04-22T10:20:19Z</time>
      </trkpt>
      <trkpt lat="44.86153" lon="5.68133">
        <ele>661.7</ele>
        <time>2021-04-22T10:20:21Z</time>
      </trkpt>
      <trkpt lat="44.8615" lon="5.68135">
        <ele>661.9</ele>
        <time>2021-04-22T10:20:22Z</time>
      </trkpt>
      <trkpt lat="44.86146" lon="5.68138">
        <ele>662.4</ele>
        <time>2021-04-22T10:20:24Z</time>
      </trkpt>
      <trkpt lat="44.86141" lon="5.68141">
        <ele>662.8</ele>
        <time>2021-04-22T10:20:26Z</time>
      </trkpt>
      <trkpt lat="44.86137" lon="5.68142">
        <ele>663.1</ele>
        <time>2021-04-22T10:20:27Z</time>
      </trkpt>
      <trkpt lat="44.86136" lon="5.68142">
        <ele>663.3</ele>
        <time>2021-04-22T10:20:28Z</time>
      </trkpt>
      <trkpt lat="44.86133" lon="5.68143">
        <ele>663.5</ele>
        <time>2021-04-22T10:20:29Z</time>
      </trkpt>
      <trkpt lat="44.86129" lon="5.68144">
        <ele>663.9</ele>
        <time>2021-04-22T10:20:30Z</time>
      </trkpt>
      <trkpt lat="44.86126" lon="5.68146">
        <ele>664.2</ele>
        <time>2021-04-22T10:20:32Z</time>
      </trkpt>
      <trkpt lat="44.86123" lon="5.68147">
        <ele>664.4</ele>
        <time>2021-04-22T10:20:33Z</time>
      </trkpt>
      <trkpt lat="44.8612" lon="5.68149">
        <ele>664.8</ele>
        <time>2021-04-22T10:20:35Z</time>
      </trkpt>
      <trkpt lat="44.86117" lon="5.6815">
        <ele>665</ele>
        <time>2021-04-22T10:20:36Z</time>
      </trkpt>
      <trkpt lat="44.86115" lon="5.68151">
        <ele>665.2</ele>
        <time>2021-04-22T10:20:37Z</time>
      </trkpt>
      <trkpt lat="44.86112" lon="5.68152">
        <ele>665.5</ele>
        <time>2021-04-22T10:20:39Z</time>
      </trkpt>
      <trkpt lat="44.86109" lon="5.68153">
        <ele>665.8</ele>
        <time>2021-04-22T10:20:40Z</time>
      </trkpt>
      <trkpt lat="44.86106" lon="5.68154">
        <ele>666.1</ele>
        <time>2021-04-22T10:20:41Z</time>
      </trkpt>
      <trkpt lat="44.86103" lon="5.68155">
        <ele>666.4</ele>
        <time>2021-04-22T10:20:43Z</time>
      </trkpt>
      <trkpt lat="44.86099" lon="5.68156">
        <ele>666.7</ele>
        <time>2021-04-22T10:20:45Z</time>
      </trkpt>
      <trkpt lat="44.86096" lon="5.68157">
        <ele>667</ele>
        <time>2021-04-22T10:20:46Z</time>
      </trkpt>
      <trkpt lat="44.86095" lon="5.68157">
        <ele>667.1</ele>
        <time>2021-04-22T10:20:47Z</time>
      </trkpt>
      <trkpt lat="44.86092" lon="5.68158">
        <ele>667.4</ele>
        <time>2021-04-22T10:20:48Z</time>
      </trkpt>
      <trkpt lat="44.86088" lon="5.6816">
        <ele>667.8</ele>
        <time>2021-04-22T10:20:50Z</time>
      </trkpt>
      <trkpt lat="44.86085" lon="5.68161">
        <ele>668</ele>
        <time>2021-04-22T10:20:51Z</time>
      </trkpt>
      <trkpt lat="44.86084" lon="5.68161">
        <ele>668.1</ele>
        <time>2021-04-22T10:20:52Z</time>
      </trkpt>
      <trkpt lat="44.8608" lon="5.68162">
        <ele>668.5</ele>
        <time>2021-04-22T10:20:54Z</time>
      </trkpt>
      <trkpt lat="44.86076" lon="5.68163">
        <ele>668.8</ele>
        <time>2021-04-22T10:20:55Z</time>
      </trkpt>
      <trkpt lat="44.86073" lon="5.68164">
        <ele>669.1</ele>
        <time>2021-04-22T10:20:57Z</time>
      </trkpt>
      <trkpt lat="44.86072" lon="5.68164">
        <ele>669.2</ele>
        <time>2021-04-22T10:20:58Z</time>
      </trkpt>
      <trkpt lat="44.86069" lon="5.68166">
        <ele>669.4</ele>
        <time>2021-04-22T10:20:59Z</time>
      </trkpt>
      <trkpt lat="44.86068" lon="5.68166">
        <ele>669.5</ele>
        <time>2021-04-22T10:21:00Z</time>
      </trkpt>
      <trkpt lat="44.86065" lon="5.68168">
        <ele>669.8</ele>
        <time>2021-04-22T10:21:01Z</time>
      </trkpt>
      <trkpt lat="44.86064" lon="5.68168">
        <ele>669.9</ele>
        <time>2021-04-22T10:21:02Z</time>
      </trkpt>
      <trkpt lat="44.8606" lon="5.6817">
        <ele>670.2</ele>
        <time>2021-04-22T10:21:04Z</time>
      </trkpt>
      <trkpt lat="44.86056" lon="5.68172">
        <ele>670.5</ele>
        <time>2021-04-22T10:21:05Z</time>
      </trkpt>
      <trkpt lat="44.86055" lon="5.68172">
        <ele>670.6</ele>
        <time>2021-04-22T10:21:06Z</time>
      </trkpt>
      <trkpt lat="44.8605" lon="5.68175">
        <ele>671</ele>
        <time>2021-04-22T10:21:08Z</time>
      </trkpt>
      <trkpt lat="44.86049" lon="5.68176">
        <ele>671.1</ele>
        <time>2021-04-22T10:21:09Z</time>
      </trkpt>
      <trkpt lat="44.86048" lon="5.68176">
        <ele>671.2</ele>
        <time>2021-04-22T10:21:10Z</time>
      </trkpt>
      <trkpt lat="44.86043" lon="5.68179">
        <ele>671.6</ele>
        <time>2021-04-22T10:21:12Z</time>
      </trkpt>
      <trkpt lat="44.86041" lon="5.68181">
        <ele>671.8</ele>
        <time>2021-04-22T10:21:13Z</time>
      </trkpt>
      <trkpt lat="44.86037" lon="5.68184">
        <ele>672.1</ele>
        <time>2021-04-22T10:21:15Z</time>
      </trkpt>
      <trkpt lat="44.86034" lon="5.68186">
        <ele>672.3</ele>
        <time>2021-04-22T10:21:16Z</time>
      </trkpt>
      <trkpt lat="44.86031" lon="5.68191">
        <ele>672.7</ele>
        <time>2021-04-22T10:21:18Z</time>
      </trkpt>
      <trkpt lat="44.86028" lon="5.68195">
        <ele>673</ele>
        <time>2021-04-22T10:21:19Z</time>
      </trkpt>
      <trkpt lat="44.86026" lon="5.68198">
        <ele>673.2</ele>
        <time>2021-04-22T10:21:21Z</time>
      </trkpt>
      <trkpt lat="44.86024" lon="5.68201">
        <ele>673.5</ele>
        <time>2021-04-22T10:21:22Z</time>
      </trkpt>
      <trkpt lat="44.86023" lon="5.68203">
        <ele>673.6</ele>
        <time>2021-04-22T10:21:23Z</time>
      </trkpt>
      <trkpt lat="44.8602" lon="5.68207">
        <ele>673.9</ele>
        <time>2021-04-22T10:21:25Z</time>
      </trkpt>
      <trkpt lat="44.86019" lon="5.6821">
        <ele>674.1</ele>
        <time>2021-04-22T10:21:26Z</time>
      </trkpt>
      <trkpt lat="44.86017" lon="5.68216">
        <ele>674.6</ele>
        <time>2021-04-22T10:21:28Z</time>
      </trkpt>
      <trkpt lat="44.86016" lon="5.68222">
        <ele>674.9</ele>
        <time>2021-04-22T10:21:30Z</time>
      </trkpt>
      <trkpt lat="44.86015" lon="5.68227">
        <ele>675.2</ele>
        <time>2021-04-22T10:21:31Z</time>
      </trkpt>
      <trkpt lat="44.86015" lon="5.68232">
        <ele>675.5</ele>
        <time>2021-04-22T10:21:33Z</time>
      </trkpt>
      <trkpt lat="44.86015" lon="5.68237">
        <ele>675.8</ele>
        <time>2021-04-22T10:21:34Z</time>
      </trkpt>
      <trkpt lat="44.86014" lon="5.68239">
        <ele>675.9</ele>
        <time>2021-04-22T10:21:35Z</time>
      </trkpt>
      <trkpt lat="44.86014" lon="5.68244">
        <ele>676.2</ele>
        <time>2021-04-22T10:21:36Z</time>
      </trkpt>
      <trkpt lat="44.86014" lon="5.68248">
        <ele>676.5</ele>
        <time>2021-04-22T10:21:38Z</time>
      </trkpt>
      <trkpt lat="44.86014" lon="5.6825">
        <ele>676.6</ele>
        <time>2021-04-22T10:21:39Z</time>
      </trkpt>
      <trkpt lat="44.86014" lon="5.68256">
        <ele>676.9</ele>
        <time>2021-04-22T10:21:40Z</time>
      </trkpt>
      <trkpt lat="44.86014" lon="5.6826">
        <ele>677.2</ele>
        <time>2021-04-22T10:21:42Z</time>
      </trkpt>
      <trkpt lat="44.86014" lon="5.68262">
        <ele>677.3</ele>
        <time>2021-04-22T10:21:43Z</time>
      </trkpt>
      <trkpt lat="44.86014" lon="5.68266">
        <ele>677.5</ele>
        <time>2021-04-22T10:21:44Z</time>
      </trkpt>
      <trkpt lat="44.86014" lon="5.68268">
        <ele>677.6</ele>
        <time>2021-04-22T10:21:45Z</time>
      </trkpt>
      <trkpt lat="44.86014" lon="5.68273">
        <ele>677.9</ele>
        <time>2021-04-22T10:21:46Z</time>
      </trkpt>
      <trkpt lat="44.86014" lon="5.68274">
        <ele>678</ele>
        <time>2021-04-22T10:21:47Z</time>
      </trkpt>
      <trkpt lat="44.86014" lon="5.68279">
        <ele>678.3</ele>
        <time>2021-04-22T10:21:48Z</time>
      </trkpt>
      <trkpt lat="44.86014" lon="5.6828">
        <ele>678.4</ele>
        <time>2021-04-22T10:21:49Z</time>
      </trkpt>
      <trkpt lat="44.86014" lon="5.68285">
        <ele>678.7</ele>
        <time>2021-04-22T10:21:50Z</time>
      </trkpt>
      <trkpt lat="44.86014" lon="5.68287">
        <ele>678.8</ele>
        <time>2021-04-22T10:21:51Z</time>
      </trkpt>
      <trkpt lat="44.86013" lon="5.68291">
        <ele>679.1</ele>
        <time>2021-04-22T10:21:52Z</time>
      </trkpt>
      <trkpt lat="44.86013" lon="5.68292">
        <ele>679.2</ele>
        <time>2021-04-22T10:21:53Z</time>
      </trkpt>
      <trkpt lat="44.86013" lon="5.68297">
        <ele>679.4</ele>
        <time>2021-04-22T10:21:54Z</time>
      </trkpt>
      <trkpt lat="44.86012" lon="5.68299">
        <ele>679.5</ele>
        <time>2021-04-22T10:21:55Z</time>
      </trkpt>
      <trkpt lat="44.86012" lon="5.68303">
        <ele>679.8</ele>
        <time>2021-04-22T10:21:56Z</time>
      </trkpt>
      <trkpt lat="44.86012" lon="5.68305">
        <ele>679.9</ele>
        <time>2021-04-22T10:21:57Z</time>
      </trkpt>
      <trkpt lat="44.8601" lon="5.68309">
        <ele>680.2</ele>
        <time>2021-04-22T10:21:58Z</time>
      </trkpt>
      <trkpt lat="44.8601" lon="5.68311">
        <ele>680.3</ele>
        <time>2021-04-22T10:21:59Z</time>
      </trkpt>
      <trkpt lat="44.86008" lon="5.68316">
        <ele>680.6</ele>
        <time>2021-04-22T10:22:00Z</time>
      </trkpt>
      <trkpt lat="44.86007" lon="5.68318">
        <ele>680.8</ele>
        <time>2021-04-22T10:22:01Z</time>
      </trkpt>
      <trkpt lat="44.86005" lon="5.68322">
        <ele>681.1</ele>
        <time>2021-04-22T10:22:02Z</time>
      </trkpt>
      <trkpt lat="44.86002" lon="5.68328">
        <ele>681.5</ele>
        <time>2021-04-22T10:22:04Z</time>
      </trkpt>
      <trkpt lat="44.85999" lon="5.68332">
        <ele>681.9</ele>
        <time>2021-04-22T10:22:06Z</time>
      </trkpt>
      <trkpt lat="44.85996" lon="5.68335">
        <ele>682.2</ele>
        <time>2021-04-22T10:22:07Z</time>
      </trkpt>
      <trkpt lat="44.85995" lon="5.68336">
        <ele>682.3</ele>
        <time>2021-04-22T10:22:08Z</time>
      </trkpt>
      <trkpt lat="44.85992" lon="5.68339">
        <ele>682.7</ele>
        <time>2021-04-22T10:22:10Z</time>
      </trkpt>
      <trkpt lat="44.85989" lon="5.68341">
        <ele>683</ele>
        <time>2021-04-22T10:22:11Z</time>
      </trkpt>
      <trkpt lat="44.85988" lon="5.68342">
        <ele>683.1</ele>
        <time>2021-04-22T10:22:12Z</time>
      </trkpt>
      <trkpt lat="44.85983" lon="5.68344">
        <ele>683.5</ele>
        <time>2021-04-22T10:22:14Z</time>
      </trkpt>
      <trkpt lat="44.85979" lon="5.68345">
        <ele>683.9</ele>
        <time>2021-04-22T10:22:15Z</time>
      </trkpt>
      <trkpt lat="44.85978" lon="5.68345">
        <ele>684</ele>
        <time>2021-04-22T10:22:16Z</time>
      </trkpt>
      <trkpt lat="44.85975" lon="5.68345">
        <ele>684.3</ele>
        <time>2021-04-22T10:22:17Z</time>
      </trkpt>
      <trkpt lat="44.85971" lon="5.68346">
        <ele>684.6</ele>
        <time>2021-04-22T10:22:19Z</time>
      </trkpt>
      <trkpt lat="44.85967" lon="5.68345">
        <ele>685</ele>
        <time>2021-04-22T10:22:21Z</time>
      </trkpt>
      <trkpt lat="44.85964" lon="5.68345">
        <ele>685.3</ele>
        <time>2021-04-22T10:22:22Z</time>
      </trkpt>
      <trkpt lat="44.8596" lon="5.68344">
        <ele>685.7</ele>
        <time>2021-04-22T10:22:24Z</time>
      </trkpt>
      <trkpt lat="44.85957" lon="5.68344">
        <ele>686</ele>
        <time>2021-04-22T10:22:25Z</time>
      </trkpt>
      <trkpt lat="44.85956" lon="5.68344">
        <ele>686.1</ele>
        <time>2021-04-22T10:22:26Z</time>
      </trkpt>
      <trkpt lat="44.85953" lon="5.68343">
        <ele>686.4</ele>
        <time>2021-04-22T10:22:27Z</time>
      </trkpt>
      <trkpt lat="44.85952" lon="5.68343">
        <ele>686.5</ele>
        <time>2021-04-22T10:22:28Z</time>
      </trkpt>
      <trkpt lat="44.85949" lon="5.68342">
        <ele>686.8</ele>
        <time>2021-04-22T10:22:29Z</time>
      </trkpt>
      <trkpt lat="44.85948" lon="5.68342">
        <ele>686.9</ele>
        <time>2021-04-22T10:22:30Z</time>
      </trkpt>
      <trkpt lat="44.85945" lon="5.68342">
        <ele>687.1</ele>
        <time>2021-04-22T10:22:31Z</time>
      </trkpt>
      <trkpt lat="44.85944" lon="5.68342">
        <ele>687.2</ele>
        <time>2021-04-22T10:22:32Z</time>
      </trkpt>
      <trkpt lat="44.8594" lon="5.68342">
        <ele>687.6</ele>
        <time>2021-04-22T10:22:33Z</time>
      </trkpt>
      <trkpt lat="44.85939" lon="5.68342">
        <ele>687.7</ele>
        <time>2021-04-22T10:22:34Z</time>
      </trkpt>
      <trkpt lat="44.85935" lon="5.68342">
        <ele>688</ele>
        <time>2021-04-22T10:22:35Z</time>
      </trkpt>
      <trkpt lat="44.85931" lon="5.68341">
        <ele>688.3</ele>
        <time>2021-04-22T10:22:37Z</time>
      </trkpt>
      <trkpt lat="44.85931" lon="5.68341">
        <ele>688.3</ele>
        <time>2021-04-22T10:22:38Z</time>
      </trkpt>
      <trkpt lat="44.85928" lon="5.68341">
        <ele>688.5</ele>
        <time>2021-04-22T10:22:39Z</time>
      </trkpt>
      <trkpt lat="44.85925" lon="5.68341">
        <ele>688.8</ele>
        <time>2021-04-22T10:22:40Z</time>
      </trkpt>
      <trkpt lat="44.8592" lon="5.68341">
        <ele>689</ele>
        <time>2021-04-22T10:22:42Z</time>
      </trkpt>
      <trkpt lat="44.85917" lon="5.68341">
        <ele>689.2</ele>
        <time>2021-04-22T10:22:43Z</time>
      </trkpt>
      <trkpt lat="44.85912" lon="5.6834">
        <ele>689.5</ele>
        <time>2021-04-22T10:22:45Z</time>
      </trkpt>
      <trkpt lat="44.85908" lon="5.68341">
        <ele>689.7</ele>
        <time>2021-04-22T10:22:46Z</time>
      </trkpt>
      <trkpt lat="44.85907" lon="5.68341">
        <ele>689.8</ele>
        <time>2021-04-22T10:22:47Z</time>
      </trkpt>
      <trkpt lat="44.85904" lon="5.6834">
        <ele>689.9</ele>
        <time>2021-04-22T10:22:48Z</time>
      </trkpt>
      <trkpt lat="44.859" lon="5.6834">
        <ele>690.2</ele>
        <time>2021-04-22T10:22:49Z</time>
      </trkpt>
      <trkpt lat="44.85895" lon="5.6834">
        <ele>690.4</ele>
        <time>2021-04-22T10:22:51Z</time>
      </trkpt>
      <trkpt lat="44.85894" lon="5.68339">
        <ele>690.5</ele>
        <time>2021-04-22T10:22:52Z</time>
      </trkpt>
      <trkpt lat="44.8589" lon="5.68338">
        <ele>690.7</ele>
        <time>2021-04-22T10:22:53Z</time>
      </trkpt>
      <trkpt lat="44.85885" lon="5.68337">
        <ele>690.9</ele>
        <time>2021-04-22T10:22:55Z</time>
      </trkpt>
      <trkpt lat="44.85881" lon="5.68337">
        <ele>691.1</ele>
        <time>2021-04-22T10:22:56Z</time>
      </trkpt>
      <trkpt lat="44.85876" lon="5.68337">
        <ele>691.4</ele>
        <time>2021-04-22T10:22:58Z</time>
      </trkpt>
      <trkpt lat="44.85871" lon="5.68337">
        <ele>691.6</ele>
        <time>2021-04-22T10:22:59Z</time>
      </trkpt>
      <trkpt lat="44.85868" lon="5.68337">
        <ele>691.8</ele>
        <time>2021-04-22T10:23:00Z</time>
      </trkpt>
      <trkpt lat="44.85863" lon="5.68336">
        <ele>692</ele>
        <time>2021-04-22T10:23:02Z</time>
      </trkpt>
      <trkpt lat="44.85861" lon="5.68336">
        <ele>692.1</ele>
        <time>2021-04-22T10:23:03Z</time>
      </trkpt>
      <trkpt lat="44.85857" lon="5.68336">
        <ele>692.3</ele>
        <time>2021-04-22T10:23:04Z</time>
      </trkpt>
      <trkpt lat="44.85853" lon="5.68336">
        <ele>692.5</ele>
        <time>2021-04-22T10:23:06Z</time>
      </trkpt>
      <trkpt lat="44.8585" lon="5.68336">
        <ele>692.7</ele>
        <time>2021-04-22T10:23:07Z</time>
      </trkpt>
      <trkpt lat="44.85847" lon="5.68335">
        <ele>692.9</ele>
        <time>2021-04-22T10:23:08Z</time>
      </trkpt>
      <trkpt lat="44.85842" lon="5.68335">
        <ele>693.2</ele>
        <time>2021-04-22T10:23:10Z</time>
      </trkpt>
      <trkpt lat="44.85839" lon="5.68334">
        <ele>693.4</ele>
        <time>2021-04-22T10:23:11Z</time>
      </trkpt>
      <trkpt lat="44.85837" lon="5.68333">
        <ele>693.6</ele>
        <time>2021-04-22T10:23:12Z</time>
      </trkpt>
      <trkpt lat="44.85834" lon="5.68329">
        <ele>694.2</ele>
        <time>2021-04-22T10:23:14Z</time>
      </trkpt>
      <trkpt lat="44.85834" lon="5.68328">
        <ele>694.3</ele>
        <time>2021-04-22T10:23:15Z</time>
      </trkpt>
      <trkpt lat="44.85832" lon="5.68323">
        <ele>694.4</ele>
        <time>2021-04-22T10:23:16Z</time>
      </trkpt>
      <trkpt lat="44.85832" lon="5.6832">
        <ele>694.5</ele>
        <time>2021-04-22T10:23:17Z</time>
      </trkpt>
      <trkpt lat="44.85831" lon="5.68315">
        <ele>694.6</ele>
        <time>2021-04-22T10:23:18Z</time>
      </trkpt>
      <trkpt lat="44.85832" lon="5.68306">
        <ele>694.8</ele>
        <time>2021-04-22T10:23:20Z</time>
      </trkpt>
      <trkpt lat="44.85833" lon="5.68302">
        <ele>694.9</ele>
        <time>2021-04-22T10:23:21Z</time>
      </trkpt>
      <trkpt lat="44.85834" lon="5.68298">
        <ele>695</ele>
        <time>2021-04-22T10:23:22Z</time>
      </trkpt>
      <trkpt lat="44.85834" lon="5.68292">
        <ele>695.2</ele>
        <time>2021-04-22T10:23:24Z</time>
      </trkpt>
      <trkpt lat="44.85835" lon="5.68287">
        <ele>695.3</ele>
        <time>2021-04-22T10:23:25Z</time>
      </trkpt>
      <trkpt lat="44.85835" lon="5.68285">
        <ele>695.4</ele>
        <time>2021-04-22T10:23:26Z</time>
      </trkpt>
      <trkpt lat="44.85835" lon="5.6828">
        <ele>695.6</ele>
        <time>2021-04-22T10:23:27Z</time>
      </trkpt>
      <trkpt lat="44.85835" lon="5.68274">
        <ele>695.8</ele>
        <time>2021-04-22T10:23:29Z</time>
      </trkpt>
      <trkpt lat="44.85836" lon="5.68268">
        <ele>696</ele>
        <time>2021-04-22T10:23:30Z</time>
      </trkpt>
      <trkpt lat="44.85836" lon="5.68267">
        <ele>696</ele>
        <time>2021-04-22T10:23:31Z</time>
      </trkpt>
      <trkpt lat="44.85837" lon="5.68262">
        <ele>696.2</ele>
        <time>2021-04-22T10:23:32Z</time>
      </trkpt>
      <trkpt lat="44.85837" lon="5.68255">
        <ele>696.4</ele>
        <time>2021-04-22T10:23:34Z</time>
      </trkpt>
      <trkpt lat="44.85838" lon="5.6825">
        <ele>696.6</ele>
        <time>2021-04-22T10:23:35Z</time>
      </trkpt>
      <trkpt lat="44.85838" lon="5.68244">
        <ele>696.9</ele>
        <time>2021-04-22T10:23:36Z</time>
      </trkpt>
      <trkpt lat="44.85838" lon="5.68238">
        <ele>697.1</ele>
        <time>2021-04-22T10:23:37Z</time>
      </trkpt>
      <trkpt lat="44.85839" lon="5.68233">
        <ele>697.4</ele>
        <time>2021-04-22T10:23:39Z</time>
      </trkpt>
      <trkpt lat="44.85839" lon="5.6823">
        <ele>697.5</ele>
        <time>2021-04-22T10:23:40Z</time>
      </trkpt>
      <trkpt lat="44.85839" lon="5.68228">
        <ele>697.6</ele>
        <time>2021-04-22T10:23:41Z</time>
      </trkpt>
      <trkpt lat="44.85841" lon="5.68223">
        <ele>697.9</ele>
        <time>2021-04-22T10:23:42Z</time>
      </trkpt>
      <trkpt lat="44.85841" lon="5.68221">
        <ele>698</ele>
        <time>2021-04-22T10:23:43Z</time>
      </trkpt>
      <trkpt lat="44.85843" lon="5.68215">
        <ele>698.3</ele>
        <time>2021-04-22T10:23:44Z</time>
      </trkpt>
      <trkpt lat="44.85844" lon="5.68212">
        <ele>698.5</ele>
        <time>2021-04-22T10:23:46Z</time>
      </trkpt>
      <trkpt lat="44.85847" lon="5.68205">
        <ele>698.9</ele>
        <time>2021-04-22T10:23:48Z</time>
      </trkpt>
      <trkpt lat="44.85849" lon="5.68202">
        <ele>699</ele>
        <time>2021-04-22T10:23:49Z</time>
      </trkpt>
      <trkpt lat="44.85851" lon="5.68196">
        <ele>699.3</ele>
        <time>2021-04-22T10:23:51Z</time>
      </trkpt>
      <trkpt lat="44.85852" lon="5.68193">
        <ele>699.5</ele>
        <time>2021-04-22T10:23:52Z</time>
      </trkpt>
      <trkpt lat="44.85856" lon="5.68191">
        <ele>699.8</ele>
        <time>2021-04-22T10:23:53Z</time>
      </trkpt>
      <trkpt lat="44.85858" lon="5.68189">
        <ele>699.9</ele>
        <time>2021-04-22T10:23:54Z</time>
      </trkpt>
      <trkpt lat="44.85861" lon="5.68187">
        <ele>700.1</ele>
        <time>2021-04-22T10:23:56Z</time>
      </trkpt>
      <trkpt lat="44.85864" lon="5.68185">
        <ele>700.3</ele>
        <time>2021-04-22T10:23:57Z</time>
      </trkpt>
      <trkpt lat="44.85867" lon="5.68184">
        <ele>700.4</ele>
        <time>2021-04-22T10:23:58Z</time>
      </trkpt>
      <trkpt lat="44.85871" lon="5.68181">
        <ele>700.7</ele>
        <time>2021-04-22T10:23:59Z</time>
      </trkpt>
      <trkpt lat="44.85874" lon="5.68179">
        <ele>700.9</ele>
        <time>2021-04-22T10:24:00Z</time>
      </trkpt>
      <trkpt lat="44.8588" lon="5.68175">
        <ele>701.2</ele>
        <time>2021-04-22T10:24:02Z</time>
      </trkpt>
      <trkpt lat="44.85885" lon="5.68172">
        <ele>701.5</ele>
        <time>2021-04-22T10:24:04Z</time>
      </trkpt>
      <trkpt lat="44.85888" lon="5.68169">
        <ele>701.8</ele>
        <time>2021-04-22T10:24:05Z</time>
      </trkpt>
      <trkpt lat="44.85893" lon="5.68166">
        <ele>702.1</ele>
        <time>2021-04-22T10:24:07Z</time>
      </trkpt>
      <trkpt lat="44.85897" lon="5.68163">
        <ele>702.4</ele>
        <time>2021-04-22T10:24:08Z</time>
      </trkpt>
      <trkpt lat="44.85898" lon="5.68161">
        <ele>702.5</ele>
        <time>2021-04-22T10:24:09Z</time>
      </trkpt>
      <trkpt lat="44.85902" lon="5.68158">
        <ele>702.8</ele>
        <time>2021-04-22T10:24:11Z</time>
      </trkpt>
      <trkpt lat="44.85907" lon="5.68153">
        <ele>703.2</ele>
        <time>2021-04-22T10:24:13Z</time>
      </trkpt>
      <trkpt lat="44.8591" lon="5.68149">
        <ele>703.5</ele>
        <time>2021-04-22T10:24:14Z</time>
      </trkpt>
      <trkpt lat="44.85912" lon="5.68145">
        <ele>703.8</ele>
        <time>2021-04-22T10:24:16Z</time>
      </trkpt>
      <trkpt lat="44.85914" lon="5.68142">
        <ele>703.9</ele>
        <time>2021-04-22T10:24:17Z</time>
      </trkpt>
      <trkpt lat="44.85917" lon="5.68135">
        <ele>704.3</ele>
        <time>2021-04-22T10:24:19Z</time>
      </trkpt>
      <trkpt lat="44.85918" lon="5.68129">
        <ele>704.6</ele>
        <time>2021-04-22T10:24:20Z</time>
      </trkpt>
      <trkpt lat="44.85919" lon="5.68127">
        <ele>704.8</ele>
        <time>2021-04-22T10:24:21Z</time>
      </trkpt>
      <trkpt lat="44.8592" lon="5.68121">
        <ele>705</ele>
        <time>2021-04-22T10:24:23Z</time>
      </trkpt>
      <trkpt lat="44.8592" lon="5.68118">
        <ele>705.2</ele>
        <time>2021-04-22T10:24:24Z</time>
      </trkpt>
      <trkpt lat="44.8592" lon="5.68111">
        <ele>705.5</ele>
        <time>2021-04-22T10:24:26Z</time>
      </trkpt>
      <trkpt lat="44.8592" lon="5.68107">
        <ele>705.7</ele>
        <time>2021-04-22T10:24:27Z</time>
      </trkpt>
      <trkpt lat="44.8592" lon="5.68099">
        <ele>706</ele>
        <time>2021-04-22T10:24:29Z</time>
      </trkpt>
      <trkpt lat="44.85919" lon="5.68096">
        <ele>706.2</ele>
        <time>2021-04-22T10:24:30Z</time>
      </trkpt>
      <trkpt lat="44.85917" lon="5.6809">
        <ele>706.5</ele>
        <time>2021-04-22T10:24:32Z</time>
      </trkpt>
      <trkpt lat="44.85916" lon="5.68085">
        <ele>706.7</ele>
        <time>2021-04-22T10:24:34Z</time>
      </trkpt>
      <trkpt lat="44.85915" lon="5.68081">
        <ele>706.9</ele>
        <time>2021-04-22T10:24:35Z</time>
      </trkpt>
      <trkpt lat="44.85915" lon="5.6808">
        <ele>706.9</ele>
        <time>2021-04-22T10:24:36Z</time>
      </trkpt>
      <trkpt lat="44.85914" lon="5.68075">
        <ele>707.2</ele>
        <time>2021-04-22T10:24:38Z</time>
      </trkpt>
      <trkpt lat="44.85913" lon="5.6807">
        <ele>707.4</ele>
        <time>2021-04-22T10:24:39Z</time>
      </trkpt>
      <trkpt lat="44.85912" lon="5.68068">
        <ele>707.4</ele>
        <time>2021-04-22T10:24:40Z</time>
      </trkpt>
      <trkpt lat="44.85912" lon="5.68063">
        <ele>707.7</ele>
        <time>2021-04-22T10:24:42Z</time>
      </trkpt>
      <trkpt lat="44.85911" lon="5.68057">
        <ele>707.9</ele>
        <time>2021-04-22T10:24:43Z</time>
      </trkpt>
      <trkpt lat="44.8591" lon="5.68053">
        <ele>708.1</ele>
        <time>2021-04-22T10:24:45Z</time>
      </trkpt>
      <trkpt lat="44.85909" lon="5.68048">
        <ele>708.4</ele>
        <time>2021-04-22T10:24:46Z</time>
      </trkpt>
      <trkpt lat="44.85907" lon="5.6804">
        <ele>708.7</ele>
        <time>2021-04-22T10:24:48Z</time>
      </trkpt>
      <trkpt lat="44.85906" lon="5.68035">
        <ele>708.9</ele>
        <time>2021-04-22T10:24:49Z</time>
      </trkpt>
      <trkpt lat="44.85905" lon="5.68027">
        <ele>709.3</ele>
        <time>2021-04-22T10:24:51Z</time>
      </trkpt>
      <trkpt lat="44.85905" lon="5.68024">
        <ele>709.4</ele>
        <time>2021-04-22T10:24:52Z</time>
      </trkpt>
      <trkpt lat="44.85904" lon="5.6802">
        <ele>709.6</ele>
        <time>2021-04-22T10:24:53Z</time>
      </trkpt>
      <trkpt lat="44.85904" lon="5.6801">
        <ele>710</ele>
        <time>2021-04-22T10:24:55Z</time>
      </trkpt>
      <trkpt lat="44.85904" lon="5.68005">
        <ele>710.3</ele>
        <time>2021-04-22T10:24:56Z</time>
      </trkpt>
      <trkpt lat="44.85904" lon="5.67997">
        <ele>710.6</ele>
        <time>2021-04-22T10:24:58Z</time>
      </trkpt>
      <trkpt lat="44.85904" lon="5.67997">
        <ele>710.6</ele>
        <time>2021-04-22T10:24:59Z</time>
      </trkpt>
      <trkpt lat="44.85904" lon="5.67997">
        <ele>710.6</ele>
        <time>2021-04-22T10:25:00Z</time>
      </trkpt>
      <trkpt lat="44.85904" lon="5.67997">
        <ele>710.7</ele>
        <time>2021-04-22T10:25:01Z</time>
      </trkpt>
      <trkpt lat="44.85904" lon="5.67996">
        <ele>710.7</ele>
        <time>2021-04-22T10:25:02Z</time>
      </trkpt>
      <trkpt lat="44.85904" lon="5.67996">
        <ele>710.7</ele>
        <time>2021-04-22T10:25:04Z</time>
      </trkpt>
      <trkpt lat="44.85904" lon="5.67996">
        <ele>710.7</ele>
        <time>2021-04-22T10:25:05Z</time>
      </trkpt>
      <trkpt lat="44.85904" lon="5.67996">
        <ele>710.7</ele>
        <time>2021-04-22T10:25:06Z</time>
      </trkpt>
      <trkpt lat="44.85904" lon="5.67996">
        <ele>710.7</ele>
        <time>2021-04-22T10:25:07Z</time>
      </trkpt>
      <trkpt lat="44.85904" lon="5.67996">
        <ele>710.7</ele>
        <time>2021-04-22T10:25:08Z</time>
      </trkpt>
      <trkpt lat="44.85905" lon="5.67994">
        <ele>710.8</ele>
        <time>2021-04-22T10:25:42Z</time>
      </trkpt>
      <trkpt lat="44.85903" lon="5.67988">
        <ele>711</ele>
        <time>2021-04-22T10:25:44Z</time>
      </trkpt>
      <trkpt lat="44.85902" lon="5.67982">
        <ele>711.3</ele>
        <time>2021-04-22T10:25:46Z</time>
      </trkpt>
      <trkpt lat="44.85901" lon="5.67976">
        <ele>711.6</ele>
        <time>2021-04-22T10:25:47Z</time>
      </trkpt>
      <trkpt lat="44.859" lon="5.67974">
        <ele>711.7</ele>
        <time>2021-04-22T10:25:48Z</time>
      </trkpt>
      <trkpt lat="44.85899" lon="5.67968">
        <ele>711.9</ele>
        <time>2021-04-22T10:25:50Z</time>
      </trkpt>
      <trkpt lat="44.85897" lon="5.67962">
        <ele>712.2</ele>
        <time>2021-04-22T10:25:51Z</time>
      </trkpt>
      <trkpt lat="44.85896" lon="5.67956">
        <ele>712.4</ele>
        <time>2021-04-22T10:25:52Z</time>
      </trkpt>
      <trkpt lat="44.85895" lon="5.6795">
        <ele>712.6</ele>
        <time>2021-04-22T10:25:53Z</time>
      </trkpt>
      <trkpt lat="44.85894" lon="5.67942">
        <ele>713.1</ele>
        <time>2021-04-22T10:25:55Z</time>
      </trkpt>
      <trkpt lat="44.85894" lon="5.67936">
        <ele>713.3</ele>
        <time>2021-04-22T10:25:56Z</time>
      </trkpt>
      <trkpt lat="44.85893" lon="5.67929">
        <ele>713.6</ele>
        <time>2021-04-22T10:25:57Z</time>
      </trkpt>
      <trkpt lat="44.8589" lon="5.67919">
        <ele>714</ele>
        <time>2021-04-22T10:25:59Z</time>
      </trkpt>
      <trkpt lat="44.85888" lon="5.67912">
        <ele>714.3</ele>
        <time>2021-04-22T10:26:01Z</time>
      </trkpt>
      <trkpt lat="44.85886" lon="5.67903">
        <ele>714.7</ele>
        <time>2021-04-22T10:26:03Z</time>
      </trkpt>
      <trkpt lat="44.85884" lon="5.67897">
        <ele>715</ele>
        <time>2021-04-22T10:26:04Z</time>
      </trkpt>
      <trkpt lat="44.85881" lon="5.67889">
        <ele>715.3</ele>
        <time>2021-04-22T10:26:05Z</time>
      </trkpt>
      <trkpt lat="44.8588" lon="5.67883">
        <ele>715.6</ele>
        <time>2021-04-22T10:26:07Z</time>
      </trkpt>
      <trkpt lat="44.85877" lon="5.67875">
        <ele>715.9</ele>
        <time>2021-04-22T10:26:09Z</time>
      </trkpt>
      <trkpt lat="44.85875" lon="5.6787">
        <ele>716.1</ele>
        <time>2021-04-22T10:26:11Z</time>
      </trkpt>
      <trkpt lat="44.85873" lon="5.67867">
        <ele>716.3</ele>
        <time>2021-04-22T10:26:12Z</time>
      </trkpt>
      <trkpt lat="44.85871" lon="5.67863">
        <ele>716.5</ele>
        <time>2021-04-22T10:26:13Z</time>
      </trkpt>
      <trkpt lat="44.85868" lon="5.67852">
        <ele>716.9</ele>
        <time>2021-04-22T10:26:15Z</time>
      </trkpt>
      <trkpt lat="44.85866" lon="5.67845">
        <ele>717.2</ele>
        <time>2021-04-22T10:26:17Z</time>
      </trkpt>
      <trkpt lat="44.85863" lon="5.6784">
        <ele>717.5</ele>
        <time>2021-04-22T10:26:19Z</time>
      </trkpt>
      <trkpt lat="44.8586" lon="5.67831">
        <ele>717.9</ele>
        <time>2021-04-22T10:26:21Z</time>
      </trkpt>
      <trkpt lat="44.85858" lon="5.67826">
        <ele>718.1</ele>
        <time>2021-04-22T10:26:23Z</time>
      </trkpt>
      <trkpt lat="44.85856" lon="5.6782">
        <ele>718.4</ele>
        <time>2021-04-22T10:26:24Z</time>
      </trkpt>
      <trkpt lat="44.85854" lon="5.67811">
        <ele>718.7</ele>
        <time>2021-04-22T10:26:26Z</time>
      </trkpt>
      <trkpt lat="44.85853" lon="5.67805">
        <ele>719</ele>
        <time>2021-04-22T10:26:27Z</time>
      </trkpt>
      <trkpt lat="44.85851" lon="5.67799">
        <ele>719.2</ele>
        <time>2021-04-22T10:26:29Z</time>
      </trkpt>
      <trkpt lat="44.85847" lon="5.6779">
        <ele>719.6</ele>
        <time>2021-04-22T10:26:31Z</time>
      </trkpt>
      <trkpt lat="44.85846" lon="5.67786">
        <ele>719.7</ele>
        <time>2021-04-22T10:26:32Z</time>
      </trkpt>
      <trkpt lat="44.85843" lon="5.67779">
        <ele>720</ele>
        <time>2021-04-22T10:26:34Z</time>
      </trkpt>
      <trkpt lat="44.85841" lon="5.67776">
        <ele>720.2</ele>
        <time>2021-04-22T10:26:35Z</time>
      </trkpt>
      <trkpt lat="44.85839" lon="5.67772">
        <ele>720.4</ele>
        <time>2021-04-22T10:26:36Z</time>
      </trkpt>
      <trkpt lat="44.85837" lon="5.67766">
        <ele>720.7</ele>
        <time>2021-04-22T10:26:37Z</time>
      </trkpt>
      <trkpt lat="44.85834" lon="5.67762">
        <ele>720.9</ele>
        <time>2021-04-22T10:26:39Z</time>
      </trkpt>
      <trkpt lat="44.85832" lon="5.67758">
        <ele>721.1</ele>
        <time>2021-04-22T10:26:40Z</time>
      </trkpt>
      <trkpt lat="44.85829" lon="5.67751">
        <ele>721.4</ele>
        <time>2021-04-22T10:26:42Z</time>
      </trkpt>
      <trkpt lat="44.85827" lon="5.67748">
        <ele>721.6</ele>
        <time>2021-04-22T10:26:43Z</time>
      </trkpt>
      <trkpt lat="44.85824" lon="5.67745">
        <ele>721.8</ele>
        <time>2021-04-22T10:26:44Z</time>
      </trkpt>
      <trkpt lat="44.85819" lon="5.67741">
        <ele>722.1</ele>
        <time>2021-04-22T10:26:46Z</time>
      </trkpt>
      <trkpt lat="44.85815" lon="5.67739">
        <ele>722.3</ele>
        <time>2021-04-22T10:26:47Z</time>
      </trkpt>
      <trkpt lat="44.85813" lon="5.67738">
        <ele>722.4</ele>
        <time>2021-04-22T10:26:48Z</time>
      </trkpt>
      <trkpt lat="44.85807" lon="5.67736">
        <ele>722.7</ele>
        <time>2021-04-22T10:26:50Z</time>
      </trkpt>
      <trkpt lat="44.85798" lon="5.67733">
        <ele>723.1</ele>
        <time>2021-04-22T10:26:52Z</time>
      </trkpt>
      <trkpt lat="44.85792" lon="5.67731">
        <ele>723.2</ele>
        <time>2021-04-22T10:26:54Z</time>
      </trkpt>
      <trkpt lat="44.85787" lon="5.67728">
        <ele>723.3</ele>
        <time>2021-04-22T10:26:55Z</time>
      </trkpt>
      <trkpt lat="44.85783" lon="5.67725">
        <ele>723.4</ele>
        <time>2021-04-22T10:26:56Z</time>
      </trkpt>
      <trkpt lat="44.85779" lon="5.6772">
        <ele>723.5</ele>
        <time>2021-04-22T10:26:58Z</time>
      </trkpt>
      <trkpt lat="44.85775" lon="5.67713">
        <ele>723.8</ele>
        <time>2021-04-22T10:26:59Z</time>
      </trkpt>
      <trkpt lat="44.85774" lon="5.67709">
        <ele>724</ele>
        <time>2021-04-22T10:27:01Z</time>
      </trkpt>
      <trkpt lat="44.85772" lon="5.67705">
        <ele>724.2</ele>
        <time>2021-04-22T10:27:02Z</time>
      </trkpt>
      <trkpt lat="44.8577" lon="5.67701">
        <ele>724.3</ele>
        <time>2021-04-22T10:27:03Z</time>
      </trkpt>
      <trkpt lat="44.85769" lon="5.67696">
        <ele>724.5</ele>
        <time>2021-04-22T10:27:04Z</time>
      </trkpt>
      <trkpt lat="44.85769" lon="5.6769">
        <ele>724.7</ele>
        <time>2021-04-22T10:27:05Z</time>
      </trkpt>
      <trkpt lat="44.85768" lon="5.67682">
        <ele>724.9</ele>
        <time>2021-04-22T10:27:06Z</time>
      </trkpt>
      <trkpt lat="44.85768" lon="5.67674">
        <ele>725.2</ele>
        <time>2021-04-22T10:27:08Z</time>
      </trkpt>
      <trkpt lat="44.85768" lon="5.67669">
        <ele>725.4</ele>
        <time>2021-04-22T10:27:09Z</time>
      </trkpt>
      <trkpt lat="44.85768" lon="5.67662">
        <ele>725.6</ele>
        <time>2021-04-22T10:27:10Z</time>
      </trkpt>
      <trkpt lat="44.85769" lon="5.67657">
        <ele>725.7</ele>
        <time>2021-04-22T10:27:11Z</time>
      </trkpt>
      <trkpt lat="44.8577" lon="5.67651">
        <ele>725.9</ele>
        <time>2021-04-22T10:27:13Z</time>
      </trkpt>
      <trkpt lat="44.85771" lon="5.67646">
        <ele>726.1</ele>
        <time>2021-04-22T10:27:14Z</time>
      </trkpt>
      <trkpt lat="44.85772" lon="5.6764">
        <ele>726.3</ele>
        <time>2021-04-22T10:27:15Z</time>
      </trkpt>
      <trkpt lat="44.85772" lon="5.67635">
        <ele>726.4</ele>
        <time>2021-04-22T10:27:16Z</time>
      </trkpt>
      <trkpt lat="44.85771" lon="5.67626">
        <ele>726.7</ele>
        <time>2021-04-22T10:27:18Z</time>
      </trkpt>
      <trkpt lat="44.8577" lon="5.6762">
        <ele>726.9</ele>
        <time>2021-04-22T10:27:19Z</time>
      </trkpt>
      <trkpt lat="44.85768" lon="5.67614">
        <ele>727.1</ele>
        <time>2021-04-22T10:27:21Z</time>
      </trkpt>
      <trkpt lat="44.85764" lon="5.67607">
        <ele>727.4</ele>
        <time>2021-04-22T10:27:23Z</time>
      </trkpt>
      <trkpt lat="44.85762" lon="5.67602">
        <ele>727.6</ele>
        <time>2021-04-22T10:27:24Z</time>
      </trkpt>
      <trkpt lat="44.85759" lon="5.67598">
        <ele>727.8</ele>
        <time>2021-04-22T10:27:25Z</time>
      </trkpt>
      <trkpt lat="44.85756" lon="5.67594">
        <ele>728</ele>
        <time>2021-04-22T10:27:26Z</time>
      </trkpt>
      <trkpt lat="44.85752" lon="5.67589">
        <ele>728.3</ele>
        <time>2021-04-22T10:27:27Z</time>
      </trkpt>
      <trkpt lat="44.85749" lon="5.67583">
        <ele>728.6</ele>
        <time>2021-04-22T10:27:29Z</time>
      </trkpt>
      <trkpt lat="44.85745" lon="5.6758">
        <ele>728.8</ele>
        <time>2021-04-22T10:27:31Z</time>
      </trkpt>
      <trkpt lat="44.85742" lon="5.67577">
        <ele>729</ele>
        <time>2021-04-22T10:27:32Z</time>
      </trkpt>
      <trkpt lat="44.85738" lon="5.67573">
        <ele>729.2</ele>
        <time>2021-04-22T10:27:34Z</time>
      </trkpt>
      <trkpt lat="44.85734" lon="5.6757">
        <ele>729.5</ele>
        <time>2021-04-22T10:27:36Z</time>
      </trkpt>
      <trkpt lat="44.8573" lon="5.67568">
        <ele>729.7</ele>
        <time>2021-04-22T10:27:37Z</time>
      </trkpt>
      <trkpt lat="44.85726" lon="5.67564">
        <ele>730</ele>
        <time>2021-04-22T10:27:39Z</time>
      </trkpt>
      <trkpt lat="44.85721" lon="5.67559">
        <ele>730.2</ele>
        <time>2021-04-22T10:27:41Z</time>
      </trkpt>
      <trkpt lat="44.85717" lon="5.67555">
        <ele>730.4</ele>
        <time>2021-04-22T10:27:42Z</time>
      </trkpt>
      <trkpt lat="44.85715" lon="5.67554">
        <ele>730.5</ele>
        <time>2021-04-22T10:27:43Z</time>
      </trkpt>
      <trkpt lat="44.85712" lon="5.67551">
        <ele>730.7</ele>
        <time>2021-04-22T10:27:45Z</time>
      </trkpt>
      <trkpt lat="44.85707" lon="5.67545">
        <ele>731</ele>
        <time>2021-04-22T10:27:47Z</time>
      </trkpt>
      <trkpt lat="44.85704" lon="5.67543">
        <ele>731.1</ele>
        <time>2021-04-22T10:27:48Z</time>
      </trkpt>
      <trkpt lat="44.85702" lon="5.6754">
        <ele>731.2</ele>
        <time>2021-04-22T10:27:50Z</time>
      </trkpt>
      <trkpt lat="44.857" lon="5.67537">
        <ele>731.3</ele>
        <time>2021-04-22T10:27:51Z</time>
      </trkpt>
      <trkpt lat="44.85698" lon="5.67533">
        <ele>731.5</ele>
        <time>2021-04-22T10:27:52Z</time>
      </trkpt>
      <trkpt lat="44.85694" lon="5.67529">
        <ele>731.7</ele>
        <time>2021-04-22T10:27:54Z</time>
      </trkpt>
      <trkpt lat="44.85691" lon="5.67526">
        <ele>731.8</ele>
        <time>2021-04-22T10:27:55Z</time>
      </trkpt>
      <trkpt lat="44.85689" lon="5.67522">
        <ele>732</ele>
        <time>2021-04-22T10:27:56Z</time>
      </trkpt>
      <trkpt lat="44.85686" lon="5.67519">
        <ele>732.2</ele>
        <time>2021-04-22T10:27:58Z</time>
      </trkpt>
      <trkpt lat="44.85684" lon="5.67517">
        <ele>732.2</ele>
        <time>2021-04-22T10:27:59Z</time>
      </trkpt>
      <trkpt lat="44.85679" lon="5.67512">
        <ele>732.5</ele>
        <time>2021-04-22T10:28:01Z</time>
      </trkpt>
      <trkpt lat="44.85675" lon="5.67509">
        <ele>732.7</ele>
        <time>2021-04-22T10:28:02Z</time>
      </trkpt>
      <trkpt lat="44.85673" lon="5.67505">
        <ele>732.9</ele>
        <time>2021-04-22T10:28:03Z</time>
      </trkpt>
      <trkpt lat="44.85671" lon="5.67501">
        <ele>733</ele>
        <time>2021-04-22T10:28:05Z</time>
      </trkpt>
      <trkpt lat="44.85668" lon="5.67497">
        <ele>733.2</ele>
        <time>2021-04-22T10:28:06Z</time>
      </trkpt>
      <trkpt lat="44.85664" lon="5.67492">
        <ele>733.4</ele>
        <time>2021-04-22T10:28:08Z</time>
      </trkpt>
      <trkpt lat="44.85662" lon="5.6749">
        <ele>733.5</ele>
        <time>2021-04-22T10:28:09Z</time>
      </trkpt>
      <trkpt lat="44.8566" lon="5.67483">
        <ele>733.8</ele>
        <time>2021-04-22T10:28:11Z</time>
      </trkpt>
      <trkpt lat="44.85658" lon="5.67477">
        <ele>734</ele>
        <time>2021-04-22T10:28:12Z</time>
      </trkpt>
      <trkpt lat="44.85657" lon="5.67475">
        <ele>734.1</ele>
        <time>2021-04-22T10:28:13Z</time>
      </trkpt>
      <trkpt lat="44.85655" lon="5.67467">
        <ele>734.4</ele>
        <time>2021-04-22T10:28:15Z</time>
      </trkpt>
      <trkpt lat="44.85654" lon="5.67463">
        <ele>734.6</ele>
        <time>2021-04-22T10:28:16Z</time>
      </trkpt>
      <trkpt lat="44.85652" lon="5.67456">
        <ele>734.8</ele>
        <time>2021-04-22T10:28:18Z</time>
      </trkpt>
      <trkpt lat="44.85652" lon="5.67453">
        <ele>734.9</ele>
        <time>2021-04-22T10:28:19Z</time>
      </trkpt>
      <trkpt lat="44.85651" lon="5.6745">
        <ele>735</ele>
        <time>2021-04-22T10:28:20Z</time>
      </trkpt>
      <trkpt lat="44.85649" lon="5.67444">
        <ele>735.3</ele>
        <time>2021-04-22T10:28:21Z</time>
      </trkpt>
      <trkpt lat="44.85648" lon="5.67439">
        <ele>735.5</ele>
        <time>2021-04-22T10:28:23Z</time>
      </trkpt>
      <trkpt lat="44.85648" lon="5.67436">
        <ele>735.6</ele>
        <time>2021-04-22T10:28:24Z</time>
      </trkpt>
      <trkpt lat="44.85647" lon="5.67434">
        <ele>735.7</ele>
        <time>2021-04-22T10:28:25Z</time>
      </trkpt>
      <trkpt lat="44.85645" lon="5.67428">
        <ele>736</ele>
        <time>2021-04-22T10:28:27Z</time>
      </trkpt>
      <trkpt lat="44.85645" lon="5.67422">
        <ele>736.2</ele>
        <time>2021-04-22T10:28:29Z</time>
      </trkpt>
      <trkpt lat="44.85643" lon="5.67418">
        <ele>736.4</ele>
        <time>2021-04-22T10:28:30Z</time>
      </trkpt>
      <trkpt lat="44.85642" lon="5.67414">
        <ele>736.6</ele>
        <time>2021-04-22T10:28:31Z</time>
      </trkpt>
      <trkpt lat="44.85641" lon="5.67409">
        <ele>736.8</ele>
        <time>2021-04-22T10:28:32Z</time>
      </trkpt>
      <trkpt lat="44.8564" lon="5.67407">
        <ele>736.8</ele>
        <time>2021-04-22T10:28:33Z</time>
      </trkpt>
      <trkpt lat="44.85639" lon="5.67402">
        <ele>737.1</ele>
        <time>2021-04-22T10:28:35Z</time>
      </trkpt>
      <trkpt lat="44.85637" lon="5.67397">
        <ele>737.3</ele>
        <time>2021-04-22T10:28:37Z</time>
      </trkpt>
      <trkpt lat="44.85636" lon="5.67392">
        <ele>737.5</ele>
        <time>2021-04-22T10:28:39Z</time>
      </trkpt>
      <trkpt lat="44.85633" lon="5.67384">
        <ele>737.8</ele>
        <time>2021-04-22T10:28:41Z</time>
      </trkpt>
      <trkpt lat="44.85631" lon="5.67379">
        <ele>738.1</ele>
        <time>2021-04-22T10:28:42Z</time>
      </trkpt>
      <trkpt lat="44.85629" lon="5.6737">
        <ele>738.5</ele>
        <time>2021-04-22T10:28:44Z</time>
      </trkpt>
      <trkpt lat="44.85628" lon="5.67366">
        <ele>738.7</ele>
        <time>2021-04-22T10:28:45Z</time>
      </trkpt>
      <trkpt lat="44.85627" lon="5.6736">
        <ele>739</ele>
        <time>2021-04-22T10:28:47Z</time>
      </trkpt>
      <trkpt lat="44.85626" lon="5.67354">
        <ele>739.2</ele>
        <time>2021-04-22T10:28:48Z</time>
      </trkpt>
      <trkpt lat="44.85626" lon="5.67352">
        <ele>739.3</ele>
        <time>2021-04-22T10:28:49Z</time>
      </trkpt>
      <trkpt lat="44.85625" lon="5.67348">
        <ele>739.5</ele>
        <time>2021-04-22T10:28:50Z</time>
      </trkpt>
      <trkpt lat="44.85624" lon="5.67343">
        <ele>739.7</ele>
        <time>2021-04-22T10:28:52Z</time>
      </trkpt>
      <trkpt lat="44.85626" lon="5.67337">
        <ele>740</ele>
        <time>2021-04-22T10:28:53Z</time>
      </trkpt>
      <trkpt lat="44.85624" lon="5.67332">
        <ele>740.2</ele>
        <time>2021-04-22T10:28:54Z</time>
      </trkpt>
      <trkpt lat="44.85623" lon="5.67328">
        <ele>740.4</ele>
        <time>2021-04-22T10:28:55Z</time>
      </trkpt>
      <trkpt lat="44.85622" lon="5.67324">
        <ele>740.6</ele>
        <time>2021-04-22T10:28:57Z</time>
      </trkpt>
      <trkpt lat="44.85622" lon="5.67319">
        <ele>740.8</ele>
        <time>2021-04-22T10:28:58Z</time>
      </trkpt>
      <trkpt lat="44.85622" lon="5.67315">
        <ele>741</ele>
        <time>2021-04-22T10:28:59Z</time>
      </trkpt>
      <trkpt lat="44.85622" lon="5.67311">
        <ele>741.1</ele>
        <time>2021-04-22T10:29:01Z</time>
      </trkpt>
      <trkpt lat="44.85622" lon="5.67306">
        <ele>741.3</ele>
        <time>2021-04-22T10:29:02Z</time>
      </trkpt>
      <trkpt lat="44.85622" lon="5.67302">
        <ele>741.5</ele>
        <time>2021-04-22T10:29:03Z</time>
      </trkpt>
      <trkpt lat="44.85621" lon="5.67295">
        <ele>741.8</ele>
        <time>2021-04-22T10:29:05Z</time>
      </trkpt>
      <trkpt lat="44.85621" lon="5.67285">
        <ele>742.2</ele>
        <time>2021-04-22T10:29:07Z</time>
      </trkpt>
      <trkpt lat="44.8562" lon="5.67279">
        <ele>742.4</ele>
        <time>2021-04-22T10:29:09Z</time>
      </trkpt>
      <trkpt lat="44.8562" lon="5.67275">
        <ele>742.5</ele>
        <time>2021-04-22T10:29:10Z</time>
      </trkpt>
      <trkpt lat="44.8562" lon="5.6727">
        <ele>742.7</ele>
        <time>2021-04-22T10:29:11Z</time>
      </trkpt>
      <trkpt lat="44.85621" lon="5.67265">
        <ele>742.9</ele>
        <time>2021-04-22T10:29:13Z</time>
      </trkpt>
      <trkpt lat="44.8562" lon="5.6726">
        <ele>743</ele>
        <time>2021-04-22T10:29:14Z</time>
      </trkpt>
      <trkpt lat="44.85619" lon="5.67254">
        <ele>743.3</ele>
        <time>2021-04-22T10:29:16Z</time>
      </trkpt>
      <trkpt lat="44.85621" lon="5.67245">
        <ele>743.6</ele>
        <time>2021-04-22T10:29:18Z</time>
      </trkpt>
      <trkpt lat="44.8562" lon="5.67238">
        <ele>743.8</ele>
        <time>2021-04-22T10:29:20Z</time>
      </trkpt>
      <trkpt lat="44.8562" lon="5.67233">
        <ele>744</ele>
        <time>2021-04-22T10:29:21Z</time>
      </trkpt>
      <trkpt lat="44.8562" lon="5.67226">
        <ele>744.2</ele>
        <time>2021-04-22T10:29:23Z</time>
      </trkpt>
      <trkpt lat="44.85618" lon="5.67222">
        <ele>744.4</ele>
        <time>2021-04-22T10:29:24Z</time>
      </trkpt>
      <trkpt lat="44.85616" lon="5.67214">
        <ele>744.7</ele>
        <time>2021-04-22T10:29:26Z</time>
      </trkpt>
      <trkpt lat="44.85613" lon="5.67205">
        <ele>745</ele>
        <time>2021-04-22T10:29:28Z</time>
      </trkpt>
      <trkpt lat="44.85612" lon="5.67202">
        <ele>745.1</ele>
        <time>2021-04-22T10:29:29Z</time>
      </trkpt>
      <trkpt lat="44.85607" lon="5.67195">
        <ele>745.4</ele>
        <time>2021-04-22T10:29:31Z</time>
      </trkpt>
      <trkpt lat="44.85602" lon="5.67189">
        <ele>745.7</ele>
        <time>2021-04-22T10:29:33Z</time>
      </trkpt>
      <trkpt lat="44.85599" lon="5.67187">
        <ele>745.9</ele>
        <time>2021-04-22T10:29:34Z</time>
      </trkpt>
      <trkpt lat="44.85596" lon="5.67183">
        <ele>746.1</ele>
        <time>2021-04-22T10:29:35Z</time>
      </trkpt>
      <trkpt lat="44.8559" lon="5.6718">
        <ele>746.3</ele>
        <time>2021-04-22T10:29:37Z</time>
      </trkpt>
      <trkpt lat="44.85586" lon="5.67178">
        <ele>746.5</ele>
        <time>2021-04-22T10:29:38Z</time>
      </trkpt>
      <trkpt lat="44.85582" lon="5.67176">
        <ele>746.6</ele>
        <time>2021-04-22T10:29:39Z</time>
      </trkpt>
      <trkpt lat="44.85577" lon="5.67173">
        <ele>746.8</ele>
        <time>2021-04-22T10:29:40Z</time>
      </trkpt>
      <trkpt lat="44.85574" lon="5.67171">
        <ele>746.9</ele>
        <time>2021-04-22T10:29:42Z</time>
      </trkpt>
      <trkpt lat="44.8557" lon="5.67169">
        <ele>747</ele>
        <time>2021-04-22T10:29:43Z</time>
      </trkpt>
      <trkpt lat="44.85566" lon="5.67167">
        <ele>747.1</ele>
        <time>2021-04-22T10:29:44Z</time>
      </trkpt>
      <trkpt lat="44.85562" lon="5.67166">
        <ele>747.2</ele>
        <time>2021-04-22T10:29:46Z</time>
      </trkpt>
      <trkpt lat="44.85558" lon="5.67166">
        <ele>747.2</ele>
        <time>2021-04-22T10:29:47Z</time>
      </trkpt>
      <trkpt lat="44.85552" lon="5.67163">
        <ele>747.3</ele>
        <time>2021-04-22T10:29:49Z</time>
      </trkpt>
      <trkpt lat="44.85548" lon="5.67162">
        <ele>747.3</ele>
        <time>2021-04-22T10:29:50Z</time>
      </trkpt>
      <trkpt lat="44.85541" lon="5.6716">
        <ele>747.3</ele>
        <time>2021-04-22T10:29:51Z</time>
      </trkpt>
      <trkpt lat="44.85535" lon="5.67159">
        <ele>747.2</ele>
        <time>2021-04-22T10:29:52Z</time>
      </trkpt>
      <trkpt lat="44.8553" lon="5.67158">
        <ele>747.2</ele>
        <time>2021-04-22T10:29:54Z</time>
      </trkpt>
      <trkpt lat="44.85524" lon="5.67157">
        <ele>747.1</ele>
        <time>2021-04-22T10:29:55Z</time>
      </trkpt>
      <trkpt lat="44.85518" lon="5.67155">
        <ele>747.1</ele>
        <time>2021-04-22T10:29:56Z</time>
      </trkpt>
      <trkpt lat="44.85512" lon="5.67155">
        <ele>747</ele>
        <time>2021-04-22T10:29:58Z</time>
      </trkpt>
      <trkpt lat="44.85508" lon="5.67154">
        <ele>747</ele>
        <time>2021-04-22T10:29:59Z</time>
      </trkpt>
      <trkpt lat="44.85503" lon="5.67153">
        <ele>747</ele>
        <time>2021-04-22T10:30:00Z</time>
      </trkpt>
      <trkpt lat="44.85499" lon="5.67152">
        <ele>746.9</ele>
        <time>2021-04-22T10:30:01Z</time>
      </trkpt>
      <trkpt lat="44.85494" lon="5.6715">
        <ele>746.8</ele>
        <time>2021-04-22T10:30:02Z</time>
      </trkpt>
      <trkpt lat="44.85489" lon="5.67148">
        <ele>746.8</ele>
        <time>2021-04-22T10:30:03Z</time>
      </trkpt>
      <trkpt lat="44.85484" lon="5.67147">
        <ele>746.7</ele>
        <time>2021-04-22T10:30:04Z</time>
      </trkpt>
      <trkpt lat="44.85479" lon="5.67146">
        <ele>746.6</ele>
        <time>2021-04-22T10:30:05Z</time>
      </trkpt>
      <trkpt lat="44.85473" lon="5.67145">
        <ele>746.5</ele>
        <time>2021-04-22T10:30:06Z</time>
      </trkpt>
      <trkpt lat="44.85468" lon="5.67144">
        <ele>746.4</ele>
        <time>2021-04-22T10:30:07Z</time>
      </trkpt>
      <trkpt lat="44.85462" lon="5.67142">
        <ele>746.4</ele>
        <time>2021-04-22T10:30:08Z</time>
      </trkpt>
      <trkpt lat="44.85456" lon="5.67141">
        <ele>746.3</ele>
        <time>2021-04-22T10:30:09Z</time>
      </trkpt>
      <trkpt lat="44.8545" lon="5.67139">
        <ele>746.2</ele>
        <time>2021-04-22T10:30:10Z</time>
      </trkpt>
      <trkpt lat="44.85445" lon="5.67138">
        <ele>746.1</ele>
        <time>2021-04-22T10:30:11Z</time>
      </trkpt>
      <trkpt lat="44.85439" lon="5.67136">
        <ele>746</ele>
        <time>2021-04-22T10:30:12Z</time>
      </trkpt>
      <trkpt lat="44.85433" lon="5.67135">
        <ele>745.9</ele>
        <time>2021-04-22T10:30:13Z</time>
      </trkpt>
      <trkpt lat="44.85427" lon="5.67135">
        <ele>745.8</ele>
        <time>2021-04-22T10:30:14Z</time>
      </trkpt>
      <trkpt lat="44.85421" lon="5.67135">
        <ele>745.7</ele>
        <time>2021-04-22T10:30:15Z</time>
      </trkpt>
      <trkpt lat="44.85415" lon="5.67134">
        <ele>745.6</ele>
        <time>2021-04-22T10:30:16Z</time>
      </trkpt>
      <trkpt lat="44.85409" lon="5.67132">
        <ele>745.5</ele>
        <time>2021-04-22T10:30:17Z</time>
      </trkpt>
      <trkpt lat="44.85403" lon="5.67129">
        <ele>745.4</ele>
        <time>2021-04-22T10:30:18Z</time>
      </trkpt>
      <trkpt lat="44.85398" lon="5.67128">
        <ele>745.3</ele>
        <time>2021-04-22T10:30:19Z</time>
      </trkpt>
      <trkpt lat="44.85391" lon="5.67126">
        <ele>745.2</ele>
        <time>2021-04-22T10:30:20Z</time>
      </trkpt>
      <trkpt lat="44.85385" lon="5.67124">
        <ele>745</ele>
        <time>2021-04-22T10:30:21Z</time>
      </trkpt>
      <trkpt lat="44.85379" lon="5.67122">
        <ele>744.9</ele>
        <time>2021-04-22T10:30:22Z</time>
      </trkpt>
      <trkpt lat="44.85373" lon="5.6712">
        <ele>744.8</ele>
        <time>2021-04-22T10:30:23Z</time>
      </trkpt>
      <trkpt lat="44.85367" lon="5.67119">
        <ele>744.7</ele>
        <time>2021-04-22T10:30:24Z</time>
      </trkpt>
      <trkpt lat="44.85361" lon="5.67118">
        <ele>744.5</ele>
        <time>2021-04-22T10:30:25Z</time>
      </trkpt>
      <trkpt lat="44.85355" lon="5.67116">
        <ele>744.4</ele>
        <time>2021-04-22T10:30:26Z</time>
      </trkpt>
      <trkpt lat="44.85348" lon="5.67115">
        <ele>744.3</ele>
        <time>2021-04-22T10:30:27Z</time>
      </trkpt>
      <trkpt lat="44.85341" lon="5.67112">
        <ele>744.1</ele>
        <time>2021-04-22T10:30:28Z</time>
      </trkpt>
      <trkpt lat="44.85334" lon="5.67111">
        <ele>744</ele>
        <time>2021-04-22T10:30:29Z</time>
      </trkpt>
      <trkpt lat="44.85327" lon="5.67109">
        <ele>743.9</ele>
        <time>2021-04-22T10:30:30Z</time>
      </trkpt>
      <trkpt lat="44.8532" lon="5.67107">
        <ele>743.8</ele>
        <time>2021-04-22T10:30:31Z</time>
      </trkpt>
      <trkpt lat="44.85314" lon="5.67106">
        <ele>743.7</ele>
        <time>2021-04-22T10:30:32Z</time>
      </trkpt>
      <trkpt lat="44.85307" lon="5.67106">
        <ele>743.5</ele>
        <time>2021-04-22T10:30:33Z</time>
      </trkpt>
      <trkpt lat="44.853" lon="5.67105">
        <ele>743.4</ele>
        <time>2021-04-22T10:30:34Z</time>
      </trkpt>
      <trkpt lat="44.85294" lon="5.67104">
        <ele>743.4</ele>
        <time>2021-04-22T10:30:35Z</time>
      </trkpt>
      <trkpt lat="44.85287" lon="5.67102">
        <ele>743.3</ele>
        <time>2021-04-22T10:30:36Z</time>
      </trkpt>
      <trkpt lat="44.85281" lon="5.67101">
        <ele>743.2</ele>
        <time>2021-04-22T10:30:37Z</time>
      </trkpt>
      <trkpt lat="44.85275" lon="5.671">
        <ele>743.1</ele>
        <time>2021-04-22T10:30:38Z</time>
      </trkpt>
      <trkpt lat="44.85268" lon="5.67099">
        <ele>743</ele>
        <time>2021-04-22T10:30:39Z</time>
      </trkpt>
      <trkpt lat="44.85262" lon="5.67098">
        <ele>742.9</ele>
        <time>2021-04-22T10:30:40Z</time>
      </trkpt>
      <trkpt lat="44.85255" lon="5.67097">
        <ele>742.7</ele>
        <time>2021-04-22T10:30:41Z</time>
      </trkpt>
      <trkpt lat="44.85249" lon="5.67096">
        <ele>742.4</ele>
        <time>2021-04-22T10:30:42Z</time>
      </trkpt>
      <trkpt lat="44.85242" lon="5.67095">
        <ele>742.2</ele>
        <time>2021-04-22T10:30:43Z</time>
      </trkpt>
      <trkpt lat="44.85235" lon="5.67094">
        <ele>741.9</ele>
        <time>2021-04-22T10:30:44Z</time>
      </trkpt>
      <trkpt lat="44.85228" lon="5.67095">
        <ele>741.5</ele>
        <time>2021-04-22T10:30:45Z</time>
      </trkpt>
      <trkpt lat="44.85221" lon="5.67096">
        <ele>741.2</ele>
        <time>2021-04-22T10:30:46Z</time>
      </trkpt>
      <trkpt lat="44.85214" lon="5.67098">
        <ele>740.8</ele>
        <time>2021-04-22T10:30:47Z</time>
      </trkpt>
      <trkpt lat="44.85206" lon="5.67098">
        <ele>740.4</ele>
        <time>2021-04-22T10:30:48Z</time>
      </trkpt>
      <trkpt lat="44.85199" lon="5.67099">
        <ele>740</ele>
        <time>2021-04-22T10:30:49Z</time>
      </trkpt>
      <trkpt lat="44.85191" lon="5.67102">
        <ele>739.6</ele>
        <time>2021-04-22T10:30:50Z</time>
      </trkpt>
      <trkpt lat="44.85183" lon="5.67106">
        <ele>739.1</ele>
        <time>2021-04-22T10:30:51Z</time>
      </trkpt>
      <trkpt lat="44.85176" lon="5.6711">
        <ele>738.7</ele>
        <time>2021-04-22T10:30:52Z</time>
      </trkpt>
      <trkpt lat="44.85168" lon="5.67113">
        <ele>738.3</ele>
        <time>2021-04-22T10:30:53Z</time>
      </trkpt>
      <trkpt lat="44.8516" lon="5.67117">
        <ele>738</ele>
        <time>2021-04-22T10:30:54Z</time>
      </trkpt>
      <trkpt lat="44.85152" lon="5.6712">
        <ele>737.7</ele>
        <time>2021-04-22T10:30:55Z</time>
      </trkpt>
      <trkpt lat="44.85144" lon="5.67123">
        <ele>737.6</ele>
        <time>2021-04-22T10:30:56Z</time>
      </trkpt>
      <trkpt lat="44.85136" lon="5.67126">
        <ele>737.6</ele>
        <time>2021-04-22T10:30:57Z</time>
      </trkpt>
      <trkpt lat="44.85127" lon="5.67128">
        <ele>737.6</ele>
        <time>2021-04-22T10:30:58Z</time>
      </trkpt>
      <trkpt lat="44.85119" lon="5.6713">
        <ele>737.6</ele>
        <time>2021-04-22T10:30:59Z</time>
      </trkpt>
      <trkpt lat="44.85111" lon="5.67131">
        <ele>737.6</ele>
        <time>2021-04-22T10:31:00Z</time>
      </trkpt>
      <trkpt lat="44.85104" lon="5.67132">
        <ele>737.7</ele>
        <time>2021-04-22T10:31:01Z</time>
      </trkpt>
      <trkpt lat="44.85097" lon="5.67133">
        <ele>737.7</ele>
        <time>2021-04-22T10:31:02Z</time>
      </trkpt>
      <trkpt lat="44.8509" lon="5.67135">
        <ele>737.8</ele>
        <time>2021-04-22T10:31:03Z</time>
      </trkpt>
      <trkpt lat="44.85083" lon="5.67137">
        <ele>737.9</ele>
        <time>2021-04-22T10:31:04Z</time>
      </trkpt>
      <trkpt lat="44.85076" lon="5.6714">
        <ele>738.1</ele>
        <time>2021-04-22T10:31:05Z</time>
      </trkpt>
      <trkpt lat="44.85069" lon="5.67144">
        <ele>738.3</ele>
        <time>2021-04-22T10:31:06Z</time>
      </trkpt>
      <trkpt lat="44.85063" lon="5.67148">
        <ele>738.5</ele>
        <time>2021-04-22T10:31:07Z</time>
      </trkpt>
      <trkpt lat="44.85057" lon="5.67152">
        <ele>738.7</ele>
        <time>2021-04-22T10:31:08Z</time>
      </trkpt>
      <trkpt lat="44.85052" lon="5.67155">
        <ele>738.9</ele>
        <time>2021-04-22T10:31:09Z</time>
      </trkpt>
      <trkpt lat="44.85046" lon="5.67159">
        <ele>739.1</ele>
        <time>2021-04-22T10:31:10Z</time>
      </trkpt>
      <trkpt lat="44.85041" lon="5.67161">
        <ele>739.3</ele>
        <time>2021-04-22T10:31:11Z</time>
      </trkpt>
      <trkpt lat="44.85036" lon="5.67163">
        <ele>739.5</ele>
        <time>2021-04-22T10:31:12Z</time>
      </trkpt>
      <trkpt lat="44.85031" lon="5.67166">
        <ele>739.6</ele>
        <time>2021-04-22T10:31:13Z</time>
      </trkpt>
      <trkpt lat="44.85027" lon="5.67168">
        <ele>739.7</ele>
        <time>2021-04-22T10:31:14Z</time>
      </trkpt>
      <trkpt lat="44.85022" lon="5.6717">
        <ele>739.8</ele>
        <time>2021-04-22T10:31:15Z</time>
      </trkpt>
      <trkpt lat="44.85017" lon="5.67172">
        <ele>739.9</ele>
        <time>2021-04-22T10:31:16Z</time>
      </trkpt>
      <trkpt lat="44.85013" lon="5.67175">
        <ele>740</ele>
        <time>2021-04-22T10:31:17Z</time>
      </trkpt>
      <trkpt lat="44.85008" lon="5.67177">
        <ele>740</ele>
        <time>2021-04-22T10:31:18Z</time>
      </trkpt>
      <trkpt lat="44.85004" lon="5.6718">
        <ele>740</ele>
        <time>2021-04-22T10:31:19Z</time>
      </trkpt>
      <trkpt lat="44.84999" lon="5.67182">
        <ele>740</ele>
        <time>2021-04-22T10:31:20Z</time>
      </trkpt>
      <trkpt lat="44.84995" lon="5.67185">
        <ele>740</ele>
        <time>2021-04-22T10:31:21Z</time>
      </trkpt>
      <trkpt lat="44.8499" lon="5.67187">
        <ele>740</ele>
        <time>2021-04-22T10:31:22Z</time>
      </trkpt>
      <trkpt lat="44.84984" lon="5.67191">
        <ele>740</ele>
        <time>2021-04-22T10:31:23Z</time>
      </trkpt>
      <trkpt lat="44.84979" lon="5.67193">
        <ele>740.1</ele>
        <time>2021-04-22T10:31:24Z</time>
      </trkpt>
      <trkpt lat="44.84973" lon="5.67194">
        <ele>740.1</ele>
        <time>2021-04-22T10:31:25Z</time>
      </trkpt>
      <trkpt lat="44.84967" lon="5.67194">
        <ele>740.1</ele>
        <time>2021-04-22T10:31:26Z</time>
      </trkpt>
      <trkpt lat="44.84961" lon="5.67195">
        <ele>740.2</ele>
        <time>2021-04-22T10:31:27Z</time>
      </trkpt>
      <trkpt lat="44.84955" lon="5.67196">
        <ele>740.2</ele>
        <time>2021-04-22T10:31:28Z</time>
      </trkpt>
      <trkpt lat="44.84949" lon="5.67198">
        <ele>740.2</ele>
        <time>2021-04-22T10:31:29Z</time>
      </trkpt>
      <trkpt lat="44.84944" lon="5.672">
        <ele>740.2</ele>
        <time>2021-04-22T10:31:30Z</time>
      </trkpt>
      <trkpt lat="44.84939" lon="5.67201">
        <ele>740.1</ele>
        <time>2021-04-22T10:31:31Z</time>
      </trkpt>
      <trkpt lat="44.84934" lon="5.67199">
        <ele>740.1</ele>
        <time>2021-04-22T10:31:32Z</time>
      </trkpt>
      <trkpt lat="44.84929" lon="5.67197">
        <ele>740</ele>
        <time>2021-04-22T10:31:33Z</time>
      </trkpt>
      <trkpt lat="44.84923" lon="5.67196">
        <ele>739.9</ele>
        <time>2021-04-22T10:31:34Z</time>
      </trkpt>
      <trkpt lat="44.84917" lon="5.67196">
        <ele>739.8</ele>
        <time>2021-04-22T10:31:35Z</time>
      </trkpt>
      <trkpt lat="44.84912" lon="5.67195">
        <ele>739.7</ele>
        <time>2021-04-22T10:31:36Z</time>
      </trkpt>
      <trkpt lat="44.84905" lon="5.67194">
        <ele>739.5</ele>
        <time>2021-04-22T10:31:37Z</time>
      </trkpt>
      <trkpt lat="44.84899" lon="5.67193">
        <ele>739.3</ele>
        <time>2021-04-22T10:31:38Z</time>
      </trkpt>
      <trkpt lat="44.84892" lon="5.67192">
        <ele>739.1</ele>
        <time>2021-04-22T10:31:39Z</time>
      </trkpt>
      <trkpt lat="44.84885" lon="5.67191">
        <ele>738.9</ele>
        <time>2021-04-22T10:31:40Z</time>
      </trkpt>
      <trkpt lat="44.84878" lon="5.6719">
        <ele>738.7</ele>
        <time>2021-04-22T10:31:41Z</time>
      </trkpt>
      <trkpt lat="44.84871" lon="5.67189">
        <ele>738.6</ele>
        <time>2021-04-22T10:31:42Z</time>
      </trkpt>
      <trkpt lat="44.84864" lon="5.67188">
        <ele>738.4</ele>
        <time>2021-04-22T10:31:43Z</time>
      </trkpt>
      <trkpt lat="44.84857" lon="5.67186">
        <ele>738.2</ele>
        <time>2021-04-22T10:31:44Z</time>
      </trkpt>
      <trkpt lat="44.84849" lon="5.67185">
        <ele>737.9</ele>
        <time>2021-04-22T10:31:45Z</time>
      </trkpt>
      <trkpt lat="44.84842" lon="5.67183">
        <ele>737.5</ele>
        <time>2021-04-22T10:31:46Z</time>
      </trkpt>
      <trkpt lat="44.84832" lon="5.67182">
        <ele>737</ele>
        <time>2021-04-22T10:31:47Z</time>
      </trkpt>
      <trkpt lat="44.84823" lon="5.67181">
        <ele>736.3</ele>
        <time>2021-04-22T10:31:48Z</time>
      </trkpt>
      <trkpt lat="44.84814" lon="5.6718">
        <ele>735.6</ele>
        <time>2021-04-22T10:31:49Z</time>
      </trkpt>
      <trkpt lat="44.84804" lon="5.6718">
        <ele>734.8</ele>
        <time>2021-04-22T10:31:50Z</time>
      </trkpt>
      <trkpt lat="44.84794" lon="5.67179">
        <ele>734</ele>
        <time>2021-04-22T10:31:51Z</time>
      </trkpt>
      <trkpt lat="44.84785" lon="5.67178">
        <ele>733.2</ele>
        <time>2021-04-22T10:31:52Z</time>
      </trkpt>
      <trkpt lat="44.84775" lon="5.67176">
        <ele>732.1</ele>
        <time>2021-04-22T10:31:53Z</time>
      </trkpt>
      <trkpt lat="44.84765" lon="5.67175">
        <ele>731.1</ele>
        <time>2021-04-22T10:31:54Z</time>
      </trkpt>
      <trkpt lat="44.84754" lon="5.67174">
        <ele>730</ele>
        <time>2021-04-22T10:31:55Z</time>
      </trkpt>
      <trkpt lat="44.84742" lon="5.67173">
        <ele>728.9</ele>
        <time>2021-04-22T10:31:56Z</time>
      </trkpt>
      <trkpt lat="44.84731" lon="5.67171">
        <ele>727.8</ele>
        <time>2021-04-22T10:31:57Z</time>
      </trkpt>
      <trkpt lat="44.8472" lon="5.6717">
        <ele>726.8</ele>
        <time>2021-04-22T10:31:58Z</time>
      </trkpt>
      <trkpt lat="44.84709" lon="5.67168">
        <ele>725.7</ele>
        <time>2021-04-22T10:31:59Z</time>
      </trkpt>
      <trkpt lat="44.84698" lon="5.67167">
        <ele>724.6</ele>
        <time>2021-04-22T10:32:00Z</time>
      </trkpt>
      <trkpt lat="44.84686" lon="5.67166">
        <ele>723.6</ele>
        <time>2021-04-22T10:32:01Z</time>
      </trkpt>
      <trkpt lat="44.84675" lon="5.67165">
        <ele>722.5</ele>
        <time>2021-04-22T10:32:02Z</time>
      </trkpt>
      <trkpt lat="44.84666" lon="5.67164">
        <ele>721.6</ele>
        <time>2021-04-22T10:32:03Z</time>
      </trkpt>
      <trkpt lat="44.84655" lon="5.67162">
        <ele>720.5</ele>
        <time>2021-04-22T10:32:04Z</time>
      </trkpt>
      <trkpt lat="44.84645" lon="5.67161">
        <ele>719.5</ele>
        <time>2021-04-22T10:32:05Z</time>
      </trkpt>
      <trkpt lat="44.84634" lon="5.6716">
        <ele>718.4</ele>
        <time>2021-04-22T10:32:06Z</time>
      </trkpt>
      <trkpt lat="44.84623" lon="5.67159">
        <ele>717.3</ele>
        <time>2021-04-22T10:32:07Z</time>
      </trkpt>
      <trkpt lat="44.84612" lon="5.67158">
        <ele>716.3</ele>
        <time>2021-04-22T10:32:08Z</time>
      </trkpt>
      <trkpt lat="44.84601" lon="5.67157">
        <ele>715.3</ele>
        <time>2021-04-22T10:32:09Z</time>
      </trkpt>
      <trkpt lat="44.84589" lon="5.67156">
        <ele>714.3</ele>
        <time>2021-04-22T10:32:10Z</time>
      </trkpt>
      <trkpt lat="44.84577" lon="5.67155">
        <ele>713.3</ele>
        <time>2021-04-22T10:32:11Z</time>
      </trkpt>
      <trkpt lat="44.84565" lon="5.67154">
        <ele>712.2</ele>
        <time>2021-04-22T10:32:12Z</time>
      </trkpt>
      <trkpt lat="44.84553" lon="5.67154">
        <ele>711.1</ele>
        <time>2021-04-22T10:32:13Z</time>
      </trkpt>
      <trkpt lat="44.84541" lon="5.67153">
        <ele>710</ele>
        <time>2021-04-22T10:32:14Z</time>
      </trkpt>
      <trkpt lat="44.84528" lon="5.67151">
        <ele>708.8</ele>
        <time>2021-04-22T10:32:15Z</time>
      </trkpt>
      <trkpt lat="44.84515" lon="5.6715">
        <ele>707.6</ele>
        <time>2021-04-22T10:32:16Z</time>
      </trkpt>
      <trkpt lat="44.84502" lon="5.67148">
        <ele>706.5</ele>
        <time>2021-04-22T10:32:17Z</time>
      </trkpt>
      <trkpt lat="44.8449" lon="5.67147">
        <ele>705.5</ele>
        <time>2021-04-22T10:32:18Z</time>
      </trkpt>
      <trkpt lat="44.84477" lon="5.67146">
        <ele>704.5</ele>
        <time>2021-04-22T10:32:19Z</time>
      </trkpt>
      <trkpt lat="44.84464" lon="5.67144">
        <ele>703.6</ele>
        <time>2021-04-22T10:32:20Z</time>
      </trkpt>
      <trkpt lat="44.84451" lon="5.67143">
        <ele>703</ele>
        <time>2021-04-22T10:32:21Z</time>
      </trkpt>
      <trkpt lat="44.84438" lon="5.67143">
        <ele>702.6</ele>
        <time>2021-04-22T10:32:22Z</time>
      </trkpt>
      <trkpt lat="44.84426" lon="5.67142">
        <ele>702.2</ele>
        <time>2021-04-22T10:32:23Z</time>
      </trkpt>
      <trkpt lat="44.84414" lon="5.67141">
        <ele>702</ele>
        <time>2021-04-22T10:32:24Z</time>
      </trkpt>
      <trkpt lat="44.84402" lon="5.67139">
        <ele>701.8</ele>
        <time>2021-04-22T10:32:25Z</time>
      </trkpt>
      <trkpt lat="44.8439" lon="5.67138">
        <ele>701.7</ele>
        <time>2021-04-22T10:32:26Z</time>
      </trkpt>
      <trkpt lat="44.84379" lon="5.67137">
        <ele>701.7</ele>
        <time>2021-04-22T10:32:27Z</time>
      </trkpt>
      <trkpt lat="44.84368" lon="5.67135">
        <ele>701.7</ele>
        <time>2021-04-22T10:32:28Z</time>
      </trkpt>
      <trkpt lat="44.84357" lon="5.67134">
        <ele>701.8</ele>
        <time>2021-04-22T10:32:29Z</time>
      </trkpt>
      <trkpt lat="44.84346" lon="5.67134">
        <ele>701.8</ele>
        <time>2021-04-22T10:32:30Z</time>
      </trkpt>
      <trkpt lat="44.84336" lon="5.67133">
        <ele>701.8</ele>
        <time>2021-04-22T10:32:31Z</time>
      </trkpt>
      <trkpt lat="44.84326" lon="5.67132">
        <ele>701.8</ele>
        <time>2021-04-22T10:32:32Z</time>
      </trkpt>
      <trkpt lat="44.84315" lon="5.6713">
        <ele>701.8</ele>
        <time>2021-04-22T10:32:33Z</time>
      </trkpt>
      <trkpt lat="44.84306" lon="5.6713">
        <ele>701.7</ele>
        <time>2021-04-22T10:32:34Z</time>
      </trkpt>
      <trkpt lat="44.84296" lon="5.67129">
        <ele>701.4</ele>
        <time>2021-04-22T10:32:35Z</time>
      </trkpt>
      <trkpt lat="44.84286" lon="5.67129">
        <ele>701.2</ele>
        <time>2021-04-22T10:32:36Z</time>
      </trkpt>
      <trkpt lat="44.84277" lon="5.67128">
        <ele>700.9</ele>
        <time>2021-04-22T10:32:37Z</time>
      </trkpt>
      <trkpt lat="44.84268" lon="5.67127">
        <ele>700.5</ele>
        <time>2021-04-22T10:32:38Z</time>
      </trkpt>
      <trkpt lat="44.84258" lon="5.67127">
        <ele>700.2</ele>
        <time>2021-04-22T10:32:39Z</time>
      </trkpt>
      <trkpt lat="44.84249" lon="5.67126">
        <ele>699.8</ele>
        <time>2021-04-22T10:32:40Z</time>
      </trkpt>
      <trkpt lat="44.84239" lon="5.67127">
        <ele>699.4</ele>
        <time>2021-04-22T10:32:41Z</time>
      </trkpt>
      <trkpt lat="44.84229" lon="5.67128">
        <ele>699</ele>
        <time>2021-04-22T10:32:42Z</time>
      </trkpt>
      <trkpt lat="44.84221" lon="5.6713">
        <ele>698.8</ele>
        <time>2021-04-22T10:32:43Z</time>
      </trkpt>
      <trkpt lat="44.84216" lon="5.67132">
        <ele>698.6</ele>
        <time>2021-04-22T10:32:44Z</time>
      </trkpt>
      <trkpt lat="44.84215" lon="5.67133">
        <ele>698.5</ele>
        <time>2021-04-22T10:32:45Z</time>
      </trkpt>
      <trkpt lat="44.84214" lon="5.67133">
        <ele>698.5</ele>
        <time>2021-04-22T10:32:46Z</time>
      </trkpt>
      <trkpt lat="44.84213" lon="5.67133">
        <ele>698.5</ele>
        <time>2021-04-22T10:32:47Z</time>
      </trkpt>
      <trkpt lat="44.84213" lon="5.67133">
        <ele>698.5</ele>
        <time>2021-04-22T10:32:48Z</time>
      </trkpt>
      <trkpt lat="44.84213" lon="5.67133">
        <ele>698.5</ele>
        <time>2021-04-22T10:32:49Z</time>
      </trkpt>
      <trkpt lat="44.84213" lon="5.67133">
        <ele>698.5</ele>
        <time>2021-04-22T10:32:50Z</time>
      </trkpt>
      <trkpt lat="44.84212" lon="5.67133">
        <ele>698.5</ele>
        <time>2021-04-22T10:32:51Z</time>
      </trkpt>
      <trkpt lat="44.84212" lon="5.67134">
        <ele>698.5</ele>
        <time>2021-04-22T10:32:52Z</time>
      </trkpt>
      <trkpt lat="44.84211" lon="5.67134">
        <ele>698.4</ele>
        <time>2021-04-22T10:32:53Z</time>
      </trkpt>
      <trkpt lat="44.84211" lon="5.67134">
        <ele>698.4</ele>
        <time>2021-04-22T10:32:55Z</time>
      </trkpt>
      <trkpt lat="44.84211" lon="5.67134">
        <ele>698.4</ele>
        <time>2021-04-22T10:32:56Z</time>
      </trkpt>
      <trkpt lat="44.8421" lon="5.67135">
        <ele>698.4</ele>
        <time>2021-04-22T10:32:57Z</time>
      </trkpt>
      <trkpt lat="44.8421" lon="5.67135">
        <ele>698.4</ele>
        <time>2021-04-22T10:32:58Z</time>
      </trkpt>
      <trkpt lat="44.84209" lon="5.67135">
        <ele>698.4</ele>
        <time>2021-04-22T10:32:59Z</time>
      </trkpt>
      <trkpt lat="44.84209" lon="5.67135">
        <ele>698.4</ele>
        <time>2021-04-22T10:33:00Z</time>
      </trkpt>
      <trkpt lat="44.84208" lon="5.67136">
        <ele>698.4</ele>
        <time>2021-04-22T10:33:01Z</time>
      </trkpt>
      <trkpt lat="44.84208" lon="5.67136">
        <ele>698.4</ele>
        <time>2021-04-22T10:33:02Z</time>
      </trkpt>
      <trkpt lat="44.84207" lon="5.67136">
        <ele>698.4</ele>
        <time>2021-04-22T10:33:25Z</time>
      </trkpt>
      <trkpt lat="44.84207" lon="5.67136">
        <ele>698.4</ele>
        <time>2021-04-22T10:33:26Z</time>
      </trkpt>
      <trkpt lat="44.84206" lon="5.67137">
        <ele>698.4</ele>
        <time>2021-04-22T10:33:27Z</time>
      </trkpt>
      <trkpt lat="44.84204" lon="5.67139">
        <ele>698.3</ele>
        <time>2021-04-22T10:33:28Z</time>
      </trkpt>
      <trkpt lat="44.84202" lon="5.67141">
        <ele>698.3</ele>
        <time>2021-04-22T10:33:29Z</time>
      </trkpt>
      <trkpt lat="44.842" lon="5.67144">
        <ele>698.3</ele>
        <time>2021-04-22T10:33:30Z</time>
      </trkpt>
      <trkpt lat="44.84196" lon="5.67147">
        <ele>698.3</ele>
        <time>2021-04-22T10:33:31Z</time>
      </trkpt>
      <trkpt lat="44.84194" lon="5.6715">
        <ele>698.3</ele>
        <time>2021-04-22T10:33:32Z</time>
      </trkpt>
      <trkpt lat="44.84191" lon="5.67153">
        <ele>698.4</ele>
        <time>2021-04-22T10:33:33Z</time>
      </trkpt>
      <trkpt lat="44.84189" lon="5.67157">
        <ele>698.4</ele>
        <time>2021-04-22T10:33:34Z</time>
      </trkpt>
      <trkpt lat="44.84186" lon="5.67161">
        <ele>698.4</ele>
        <time>2021-04-22T10:33:35Z</time>
      </trkpt>
      <trkpt lat="44.84184" lon="5.67166">
        <ele>698.4</ele>
        <time>2021-04-22T10:33:36Z</time>
      </trkpt>
      <trkpt lat="44.8418" lon="5.67172">
        <ele>698.4</ele>
        <time>2021-04-22T10:33:37Z</time>
      </trkpt>
      <trkpt lat="44.84177" lon="5.67178">
        <ele>698.4</ele>
        <time>2021-04-22T10:33:38Z</time>
      </trkpt>
      <trkpt lat="44.84173" lon="5.67183">
        <ele>698.5</ele>
        <time>2021-04-22T10:33:39Z</time>
      </trkpt>
      <trkpt lat="44.8417" lon="5.67189">
        <ele>698.6</ele>
        <time>2021-04-22T10:33:40Z</time>
      </trkpt>
      <trkpt lat="44.84168" lon="5.67194">
        <ele>698.6</ele>
        <time>2021-04-22T10:33:41Z</time>
      </trkpt>
      <trkpt lat="44.84165" lon="5.672">
        <ele>698.7</ele>
        <time>2021-04-22T10:33:42Z</time>
      </trkpt>
      <trkpt lat="44.84162" lon="5.67205">
        <ele>698.8</ele>
        <time>2021-04-22T10:33:43Z</time>
      </trkpt>
      <trkpt lat="44.84158" lon="5.67211">
        <ele>698.9</ele>
        <time>2021-04-22T10:33:44Z</time>
      </trkpt>
      <trkpt lat="44.84155" lon="5.67217">
        <ele>699</ele>
        <time>2021-04-22T10:33:45Z</time>
      </trkpt>
      <trkpt lat="44.84152" lon="5.67223">
        <ele>699.1</ele>
        <time>2021-04-22T10:33:46Z</time>
      </trkpt>
      <trkpt lat="44.84148" lon="5.67227">
        <ele>699.3</ele>
        <time>2021-04-22T10:33:47Z</time>
      </trkpt>
      <trkpt lat="44.84145" lon="5.67231">
        <ele>699.4</ele>
        <time>2021-04-22T10:33:48Z</time>
      </trkpt>
      <trkpt lat="44.84141" lon="5.67236">
        <ele>699.6</ele>
        <time>2021-04-22T10:33:49Z</time>
      </trkpt>
      <trkpt lat="44.84138" lon="5.67242">
        <ele>699.8</ele>
        <time>2021-04-22T10:33:50Z</time>
      </trkpt>
      <trkpt lat="44.84134" lon="5.67247">
        <ele>700</ele>
        <time>2021-04-22T10:33:51Z</time>
      </trkpt>
      <trkpt lat="44.8413" lon="5.67252">
        <ele>700.2</ele>
        <time>2021-04-22T10:33:52Z</time>
      </trkpt>
      <trkpt lat="44.84127" lon="5.67256">
        <ele>700.4</ele>
        <time>2021-04-22T10:33:53Z</time>
      </trkpt>
      <trkpt lat="44.8412" lon="5.67263">
        <ele>700.8</ele>
        <time>2021-04-22T10:33:55Z</time>
      </trkpt>
      <trkpt lat="44.84114" lon="5.67265">
        <ele>701.1</ele>
        <time>2021-04-22T10:33:56Z</time>
      </trkpt>
      <trkpt lat="44.84109" lon="5.67267">
        <ele>701.3</ele>
        <time>2021-04-22T10:33:58Z</time>
      </trkpt>
      <trkpt lat="44.84102" lon="5.67277">
        <ele>701.8</ele>
        <time>2021-04-22T10:34:00Z</time>
      </trkpt>
      <trkpt lat="44.84096" lon="5.67281">
        <ele>702.2</ele>
        <time>2021-04-22T10:34:02Z</time>
      </trkpt>
      <trkpt lat="44.84089" lon="5.67284">
        <ele>702.6</ele>
        <time>2021-04-22T10:34:04Z</time>
      </trkpt>
      <trkpt lat="44.84086" lon="5.67285">
        <ele>702.8</ele>
        <time>2021-04-22T10:34:05Z</time>
      </trkpt>
      <trkpt lat="44.84079" lon="5.67285">
        <ele>703.1</ele>
        <time>2021-04-22T10:34:07Z</time>
      </trkpt>
      <trkpt lat="44.84072" lon="5.67284">
        <ele>703.5</ele>
        <time>2021-04-22T10:34:09Z</time>
      </trkpt>
      <trkpt lat="44.84066" lon="5.67283">
        <ele>703.7</ele>
        <time>2021-04-22T10:34:11Z</time>
      </trkpt>
      <trkpt lat="44.84061" lon="5.6728">
        <ele>704</ele>
        <time>2021-04-22T10:34:13Z</time>
      </trkpt>
      <trkpt lat="44.84057" lon="5.67277">
        <ele>704.2</ele>
        <time>2021-04-22T10:34:15Z</time>
      </trkpt>
      <trkpt lat="44.84056" lon="5.67277">
        <ele>704.3</ele>
        <time>2021-04-22T10:34:16Z</time>
      </trkpt>
      <trkpt lat="44.84056" lon="5.67277">
        <ele>704.3</ele>
        <time>2021-04-22T10:34:17Z</time>
      </trkpt>
      <trkpt lat="44.84059" lon="5.67278">
        <ele>704.4</ele>
        <time>2021-04-22T10:34:18Z</time>
      </trkpt>
      <trkpt lat="44.8406" lon="5.67278">
        <ele>704.5</ele>
        <time>2021-04-22T10:34:19Z</time>
      </trkpt>
      <trkpt lat="44.8406" lon="5.67278">
        <ele>704.5</ele>
        <time>2021-04-22T10:34:20Z</time>
      </trkpt>
      <trkpt lat="44.84059" lon="5.67278">
        <ele>704.5</ele>
        <time>2021-04-22T10:34:21Z</time>
      </trkpt>
      <trkpt lat="44.84058" lon="5.67277">
        <ele>704.6</ele>
        <time>2021-04-22T10:34:22Z</time>
      </trkpt>
      <trkpt lat="44.84058" lon="5.67277">
        <ele>704.6</ele>
        <time>2021-04-22T10:34:23Z</time>
      </trkpt>
      <trkpt lat="44.84057" lon="5.67277">
        <ele>704.6</ele>
        <time>2021-04-22T10:34:24Z</time>
      </trkpt>
      <trkpt lat="44.84056" lon="5.67276">
        <ele>704.7</ele>
        <time>2021-04-22T10:34:26Z</time>
      </trkpt>
      <trkpt lat="44.84055" lon="5.67276">
        <ele>704.7</ele>
        <time>2021-04-22T10:34:27Z</time>
      </trkpt>
      <trkpt lat="44.84055" lon="5.67276">
        <ele>704.7</ele>
        <time>2021-04-22T10:34:28Z</time>
      </trkpt>
      <trkpt lat="44.84054" lon="5.67275">
        <ele>704.8</ele>
        <time>2021-04-22T10:34:29Z</time>
      </trkpt>
      <trkpt lat="44.84053" lon="5.67275">
        <ele>704.8</ele>
        <time>2021-04-22T10:34:30Z</time>
      </trkpt>
      <trkpt lat="44.84052" lon="5.67275">
        <ele>704.8</ele>
        <time>2021-04-22T10:34:31Z</time>
      </trkpt>
      <trkpt lat="44.84052" lon="5.67274">
        <ele>704.9</ele>
        <time>2021-04-22T10:34:32Z</time>
      </trkpt>
      <trkpt lat="44.84051" lon="5.67274">
        <ele>704.9</ele>
        <time>2021-04-22T10:34:33Z</time>
      </trkpt>
      <trkpt lat="44.8405" lon="5.67274">
        <ele>704.9</ele>
        <time>2021-04-22T10:34:49Z</time>
      </trkpt>
      <trkpt lat="44.84049" lon="5.67273">
        <ele>704.9</ele>
        <time>2021-04-22T10:34:50Z</time>
      </trkpt>
      <trkpt lat="44.84049" lon="5.67273">
        <ele>705</ele>
        <time>2021-04-22T10:34:51Z</time>
      </trkpt>
      <trkpt lat="44.84043" lon="5.6727">
        <ele>705.2</ele>
        <time>2021-04-22T10:34:53Z</time>
      </trkpt>
      <trkpt lat="44.8404" lon="5.67269">
        <ele>705.2</ele>
        <time>2021-04-22T10:34:54Z</time>
      </trkpt>
      <trkpt lat="44.84036" lon="5.67267">
        <ele>705.3</ele>
        <time>2021-04-22T10:34:55Z</time>
      </trkpt>
      <trkpt lat="44.8403" lon="5.67264">
        <ele>705.5</ele>
        <time>2021-04-22T10:34:57Z</time>
      </trkpt>
      <trkpt lat="44.84027" lon="5.67262">
        <ele>705.6</ele>
        <time>2021-04-22T10:34:58Z</time>
      </trkpt>
      <trkpt lat="44.84022" lon="5.67259">
        <ele>705.6</ele>
        <time>2021-04-22T10:34:59Z</time>
      </trkpt>
      <trkpt lat="44.84015" lon="5.67256">
        <ele>705.7</ele>
        <time>2021-04-22T10:35:01Z</time>
      </trkpt>
      <trkpt lat="44.8401" lon="5.67253">
        <ele>705.7</ele>
        <time>2021-04-22T10:35:02Z</time>
      </trkpt>
      <trkpt lat="44.84004" lon="5.6725">
        <ele>705.7</ele>
        <time>2021-04-22T10:35:04Z</time>
      </trkpt>
      <trkpt lat="44.83996" lon="5.67246">
        <ele>705.7</ele>
        <time>2021-04-22T10:35:06Z</time>
      </trkpt>
      <trkpt lat="44.83987" lon="5.67242">
        <ele>705.6</ele>
        <time>2021-04-22T10:35:08Z</time>
      </trkpt>
      <trkpt lat="44.83982" lon="5.6724">
        <ele>705.6</ele>
        <time>2021-04-22T10:35:09Z</time>
      </trkpt>
      <trkpt lat="44.83977" lon="5.67238">
        <ele>705.5</ele>
        <time>2021-04-22T10:35:10Z</time>
      </trkpt>
      <trkpt lat="44.83972" lon="5.67236">
        <ele>705.5</ele>
        <time>2021-04-22T10:35:11Z</time>
      </trkpt>
      <trkpt lat="44.83968" lon="5.67233">
        <ele>705.4</ele>
        <time>2021-04-22T10:35:12Z</time>
      </trkpt>
      <trkpt lat="44.83963" lon="5.67231">
        <ele>705.4</ele>
        <time>2021-04-22T10:35:13Z</time>
      </trkpt>
      <trkpt lat="44.83958" lon="5.67229">
        <ele>705.4</ele>
        <time>2021-04-22T10:35:14Z</time>
      </trkpt>
      <trkpt lat="44.83952" lon="5.67227">
        <ele>705.3</ele>
        <time>2021-04-22T10:35:15Z</time>
      </trkpt>
      <trkpt lat="44.83947" lon="5.67225">
        <ele>705.3</ele>
        <time>2021-04-22T10:35:16Z</time>
      </trkpt>
      <trkpt lat="44.83942" lon="5.67223">
        <ele>705.3</ele>
        <time>2021-04-22T10:35:17Z</time>
      </trkpt>
      <trkpt lat="44.83937" lon="5.67221">
        <ele>705.2</ele>
        <time>2021-04-22T10:35:18Z</time>
      </trkpt>
      <trkpt lat="44.83932" lon="5.6722">
        <ele>705.2</ele>
        <time>2021-04-22T10:35:19Z</time>
      </trkpt>
      <trkpt lat="44.83927" lon="5.67218">
        <ele>705.1</ele>
        <time>2021-04-22T10:35:20Z</time>
      </trkpt>
      <trkpt lat="44.83922" lon="5.67216">
        <ele>705.1</ele>
        <time>2021-04-22T10:35:21Z</time>
      </trkpt>
      <trkpt lat="44.83917" lon="5.67215">
        <ele>705</ele>
        <time>2021-04-22T10:35:22Z</time>
      </trkpt>
      <trkpt lat="44.83912" lon="5.67213">
        <ele>705</ele>
        <time>2021-04-22T10:35:23Z</time>
      </trkpt>
      <trkpt lat="44.83907" lon="5.67212">
        <ele>704.9</ele>
        <time>2021-04-22T10:35:24Z</time>
      </trkpt>
      <trkpt lat="44.83901" lon="5.67211">
        <ele>704.8</ele>
        <time>2021-04-22T10:35:25Z</time>
      </trkpt>
      <trkpt lat="44.83896" lon="5.6721">
        <ele>704.7</ele>
        <time>2021-04-22T10:35:26Z</time>
      </trkpt>
      <trkpt lat="44.8389" lon="5.67209">
        <ele>704.7</ele>
        <time>2021-04-22T10:35:27Z</time>
      </trkpt>
      <trkpt lat="44.83884" lon="5.67207">
        <ele>704.6</ele>
        <time>2021-04-22T10:35:28Z</time>
      </trkpt>
      <trkpt lat="44.83878" lon="5.67205">
        <ele>704.5</ele>
        <time>2021-04-22T10:35:29Z</time>
      </trkpt>
      <trkpt lat="44.83873" lon="5.67203">
        <ele>704.5</ele>
        <time>2021-04-22T10:35:30Z</time>
      </trkpt>
      <trkpt lat="44.83867" lon="5.67202">
        <ele>704.5</ele>
        <time>2021-04-22T10:35:31Z</time>
      </trkpt>
      <trkpt lat="44.83861" lon="5.67202">
        <ele>704.4</ele>
        <time>2021-04-22T10:35:32Z</time>
      </trkpt>
      <trkpt lat="44.83855" lon="5.67201">
        <ele>704.4</ele>
        <time>2021-04-22T10:35:33Z</time>
      </trkpt>
      <trkpt lat="44.83849" lon="5.67201">
        <ele>704.4</ele>
        <time>2021-04-22T10:35:34Z</time>
      </trkpt>
      <trkpt lat="44.83843" lon="5.67201">
        <ele>704.3</ele>
        <time>2021-04-22T10:35:35Z</time>
      </trkpt>
      <trkpt lat="44.83837" lon="5.67202">
        <ele>704.3</ele>
        <time>2021-04-22T10:35:36Z</time>
      </trkpt>
      <trkpt lat="44.83831" lon="5.67203">
        <ele>704.3</ele>
        <time>2021-04-22T10:35:37Z</time>
      </trkpt>
      <trkpt lat="44.83825" lon="5.67205">
        <ele>704.2</ele>
        <time>2021-04-22T10:35:38Z</time>
      </trkpt>
      <trkpt lat="44.83819" lon="5.67207">
        <ele>704.2</ele>
        <time>2021-04-22T10:35:39Z</time>
      </trkpt>
      <trkpt lat="44.83813" lon="5.67209">
        <ele>704.1</ele>
        <time>2021-04-22T10:35:40Z</time>
      </trkpt>
      <trkpt lat="44.83807" lon="5.67213">
        <ele>704.1</ele>
        <time>2021-04-22T10:35:41Z</time>
      </trkpt>
      <trkpt lat="44.83801" lon="5.67217">
        <ele>704</ele>
        <time>2021-04-22T10:35:42Z</time>
      </trkpt>
      <trkpt lat="44.83796" lon="5.67222">
        <ele>703.9</ele>
        <time>2021-04-22T10:35:43Z</time>
      </trkpt>
      <trkpt lat="44.83791" lon="5.67227">
        <ele>703.9</ele>
        <time>2021-04-22T10:35:44Z</time>
      </trkpt>
      <trkpt lat="44.83786" lon="5.67233">
        <ele>703.8</ele>
        <time>2021-04-22T10:35:45Z</time>
      </trkpt>
      <trkpt lat="44.83781" lon="5.67238">
        <ele>703.7</ele>
        <time>2021-04-22T10:35:46Z</time>
      </trkpt>
      <trkpt lat="44.83776" lon="5.67242">
        <ele>703.5</ele>
        <time>2021-04-22T10:35:47Z</time>
      </trkpt>
      <trkpt lat="44.83771" lon="5.67246">
        <ele>703.4</ele>
        <time>2021-04-22T10:35:48Z</time>
      </trkpt>
      <trkpt lat="44.83765" lon="5.67251">
        <ele>703.2</ele>
        <time>2021-04-22T10:35:49Z</time>
      </trkpt>
      <trkpt lat="44.83759" lon="5.67255">
        <ele>702.9</ele>
        <time>2021-04-22T10:35:50Z</time>
      </trkpt>
      <trkpt lat="44.83753" lon="5.67259">
        <ele>702.6</ele>
        <time>2021-04-22T10:35:51Z</time>
      </trkpt>
      <trkpt lat="44.83746" lon="5.67262">
        <ele>702.2</ele>
        <time>2021-04-22T10:35:52Z</time>
      </trkpt>
      <trkpt lat="44.83739" lon="5.67265">
        <ele>701.8</ele>
        <time>2021-04-22T10:35:53Z</time>
      </trkpt>
      <trkpt lat="44.83732" lon="5.67267">
        <ele>701.4</ele>
        <time>2021-04-22T10:35:54Z</time>
      </trkpt>
      <trkpt lat="44.83723" lon="5.67268">
        <ele>700.9</ele>
        <time>2021-04-22T10:35:55Z</time>
      </trkpt>
      <trkpt lat="44.83715" lon="5.67268">
        <ele>700.4</ele>
        <time>2021-04-22T10:35:56Z</time>
      </trkpt>
      <trkpt lat="44.83706" lon="5.67267">
        <ele>699.9</ele>
        <time>2021-04-22T10:35:57Z</time>
      </trkpt>
      <trkpt lat="44.83697" lon="5.67263">
        <ele>699.4</ele>
        <time>2021-04-22T10:35:58Z</time>
      </trkpt>
      <trkpt lat="44.83689" lon="5.67259">
        <ele>698.8</ele>
        <time>2021-04-22T10:35:59Z</time>
      </trkpt>
      <trkpt lat="44.8368" lon="5.67253">
        <ele>698.2</ele>
        <time>2021-04-22T10:36:00Z</time>
      </trkpt>
      <trkpt lat="44.83672" lon="5.67247">
        <ele>697.6</ele>
        <time>2021-04-22T10:36:01Z</time>
      </trkpt>
      <trkpt lat="44.83663" lon="5.67242">
        <ele>697.1</ele>
        <time>2021-04-22T10:36:02Z</time>
      </trkpt>
      <trkpt lat="44.83654" lon="5.67238">
        <ele>696.6</ele>
        <time>2021-04-22T10:36:03Z</time>
      </trkpt>
      <trkpt lat="44.83645" lon="5.67238">
        <ele>696.1</ele>
        <time>2021-04-22T10:36:04Z</time>
      </trkpt>
      <trkpt lat="44.83637" lon="5.67244">
        <ele>695.7</ele>
        <time>2021-04-22T10:36:05Z</time>
      </trkpt>
      <trkpt lat="44.83632" lon="5.67255">
        <ele>695</ele>
        <time>2021-04-22T10:36:06Z</time>
      </trkpt>
      <trkpt lat="44.83628" lon="5.67268">
        <ele>694.4</ele>
        <time>2021-04-22T10:36:07Z</time>
      </trkpt>
      <trkpt lat="44.8363" lon="5.67282">
        <ele>693.7</ele>
        <time>2021-04-22T10:36:08Z</time>
      </trkpt>
      <trkpt lat="44.83636" lon="5.67293">
        <ele>692.9</ele>
        <time>2021-04-22T10:36:09Z</time>
      </trkpt>
      <trkpt lat="44.83646" lon="5.673">
        <ele>692.1</ele>
        <time>2021-04-22T10:36:10Z</time>
      </trkpt>
      <trkpt lat="44.83656" lon="5.67303">
        <ele>691.2</ele>
        <time>2021-04-22T10:36:11Z</time>
      </trkpt>
      <trkpt lat="44.83667" lon="5.67304">
        <ele>690.4</ele>
        <time>2021-04-22T10:36:12Z</time>
      </trkpt>
      <trkpt lat="44.83677" lon="5.67306">
        <ele>689.7</ele>
        <time>2021-04-22T10:36:13Z</time>
      </trkpt>
      <trkpt lat="44.83687" lon="5.67309">
        <ele>689</ele>
        <time>2021-04-22T10:36:14Z</time>
      </trkpt>
      <trkpt lat="44.83698" lon="5.67313">
        <ele>688.4</ele>
        <time>2021-04-22T10:36:15Z</time>
      </trkpt>
      <trkpt lat="44.83708" lon="5.67317">
        <ele>687.7</ele>
        <time>2021-04-22T10:36:16Z</time>
      </trkpt>
      <trkpt lat="44.83718" lon="5.67322">
        <ele>687</ele>
        <time>2021-04-22T10:36:17Z</time>
      </trkpt>
      <trkpt lat="44.83729" lon="5.67327">
        <ele>686.4</ele>
        <time>2021-04-22T10:36:18Z</time>
      </trkpt>
      <trkpt lat="44.83738" lon="5.67334">
        <ele>685.9</ele>
        <time>2021-04-22T10:36:19Z</time>
      </trkpt>
      <trkpt lat="44.83748" lon="5.67342">
        <ele>685.3</ele>
        <time>2021-04-22T10:36:20Z</time>
      </trkpt>
      <trkpt lat="44.83756" lon="5.6735">
        <ele>684.9</ele>
        <time>2021-04-22T10:36:21Z</time>
      </trkpt>
      <trkpt lat="44.83764" lon="5.6736">
        <ele>684.5</ele>
        <time>2021-04-22T10:36:22Z</time>
      </trkpt>
      <trkpt lat="44.83771" lon="5.67369">
        <ele>684.1</ele>
        <time>2021-04-22T10:36:23Z</time>
      </trkpt>
      <trkpt lat="44.83778" lon="5.6738">
        <ele>683.7</ele>
        <time>2021-04-22T10:36:24Z</time>
      </trkpt>
      <trkpt lat="44.83785" lon="5.67391">
        <ele>683.4</ele>
        <time>2021-04-22T10:36:25Z</time>
      </trkpt>
      <trkpt lat="44.83791" lon="5.67403">
        <ele>683.1</ele>
        <time>2021-04-22T10:36:26Z</time>
      </trkpt>
      <trkpt lat="44.83795" lon="5.67415">
        <ele>682.8</ele>
        <time>2021-04-22T10:36:27Z</time>
      </trkpt>
      <trkpt lat="44.83795" lon="5.67429">
        <ele>682.5</ele>
        <time>2021-04-22T10:36:28Z</time>
      </trkpt>
      <trkpt lat="44.8379" lon="5.67442">
        <ele>681.9</ele>
        <time>2021-04-22T10:36:29Z</time>
      </trkpt>
      <trkpt lat="44.83783" lon="5.67449">
        <ele>681.6</ele>
        <time>2021-04-22T10:36:30Z</time>
      </trkpt>
      <trkpt lat="44.83774" lon="5.67452">
        <ele>681.3</ele>
        <time>2021-04-22T10:36:31Z</time>
      </trkpt>
      <trkpt lat="44.83764" lon="5.67455">
        <ele>681</ele>
        <time>2021-04-22T10:36:32Z</time>
      </trkpt>
      <trkpt lat="44.83755" lon="5.6746">
        <ele>680.7</ele>
        <time>2021-04-22T10:36:33Z</time>
      </trkpt>
      <trkpt lat="44.83745" lon="5.67467">
        <ele>680.5</ele>
        <time>2021-04-22T10:36:34Z</time>
      </trkpt>
      <trkpt lat="44.83737" lon="5.67474">
        <ele>680.3</ele>
        <time>2021-04-22T10:36:35Z</time>
      </trkpt>
      <trkpt lat="44.83729" lon="5.6748">
        <ele>680.1</ele>
        <time>2021-04-22T10:36:36Z</time>
      </trkpt>
      <trkpt lat="44.8372" lon="5.67486">
        <ele>679.9</ele>
        <time>2021-04-22T10:36:37Z</time>
      </trkpt>
      <trkpt lat="44.8371" lon="5.67491">
        <ele>679.7</ele>
        <time>2021-04-22T10:36:38Z</time>
      </trkpt>
      <trkpt lat="44.83701" lon="5.67494">
        <ele>679.4</ele>
        <time>2021-04-22T10:36:39Z</time>
      </trkpt>
      <trkpt lat="44.83692" lon="5.67497">
        <ele>679.1</ele>
        <time>2021-04-22T10:36:40Z</time>
      </trkpt>
      <trkpt lat="44.83682" lon="5.675">
        <ele>678.5</ele>
        <time>2021-04-22T10:36:41Z</time>
      </trkpt>
      <trkpt lat="44.83672" lon="5.67503">
        <ele>678</ele>
        <time>2021-04-22T10:36:42Z</time>
      </trkpt>
      <trkpt lat="44.83662" lon="5.67506">
        <ele>677.4</ele>
        <time>2021-04-22T10:36:43Z</time>
      </trkpt>
      <trkpt lat="44.83652" lon="5.67509">
        <ele>676.8</ele>
        <time>2021-04-22T10:36:44Z</time>
      </trkpt>
      <trkpt lat="44.83641" lon="5.67512">
        <ele>676.1</ele>
        <time>2021-04-22T10:36:45Z</time>
      </trkpt>
      <trkpt lat="44.83631" lon="5.67514">
        <ele>675.4</ele>
        <time>2021-04-22T10:36:46Z</time>
      </trkpt>
      <trkpt lat="44.8362" lon="5.67516">
        <ele>674.6</ele>
        <time>2021-04-22T10:36:47Z</time>
      </trkpt>
      <trkpt lat="44.83609" lon="5.67517">
        <ele>673.8</ele>
        <time>2021-04-22T10:36:48Z</time>
      </trkpt>
      <trkpt lat="44.83597" lon="5.67518">
        <ele>672.9</ele>
        <time>2021-04-22T10:36:49Z</time>
      </trkpt>
      <trkpt lat="44.83586" lon="5.67518">
        <ele>672</ele>
        <time>2021-04-22T10:36:50Z</time>
      </trkpt>
      <trkpt lat="44.83574" lon="5.67517">
        <ele>671.1</ele>
        <time>2021-04-22T10:36:51Z</time>
      </trkpt>
      <trkpt lat="44.83562" lon="5.67514">
        <ele>670.1</ele>
        <time>2021-04-22T10:36:52Z</time>
      </trkpt>
      <trkpt lat="44.83551" lon="5.6751">
        <ele>669.2</ele>
        <time>2021-04-22T10:36:53Z</time>
      </trkpt>
      <trkpt lat="44.83539" lon="5.67506">
        <ele>668.2</ele>
        <time>2021-04-22T10:36:54Z</time>
      </trkpt>
      <trkpt lat="44.83527" lon="5.67502">
        <ele>667.4</ele>
        <time>2021-04-22T10:36:55Z</time>
      </trkpt>
      <trkpt lat="44.83515" lon="5.67498">
        <ele>666.5</ele>
        <time>2021-04-22T10:36:56Z</time>
      </trkpt>
      <trkpt lat="44.83503" lon="5.67495">
        <ele>665.6</ele>
        <time>2021-04-22T10:36:57Z</time>
      </trkpt>
      <trkpt lat="44.83492" lon="5.67491">
        <ele>664.7</ele>
        <time>2021-04-22T10:36:58Z</time>
      </trkpt>
      <trkpt lat="44.83479" lon="5.67488">
        <ele>663.8</ele>
        <time>2021-04-22T10:36:59Z</time>
      </trkpt>
      <trkpt lat="44.83467" lon="5.67486">
        <ele>662.9</ele>
        <time>2021-04-22T10:37:00Z</time>
      </trkpt>
      <trkpt lat="44.83454" lon="5.67485">
        <ele>661.9</ele>
        <time>2021-04-22T10:37:01Z</time>
      </trkpt>
      <trkpt lat="44.83442" lon="5.67483">
        <ele>660.9</ele>
        <time>2021-04-22T10:37:02Z</time>
      </trkpt>
      <trkpt lat="44.83429" lon="5.67481">
        <ele>659.9</ele>
        <time>2021-04-22T10:37:03Z</time>
      </trkpt>
      <trkpt lat="44.83416" lon="5.6748">
        <ele>658.9</ele>
        <time>2021-04-22T10:37:04Z</time>
      </trkpt>
      <trkpt lat="44.83403" lon="5.67477">
        <ele>657.9</ele>
        <time>2021-04-22T10:37:05Z</time>
      </trkpt>
      <trkpt lat="44.8339" lon="5.67475">
        <ele>657</ele>
        <time>2021-04-22T10:37:06Z</time>
      </trkpt>
      <trkpt lat="44.83378" lon="5.67475">
        <ele>656.1</ele>
        <time>2021-04-22T10:37:07Z</time>
      </trkpt>
      <trkpt lat="44.83365" lon="5.67478">
        <ele>655.2</ele>
        <time>2021-04-22T10:37:08Z</time>
      </trkpt>
      <trkpt lat="44.83353" lon="5.67482">
        <ele>654.3</ele>
        <time>2021-04-22T10:37:09Z</time>
      </trkpt>
      <trkpt lat="44.8334" lon="5.67486">
        <ele>653.4</ele>
        <time>2021-04-22T10:37:10Z</time>
      </trkpt>
      <trkpt lat="44.83328" lon="5.67485">
        <ele>652.5</ele>
        <time>2021-04-22T10:37:11Z</time>
      </trkpt>
      <trkpt lat="44.83316" lon="5.67479">
        <ele>651.5</ele>
        <time>2021-04-22T10:37:12Z</time>
      </trkpt>
      <trkpt lat="44.83305" lon="5.67467">
        <ele>650.6</ele>
        <time>2021-04-22T10:37:13Z</time>
      </trkpt>
      <trkpt lat="44.83298" lon="5.67452">
        <ele>649.6</ele>
        <time>2021-04-22T10:37:14Z</time>
      </trkpt>
      <trkpt lat="44.83294" lon="5.67434">
        <ele>648.7</ele>
        <time>2021-04-22T10:37:15Z</time>
      </trkpt>
      <trkpt lat="44.83292" lon="5.67416">
        <ele>647.8</ele>
        <time>2021-04-22T10:37:16Z</time>
      </trkpt>
      <trkpt lat="44.8329" lon="5.67398">
        <ele>646.8</ele>
        <time>2021-04-22T10:37:17Z</time>
      </trkpt>
      <trkpt lat="44.83287" lon="5.6738">
        <ele>645.8</ele>
        <time>2021-04-22T10:37:18Z</time>
      </trkpt>
      <trkpt lat="44.83284" lon="5.67363">
        <ele>644.9</ele>
        <time>2021-04-22T10:37:19Z</time>
      </trkpt>
      <trkpt lat="44.83279" lon="5.67346">
        <ele>643.9</ele>
        <time>2021-04-22T10:37:20Z</time>
      </trkpt>
      <trkpt lat="44.83274" lon="5.67329">
        <ele>643</ele>
        <time>2021-04-22T10:37:21Z</time>
      </trkpt>
      <trkpt lat="44.83269" lon="5.67313">
        <ele>642.2</ele>
        <time>2021-04-22T10:37:22Z</time>
      </trkpt>
      <trkpt lat="44.83263" lon="5.67297">
        <ele>641.6</ele>
        <time>2021-04-22T10:37:23Z</time>
      </trkpt>
      <trkpt lat="44.83257" lon="5.67281">
        <ele>641</ele>
        <time>2021-04-22T10:37:24Z</time>
      </trkpt>
      <trkpt lat="44.83251" lon="5.67266">
        <ele>640.4</ele>
        <time>2021-04-22T10:37:25Z</time>
      </trkpt>
      <trkpt lat="44.83245" lon="5.67252">
        <ele>639.8</ele>
        <time>2021-04-22T10:37:26Z</time>
      </trkpt>
      <trkpt lat="44.83238" lon="5.67237">
        <ele>639.2</ele>
        <time>2021-04-22T10:37:27Z</time>
      </trkpt>
      <trkpt lat="44.83229" lon="5.67226">
        <ele>638.6</ele>
        <time>2021-04-22T10:37:28Z</time>
      </trkpt>
      <trkpt lat="44.83218" lon="5.67219">
        <ele>638</ele>
        <time>2021-04-22T10:37:29Z</time>
      </trkpt>
      <trkpt lat="44.83207" lon="5.67214">
        <ele>637.6</ele>
        <time>2021-04-22T10:37:30Z</time>
      </trkpt>
      <trkpt lat="44.83196" lon="5.67208">
        <ele>637.1</ele>
        <time>2021-04-22T10:37:31Z</time>
      </trkpt>
      <trkpt lat="44.83185" lon="5.67204">
        <ele>636.7</ele>
        <time>2021-04-22T10:37:32Z</time>
      </trkpt>
      <trkpt lat="44.83174" lon="5.67199">
        <ele>636.5</ele>
        <time>2021-04-22T10:37:33Z</time>
      </trkpt>
      <trkpt lat="44.83163" lon="5.67196">
        <ele>636.3</ele>
        <time>2021-04-22T10:37:34Z</time>
      </trkpt>
      <trkpt lat="44.83152" lon="5.67196">
        <ele>636.1</ele>
        <time>2021-04-22T10:37:35Z</time>
      </trkpt>
      <trkpt lat="44.83142" lon="5.67198">
        <ele>635.8</ele>
        <time>2021-04-22T10:37:36Z</time>
      </trkpt>
      <trkpt lat="44.83132" lon="5.67201">
        <ele>635.4</ele>
        <time>2021-04-22T10:37:37Z</time>
      </trkpt>
      <trkpt lat="44.83121" lon="5.67206">
        <ele>634.9</ele>
        <time>2021-04-22T10:37:38Z</time>
      </trkpt>
      <trkpt lat="44.8311" lon="5.67208">
        <ele>634.4</ele>
        <time>2021-04-22T10:37:39Z</time>
      </trkpt>
      <trkpt lat="44.831" lon="5.67207">
        <ele>634</ele>
        <time>2021-04-22T10:37:40Z</time>
      </trkpt>
      <trkpt lat="44.83088" lon="5.67203">
        <ele>633.5</ele>
        <time>2021-04-22T10:37:41Z</time>
      </trkpt>
      <trkpt lat="44.83078" lon="5.67199">
        <ele>633.2</ele>
        <time>2021-04-22T10:37:42Z</time>
      </trkpt>
      <trkpt lat="44.83068" lon="5.67194">
        <ele>632.9</ele>
        <time>2021-04-22T10:37:43Z</time>
      </trkpt>
      <trkpt lat="44.83058" lon="5.67188">
        <ele>632.7</ele>
        <time>2021-04-22T10:37:44Z</time>
      </trkpt>
      <trkpt lat="44.83049" lon="5.67183">
        <ele>632.5</ele>
        <time>2021-04-22T10:37:45Z</time>
      </trkpt>
      <trkpt lat="44.8304" lon="5.67178">
        <ele>632.3</ele>
        <time>2021-04-22T10:37:46Z</time>
      </trkpt>
      <trkpt lat="44.83031" lon="5.67174">
        <ele>632</ele>
        <time>2021-04-22T10:37:47Z</time>
      </trkpt>
      <trkpt lat="44.83022" lon="5.67173">
        <ele>631.7</ele>
        <time>2021-04-22T10:37:48Z</time>
      </trkpt>
      <trkpt lat="44.83013" lon="5.67175">
        <ele>631.4</ele>
        <time>2021-04-22T10:37:49Z</time>
      </trkpt>
      <trkpt lat="44.83004" lon="5.6718">
        <ele>631</ele>
        <time>2021-04-22T10:37:50Z</time>
      </trkpt>
      <trkpt lat="44.82996" lon="5.67187">
        <ele>630.5</ele>
        <time>2021-04-22T10:37:51Z</time>
      </trkpt>
      <trkpt lat="44.82988" lon="5.67196">
        <ele>629.8</ele>
        <time>2021-04-22T10:37:52Z</time>
      </trkpt>
      <trkpt lat="44.8298" lon="5.67205">
        <ele>629.2</ele>
        <time>2021-04-22T10:37:53Z</time>
      </trkpt>
      <trkpt lat="44.82973" lon="5.67216">
        <ele>628.5</ele>
        <time>2021-04-22T10:37:54Z</time>
      </trkpt>
      <trkpt lat="44.82966" lon="5.67227">
        <ele>627.9</ele>
        <time>2021-04-22T10:37:55Z</time>
      </trkpt>
      <trkpt lat="44.82959" lon="5.67238">
        <ele>627.4</ele>
        <time>2021-04-22T10:37:56Z</time>
      </trkpt>
      <trkpt lat="44.82952" lon="5.67249">
        <ele>626.9</ele>
        <time>2021-04-22T10:37:57Z</time>
      </trkpt>
      <trkpt lat="44.82945" lon="5.6726">
        <ele>626.4</ele>
        <time>2021-04-22T10:37:58Z</time>
      </trkpt>
      <trkpt lat="44.82938" lon="5.67271">
        <ele>626</ele>
        <time>2021-04-22T10:37:59Z</time>
      </trkpt>
      <trkpt lat="44.82932" lon="5.67282">
        <ele>625.7</ele>
        <time>2021-04-22T10:38:00Z</time>
      </trkpt>
      <trkpt lat="44.82926" lon="5.67293">
        <ele>625.3</ele>
        <time>2021-04-22T10:38:01Z</time>
      </trkpt>
      <trkpt lat="44.82919" lon="5.67304">
        <ele>624.8</ele>
        <time>2021-04-22T10:38:02Z</time>
      </trkpt>
      <trkpt lat="44.82913" lon="5.67315">
        <ele>624.4</ele>
        <time>2021-04-22T10:38:03Z</time>
      </trkpt>
      <trkpt lat="44.82905" lon="5.67326">
        <ele>624</ele>
        <time>2021-04-22T10:38:04Z</time>
      </trkpt>
      <trkpt lat="44.82898" lon="5.67337">
        <ele>623.6</ele>
        <time>2021-04-22T10:38:05Z</time>
      </trkpt>
      <trkpt lat="44.8289" lon="5.67346">
        <ele>623.3</ele>
        <time>2021-04-22T10:38:06Z</time>
      </trkpt>
      <trkpt lat="44.8288" lon="5.67354">
        <ele>622.9</ele>
        <time>2021-04-22T10:38:07Z</time>
      </trkpt>
      <trkpt lat="44.8287" lon="5.6736">
        <ele>622.6</ele>
        <time>2021-04-22T10:38:08Z</time>
      </trkpt>
      <trkpt lat="44.82859" lon="5.67366">
        <ele>622.3</ele>
        <time>2021-04-22T10:38:09Z</time>
      </trkpt>
      <trkpt lat="44.82849" lon="5.6737">
        <ele>622</ele>
        <time>2021-04-22T10:38:10Z</time>
      </trkpt>
      <trkpt lat="44.8284" lon="5.67374">
        <ele>621.9</ele>
        <time>2021-04-22T10:38:11Z</time>
      </trkpt>
      <trkpt lat="44.8283" lon="5.67373">
        <ele>621.8</ele>
        <time>2021-04-22T10:38:12Z</time>
      </trkpt>
      <trkpt lat="44.82822" lon="5.67366">
        <ele>621.6</ele>
        <time>2021-04-22T10:38:13Z</time>
      </trkpt>
      <trkpt lat="44.82815" lon="5.67356">
        <ele>621.3</ele>
        <time>2021-04-22T10:38:14Z</time>
      </trkpt>
      <trkpt lat="44.8281" lon="5.67343">
        <ele>620.8</ele>
        <time>2021-04-22T10:38:15Z</time>
      </trkpt>
      <trkpt lat="44.82806" lon="5.67331">
        <ele>620.3</ele>
        <time>2021-04-22T10:38:16Z</time>
      </trkpt>
      <trkpt lat="44.82801" lon="5.67319">
        <ele>619.7</ele>
        <time>2021-04-22T10:38:17Z</time>
      </trkpt>
      <trkpt lat="44.82797" lon="5.67306">
        <ele>619</ele>
        <time>2021-04-22T10:38:18Z</time>
      </trkpt>
      <trkpt lat="44.82793" lon="5.67294">
        <ele>618.2</ele>
        <time>2021-04-22T10:38:19Z</time>
      </trkpt>
      <trkpt lat="44.8279" lon="5.6728">
        <ele>617.4</ele>
        <time>2021-04-22T10:38:20Z</time>
      </trkpt>
      <trkpt lat="44.82788" lon="5.67265">
        <ele>616.6</ele>
        <time>2021-04-22T10:38:21Z</time>
      </trkpt>
      <trkpt lat="44.82786" lon="5.6725">
        <ele>616</ele>
        <time>2021-04-22T10:38:22Z</time>
      </trkpt>
      <trkpt lat="44.82785" lon="5.67236">
        <ele>615.6</ele>
        <time>2021-04-22T10:38:23Z</time>
      </trkpt>
      <trkpt lat="44.82782" lon="5.67222">
        <ele>615.2</ele>
        <time>2021-04-22T10:38:24Z</time>
      </trkpt>
      <trkpt lat="44.82776" lon="5.67209">
        <ele>614.8</ele>
        <time>2021-04-22T10:38:25Z</time>
      </trkpt>
      <trkpt lat="44.8277" lon="5.67199">
        <ele>614.4</ele>
        <time>2021-04-22T10:38:26Z</time>
      </trkpt>
      <trkpt lat="44.82762" lon="5.67191">
        <ele>613.8</ele>
        <time>2021-04-22T10:38:27Z</time>
      </trkpt>
      <trkpt lat="44.82752" lon="5.67186">
        <ele>613.1</ele>
        <time>2021-04-22T10:38:28Z</time>
      </trkpt>
      <trkpt lat="44.82742" lon="5.67184">
        <ele>612.3</ele>
        <time>2021-04-22T10:38:29Z</time>
      </trkpt>
      <trkpt lat="44.82731" lon="5.67184">
        <ele>611.7</ele>
        <time>2021-04-22T10:38:30Z</time>
      </trkpt>
      <trkpt lat="44.82721" lon="5.67185">
        <ele>611</ele>
        <time>2021-04-22T10:38:31Z</time>
      </trkpt>
      <trkpt lat="44.8271" lon="5.67185">
        <ele>610.3</ele>
        <time>2021-04-22T10:38:32Z</time>
      </trkpt>
      <trkpt lat="44.82699" lon="5.67182">
        <ele>609.6</ele>
        <time>2021-04-22T10:38:33Z</time>
      </trkpt>
      <trkpt lat="44.82688" lon="5.67177">
        <ele>608.9</ele>
        <time>2021-04-22T10:38:34Z</time>
      </trkpt>
      <trkpt lat="44.82678" lon="5.67171">
        <ele>608.2</ele>
        <time>2021-04-22T10:38:35Z</time>
      </trkpt>
      <trkpt lat="44.82668" lon="5.67166">
        <ele>607.7</ele>
        <time>2021-04-22T10:38:36Z</time>
      </trkpt>
      <trkpt lat="44.82659" lon="5.67159">
        <ele>607.2</ele>
        <time>2021-04-22T10:38:37Z</time>
      </trkpt>
      <trkpt lat="44.8265" lon="5.67151">
        <ele>606.9</ele>
        <time>2021-04-22T10:38:38Z</time>
      </trkpt>
      <trkpt lat="44.82643" lon="5.6714">
        <ele>606.5</ele>
        <time>2021-04-22T10:38:39Z</time>
      </trkpt>
      <trkpt lat="44.82638" lon="5.67128">
        <ele>606.1</ele>
        <time>2021-04-22T10:38:40Z</time>
      </trkpt>
      <trkpt lat="44.82634" lon="5.67115">
        <ele>605.5</ele>
        <time>2021-04-22T10:38:41Z</time>
      </trkpt>
      <trkpt lat="44.82631" lon="5.671">
        <ele>605</ele>
        <time>2021-04-22T10:38:42Z</time>
      </trkpt>
      <trkpt lat="44.82628" lon="5.67086">
        <ele>604.4</ele>
        <time>2021-04-22T10:38:43Z</time>
      </trkpt>
      <trkpt lat="44.82625" lon="5.67073">
        <ele>603.9</ele>
        <time>2021-04-22T10:38:44Z</time>
      </trkpt>
      <trkpt lat="44.82622" lon="5.67061">
        <ele>603.5</ele>
        <time>2021-04-22T10:38:45Z</time>
      </trkpt>
      <trkpt lat="44.82617" lon="5.67049">
        <ele>603.1</ele>
        <time>2021-04-22T10:38:46Z</time>
      </trkpt>
      <trkpt lat="44.82611" lon="5.67038">
        <ele>602.8</ele>
        <time>2021-04-22T10:38:47Z</time>
      </trkpt>
      <trkpt lat="44.82604" lon="5.67028">
        <ele>602.6</ele>
        <time>2021-04-22T10:38:48Z</time>
      </trkpt>
      <trkpt lat="44.82598" lon="5.67018">
        <ele>602.4</ele>
        <time>2021-04-22T10:38:49Z</time>
      </trkpt>
      <trkpt lat="44.82592" lon="5.67008">
        <ele>602.3</ele>
        <time>2021-04-22T10:38:50Z</time>
      </trkpt>
      <trkpt lat="44.82586" lon="5.66999">
        <ele>602.3</ele>
        <time>2021-04-22T10:38:51Z</time>
      </trkpt>
      <trkpt lat="44.82581" lon="5.6699">
        <ele>602.3</ele>
        <time>2021-04-22T10:38:52Z</time>
      </trkpt>
      <trkpt lat="44.82575" lon="5.66981">
        <ele>602.4</ele>
        <time>2021-04-22T10:38:53Z</time>
      </trkpt>
      <trkpt lat="44.82569" lon="5.66972">
        <ele>602.5</ele>
        <time>2021-04-22T10:38:54Z</time>
      </trkpt>
      <trkpt lat="44.82563" lon="5.66963">
        <ele>602.7</ele>
        <time>2021-04-22T10:38:55Z</time>
      </trkpt>
      <trkpt lat="44.8255" lon="5.66948">
        <ele>602.7</ele>
        <time>2021-04-22T10:38:57Z</time>
      </trkpt>
      <trkpt lat="44.82543" lon="5.66943">
        <ele>602.5</ele>
        <time>2021-04-22T10:38:58Z</time>
      </trkpt>
      <trkpt lat="44.82535" lon="5.66941">
        <ele>602.4</ele>
        <time>2021-04-22T10:38:59Z</time>
      </trkpt>
      <trkpt lat="44.82527" lon="5.66939">
        <ele>602.3</ele>
        <time>2021-04-22T10:39:00Z</time>
      </trkpt>
      <trkpt lat="44.82518" lon="5.66938">
        <ele>602.3</ele>
        <time>2021-04-22T10:39:01Z</time>
      </trkpt>
      <trkpt lat="44.82511" lon="5.66937">
        <ele>602.2</ele>
        <time>2021-04-22T10:39:02Z</time>
      </trkpt>
      <trkpt lat="44.82503" lon="5.66935">
        <ele>602.1</ele>
        <time>2021-04-22T10:39:03Z</time>
      </trkpt>
      <trkpt lat="44.82495" lon="5.66936">
        <ele>602</ele>
        <time>2021-04-22T10:39:04Z</time>
      </trkpt>
      <trkpt lat="44.82488" lon="5.66938">
        <ele>601.9</ele>
        <time>2021-04-22T10:39:05Z</time>
      </trkpt>
      <trkpt lat="44.8248" lon="5.66942">
        <ele>601.8</ele>
        <time>2021-04-22T10:39:06Z</time>
      </trkpt>
      <trkpt lat="44.82473" lon="5.66946">
        <ele>601.6</ele>
        <time>2021-04-22T10:39:07Z</time>
      </trkpt>
      <trkpt lat="44.82466" lon="5.66952">
        <ele>601.4</ele>
        <time>2021-04-22T10:39:08Z</time>
      </trkpt>
      <trkpt lat="44.82459" lon="5.66958">
        <ele>601.3</ele>
        <time>2021-04-22T10:39:09Z</time>
      </trkpt>
      <trkpt lat="44.82452" lon="5.66965">
        <ele>601.1</ele>
        <time>2021-04-22T10:39:10Z</time>
      </trkpt>
      <trkpt lat="44.82445" lon="5.6697">
        <ele>600.9</ele>
        <time>2021-04-22T10:39:11Z</time>
      </trkpt>
      <trkpt lat="44.82439" lon="5.66977">
        <ele>600.8</ele>
        <time>2021-04-22T10:39:12Z</time>
      </trkpt>
      <trkpt lat="44.82433" lon="5.66983">
        <ele>600.6</ele>
        <time>2021-04-22T10:39:13Z</time>
      </trkpt>
      <trkpt lat="44.82427" lon="5.66991">
        <ele>600.5</ele>
        <time>2021-04-22T10:39:14Z</time>
      </trkpt>
      <trkpt lat="44.82422" lon="5.66998">
        <ele>600.3</ele>
        <time>2021-04-22T10:39:15Z</time>
      </trkpt>
      <trkpt lat="44.82417" lon="5.67006">
        <ele>600.2</ele>
        <time>2021-04-22T10:39:16Z</time>
      </trkpt>
      <trkpt lat="44.82411" lon="5.67014">
        <ele>600</ele>
        <time>2021-04-22T10:39:17Z</time>
      </trkpt>
      <trkpt lat="44.82406" lon="5.67023">
        <ele>599.8</ele>
        <time>2021-04-22T10:39:18Z</time>
      </trkpt>
      <trkpt lat="44.824" lon="5.67031">
        <ele>599.7</ele>
        <time>2021-04-22T10:39:19Z</time>
      </trkpt>
      <trkpt lat="44.82395" lon="5.67039">
        <ele>599.5</ele>
        <time>2021-04-22T10:39:20Z</time>
      </trkpt>
      <trkpt lat="44.82389" lon="5.67048">
        <ele>599.3</ele>
        <time>2021-04-22T10:39:21Z</time>
      </trkpt>
      <trkpt lat="44.82382" lon="5.67058">
        <ele>599.1</ele>
        <time>2021-04-22T10:39:22Z</time>
      </trkpt>
      <trkpt lat="44.82376" lon="5.67067">
        <ele>598.8</ele>
        <time>2021-04-22T10:39:23Z</time>
      </trkpt>
      <trkpt lat="44.8237" lon="5.67076">
        <ele>598.6</ele>
        <time>2021-04-22T10:39:24Z</time>
      </trkpt>
      <trkpt lat="44.82364" lon="5.67084">
        <ele>598.4</ele>
        <time>2021-04-22T10:39:25Z</time>
      </trkpt>
      <trkpt lat="44.82358" lon="5.67093">
        <ele>598.2</ele>
        <time>2021-04-22T10:39:26Z</time>
      </trkpt>
      <trkpt lat="44.82351" lon="5.67101">
        <ele>598</ele>
        <time>2021-04-22T10:39:27Z</time>
      </trkpt>
      <trkpt lat="44.82345" lon="5.67109">
        <ele>597.8</ele>
        <time>2021-04-22T10:39:28Z</time>
      </trkpt>
      <trkpt lat="44.82339" lon="5.67118">
        <ele>597.6</ele>
        <time>2021-04-22T10:39:29Z</time>
      </trkpt>
      <trkpt lat="44.82332" lon="5.67126">
        <ele>597.4</ele>
        <time>2021-04-22T10:39:30Z</time>
      </trkpt>
      <trkpt lat="44.82325" lon="5.67134">
        <ele>597.3</ele>
        <time>2021-04-22T10:39:31Z</time>
      </trkpt>
      <trkpt lat="44.82319" lon="5.67142">
        <ele>597.1</ele>
        <time>2021-04-22T10:39:32Z</time>
      </trkpt>
      <trkpt lat="44.82313" lon="5.6715">
        <ele>596.9</ele>
        <time>2021-04-22T10:39:33Z</time>
      </trkpt>
      <trkpt lat="44.82307" lon="5.67159">
        <ele>596.8</ele>
        <time>2021-04-22T10:39:34Z</time>
      </trkpt>
      <trkpt lat="44.82301" lon="5.67167">
        <ele>596.6</ele>
        <time>2021-04-22T10:39:35Z</time>
      </trkpt>
      <trkpt lat="44.82297" lon="5.67173">
        <ele>596.5</ele>
        <time>2021-04-22T10:39:36Z</time>
      </trkpt>
      <trkpt lat="44.82294" lon="5.67176">
        <ele>596.4</ele>
        <time>2021-04-22T10:39:37Z</time>
      </trkpt>
      <trkpt lat="44.82293" lon="5.67177">
        <ele>596.4</ele>
        <time>2021-04-22T10:39:38Z</time>
      </trkpt>
      <trkpt lat="44.82293" lon="5.67176">
        <ele>596.4</ele>
        <time>2021-04-22T10:39:39Z</time>
      </trkpt>
      <trkpt lat="44.82293" lon="5.67176">
        <ele>596.4</ele>
        <time>2021-04-22T10:39:40Z</time>
      </trkpt>
      <trkpt lat="44.82294" lon="5.67176">
        <ele>596.4</ele>
        <time>2021-04-22T10:39:41Z</time>
      </trkpt>
      <trkpt lat="44.82295" lon="5.67175">
        <ele>596.4</ele>
        <time>2021-04-22T10:39:42Z</time>
      </trkpt>
      <trkpt lat="44.82295" lon="5.67175">
        <ele>596.4</ele>
        <time>2021-04-22T10:39:43Z</time>
      </trkpt>
      <trkpt lat="44.82295" lon="5.67175">
        <ele>596.3</ele>
        <time>2021-04-22T10:39:44Z</time>
      </trkpt>
      <trkpt lat="44.82295" lon="5.67175">
        <ele>596.3</ele>
        <time>2021-04-22T10:39:45Z</time>
      </trkpt>
      <trkpt lat="44.82294" lon="5.67175">
        <ele>596.3</ele>
        <time>2021-04-22T10:39:46Z</time>
      </trkpt>
      <trkpt lat="44.82294" lon="5.67175">
        <ele>596.3</ele>
        <time>2021-04-22T10:39:47Z</time>
      </trkpt>
      <trkpt lat="44.82294" lon="5.67175">
        <ele>596.3</ele>
        <time>2021-04-22T10:39:48Z</time>
      </trkpt>
      <trkpt lat="44.82294" lon="5.67175">
        <ele>596.3</ele>
        <time>2021-04-22T10:39:49Z</time>
      </trkpt>
      <trkpt lat="44.82294" lon="5.67175">
        <ele>596.3</ele>
        <time>2021-04-22T10:39:50Z</time>
      </trkpt>
      <trkpt lat="44.82294" lon="5.67175">
        <ele>596.3</ele>
        <time>2021-04-22T10:39:51Z</time>
      </trkpt>
      <trkpt lat="44.82294" lon="5.67175">
        <ele>596.3</ele>
        <time>2021-04-22T10:39:52Z</time>
      </trkpt>
      <trkpt lat="44.82294" lon="5.67175">
        <ele>596.3</ele>
        <time>2021-04-22T10:39:53Z</time>
      </trkpt>
      <trkpt lat="44.82294" lon="5.67175">
        <ele>596.3</ele>
        <time>2021-04-22T10:39:54Z</time>
      </trkpt>
      <trkpt lat="44.82291" lon="5.67178">
        <ele>596.3</ele>
        <time>2021-04-22T10:41:58Z</time>
      </trkpt>
      <trkpt lat="44.8229" lon="5.67179">
        <ele>596.2</ele>
        <time>2021-04-22T10:41:59Z</time>
      </trkpt>
      <trkpt lat="44.82289" lon="5.67181">
        <ele>596.2</ele>
        <time>2021-04-22T10:42:00Z</time>
      </trkpt>
      <trkpt lat="44.82286" lon="5.67185">
        <ele>596.1</ele>
        <time>2021-04-22T10:42:02Z</time>
      </trkpt>
      <trkpt lat="44.82284" lon="5.67187">
        <ele>596.1</ele>
        <time>2021-04-22T10:42:03Z</time>
      </trkpt>
      <trkpt lat="44.82281" lon="5.67192">
        <ele>596</ele>
        <time>2021-04-22T10:42:04Z</time>
      </trkpt>
      <trkpt lat="44.82276" lon="5.67198">
        <ele>595.9</ele>
        <time>2021-04-22T10:42:06Z</time>
      </trkpt>
      <trkpt lat="44.82273" lon="5.67202">
        <ele>595.8</ele>
        <time>2021-04-22T10:42:07Z</time>
      </trkpt>
      <trkpt lat="44.82266" lon="5.6721">
        <ele>595.7</ele>
        <time>2021-04-22T10:42:09Z</time>
      </trkpt>
      <trkpt lat="44.82263" lon="5.67214">
        <ele>595.6</ele>
        <time>2021-04-22T10:42:10Z</time>
      </trkpt>
      <trkpt lat="44.82261" lon="5.67218">
        <ele>595.6</ele>
        <time>2021-04-22T10:42:11Z</time>
      </trkpt>
      <trkpt lat="44.82253" lon="5.67228">
        <ele>595.4</ele>
        <time>2021-04-22T10:42:13Z</time>
      </trkpt>
      <trkpt lat="44.82248" lon="5.67235">
        <ele>595.4</ele>
        <time>2021-04-22T10:42:14Z</time>
      </trkpt>
      <trkpt lat="44.82245" lon="5.67243">
        <ele>595.3</ele>
        <time>2021-04-22T10:42:15Z</time>
      </trkpt>
      <trkpt lat="44.82243" lon="5.67252">
        <ele>595.2</ele>
        <time>2021-04-22T10:42:16Z</time>
      </trkpt>
      <trkpt lat="44.82242" lon="5.6726">
        <ele>595.1</ele>
        <time>2021-04-22T10:42:17Z</time>
      </trkpt>
      <trkpt lat="44.82243" lon="5.67269">
        <ele>595.1</ele>
        <time>2021-04-22T10:42:18Z</time>
      </trkpt>
      <trkpt lat="44.82244" lon="5.67279">
        <ele>595</ele>
        <time>2021-04-22T10:42:19Z</time>
      </trkpt>
      <trkpt lat="44.82245" lon="5.67288">
        <ele>594.9</ele>
        <time>2021-04-22T10:42:20Z</time>
      </trkpt>
      <trkpt lat="44.82246" lon="5.67297">
        <ele>594.8</ele>
        <time>2021-04-22T10:42:21Z</time>
      </trkpt>
      <trkpt lat="44.82246" lon="5.67307">
        <ele>594.6</ele>
        <time>2021-04-22T10:42:22Z</time>
      </trkpt>
      <trkpt lat="44.82245" lon="5.67317">
        <ele>594.4</ele>
        <time>2021-04-22T10:42:23Z</time>
      </trkpt>
      <trkpt lat="44.82243" lon="5.67326">
        <ele>594.2</ele>
        <time>2021-04-22T10:42:24Z</time>
      </trkpt>
      <trkpt lat="44.82239" lon="5.67335">
        <ele>594</ele>
        <time>2021-04-22T10:42:25Z</time>
      </trkpt>
      <trkpt lat="44.82233" lon="5.67342">
        <ele>593.8</ele>
        <time>2021-04-22T10:42:26Z</time>
      </trkpt>
      <trkpt lat="44.82226" lon="5.67347">
        <ele>593.7</ele>
        <time>2021-04-22T10:42:27Z</time>
      </trkpt>
      <trkpt lat="44.82218" lon="5.67352">
        <ele>593.5</ele>
        <time>2021-04-22T10:42:28Z</time>
      </trkpt>
      <trkpt lat="44.82212" lon="5.67357">
        <ele>593.5</ele>
        <time>2021-04-22T10:42:29Z</time>
      </trkpt>
      <trkpt lat="44.82205" lon="5.67361">
        <ele>593.4</ele>
        <time>2021-04-22T10:42:30Z</time>
      </trkpt>
      <trkpt lat="44.82199" lon="5.67364">
        <ele>593.4</ele>
        <time>2021-04-22T10:42:31Z</time>
      </trkpt>
      <trkpt lat="44.82193" lon="5.67367">
        <ele>593.4</ele>
        <time>2021-04-22T10:42:32Z</time>
      </trkpt>
      <trkpt lat="44.82187" lon="5.67371">
        <ele>593.4</ele>
        <time>2021-04-22T10:42:33Z</time>
      </trkpt>
      <trkpt lat="44.82181" lon="5.67376">
        <ele>593.5</ele>
        <time>2021-04-22T10:42:34Z</time>
      </trkpt>
      <trkpt lat="44.82175" lon="5.67381">
        <ele>593.5</ele>
        <time>2021-04-22T10:42:35Z</time>
      </trkpt>
      <trkpt lat="44.8217" lon="5.67386">
        <ele>593.4</ele>
        <time>2021-04-22T10:42:36Z</time>
      </trkpt>
      <trkpt lat="44.82164" lon="5.67391">
        <ele>593.4</ele>
        <time>2021-04-22T10:42:37Z</time>
      </trkpt>
      <trkpt lat="44.82157" lon="5.67394">
        <ele>593.4</ele>
        <time>2021-04-22T10:42:38Z</time>
      </trkpt>
      <trkpt lat="44.8215" lon="5.67397">
        <ele>593.4</ele>
        <time>2021-04-22T10:42:39Z</time>
      </trkpt>
      <trkpt lat="44.82144" lon="5.674">
        <ele>593.5</ele>
        <time>2021-04-22T10:42:40Z</time>
      </trkpt>
      <trkpt lat="44.82138" lon="5.67401">
        <ele>593.5</ele>
        <time>2021-04-22T10:42:41Z</time>
      </trkpt>
      <trkpt lat="44.82133" lon="5.67402">
        <ele>593.6</ele>
        <time>2021-04-22T10:42:42Z</time>
      </trkpt>
      <trkpt lat="44.82127" lon="5.67404">
        <ele>593.7</ele>
        <time>2021-04-22T10:42:43Z</time>
      </trkpt>
      <trkpt lat="44.82121" lon="5.67405">
        <ele>593.8</ele>
        <time>2021-04-22T10:42:44Z</time>
      </trkpt>
      <trkpt lat="44.82115" lon="5.67407">
        <ele>593.9</ele>
        <time>2021-04-22T10:42:45Z</time>
      </trkpt>
      <trkpt lat="44.82109" lon="5.67408">
        <ele>594.1</ele>
        <time>2021-04-22T10:42:46Z</time>
      </trkpt>
      <trkpt lat="44.82103" lon="5.67409">
        <ele>594.2</ele>
        <time>2021-04-22T10:42:47Z</time>
      </trkpt>
      <trkpt lat="44.82097" lon="5.67411">
        <ele>594.4</ele>
        <time>2021-04-22T10:42:48Z</time>
      </trkpt>
      <trkpt lat="44.82093" lon="5.67413">
        <ele>594.4</ele>
        <time>2021-04-22T10:42:49Z</time>
      </trkpt>
      <trkpt lat="44.82088" lon="5.67416">
        <ele>594.5</ele>
        <time>2021-04-22T10:42:50Z</time>
      </trkpt>
      <trkpt lat="44.82083" lon="5.6742">
        <ele>594.7</ele>
        <time>2021-04-22T10:42:51Z</time>
      </trkpt>
      <trkpt lat="44.82079" lon="5.67423">
        <ele>594.8</ele>
        <time>2021-04-22T10:42:52Z</time>
      </trkpt>
      <trkpt lat="44.82075" lon="5.67426">
        <ele>594.9</ele>
        <time>2021-04-22T10:42:53Z</time>
      </trkpt>
      <trkpt lat="44.82071" lon="5.67428">
        <ele>595</ele>
        <time>2021-04-22T10:42:54Z</time>
      </trkpt>
      <trkpt lat="44.82066" lon="5.67434">
        <ele>595.1</ele>
        <time>2021-04-22T10:42:55Z</time>
      </trkpt>
      <trkpt lat="44.82062" lon="5.67439">
        <ele>595.2</ele>
        <time>2021-04-22T10:42:56Z</time>
      </trkpt>
      <trkpt lat="44.82059" lon="5.67444">
        <ele>595.2</ele>
        <time>2021-04-22T10:42:57Z</time>
      </trkpt>
      <trkpt lat="44.82055" lon="5.67451">
        <ele>595.3</ele>
        <time>2021-04-22T10:42:58Z</time>
      </trkpt>
      <trkpt lat="44.8205" lon="5.67457">
        <ele>595.4</ele>
        <time>2021-04-22T10:42:59Z</time>
      </trkpt>
      <trkpt lat="44.82046" lon="5.67464">
        <ele>595.4</ele>
        <time>2021-04-22T10:43:00Z</time>
      </trkpt>
      <trkpt lat="44.82042" lon="5.6747">
        <ele>595.5</ele>
        <time>2021-04-22T10:43:01Z</time>
      </trkpt>
      <trkpt lat="44.8204" lon="5.67473">
        <ele>595.5</ele>
        <time>2021-04-22T10:43:02Z</time>
      </trkpt>
      <trkpt lat="44.82035" lon="5.67479">
        <ele>595.6</ele>
        <time>2021-04-22T10:43:03Z</time>
      </trkpt>
      <trkpt lat="44.8203" lon="5.67485">
        <ele>595.6</ele>
        <time>2021-04-22T10:43:04Z</time>
      </trkpt>
      <trkpt lat="44.82026" lon="5.67491">
        <ele>595.7</ele>
        <time>2021-04-22T10:43:05Z</time>
      </trkpt>
      <trkpt lat="44.82021" lon="5.67498">
        <ele>595.8</ele>
        <time>2021-04-22T10:43:06Z</time>
      </trkpt>
      <trkpt lat="44.82017" lon="5.67504">
        <ele>595.8</ele>
        <time>2021-04-22T10:43:07Z</time>
      </trkpt>
      <trkpt lat="44.82012" lon="5.67511">
        <ele>595.9</ele>
        <time>2021-04-22T10:43:08Z</time>
      </trkpt>
      <trkpt lat="44.82006" lon="5.67517">
        <ele>596</ele>
        <time>2021-04-22T10:43:09Z</time>
      </trkpt>
      <trkpt lat="44.82001" lon="5.67524">
        <ele>596.1</ele>
        <time>2021-04-22T10:43:10Z</time>
      </trkpt>
      <trkpt lat="44.81996" lon="5.67531">
        <ele>596.1</ele>
        <time>2021-04-22T10:43:11Z</time>
      </trkpt>
      <trkpt lat="44.81992" lon="5.67538">
        <ele>596.2</ele>
        <time>2021-04-22T10:43:12Z</time>
      </trkpt>
      <trkpt lat="44.81988" lon="5.67544">
        <ele>596.3</ele>
        <time>2021-04-22T10:43:13Z</time>
      </trkpt>
      <trkpt lat="44.81984" lon="5.6755">
        <ele>596.4</ele>
        <time>2021-04-22T10:43:14Z</time>
      </trkpt>
      <trkpt lat="44.8198" lon="5.67555">
        <ele>596.5</ele>
        <time>2021-04-22T10:43:15Z</time>
      </trkpt>
      <trkpt lat="44.81977" lon="5.6756">
        <ele>596.5</ele>
        <time>2021-04-22T10:43:16Z</time>
      </trkpt>
      <trkpt lat="44.81973" lon="5.67565">
        <ele>596.6</ele>
        <time>2021-04-22T10:43:17Z</time>
      </trkpt>
      <trkpt lat="44.81969" lon="5.67571">
        <ele>596.7</ele>
        <time>2021-04-22T10:43:18Z</time>
      </trkpt>
      <trkpt lat="44.81966" lon="5.67576">
        <ele>596.7</ele>
        <time>2021-04-22T10:43:19Z</time>
      </trkpt>
      <trkpt lat="44.81963" lon="5.67581">
        <ele>596.8</ele>
        <time>2021-04-22T10:43:20Z</time>
      </trkpt>
      <trkpt lat="44.8196" lon="5.67586">
        <ele>596.8</ele>
        <time>2021-04-22T10:43:21Z</time>
      </trkpt>
      <trkpt lat="44.81956" lon="5.6759">
        <ele>596.9</ele>
        <time>2021-04-22T10:43:22Z</time>
      </trkpt>
      <trkpt lat="44.81953" lon="5.67593">
        <ele>596.9</ele>
        <time>2021-04-22T10:43:23Z</time>
      </trkpt>
      <trkpt lat="44.8195" lon="5.67597">
        <ele>597</ele>
        <time>2021-04-22T10:43:24Z</time>
      </trkpt>
      <trkpt lat="44.81947" lon="5.67601">
        <ele>597</ele>
        <time>2021-04-22T10:43:25Z</time>
      </trkpt>
      <trkpt lat="44.81944" lon="5.67605">
        <ele>597.1</ele>
        <time>2021-04-22T10:43:26Z</time>
      </trkpt>
      <trkpt lat="44.81941" lon="5.67609">
        <ele>597.2</ele>
        <time>2021-04-22T10:43:27Z</time>
      </trkpt>
      <trkpt lat="44.81938" lon="5.67615">
        <ele>597.3</ele>
        <time>2021-04-22T10:43:28Z</time>
      </trkpt>
      <trkpt lat="44.81938" lon="5.67623">
        <ele>597.4</ele>
        <time>2021-04-22T10:43:29Z</time>
      </trkpt>
      <trkpt lat="44.81933" lon="5.67632">
        <ele>597.5</ele>
        <time>2021-04-22T10:43:31Z</time>
      </trkpt>
      <trkpt lat="44.81927" lon="5.67647">
        <ele>597.7</ele>
        <time>2021-04-22T10:43:33Z</time>
      </trkpt>
      <trkpt lat="44.81926" lon="5.67654">
        <ele>597.8</ele>
        <time>2021-04-22T10:43:34Z</time>
      </trkpt>
      <trkpt lat="44.81924" lon="5.67662">
        <ele>597.8</ele>
        <time>2021-04-22T10:43:35Z</time>
      </trkpt>
      <trkpt lat="44.81919" lon="5.67676">
        <ele>598</ele>
        <time>2021-04-22T10:43:37Z</time>
      </trkpt>
      <trkpt lat="44.81918" lon="5.67682">
        <ele>598.1</ele>
        <time>2021-04-22T10:43:38Z</time>
      </trkpt>
      <trkpt lat="44.81918" lon="5.67689">
        <ele>598.1</ele>
        <time>2021-04-22T10:43:39Z</time>
      </trkpt>
      <trkpt lat="44.81917" lon="5.67696">
        <ele>598.2</ele>
        <time>2021-04-22T10:43:40Z</time>
      </trkpt>
      <trkpt lat="44.81916" lon="5.67704">
        <ele>598.2</ele>
        <time>2021-04-22T10:43:41Z</time>
      </trkpt>
      <trkpt lat="44.81915" lon="5.67713">
        <ele>598.3</ele>
        <time>2021-04-22T10:43:42Z</time>
      </trkpt>
      <trkpt lat="44.81914" lon="5.67721">
        <ele>598.4</ele>
        <time>2021-04-22T10:43:43Z</time>
      </trkpt>
      <trkpt lat="44.81913" lon="5.67729">
        <ele>598.4</ele>
        <time>2021-04-22T10:43:44Z</time>
      </trkpt>
      <trkpt lat="44.81912" lon="5.67736">
        <ele>598.5</ele>
        <time>2021-04-22T10:43:45Z</time>
      </trkpt>
      <trkpt lat="44.81911" lon="5.67743">
        <ele>598.5</ele>
        <time>2021-04-22T10:43:46Z</time>
      </trkpt>
      <trkpt lat="44.81909" lon="5.67758">
        <ele>598.6</ele>
        <time>2021-04-22T10:43:48Z</time>
      </trkpt>
      <trkpt lat="44.81906" lon="5.67765">
        <ele>598.7</ele>
        <time>2021-04-22T10:43:49Z</time>
      </trkpt>
      <trkpt lat="44.81903" lon="5.67772">
        <ele>598.7</ele>
        <time>2021-04-22T10:43:50Z</time>
      </trkpt>
      <trkpt lat="44.819" lon="5.67779">
        <ele>598.8</ele>
        <time>2021-04-22T10:43:51Z</time>
      </trkpt>
      <trkpt lat="44.81898" lon="5.67786">
        <ele>598.8</ele>
        <time>2021-04-22T10:43:52Z</time>
      </trkpt>
      <trkpt lat="44.81895" lon="5.67792">
        <ele>598.9</ele>
        <time>2021-04-22T10:43:53Z</time>
      </trkpt>
      <trkpt lat="44.81892" lon="5.67799">
        <ele>599</ele>
        <time>2021-04-22T10:43:54Z</time>
      </trkpt>
      <trkpt lat="44.81889" lon="5.67805">
        <ele>599</ele>
        <time>2021-04-22T10:43:55Z</time>
      </trkpt>
      <trkpt lat="44.81886" lon="5.67812">
        <ele>599.1</ele>
        <time>2021-04-22T10:43:56Z</time>
      </trkpt>
      <trkpt lat="44.81883" lon="5.67819">
        <ele>599.1</ele>
        <time>2021-04-22T10:43:57Z</time>
      </trkpt>
      <trkpt lat="44.8188" lon="5.67826">
        <ele>599.2</ele>
        <time>2021-04-22T10:43:58Z</time>
      </trkpt>
      <trkpt lat="44.81877" lon="5.67833">
        <ele>599.2</ele>
        <time>2021-04-22T10:43:59Z</time>
      </trkpt>
      <trkpt lat="44.81875" lon="5.6784">
        <ele>599.3</ele>
        <time>2021-04-22T10:44:00Z</time>
      </trkpt>
      <trkpt lat="44.81872" lon="5.67847">
        <ele>599.3</ele>
        <time>2021-04-22T10:44:01Z</time>
      </trkpt>
      <trkpt lat="44.8187" lon="5.67854">
        <ele>599.3</ele>
        <time>2021-04-22T10:44:02Z</time>
      </trkpt>
      <trkpt lat="44.81868" lon="5.67861">
        <ele>599.4</ele>
        <time>2021-04-22T10:44:03Z</time>
      </trkpt>
      <trkpt lat="44.81865" lon="5.67867">
        <ele>599.4</ele>
        <time>2021-04-22T10:44:04Z</time>
      </trkpt>
      <trkpt lat="44.81862" lon="5.67874">
        <ele>599.5</ele>
        <time>2021-04-22T10:44:05Z</time>
      </trkpt>
      <trkpt lat="44.81859" lon="5.67881">
        <ele>599.5</ele>
        <time>2021-04-22T10:44:06Z</time>
      </trkpt>
      <trkpt lat="44.81856" lon="5.67888">
        <ele>599.6</ele>
        <time>2021-04-22T10:44:07Z</time>
      </trkpt>
      <trkpt lat="44.81853" lon="5.67896">
        <ele>599.6</ele>
        <time>2021-04-22T10:44:08Z</time>
      </trkpt>
      <trkpt lat="44.8185" lon="5.67904">
        <ele>599.7</ele>
        <time>2021-04-22T10:44:09Z</time>
      </trkpt>
      <trkpt lat="44.81846" lon="5.67912">
        <ele>599.8</ele>
        <time>2021-04-22T10:44:10Z</time>
      </trkpt>
      <trkpt lat="44.81843" lon="5.6792">
        <ele>599.9</ele>
        <time>2021-04-22T10:44:11Z</time>
      </trkpt>
      <trkpt lat="44.81839" lon="5.67927">
        <ele>600</ele>
        <time>2021-04-22T10:44:12Z</time>
      </trkpt>
      <trkpt lat="44.81836" lon="5.67934">
        <ele>600.1</ele>
        <time>2021-04-22T10:44:13Z</time>
      </trkpt>
      <trkpt lat="44.81834" lon="5.6794">
        <ele>600.2</ele>
        <time>2021-04-22T10:44:14Z</time>
      </trkpt>
      <trkpt lat="44.81831" lon="5.67946">
        <ele>600.3</ele>
        <time>2021-04-22T10:44:15Z</time>
      </trkpt>
      <trkpt lat="44.8183" lon="5.67949">
        <ele>600.3</ele>
        <time>2021-04-22T10:44:16Z</time>
      </trkpt>
      <trkpt lat="44.81827" lon="5.67956">
        <ele>600.4</ele>
        <time>2021-04-22T10:44:17Z</time>
      </trkpt>
      <trkpt lat="44.81824" lon="5.67963">
        <ele>600.5</ele>
        <time>2021-04-22T10:44:18Z</time>
      </trkpt>
      <trkpt lat="44.81821" lon="5.67969">
        <ele>600.6</ele>
        <time>2021-04-22T10:44:19Z</time>
      </trkpt>
      <trkpt lat="44.81819" lon="5.67974">
        <ele>600.6</ele>
        <time>2021-04-22T10:44:20Z</time>
      </trkpt>
      <trkpt lat="44.81816" lon="5.6798">
        <ele>600.7</ele>
        <time>2021-04-22T10:44:21Z</time>
      </trkpt>
      <trkpt lat="44.81812" lon="5.67985">
        <ele>600.8</ele>
        <time>2021-04-22T10:44:22Z</time>
      </trkpt>
      <trkpt lat="44.81808" lon="5.67989">
        <ele>600.9</ele>
        <time>2021-04-22T10:44:23Z</time>
      </trkpt>
      <trkpt lat="44.81804" lon="5.67995">
        <ele>601</ele>
        <time>2021-04-22T10:44:24Z</time>
      </trkpt>
      <trkpt lat="44.81799" lon="5.68001">
        <ele>601.1</ele>
        <time>2021-04-22T10:44:25Z</time>
      </trkpt>
      <trkpt lat="44.81795" lon="5.68006">
        <ele>601.1</ele>
        <time>2021-04-22T10:44:26Z</time>
      </trkpt>
      <trkpt lat="44.81792" lon="5.6801">
        <ele>601.2</ele>
        <time>2021-04-22T10:44:27Z</time>
      </trkpt>
      <trkpt lat="44.81789" lon="5.68013">
        <ele>601.3</ele>
        <time>2021-04-22T10:44:28Z</time>
      </trkpt>
      <trkpt lat="44.81785" lon="5.68017">
        <ele>601.4</ele>
        <time>2021-04-22T10:44:29Z</time>
      </trkpt>
      <trkpt lat="44.8178" lon="5.6802">
        <ele>601.5</ele>
        <time>2021-04-22T10:44:30Z</time>
      </trkpt>
      <trkpt lat="44.81776" lon="5.68025">
        <ele>601.6</ele>
        <time>2021-04-22T10:44:31Z</time>
      </trkpt>
      <trkpt lat="44.81772" lon="5.68029">
        <ele>601.6</ele>
        <time>2021-04-22T10:44:32Z</time>
      </trkpt>
      <trkpt lat="44.81768" lon="5.68032">
        <ele>601.7</ele>
        <time>2021-04-22T10:44:33Z</time>
      </trkpt>
      <trkpt lat="44.81763" lon="5.68034">
        <ele>601.8</ele>
        <time>2021-04-22T10:44:35Z</time>
      </trkpt>
      <trkpt lat="44.8176" lon="5.68037">
        <ele>601.9</ele>
        <time>2021-04-22T10:44:36Z</time>
      </trkpt>
      <trkpt lat="44.81754" lon="5.68046">
        <ele>602.1</ele>
        <time>2021-04-22T10:44:37Z</time>
      </trkpt>
      <trkpt lat="44.81751" lon="5.68042">
        <ele>602.1</ele>
        <time>2021-04-22T10:44:39Z</time>
      </trkpt>
      <trkpt lat="44.81747" lon="5.68048">
        <ele>602.2</ele>
        <time>2021-04-22T10:44:40Z</time>
      </trkpt>
      <trkpt lat="44.81742" lon="5.68053">
        <ele>602.3</ele>
        <time>2021-04-22T10:44:41Z</time>
      </trkpt>
      <trkpt lat="44.81736" lon="5.68058">
        <ele>602.4</ele>
        <time>2021-04-22T10:44:42Z</time>
      </trkpt>
      <trkpt lat="44.81726" lon="5.6807">
        <ele>602.6</ele>
        <time>2021-04-22T10:44:44Z</time>
      </trkpt>
      <trkpt lat="44.81721" lon="5.68076">
        <ele>602.6</ele>
        <time>2021-04-22T10:44:45Z</time>
      </trkpt>
      <trkpt lat="44.81712" lon="5.68084">
        <ele>602.7</ele>
        <time>2021-04-22T10:44:47Z</time>
      </trkpt>
      <trkpt lat="44.81708" lon="5.68087">
        <ele>602.8</ele>
        <time>2021-04-22T10:44:48Z</time>
      </trkpt>
      <trkpt lat="44.81698" lon="5.68096">
        <ele>602.9</ele>
        <time>2021-04-22T10:44:50Z</time>
      </trkpt>
      <trkpt lat="44.81692" lon="5.68101">
        <ele>602.9</ele>
        <time>2021-04-22T10:44:51Z</time>
      </trkpt>
      <trkpt lat="44.81687" lon="5.68107">
        <ele>602.9</ele>
        <time>2021-04-22T10:44:52Z</time>
      </trkpt>
      <trkpt lat="44.81682" lon="5.68112">
        <ele>603</ele>
        <time>2021-04-22T10:44:53Z</time>
      </trkpt>
      <trkpt lat="44.81677" lon="5.68116">
        <ele>603</ele>
        <time>2021-04-22T10:44:54Z</time>
      </trkpt>
      <trkpt lat="44.81673" lon="5.68121">
        <ele>603.1</ele>
        <time>2021-04-22T10:44:55Z</time>
      </trkpt>
      <trkpt lat="44.81668" lon="5.68124">
        <ele>603.1</ele>
        <time>2021-04-22T10:44:56Z</time>
      </trkpt>
      <trkpt lat="44.81664" lon="5.68127">
        <ele>603.1</ele>
        <time>2021-04-22T10:44:57Z</time>
      </trkpt>
      <trkpt lat="44.81661" lon="5.68129">
        <ele>603.1</ele>
        <time>2021-04-22T10:44:58Z</time>
      </trkpt>
      <trkpt lat="44.81657" lon="5.68131">
        <ele>603.2</ele>
        <time>2021-04-22T10:44:59Z</time>
      </trkpt>
      <trkpt lat="44.81653" lon="5.68136">
        <ele>603.2</ele>
        <time>2021-04-22T10:45:00Z</time>
      </trkpt>
      <trkpt lat="44.81649" lon="5.68139">
        <ele>603.3</ele>
        <time>2021-04-22T10:45:01Z</time>
      </trkpt>
      <trkpt lat="44.81645" lon="5.68143">
        <ele>603.3</ele>
        <time>2021-04-22T10:45:02Z</time>
      </trkpt>
      <trkpt lat="44.81641" lon="5.68147">
        <ele>603.4</ele>
        <time>2021-04-22T10:45:03Z</time>
      </trkpt>
      <trkpt lat="44.81637" lon="5.68152">
        <ele>603.4</ele>
        <time>2021-04-22T10:45:04Z</time>
      </trkpt>
      <trkpt lat="44.81633" lon="5.68155">
        <ele>603.5</ele>
        <time>2021-04-22T10:45:05Z</time>
      </trkpt>
      <trkpt lat="44.81631" lon="5.68158">
        <ele>603.5</ele>
        <time>2021-04-22T10:45:06Z</time>
      </trkpt>
      <trkpt lat="44.81627" lon="5.68163">
        <ele>603.6</ele>
        <time>2021-04-22T10:45:07Z</time>
      </trkpt>
      <trkpt lat="44.81623" lon="5.68168">
        <ele>603.7</ele>
        <time>2021-04-22T10:45:08Z</time>
      </trkpt>
      <trkpt lat="44.81619" lon="5.68174">
        <ele>603.7</ele>
        <time>2021-04-22T10:45:09Z</time>
      </trkpt>
      <trkpt lat="44.81615" lon="5.68179">
        <ele>603.8</ele>
        <time>2021-04-22T10:45:10Z</time>
      </trkpt>
      <trkpt lat="44.81614" lon="5.68182">
        <ele>603.9</ele>
        <time>2021-04-22T10:45:11Z</time>
      </trkpt>
      <trkpt lat="44.81611" lon="5.68187">
        <ele>604</ele>
        <time>2021-04-22T10:45:12Z</time>
      </trkpt>
      <trkpt lat="44.81608" lon="5.68193">
        <ele>604.1</ele>
        <time>2021-04-22T10:45:13Z</time>
      </trkpt>
      <trkpt lat="44.81606" lon="5.68195">
        <ele>604.1</ele>
        <time>2021-04-22T10:45:14Z</time>
      </trkpt>
      <trkpt lat="44.81603" lon="5.68203">
        <ele>604.3</ele>
        <time>2021-04-22T10:45:16Z</time>
      </trkpt>
      <trkpt lat="44.81596" lon="5.68223">
        <ele>604.7</ele>
        <time>2021-04-22T10:45:18Z</time>
      </trkpt>
      <trkpt lat="44.81594" lon="5.68229">
        <ele>604.8</ele>
        <time>2021-04-22T10:45:19Z</time>
      </trkpt>
      <trkpt lat="44.81592" lon="5.68235">
        <ele>604.9</ele>
        <time>2021-04-22T10:45:20Z</time>
      </trkpt>
      <trkpt lat="44.8159" lon="5.68241">
        <ele>605.1</ele>
        <time>2021-04-22T10:45:21Z</time>
      </trkpt>
      <trkpt lat="44.81588" lon="5.68247">
        <ele>605.2</ele>
        <time>2021-04-22T10:45:22Z</time>
      </trkpt>
      <trkpt lat="44.81586" lon="5.68254">
        <ele>605.3</ele>
        <time>2021-04-22T10:45:23Z</time>
      </trkpt>
      <trkpt lat="44.81585" lon="5.6826">
        <ele>605.4</ele>
        <time>2021-04-22T10:45:24Z</time>
      </trkpt>
      <trkpt lat="44.81583" lon="5.68265">
        <ele>605.6</ele>
        <time>2021-04-22T10:45:25Z</time>
      </trkpt>
      <trkpt lat="44.81582" lon="5.68271">
        <ele>605.7</ele>
        <time>2021-04-22T10:45:27Z</time>
      </trkpt>
      <trkpt lat="44.81581" lon="5.68279">
        <ele>605.8</ele>
        <time>2021-04-22T10:45:28Z</time>
      </trkpt>
      <trkpt lat="44.8158" lon="5.68288">
        <ele>606</ele>
        <time>2021-04-22T10:45:29Z</time>
      </trkpt>
      <trkpt lat="44.81578" lon="5.68297">
        <ele>606.2</ele>
        <time>2021-04-22T10:45:30Z</time>
      </trkpt>
      <trkpt lat="44.81576" lon="5.68307">
        <ele>606.4</ele>
        <time>2021-04-22T10:45:31Z</time>
      </trkpt>
      <trkpt lat="44.81575" lon="5.68315">
        <ele>606.5</ele>
        <time>2021-04-22T10:45:32Z</time>
      </trkpt>
      <trkpt lat="44.81574" lon="5.68323">
        <ele>606.7</ele>
        <time>2021-04-22T10:45:34Z</time>
      </trkpt>
      <trkpt lat="44.81573" lon="5.68331">
        <ele>606.8</ele>
        <time>2021-04-22T10:45:35Z</time>
      </trkpt>
      <trkpt lat="44.81571" lon="5.68339">
        <ele>607</ele>
        <time>2021-04-22T10:45:36Z</time>
      </trkpt>
      <trkpt lat="44.81569" lon="5.68347">
        <ele>607.1</ele>
        <time>2021-04-22T10:45:38Z</time>
      </trkpt>
      <trkpt lat="44.81568" lon="5.68354">
        <ele>607.3</ele>
        <time>2021-04-22T10:45:39Z</time>
      </trkpt>
      <trkpt lat="44.81568" lon="5.68357">
        <ele>607.3</ele>
        <time>2021-04-22T10:45:40Z</time>
      </trkpt>
      <trkpt lat="44.81567" lon="5.68363">
        <ele>607.5</ele>
        <time>2021-04-22T10:45:41Z</time>
      </trkpt>
      <trkpt lat="44.81566" lon="5.68371">
        <ele>607.6</ele>
        <time>2021-04-22T10:45:42Z</time>
      </trkpt>
      <trkpt lat="44.81566" lon="5.68377">
        <ele>607.7</ele>
        <time>2021-04-22T10:45:43Z</time>
      </trkpt>
      <trkpt lat="44.81564" lon="5.68385">
        <ele>607.9</ele>
        <time>2021-04-22T10:45:44Z</time>
      </trkpt>
      <trkpt lat="44.81562" lon="5.68389">
        <ele>608</ele>
        <time>2021-04-22T10:45:45Z</time>
      </trkpt>
      <trkpt lat="44.81561" lon="5.68398">
        <ele>608.2</ele>
        <time>2021-04-22T10:45:46Z</time>
      </trkpt>
      <trkpt lat="44.81561" lon="5.68406">
        <ele>608.4</ele>
        <time>2021-04-22T10:45:47Z</time>
      </trkpt>
      <trkpt lat="44.81561" lon="5.68415">
        <ele>608.6</ele>
        <time>2021-04-22T10:45:48Z</time>
      </trkpt>
      <trkpt lat="44.8156" lon="5.68422">
        <ele>608.7</ele>
        <time>2021-04-22T10:45:50Z</time>
      </trkpt>
      <trkpt lat="44.81559" lon="5.68429">
        <ele>608.9</ele>
        <time>2021-04-22T10:45:51Z</time>
      </trkpt>
      <trkpt lat="44.81558" lon="5.68437">
        <ele>609</ele>
        <time>2021-04-22T10:45:52Z</time>
      </trkpt>
      <trkpt lat="44.81556" lon="5.68447">
        <ele>609.2</ele>
        <time>2021-04-22T10:45:54Z</time>
      </trkpt>
      <trkpt lat="44.81554" lon="5.68458">
        <ele>609.4</ele>
        <time>2021-04-22T10:45:56Z</time>
      </trkpt>
      <trkpt lat="44.81554" lon="5.68464">
        <ele>609.5</ele>
        <time>2021-04-22T10:45:57Z</time>
      </trkpt>
      <trkpt lat="44.81552" lon="5.68476">
        <ele>609.8</ele>
        <time>2021-04-22T10:45:59Z</time>
      </trkpt>
      <trkpt lat="44.81551" lon="5.68488">
        <ele>610</ele>
        <time>2021-04-22T10:46:01Z</time>
      </trkpt>
      <trkpt lat="44.8155" lon="5.68496">
        <ele>610.2</ele>
        <time>2021-04-22T10:46:03Z</time>
      </trkpt>
      <trkpt lat="44.81549" lon="5.68502">
        <ele>610.3</ele>
        <time>2021-04-22T10:46:04Z</time>
      </trkpt>
      <trkpt lat="44.81549" lon="5.68513">
        <ele>610.6</ele>
        <time>2021-04-22T10:46:06Z</time>
      </trkpt>
      <trkpt lat="44.81547" lon="5.68524">
        <ele>610.8</ele>
        <time>2021-04-22T10:46:08Z</time>
      </trkpt>
      <trkpt lat="44.81546" lon="5.68531">
        <ele>611</ele>
        <time>2021-04-22T10:46:09Z</time>
      </trkpt>
      <trkpt lat="44.81545" lon="5.68543">
        <ele>611.2</ele>
        <time>2021-04-22T10:46:11Z</time>
      </trkpt>
      <trkpt lat="44.81544" lon="5.68556">
        <ele>611.5</ele>
        <time>2021-04-22T10:46:13Z</time>
      </trkpt>
      <trkpt lat="44.81543" lon="5.68564">
        <ele>611.6</ele>
        <time>2021-04-22T10:46:14Z</time>
      </trkpt>
      <trkpt lat="44.81542" lon="5.68572">
        <ele>611.8</ele>
        <time>2021-04-22T10:46:15Z</time>
      </trkpt>
      <trkpt lat="44.8154" lon="5.68581">
        <ele>612</ele>
        <time>2021-04-22T10:46:17Z</time>
      </trkpt>
      <trkpt lat="44.81539" lon="5.68588">
        <ele>612.2</ele>
        <time>2021-04-22T10:46:18Z</time>
      </trkpt>
      <trkpt lat="44.81537" lon="5.68598">
        <ele>612.4</ele>
        <time>2021-04-22T10:46:20Z</time>
      </trkpt>
      <trkpt lat="44.81536" lon="5.68602">
        <ele>612.5</ele>
        <time>2021-04-22T10:46:21Z</time>
      </trkpt>
      <trkpt lat="44.81535" lon="5.68608">
        <ele>612.6</ele>
        <time>2021-04-22T10:46:22Z</time>
      </trkpt>
      <trkpt lat="44.81534" lon="5.68615">
        <ele>612.7</ele>
        <time>2021-04-22T10:46:23Z</time>
      </trkpt>
      <trkpt lat="44.81532" lon="5.68626">
        <ele>613</ele>
        <time>2021-04-22T10:46:25Z</time>
      </trkpt>
      <trkpt lat="44.8153" lon="5.68633">
        <ele>613.1</ele>
        <time>2021-04-22T10:46:26Z</time>
      </trkpt>
      <trkpt lat="44.81529" lon="5.68641">
        <ele>613.2</ele>
        <time>2021-04-22T10:46:28Z</time>
      </trkpt>
      <trkpt lat="44.81528" lon="5.68646">
        <ele>613.3</ele>
        <time>2021-04-22T10:46:29Z</time>
      </trkpt>
      <trkpt lat="44.81526" lon="5.68652">
        <ele>613.4</ele>
        <time>2021-04-22T10:46:30Z</time>
      </trkpt>
      <trkpt lat="44.81524" lon="5.68662">
        <ele>613.6</ele>
        <time>2021-04-22T10:46:32Z</time>
      </trkpt>
      <trkpt lat="44.81521" lon="5.68671">
        <ele>613.7</ele>
        <time>2021-04-22T10:46:33Z</time>
      </trkpt>
      <trkpt lat="44.81518" lon="5.68679">
        <ele>613.8</ele>
        <time>2021-04-22T10:46:35Z</time>
      </trkpt>
      <trkpt lat="44.81515" lon="5.68684">
        <ele>613.9</ele>
        <time>2021-04-22T10:46:36Z</time>
      </trkpt>
      <trkpt lat="44.8151" lon="5.68692">
        <ele>614</ele>
        <time>2021-04-22T10:46:37Z</time>
      </trkpt>
      <trkpt lat="44.81507" lon="5.68696">
        <ele>614.1</ele>
        <time>2021-04-22T10:46:39Z</time>
      </trkpt>
      <trkpt lat="44.81504" lon="5.68703">
        <ele>614.2</ele>
        <time>2021-04-22T10:46:40Z</time>
      </trkpt>
      <trkpt lat="44.81501" lon="5.68709">
        <ele>614.3</ele>
        <time>2021-04-22T10:46:42Z</time>
      </trkpt>
      <trkpt lat="44.81498" lon="5.68715">
        <ele>614.3</ele>
        <time>2021-04-22T10:46:43Z</time>
      </trkpt>
      <trkpt lat="44.81495" lon="5.68725">
        <ele>614.4</ele>
        <time>2021-04-22T10:46:45Z</time>
      </trkpt>
      <trkpt lat="44.8149" lon="5.68732">
        <ele>614.5</ele>
        <time>2021-04-22T10:46:46Z</time>
      </trkpt>
      <trkpt lat="44.81487" lon="5.68737">
        <ele>614.5</ele>
        <time>2021-04-22T10:46:47Z</time>
      </trkpt>
      <trkpt lat="44.81481" lon="5.68742">
        <ele>614.6</ele>
        <time>2021-04-22T10:46:49Z</time>
      </trkpt>
      <trkpt lat="44.81477" lon="5.68747">
        <ele>614.6</ele>
        <time>2021-04-22T10:46:50Z</time>
      </trkpt>
      <trkpt lat="44.81474" lon="5.68753">
        <ele>614.6</ele>
        <time>2021-04-22T10:46:51Z</time>
      </trkpt>
      <trkpt lat="44.8147" lon="5.68759">
        <ele>614.7</ele>
        <time>2021-04-22T10:46:52Z</time>
      </trkpt>
      <trkpt lat="44.81467" lon="5.68765">
        <ele>614.7</ele>
        <time>2021-04-22T10:46:53Z</time>
      </trkpt>
      <trkpt lat="44.81464" lon="5.6877">
        <ele>614.7</ele>
        <time>2021-04-22T10:46:54Z</time>
      </trkpt>
      <trkpt lat="44.81461" lon="5.68776">
        <ele>614.8</ele>
        <time>2021-04-22T10:46:55Z</time>
      </trkpt>
      <trkpt lat="44.81457" lon="5.68782">
        <ele>614.8</ele>
        <time>2021-04-22T10:46:56Z</time>
      </trkpt>
      <trkpt lat="44.81453" lon="5.68788">
        <ele>614.9</ele>
        <time>2021-04-22T10:46:57Z</time>
      </trkpt>
      <trkpt lat="44.81449" lon="5.68795">
        <ele>615</ele>
        <time>2021-04-22T10:46:58Z</time>
      </trkpt>
      <trkpt lat="44.81446" lon="5.68801">
        <ele>615</ele>
        <time>2021-04-22T10:46:59Z</time>
      </trkpt>
      <trkpt lat="44.81442" lon="5.68808">
        <ele>615.1</ele>
        <time>2021-04-22T10:47:00Z</time>
      </trkpt>
      <trkpt lat="44.81439" lon="5.68815">
        <ele>615.2</ele>
        <time>2021-04-22T10:47:01Z</time>
      </trkpt>
      <trkpt lat="44.81436" lon="5.68821">
        <ele>615.2</ele>
        <time>2021-04-22T10:47:02Z</time>
      </trkpt>
      <trkpt lat="44.81433" lon="5.68826">
        <ele>615.3</ele>
        <time>2021-04-22T10:47:03Z</time>
      </trkpt>
      <trkpt lat="44.81431" lon="5.68831">
        <ele>615.3</ele>
        <time>2021-04-22T10:47:04Z</time>
      </trkpt>
      <trkpt lat="44.81429" lon="5.68834">
        <ele>615.4</ele>
        <time>2021-04-22T10:47:05Z</time>
      </trkpt>
      <trkpt lat="44.81425" lon="5.6884">
        <ele>615.4</ele>
        <time>2021-04-22T10:47:06Z</time>
      </trkpt>
      <trkpt lat="44.81422" lon="5.68843">
        <ele>615.5</ele>
        <time>2021-04-22T10:47:07Z</time>
      </trkpt>
      <trkpt lat="44.81418" lon="5.68848">
        <ele>615.5</ele>
        <time>2021-04-22T10:47:08Z</time>
      </trkpt>
      <trkpt lat="44.81414" lon="5.68852">
        <ele>615.6</ele>
        <time>2021-04-22T10:47:09Z</time>
      </trkpt>
      <trkpt lat="44.8141" lon="5.68856">
        <ele>615.6</ele>
        <time>2021-04-22T10:47:10Z</time>
      </trkpt>
      <trkpt lat="44.81405" lon="5.68854">
        <ele>615.7</ele>
        <time>2021-04-22T10:47:11Z</time>
      </trkpt>
      <trkpt lat="44.81395" lon="5.68866">
        <ele>615.9</ele>
        <time>2021-04-22T10:47:13Z</time>
      </trkpt>
      <trkpt lat="44.8139" lon="5.68871">
        <ele>616</ele>
        <time>2021-04-22T10:47:14Z</time>
      </trkpt>
      <trkpt lat="44.81385" lon="5.68876">
        <ele>616.1</ele>
        <time>2021-04-22T10:47:15Z</time>
      </trkpt>
      <trkpt lat="44.81379" lon="5.68881">
        <ele>616.1</ele>
        <time>2021-04-22T10:47:16Z</time>
      </trkpt>
      <trkpt lat="44.81375" lon="5.68885">
        <ele>616.2</ele>
        <time>2021-04-22T10:47:17Z</time>
      </trkpt>
      <trkpt lat="44.8137" lon="5.68889">
        <ele>616.3</ele>
        <time>2021-04-22T10:47:18Z</time>
      </trkpt>
      <trkpt lat="44.81365" lon="5.68895">
        <ele>616.3</ele>
        <time>2021-04-22T10:47:19Z</time>
      </trkpt>
      <trkpt lat="44.8136" lon="5.689">
        <ele>616.3</ele>
        <time>2021-04-22T10:47:20Z</time>
      </trkpt>
      <trkpt lat="44.81356" lon="5.68906">
        <ele>616.4</ele>
        <time>2021-04-22T10:47:21Z</time>
      </trkpt>
      <trkpt lat="44.81352" lon="5.68913">
        <ele>616.4</ele>
        <time>2021-04-22T10:47:22Z</time>
      </trkpt>
      <trkpt lat="44.81348" lon="5.6892">
        <ele>616.5</ele>
        <time>2021-04-22T10:47:23Z</time>
      </trkpt>
      <trkpt lat="44.81346" lon="5.68925">
        <ele>616.5</ele>
        <time>2021-04-22T10:47:24Z</time>
      </trkpt>
      <trkpt lat="44.81344" lon="5.68932">
        <ele>616.6</ele>
        <time>2021-04-22T10:47:25Z</time>
      </trkpt>
      <trkpt lat="44.81342" lon="5.68939">
        <ele>616.6</ele>
        <time>2021-04-22T10:47:26Z</time>
      </trkpt>
      <trkpt lat="44.81341" lon="5.68946">
        <ele>616.6</ele>
        <time>2021-04-22T10:47:27Z</time>
      </trkpt>
      <trkpt lat="44.81339" lon="5.68953">
        <ele>616.6</ele>
        <time>2021-04-22T10:47:28Z</time>
      </trkpt>
      <trkpt lat="44.81338" lon="5.6896">
        <ele>616.7</ele>
        <time>2021-04-22T10:47:29Z</time>
      </trkpt>
      <trkpt lat="44.81337" lon="5.68967">
        <ele>616.7</ele>
        <time>2021-04-22T10:47:30Z</time>
      </trkpt>
      <trkpt lat="44.81335" lon="5.68974">
        <ele>616.7</ele>
        <time>2021-04-22T10:47:31Z</time>
      </trkpt>
      <trkpt lat="44.81334" lon="5.68981">
        <ele>616.8</ele>
        <time>2021-04-22T10:47:32Z</time>
      </trkpt>
      <trkpt lat="44.81331" lon="5.68989">
        <ele>616.8</ele>
        <time>2021-04-22T10:47:33Z</time>
      </trkpt>
      <trkpt lat="44.8133" lon="5.68996">
        <ele>616.9</ele>
        <time>2021-04-22T10:47:34Z</time>
      </trkpt>
      <trkpt lat="44.81328" lon="5.69002">
        <ele>616.9</ele>
        <time>2021-04-22T10:47:35Z</time>
      </trkpt>
      <trkpt lat="44.81327" lon="5.69008">
        <ele>617</ele>
        <time>2021-04-22T10:47:36Z</time>
      </trkpt>
      <trkpt lat="44.81326" lon="5.69015">
        <ele>617</ele>
        <time>2021-04-22T10:47:37Z</time>
      </trkpt>
      <trkpt lat="44.81323" lon="5.69022">
        <ele>617.1</ele>
        <time>2021-04-22T10:47:38Z</time>
      </trkpt>
      <trkpt lat="44.8132" lon="5.69028">
        <ele>617.1</ele>
        <time>2021-04-22T10:47:39Z</time>
      </trkpt>
      <trkpt lat="44.81317" lon="5.69034">
        <ele>617.1</ele>
        <time>2021-04-22T10:47:40Z</time>
      </trkpt>
      <trkpt lat="44.81314" lon="5.69039">
        <ele>617.2</ele>
        <time>2021-04-22T10:47:41Z</time>
      </trkpt>
      <trkpt lat="44.8131" lon="5.69044">
        <ele>617.2</ele>
        <time>2021-04-22T10:47:42Z</time>
      </trkpt>
      <trkpt lat="44.81306" lon="5.6905">
        <ele>617.3</ele>
        <time>2021-04-22T10:47:43Z</time>
      </trkpt>
      <trkpt lat="44.81302" lon="5.69055">
        <ele>617.3</ele>
        <time>2021-04-22T10:47:44Z</time>
      </trkpt>
      <trkpt lat="44.81298" lon="5.69061">
        <ele>617.4</ele>
        <time>2021-04-22T10:47:45Z</time>
      </trkpt>
      <trkpt lat="44.81295" lon="5.69067">
        <ele>617.4</ele>
        <time>2021-04-22T10:47:46Z</time>
      </trkpt>
      <trkpt lat="44.81291" lon="5.69073">
        <ele>617.5</ele>
        <time>2021-04-22T10:47:47Z</time>
      </trkpt>
      <trkpt lat="44.81288" lon="5.69079">
        <ele>617.5</ele>
        <time>2021-04-22T10:47:48Z</time>
      </trkpt>
      <trkpt lat="44.81286" lon="5.69084">
        <ele>617.5</ele>
        <time>2021-04-22T10:47:49Z</time>
      </trkpt>
      <trkpt lat="44.81283" lon="5.69091">
        <ele>617.6</ele>
        <time>2021-04-22T10:47:50Z</time>
      </trkpt>
      <trkpt lat="44.81279" lon="5.69099">
        <ele>617.6</ele>
        <time>2021-04-22T10:47:51Z</time>
      </trkpt>
      <trkpt lat="44.81277" lon="5.69106">
        <ele>617.7</ele>
        <time>2021-04-22T10:47:52Z</time>
      </trkpt>
      <trkpt lat="44.81275" lon="5.69113">
        <ele>617.7</ele>
        <time>2021-04-22T10:47:53Z</time>
      </trkpt>
      <trkpt lat="44.81273" lon="5.69121">
        <ele>617.8</ele>
        <time>2021-04-22T10:47:54Z</time>
      </trkpt>
      <trkpt lat="44.81271" lon="5.69128">
        <ele>617.9</ele>
        <time>2021-04-22T10:47:55Z</time>
      </trkpt>
      <trkpt lat="44.81268" lon="5.69136">
        <ele>617.9</ele>
        <time>2021-04-22T10:47:56Z</time>
      </trkpt>
      <trkpt lat="44.81265" lon="5.69144">
        <ele>618</ele>
        <time>2021-04-22T10:47:57Z</time>
      </trkpt>
      <trkpt lat="44.81262" lon="5.69152">
        <ele>618.1</ele>
        <time>2021-04-22T10:47:58Z</time>
      </trkpt>
      <trkpt lat="44.8126" lon="5.69158">
        <ele>618.1</ele>
        <time>2021-04-22T10:47:59Z</time>
      </trkpt>
      <trkpt lat="44.81257" lon="5.69164">
        <ele>618.1</ele>
        <time>2021-04-22T10:48:00Z</time>
      </trkpt>
      <trkpt lat="44.81254" lon="5.69171">
        <ele>618.2</ele>
        <time>2021-04-22T10:48:01Z</time>
      </trkpt>
      <trkpt lat="44.8125" lon="5.69177">
        <ele>618.2</ele>
        <time>2021-04-22T10:48:02Z</time>
      </trkpt>
      <trkpt lat="44.81246" lon="5.69183">
        <ele>618.3</ele>
        <time>2021-04-22T10:48:03Z</time>
      </trkpt>
      <trkpt lat="44.81242" lon="5.69189">
        <ele>618.3</ele>
        <time>2021-04-22T10:48:04Z</time>
      </trkpt>
      <trkpt lat="44.81238" lon="5.69196">
        <ele>618.4</ele>
        <time>2021-04-22T10:48:05Z</time>
      </trkpt>
      <trkpt lat="44.81234" lon="5.69202">
        <ele>618.4</ele>
        <time>2021-04-22T10:48:06Z</time>
      </trkpt>
      <trkpt lat="44.8123" lon="5.69209">
        <ele>618.4</ele>
        <time>2021-04-22T10:48:07Z</time>
      </trkpt>
      <trkpt lat="44.81225" lon="5.69216">
        <ele>618.5</ele>
        <time>2021-04-22T10:48:08Z</time>
      </trkpt>
      <trkpt lat="44.81221" lon="5.69221">
        <ele>618.5</ele>
        <time>2021-04-22T10:48:09Z</time>
      </trkpt>
      <trkpt lat="44.81217" lon="5.69227">
        <ele>618.5</ele>
        <time>2021-04-22T10:48:10Z</time>
      </trkpt>
      <trkpt lat="44.81212" lon="5.69231">
        <ele>618.6</ele>
        <time>2021-04-22T10:48:11Z</time>
      </trkpt>
      <trkpt lat="44.81207" lon="5.69235">
        <ele>618.6</ele>
        <time>2021-04-22T10:48:12Z</time>
      </trkpt>
      <trkpt lat="44.81202" lon="5.69237">
        <ele>618.7</ele>
        <time>2021-04-22T10:48:13Z</time>
      </trkpt>
      <trkpt lat="44.812" lon="5.69238">
        <ele>618.7</ele>
        <time>2021-04-22T10:48:14Z</time>
      </trkpt>
      <trkpt lat="44.81194" lon="5.69238">
        <ele>618.8</ele>
        <time>2021-04-22T10:48:15Z</time>
      </trkpt>
      <trkpt lat="44.81189" lon="5.69237">
        <ele>619</ele>
        <time>2021-04-22T10:48:16Z</time>
      </trkpt>
      <trkpt lat="44.81184" lon="5.69238">
        <ele>619.1</ele>
        <time>2021-04-22T10:48:17Z</time>
      </trkpt>
      <trkpt lat="44.81181" lon="5.69239">
        <ele>619.1</ele>
        <time>2021-04-22T10:48:18Z</time>
      </trkpt>
      <trkpt lat="44.81176" lon="5.6924">
        <ele>619.2</ele>
        <time>2021-04-22T10:48:19Z</time>
      </trkpt>
      <trkpt lat="44.81179" lon="5.69238">
        <ele>619.3</ele>
        <time>2021-04-22T10:48:20Z</time>
      </trkpt>
      <trkpt lat="44.81166" lon="5.69249">
        <ele>619.5</ele>
        <time>2021-04-22T10:48:22Z</time>
      </trkpt>
      <trkpt lat="44.81161" lon="5.69254">
        <ele>619.5</ele>
        <time>2021-04-22T10:48:23Z</time>
      </trkpt>
      <trkpt lat="44.81151" lon="5.69269">
        <ele>619.6</ele>
        <time>2021-04-22T10:48:25Z</time>
      </trkpt>
      <trkpt lat="44.81149" lon="5.69277">
        <ele>619.6</ele>
        <time>2021-04-22T10:48:26Z</time>
      </trkpt>
      <trkpt lat="44.81146" lon="5.69285">
        <ele>619.7</ele>
        <time>2021-04-22T10:48:27Z</time>
      </trkpt>
      <trkpt lat="44.81144" lon="5.69292">
        <ele>619.7</ele>
        <time>2021-04-22T10:48:28Z</time>
      </trkpt>
      <trkpt lat="44.81142" lon="5.693">
        <ele>619.8</ele>
        <time>2021-04-22T10:48:29Z</time>
      </trkpt>
      <trkpt lat="44.8114" lon="5.69309">
        <ele>619.9</ele>
        <time>2021-04-22T10:48:30Z</time>
      </trkpt>
      <trkpt lat="44.81137" lon="5.69317">
        <ele>619.9</ele>
        <time>2021-04-22T10:48:31Z</time>
      </trkpt>
      <trkpt lat="44.81134" lon="5.69324">
        <ele>619.9</ele>
        <time>2021-04-22T10:48:32Z</time>
      </trkpt>
      <trkpt lat="44.81131" lon="5.69331">
        <ele>620</ele>
        <time>2021-04-22T10:48:33Z</time>
      </trkpt>
      <trkpt lat="44.81128" lon="5.69338">
        <ele>620</ele>
        <time>2021-04-22T10:48:34Z</time>
      </trkpt>
      <trkpt lat="44.81123" lon="5.69344">
        <ele>620.1</ele>
        <time>2021-04-22T10:48:35Z</time>
      </trkpt>
      <trkpt lat="44.81118" lon="5.69351">
        <ele>620.1</ele>
        <time>2021-04-22T10:48:36Z</time>
      </trkpt>
      <trkpt lat="44.81113" lon="5.69358">
        <ele>620.2</ele>
        <time>2021-04-22T10:48:37Z</time>
      </trkpt>
      <trkpt lat="44.8111" lon="5.69362">
        <ele>620.2</ele>
        <time>2021-04-22T10:48:38Z</time>
      </trkpt>
      <trkpt lat="44.81107" lon="5.69365">
        <ele>620.3</ele>
        <time>2021-04-22T10:48:39Z</time>
      </trkpt>
      <trkpt lat="44.81103" lon="5.69371">
        <ele>620.3</ele>
        <time>2021-04-22T10:48:40Z</time>
      </trkpt>
      <trkpt lat="44.81099" lon="5.69378">
        <ele>620.4</ele>
        <time>2021-04-22T10:48:41Z</time>
      </trkpt>
      <trkpt lat="44.81094" lon="5.69383">
        <ele>620.5</ele>
        <time>2021-04-22T10:48:42Z</time>
      </trkpt>
      <trkpt lat="44.81089" lon="5.69389">
        <ele>620.6</ele>
        <time>2021-04-22T10:48:43Z</time>
      </trkpt>
      <trkpt lat="44.81084" lon="5.69396">
        <ele>620.7</ele>
        <time>2021-04-22T10:48:44Z</time>
      </trkpt>
      <trkpt lat="44.8108" lon="5.69402">
        <ele>620.8</ele>
        <time>2021-04-22T10:48:45Z</time>
      </trkpt>
      <trkpt lat="44.81075" lon="5.69408">
        <ele>620.9</ele>
        <time>2021-04-22T10:48:46Z</time>
      </trkpt>
      <trkpt lat="44.81071" lon="5.69414">
        <ele>621</ele>
        <time>2021-04-22T10:48:47Z</time>
      </trkpt>
      <trkpt lat="44.81067" lon="5.69419">
        <ele>621</ele>
        <time>2021-04-22T10:48:48Z</time>
      </trkpt>
      <trkpt lat="44.81063" lon="5.69425">
        <ele>621.1</ele>
        <time>2021-04-22T10:48:49Z</time>
      </trkpt>
      <trkpt lat="44.81058" lon="5.6943">
        <ele>621.2</ele>
        <time>2021-04-22T10:48:50Z</time>
      </trkpt>
      <trkpt lat="44.81054" lon="5.69436">
        <ele>621.3</ele>
        <time>2021-04-22T10:48:51Z</time>
      </trkpt>
      <trkpt lat="44.81049" lon="5.69443">
        <ele>621.4</ele>
        <time>2021-04-22T10:48:52Z</time>
      </trkpt>
      <trkpt lat="44.81045" lon="5.69449">
        <ele>621.5</ele>
        <time>2021-04-22T10:48:53Z</time>
      </trkpt>
      <trkpt lat="44.81041" lon="5.69454">
        <ele>621.6</ele>
        <time>2021-04-22T10:48:54Z</time>
      </trkpt>
      <trkpt lat="44.81038" lon="5.69457">
        <ele>621.6</ele>
        <time>2021-04-22T10:48:55Z</time>
      </trkpt>
      <trkpt lat="44.81034" lon="5.69463">
        <ele>621.8</ele>
        <time>2021-04-22T10:48:56Z</time>
      </trkpt>
      <trkpt lat="44.8103" lon="5.69469">
        <ele>621.9</ele>
        <time>2021-04-22T10:48:57Z</time>
      </trkpt>
      <trkpt lat="44.81027" lon="5.69474">
        <ele>622</ele>
        <time>2021-04-22T10:48:58Z</time>
      </trkpt>
      <trkpt lat="44.81024" lon="5.69479">
        <ele>622.1</ele>
        <time>2021-04-22T10:48:59Z</time>
      </trkpt>
      <trkpt lat="44.81021" lon="5.69484">
        <ele>622.2</ele>
        <time>2021-04-22T10:49:00Z</time>
      </trkpt>
      <trkpt lat="44.81018" lon="5.69489">
        <ele>622.2</ele>
        <time>2021-04-22T10:49:01Z</time>
      </trkpt>
      <trkpt lat="44.81017" lon="5.69493">
        <ele>622.3</ele>
        <time>2021-04-22T10:49:02Z</time>
      </trkpt>
      <trkpt lat="44.81014" lon="5.69499">
        <ele>622.4</ele>
        <time>2021-04-22T10:49:03Z</time>
      </trkpt>
      <trkpt lat="44.8101" lon="5.69506">
        <ele>622.5</ele>
        <time>2021-04-22T10:49:04Z</time>
      </trkpt>
      <trkpt lat="44.81007" lon="5.69512">
        <ele>622.6</ele>
        <time>2021-04-22T10:49:05Z</time>
      </trkpt>
      <trkpt lat="44.81002" lon="5.69518">
        <ele>622.7</ele>
        <time>2021-04-22T10:49:06Z</time>
      </trkpt>
      <trkpt lat="44.80998" lon="5.69524">
        <ele>622.8</ele>
        <time>2021-04-22T10:49:07Z</time>
      </trkpt>
      <trkpt lat="44.80994" lon="5.69529">
        <ele>622.9</ele>
        <time>2021-04-22T10:49:08Z</time>
      </trkpt>
      <trkpt lat="44.80991" lon="5.69534">
        <ele>623</ele>
        <time>2021-04-22T10:49:09Z</time>
      </trkpt>
      <trkpt lat="44.80988" lon="5.69539">
        <ele>623.1</ele>
        <time>2021-04-22T10:49:10Z</time>
      </trkpt>
      <trkpt lat="44.80985" lon="5.69544">
        <ele>623.2</ele>
        <time>2021-04-22T10:49:11Z</time>
      </trkpt>
      <trkpt lat="44.80982" lon="5.69548">
        <ele>623.3</ele>
        <time>2021-04-22T10:49:12Z</time>
      </trkpt>
      <trkpt lat="44.80979" lon="5.69554">
        <ele>623.4</ele>
        <time>2021-04-22T10:49:13Z</time>
      </trkpt>
      <trkpt lat="44.80976" lon="5.69559">
        <ele>623.5</ele>
        <time>2021-04-22T10:49:14Z</time>
      </trkpt>
      <trkpt lat="44.80974" lon="5.69564">
        <ele>623.5</ele>
        <time>2021-04-22T10:49:15Z</time>
      </trkpt>
      <trkpt lat="44.80971" lon="5.6957">
        <ele>623.6</ele>
        <time>2021-04-22T10:49:16Z</time>
      </trkpt>
      <trkpt lat="44.80968" lon="5.69576">
        <ele>623.7</ele>
        <time>2021-04-22T10:49:17Z</time>
      </trkpt>
      <trkpt lat="44.80965" lon="5.69584">
        <ele>623.8</ele>
        <time>2021-04-22T10:49:18Z</time>
      </trkpt>
      <trkpt lat="44.80963" lon="5.69589">
        <ele>623.8</ele>
        <time>2021-04-22T10:49:19Z</time>
      </trkpt>
      <trkpt lat="44.80961" lon="5.69595">
        <ele>623.9</ele>
        <time>2021-04-22T10:49:20Z</time>
      </trkpt>
      <trkpt lat="44.8096" lon="5.69597">
        <ele>623.9</ele>
        <time>2021-04-22T10:49:21Z</time>
      </trkpt>
      <trkpt lat="44.80957" lon="5.69603">
        <ele>624</ele>
        <time>2021-04-22T10:49:22Z</time>
      </trkpt>
      <trkpt lat="44.80954" lon="5.69607">
        <ele>624.1</ele>
        <time>2021-04-22T10:49:23Z</time>
      </trkpt>
      <trkpt lat="44.80952" lon="5.6961">
        <ele>624.1</ele>
        <time>2021-04-22T10:49:24Z</time>
      </trkpt>
      <trkpt lat="44.8095" lon="5.69615">
        <ele>624.2</ele>
        <time>2021-04-22T10:49:25Z</time>
      </trkpt>
      <trkpt lat="44.80946" lon="5.69621">
        <ele>624.3</ele>
        <time>2021-04-22T10:49:26Z</time>
      </trkpt>
      <trkpt lat="44.80941" lon="5.6963">
        <ele>624.4</ele>
        <time>2021-04-22T10:49:27Z</time>
      </trkpt>
      <trkpt lat="44.80937" lon="5.69637">
        <ele>624.5</ele>
        <time>2021-04-22T10:49:29Z</time>
      </trkpt>
      <trkpt lat="44.80934" lon="5.6964">
        <ele>624.6</ele>
        <time>2021-04-22T10:49:30Z</time>
      </trkpt>
      <trkpt lat="44.80933" lon="5.69648">
        <ele>624.7</ele>
        <time>2021-04-22T10:49:31Z</time>
      </trkpt>
      <trkpt lat="44.80931" lon="5.69653">
        <ele>624.7</ele>
        <time>2021-04-22T10:49:32Z</time>
      </trkpt>
      <trkpt lat="44.80923" lon="5.69667">
        <ele>625</ele>
        <time>2021-04-22T10:49:34Z</time>
      </trkpt>
      <trkpt lat="44.8092" lon="5.69675">
        <ele>625.1</ele>
        <time>2021-04-22T10:49:35Z</time>
      </trkpt>
      <trkpt lat="44.80916" lon="5.69682">
        <ele>625.2</ele>
        <time>2021-04-22T10:49:36Z</time>
      </trkpt>
      <trkpt lat="44.80912" lon="5.69689">
        <ele>625.3</ele>
        <time>2021-04-22T10:49:37Z</time>
      </trkpt>
      <trkpt lat="44.80909" lon="5.69695">
        <ele>625.4</ele>
        <time>2021-04-22T10:49:38Z</time>
      </trkpt>
      <trkpt lat="44.80906" lon="5.69702">
        <ele>625.5</ele>
        <time>2021-04-22T10:49:39Z</time>
      </trkpt>
      <trkpt lat="44.80903" lon="5.6971">
        <ele>625.6</ele>
        <time>2021-04-22T10:49:40Z</time>
      </trkpt>
      <trkpt lat="44.809" lon="5.69717">
        <ele>625.8</ele>
        <time>2021-04-22T10:49:41Z</time>
      </trkpt>
      <trkpt lat="44.80897" lon="5.69724">
        <ele>625.9</ele>
        <time>2021-04-22T10:49:42Z</time>
      </trkpt>
      <trkpt lat="44.80894" lon="5.69731">
        <ele>626</ele>
        <time>2021-04-22T10:49:43Z</time>
      </trkpt>
      <trkpt lat="44.80891" lon="5.69738">
        <ele>626.1</ele>
        <time>2021-04-22T10:49:44Z</time>
      </trkpt>
      <trkpt lat="44.80888" lon="5.69745">
        <ele>626.2</ele>
        <time>2021-04-22T10:49:45Z</time>
      </trkpt>
      <trkpt lat="44.80885" lon="5.69752">
        <ele>626.3</ele>
        <time>2021-04-22T10:49:46Z</time>
      </trkpt>
      <trkpt lat="44.80882" lon="5.69759">
        <ele>626.4</ele>
        <time>2021-04-22T10:49:47Z</time>
      </trkpt>
      <trkpt lat="44.8088" lon="5.69766">
        <ele>626.5</ele>
        <time>2021-04-22T10:49:48Z</time>
      </trkpt>
      <trkpt lat="44.8088" lon="5.69771">
        <ele>626.6</ele>
        <time>2021-04-22T10:49:49Z</time>
      </trkpt>
      <trkpt lat="44.80879" lon="5.69777">
        <ele>626.7</ele>
        <time>2021-04-22T10:49:50Z</time>
      </trkpt>
      <trkpt lat="44.80877" lon="5.69783">
        <ele>626.8</ele>
        <time>2021-04-22T10:49:51Z</time>
      </trkpt>
      <trkpt lat="44.80874" lon="5.6979">
        <ele>626.9</ele>
        <time>2021-04-22T10:49:52Z</time>
      </trkpt>
      <trkpt lat="44.80872" lon="5.69796">
        <ele>627</ele>
        <time>2021-04-22T10:49:53Z</time>
      </trkpt>
      <trkpt lat="44.8087" lon="5.69803">
        <ele>627.1</ele>
        <time>2021-04-22T10:49:54Z</time>
      </trkpt>
      <trkpt lat="44.80868" lon="5.6981">
        <ele>627.3</ele>
        <time>2021-04-22T10:49:55Z</time>
      </trkpt>
      <trkpt lat="44.80865" lon="5.69817">
        <ele>627.4</ele>
        <time>2021-04-22T10:49:56Z</time>
      </trkpt>
      <trkpt lat="44.80863" lon="5.69825">
        <ele>627.5</ele>
        <time>2021-04-22T10:49:57Z</time>
      </trkpt>
      <trkpt lat="44.80861" lon="5.69832">
        <ele>627.6</ele>
        <time>2021-04-22T10:49:58Z</time>
      </trkpt>
      <trkpt lat="44.8086" lon="5.69838">
        <ele>627.8</ele>
        <time>2021-04-22T10:49:59Z</time>
      </trkpt>
      <trkpt lat="44.80858" lon="5.69845">
        <ele>627.9</ele>
        <time>2021-04-22T10:50:00Z</time>
      </trkpt>
      <trkpt lat="44.80855" lon="5.69852">
        <ele>628</ele>
        <time>2021-04-22T10:50:01Z</time>
      </trkpt>
      <trkpt lat="44.80853" lon="5.69858">
        <ele>628.2</ele>
        <time>2021-04-22T10:50:02Z</time>
      </trkpt>
      <trkpt lat="44.80851" lon="5.69864">
        <ele>628.3</ele>
        <time>2021-04-22T10:50:03Z</time>
      </trkpt>
      <trkpt lat="44.80849" lon="5.69869">
        <ele>628.4</ele>
        <time>2021-04-22T10:50:04Z</time>
      </trkpt>
      <trkpt lat="44.80847" lon="5.69876">
        <ele>628.5</ele>
        <time>2021-04-22T10:50:05Z</time>
      </trkpt>
      <trkpt lat="44.80846" lon="5.69879">
        <ele>628.6</ele>
        <time>2021-04-22T10:50:06Z</time>
      </trkpt>
      <trkpt lat="44.80844" lon="5.69887">
        <ele>628.7</ele>
        <time>2021-04-22T10:50:07Z</time>
      </trkpt>
      <trkpt lat="44.80842" lon="5.69894">
        <ele>628.8</ele>
        <time>2021-04-22T10:50:08Z</time>
      </trkpt>
      <trkpt lat="44.8084" lon="5.69901">
        <ele>629</ele>
        <time>2021-04-22T10:50:09Z</time>
      </trkpt>
      <trkpt lat="44.80839" lon="5.69905">
        <ele>629.1</ele>
        <time>2021-04-22T10:50:10Z</time>
      </trkpt>
      <trkpt lat="44.80837" lon="5.69913">
        <ele>629.3</ele>
        <time>2021-04-22T10:50:11Z</time>
      </trkpt>
      <trkpt lat="44.80837" lon="5.69919">
        <ele>629.4</ele>
        <time>2021-04-22T10:50:12Z</time>
      </trkpt>
      <trkpt lat="44.80836" lon="5.69926">
        <ele>629.5</ele>
        <time>2021-04-22T10:50:13Z</time>
      </trkpt>
      <trkpt lat="44.80836" lon="5.69931">
        <ele>629.7</ele>
        <time>2021-04-22T10:50:14Z</time>
      </trkpt>
      <trkpt lat="44.80837" lon="5.6994">
        <ele>629.8</ele>
        <time>2021-04-22T10:50:15Z</time>
      </trkpt>
      <trkpt lat="44.80839" lon="5.69942">
        <ele>629.9</ele>
        <time>2021-04-22T10:50:16Z</time>
      </trkpt>
      <trkpt lat="44.80838" lon="5.69956">
        <ele>630.1</ele>
        <time>2021-04-22T10:50:18Z</time>
      </trkpt>
      <trkpt lat="44.80838" lon="5.69964">
        <ele>630.3</ele>
        <time>2021-04-22T10:50:19Z</time>
      </trkpt>
      <trkpt lat="44.80841" lon="5.69973">
        <ele>630.4</ele>
        <time>2021-04-22T10:50:20Z</time>
      </trkpt>
      <trkpt lat="44.80844" lon="5.69981">
        <ele>630.5</ele>
        <time>2021-04-22T10:50:22Z</time>
      </trkpt>
      <trkpt lat="44.80845" lon="5.69987">
        <ele>630.6</ele>
        <time>2021-04-22T10:50:23Z</time>
      </trkpt>
      <trkpt lat="44.80848" lon="5.69997">
        <ele>630.7</ele>
        <time>2021-04-22T10:50:24Z</time>
      </trkpt>
      <trkpt lat="44.8085" lon="5.70011">
        <ele>631</ele>
        <time>2021-04-22T10:50:26Z</time>
      </trkpt>
      <trkpt lat="44.80851" lon="5.70018">
        <ele>631.1</ele>
        <time>2021-04-22T10:50:27Z</time>
      </trkpt>
      <trkpt lat="44.80852" lon="5.70025">
        <ele>631.2</ele>
        <time>2021-04-22T10:50:28Z</time>
      </trkpt>
      <trkpt lat="44.80853" lon="5.70032">
        <ele>631.3</ele>
        <time>2021-04-22T10:50:29Z</time>
      </trkpt>
      <trkpt lat="44.80853" lon="5.70039">
        <ele>631.4</ele>
        <time>2021-04-22T10:50:30Z</time>
      </trkpt>
      <trkpt lat="44.80854" lon="5.70045">
        <ele>631.5</ele>
        <time>2021-04-22T10:50:31Z</time>
      </trkpt>
      <trkpt lat="44.80854" lon="5.70052">
        <ele>631.6</ele>
        <time>2021-04-22T10:50:32Z</time>
      </trkpt>
      <trkpt lat="44.80854" lon="5.70058">
        <ele>631.7</ele>
        <time>2021-04-22T10:50:33Z</time>
      </trkpt>
      <trkpt lat="44.80854" lon="5.70064">
        <ele>631.8</ele>
        <time>2021-04-22T10:50:34Z</time>
      </trkpt>
      <trkpt lat="44.80853" lon="5.70071">
        <ele>631.9</ele>
        <time>2021-04-22T10:50:35Z</time>
      </trkpt>
      <trkpt lat="44.80853" lon="5.70078">
        <ele>632</ele>
        <time>2021-04-22T10:50:36Z</time>
      </trkpt>
      <trkpt lat="44.80852" lon="5.70085">
        <ele>632.1</ele>
        <time>2021-04-22T10:50:37Z</time>
      </trkpt>
      <trkpt lat="44.80851" lon="5.70092">
        <ele>632.1</ele>
        <time>2021-04-22T10:50:38Z</time>
      </trkpt>
      <trkpt lat="44.80851" lon="5.70096">
        <ele>632.1</ele>
        <time>2021-04-22T10:50:39Z</time>
      </trkpt>
      <trkpt lat="44.80852" lon="5.70101">
        <ele>632.1</ele>
        <time>2021-04-22T10:50:40Z</time>
      </trkpt>
      <trkpt lat="44.80851" lon="5.70105">
        <ele>632.2</ele>
        <time>2021-04-22T10:50:41Z</time>
      </trkpt>
      <trkpt lat="44.80851" lon="5.70113">
        <ele>632.2</ele>
        <time>2021-04-22T10:50:42Z</time>
      </trkpt>
      <trkpt lat="44.8085" lon="5.70121">
        <ele>632.2</ele>
        <time>2021-04-22T10:50:43Z</time>
      </trkpt>
      <trkpt lat="44.80849" lon="5.70129">
        <ele>632.3</ele>
        <time>2021-04-22T10:50:44Z</time>
      </trkpt>
      <trkpt lat="44.80848" lon="5.70136">
        <ele>632.3</ele>
        <time>2021-04-22T10:50:45Z</time>
      </trkpt>
      <trkpt lat="44.80847" lon="5.70143">
        <ele>632.4</ele>
        <time>2021-04-22T10:50:46Z</time>
      </trkpt>
      <trkpt lat="44.80847" lon="5.70151">
        <ele>632.4</ele>
        <time>2021-04-22T10:50:47Z</time>
      </trkpt>
      <trkpt lat="44.80847" lon="5.70158">
        <ele>632.5</ele>
        <time>2021-04-22T10:50:48Z</time>
      </trkpt>
      <trkpt lat="44.80846" lon="5.70165">
        <ele>632.5</ele>
        <time>2021-04-22T10:50:49Z</time>
      </trkpt>
      <trkpt lat="44.80845" lon="5.70173">
        <ele>632.5</ele>
        <time>2021-04-22T10:50:50Z</time>
      </trkpt>
      <trkpt lat="44.80844" lon="5.7018">
        <ele>632.6</ele>
        <time>2021-04-22T10:50:51Z</time>
      </trkpt>
      <trkpt lat="44.80844" lon="5.70187">
        <ele>632.7</ele>
        <time>2021-04-22T10:50:52Z</time>
      </trkpt>
      <trkpt lat="44.80844" lon="5.70194">
        <ele>632.8</ele>
        <time>2021-04-22T10:50:53Z</time>
      </trkpt>
      <trkpt lat="44.80844" lon="5.70201">
        <ele>633</ele>
        <time>2021-04-22T10:50:54Z</time>
      </trkpt>
      <trkpt lat="44.80844" lon="5.70209">
        <ele>633.1</ele>
        <time>2021-04-22T10:50:55Z</time>
      </trkpt>
      <trkpt lat="44.80845" lon="5.70216">
        <ele>633.3</ele>
        <time>2021-04-22T10:50:56Z</time>
      </trkpt>
      <trkpt lat="44.80846" lon="5.70223">
        <ele>633.4</ele>
        <time>2021-04-22T10:50:57Z</time>
      </trkpt>
      <trkpt lat="44.80847" lon="5.7023">
        <ele>633.5</ele>
        <time>2021-04-22T10:50:58Z</time>
      </trkpt>
      <trkpt lat="44.80848" lon="5.70237">
        <ele>633.7</ele>
        <time>2021-04-22T10:50:59Z</time>
      </trkpt>
      <trkpt lat="44.80849" lon="5.70243">
        <ele>633.8</ele>
        <time>2021-04-22T10:51:00Z</time>
      </trkpt>
      <trkpt lat="44.80851" lon="5.70249">
        <ele>633.9</ele>
        <time>2021-04-22T10:51:01Z</time>
      </trkpt>
      <trkpt lat="44.80852" lon="5.70255">
        <ele>634</ele>
        <time>2021-04-22T10:51:02Z</time>
      </trkpt>
      <trkpt lat="44.80854" lon="5.70259">
        <ele>634.1</ele>
        <time>2021-04-22T10:51:03Z</time>
      </trkpt>
      <trkpt lat="44.80858" lon="5.70266">
        <ele>634.2</ele>
        <time>2021-04-22T10:51:04Z</time>
      </trkpt>
      <trkpt lat="44.80861" lon="5.70271">
        <ele>634.3</ele>
        <time>2021-04-22T10:51:05Z</time>
      </trkpt>
      <trkpt lat="44.80865" lon="5.70275">
        <ele>634.4</ele>
        <time>2021-04-22T10:51:06Z</time>
      </trkpt>
      <trkpt lat="44.80869" lon="5.70279">
        <ele>634.5</ele>
        <time>2021-04-22T10:51:07Z</time>
      </trkpt>
      <trkpt lat="44.80874" lon="5.70282">
        <ele>634.6</ele>
        <time>2021-04-22T10:51:08Z</time>
      </trkpt>
      <trkpt lat="44.80878" lon="5.70286">
        <ele>634.7</ele>
        <time>2021-04-22T10:51:09Z</time>
      </trkpt>
      <trkpt lat="44.80883" lon="5.70288">
        <ele>634.8</ele>
        <time>2021-04-22T10:51:10Z</time>
      </trkpt>
      <trkpt lat="44.80887" lon="5.7029">
        <ele>634.9</ele>
        <time>2021-04-22T10:51:11Z</time>
      </trkpt>
      <trkpt lat="44.80892" lon="5.70291">
        <ele>635</ele>
        <time>2021-04-22T10:51:12Z</time>
      </trkpt>
      <trkpt lat="44.80897" lon="5.70293">
        <ele>635.1</ele>
        <time>2021-04-22T10:51:13Z</time>
      </trkpt>
      <trkpt lat="44.80902" lon="5.70295">
        <ele>635.2</ele>
        <time>2021-04-22T10:51:14Z</time>
      </trkpt>
      <trkpt lat="44.80908" lon="5.70297">
        <ele>635.3</ele>
        <time>2021-04-22T10:51:15Z</time>
      </trkpt>
      <trkpt lat="44.80913" lon="5.70299">
        <ele>635.4</ele>
        <time>2021-04-22T10:51:16Z</time>
      </trkpt>
      <trkpt lat="44.80918" lon="5.70301">
        <ele>635.5</ele>
        <time>2021-04-22T10:51:17Z</time>
      </trkpt>
      <trkpt lat="44.80923" lon="5.70304">
        <ele>635.6</ele>
        <time>2021-04-22T10:51:18Z</time>
      </trkpt>
      <trkpt lat="44.80927" lon="5.70308">
        <ele>635.6</ele>
        <time>2021-04-22T10:51:19Z</time>
      </trkpt>
      <trkpt lat="44.80932" lon="5.70312">
        <ele>635.7</ele>
        <time>2021-04-22T10:51:20Z</time>
      </trkpt>
      <trkpt lat="44.80936" lon="5.70317">
        <ele>635.8</ele>
        <time>2021-04-22T10:51:21Z</time>
      </trkpt>
      <trkpt lat="44.80939" lon="5.70323">
        <ele>635.9</ele>
        <time>2021-04-22T10:51:22Z</time>
      </trkpt>
      <trkpt lat="44.80942" lon="5.70329">
        <ele>636</ele>
        <time>2021-04-22T10:51:23Z</time>
      </trkpt>
      <trkpt lat="44.80945" lon="5.70335">
        <ele>636.1</ele>
        <time>2021-04-22T10:51:24Z</time>
      </trkpt>
      <trkpt lat="44.80949" lon="5.70342">
        <ele>636.2</ele>
        <time>2021-04-22T10:51:25Z</time>
      </trkpt>
      <trkpt lat="44.80952" lon="5.70348">
        <ele>636.3</ele>
        <time>2021-04-22T10:51:26Z</time>
      </trkpt>
      <trkpt lat="44.80956" lon="5.70354">
        <ele>636.4</ele>
        <time>2021-04-22T10:51:27Z</time>
      </trkpt>
      <trkpt lat="44.80959" lon="5.70361">
        <ele>636.6</ele>
        <time>2021-04-22T10:51:28Z</time>
      </trkpt>
      <trkpt lat="44.80963" lon="5.70367">
        <ele>636.7</ele>
        <time>2021-04-22T10:51:29Z</time>
      </trkpt>
      <trkpt lat="44.80966" lon="5.70373">
        <ele>636.8</ele>
        <time>2021-04-22T10:51:30Z</time>
      </trkpt>
      <trkpt lat="44.80969" lon="5.70379">
        <ele>636.9</ele>
        <time>2021-04-22T10:51:31Z</time>
      </trkpt>
      <trkpt lat="44.80972" lon="5.70385">
        <ele>637</ele>
        <time>2021-04-22T10:51:32Z</time>
      </trkpt>
      <trkpt lat="44.80976" lon="5.70391">
        <ele>637.2</ele>
        <time>2021-04-22T10:51:33Z</time>
      </trkpt>
      <trkpt lat="44.8098" lon="5.70396">
        <ele>637.3</ele>
        <time>2021-04-22T10:51:34Z</time>
      </trkpt>
      <trkpt lat="44.80983" lon="5.70402">
        <ele>637.4</ele>
        <time>2021-04-22T10:51:35Z</time>
      </trkpt>
      <trkpt lat="44.80986" lon="5.70408">
        <ele>637.5</ele>
        <time>2021-04-22T10:51:36Z</time>
      </trkpt>
      <trkpt lat="44.80989" lon="5.70414">
        <ele>637.7</ele>
        <time>2021-04-22T10:51:37Z</time>
      </trkpt>
      <trkpt lat="44.80992" lon="5.70419">
        <ele>637.8</ele>
        <time>2021-04-22T10:51:38Z</time>
      </trkpt>
      <trkpt lat="44.80994" lon="5.70424">
        <ele>637.8</ele>
        <time>2021-04-22T10:51:39Z</time>
      </trkpt>
      <trkpt lat="44.80997" lon="5.70429">
        <ele>637.9</ele>
        <time>2021-04-22T10:51:40Z</time>
      </trkpt>
      <trkpt lat="44.81" lon="5.70435">
        <ele>638</ele>
        <time>2021-04-22T10:51:41Z</time>
      </trkpt>
      <trkpt lat="44.81003" lon="5.7044">
        <ele>638.1</ele>
        <time>2021-04-22T10:51:42Z</time>
      </trkpt>
      <trkpt lat="44.81006" lon="5.70446">
        <ele>638.2</ele>
        <time>2021-04-22T10:51:43Z</time>
      </trkpt>
      <trkpt lat="44.81009" lon="5.70452">
        <ele>638.3</ele>
        <time>2021-04-22T10:51:44Z</time>
      </trkpt>
      <trkpt lat="44.81012" lon="5.70457">
        <ele>638.4</ele>
        <time>2021-04-22T10:51:45Z</time>
      </trkpt>
      <trkpt lat="44.81014" lon="5.70461">
        <ele>638.5</ele>
        <time>2021-04-22T10:51:46Z</time>
      </trkpt>
      <trkpt lat="44.81017" lon="5.70467">
        <ele>638.7</ele>
        <time>2021-04-22T10:51:47Z</time>
      </trkpt>
      <trkpt lat="44.8102" lon="5.70474">
        <ele>638.8</ele>
        <time>2021-04-22T10:51:48Z</time>
      </trkpt>
      <trkpt lat="44.81023" lon="5.70479">
        <ele>638.9</ele>
        <time>2021-04-22T10:51:49Z</time>
      </trkpt>
      <trkpt lat="44.81026" lon="5.70484">
        <ele>639</ele>
        <time>2021-04-22T10:51:50Z</time>
      </trkpt>
      <trkpt lat="44.81029" lon="5.7049">
        <ele>639.1</ele>
        <time>2021-04-22T10:51:51Z</time>
      </trkpt>
      <trkpt lat="44.81032" lon="5.70495">
        <ele>639.3</ele>
        <time>2021-04-22T10:51:52Z</time>
      </trkpt>
      <trkpt lat="44.81034" lon="5.70501">
        <ele>639.4</ele>
        <time>2021-04-22T10:51:53Z</time>
      </trkpt>
      <trkpt lat="44.81036" lon="5.70504">
        <ele>639.4</ele>
        <time>2021-04-22T10:51:54Z</time>
      </trkpt>
      <trkpt lat="44.81038" lon="5.70509">
        <ele>639.5</ele>
        <time>2021-04-22T10:51:55Z</time>
      </trkpt>
      <trkpt lat="44.81041" lon="5.70515">
        <ele>639.7</ele>
        <time>2021-04-22T10:51:56Z</time>
      </trkpt>
      <trkpt lat="44.81045" lon="5.7052">
        <ele>639.8</ele>
        <time>2021-04-22T10:51:57Z</time>
      </trkpt>
      <trkpt lat="44.81047" lon="5.70526">
        <ele>639.9</ele>
        <time>2021-04-22T10:51:58Z</time>
      </trkpt>
      <trkpt lat="44.8105" lon="5.70532">
        <ele>640</ele>
        <time>2021-04-22T10:51:59Z</time>
      </trkpt>
      <trkpt lat="44.81052" lon="5.70538">
        <ele>640.2</ele>
        <time>2021-04-22T10:52:00Z</time>
      </trkpt>
      <trkpt lat="44.81056" lon="5.70543">
        <ele>640.3</ele>
        <time>2021-04-22T10:52:01Z</time>
      </trkpt>
      <trkpt lat="44.81061" lon="5.70551">
        <ele>640.5</ele>
        <time>2021-04-22T10:52:03Z</time>
      </trkpt>
      <trkpt lat="44.81064" lon="5.70556">
        <ele>640.7</ele>
        <time>2021-04-22T10:52:04Z</time>
      </trkpt>
      <trkpt lat="44.81067" lon="5.70562">
        <ele>640.8</ele>
        <time>2021-04-22T10:52:05Z</time>
      </trkpt>
      <trkpt lat="44.81071" lon="5.70565">
        <ele>640.9</ele>
        <time>2021-04-22T10:52:06Z</time>
      </trkpt>
      <trkpt lat="44.81075" lon="5.70575">
        <ele>641.2</ele>
        <time>2021-04-22T10:52:08Z</time>
      </trkpt>
      <trkpt lat="44.81079" lon="5.70582">
        <ele>641.4</ele>
        <time>2021-04-22T10:52:09Z</time>
      </trkpt>
      <trkpt lat="44.81084" lon="5.7059">
        <ele>641.6</ele>
        <time>2021-04-22T10:52:11Z</time>
      </trkpt>
      <trkpt lat="44.81087" lon="5.70596">
        <ele>641.7</ele>
        <time>2021-04-22T10:52:12Z</time>
      </trkpt>
      <trkpt lat="44.8109" lon="5.70603">
        <ele>641.9</ele>
        <time>2021-04-22T10:52:13Z</time>
      </trkpt>
      <trkpt lat="44.81088" lon="5.70607">
        <ele>642</ele>
        <time>2021-04-22T10:52:15Z</time>
      </trkpt>
      <trkpt lat="44.81091" lon="5.70613">
        <ele>642.1</ele>
        <time>2021-04-22T10:52:16Z</time>
      </trkpt>
      <trkpt lat="44.81099" lon="5.70622">
        <ele>642.3</ele>
        <time>2021-04-22T10:52:17Z</time>
      </trkpt>
      <trkpt lat="44.81104" lon="5.70631">
        <ele>642.5</ele>
        <time>2021-04-22T10:52:19Z</time>
      </trkpt>
      <trkpt lat="44.81107" lon="5.70636">
        <ele>642.6</ele>
        <time>2021-04-22T10:52:20Z</time>
      </trkpt>
      <trkpt lat="44.81112" lon="5.70644">
        <ele>642.8</ele>
        <time>2021-04-22T10:52:21Z</time>
      </trkpt>
      <trkpt lat="44.81114" lon="5.70647">
        <ele>642.9</ele>
        <time>2021-04-22T10:52:23Z</time>
      </trkpt>
      <trkpt lat="44.81116" lon="5.70652">
        <ele>643</ele>
        <time>2021-04-22T10:52:24Z</time>
      </trkpt>
      <trkpt lat="44.81121" lon="5.70665">
        <ele>643.3</ele>
        <time>2021-04-22T10:52:26Z</time>
      </trkpt>
      <trkpt lat="44.81122" lon="5.70671">
        <ele>643.4</ele>
        <time>2021-04-22T10:52:27Z</time>
      </trkpt>
      <trkpt lat="44.81124" lon="5.70681">
        <ele>643.6</ele>
        <time>2021-04-22T10:52:29Z</time>
      </trkpt>
      <trkpt lat="44.81129" lon="5.70688">
        <ele>643.8</ele>
        <time>2021-04-22T10:52:30Z</time>
      </trkpt>
      <trkpt lat="44.81135" lon="5.70697">
        <ele>644</ele>
        <time>2021-04-22T10:52:32Z</time>
      </trkpt>
      <trkpt lat="44.81138" lon="5.70702">
        <ele>644.2</ele>
        <time>2021-04-22T10:52:33Z</time>
      </trkpt>
      <trkpt lat="44.81142" lon="5.70706">
        <ele>644.3</ele>
        <time>2021-04-22T10:52:34Z</time>
      </trkpt>
      <trkpt lat="44.81144" lon="5.70717">
        <ele>644.6</ele>
        <time>2021-04-22T10:52:35Z</time>
      </trkpt>
      <trkpt lat="44.81146" lon="5.70724">
        <ele>644.7</ele>
        <time>2021-04-22T10:52:37Z</time>
      </trkpt>
      <trkpt lat="44.81148" lon="5.7073">
        <ele>644.8</ele>
        <time>2021-04-22T10:52:38Z</time>
      </trkpt>
      <trkpt lat="44.81149" lon="5.70741">
        <ele>645</ele>
        <time>2021-04-22T10:52:40Z</time>
      </trkpt>
      <trkpt lat="44.8115" lon="5.70748">
        <ele>645.1</ele>
        <time>2021-04-22T10:52:41Z</time>
      </trkpt>
      <trkpt lat="44.81151" lon="5.70758">
        <ele>645.2</ele>
        <time>2021-04-22T10:52:42Z</time>
      </trkpt>
      <trkpt lat="44.81149" lon="5.70765">
        <ele>645.3</ele>
        <time>2021-04-22T10:52:44Z</time>
      </trkpt>
      <trkpt lat="44.81147" lon="5.70771">
        <ele>645.4</ele>
        <time>2021-04-22T10:52:45Z</time>
      </trkpt>
      <trkpt lat="44.81144" lon="5.70782">
        <ele>645.6</ele>
        <time>2021-04-22T10:52:47Z</time>
      </trkpt>
      <trkpt lat="44.81141" lon="5.70791">
        <ele>645.8</ele>
        <time>2021-04-22T10:52:48Z</time>
      </trkpt>
      <trkpt lat="44.81139" lon="5.70801">
        <ele>645.9</ele>
        <time>2021-04-22T10:52:50Z</time>
      </trkpt>
      <trkpt lat="44.81138" lon="5.70813">
        <ele>646.2</ele>
        <time>2021-04-22T10:52:52Z</time>
      </trkpt>
      <trkpt lat="44.81139" lon="5.70824">
        <ele>646.4</ele>
        <time>2021-04-22T10:52:54Z</time>
      </trkpt>
      <trkpt lat="44.81139" lon="5.7083">
        <ele>646.5</ele>
        <time>2021-04-22T10:52:55Z</time>
      </trkpt>
      <trkpt lat="44.81139" lon="5.70836">
        <ele>646.6</ele>
        <time>2021-04-22T10:52:56Z</time>
      </trkpt>
      <trkpt lat="44.8114" lon="5.70841">
        <ele>646.7</ele>
        <time>2021-04-22T10:52:57Z</time>
      </trkpt>
      <trkpt lat="44.81141" lon="5.7085">
        <ele>646.9</ele>
        <time>2021-04-22T10:52:58Z</time>
      </trkpt>
      <trkpt lat="44.81144" lon="5.70861">
        <ele>647.2</ele>
        <time>2021-04-22T10:52:59Z</time>
      </trkpt>
      <trkpt lat="44.81147" lon="5.70868">
        <ele>647.4</ele>
        <time>2021-04-22T10:53:01Z</time>
      </trkpt>
      <trkpt lat="44.81149" lon="5.70871">
        <ele>647.5</ele>
        <time>2021-04-22T10:53:02Z</time>
      </trkpt>
      <trkpt lat="44.81152" lon="5.70874">
        <ele>647.6</ele>
        <time>2021-04-22T10:53:03Z</time>
      </trkpt>
      <trkpt lat="44.81157" lon="5.70878">
        <ele>647.8</ele>
        <time>2021-04-22T10:53:04Z</time>
      </trkpt>
      <trkpt lat="44.81165" lon="5.70882">
        <ele>648.1</ele>
        <time>2021-04-22T10:53:06Z</time>
      </trkpt>
      <trkpt lat="44.81169" lon="5.70883">
        <ele>648.3</ele>
        <time>2021-04-22T10:53:07Z</time>
      </trkpt>
      <trkpt lat="44.81174" lon="5.70884">
        <ele>648.5</ele>
        <time>2021-04-22T10:53:08Z</time>
      </trkpt>
      <trkpt lat="44.81182" lon="5.70888">
        <ele>648.7</ele>
        <time>2021-04-22T10:53:09Z</time>
      </trkpt>
      <trkpt lat="44.81186" lon="5.7089">
        <ele>648.9</ele>
        <time>2021-04-22T10:53:11Z</time>
      </trkpt>
      <trkpt lat="44.81189" lon="5.7089">
        <ele>649</ele>
        <time>2021-04-22T10:53:12Z</time>
      </trkpt>
      <trkpt lat="44.81193" lon="5.70891">
        <ele>649.1</ele>
        <time>2021-04-22T10:53:13Z</time>
      </trkpt>
      <trkpt lat="44.81199" lon="5.70896">
        <ele>649.3</ele>
        <time>2021-04-22T10:53:15Z</time>
      </trkpt>
      <trkpt lat="44.81203" lon="5.70901">
        <ele>649.5</ele>
        <time>2021-04-22T10:53:16Z</time>
      </trkpt>
      <trkpt lat="44.81206" lon="5.70908">
        <ele>649.8</ele>
        <time>2021-04-22T10:53:18Z</time>
      </trkpt>
      <trkpt lat="44.81209" lon="5.70912">
        <ele>650</ele>
        <time>2021-04-22T10:53:19Z</time>
      </trkpt>
      <trkpt lat="44.81212" lon="5.70915">
        <ele>650.1</ele>
        <time>2021-04-22T10:53:20Z</time>
      </trkpt>
      <trkpt lat="44.81212" lon="5.7092">
        <ele>650.3</ele>
        <time>2021-04-22T10:53:22Z</time>
      </trkpt>
      <trkpt lat="44.81212" lon="5.7092">
        <ele>650.3</ele>
        <time>2021-04-22T10:53:23Z</time>
      </trkpt>
      <trkpt lat="44.81212" lon="5.70921">
        <ele>650.4</ele>
        <time>2021-04-22T10:53:24Z</time>
      </trkpt>
      <trkpt lat="44.81212" lon="5.70921">
        <ele>650.4</ele>
        <time>2021-04-22T10:53:25Z</time>
      </trkpt>
      <trkpt lat="44.81212" lon="5.70921">
        <ele>650.4</ele>
        <time>2021-04-22T10:53:26Z</time>
      </trkpt>
      <trkpt lat="44.81212" lon="5.70922">
        <ele>650.4</ele>
        <time>2021-04-22T10:53:27Z</time>
      </trkpt>
      <trkpt lat="44.81212" lon="5.70922">
        <ele>650.4</ele>
        <time>2021-04-22T10:53:28Z</time>
      </trkpt>
      <trkpt lat="44.81212" lon="5.70922">
        <ele>650.4</ele>
        <time>2021-04-22T10:53:29Z</time>
      </trkpt>
      <trkpt lat="44.81212" lon="5.70921">
        <ele>650.4</ele>
        <time>2021-04-22T10:53:30Z</time>
      </trkpt>
      <trkpt lat="44.81212" lon="5.70921">
        <ele>650.4</ele>
        <time>2021-04-22T10:53:31Z</time>
      </trkpt>
      <trkpt lat="44.81212" lon="5.70921">
        <ele>650.4</ele>
        <time>2021-04-22T10:53:32Z</time>
      </trkpt>
      <trkpt lat="44.81211" lon="5.70921">
        <ele>650.5</ele>
        <time>2021-04-22T10:53:33Z</time>
      </trkpt>
      <trkpt lat="44.81211" lon="5.70921">
        <ele>650.5</ele>
        <time>2021-04-22T10:53:34Z</time>
      </trkpt>
      <trkpt lat="44.81211" lon="5.7092">
        <ele>650.5</ele>
        <time>2021-04-22T10:53:35Z</time>
      </trkpt>
      <trkpt lat="44.81211" lon="5.7092">
        <ele>650.5</ele>
        <time>2021-04-22T10:53:36Z</time>
      </trkpt>
      <trkpt lat="44.81211" lon="5.7092">
        <ele>650.5</ele>
        <time>2021-04-22T10:53:37Z</time>
      </trkpt>
      <trkpt lat="44.81211" lon="5.7092">
        <ele>650.5</ele>
        <time>2021-04-22T10:53:38Z</time>
      </trkpt>
      <trkpt lat="44.81211" lon="5.7092">
        <ele>650.5</ele>
        <time>2021-04-22T10:53:39Z</time>
      </trkpt>
      <trkpt lat="44.81211" lon="5.70919">
        <ele>650.5</ele>
        <time>2021-04-22T10:53:40Z</time>
      </trkpt>
      <trkpt lat="44.8121" lon="5.7092">
        <ele>650.6</ele>
        <time>2021-04-22T10:53:41Z</time>
      </trkpt>
      <trkpt lat="44.8121" lon="5.70919">
        <ele>650.6</ele>
        <time>2021-04-22T10:53:42Z</time>
      </trkpt>
      <trkpt lat="44.81211" lon="5.70919">
        <ele>650.6</ele>
        <time>2021-04-22T10:53:43Z</time>
      </trkpt>
      <trkpt lat="44.81211" lon="5.70919">
        <ele>650.6</ele>
        <time>2021-04-22T10:53:44Z</time>
      </trkpt>
      <trkpt lat="44.81211" lon="5.70919">
        <ele>650.6</ele>
        <time>2021-04-22T10:53:45Z</time>
      </trkpt>
      <trkpt lat="44.81211" lon="5.70919">
        <ele>650.6</ele>
        <time>2021-04-22T10:53:46Z</time>
      </trkpt>
      <trkpt lat="44.8121" lon="5.70918">
        <ele>650.7</ele>
        <time>2021-04-22T10:53:48Z</time>
      </trkpt>
      <trkpt lat="44.8121" lon="5.70918">
        <ele>650.7</ele>
        <time>2021-04-22T10:53:49Z</time>
      </trkpt>
      <trkpt lat="44.8121" lon="5.70918">
        <ele>650.7</ele>
        <time>2021-04-22T10:53:51Z</time>
      </trkpt>
      <trkpt lat="44.8121" lon="5.70918">
        <ele>650.7</ele>
        <time>2021-04-22T10:53:52Z</time>
      </trkpt>
      <trkpt lat="44.8121" lon="5.70917">
        <ele>650.7</ele>
        <time>2021-04-22T10:53:53Z</time>
      </trkpt>
      <trkpt lat="44.81209" lon="5.70916">
        <ele>650.8</ele>
        <time>2021-04-22T10:53:54Z</time>
      </trkpt>
      <trkpt lat="44.81209" lon="5.70916">
        <ele>650.8</ele>
        <time>2021-04-22T10:53:55Z</time>
      </trkpt>
      <trkpt lat="44.81209" lon="5.70917">
        <ele>650.8</ele>
        <time>2021-04-22T10:53:56Z</time>
      </trkpt>
      <trkpt lat="44.81209" lon="5.70917">
        <ele>650.8</ele>
        <time>2021-04-22T10:53:58Z</time>
      </trkpt>
      <trkpt lat="44.81209" lon="5.70917">
        <ele>650.8</ele>
        <time>2021-04-22T10:53:59Z</time>
      </trkpt>
      <trkpt lat="44.81208" lon="5.70918">
        <ele>650.9</ele>
        <time>2021-04-22T10:54:00Z</time>
      </trkpt>
      <trkpt lat="44.81208" lon="5.70918">
        <ele>650.9</ele>
        <time>2021-04-22T10:54:01Z</time>
      </trkpt>
      <trkpt lat="44.81207" lon="5.70918">
        <ele>650.9</ele>
        <time>2021-04-22T10:54:02Z</time>
      </trkpt>
      <trkpt lat="44.81207" lon="5.70918">
        <ele>650.9</ele>
        <time>2021-04-22T10:54:03Z</time>
      </trkpt>
      <trkpt lat="44.81207" lon="5.70919">
        <ele>651</ele>
        <time>2021-04-22T10:54:05Z</time>
      </trkpt>
      <trkpt lat="44.81207" lon="5.70919">
        <ele>651</ele>
        <time>2021-04-22T10:54:06Z</time>
      </trkpt>
      <trkpt lat="44.81207" lon="5.70919">
        <ele>651</ele>
        <time>2021-04-22T10:54:07Z</time>
      </trkpt>
      <trkpt lat="44.81207" lon="5.70919">
        <ele>651</ele>
        <time>2021-04-22T10:54:08Z</time>
      </trkpt>
      <trkpt lat="44.81212" lon="5.70928">
        <ele>651.6</ele>
        <time>2021-04-22T10:55:58Z</time>
      </trkpt>
      <trkpt lat="44.81211" lon="5.70929">
        <ele>651.6</ele>
        <time>2021-04-22T10:55:59Z</time>
      </trkpt>
      <trkpt lat="44.81211" lon="5.70929">
        <ele>651.6</ele>
        <time>2021-04-22T10:56:00Z</time>
      </trkpt>
      <trkpt lat="44.81211" lon="5.70929">
        <ele>651.7</ele>
        <time>2021-04-22T10:56:01Z</time>
      </trkpt>
      <trkpt lat="44.81211" lon="5.70929">
        <ele>651.7</ele>
        <time>2021-04-22T10:56:02Z</time>
      </trkpt>
      <trkpt lat="44.81211" lon="5.70929">
        <ele>651.7</ele>
        <time>2021-04-22T10:56:03Z</time>
      </trkpt>
      <trkpt lat="44.81211" lon="5.70929">
        <ele>651.7</ele>
        <time>2021-04-22T10:56:04Z</time>
      </trkpt>
      <trkpt lat="44.81211" lon="5.70929">
        <ele>651.7</ele>
        <time>2021-04-22T10:56:05Z</time>
      </trkpt>
      <trkpt lat="44.81211" lon="5.70929">
        <ele>651.7</ele>
        <time>2021-04-22T10:56:06Z</time>
      </trkpt>
      <trkpt lat="44.81211" lon="5.70929">
        <ele>651.7</ele>
        <time>2021-04-22T10:56:07Z</time>
      </trkpt>
      <trkpt lat="44.81211" lon="5.70929">
        <ele>651.7</ele>
        <time>2021-04-22T10:56:08Z</time>
      </trkpt>
      <trkpt lat="44.81211" lon="5.70928">
        <ele>651.7</ele>
        <time>2021-04-22T10:56:09Z</time>
      </trkpt>
      <trkpt lat="44.81211" lon="5.70928">
        <ele>651.7</ele>
        <time>2021-04-22T10:56:10Z</time>
      </trkpt>
      <trkpt lat="44.81213" lon="5.70932">
        <ele>652</ele>
        <time>2021-04-22T10:56:41Z</time>
      </trkpt>
      <trkpt lat="44.81213" lon="5.70934">
        <ele>652.1</ele>
        <time>2021-04-22T10:56:42Z</time>
      </trkpt>
      <trkpt lat="44.81214" lon="5.70935">
        <ele>652.2</ele>
        <time>2021-04-22T10:56:43Z</time>
      </trkpt>
      <trkpt lat="44.81214" lon="5.70938">
        <ele>652.3</ele>
        <time>2021-04-22T10:56:44Z</time>
      </trkpt>
      <trkpt lat="44.81215" lon="5.7094">
        <ele>652.5</ele>
        <time>2021-04-22T10:56:45Z</time>
      </trkpt>
      <trkpt lat="44.81215" lon="5.70941">
        <ele>652.6</ele>
        <time>2021-04-22T10:56:46Z</time>
      </trkpt>
      <trkpt lat="44.81215" lon="5.70944">
        <ele>652.7</ele>
        <time>2021-04-22T10:56:47Z</time>
      </trkpt>
      <trkpt lat="44.81215" lon="5.70947">
        <ele>652.9</ele>
        <time>2021-04-22T10:56:48Z</time>
      </trkpt>
      <trkpt lat="44.81215" lon="5.70949">
        <ele>653</ele>
        <time>2021-04-22T10:56:49Z</time>
      </trkpt>
      <trkpt lat="44.81215" lon="5.70953">
        <ele>653.3</ele>
        <time>2021-04-22T10:56:50Z</time>
      </trkpt>
      <trkpt lat="44.81215" lon="5.70955">
        <ele>653.4</ele>
        <time>2021-04-22T10:56:51Z</time>
      </trkpt>
      <trkpt lat="44.81215" lon="5.70959">
        <ele>653.6</ele>
        <time>2021-04-22T10:56:52Z</time>
      </trkpt>
      <trkpt lat="44.81216" lon="5.70961">
        <ele>653.7</ele>
        <time>2021-04-22T10:56:53Z</time>
      </trkpt>
      <trkpt lat="44.81216" lon="5.70966">
        <ele>654</ele>
        <time>2021-04-22T10:56:54Z</time>
      </trkpt>
      <trkpt lat="44.81216" lon="5.70968">
        <ele>654.1</ele>
        <time>2021-04-22T10:56:55Z</time>
      </trkpt>
      <trkpt lat="44.81216" lon="5.70972">
        <ele>654.4</ele>
        <time>2021-04-22T10:56:56Z</time>
      </trkpt>
      <trkpt lat="44.81217" lon="5.70978">
        <ele>654.8</ele>
        <time>2021-04-22T10:56:57Z</time>
      </trkpt>
      <trkpt lat="44.81217" lon="5.70982">
        <ele>655</ele>
        <time>2021-04-22T10:56:59Z</time>
      </trkpt>
      <trkpt lat="44.81217" lon="5.70987">
        <ele>655.3</ele>
        <time>2021-04-22T10:57:00Z</time>
      </trkpt>
      <trkpt lat="44.81218" lon="5.7099">
        <ele>655.5</ele>
        <time>2021-04-22T10:57:01Z</time>
      </trkpt>
      <trkpt lat="44.81218" lon="5.70995">
        <ele>655.8</ele>
        <time>2021-04-22T10:57:03Z</time>
      </trkpt>
      <trkpt lat="44.8122" lon="5.70999">
        <ele>656.1</ele>
        <time>2021-04-22T10:57:04Z</time>
      </trkpt>
      <trkpt lat="44.8122" lon="5.71001">
        <ele>656.2</ele>
        <time>2021-04-22T10:57:05Z</time>
      </trkpt>
      <trkpt lat="44.81222" lon="5.71008">
        <ele>656.6</ele>
        <time>2021-04-22T10:57:07Z</time>
      </trkpt>
      <trkpt lat="44.81223" lon="5.71012">
        <ele>656.9</ele>
        <time>2021-04-22T10:57:08Z</time>
      </trkpt>
      <trkpt lat="44.81223" lon="5.71014">
        <ele>657</ele>
        <time>2021-04-22T10:57:09Z</time>
      </trkpt>
      <trkpt lat="44.81224" lon="5.71018">
        <ele>657.2</ele>
        <time>2021-04-22T10:57:10Z</time>
      </trkpt>
      <trkpt lat="44.81224" lon="5.7102">
        <ele>657.3</ele>
        <time>2021-04-22T10:57:11Z</time>
      </trkpt>
      <trkpt lat="44.81225" lon="5.71025">
        <ele>657.6</ele>
        <time>2021-04-22T10:57:12Z</time>
      </trkpt>
      <trkpt lat="44.81227" lon="5.71033">
        <ele>658</ele>
        <time>2021-04-22T10:57:14Z</time>
      </trkpt>
      <trkpt lat="44.81229" lon="5.71039">
        <ele>658.3</ele>
        <time>2021-04-22T10:57:15Z</time>
      </trkpt>
      <trkpt lat="44.8123" lon="5.71044">
        <ele>658.5</ele>
        <time>2021-04-22T10:57:17Z</time>
      </trkpt>
      <trkpt lat="44.81232" lon="5.71049">
        <ele>658.9</ele>
        <time>2021-04-22T10:57:18Z</time>
      </trkpt>
      <trkpt lat="44.81232" lon="5.7105">
        <ele>659</ele>
        <time>2021-04-22T10:57:19Z</time>
      </trkpt>
      <trkpt lat="44.81233" lon="5.71056">
        <ele>659.4</ele>
        <time>2021-04-22T10:57:21Z</time>
      </trkpt>
      <trkpt lat="44.81235" lon="5.71063">
        <ele>659.8</ele>
        <time>2021-04-22T10:57:22Z</time>
      </trkpt>
      <trkpt lat="44.81235" lon="5.71067">
        <ele>660</ele>
        <time>2021-04-22T10:57:23Z</time>
      </trkpt>
      <trkpt lat="44.81236" lon="5.71072">
        <ele>660.3</ele>
        <time>2021-04-22T10:57:25Z</time>
      </trkpt>
      <trkpt lat="44.81237" lon="5.7108">
        <ele>660.7</ele>
        <time>2021-04-22T10:57:27Z</time>
      </trkpt>
      <trkpt lat="44.81237" lon="5.71085">
        <ele>661</ele>
        <time>2021-04-22T10:57:28Z</time>
      </trkpt>
      <trkpt lat="44.81237" lon="5.71091">
        <ele>661.2</ele>
        <time>2021-04-22T10:57:30Z</time>
      </trkpt>
      <trkpt lat="44.81238" lon="5.71097">
        <ele>661.4</ele>
        <time>2021-04-22T10:57:31Z</time>
      </trkpt>
      <trkpt lat="44.81238" lon="5.711">
        <ele>661.5</ele>
        <time>2021-04-22T10:57:32Z</time>
      </trkpt>
      <trkpt lat="44.81238" lon="5.71108">
        <ele>661.7</ele>
        <time>2021-04-22T10:57:33Z</time>
      </trkpt>
      <trkpt lat="44.81237" lon="5.71112">
        <ele>661.8</ele>
        <time>2021-04-22T10:57:35Z</time>
      </trkpt>
      <trkpt lat="44.81235" lon="5.71117">
        <ele>661.9</ele>
        <time>2021-04-22T10:57:36Z</time>
      </trkpt>
      <trkpt lat="44.81231" lon="5.71124">
        <ele>662</ele>
        <time>2021-04-22T10:57:38Z</time>
      </trkpt>
      <trkpt lat="44.8123" lon="5.71128">
        <ele>662</ele>
        <time>2021-04-22T10:57:39Z</time>
      </trkpt>
      <trkpt lat="44.81228" lon="5.71132">
        <ele>662.1</ele>
        <time>2021-04-22T10:57:40Z</time>
      </trkpt>
      <trkpt lat="44.81227" lon="5.71137">
        <ele>662.1</ele>
        <time>2021-04-22T10:57:41Z</time>
      </trkpt>
      <trkpt lat="44.81225" lon="5.71144">
        <ele>662.2</ele>
        <time>2021-04-22T10:57:42Z</time>
      </trkpt>
      <trkpt lat="44.81224" lon="5.71151">
        <ele>662.2</ele>
        <time>2021-04-22T10:57:43Z</time>
      </trkpt>
      <trkpt lat="44.81223" lon="5.71161">
        <ele>662.2</ele>
        <time>2021-04-22T10:57:45Z</time>
      </trkpt>
      <trkpt lat="44.81221" lon="5.71167">
        <ele>662.2</ele>
        <time>2021-04-22T10:57:46Z</time>
      </trkpt>
      <trkpt lat="44.8122" lon="5.71176">
        <ele>662.2</ele>
        <time>2021-04-22T10:57:47Z</time>
      </trkpt>
      <trkpt lat="44.8122" lon="5.71185">
        <ele>662.1</ele>
        <time>2021-04-22T10:57:49Z</time>
      </trkpt>
      <trkpt lat="44.8122" lon="5.712">
        <ele>662.1</ele>
        <time>2021-04-22T10:57:51Z</time>
      </trkpt>
      <trkpt lat="44.81219" lon="5.71208">
        <ele>662.1</ele>
        <time>2021-04-22T10:57:52Z</time>
      </trkpt>
      <trkpt lat="44.81221" lon="5.71218">
        <ele>662.2</ele>
        <time>2021-04-22T10:57:53Z</time>
      </trkpt>
      <trkpt lat="44.8122" lon="5.71227">
        <ele>662.2</ele>
        <time>2021-04-22T10:57:55Z</time>
      </trkpt>
      <trkpt lat="44.81219" lon="5.71233">
        <ele>662.3</ele>
        <time>2021-04-22T10:57:56Z</time>
      </trkpt>
      <trkpt lat="44.81215" lon="5.71237">
        <ele>662.3</ele>
        <time>2021-04-22T10:57:57Z</time>
      </trkpt>
      <trkpt lat="44.81217" lon="5.71246">
        <ele>662.5</ele>
        <time>2021-04-22T10:57:58Z</time>
      </trkpt>
      <trkpt lat="44.81221" lon="5.71258">
        <ele>662.7</ele>
        <time>2021-04-22T10:58:00Z</time>
      </trkpt>
      <trkpt lat="44.81222" lon="5.71267">
        <ele>662.9</ele>
        <time>2021-04-22T10:58:02Z</time>
      </trkpt>
      <trkpt lat="44.81225" lon="5.71273">
        <ele>663</ele>
        <time>2021-04-22T10:58:04Z</time>
      </trkpt>
      <trkpt lat="44.81226" lon="5.71277">
        <ele>663.1</ele>
        <time>2021-04-22T10:58:05Z</time>
      </trkpt>
      <trkpt lat="44.81227" lon="5.71281">
        <ele>663.2</ele>
        <time>2021-04-22T10:58:06Z</time>
      </trkpt>
      <trkpt lat="44.81228" lon="5.71286">
        <ele>663.3</ele>
        <time>2021-04-22T10:58:07Z</time>
      </trkpt>
      <trkpt lat="44.81228" lon="5.71294">
        <ele>663.5</ele>
        <time>2021-04-22T10:58:09Z</time>
      </trkpt>
      <trkpt lat="44.81227" lon="5.71302">
        <ele>663.7</ele>
        <time>2021-04-22T10:58:11Z</time>
      </trkpt>
      <trkpt lat="44.81224" lon="5.71307">
        <ele>663.8</ele>
        <time>2021-04-22T10:58:13Z</time>
      </trkpt>
      <trkpt lat="44.81224" lon="5.7131">
        <ele>663.9</ele>
        <time>2021-04-22T10:58:14Z</time>
      </trkpt>
      <trkpt lat="44.81224" lon="5.7131">
        <ele>663.9</ele>
        <time>2021-04-22T10:58:15Z</time>
      </trkpt>
      <trkpt lat="44.81225" lon="5.71308">
        <ele>663.9</ele>
        <time>2021-04-22T10:58:16Z</time>
      </trkpt>
      <trkpt lat="44.81225" lon="5.71308">
        <ele>664</ele>
        <time>2021-04-22T10:58:17Z</time>
      </trkpt>
      <trkpt lat="44.81226" lon="5.71307">
        <ele>664</ele>
        <time>2021-04-22T10:58:18Z</time>
      </trkpt>
      <trkpt lat="44.81226" lon="5.71307">
        <ele>664</ele>
        <time>2021-04-22T10:58:19Z</time>
      </trkpt>
      <trkpt lat="44.81226" lon="5.71307">
        <ele>664</ele>
        <time>2021-04-22T10:58:20Z</time>
      </trkpt>
      <trkpt lat="44.81226" lon="5.71307">
        <ele>664</ele>
        <time>2021-04-22T10:58:21Z</time>
      </trkpt>
      <trkpt lat="44.81226" lon="5.71307">
        <ele>664</ele>
        <time>2021-04-22T10:58:22Z</time>
      </trkpt>
      <trkpt lat="44.81226" lon="5.71307">
        <ele>664</ele>
        <time>2021-04-22T10:58:23Z</time>
      </trkpt>
      <trkpt lat="44.81226" lon="5.71307">
        <ele>664</ele>
        <time>2021-04-22T10:58:24Z</time>
      </trkpt>
      <trkpt lat="44.81225" lon="5.71312">
        <ele>664.2</ele>
        <time>2021-04-22T10:59:03Z</time>
      </trkpt>
      <trkpt lat="44.81224" lon="5.71316">
        <ele>664.2</ele>
        <time>2021-04-22T10:59:04Z</time>
      </trkpt>
      <trkpt lat="44.81223" lon="5.71322">
        <ele>664.3</ele>
        <time>2021-04-22T10:59:05Z</time>
      </trkpt>
      <trkpt lat="44.81221" lon="5.71332">
        <ele>664.6</ele>
        <time>2021-04-22T10:59:07Z</time>
      </trkpt>
      <trkpt lat="44.81219" lon="5.71344">
        <ele>664.8</ele>
        <time>2021-04-22T10:59:09Z</time>
      </trkpt>
      <trkpt lat="44.8122" lon="5.71353">
        <ele>664.9</ele>
        <time>2021-04-22T10:59:10Z</time>
      </trkpt>
      <trkpt lat="44.81221" lon="5.71366">
        <ele>665.1</ele>
        <time>2021-04-22T10:59:12Z</time>
      </trkpt>
      <trkpt lat="44.81221" lon="5.71374">
        <ele>665.3</ele>
        <time>2021-04-22T10:59:13Z</time>
      </trkpt>
      <trkpt lat="44.81223" lon="5.71386">
        <ele>665.4</ele>
        <time>2021-04-22T10:59:15Z</time>
      </trkpt>
      <trkpt lat="44.81224" lon="5.71397">
        <ele>665.6</ele>
        <time>2021-04-22T10:59:17Z</time>
      </trkpt>
      <trkpt lat="44.81225" lon="5.71404">
        <ele>665.7</ele>
        <time>2021-04-22T10:59:18Z</time>
      </trkpt>
      <trkpt lat="44.81226" lon="5.71415">
        <ele>665.9</ele>
        <time>2021-04-22T10:59:20Z</time>
      </trkpt>
      <trkpt lat="44.81227" lon="5.71422">
        <ele>666</ele>
        <time>2021-04-22T10:59:21Z</time>
      </trkpt>
      <trkpt lat="44.8123" lon="5.71434">
        <ele>666.2</ele>
        <time>2021-04-22T10:59:23Z</time>
      </trkpt>
      <trkpt lat="44.81232" lon="5.7144">
        <ele>666.4</ele>
        <time>2021-04-22T10:59:24Z</time>
      </trkpt>
      <trkpt lat="44.81234" lon="5.71453">
        <ele>666.6</ele>
        <time>2021-04-22T10:59:26Z</time>
      </trkpt>
      <trkpt lat="44.81236" lon="5.71464">
        <ele>666.9</ele>
        <time>2021-04-22T10:59:28Z</time>
      </trkpt>
      <trkpt lat="44.81237" lon="5.7147">
        <ele>667</ele>
        <time>2021-04-22T10:59:29Z</time>
      </trkpt>
      <trkpt lat="44.8124" lon="5.7148">
        <ele>667.2</ele>
        <time>2021-04-22T10:59:31Z</time>
      </trkpt>
      <trkpt lat="44.81241" lon="5.71485">
        <ele>667.3</ele>
        <time>2021-04-22T10:59:32Z</time>
      </trkpt>
      <trkpt lat="44.81244" lon="5.71492">
        <ele>667.4</ele>
        <time>2021-04-22T10:59:33Z</time>
      </trkpt>
      <trkpt lat="44.81249" lon="5.71502">
        <ele>667.6</ele>
        <time>2021-04-22T10:59:35Z</time>
      </trkpt>
      <trkpt lat="44.81252" lon="5.7151">
        <ele>667.7</ele>
        <time>2021-04-22T10:59:36Z</time>
      </trkpt>
      <trkpt lat="44.81255" lon="5.71518">
        <ele>667.8</ele>
        <time>2021-04-22T10:59:38Z</time>
      </trkpt>
      <trkpt lat="44.81256" lon="5.71524">
        <ele>667.9</ele>
        <time>2021-04-22T10:59:39Z</time>
      </trkpt>
      <trkpt lat="44.81261" lon="5.71534">
        <ele>668.1</ele>
        <time>2021-04-22T10:59:41Z</time>
      </trkpt>
      <trkpt lat="44.81262" lon="5.71538">
        <ele>668.1</ele>
        <time>2021-04-22T10:59:42Z</time>
      </trkpt>
      <trkpt lat="44.81263" lon="5.71544">
        <ele>668.2</ele>
        <time>2021-04-22T10:59:43Z</time>
      </trkpt>
      <trkpt lat="44.81265" lon="5.7155">
        <ele>668.3</ele>
        <time>2021-04-22T10:59:44Z</time>
      </trkpt>
      <trkpt lat="44.81268" lon="5.71556">
        <ele>668.4</ele>
        <time>2021-04-22T10:59:45Z</time>
      </trkpt>
      <trkpt lat="44.8127" lon="5.71562">
        <ele>668.5</ele>
        <time>2021-04-22T10:59:46Z</time>
      </trkpt>
      <trkpt lat="44.81272" lon="5.71567">
        <ele>668.5</ele>
        <time>2021-04-22T10:59:47Z</time>
      </trkpt>
      <trkpt lat="44.81274" lon="5.71572">
        <ele>668.6</ele>
        <time>2021-04-22T10:59:48Z</time>
      </trkpt>
      <trkpt lat="44.81276" lon="5.71577">
        <ele>668.7</ele>
        <time>2021-04-22T10:59:49Z</time>
      </trkpt>
      <trkpt lat="44.81278" lon="5.71583">
        <ele>668.8</ele>
        <time>2021-04-22T10:59:50Z</time>
      </trkpt>
      <trkpt lat="44.81282" lon="5.71589">
        <ele>668.9</ele>
        <time>2021-04-22T10:59:51Z</time>
      </trkpt>
      <trkpt lat="44.81285" lon="5.71594">
        <ele>669</ele>
        <time>2021-04-22T10:59:52Z</time>
      </trkpt>
      <trkpt lat="44.81288" lon="5.71599">
        <ele>669.1</ele>
        <time>2021-04-22T10:59:53Z</time>
      </trkpt>
      <trkpt lat="44.8129" lon="5.71605">
        <ele>669.2</ele>
        <time>2021-04-22T10:59:54Z</time>
      </trkpt>
      <trkpt lat="44.81292" lon="5.7161">
        <ele>669.2</ele>
        <time>2021-04-22T10:59:55Z</time>
      </trkpt>
      <trkpt lat="44.81294" lon="5.71616">
        <ele>669.3</ele>
        <time>2021-04-22T10:59:56Z</time>
      </trkpt>
      <trkpt lat="44.81296" lon="5.71621">
        <ele>669.4</ele>
        <time>2021-04-22T10:59:57Z</time>
      </trkpt>
      <trkpt lat="44.81298" lon="5.71627">
        <ele>669.5</ele>
        <time>2021-04-22T10:59:58Z</time>
      </trkpt>
      <trkpt lat="44.813" lon="5.71634">
        <ele>669.6</ele>
        <time>2021-04-22T10:59:59Z</time>
      </trkpt>
      <trkpt lat="44.81302" lon="5.7164">
        <ele>669.7</ele>
        <time>2021-04-22T11:00:00Z</time>
      </trkpt>
      <trkpt lat="44.81304" lon="5.71647">
        <ele>669.8</ele>
        <time>2021-04-22T11:00:01Z</time>
      </trkpt>
      <trkpt lat="44.81306" lon="5.71653">
        <ele>669.9</ele>
        <time>2021-04-22T11:00:02Z</time>
      </trkpt>
      <trkpt lat="44.81307" lon="5.71658">
        <ele>669.9</ele>
        <time>2021-04-22T11:00:03Z</time>
      </trkpt>
      <trkpt lat="44.81309" lon="5.71662">
        <ele>670</ele>
        <time>2021-04-22T11:00:04Z</time>
      </trkpt>
      <trkpt lat="44.81311" lon="5.71668">
        <ele>670.1</ele>
        <time>2021-04-22T11:00:05Z</time>
      </trkpt>
      <trkpt lat="44.81313" lon="5.71673">
        <ele>670.2</ele>
        <time>2021-04-22T11:00:06Z</time>
      </trkpt>
      <trkpt lat="44.81316" lon="5.7168">
        <ele>670.3</ele>
        <time>2021-04-22T11:00:07Z</time>
      </trkpt>
      <trkpt lat="44.81319" lon="5.71687">
        <ele>670.4</ele>
        <time>2021-04-22T11:00:08Z</time>
      </trkpt>
      <trkpt lat="44.81322" lon="5.71693">
        <ele>670.5</ele>
        <time>2021-04-22T11:00:09Z</time>
      </trkpt>
      <trkpt lat="44.81323" lon="5.71697">
        <ele>670.6</ele>
        <time>2021-04-22T11:00:10Z</time>
      </trkpt>
      <trkpt lat="44.81326" lon="5.71702">
        <ele>670.7</ele>
        <time>2021-04-22T11:00:11Z</time>
      </trkpt>
      <trkpt lat="44.81328" lon="5.71707">
        <ele>670.8</ele>
        <time>2021-04-22T11:00:12Z</time>
      </trkpt>
      <trkpt lat="44.81329" lon="5.71713">
        <ele>670.9</ele>
        <time>2021-04-22T11:00:13Z</time>
      </trkpt>
      <trkpt lat="44.81331" lon="5.71718">
        <ele>671</ele>
        <time>2021-04-22T11:00:14Z</time>
      </trkpt>
      <trkpt lat="44.81334" lon="5.71723">
        <ele>671</ele>
        <time>2021-04-22T11:00:15Z</time>
      </trkpt>
      <trkpt lat="44.81337" lon="5.71728">
        <ele>671.1</ele>
        <time>2021-04-22T11:00:16Z</time>
      </trkpt>
      <trkpt lat="44.8134" lon="5.71733">
        <ele>671.2</ele>
        <time>2021-04-22T11:00:17Z</time>
      </trkpt>
      <trkpt lat="44.81343" lon="5.71738">
        <ele>671.3</ele>
        <time>2021-04-22T11:00:18Z</time>
      </trkpt>
      <trkpt lat="44.81346" lon="5.71743">
        <ele>671.3</ele>
        <time>2021-04-22T11:00:19Z</time>
      </trkpt>
      <trkpt lat="44.81349" lon="5.71747">
        <ele>671.4</ele>
        <time>2021-04-22T11:00:20Z</time>
      </trkpt>
      <trkpt lat="44.81351" lon="5.71752">
        <ele>671.5</ele>
        <time>2021-04-22T11:00:21Z</time>
      </trkpt>
      <trkpt lat="44.81354" lon="5.71757">
        <ele>671.6</ele>
        <time>2021-04-22T11:00:22Z</time>
      </trkpt>
      <trkpt lat="44.81357" lon="5.71761">
        <ele>671.7</ele>
        <time>2021-04-22T11:00:23Z</time>
      </trkpt>
      <trkpt lat="44.8136" lon="5.71765">
        <ele>671.8</ele>
        <time>2021-04-22T11:00:24Z</time>
      </trkpt>
      <trkpt lat="44.81363" lon="5.71769">
        <ele>671.9</ele>
        <time>2021-04-22T11:00:25Z</time>
      </trkpt>
      <trkpt lat="44.81367" lon="5.71773">
        <ele>672</ele>
        <time>2021-04-22T11:00:26Z</time>
      </trkpt>
      <trkpt lat="44.8137" lon="5.71778">
        <ele>672.2</ele>
        <time>2021-04-22T11:00:27Z</time>
      </trkpt>
      <trkpt lat="44.81373" lon="5.71781">
        <ele>672.3</ele>
        <time>2021-04-22T11:00:28Z</time>
      </trkpt>
      <trkpt lat="44.81377" lon="5.71784">
        <ele>672.4</ele>
        <time>2021-04-22T11:00:29Z</time>
      </trkpt>
      <trkpt lat="44.8138" lon="5.71789">
        <ele>672.4</ele>
        <time>2021-04-22T11:00:30Z</time>
      </trkpt>
      <trkpt lat="44.81383" lon="5.71792">
        <ele>672.5</ele>
        <time>2021-04-22T11:00:31Z</time>
      </trkpt>
      <trkpt lat="44.81387" lon="5.71796">
        <ele>672.6</ele>
        <time>2021-04-22T11:00:32Z</time>
      </trkpt>
      <trkpt lat="44.8139" lon="5.718">
        <ele>672.6</ele>
        <time>2021-04-22T11:00:33Z</time>
      </trkpt>
      <trkpt lat="44.81393" lon="5.71805">
        <ele>672.7</ele>
        <time>2021-04-22T11:00:34Z</time>
      </trkpt>
      <trkpt lat="44.81396" lon="5.71809">
        <ele>672.7</ele>
        <time>2021-04-22T11:00:35Z</time>
      </trkpt>
      <trkpt lat="44.81399" lon="5.71815">
        <ele>672.8</ele>
        <time>2021-04-22T11:00:36Z</time>
      </trkpt>
      <trkpt lat="44.81403" lon="5.7182">
        <ele>672.9</ele>
        <time>2021-04-22T11:00:37Z</time>
      </trkpt>
      <trkpt lat="44.81406" lon="5.71826">
        <ele>673</ele>
        <time>2021-04-22T11:00:38Z</time>
      </trkpt>
      <trkpt lat="44.81408" lon="5.71832">
        <ele>673.1</ele>
        <time>2021-04-22T11:00:39Z</time>
      </trkpt>
      <trkpt lat="44.8141" lon="5.71838">
        <ele>673.1</ele>
        <time>2021-04-22T11:00:40Z</time>
      </trkpt>
      <trkpt lat="44.81413" lon="5.71843">
        <ele>673.2</ele>
        <time>2021-04-22T11:00:41Z</time>
      </trkpt>
      <trkpt lat="44.81416" lon="5.71848">
        <ele>673.3</ele>
        <time>2021-04-22T11:00:42Z</time>
      </trkpt>
      <trkpt lat="44.81419" lon="5.71852">
        <ele>673.4</ele>
        <time>2021-04-22T11:00:43Z</time>
      </trkpt>
      <trkpt lat="44.81422" lon="5.71858">
        <ele>673.5</ele>
        <time>2021-04-22T11:00:44Z</time>
      </trkpt>
      <trkpt lat="44.81423" lon="5.71864">
        <ele>673.6</ele>
        <time>2021-04-22T11:00:45Z</time>
      </trkpt>
      <trkpt lat="44.81425" lon="5.7187">
        <ele>673.7</ele>
        <time>2021-04-22T11:00:46Z</time>
      </trkpt>
      <trkpt lat="44.81426" lon="5.71877">
        <ele>673.8</ele>
        <time>2021-04-22T11:00:47Z</time>
      </trkpt>
      <trkpt lat="44.81429" lon="5.71883">
        <ele>673.9</ele>
        <time>2021-04-22T11:00:48Z</time>
      </trkpt>
      <trkpt lat="44.8143" lon="5.71888">
        <ele>674</ele>
        <time>2021-04-22T11:00:49Z</time>
      </trkpt>
      <trkpt lat="44.81432" lon="5.71894">
        <ele>674.1</ele>
        <time>2021-04-22T11:00:50Z</time>
      </trkpt>
      <trkpt lat="44.81435" lon="5.719">
        <ele>674.2</ele>
        <time>2021-04-22T11:00:51Z</time>
      </trkpt>
      <trkpt lat="44.81435" lon="5.71905">
        <ele>674.2</ele>
        <time>2021-04-22T11:00:52Z</time>
      </trkpt>
      <trkpt lat="44.81436" lon="5.71912">
        <ele>674.3</ele>
        <time>2021-04-22T11:00:53Z</time>
      </trkpt>
      <trkpt lat="44.81437" lon="5.71917">
        <ele>674.4</ele>
        <time>2021-04-22T11:00:54Z</time>
      </trkpt>
      <trkpt lat="44.81437" lon="5.71923">
        <ele>674.5</ele>
        <time>2021-04-22T11:00:55Z</time>
      </trkpt>
      <trkpt lat="44.81438" lon="5.71929">
        <ele>674.5</ele>
        <time>2021-04-22T11:00:56Z</time>
      </trkpt>
      <trkpt lat="44.8144" lon="5.71935">
        <ele>674.6</ele>
        <time>2021-04-22T11:00:57Z</time>
      </trkpt>
      <trkpt lat="44.81443" lon="5.71942">
        <ele>674.7</ele>
        <time>2021-04-22T11:00:58Z</time>
      </trkpt>
      <trkpt lat="44.81446" lon="5.71949">
        <ele>674.8</ele>
        <time>2021-04-22T11:00:59Z</time>
      </trkpt>
      <trkpt lat="44.81448" lon="5.71956">
        <ele>674.9</ele>
        <time>2021-04-22T11:01:00Z</time>
      </trkpt>
      <trkpt lat="44.8145" lon="5.71963">
        <ele>675</ele>
        <time>2021-04-22T11:01:01Z</time>
      </trkpt>
      <trkpt lat="44.81452" lon="5.71969">
        <ele>675.1</ele>
        <time>2021-04-22T11:01:02Z</time>
      </trkpt>
      <trkpt lat="44.81455" lon="5.71975">
        <ele>675.2</ele>
        <time>2021-04-22T11:01:03Z</time>
      </trkpt>
      <trkpt lat="44.81457" lon="5.71981">
        <ele>675.3</ele>
        <time>2021-04-22T11:01:04Z</time>
      </trkpt>
      <trkpt lat="44.81459" lon="5.71987">
        <ele>675.4</ele>
        <time>2021-04-22T11:01:05Z</time>
      </trkpt>
      <trkpt lat="44.8146" lon="5.71994">
        <ele>675.5</ele>
        <time>2021-04-22T11:01:06Z</time>
      </trkpt>
      <trkpt lat="44.81461" lon="5.72001">
        <ele>675.6</ele>
        <time>2021-04-22T11:01:07Z</time>
      </trkpt>
      <trkpt lat="44.81463" lon="5.72007">
        <ele>675.8</ele>
        <time>2021-04-22T11:01:08Z</time>
      </trkpt>
      <trkpt lat="44.81464" lon="5.72014">
        <ele>675.9</ele>
        <time>2021-04-22T11:01:09Z</time>
      </trkpt>
      <trkpt lat="44.81464" lon="5.72021">
        <ele>676</ele>
        <time>2021-04-22T11:01:10Z</time>
      </trkpt>
      <trkpt lat="44.81465" lon="5.72027">
        <ele>676.1</ele>
        <time>2021-04-22T11:01:11Z</time>
      </trkpt>
      <trkpt lat="44.81465" lon="5.72034">
        <ele>676.2</ele>
        <time>2021-04-22T11:01:12Z</time>
      </trkpt>
      <trkpt lat="44.81465" lon="5.72041">
        <ele>676.3</ele>
        <time>2021-04-22T11:01:13Z</time>
      </trkpt>
      <trkpt lat="44.81465" lon="5.72048">
        <ele>676.3</ele>
        <time>2021-04-22T11:01:14Z</time>
      </trkpt>
      <trkpt lat="44.81464" lon="5.72055">
        <ele>676.5</ele>
        <time>2021-04-22T11:01:15Z</time>
      </trkpt>
      <trkpt lat="44.81464" lon="5.72062">
        <ele>676.5</ele>
        <time>2021-04-22T11:01:16Z</time>
      </trkpt>
      <trkpt lat="44.81464" lon="5.72068">
        <ele>676.6</ele>
        <time>2021-04-22T11:01:17Z</time>
      </trkpt>
      <trkpt lat="44.81464" lon="5.72075">
        <ele>676.7</ele>
        <time>2021-04-22T11:01:18Z</time>
      </trkpt>
      <trkpt lat="44.81463" lon="5.72081">
        <ele>676.8</ele>
        <time>2021-04-22T11:01:19Z</time>
      </trkpt>
      <trkpt lat="44.81462" lon="5.72087">
        <ele>676.9</ele>
        <time>2021-04-22T11:01:20Z</time>
      </trkpt>
      <trkpt lat="44.81462" lon="5.72093">
        <ele>677</ele>
        <time>2021-04-22T11:01:21Z</time>
      </trkpt>
      <trkpt lat="44.81461" lon="5.72098">
        <ele>677.1</ele>
        <time>2021-04-22T11:01:22Z</time>
      </trkpt>
      <trkpt lat="44.8146" lon="5.72104">
        <ele>677.2</ele>
        <time>2021-04-22T11:01:23Z</time>
      </trkpt>
      <trkpt lat="44.81459" lon="5.72111">
        <ele>677.3</ele>
        <time>2021-04-22T11:01:24Z</time>
      </trkpt>
      <trkpt lat="44.81457" lon="5.72118">
        <ele>677.3</ele>
        <time>2021-04-22T11:01:25Z</time>
      </trkpt>
      <trkpt lat="44.81456" lon="5.72124">
        <ele>677.5</ele>
        <time>2021-04-22T11:01:26Z</time>
      </trkpt>
      <trkpt lat="44.81454" lon="5.72131">
        <ele>677.6</ele>
        <time>2021-04-22T11:01:27Z</time>
      </trkpt>
      <trkpt lat="44.81453" lon="5.72138">
        <ele>677.7</ele>
        <time>2021-04-22T11:01:28Z</time>
      </trkpt>
      <trkpt lat="44.81452" lon="5.72144">
        <ele>677.8</ele>
        <time>2021-04-22T11:01:29Z</time>
      </trkpt>
      <trkpt lat="44.81451" lon="5.72151">
        <ele>677.9</ele>
        <time>2021-04-22T11:01:30Z</time>
      </trkpt>
      <trkpt lat="44.8145" lon="5.72157">
        <ele>678</ele>
        <time>2021-04-22T11:01:31Z</time>
      </trkpt>
      <trkpt lat="44.81449" lon="5.72163">
        <ele>678.1</ele>
        <time>2021-04-22T11:01:32Z</time>
      </trkpt>
      <trkpt lat="44.81448" lon="5.72169">
        <ele>678.2</ele>
        <time>2021-04-22T11:01:33Z</time>
      </trkpt>
      <trkpt lat="44.81447" lon="5.72173">
        <ele>678.3</ele>
        <time>2021-04-22T11:01:34Z</time>
      </trkpt>
      <trkpt lat="44.81447" lon="5.72179">
        <ele>678.4</ele>
        <time>2021-04-22T11:01:35Z</time>
      </trkpt>
      <trkpt lat="44.81447" lon="5.72186">
        <ele>678.5</ele>
        <time>2021-04-22T11:01:36Z</time>
      </trkpt>
      <trkpt lat="44.81447" lon="5.72193">
        <ele>678.6</ele>
        <time>2021-04-22T11:01:37Z</time>
      </trkpt>
      <trkpt lat="44.81447" lon="5.722">
        <ele>678.8</ele>
        <time>2021-04-22T11:01:38Z</time>
      </trkpt>
      <trkpt lat="44.81448" lon="5.72207">
        <ele>678.9</ele>
        <time>2021-04-22T11:01:39Z</time>
      </trkpt>
      <trkpt lat="44.81448" lon="5.72214">
        <ele>679</ele>
        <time>2021-04-22T11:01:40Z</time>
      </trkpt>
      <trkpt lat="44.81449" lon="5.72221">
        <ele>679.1</ele>
        <time>2021-04-22T11:01:41Z</time>
      </trkpt>
      <trkpt lat="44.81451" lon="5.72227">
        <ele>679.2</ele>
        <time>2021-04-22T11:01:42Z</time>
      </trkpt>
      <trkpt lat="44.81452" lon="5.72233">
        <ele>679.3</ele>
        <time>2021-04-22T11:01:43Z</time>
      </trkpt>
      <trkpt lat="44.81454" lon="5.72239">
        <ele>679.5</ele>
        <time>2021-04-22T11:01:44Z</time>
      </trkpt>
      <trkpt lat="44.81455" lon="5.72245">
        <ele>679.6</ele>
        <time>2021-04-22T11:01:45Z</time>
      </trkpt>
      <trkpt lat="44.81456" lon="5.72252">
        <ele>679.7</ele>
        <time>2021-04-22T11:01:46Z</time>
      </trkpt>
      <trkpt lat="44.81457" lon="5.72258">
        <ele>679.8</ele>
        <time>2021-04-22T11:01:47Z</time>
      </trkpt>
      <trkpt lat="44.81458" lon="5.72264">
        <ele>679.9</ele>
        <time>2021-04-22T11:01:48Z</time>
      </trkpt>
      <trkpt lat="44.8146" lon="5.72271">
        <ele>680.1</ele>
        <time>2021-04-22T11:01:49Z</time>
      </trkpt>
      <trkpt lat="44.81461" lon="5.72277">
        <ele>680.2</ele>
        <time>2021-04-22T11:01:50Z</time>
      </trkpt>
      <trkpt lat="44.81462" lon="5.72283">
        <ele>680.3</ele>
        <time>2021-04-22T11:01:51Z</time>
      </trkpt>
      <trkpt lat="44.81463" lon="5.7229">
        <ele>680.5</ele>
        <time>2021-04-22T11:01:52Z</time>
      </trkpt>
      <trkpt lat="44.81465" lon="5.72296">
        <ele>680.6</ele>
        <time>2021-04-22T11:01:53Z</time>
      </trkpt>
      <trkpt lat="44.81466" lon="5.72303">
        <ele>680.7</ele>
        <time>2021-04-22T11:01:54Z</time>
      </trkpt>
      <trkpt lat="44.81468" lon="5.7231">
        <ele>680.9</ele>
        <time>2021-04-22T11:01:55Z</time>
      </trkpt>
      <trkpt lat="44.81469" lon="5.72314">
        <ele>681</ele>
        <time>2021-04-22T11:01:56Z</time>
      </trkpt>
      <trkpt lat="44.8147" lon="5.72321">
        <ele>681.1</ele>
        <time>2021-04-22T11:01:57Z</time>
      </trkpt>
      <trkpt lat="44.81472" lon="5.72327">
        <ele>681.3</ele>
        <time>2021-04-22T11:01:58Z</time>
      </trkpt>
      <trkpt lat="44.81474" lon="5.72333">
        <ele>681.4</ele>
        <time>2021-04-22T11:01:59Z</time>
      </trkpt>
      <trkpt lat="44.81476" lon="5.72339">
        <ele>681.5</ele>
        <time>2021-04-22T11:02:00Z</time>
      </trkpt>
      <trkpt lat="44.81477" lon="5.72345">
        <ele>681.7</ele>
        <time>2021-04-22T11:02:01Z</time>
      </trkpt>
      <trkpt lat="44.81478" lon="5.72349">
        <ele>681.7</ele>
        <time>2021-04-22T11:02:02Z</time>
      </trkpt>
      <trkpt lat="44.8148" lon="5.72356">
        <ele>681.9</ele>
        <time>2021-04-22T11:02:03Z</time>
      </trkpt>
      <trkpt lat="44.81482" lon="5.72362">
        <ele>682</ele>
        <time>2021-04-22T11:02:04Z</time>
      </trkpt>
      <trkpt lat="44.81483" lon="5.72369">
        <ele>682.2</ele>
        <time>2021-04-22T11:02:05Z</time>
      </trkpt>
      <trkpt lat="44.81485" lon="5.72375">
        <ele>682.3</ele>
        <time>2021-04-22T11:02:06Z</time>
      </trkpt>
      <trkpt lat="44.81486" lon="5.72381">
        <ele>682.5</ele>
        <time>2021-04-22T11:02:07Z</time>
      </trkpt>
      <trkpt lat="44.81488" lon="5.72387">
        <ele>682.6</ele>
        <time>2021-04-22T11:02:08Z</time>
      </trkpt>
      <trkpt lat="44.81489" lon="5.7239">
        <ele>682.7</ele>
        <time>2021-04-22T11:02:09Z</time>
      </trkpt>
      <trkpt lat="44.8149" lon="5.72394">
        <ele>682.8</ele>
        <time>2021-04-22T11:02:10Z</time>
      </trkpt>
      <trkpt lat="44.81494" lon="5.72407">
        <ele>683</ele>
        <time>2021-04-22T11:02:12Z</time>
      </trkpt>
      <trkpt lat="44.81497" lon="5.72421">
        <ele>683.3</ele>
        <time>2021-04-22T11:02:14Z</time>
      </trkpt>
      <trkpt lat="44.815" lon="5.72433">
        <ele>683.6</ele>
        <time>2021-04-22T11:02:16Z</time>
      </trkpt>
      <trkpt lat="44.81503" lon="5.72441">
        <ele>683.7</ele>
        <time>2021-04-22T11:02:17Z</time>
      </trkpt>
      <trkpt lat="44.81506" lon="5.72453">
        <ele>683.9</ele>
        <time>2021-04-22T11:02:19Z</time>
      </trkpt>
      <trkpt lat="44.81507" lon="5.7246">
        <ele>684</ele>
        <time>2021-04-22T11:02:20Z</time>
      </trkpt>
      <trkpt lat="44.81509" lon="5.72467">
        <ele>684.2</ele>
        <time>2021-04-22T11:02:21Z</time>
      </trkpt>
      <trkpt lat="44.81511" lon="5.72473">
        <ele>684.3</ele>
        <time>2021-04-22T11:02:22Z</time>
      </trkpt>
      <trkpt lat="44.81512" lon="5.72481">
        <ele>684.4</ele>
        <time>2021-04-22T11:02:24Z</time>
      </trkpt>
      <trkpt lat="44.81514" lon="5.72487">
        <ele>684.6</ele>
        <time>2021-04-22T11:02:25Z</time>
      </trkpt>
      <trkpt lat="44.81515" lon="5.72492">
        <ele>684.6</ele>
        <time>2021-04-22T11:02:26Z</time>
      </trkpt>
      <trkpt lat="44.81518" lon="5.72502">
        <ele>684.9</ele>
        <time>2021-04-22T11:02:28Z</time>
      </trkpt>
      <trkpt lat="44.81519" lon="5.72508">
        <ele>685</ele>
        <time>2021-04-22T11:02:29Z</time>
      </trkpt>
      <trkpt lat="44.81521" lon="5.72518">
        <ele>685.3</ele>
        <time>2021-04-22T11:02:31Z</time>
      </trkpt>
      <trkpt lat="44.81523" lon="5.72526">
        <ele>685.4</ele>
        <time>2021-04-22T11:02:32Z</time>
      </trkpt>
      <trkpt lat="44.81524" lon="5.72534">
        <ele>685.6</ele>
        <time>2021-04-22T11:02:34Z</time>
      </trkpt>
      <trkpt lat="44.81525" lon="5.72539">
        <ele>685.7</ele>
        <time>2021-04-22T11:02:35Z</time>
      </trkpt>
      <trkpt lat="44.81527" lon="5.7255">
        <ele>685.8</ele>
        <time>2021-04-22T11:02:37Z</time>
      </trkpt>
      <trkpt lat="44.81527" lon="5.72562">
        <ele>686</ele>
        <time>2021-04-22T11:02:39Z</time>
      </trkpt>
      <trkpt lat="44.81527" lon="5.72569">
        <ele>686.2</ele>
        <time>2021-04-22T11:02:40Z</time>
      </trkpt>
      <trkpt lat="44.81526" lon="5.72579">
        <ele>686.3</ele>
        <time>2021-04-22T11:02:42Z</time>
      </trkpt>
      <trkpt lat="44.81525" lon="5.72586">
        <ele>686.4</ele>
        <time>2021-04-22T11:02:43Z</time>
      </trkpt>
      <trkpt lat="44.81523" lon="5.72593">
        <ele>686.4</ele>
        <time>2021-04-22T11:02:44Z</time>
      </trkpt>
      <trkpt lat="44.81521" lon="5.72604">
        <ele>686.5</ele>
        <time>2021-04-22T11:02:46Z</time>
      </trkpt>
      <trkpt lat="44.81519" lon="5.72612">
        <ele>686.6</ele>
        <time>2021-04-22T11:02:48Z</time>
      </trkpt>
      <trkpt lat="44.81518" lon="5.72617">
        <ele>686.6</ele>
        <time>2021-04-22T11:02:49Z</time>
      </trkpt>
      <trkpt lat="44.81515" lon="5.72627">
        <ele>686.7</ele>
        <time>2021-04-22T11:02:51Z</time>
      </trkpt>
      <trkpt lat="44.81514" lon="5.72631">
        <ele>686.8</ele>
        <time>2021-04-22T11:02:52Z</time>
      </trkpt>
      <trkpt lat="44.81513" lon="5.72637">
        <ele>686.9</ele>
        <time>2021-04-22T11:02:53Z</time>
      </trkpt>
      <trkpt lat="44.8151" lon="5.72646">
        <ele>687.1</ele>
        <time>2021-04-22T11:02:55Z</time>
      </trkpt>
      <trkpt lat="44.81508" lon="5.72658">
        <ele>687.3</ele>
        <time>2021-04-22T11:02:57Z</time>
      </trkpt>
      <trkpt lat="44.81505" lon="5.72668">
        <ele>687.6</ele>
        <time>2021-04-22T11:02:59Z</time>
      </trkpt>
      <trkpt lat="44.81504" lon="5.72673">
        <ele>687.7</ele>
        <time>2021-04-22T11:03:00Z</time>
      </trkpt>
      <trkpt lat="44.81502" lon="5.72681">
        <ele>687.9</ele>
        <time>2021-04-22T11:03:01Z</time>
      </trkpt>
      <trkpt lat="44.81501" lon="5.72687">
        <ele>688</ele>
        <time>2021-04-22T11:03:03Z</time>
      </trkpt>
      <trkpt lat="44.81499" lon="5.72694">
        <ele>688.1</ele>
        <time>2021-04-22T11:03:04Z</time>
      </trkpt>
      <trkpt lat="44.81496" lon="5.72703">
        <ele>688.4</ele>
        <time>2021-04-22T11:03:06Z</time>
      </trkpt>
      <trkpt lat="44.81495" lon="5.72709">
        <ele>688.5</ele>
        <time>2021-04-22T11:03:07Z</time>
      </trkpt>
      <trkpt lat="44.81494" lon="5.72715">
        <ele>688.6</ele>
        <time>2021-04-22T11:03:08Z</time>
      </trkpt>
      <trkpt lat="44.81491" lon="5.72726">
        <ele>688.9</ele>
        <time>2021-04-22T11:03:10Z</time>
      </trkpt>
      <trkpt lat="44.8149" lon="5.72733">
        <ele>689</ele>
        <time>2021-04-22T11:03:11Z</time>
      </trkpt>
      <trkpt lat="44.81488" lon="5.72742">
        <ele>689.2</ele>
        <time>2021-04-22T11:03:12Z</time>
      </trkpt>
      <trkpt lat="44.81487" lon="5.72749">
        <ele>689.4</ele>
        <time>2021-04-22T11:03:14Z</time>
      </trkpt>
      <trkpt lat="44.81484" lon="5.72759">
        <ele>689.7</ele>
        <time>2021-04-22T11:03:16Z</time>
      </trkpt>
      <trkpt lat="44.81482" lon="5.72766">
        <ele>689.9</ele>
        <time>2021-04-22T11:03:17Z</time>
      </trkpt>
      <trkpt lat="44.8148" lon="5.72777">
        <ele>690.1</ele>
        <time>2021-04-22T11:03:19Z</time>
      </trkpt>
      <trkpt lat="44.81478" lon="5.72786">
        <ele>690.4</ele>
        <time>2021-04-22T11:03:21Z</time>
      </trkpt>
      <trkpt lat="44.81477" lon="5.7279">
        <ele>690.5</ele>
        <time>2021-04-22T11:03:22Z</time>
      </trkpt>
      <trkpt lat="44.81474" lon="5.72798">
        <ele>690.7</ele>
        <time>2021-04-22T11:03:24Z</time>
      </trkpt>
      <trkpt lat="44.81473" lon="5.72803">
        <ele>690.8</ele>
        <time>2021-04-22T11:03:25Z</time>
      </trkpt>
      <trkpt lat="44.81471" lon="5.72811">
        <ele>691.1</ele>
        <time>2021-04-22T11:03:26Z</time>
      </trkpt>
      <trkpt lat="44.8147" lon="5.72816">
        <ele>691.2</ele>
        <time>2021-04-22T11:03:28Z</time>
      </trkpt>
      <trkpt lat="44.81468" lon="5.72826">
        <ele>691.4</ele>
        <time>2021-04-22T11:03:30Z</time>
      </trkpt>
      <trkpt lat="44.81467" lon="5.72831">
        <ele>691.6</ele>
        <time>2021-04-22T11:03:31Z</time>
      </trkpt>
      <trkpt lat="44.81465" lon="5.7284">
        <ele>691.8</ele>
        <time>2021-04-22T11:03:33Z</time>
      </trkpt>
      <trkpt lat="44.81464" lon="5.72845">
        <ele>691.9</ele>
        <time>2021-04-22T11:03:34Z</time>
      </trkpt>
      <trkpt lat="44.81463" lon="5.72851">
        <ele>692</ele>
        <time>2021-04-22T11:03:35Z</time>
      </trkpt>
      <trkpt lat="44.81462" lon="5.72857">
        <ele>692.2</ele>
        <time>2021-04-22T11:03:37Z</time>
      </trkpt>
      <trkpt lat="44.8146" lon="5.72864">
        <ele>692.4</ele>
        <time>2021-04-22T11:03:38Z</time>
      </trkpt>
      <trkpt lat="44.81459" lon="5.7287">
        <ele>692.5</ele>
        <time>2021-04-22T11:03:39Z</time>
      </trkpt>
      <trkpt lat="44.81458" lon="5.72878">
        <ele>692.8</ele>
        <time>2021-04-22T11:03:41Z</time>
      </trkpt>
      <trkpt lat="44.81457" lon="5.72884">
        <ele>692.9</ele>
        <time>2021-04-22T11:03:42Z</time>
      </trkpt>
      <trkpt lat="44.81456" lon="5.72893">
        <ele>693.1</ele>
        <time>2021-04-22T11:03:44Z</time>
      </trkpt>
      <trkpt lat="44.81455" lon="5.72899">
        <ele>693.3</ele>
        <time>2021-04-22T11:03:45Z</time>
      </trkpt>
      <trkpt lat="44.81455" lon="5.72904">
        <ele>693.5</ele>
        <time>2021-04-22T11:03:46Z</time>
      </trkpt>
      <trkpt lat="44.81454" lon="5.72912">
        <ele>693.7</ele>
        <time>2021-04-22T11:03:48Z</time>
      </trkpt>
      <trkpt lat="44.81453" lon="5.72918">
        <ele>693.9</ele>
        <time>2021-04-22T11:03:49Z</time>
      </trkpt>
      <trkpt lat="44.81452" lon="5.72925">
        <ele>694</ele>
        <time>2021-04-22T11:03:50Z</time>
      </trkpt>
      <trkpt lat="44.81451" lon="5.72932">
        <ele>694.2</ele>
        <time>2021-04-22T11:03:51Z</time>
      </trkpt>
      <trkpt lat="44.81449" lon="5.7294">
        <ele>694.4</ele>
        <time>2021-04-22T11:03:53Z</time>
      </trkpt>
      <trkpt lat="44.81448" lon="5.72947">
        <ele>694.6</ele>
        <time>2021-04-22T11:03:54Z</time>
      </trkpt>
      <trkpt lat="44.81447" lon="5.72951">
        <ele>694.7</ele>
        <time>2021-04-22T11:03:55Z</time>
      </trkpt>
      <trkpt lat="44.81447" lon="5.72958">
        <ele>694.9</ele>
        <time>2021-04-22T11:03:57Z</time>
      </trkpt>
      <trkpt lat="44.81445" lon="5.72966">
        <ele>695.2</ele>
        <time>2021-04-22T11:03:58Z</time>
      </trkpt>
      <trkpt lat="44.81445" lon="5.72973">
        <ele>695.4</ele>
        <time>2021-04-22T11:04:00Z</time>
      </trkpt>
      <trkpt lat="44.81444" lon="5.72983">
        <ele>695.6</ele>
        <time>2021-04-22T11:04:02Z</time>
      </trkpt>
      <trkpt lat="44.81442" lon="5.72989">
        <ele>695.8</ele>
        <time>2021-04-22T11:04:03Z</time>
      </trkpt>
      <trkpt lat="44.81441" lon="5.72999">
        <ele>696.1</ele>
        <time>2021-04-22T11:04:05Z</time>
      </trkpt>
      <trkpt lat="44.81441" lon="5.73003">
        <ele>696.2</ele>
        <time>2021-04-22T11:04:06Z</time>
      </trkpt>
      <trkpt lat="44.81441" lon="5.73009">
        <ele>696.3</ele>
        <time>2021-04-22T11:04:07Z</time>
      </trkpt>
      <trkpt lat="44.81441" lon="5.73019">
        <ele>696.6</ele>
        <time>2021-04-22T11:04:09Z</time>
      </trkpt>
      <trkpt lat="44.81441" lon="5.73024">
        <ele>696.7</ele>
        <time>2021-04-22T11:04:10Z</time>
      </trkpt>
      <trkpt lat="44.81442" lon="5.73033">
        <ele>696.9</ele>
        <time>2021-04-22T11:04:12Z</time>
      </trkpt>
      <trkpt lat="44.81444" lon="5.73044">
        <ele>697.2</ele>
        <time>2021-04-22T11:04:14Z</time>
      </trkpt>
      <trkpt lat="44.81446" lon="5.73054">
        <ele>697.4</ele>
        <time>2021-04-22T11:04:15Z</time>
      </trkpt>
      <trkpt lat="44.81448" lon="5.73061">
        <ele>697.5</ele>
        <time>2021-04-22T11:04:17Z</time>
      </trkpt>
      <trkpt lat="44.81449" lon="5.73067">
        <ele>697.6</ele>
        <time>2021-04-22T11:04:18Z</time>
      </trkpt>
      <trkpt lat="44.81451" lon="5.73077">
        <ele>697.8</ele>
        <time>2021-04-22T11:04:20Z</time>
      </trkpt>
      <trkpt lat="44.81454" lon="5.73087">
        <ele>697.9</ele>
        <time>2021-04-22T11:04:22Z</time>
      </trkpt>
      <trkpt lat="44.81455" lon="5.73093">
        <ele>698.1</ele>
        <time>2021-04-22T11:04:23Z</time>
      </trkpt>
      <trkpt lat="44.81457" lon="5.73101">
        <ele>698.2</ele>
        <time>2021-04-22T11:04:24Z</time>
      </trkpt>
      <trkpt lat="44.81458" lon="5.73114">
        <ele>698.5</ele>
        <time>2021-04-22T11:04:26Z</time>
      </trkpt>
      <trkpt lat="44.81458" lon="5.73127">
        <ele>698.9</ele>
        <time>2021-04-22T11:04:28Z</time>
      </trkpt>
      <trkpt lat="44.81458" lon="5.73135">
        <ele>699.2</ele>
        <time>2021-04-22T11:04:29Z</time>
      </trkpt>
      <trkpt lat="44.81456" lon="5.73144">
        <ele>699.5</ele>
        <time>2021-04-22T11:04:31Z</time>
      </trkpt>
      <trkpt lat="44.81455" lon="5.73147">
        <ele>699.6</ele>
        <time>2021-04-22T11:04:32Z</time>
      </trkpt>
      <trkpt lat="44.81454" lon="5.73156">
        <ele>699.9</ele>
        <time>2021-04-22T11:04:33Z</time>
      </trkpt>
      <trkpt lat="44.81453" lon="5.7316">
        <ele>700</ele>
        <time>2021-04-22T11:04:34Z</time>
      </trkpt>
      <trkpt lat="44.8145" lon="5.7317">
        <ele>700.4</ele>
        <time>2021-04-22T11:04:36Z</time>
      </trkpt>
      <trkpt lat="44.81448" lon="5.73179">
        <ele>700.7</ele>
        <time>2021-04-22T11:04:38Z</time>
      </trkpt>
      <trkpt lat="44.81446" lon="5.73185">
        <ele>701</ele>
        <time>2021-04-22T11:04:39Z</time>
      </trkpt>
      <trkpt lat="44.81445" lon="5.73191">
        <ele>701.2</ele>
        <time>2021-04-22T11:04:40Z</time>
      </trkpt>
      <trkpt lat="44.81445" lon="5.73197">
        <ele>701.4</ele>
        <time>2021-04-22T11:04:42Z</time>
      </trkpt>
      <trkpt lat="44.81445" lon="5.73201">
        <ele>701.5</ele>
        <time>2021-04-22T11:04:43Z</time>
      </trkpt>
      <trkpt lat="44.81445" lon="5.73208">
        <ele>701.8</ele>
        <time>2021-04-22T11:04:44Z</time>
      </trkpt>
      <trkpt lat="44.81445" lon="5.73215">
        <ele>702</ele>
        <time>2021-04-22T11:04:45Z</time>
      </trkpt>
      <trkpt lat="44.81445" lon="5.73222">
        <ele>702.2</ele>
        <time>2021-04-22T11:04:47Z</time>
      </trkpt>
      <trkpt lat="44.81446" lon="5.73229">
        <ele>702.5</ele>
        <time>2021-04-22T11:04:48Z</time>
      </trkpt>
      <trkpt lat="44.81448" lon="5.73238">
        <ele>702.8</ele>
        <time>2021-04-22T11:04:50Z</time>
      </trkpt>
      <trkpt lat="44.81451" lon="5.73248">
        <ele>703.1</ele>
        <time>2021-04-22T11:04:52Z</time>
      </trkpt>
      <trkpt lat="44.81452" lon="5.73256">
        <ele>703.4</ele>
        <time>2021-04-22T11:04:53Z</time>
      </trkpt>
      <trkpt lat="44.81454" lon="5.73262">
        <ele>703.5</ele>
        <time>2021-04-22T11:04:55Z</time>
      </trkpt>
      <trkpt lat="44.81455" lon="5.73268">
        <ele>703.7</ele>
        <time>2021-04-22T11:04:56Z</time>
      </trkpt>
      <trkpt lat="44.81456" lon="5.73273">
        <ele>703.9</ele>
        <time>2021-04-22T11:04:57Z</time>
      </trkpt>
      <trkpt lat="44.81458" lon="5.73281">
        <ele>704.1</ele>
        <time>2021-04-22T11:04:59Z</time>
      </trkpt>
      <trkpt lat="44.81458" lon="5.73288">
        <ele>704.3</ele>
        <time>2021-04-22T11:05:00Z</time>
      </trkpt>
      <trkpt lat="44.81459" lon="5.73295">
        <ele>704.5</ele>
        <time>2021-04-22T11:05:01Z</time>
      </trkpt>
      <trkpt lat="44.8146" lon="5.73301">
        <ele>704.6</ele>
        <time>2021-04-22T11:05:03Z</time>
      </trkpt>
      <trkpt lat="44.81461" lon="5.7331">
        <ele>704.9</ele>
        <time>2021-04-22T11:05:05Z</time>
      </trkpt>
      <trkpt lat="44.81462" lon="5.73316">
        <ele>705</ele>
        <time>2021-04-22T11:05:06Z</time>
      </trkpt>
      <trkpt lat="44.81462" lon="5.73322">
        <ele>705.2</ele>
        <time>2021-04-22T11:05:07Z</time>
      </trkpt>
      <trkpt lat="44.8146" lon="5.73332">
        <ele>705.4</ele>
        <time>2021-04-22T11:05:08Z</time>
      </trkpt>
      <trkpt lat="44.8146" lon="5.73338">
        <ele>705.6</ele>
        <time>2021-04-22T11:05:10Z</time>
      </trkpt>
      <trkpt lat="44.81459" lon="5.73342">
        <ele>705.7</ele>
        <time>2021-04-22T11:05:11Z</time>
      </trkpt>
      <trkpt lat="44.81459" lon="5.73348">
        <ele>705.8</ele>
        <time>2021-04-22T11:05:12Z</time>
      </trkpt>
      <trkpt lat="44.81457" lon="5.73357">
        <ele>706</ele>
        <time>2021-04-22T11:05:14Z</time>
      </trkpt>
      <trkpt lat="44.81456" lon="5.73362">
        <ele>706.1</ele>
        <time>2021-04-22T11:05:15Z</time>
      </trkpt>
      <trkpt lat="44.81454" lon="5.73367">
        <ele>706.3</ele>
        <time>2021-04-22T11:05:16Z</time>
      </trkpt>
      <trkpt lat="44.81453" lon="5.73373">
        <ele>706.4</ele>
        <time>2021-04-22T11:05:17Z</time>
      </trkpt>
      <trkpt lat="44.81451" lon="5.73382">
        <ele>706.7</ele>
        <time>2021-04-22T11:05:19Z</time>
      </trkpt>
      <trkpt lat="44.8145" lon="5.73388">
        <ele>706.9</ele>
        <time>2021-04-22T11:05:20Z</time>
      </trkpt>
      <trkpt lat="44.81448" lon="5.73397">
        <ele>707.1</ele>
        <time>2021-04-22T11:05:22Z</time>
      </trkpt>
      <trkpt lat="44.81446" lon="5.73407">
        <ele>707.4</ele>
        <time>2021-04-22T11:05:24Z</time>
      </trkpt>
      <trkpt lat="44.81444" lon="5.73416">
        <ele>707.7</ele>
        <time>2021-04-22T11:05:26Z</time>
      </trkpt>
      <trkpt lat="44.81444" lon="5.73424">
        <ele>707.9</ele>
        <time>2021-04-22T11:05:28Z</time>
      </trkpt>
      <trkpt lat="44.81444" lon="5.73428">
        <ele>708</ele>
        <time>2021-04-22T11:05:29Z</time>
      </trkpt>
      <trkpt lat="44.81444" lon="5.73437">
        <ele>708.3</ele>
        <time>2021-04-22T11:05:31Z</time>
      </trkpt>
      <trkpt lat="44.81443" lon="5.73448">
        <ele>708.6</ele>
        <time>2021-04-22T11:05:33Z</time>
      </trkpt>
      <trkpt lat="44.81443" lon="5.73457">
        <ele>708.9</ele>
        <time>2021-04-22T11:05:35Z</time>
      </trkpt>
      <trkpt lat="44.81443" lon="5.73464">
        <ele>709.1</ele>
        <time>2021-04-22T11:05:37Z</time>
      </trkpt>
      <trkpt lat="44.81443" lon="5.73469">
        <ele>709.2</ele>
        <time>2021-04-22T11:05:38Z</time>
      </trkpt>
      <trkpt lat="44.81443" lon="5.73475">
        <ele>709.4</ele>
        <time>2021-04-22T11:05:39Z</time>
      </trkpt>
      <trkpt lat="44.81442" lon="5.7348">
        <ele>709.6</ele>
        <time>2021-04-22T11:05:40Z</time>
      </trkpt>
      <trkpt lat="44.81442" lon="5.73487">
        <ele>709.7</ele>
        <time>2021-04-22T11:05:42Z</time>
      </trkpt>
      <trkpt lat="44.81442" lon="5.73493">
        <ele>709.9</ele>
        <time>2021-04-22T11:05:43Z</time>
      </trkpt>
      <trkpt lat="44.81442" lon="5.735">
        <ele>710.1</ele>
        <time>2021-04-22T11:05:44Z</time>
      </trkpt>
      <trkpt lat="44.81442" lon="5.73506">
        <ele>710.2</ele>
        <time>2021-04-22T11:05:46Z</time>
      </trkpt>
      <trkpt lat="44.81442" lon="5.73514">
        <ele>710.5</ele>
        <time>2021-04-22T11:05:47Z</time>
      </trkpt>
      <trkpt lat="44.81442" lon="5.7352">
        <ele>710.6</ele>
        <time>2021-04-22T11:05:48Z</time>
      </trkpt>
      <trkpt lat="44.81442" lon="5.73525">
        <ele>710.8</ele>
        <time>2021-04-22T11:05:50Z</time>
      </trkpt>
      <trkpt lat="44.81442" lon="5.73528">
        <ele>710.8</ele>
        <time>2021-04-22T11:05:51Z</time>
      </trkpt>
      <trkpt lat="44.81442" lon="5.73534">
        <ele>711</ele>
        <time>2021-04-22T11:05:52Z</time>
      </trkpt>
      <trkpt lat="44.81443" lon="5.73539">
        <ele>711.2</ele>
        <time>2021-04-22T11:05:53Z</time>
      </trkpt>
      <trkpt lat="44.81442" lon="5.73546">
        <ele>711.4</ele>
        <time>2021-04-22T11:05:54Z</time>
      </trkpt>
      <trkpt lat="44.81442" lon="5.73552">
        <ele>711.6</ele>
        <time>2021-04-22T11:05:55Z</time>
      </trkpt>
      <trkpt lat="44.81443" lon="5.73558">
        <ele>711.8</ele>
        <time>2021-04-22T11:05:57Z</time>
      </trkpt>
      <trkpt lat="44.81443" lon="5.73562">
        <ele>711.9</ele>
        <time>2021-04-22T11:05:58Z</time>
      </trkpt>
      <trkpt lat="44.81444" lon="5.73569">
        <ele>712.1</ele>
        <time>2021-04-22T11:05:59Z</time>
      </trkpt>
      <trkpt lat="44.81444" lon="5.73576">
        <ele>712.3</ele>
        <time>2021-04-22T11:06:01Z</time>
      </trkpt>
      <trkpt lat="44.81445" lon="5.73583">
        <ele>712.5</ele>
        <time>2021-04-22T11:06:02Z</time>
      </trkpt>
      <trkpt lat="44.81446" lon="5.73589">
        <ele>712.6</ele>
        <time>2021-04-22T11:06:04Z</time>
      </trkpt>
      <trkpt lat="44.81447" lon="5.73594">
        <ele>712.7</ele>
        <time>2021-04-22T11:06:05Z</time>
      </trkpt>
      <trkpt lat="44.81449" lon="5.73604">
        <ele>713</ele>
        <time>2021-04-22T11:06:07Z</time>
      </trkpt>
      <trkpt lat="44.8145" lon="5.73609">
        <ele>713.1</ele>
        <time>2021-04-22T11:06:08Z</time>
      </trkpt>
      <trkpt lat="44.81453" lon="5.73618">
        <ele>713.3</ele>
        <time>2021-04-22T11:06:10Z</time>
      </trkpt>
      <trkpt lat="44.81456" lon="5.73629">
        <ele>713.5</ele>
        <time>2021-04-22T11:06:12Z</time>
      </trkpt>
      <trkpt lat="44.81459" lon="5.73635">
        <ele>713.6</ele>
        <time>2021-04-22T11:06:13Z</time>
      </trkpt>
      <trkpt lat="44.81462" lon="5.73643">
        <ele>713.8</ele>
        <time>2021-04-22T11:06:15Z</time>
      </trkpt>
      <trkpt lat="44.81465" lon="5.73646">
        <ele>713.9</ele>
        <time>2021-04-22T11:06:16Z</time>
      </trkpt>
      <trkpt lat="44.81469" lon="5.73656">
        <ele>714.1</ele>
        <time>2021-04-22T11:06:18Z</time>
      </trkpt>
      <trkpt lat="44.81473" lon="5.73664">
        <ele>714.3</ele>
        <time>2021-04-22T11:06:19Z</time>
      </trkpt>
      <trkpt lat="44.81476" lon="5.7367">
        <ele>714.5</ele>
        <time>2021-04-22T11:06:21Z</time>
      </trkpt>
      <trkpt lat="44.8148" lon="5.73677">
        <ele>714.7</ele>
        <time>2021-04-22T11:06:22Z</time>
      </trkpt>
      <trkpt lat="44.81483" lon="5.73681">
        <ele>714.8</ele>
        <time>2021-04-22T11:06:24Z</time>
      </trkpt>
      <trkpt lat="44.81488" lon="5.7369">
        <ele>715.1</ele>
        <time>2021-04-22T11:06:26Z</time>
      </trkpt>
      <trkpt lat="44.81493" lon="5.73699">
        <ele>715.5</ele>
        <time>2021-04-22T11:06:28Z</time>
      </trkpt>
      <trkpt lat="44.81495" lon="5.73701">
        <ele>715.7</ele>
        <time>2021-04-22T11:06:29Z</time>
      </trkpt>
      <trkpt lat="44.81499" lon="5.73705">
        <ele>715.9</ele>
        <time>2021-04-22T11:06:30Z</time>
      </trkpt>
      <trkpt lat="44.81502" lon="5.73712">
        <ele>716.2</ele>
        <time>2021-04-22T11:06:32Z</time>
      </trkpt>
      <trkpt lat="44.81505" lon="5.73715">
        <ele>716.4</ele>
        <time>2021-04-22T11:06:33Z</time>
      </trkpt>
      <trkpt lat="44.8151" lon="5.7372">
        <ele>716.8</ele>
        <time>2021-04-22T11:06:35Z</time>
      </trkpt>
      <trkpt lat="44.81513" lon="5.73723">
        <ele>717</ele>
        <time>2021-04-22T11:06:36Z</time>
      </trkpt>
      <trkpt lat="44.81518" lon="5.73728">
        <ele>717.3</ele>
        <time>2021-04-22T11:06:38Z</time>
      </trkpt>
      <trkpt lat="44.81521" lon="5.7373">
        <ele>717.5</ele>
        <time>2021-04-22T11:06:39Z</time>
      </trkpt>
      <trkpt lat="44.81528" lon="5.73734">
        <ele>717.9</ele>
        <time>2021-04-22T11:06:41Z</time>
      </trkpt>
      <trkpt lat="44.81534" lon="5.73738">
        <ele>718.1</ele>
        <time>2021-04-22T11:06:43Z</time>
      </trkpt>
      <trkpt lat="44.81539" lon="5.7374">
        <ele>718.3</ele>
        <time>2021-04-22T11:06:45Z</time>
      </trkpt>
      <trkpt lat="44.81543" lon="5.73741">
        <ele>718.4</ele>
        <time>2021-04-22T11:06:46Z</time>
      </trkpt>
      <trkpt lat="44.8155" lon="5.73743">
        <ele>718.6</ele>
        <time>2021-04-22T11:06:48Z</time>
      </trkpt>
      <trkpt lat="44.81557" lon="5.73746">
        <ele>718.7</ele>
        <time>2021-04-22T11:06:50Z</time>
      </trkpt>
      <trkpt lat="44.8156" lon="5.73748">
        <ele>718.8</ele>
        <time>2021-04-22T11:06:51Z</time>
      </trkpt>
      <trkpt lat="44.81564" lon="5.73751">
        <ele>718.9</ele>
        <time>2021-04-22T11:06:52Z</time>
      </trkpt>
      <trkpt lat="44.81569" lon="5.73753">
        <ele>719</ele>
        <time>2021-04-22T11:06:53Z</time>
      </trkpt>
      <trkpt lat="44.81574" lon="5.73756">
        <ele>719.1</ele>
        <time>2021-04-22T11:06:54Z</time>
      </trkpt>
      <trkpt lat="44.81578" lon="5.73759">
        <ele>719.2</ele>
        <time>2021-04-22T11:06:55Z</time>
      </trkpt>
      <trkpt lat="44.81583" lon="5.73765">
        <ele>719.5</ele>
        <time>2021-04-22T11:06:57Z</time>
      </trkpt>
      <trkpt lat="44.81587" lon="5.7377">
        <ele>719.7</ele>
        <time>2021-04-22T11:06:58Z</time>
      </trkpt>
      <trkpt lat="44.8159" lon="5.73775">
        <ele>719.9</ele>
        <time>2021-04-22T11:07:00Z</time>
      </trkpt>
      <trkpt lat="44.81593" lon="5.7378">
        <ele>720.1</ele>
        <time>2021-04-22T11:07:01Z</time>
      </trkpt>
      <trkpt lat="44.81596" lon="5.73788">
        <ele>720.5</ele>
        <time>2021-04-22T11:07:03Z</time>
      </trkpt>
      <trkpt lat="44.81596" lon="5.73792">
        <ele>720.6</ele>
        <time>2021-04-22T11:07:04Z</time>
      </trkpt>
      <trkpt lat="44.81597" lon="5.73799">
        <ele>720.9</ele>
        <time>2021-04-22T11:07:06Z</time>
      </trkpt>
      <trkpt lat="44.81598" lon="5.73809">
        <ele>721.4</ele>
        <time>2021-04-22T11:07:08Z</time>
      </trkpt>
      <trkpt lat="44.81598" lon="5.73814">
        <ele>721.6</ele>
        <time>2021-04-22T11:07:09Z</time>
      </trkpt>
      <trkpt lat="44.81598" lon="5.73819">
        <ele>721.9</ele>
        <time>2021-04-22T11:07:10Z</time>
      </trkpt>
      <trkpt lat="44.81598" lon="5.73824">
        <ele>722.1</ele>
        <time>2021-04-22T11:07:11Z</time>
      </trkpt>
      <trkpt lat="44.81597" lon="5.73829">
        <ele>722.4</ele>
        <time>2021-04-22T11:07:13Z</time>
      </trkpt>
      <trkpt lat="44.81597" lon="5.73835">
        <ele>722.7</ele>
        <time>2021-04-22T11:07:14Z</time>
      </trkpt>
      <trkpt lat="44.81597" lon="5.73837">
        <ele>722.8</ele>
        <time>2021-04-22T11:07:15Z</time>
      </trkpt>
      <trkpt lat="44.81596" lon="5.73844">
        <ele>723</ele>
        <time>2021-04-22T11:07:17Z</time>
      </trkpt>
      <trkpt lat="44.81595" lon="5.73846">
        <ele>723</ele>
        <time>2021-04-22T11:07:18Z</time>
      </trkpt>
      <trkpt lat="44.81594" lon="5.73849">
        <ele>723.1</ele>
        <time>2021-04-22T11:07:19Z</time>
      </trkpt>
      <trkpt lat="44.81592" lon="5.73851">
        <ele>723.1</ele>
        <time>2021-04-22T11:07:20Z</time>
      </trkpt>
      <trkpt lat="44.8159" lon="5.73855">
        <ele>723.2</ele>
        <time>2021-04-22T11:07:21Z</time>
      </trkpt>
      <trkpt lat="44.81588" lon="5.73858">
        <ele>723.3</ele>
        <time>2021-04-22T11:07:23Z</time>
      </trkpt>
      <trkpt lat="44.81585" lon="5.73862">
        <ele>723.4</ele>
        <time>2021-04-22T11:07:24Z</time>
      </trkpt>
      <trkpt lat="44.81583" lon="5.73868">
        <ele>723.5</ele>
        <time>2021-04-22T11:07:25Z</time>
      </trkpt>
      <trkpt lat="44.81581" lon="5.73873">
        <ele>723.6</ele>
        <time>2021-04-22T11:07:26Z</time>
      </trkpt>
      <trkpt lat="44.81579" lon="5.73878">
        <ele>723.7</ele>
        <time>2021-04-22T11:07:28Z</time>
      </trkpt>
      <trkpt lat="44.81577" lon="5.73883">
        <ele>723.8</ele>
        <time>2021-04-22T11:07:29Z</time>
      </trkpt>
      <trkpt lat="44.81574" lon="5.73889">
        <ele>723.9</ele>
        <time>2021-04-22T11:07:30Z</time>
      </trkpt>
      <trkpt lat="44.81571" lon="5.73897">
        <ele>724</ele>
        <time>2021-04-22T11:07:31Z</time>
      </trkpt>
      <trkpt lat="44.81568" lon="5.73904">
        <ele>724.1</ele>
        <time>2021-04-22T11:07:33Z</time>
      </trkpt>
      <trkpt lat="44.81566" lon="5.73908">
        <ele>724.2</ele>
        <time>2021-04-22T11:07:34Z</time>
      </trkpt>
      <trkpt lat="44.81562" lon="5.73917">
        <ele>724.4</ele>
        <time>2021-04-22T11:07:36Z</time>
      </trkpt>
      <trkpt lat="44.81558" lon="5.73926">
        <ele>724.6</ele>
        <time>2021-04-22T11:07:38Z</time>
      </trkpt>
      <trkpt lat="44.81555" lon="5.73932">
        <ele>724.9</ele>
        <time>2021-04-22T11:07:40Z</time>
      </trkpt>
      <trkpt lat="44.81552" lon="5.73936">
        <ele>725</ele>
        <time>2021-04-22T11:07:41Z</time>
      </trkpt>
      <trkpt lat="44.81549" lon="5.73942">
        <ele>725.2</ele>
        <time>2021-04-22T11:07:42Z</time>
      </trkpt>
      <trkpt lat="44.81547" lon="5.73946">
        <ele>725.4</ele>
        <time>2021-04-22T11:07:44Z</time>
      </trkpt>
      <trkpt lat="44.81543" lon="5.7395">
        <ele>725.6</ele>
        <time>2021-04-22T11:07:46Z</time>
      </trkpt>
      <trkpt lat="44.8154" lon="5.73954">
        <ele>725.8</ele>
        <time>2021-04-22T11:07:47Z</time>
      </trkpt>
      <trkpt lat="44.81535" lon="5.73959">
        <ele>726.1</ele>
        <time>2021-04-22T11:07:49Z</time>
      </trkpt>
      <trkpt lat="44.81531" lon="5.73963">
        <ele>726.4</ele>
        <time>2021-04-22T11:07:51Z</time>
      </trkpt>
      <trkpt lat="44.81528" lon="5.73966">
        <ele>726.5</ele>
        <time>2021-04-22T11:07:52Z</time>
      </trkpt>
      <trkpt lat="44.81523" lon="5.73971">
        <ele>726.8</ele>
        <time>2021-04-22T11:07:54Z</time>
      </trkpt>
      <trkpt lat="44.81519" lon="5.73975">
        <ele>727</ele>
        <time>2021-04-22T11:07:56Z</time>
      </trkpt>
      <trkpt lat="44.81516" lon="5.73977">
        <ele>727.1</ele>
        <time>2021-04-22T11:07:57Z</time>
      </trkpt>
      <trkpt lat="44.81511" lon="5.73981">
        <ele>727.4</ele>
        <time>2021-04-22T11:07:59Z</time>
      </trkpt>
      <trkpt lat="44.81506" lon="5.73984">
        <ele>727.6</ele>
        <time>2021-04-22T11:08:01Z</time>
      </trkpt>
      <trkpt lat="44.81503" lon="5.73986">
        <ele>727.8</ele>
        <time>2021-04-22T11:08:02Z</time>
      </trkpt>
      <trkpt lat="44.81499" lon="5.73988">
        <ele>727.9</ele>
        <time>2021-04-22T11:08:03Z</time>
      </trkpt>
      <trkpt lat="44.81494" lon="5.73992">
        <ele>728.2</ele>
        <time>2021-04-22T11:08:05Z</time>
      </trkpt>
      <trkpt lat="44.8149" lon="5.73994">
        <ele>728.4</ele>
        <time>2021-04-22T11:08:06Z</time>
      </trkpt>
      <trkpt lat="44.81487" lon="5.73997">
        <ele>728.5</ele>
        <time>2021-04-22T11:08:08Z</time>
      </trkpt>
      <trkpt lat="44.81485" lon="5.73999">
        <ele>728.6</ele>
        <time>2021-04-22T11:08:09Z</time>
      </trkpt>
      <trkpt lat="44.81482" lon="5.74">
        <ele>728.8</ele>
        <time>2021-04-22T11:08:10Z</time>
      </trkpt>
      <trkpt lat="44.8148" lon="5.74002">
        <ele>728.9</ele>
        <time>2021-04-22T11:08:11Z</time>
      </trkpt>
      <trkpt lat="44.81477" lon="5.74005">
        <ele>729</ele>
        <time>2021-04-22T11:08:12Z</time>
      </trkpt>
      <trkpt lat="44.81474" lon="5.74006">
        <ele>729.1</ele>
        <time>2021-04-22T11:08:13Z</time>
      </trkpt>
      <trkpt lat="44.81471" lon="5.74008">
        <ele>729.3</ele>
        <time>2021-04-22T11:08:14Z</time>
      </trkpt>
      <trkpt lat="44.8147" lon="5.74009">
        <ele>729.3</ele>
        <time>2021-04-22T11:08:15Z</time>
      </trkpt>
      <trkpt lat="44.81467" lon="5.74011">
        <ele>729.4</ele>
        <time>2021-04-22T11:08:16Z</time>
      </trkpt>
      <trkpt lat="44.81465" lon="5.74012">
        <ele>729.5</ele>
        <time>2021-04-22T11:08:17Z</time>
      </trkpt>
      <trkpt lat="44.81462" lon="5.74014">
        <ele>729.7</ele>
        <time>2021-04-22T11:08:18Z</time>
      </trkpt>
      <trkpt lat="44.81459" lon="5.74016">
        <ele>729.8</ele>
        <time>2021-04-22T11:08:19Z</time>
      </trkpt>
      <trkpt lat="44.81456" lon="5.74017">
        <ele>729.9</ele>
        <time>2021-04-22T11:08:20Z</time>
      </trkpt>
      <trkpt lat="44.81453" lon="5.7402">
        <ele>730.1</ele>
        <time>2021-04-22T11:08:21Z</time>
      </trkpt>
      <trkpt lat="44.8145" lon="5.74022">
        <ele>730.2</ele>
        <time>2021-04-22T11:08:22Z</time>
      </trkpt>
      <trkpt lat="44.81447" lon="5.74024">
        <ele>730.4</ele>
        <time>2021-04-22T11:08:23Z</time>
      </trkpt>
      <trkpt lat="44.81444" lon="5.74026">
        <ele>730.5</ele>
        <time>2021-04-22T11:08:24Z</time>
      </trkpt>
      <trkpt lat="44.81441" lon="5.74028">
        <ele>730.7</ele>
        <time>2021-04-22T11:08:25Z</time>
      </trkpt>
      <trkpt lat="44.8144" lon="5.74029">
        <ele>730.7</ele>
        <time>2021-04-22T11:08:26Z</time>
      </trkpt>
      <trkpt lat="44.81437" lon="5.7403">
        <ele>730.8</ele>
        <time>2021-04-22T11:08:27Z</time>
      </trkpt>
      <trkpt lat="44.81433" lon="5.74032">
        <ele>731</ele>
        <time>2021-04-22T11:08:28Z</time>
      </trkpt>
      <trkpt lat="44.8143" lon="5.74034">
        <ele>731.1</ele>
        <time>2021-04-22T11:08:29Z</time>
      </trkpt>
      <trkpt lat="44.81427" lon="5.74037">
        <ele>731.2</ele>
        <time>2021-04-22T11:08:30Z</time>
      </trkpt>
      <trkpt lat="44.81425" lon="5.74038">
        <ele>731.4</ele>
        <time>2021-04-22T11:08:31Z</time>
      </trkpt>
      <trkpt lat="44.81422" lon="5.7404">
        <ele>731.5</ele>
        <time>2021-04-22T11:08:32Z</time>
      </trkpt>
      <trkpt lat="44.81419" lon="5.74042">
        <ele>731.6</ele>
        <time>2021-04-22T11:08:33Z</time>
      </trkpt>
      <trkpt lat="44.81416" lon="5.74043">
        <ele>731.8</ele>
        <time>2021-04-22T11:08:34Z</time>
      </trkpt>
      <trkpt lat="44.81413" lon="5.74045">
        <ele>731.9</ele>
        <time>2021-04-22T11:08:35Z</time>
      </trkpt>
      <trkpt lat="44.8141" lon="5.74047">
        <ele>732</ele>
        <time>2021-04-22T11:08:36Z</time>
      </trkpt>
      <trkpt lat="44.81407" lon="5.74049">
        <ele>732.1</ele>
        <time>2021-04-22T11:08:37Z</time>
      </trkpt>
      <trkpt lat="44.81403" lon="5.74052">
        <ele>732.3</ele>
        <time>2021-04-22T11:08:38Z</time>
      </trkpt>
      <trkpt lat="44.814" lon="5.74054">
        <ele>732.4</ele>
        <time>2021-04-22T11:08:39Z</time>
      </trkpt>
      <trkpt lat="44.81396" lon="5.74056">
        <ele>732.6</ele>
        <time>2021-04-22T11:08:40Z</time>
      </trkpt>
      <trkpt lat="44.81393" lon="5.74058">
        <ele>732.7</ele>
        <time>2021-04-22T11:08:41Z</time>
      </trkpt>
      <trkpt lat="44.8139" lon="5.74059">
        <ele>732.8</ele>
        <time>2021-04-22T11:08:42Z</time>
      </trkpt>
      <trkpt lat="44.81388" lon="5.74061">
        <ele>732.9</ele>
        <time>2021-04-22T11:08:43Z</time>
      </trkpt>
      <trkpt lat="44.81385" lon="5.74063">
        <ele>733</ele>
        <time>2021-04-22T11:08:44Z</time>
      </trkpt>
      <trkpt lat="44.81381" lon="5.74066">
        <ele>733.2</ele>
        <time>2021-04-22T11:08:45Z</time>
      </trkpt>
      <trkpt lat="44.8138" lon="5.74067">
        <ele>733.2</ele>
        <time>2021-04-22T11:08:46Z</time>
      </trkpt>
      <trkpt lat="44.81377" lon="5.74068">
        <ele>733.3</ele>
        <time>2021-04-22T11:08:47Z</time>
      </trkpt>
      <trkpt lat="44.81374" lon="5.7407">
        <ele>733.5</ele>
        <time>2021-04-22T11:08:48Z</time>
      </trkpt>
      <trkpt lat="44.81371" lon="5.74072">
        <ele>733.6</ele>
        <time>2021-04-22T11:08:49Z</time>
      </trkpt>
      <trkpt lat="44.81367" lon="5.74074">
        <ele>733.7</ele>
        <time>2021-04-22T11:08:50Z</time>
      </trkpt>
      <trkpt lat="44.81364" lon="5.74076">
        <ele>733.8</ele>
        <time>2021-04-22T11:08:51Z</time>
      </trkpt>
      <trkpt lat="44.81361" lon="5.74079">
        <ele>734</ele>
        <time>2021-04-22T11:08:52Z</time>
      </trkpt>
      <trkpt lat="44.81358" lon="5.74081">
        <ele>734.1</ele>
        <time>2021-04-22T11:08:53Z</time>
      </trkpt>
      <trkpt lat="44.81355" lon="5.74083">
        <ele>734.2</ele>
        <time>2021-04-22T11:08:54Z</time>
      </trkpt>
      <trkpt lat="44.81352" lon="5.74085">
        <ele>734.3</ele>
        <time>2021-04-22T11:08:55Z</time>
      </trkpt>
      <trkpt lat="44.81348" lon="5.74087">
        <ele>734.5</ele>
        <time>2021-04-22T11:08:56Z</time>
      </trkpt>
      <trkpt lat="44.81345" lon="5.74089">
        <ele>734.6</ele>
        <time>2021-04-22T11:08:57Z</time>
      </trkpt>
      <trkpt lat="44.81342" lon="5.74091">
        <ele>734.8</ele>
        <time>2021-04-22T11:08:58Z</time>
      </trkpt>
      <trkpt lat="44.81339" lon="5.74093">
        <ele>734.9</ele>
        <time>2021-04-22T11:08:59Z</time>
      </trkpt>
      <trkpt lat="44.81336" lon="5.74095">
        <ele>735</ele>
        <time>2021-04-22T11:09:00Z</time>
      </trkpt>
      <trkpt lat="44.81333" lon="5.74096">
        <ele>735.2</ele>
        <time>2021-04-22T11:09:01Z</time>
      </trkpt>
      <trkpt lat="44.8133" lon="5.74098">
        <ele>735.3</ele>
        <time>2021-04-22T11:09:02Z</time>
      </trkpt>
      <trkpt lat="44.81327" lon="5.741">
        <ele>735.5</ele>
        <time>2021-04-22T11:09:03Z</time>
      </trkpt>
      <trkpt lat="44.81324" lon="5.74102">
        <ele>735.6</ele>
        <time>2021-04-22T11:09:04Z</time>
      </trkpt>
      <trkpt lat="44.81322" lon="5.74104">
        <ele>735.8</ele>
        <time>2021-04-22T11:09:05Z</time>
      </trkpt>
      <trkpt lat="44.81319" lon="5.74107">
        <ele>736</ele>
        <time>2021-04-22T11:09:06Z</time>
      </trkpt>
      <trkpt lat="44.81318" lon="5.74108">
        <ele>736</ele>
        <time>2021-04-22T11:09:07Z</time>
      </trkpt>
      <trkpt lat="44.81315" lon="5.74111">
        <ele>736.3</ele>
        <time>2021-04-22T11:09:08Z</time>
      </trkpt>
      <trkpt lat="44.81313" lon="5.74112">
        <ele>736.4</ele>
        <time>2021-04-22T11:09:09Z</time>
      </trkpt>
      <trkpt lat="44.81309" lon="5.74115">
        <ele>736.6</ele>
        <time>2021-04-22T11:09:10Z</time>
      </trkpt>
      <trkpt lat="44.81305" lon="5.74119">
        <ele>736.9</ele>
        <time>2021-04-22T11:09:12Z</time>
      </trkpt>
      <trkpt lat="44.81302" lon="5.74122">
        <ele>737.1</ele>
        <time>2021-04-22T11:09:13Z</time>
      </trkpt>
      <trkpt lat="44.81299" lon="5.74126">
        <ele>737.3</ele>
        <time>2021-04-22T11:09:14Z</time>
      </trkpt>
      <trkpt lat="44.81296" lon="5.74131">
        <ele>737.6</ele>
        <time>2021-04-22T11:09:16Z</time>
      </trkpt>
      <trkpt lat="44.81293" lon="5.74137">
        <ele>737.9</ele>
        <time>2021-04-22T11:09:17Z</time>
      </trkpt>
      <trkpt lat="44.8129" lon="5.74141">
        <ele>738.1</ele>
        <time>2021-04-22T11:09:19Z</time>
      </trkpt>
      <trkpt lat="44.81289" lon="5.74147">
        <ele>738.3</ele>
        <time>2021-04-22T11:09:20Z</time>
      </trkpt>
      <trkpt lat="44.81288" lon="5.74149">
        <ele>738.4</ele>
        <time>2021-04-22T11:09:21Z</time>
      </trkpt>
      <trkpt lat="44.81287" lon="5.7415">
        <ele>738.5</ele>
        <time>2021-04-22T11:09:23Z</time>
      </trkpt>
      <trkpt lat="44.81288" lon="5.7415">
        <ele>738.5</ele>
        <time>2021-04-22T11:09:24Z</time>
      </trkpt>
      <trkpt lat="44.81288" lon="5.74149">
        <ele>738.5</ele>
        <time>2021-04-22T11:09:25Z</time>
      </trkpt>
      <trkpt lat="44.81288" lon="5.74149">
        <ele>738.5</ele>
        <time>2021-04-22T11:09:26Z</time>
      </trkpt>
      <trkpt lat="44.81288" lon="5.74149">
        <ele>738.6</ele>
        <time>2021-04-22T11:09:27Z</time>
      </trkpt>
      <trkpt lat="44.81288" lon="5.74152">
        <ele>738.7</ele>
        <time>2021-04-22T11:09:28Z</time>
      </trkpt>
      <trkpt lat="44.81286" lon="5.74156">
        <ele>738.9</ele>
        <time>2021-04-22T11:09:30Z</time>
      </trkpt>
      <trkpt lat="44.81282" lon="5.74161">
        <ele>739.1</ele>
        <time>2021-04-22T11:09:32Z</time>
      </trkpt>
      <trkpt lat="44.81281" lon="5.74167">
        <ele>739.3</ele>
        <time>2021-04-22T11:09:33Z</time>
      </trkpt>
      <trkpt lat="44.81278" lon="5.74175">
        <ele>739.7</ele>
        <time>2021-04-22T11:09:35Z</time>
      </trkpt>
      <trkpt lat="44.81276" lon="5.74181">
        <ele>739.9</ele>
        <time>2021-04-22T11:09:36Z</time>
      </trkpt>
      <trkpt lat="44.81275" lon="5.74189">
        <ele>740.2</ele>
        <time>2021-04-22T11:09:37Z</time>
      </trkpt>
      <trkpt lat="44.81275" lon="5.74195">
        <ele>740.4</ele>
        <time>2021-04-22T11:09:39Z</time>
      </trkpt>
      <trkpt lat="44.81275" lon="5.74203">
        <ele>740.6</ele>
        <time>2021-04-22T11:09:40Z</time>
      </trkpt>
      <trkpt lat="44.81276" lon="5.74208">
        <ele>740.8</ele>
        <time>2021-04-22T11:09:42Z</time>
      </trkpt>
      <trkpt lat="44.81276" lon="5.74214">
        <ele>740.9</ele>
        <time>2021-04-22T11:09:43Z</time>
      </trkpt>
      <trkpt lat="44.81277" lon="5.74223">
        <ele>741.2</ele>
        <time>2021-04-22T11:09:45Z</time>
      </trkpt>
      <trkpt lat="44.81278" lon="5.74228">
        <ele>741.4</ele>
        <time>2021-04-22T11:09:46Z</time>
      </trkpt>
      <trkpt lat="44.8128" lon="5.74235">
        <ele>741.5</ele>
        <time>2021-04-22T11:09:48Z</time>
      </trkpt>
      <trkpt lat="44.81285" lon="5.74239">
        <ele>741.7</ele>
        <time>2021-04-22T11:09:50Z</time>
      </trkpt>
      <trkpt lat="44.81288" lon="5.74241">
        <ele>741.9</ele>
        <time>2021-04-22T11:09:51Z</time>
      </trkpt>
      <trkpt lat="44.81291" lon="5.74242">
        <ele>742</ele>
        <time>2021-04-22T11:09:52Z</time>
      </trkpt>
      <trkpt lat="44.81294" lon="5.74243">
        <ele>742.1</ele>
        <time>2021-04-22T11:09:53Z</time>
      </trkpt>
      <trkpt lat="44.81298" lon="5.74244">
        <ele>742.3</ele>
        <time>2021-04-22T11:09:54Z</time>
      </trkpt>
      <trkpt lat="44.813" lon="5.74243">
        <ele>742.4</ele>
        <time>2021-04-22T11:09:56Z</time>
      </trkpt>
      <trkpt lat="44.81299" lon="5.74241">
        <ele>742.4</ele>
        <time>2021-04-22T11:09:57Z</time>
      </trkpt>
      <trkpt lat="44.81299" lon="5.7424">
        <ele>742.5</ele>
        <time>2021-04-22T11:09:58Z</time>
      </trkpt>
      <trkpt lat="44.81299" lon="5.74239">
        <ele>742.5</ele>
        <time>2021-04-22T11:09:59Z</time>
      </trkpt>
      <trkpt lat="44.81299" lon="5.74238">
        <ele>742.5</ele>
        <time>2021-04-22T11:10:00Z</time>
      </trkpt>
      <trkpt lat="44.813" lon="5.74237">
        <ele>742.5</ele>
        <time>2021-04-22T11:10:01Z</time>
      </trkpt>
      <trkpt lat="44.813" lon="5.74237">
        <ele>742.5</ele>
        <time>2021-04-22T11:10:02Z</time>
      </trkpt>
      <trkpt lat="44.813" lon="5.74237">
        <ele>742.6</ele>
        <time>2021-04-22T11:10:03Z</time>
      </trkpt>
      <trkpt lat="44.813" lon="5.74236">
        <ele>742.6</ele>
        <time>2021-04-22T11:10:04Z</time>
      </trkpt>
      <trkpt lat="44.813" lon="5.74236">
        <ele>742.6</ele>
        <time>2021-04-22T11:10:05Z</time>
      </trkpt>
      <trkpt lat="44.813" lon="5.74236">
        <ele>742.6</ele>
        <time>2021-04-22T11:10:06Z</time>
      </trkpt>
      <trkpt lat="44.813" lon="5.74236">
        <ele>742.6</ele>
        <time>2021-04-22T11:10:08Z</time>
      </trkpt>
      <trkpt lat="44.81301" lon="5.74236">
        <ele>742.6</ele>
        <time>2021-04-22T11:10:09Z</time>
      </trkpt>
      <trkpt lat="44.81297" lon="5.74235">
        <ele>742.7</ele>
        <time>2021-04-22T11:11:11Z</time>
      </trkpt>
      <trkpt lat="44.81295" lon="5.74235">
        <ele>742.8</ele>
        <time>2021-04-22T11:11:13Z</time>
      </trkpt>
      <trkpt lat="44.81295" lon="5.74234">
        <ele>742.8</ele>
        <time>2021-04-22T11:11:14Z</time>
      </trkpt>
      <trkpt lat="44.81294" lon="5.74234">
        <ele>742.8</ele>
        <time>2021-04-22T11:11:15Z</time>
      </trkpt>
      <trkpt lat="44.81294" lon="5.74234">
        <ele>742.9</ele>
        <time>2021-04-22T11:11:16Z</time>
      </trkpt>
      <trkpt lat="44.81294" lon="5.74234">
        <ele>742.9</ele>
        <time>2021-04-22T11:11:17Z</time>
      </trkpt>
      <trkpt lat="44.81294" lon="5.74234">
        <ele>742.9</ele>
        <time>2021-04-22T11:11:18Z</time>
      </trkpt>
      <trkpt lat="44.81293" lon="5.74234">
        <ele>742.9</ele>
        <time>2021-04-22T11:11:19Z</time>
      </trkpt>
      <trkpt lat="44.81293" lon="5.74234">
        <ele>742.9</ele>
        <time>2021-04-22T11:11:20Z</time>
      </trkpt>
      <trkpt lat="44.81293" lon="5.74235">
        <ele>742.9</ele>
        <time>2021-04-22T11:11:21Z</time>
      </trkpt>
      <trkpt lat="44.81293" lon="5.74235">
        <ele>742.9</ele>
        <time>2021-04-22T11:11:22Z</time>
      </trkpt>
      <trkpt lat="44.81293" lon="5.74235">
        <ele>742.9</ele>
        <time>2021-04-22T11:11:23Z</time>
      </trkpt>
      <trkpt lat="44.81291" lon="5.74237">
        <ele>743</ele>
        <time>2021-04-22T11:11:24Z</time>
      </trkpt>
      <trkpt lat="44.81289" lon="5.74241">
        <ele>743.2</ele>
        <time>2021-04-22T11:11:26Z</time>
      </trkpt>
      <trkpt lat="44.81288" lon="5.74244">
        <ele>743.2</ele>
        <time>2021-04-22T11:11:27Z</time>
      </trkpt>
      <trkpt lat="44.81289" lon="5.74249">
        <ele>743.4</ele>
        <time>2021-04-22T11:11:28Z</time>
      </trkpt>
      <trkpt lat="44.81291" lon="5.74252">
        <ele>743.4</ele>
        <time>2021-04-22T11:11:30Z</time>
      </trkpt>
      <trkpt lat="44.81295" lon="5.74256">
        <ele>743.6</ele>
        <time>2021-04-22T11:11:31Z</time>
      </trkpt>
      <trkpt lat="44.81299" lon="5.74262">
        <ele>743.9</ele>
        <time>2021-04-22T11:11:33Z</time>
      </trkpt>
      <trkpt lat="44.81303" lon="5.74266">
        <ele>744.2</ele>
        <time>2021-04-22T11:11:34Z</time>
      </trkpt>
      <trkpt lat="44.81307" lon="5.74271">
        <ele>744.4</ele>
        <time>2021-04-22T11:11:36Z</time>
      </trkpt>
      <trkpt lat="44.81311" lon="5.74275">
        <ele>744.7</ele>
        <time>2021-04-22T11:11:37Z</time>
      </trkpt>
      <trkpt lat="44.81316" lon="5.7428">
        <ele>745</ele>
        <time>2021-04-22T11:11:39Z</time>
      </trkpt>
      <trkpt lat="44.81322" lon="5.74284">
        <ele>745.3</ele>
        <time>2021-04-22T11:11:41Z</time>
      </trkpt>
      <trkpt lat="44.81326" lon="5.74288">
        <ele>745.5</ele>
        <time>2021-04-22T11:11:42Z</time>
      </trkpt>
      <trkpt lat="44.81331" lon="5.74292">
        <ele>745.8</ele>
        <time>2021-04-22T11:11:44Z</time>
      </trkpt>
      <trkpt lat="44.81335" lon="5.74294">
        <ele>746.1</ele>
        <time>2021-04-22T11:11:45Z</time>
      </trkpt>
      <trkpt lat="44.81339" lon="5.74296">
        <ele>746.2</ele>
        <time>2021-04-22T11:11:46Z</time>
      </trkpt>
      <trkpt lat="44.81345" lon="5.74299">
        <ele>746.6</ele>
        <time>2021-04-22T11:11:48Z</time>
      </trkpt>
      <trkpt lat="44.81349" lon="5.74303">
        <ele>746.8</ele>
        <time>2021-04-22T11:11:50Z</time>
      </trkpt>
      <trkpt lat="44.81353" lon="5.74305">
        <ele>747</ele>
        <time>2021-04-22T11:11:51Z</time>
      </trkpt>
      <trkpt lat="44.81357" lon="5.74308">
        <ele>747.2</ele>
        <time>2021-04-22T11:11:52Z</time>
      </trkpt>
      <trkpt lat="44.81362" lon="5.74311">
        <ele>747.5</ele>
        <time>2021-04-22T11:11:54Z</time>
      </trkpt>
      <trkpt lat="44.81367" lon="5.74313">
        <ele>747.8</ele>
        <time>2021-04-22T11:11:56Z</time>
      </trkpt>
      <trkpt lat="44.81369" lon="5.74315">
        <ele>747.9</ele>
        <time>2021-04-22T11:11:57Z</time>
      </trkpt>
      <trkpt lat="44.81373" lon="5.74317">
        <ele>748.1</ele>
        <time>2021-04-22T11:11:58Z</time>
      </trkpt>
      <trkpt lat="44.81379" lon="5.74321">
        <ele>748.4</ele>
        <time>2021-04-22T11:12:00Z</time>
      </trkpt>
      <trkpt lat="44.81382" lon="5.74323">
        <ele>748.6</ele>
        <time>2021-04-22T11:12:01Z</time>
      </trkpt>
      <trkpt lat="44.81389" lon="5.74328">
        <ele>748.7</ele>
        <time>2021-04-22T11:12:03Z</time>
      </trkpt>
      <trkpt lat="44.81393" lon="5.7433">
        <ele>748.7</ele>
        <time>2021-04-22T11:12:04Z</time>
      </trkpt>
      <trkpt lat="44.81396" lon="5.74332">
        <ele>748.8</ele>
        <time>2021-04-22T11:12:05Z</time>
      </trkpt>
      <trkpt lat="44.814" lon="5.74335">
        <ele>748.8</ele>
        <time>2021-04-22T11:12:06Z</time>
      </trkpt>
      <trkpt lat="44.81405" lon="5.74338">
        <ele>749</ele>
        <time>2021-04-22T11:12:08Z</time>
      </trkpt>
      <trkpt lat="44.81411" lon="5.74339">
        <ele>749.3</ele>
        <time>2021-04-22T11:12:10Z</time>
      </trkpt>
      <trkpt lat="44.81414" lon="5.74341">
        <ele>749.5</ele>
        <time>2021-04-22T11:12:11Z</time>
      </trkpt>
      <trkpt lat="44.81418" lon="5.74343">
        <ele>749.7</ele>
        <time>2021-04-22T11:12:12Z</time>
      </trkpt>
      <trkpt lat="44.81421" lon="5.74345">
        <ele>749.9</ele>
        <time>2021-04-22T11:12:13Z</time>
      </trkpt>
      <trkpt lat="44.81429" lon="5.74351">
        <ele>750.2</ele>
        <time>2021-04-22T11:12:15Z</time>
      </trkpt>
      <trkpt lat="44.81436" lon="5.74354">
        <ele>750.6</ele>
        <time>2021-04-22T11:12:17Z</time>
      </trkpt>
      <trkpt lat="44.81442" lon="5.74358">
        <ele>750.9</ele>
        <time>2021-04-22T11:12:19Z</time>
      </trkpt>
      <trkpt lat="44.81449" lon="5.74362">
        <ele>751.2</ele>
        <time>2021-04-22T11:12:21Z</time>
      </trkpt>
      <trkpt lat="44.81456" lon="5.74367">
        <ele>751.6</ele>
        <time>2021-04-22T11:12:23Z</time>
      </trkpt>
      <trkpt lat="44.81463" lon="5.74372">
        <ele>752</ele>
        <time>2021-04-22T11:12:25Z</time>
      </trkpt>
      <trkpt lat="44.81466" lon="5.74374">
        <ele>752.2</ele>
        <time>2021-04-22T11:12:26Z</time>
      </trkpt>
      <trkpt lat="44.81472" lon="5.74377">
        <ele>752.5</ele>
        <time>2021-04-22T11:12:28Z</time>
      </trkpt>
      <trkpt lat="44.81479" lon="5.74381">
        <ele>752.8</ele>
        <time>2021-04-22T11:12:30Z</time>
      </trkpt>
      <trkpt lat="44.81484" lon="5.74385">
        <ele>753.2</ele>
        <time>2021-04-22T11:12:32Z</time>
      </trkpt>
      <trkpt lat="44.81488" lon="5.74388">
        <ele>753.4</ele>
        <time>2021-04-22T11:12:33Z</time>
      </trkpt>
      <trkpt lat="44.81492" lon="5.74391">
        <ele>753.4</ele>
        <time>2021-04-22T11:12:34Z</time>
      </trkpt>
      <trkpt lat="44.81497" lon="5.74393">
        <ele>753.4</ele>
        <time>2021-04-22T11:12:36Z</time>
      </trkpt>
      <trkpt lat="44.815" lon="5.74395">
        <ele>753.6</ele>
        <time>2021-04-22T11:12:37Z</time>
      </trkpt>
      <trkpt lat="44.81504" lon="5.74398">
        <ele>753.8</ele>
        <time>2021-04-22T11:12:38Z</time>
      </trkpt>
      <trkpt lat="44.81508" lon="5.744">
        <ele>753.9</ele>
        <time>2021-04-22T11:12:39Z</time>
      </trkpt>
      <trkpt lat="44.81511" lon="5.74402">
        <ele>754</ele>
        <time>2021-04-22T11:12:41Z</time>
      </trkpt>
      <trkpt lat="44.81514" lon="5.74404">
        <ele>754.2</ele>
        <time>2021-04-22T11:12:42Z</time>
      </trkpt>
      <trkpt lat="44.81518" lon="5.74406">
        <ele>754.3</ele>
        <time>2021-04-22T11:12:43Z</time>
      </trkpt>
      <trkpt lat="44.81523" lon="5.74408">
        <ele>754.5</ele>
        <time>2021-04-22T11:12:45Z</time>
      </trkpt>
      <trkpt lat="44.81526" lon="5.74411">
        <ele>754.7</ele>
        <time>2021-04-22T11:12:46Z</time>
      </trkpt>
      <trkpt lat="44.8153" lon="5.74413">
        <ele>754.9</ele>
        <time>2021-04-22T11:12:47Z</time>
      </trkpt>
      <trkpt lat="44.81534" lon="5.74415">
        <ele>755</ele>
        <time>2021-04-22T11:12:48Z</time>
      </trkpt>
      <trkpt lat="44.81539" lon="5.74417">
        <ele>755.3</ele>
        <time>2021-04-22T11:12:50Z</time>
      </trkpt>
      <trkpt lat="44.81543" lon="5.74419">
        <ele>755.5</ele>
        <time>2021-04-22T11:12:51Z</time>
      </trkpt>
      <trkpt lat="44.81547" lon="5.74421">
        <ele>755.6</ele>
        <time>2021-04-22T11:12:52Z</time>
      </trkpt>
      <trkpt lat="44.81553" lon="5.74425">
        <ele>755.9</ele>
        <time>2021-04-22T11:12:54Z</time>
      </trkpt>
      <trkpt lat="44.81558" lon="5.74427">
        <ele>756.1</ele>
        <time>2021-04-22T11:12:56Z</time>
      </trkpt>
      <trkpt lat="44.81564" lon="5.7443">
        <ele>756.4</ele>
        <time>2021-04-22T11:12:58Z</time>
      </trkpt>
      <trkpt lat="44.81568" lon="5.74432">
        <ele>756.5</ele>
        <time>2021-04-22T11:12:59Z</time>
      </trkpt>
      <trkpt lat="44.81575" lon="5.74436">
        <ele>756.8</ele>
        <time>2021-04-22T11:13:01Z</time>
      </trkpt>
      <trkpt lat="44.81581" lon="5.7444">
        <ele>757.1</ele>
        <time>2021-04-22T11:13:03Z</time>
      </trkpt>
      <trkpt lat="44.81584" lon="5.74442">
        <ele>757.3</ele>
        <time>2021-04-22T11:13:04Z</time>
      </trkpt>
      <trkpt lat="44.81592" lon="5.74447">
        <ele>757.6</ele>
        <time>2021-04-22T11:13:06Z</time>
      </trkpt>
      <trkpt lat="44.81599" lon="5.74451">
        <ele>758</ele>
        <time>2021-04-22T11:13:08Z</time>
      </trkpt>
      <trkpt lat="44.81607" lon="5.74455">
        <ele>758.3</ele>
        <time>2021-04-22T11:13:10Z</time>
      </trkpt>
      <trkpt lat="44.81611" lon="5.74458">
        <ele>758.5</ele>
        <time>2021-04-22T11:13:11Z</time>
      </trkpt>
      <trkpt lat="44.81615" lon="5.74463">
        <ele>758.8</ele>
        <time>2021-04-22T11:13:13Z</time>
      </trkpt>
      <trkpt lat="44.81617" lon="5.74466">
        <ele>758.9</ele>
        <time>2021-04-22T11:13:14Z</time>
      </trkpt>
      <trkpt lat="44.81622" lon="5.74473">
        <ele>759.3</ele>
        <time>2021-04-22T11:13:16Z</time>
      </trkpt>
      <trkpt lat="44.81626" lon="5.74479">
        <ele>759.6</ele>
        <time>2021-04-22T11:13:18Z</time>
      </trkpt>
      <trkpt lat="44.81628" lon="5.74486">
        <ele>759.9</ele>
        <time>2021-04-22T11:13:20Z</time>
      </trkpt>
      <trkpt lat="44.81629" lon="5.74491">
        <ele>760.1</ele>
        <time>2021-04-22T11:13:21Z</time>
      </trkpt>
      <trkpt lat="44.81632" lon="5.74497">
        <ele>760.4</ele>
        <time>2021-04-22T11:13:23Z</time>
      </trkpt>
      <trkpt lat="44.81632" lon="5.745">
        <ele>760.5</ele>
        <time>2021-04-22T11:13:24Z</time>
      </trkpt>
      <trkpt lat="44.81633" lon="5.74507">
        <ele>760.8</ele>
        <time>2021-04-22T11:13:26Z</time>
      </trkpt>
      <trkpt lat="44.81634" lon="5.74514">
        <ele>761</ele>
        <time>2021-04-22T11:13:28Z</time>
      </trkpt>
      <trkpt lat="44.81634" lon="5.74518">
        <ele>761.2</ele>
        <time>2021-04-22T11:13:29Z</time>
      </trkpt>
      <trkpt lat="44.81634" lon="5.74524">
        <ele>761.4</ele>
        <time>2021-04-22T11:13:30Z</time>
      </trkpt>
      <trkpt lat="44.81635" lon="5.74535">
        <ele>761.7</ele>
        <time>2021-04-22T11:13:32Z</time>
      </trkpt>
      <trkpt lat="44.81635" lon="5.74541">
        <ele>761.9</ele>
        <time>2021-04-22T11:13:33Z</time>
      </trkpt>
      <trkpt lat="44.81635" lon="5.74547">
        <ele>762</ele>
        <time>2021-04-22T11:13:35Z</time>
      </trkpt>
      <trkpt lat="44.81635" lon="5.74552">
        <ele>762.2</ele>
        <time>2021-04-22T11:13:36Z</time>
      </trkpt>
      <trkpt lat="44.81636" lon="5.74558">
        <ele>762.4</ele>
        <time>2021-04-22T11:13:37Z</time>
      </trkpt>
      <trkpt lat="44.81636" lon="5.74564">
        <ele>762.5</ele>
        <time>2021-04-22T11:13:39Z</time>
      </trkpt>
      <trkpt lat="44.81637" lon="5.74569">
        <ele>762.7</ele>
        <time>2021-04-22T11:13:40Z</time>
      </trkpt>
      <trkpt lat="44.81638" lon="5.74577">
        <ele>762.9</ele>
        <time>2021-04-22T11:13:41Z</time>
      </trkpt>
      <trkpt lat="44.81639" lon="5.74583">
        <ele>763.1</ele>
        <time>2021-04-22T11:13:43Z</time>
      </trkpt>
      <trkpt lat="44.81639" lon="5.74585">
        <ele>763.2</ele>
        <time>2021-04-22T11:13:44Z</time>
      </trkpt>
      <trkpt lat="44.81639" lon="5.74592">
        <ele>763.4</ele>
        <time>2021-04-22T11:13:45Z</time>
      </trkpt>
      <trkpt lat="44.8164" lon="5.74598">
        <ele>763.6</ele>
        <time>2021-04-22T11:13:46Z</time>
      </trkpt>
      <trkpt lat="44.81641" lon="5.74606">
        <ele>763.8</ele>
        <time>2021-04-22T11:13:48Z</time>
      </trkpt>
      <trkpt lat="44.81641" lon="5.74612">
        <ele>764</ele>
        <time>2021-04-22T11:13:50Z</time>
      </trkpt>
      <trkpt lat="44.81641" lon="5.74617">
        <ele>764.2</ele>
        <time>2021-04-22T11:13:51Z</time>
      </trkpt>
      <trkpt lat="44.81642" lon="5.74626">
        <ele>764.5</ele>
        <time>2021-04-22T11:13:53Z</time>
      </trkpt>
      <trkpt lat="44.81643" lon="5.74635">
        <ele>764.7</ele>
        <time>2021-04-22T11:13:55Z</time>
      </trkpt>
      <trkpt lat="44.81644" lon="5.74641">
        <ele>765</ele>
        <time>2021-04-22T11:13:57Z</time>
      </trkpt>
      <trkpt lat="44.81645" lon="5.74646">
        <ele>765.1</ele>
        <time>2021-04-22T11:13:58Z</time>
      </trkpt>
      <trkpt lat="44.81646" lon="5.74654">
        <ele>765.4</ele>
        <time>2021-04-22T11:14:00Z</time>
      </trkpt>
      <trkpt lat="44.81646" lon="5.74658">
        <ele>765.5</ele>
        <time>2021-04-22T11:14:01Z</time>
      </trkpt>
      <trkpt lat="44.81646" lon="5.74666">
        <ele>765.8</ele>
        <time>2021-04-22T11:14:03Z</time>
      </trkpt>
      <trkpt lat="44.81647" lon="5.74671">
        <ele>766</ele>
        <time>2021-04-22T11:14:04Z</time>
      </trkpt>
      <trkpt lat="44.81648" lon="5.74677">
        <ele>766.2</ele>
        <time>2021-04-22T11:14:05Z</time>
      </trkpt>
      <trkpt lat="44.8165" lon="5.74686">
        <ele>766.6</ele>
        <time>2021-04-22T11:14:07Z</time>
      </trkpt>
      <trkpt lat="44.8165" lon="5.74692">
        <ele>766.8</ele>
        <time>2021-04-22T11:14:08Z</time>
      </trkpt>
      <trkpt lat="44.81651" lon="5.74701">
        <ele>767.1</ele>
        <time>2021-04-22T11:14:10Z</time>
      </trkpt>
      <trkpt lat="44.81652" lon="5.74709">
        <ele>767.4</ele>
        <time>2021-04-22T11:14:12Z</time>
      </trkpt>
      <trkpt lat="44.81653" lon="5.74712">
        <ele>767.6</ele>
        <time>2021-04-22T11:14:13Z</time>
      </trkpt>
      <trkpt lat="44.81653" lon="5.74721">
        <ele>767.9</ele>
        <time>2021-04-22T11:14:15Z</time>
      </trkpt>
      <trkpt lat="44.81654" lon="5.74729">
        <ele>768.2</ele>
        <time>2021-04-22T11:14:17Z</time>
      </trkpt>
      <trkpt lat="44.81654" lon="5.74734">
        <ele>768.4</ele>
        <time>2021-04-22T11:14:18Z</time>
      </trkpt>
      <trkpt lat="44.81655" lon="5.7474">
        <ele>768.6</ele>
        <time>2021-04-22T11:14:19Z</time>
      </trkpt>
      <trkpt lat="44.81657" lon="5.74748">
        <ele>768.9</ele>
        <time>2021-04-22T11:14:21Z</time>
      </trkpt>
      <trkpt lat="44.81658" lon="5.74751">
        <ele>769.1</ele>
        <time>2021-04-22T11:14:22Z</time>
      </trkpt>
      <trkpt lat="44.81661" lon="5.7476">
        <ele>769.4</ele>
        <time>2021-04-22T11:14:24Z</time>
      </trkpt>
      <trkpt lat="44.81663" lon="5.74765">
        <ele>769.6</ele>
        <time>2021-04-22T11:14:25Z</time>
      </trkpt>
      <trkpt lat="44.81665" lon="5.74769">
        <ele>769.7</ele>
        <time>2021-04-22T11:14:26Z</time>
      </trkpt>
      <trkpt lat="44.81667" lon="5.74775">
        <ele>769.9</ele>
        <time>2021-04-22T11:14:27Z</time>
      </trkpt>
      <trkpt lat="44.81669" lon="5.74781">
        <ele>770.1</ele>
        <time>2021-04-22T11:14:29Z</time>
      </trkpt>
      <trkpt lat="44.81669" lon="5.74785">
        <ele>770.2</ele>
        <time>2021-04-22T11:14:30Z</time>
      </trkpt>
      <trkpt lat="44.81669" lon="5.74792">
        <ele>770.4</ele>
        <time>2021-04-22T11:14:31Z</time>
      </trkpt>
      <trkpt lat="44.81669" lon="5.74797">
        <ele>770.6</ele>
        <time>2021-04-22T11:14:33Z</time>
      </trkpt>
      <trkpt lat="44.81669" lon="5.74805">
        <ele>770.8</ele>
        <time>2021-04-22T11:14:35Z</time>
      </trkpt>
      <trkpt lat="44.81669" lon="5.74809">
        <ele>770.8</ele>
        <time>2021-04-22T11:14:36Z</time>
      </trkpt>
      <trkpt lat="44.81669" lon="5.74819">
        <ele>770.9</ele>
        <time>2021-04-22T11:14:38Z</time>
      </trkpt>
      <trkpt lat="44.8167" lon="5.74827">
        <ele>771</ele>
        <time>2021-04-22T11:14:39Z</time>
      </trkpt>
      <trkpt lat="44.81669" lon="5.74834">
        <ele>771.1</ele>
        <time>2021-04-22T11:14:40Z</time>
      </trkpt>
      <trkpt lat="44.81669" lon="5.74838">
        <ele>771.1</ele>
        <time>2021-04-22T11:14:42Z</time>
      </trkpt>
      <trkpt lat="44.81669" lon="5.74845">
        <ele>771.2</ele>
        <time>2021-04-22T11:14:43Z</time>
      </trkpt>
      <trkpt lat="44.81669" lon="5.74851">
        <ele>771.3</ele>
        <time>2021-04-22T11:14:44Z</time>
      </trkpt>
      <trkpt lat="44.81669" lon="5.74857">
        <ele>771.4</ele>
        <time>2021-04-22T11:14:45Z</time>
      </trkpt>
      <trkpt lat="44.81669" lon="5.74864">
        <ele>771.5</ele>
        <time>2021-04-22T11:14:46Z</time>
      </trkpt>
      <trkpt lat="44.81669" lon="5.7487">
        <ele>771.7</ele>
        <time>2021-04-22T11:14:48Z</time>
      </trkpt>
      <trkpt lat="44.81669" lon="5.74876">
        <ele>771.8</ele>
        <time>2021-04-22T11:14:49Z</time>
      </trkpt>
      <trkpt lat="44.81669" lon="5.74882">
        <ele>771.9</ele>
        <time>2021-04-22T11:14:50Z</time>
      </trkpt>
      <trkpt lat="44.81669" lon="5.74887">
        <ele>772</ele>
        <time>2021-04-22T11:14:51Z</time>
      </trkpt>
      <trkpt lat="44.81669" lon="5.74892">
        <ele>772.1</ele>
        <time>2021-04-22T11:14:52Z</time>
      </trkpt>
      <trkpt lat="44.81669" lon="5.74898">
        <ele>772.2</ele>
        <time>2021-04-22T11:14:53Z</time>
      </trkpt>
      <trkpt lat="44.81669" lon="5.74903">
        <ele>772.3</ele>
        <time>2021-04-22T11:14:54Z</time>
      </trkpt>
      <trkpt lat="44.8167" lon="5.74908">
        <ele>772.4</ele>
        <time>2021-04-22T11:14:55Z</time>
      </trkpt>
      <trkpt lat="44.8167" lon="5.74914">
        <ele>772.5</ele>
        <time>2021-04-22T11:14:56Z</time>
      </trkpt>
      <trkpt lat="44.81671" lon="5.7492">
        <ele>772.6</ele>
        <time>2021-04-22T11:14:57Z</time>
      </trkpt>
      <trkpt lat="44.81672" lon="5.74926">
        <ele>772.7</ele>
        <time>2021-04-22T11:14:58Z</time>
      </trkpt>
      <trkpt lat="44.81672" lon="5.74932">
        <ele>772.8</ele>
        <time>2021-04-22T11:14:59Z</time>
      </trkpt>
      <trkpt lat="44.81673" lon="5.74937">
        <ele>772.9</ele>
        <time>2021-04-22T11:15:00Z</time>
      </trkpt>
      <trkpt lat="44.81673" lon="5.74943">
        <ele>773</ele>
        <time>2021-04-22T11:15:01Z</time>
      </trkpt>
      <trkpt lat="44.81674" lon="5.7495">
        <ele>773.2</ele>
        <time>2021-04-22T11:15:02Z</time>
      </trkpt>
      <trkpt lat="44.81674" lon="5.74954">
        <ele>773.4</ele>
        <time>2021-04-22T11:15:03Z</time>
      </trkpt>
      <trkpt lat="44.81675" lon="5.74959">
        <ele>773.5</ele>
        <time>2021-04-22T11:15:04Z</time>
      </trkpt>
      <trkpt lat="44.81676" lon="5.74965">
        <ele>773.7</ele>
        <time>2021-04-22T11:15:05Z</time>
      </trkpt>
      <trkpt lat="44.81677" lon="5.7497">
        <ele>773.9</ele>
        <time>2021-04-22T11:15:06Z</time>
      </trkpt>
      <trkpt lat="44.81678" lon="5.74975">
        <ele>774.1</ele>
        <time>2021-04-22T11:15:07Z</time>
      </trkpt>
      <trkpt lat="44.81678" lon="5.74981">
        <ele>774.2</ele>
        <time>2021-04-22T11:15:08Z</time>
      </trkpt>
      <trkpt lat="44.81679" lon="5.74985">
        <ele>774.4</ele>
        <time>2021-04-22T11:15:09Z</time>
      </trkpt>
      <trkpt lat="44.81679" lon="5.74991">
        <ele>774.6</ele>
        <time>2021-04-22T11:15:10Z</time>
      </trkpt>
      <trkpt lat="44.8168" lon="5.74996">
        <ele>774.8</ele>
        <time>2021-04-22T11:15:11Z</time>
      </trkpt>
      <trkpt lat="44.8168" lon="5.75001">
        <ele>775</ele>
        <time>2021-04-22T11:15:12Z</time>
      </trkpt>
      <trkpt lat="44.81681" lon="5.75006">
        <ele>775.1</ele>
        <time>2021-04-22T11:15:13Z</time>
      </trkpt>
      <trkpt lat="44.81681" lon="5.75011">
        <ele>775.3</ele>
        <time>2021-04-22T11:15:14Z</time>
      </trkpt>
      <trkpt lat="44.81682" lon="5.75017">
        <ele>775.6</ele>
        <time>2021-04-22T11:15:15Z</time>
      </trkpt>
      <trkpt lat="44.81683" lon="5.75021">
        <ele>775.8</ele>
        <time>2021-04-22T11:15:16Z</time>
      </trkpt>
      <trkpt lat="44.81683" lon="5.75026">
        <ele>776</ele>
        <time>2021-04-22T11:15:17Z</time>
      </trkpt>
      <trkpt lat="44.81684" lon="5.75032">
        <ele>776.3</ele>
        <time>2021-04-22T11:15:18Z</time>
      </trkpt>
      <trkpt lat="44.81686" lon="5.75042">
        <ele>776.8</ele>
        <time>2021-04-22T11:15:20Z</time>
      </trkpt>
      <trkpt lat="44.81688" lon="5.75051">
        <ele>777.3</ele>
        <time>2021-04-22T11:15:22Z</time>
      </trkpt>
      <trkpt lat="44.81692" lon="5.75057">
        <ele>777.5</ele>
        <time>2021-04-22T11:15:24Z</time>
      </trkpt>
      <trkpt lat="44.81694" lon="5.75061">
        <ele>777.5</ele>
        <time>2021-04-22T11:15:25Z</time>
      </trkpt>
      <trkpt lat="44.81695" lon="5.75065">
        <ele>777.5</ele>
        <time>2021-04-22T11:15:26Z</time>
      </trkpt>
      <trkpt lat="44.81695" lon="5.7507">
        <ele>777.5</ele>
        <time>2021-04-22T11:15:27Z</time>
      </trkpt>
      <trkpt lat="44.81697" lon="5.75076">
        <ele>777.5</ele>
        <time>2021-04-22T11:15:29Z</time>
      </trkpt>
      <trkpt lat="44.81698" lon="5.75077">
        <ele>777.5</ele>
        <time>2021-04-22T11:15:30Z</time>
      </trkpt>
      <trkpt lat="44.81699" lon="5.75078">
        <ele>777.5</ele>
        <time>2021-04-22T11:15:31Z</time>
      </trkpt>
      <trkpt lat="44.81701" lon="5.75074">
        <ele>777.5</ele>
        <time>2021-04-22T11:15:33Z</time>
      </trkpt>
      <trkpt lat="44.81701" lon="5.75072">
        <ele>777.5</ele>
        <time>2021-04-22T11:15:34Z</time>
      </trkpt>
      <trkpt lat="44.817" lon="5.75067">
        <ele>777.6</ele>
        <time>2021-04-22T11:15:35Z</time>
      </trkpt>
      <trkpt lat="44.81703" lon="5.75061">
        <ele>777.6</ele>
        <time>2021-04-22T11:15:36Z</time>
      </trkpt>
      <trkpt lat="44.81701" lon="5.75055">
        <ele>777.6</ele>
        <time>2021-04-22T11:15:38Z</time>
      </trkpt>
      <trkpt lat="44.81697" lon="5.75051">
        <ele>777.6</ele>
        <time>2021-04-22T11:15:39Z</time>
      </trkpt>
      <trkpt lat="44.81696" lon="5.75047">
        <ele>777.6</ele>
        <time>2021-04-22T11:15:41Z</time>
      </trkpt>
      <trkpt lat="44.81698" lon="5.75045">
        <ele>777.6</ele>
        <time>2021-04-22T11:15:42Z</time>
      </trkpt>
      <trkpt lat="44.81701" lon="5.75045">
        <ele>777.6</ele>
        <time>2021-04-22T11:15:44Z</time>
      </trkpt>
      <trkpt lat="44.81703" lon="5.75048">
        <ele>777.6</ele>
        <time>2021-04-22T11:15:45Z</time>
      </trkpt>
      <trkpt lat="44.81705" lon="5.75049">
        <ele>777.6</ele>
        <time>2021-04-22T11:15:46Z</time>
      </trkpt>
      <trkpt lat="44.81709" lon="5.75048">
        <ele>777.7</ele>
        <time>2021-04-22T11:15:48Z</time>
      </trkpt>
      <trkpt lat="44.8171" lon="5.75049">
        <ele>777.7</ele>
        <time>2021-04-22T11:15:49Z</time>
      </trkpt>
      <trkpt lat="44.81711" lon="5.75051">
        <ele>777.8</ele>
        <time>2021-04-22T11:15:50Z</time>
      </trkpt>
      <trkpt lat="44.81713" lon="5.75055">
        <ele>777.8</ele>
        <time>2021-04-22T11:15:51Z</time>
      </trkpt>
      <trkpt lat="44.81713" lon="5.75057">
        <ele>777.9</ele>
        <time>2021-04-22T11:15:53Z</time>
      </trkpt>
      <trkpt lat="44.81713" lon="5.7506">
        <ele>777.9</ele>
        <time>2021-04-22T11:15:54Z</time>
      </trkpt>
      <trkpt lat="44.81713" lon="5.75063">
        <ele>778</ele>
        <time>2021-04-22T11:15:55Z</time>
      </trkpt>
      <trkpt lat="44.81711" lon="5.75071">
        <ele>778.1</ele>
        <time>2021-04-22T11:15:56Z</time>
      </trkpt>
      <trkpt lat="44.81709" lon="5.75077">
        <ele>778.3</ele>
        <time>2021-04-22T11:15:58Z</time>
      </trkpt>
      <trkpt lat="44.81708" lon="5.7508">
        <ele>778.3</ele>
        <time>2021-04-22T11:15:59Z</time>
      </trkpt>
      <trkpt lat="44.81709" lon="5.75085">
        <ele>778.4</ele>
        <time>2021-04-22T11:16:00Z</time>
      </trkpt>
      <trkpt lat="44.81711" lon="5.75092">
        <ele>778.6</ele>
        <time>2021-04-22T11:16:02Z</time>
      </trkpt>
      <trkpt lat="44.81712" lon="5.75096">
        <ele>778.7</ele>
        <time>2021-04-22T11:16:03Z</time>
      </trkpt>
      <trkpt lat="44.81713" lon="5.75099">
        <ele>778.8</ele>
        <time>2021-04-22T11:16:04Z</time>
      </trkpt>
      <trkpt lat="44.81715" lon="5.75104">
        <ele>778.9</ele>
        <time>2021-04-22T11:16:05Z</time>
      </trkpt>
      <trkpt lat="44.81716" lon="5.75109">
        <ele>779</ele>
        <time>2021-04-22T11:16:06Z</time>
      </trkpt>
      <trkpt lat="44.81716" lon="5.75116">
        <ele>779.2</ele>
        <time>2021-04-22T11:16:07Z</time>
      </trkpt>
      <trkpt lat="44.81715" lon="5.7512">
        <ele>779.3</ele>
        <time>2021-04-22T11:16:09Z</time>
      </trkpt>
      <trkpt lat="44.81715" lon="5.75125">
        <ele>779.3</ele>
        <time>2021-04-22T11:16:10Z</time>
      </trkpt>
      <trkpt lat="44.81716" lon="5.75132">
        <ele>779.5</ele>
        <time>2021-04-22T11:16:12Z</time>
      </trkpt>
      <trkpt lat="44.81716" lon="5.75136">
        <ele>779.6</ele>
        <time>2021-04-22T11:16:14Z</time>
      </trkpt>
      <trkpt lat="44.81717" lon="5.75141">
        <ele>779.7</ele>
        <time>2021-04-22T11:16:16Z</time>
      </trkpt>
      <trkpt lat="44.81717" lon="5.75142">
        <ele>779.7</ele>
        <time>2021-04-22T11:16:17Z</time>
      </trkpt>
      <trkpt lat="44.81715" lon="5.75141">
        <ele>779.8</ele>
        <time>2021-04-22T11:16:19Z</time>
      </trkpt>
      <trkpt lat="44.81715" lon="5.75142">
        <ele>779.8</ele>
        <time>2021-04-22T11:16:20Z</time>
      </trkpt>
      <trkpt lat="44.81714" lon="5.75143">
        <ele>779.8</ele>
        <time>2021-04-22T11:16:21Z</time>
      </trkpt>
      <trkpt lat="44.81714" lon="5.75144">
        <ele>779.8</ele>
        <time>2021-04-22T11:16:22Z</time>
      </trkpt>
      <trkpt lat="44.81714" lon="5.75144">
        <ele>779.8</ele>
        <time>2021-04-22T11:16:23Z</time>
      </trkpt>
      <trkpt lat="44.81714" lon="5.75144">
        <ele>779.9</ele>
        <time>2021-04-22T11:16:24Z</time>
      </trkpt>
      <trkpt lat="44.81714" lon="5.75145">
        <ele>779.9</ele>
        <time>2021-04-22T11:16:25Z</time>
      </trkpt>
      <trkpt lat="44.81715" lon="5.75145">
        <ele>779.9</ele>
        <time>2021-04-22T11:16:26Z</time>
      </trkpt>
      <trkpt lat="44.81715" lon="5.75145">
        <ele>779.9</ele>
        <time>2021-04-22T11:16:27Z</time>
      </trkpt>
      <trkpt lat="44.81715" lon="5.75145">
        <ele>779.9</ele>
        <time>2021-04-22T11:16:28Z</time>
      </trkpt>
      <trkpt lat="44.81714" lon="5.75146">
        <ele>779.9</ele>
        <time>2021-04-22T11:16:29Z</time>
      </trkpt>
      <trkpt lat="44.81714" lon="5.75148">
        <ele>779.9</ele>
        <time>2021-04-22T11:16:30Z</time>
      </trkpt>
      <trkpt lat="44.81715" lon="5.7515">
        <ele>780</ele>
        <time>2021-04-22T11:16:31Z</time>
      </trkpt>
      <trkpt lat="44.81715" lon="5.75151">
        <ele>780</ele>
        <time>2021-04-22T11:16:32Z</time>
      </trkpt>
      <trkpt lat="44.81716" lon="5.75151">
        <ele>780</ele>
        <time>2021-04-22T11:16:33Z</time>
      </trkpt>
      <trkpt lat="44.81716" lon="5.75152">
        <ele>780</ele>
        <time>2021-04-22T11:16:34Z</time>
      </trkpt>
      <trkpt lat="44.81716" lon="5.75153">
        <ele>780.1</ele>
        <time>2021-04-22T11:16:35Z</time>
      </trkpt>
      <trkpt lat="44.81716" lon="5.75155">
        <ele>780.1</ele>
        <time>2021-04-22T11:16:36Z</time>
      </trkpt>
      <trkpt lat="44.81718" lon="5.75158">
        <ele>780.2</ele>
        <time>2021-04-22T11:16:37Z</time>
      </trkpt>
      <trkpt lat="44.81719" lon="5.75158">
        <ele>780.2</ele>
        <time>2021-04-22T11:16:38Z</time>
      </trkpt>
      <trkpt lat="44.81721" lon="5.75159">
        <ele>780.3</ele>
        <time>2021-04-22T11:16:39Z</time>
      </trkpt>
      <trkpt lat="44.81722" lon="5.7516">
        <ele>780.3</ele>
        <time>2021-04-22T11:16:40Z</time>
      </trkpt>
      <trkpt lat="44.81725" lon="5.7516">
        <ele>780.3</ele>
        <time>2021-04-22T11:16:41Z</time>
      </trkpt>
      <trkpt lat="44.8173" lon="5.75155">
        <ele>780.3</ele>
        <time>2021-04-22T11:16:42Z</time>
      </trkpt>
      <trkpt lat="44.81737" lon="5.75143">
        <ele>780.3</ele>
        <time>2021-04-22T11:16:43Z</time>
      </trkpt>
      <trkpt lat="44.81742" lon="5.75138">
        <ele>780.3</ele>
        <time>2021-04-22T11:16:44Z</time>
      </trkpt>
      <trkpt lat="44.81745" lon="5.75136">
        <ele>780.3</ele>
        <time>2021-04-22T11:16:45Z</time>
      </trkpt>
      <trkpt lat="44.81749" lon="5.75133">
        <ele>780.3</ele>
        <time>2021-04-22T11:16:46Z</time>
      </trkpt>
      <trkpt lat="44.81752" lon="5.75132">
        <ele>780.3</ele>
        <time>2021-04-22T11:16:47Z</time>
      </trkpt>
      <trkpt lat="44.81753" lon="5.75131">
        <ele>780.3</ele>
        <time>2021-04-22T11:16:48Z</time>
      </trkpt>
      <trkpt lat="44.81754" lon="5.7513">
        <ele>780.3</ele>
        <time>2021-04-22T11:16:49Z</time>
      </trkpt>
      <trkpt lat="44.81755" lon="5.75127">
        <ele>780.3</ele>
        <time>2021-04-22T11:16:50Z</time>
      </trkpt>
      <trkpt lat="44.81755" lon="5.75126">
        <ele>780.3</ele>
        <time>2021-04-22T11:16:51Z</time>
      </trkpt>
      <trkpt lat="44.81755" lon="5.75124">
        <ele>780.3</ele>
        <time>2021-04-22T11:16:52Z</time>
      </trkpt>
      <trkpt lat="44.81756" lon="5.7512">
        <ele>780.2</ele>
        <time>2021-04-22T11:16:53Z</time>
      </trkpt>
      <trkpt lat="44.81756" lon="5.75119">
        <ele>780.2</ele>
        <time>2021-04-22T11:16:54Z</time>
      </trkpt>
      <trkpt lat="44.81754" lon="5.75113">
        <ele>780</ele>
        <time>2021-04-22T11:16:55Z</time>
      </trkpt>
      <trkpt lat="44.81754" lon="5.75111">
        <ele>779.9</ele>
        <time>2021-04-22T11:16:56Z</time>
      </trkpt>
      <trkpt lat="44.81753" lon="5.75108">
        <ele>779.8</ele>
        <time>2021-04-22T11:16:57Z</time>
      </trkpt>
      <trkpt lat="44.81752" lon="5.75104">
        <ele>779.7</ele>
        <time>2021-04-22T11:16:58Z</time>
      </trkpt>
      <trkpt lat="44.81751" lon="5.75101">
        <ele>779.2</ele>
        <time>2021-04-22T11:16:59Z</time>
      </trkpt>
      <trkpt lat="44.81748" lon="5.75097">
        <ele>779.2</ele>
        <time>2021-04-22T11:17:00Z</time>
      </trkpt>
      <trkpt lat="44.81745" lon="5.75095">
        <ele>779.2</ele>
        <time>2021-04-22T11:17:01Z</time>
      </trkpt>
      <trkpt lat="44.81743" lon="5.75094">
        <ele>779.2</ele>
        <time>2021-04-22T11:17:02Z</time>
      </trkpt>
      <trkpt lat="44.8174" lon="5.75093">
        <ele>779.1</ele>
        <time>2021-04-22T11:17:03Z</time>
      </trkpt>
      <trkpt lat="44.81739" lon="5.75092">
        <ele>779.1</ele>
        <time>2021-04-22T11:17:04Z</time>
      </trkpt>
      <trkpt lat="44.81736" lon="5.75092">
        <ele>779.1</ele>
        <time>2021-04-22T11:17:05Z</time>
      </trkpt>
      <trkpt lat="44.81735" lon="5.75092">
        <ele>779.1</ele>
        <time>2021-04-22T11:17:06Z</time>
      </trkpt>
      <trkpt lat="44.81731" lon="5.75092">
        <ele>779.1</ele>
        <time>2021-04-22T11:17:07Z</time>
      </trkpt>
      <trkpt lat="44.81729" lon="5.75093">
        <ele>779.1</ele>
        <time>2021-04-22T11:17:08Z</time>
      </trkpt>
      <trkpt lat="44.81726" lon="5.75093">
        <ele>779</ele>
        <time>2021-04-22T11:17:09Z</time>
      </trkpt>
      <trkpt lat="44.81723" lon="5.75094">
        <ele>778.9</ele>
        <time>2021-04-22T11:17:10Z</time>
      </trkpt>
      <trkpt lat="44.8172" lon="5.75095">
        <ele>778.8</ele>
        <time>2021-04-22T11:17:11Z</time>
      </trkpt>
      <trkpt lat="44.81716" lon="5.75095">
        <ele>778.8</ele>
        <time>2021-04-22T11:17:12Z</time>
      </trkpt>
      <trkpt lat="44.81713" lon="5.75096">
        <ele>778.7</ele>
        <time>2021-04-22T11:17:13Z</time>
      </trkpt>
      <trkpt lat="44.8171" lon="5.75096">
        <ele>778.7</ele>
        <time>2021-04-22T11:17:14Z</time>
      </trkpt>
      <trkpt lat="44.81707" lon="5.75095">
        <ele>778.6</ele>
        <time>2021-04-22T11:17:15Z</time>
      </trkpt>
      <trkpt lat="44.81704" lon="5.7509">
        <ele>778.5</ele>
        <time>2021-04-22T11:17:16Z</time>
      </trkpt>
      <trkpt lat="44.81703" lon="5.75086">
        <ele>778.3</ele>
        <time>2021-04-22T11:17:17Z</time>
      </trkpt>
      <trkpt lat="44.81703" lon="5.75081">
        <ele>778.2</ele>
        <time>2021-04-22T11:17:18Z</time>
      </trkpt>
      <trkpt lat="44.81703" lon="5.75075">
        <ele>778</ele>
        <time>2021-04-22T11:17:19Z</time>
      </trkpt>
      <trkpt lat="44.81703" lon="5.75069">
        <ele>777.9</ele>
        <time>2021-04-22T11:17:20Z</time>
      </trkpt>
      <trkpt lat="44.81702" lon="5.75064">
        <ele>777.8</ele>
        <time>2021-04-22T11:17:21Z</time>
      </trkpt>
      <trkpt lat="44.81702" lon="5.7506">
        <ele>777.7</ele>
        <time>2021-04-22T11:17:22Z</time>
      </trkpt>
      <trkpt lat="44.81703" lon="5.75056">
        <ele>777.6</ele>
        <time>2021-04-22T11:17:23Z</time>
      </trkpt>
      <trkpt lat="44.81706" lon="5.75052">
        <ele>777.6</ele>
        <time>2021-04-22T11:17:24Z</time>
      </trkpt>
      <trkpt lat="44.81706" lon="5.75051">
        <ele>777.6</ele>
        <time>2021-04-22T11:17:25Z</time>
      </trkpt>
      <trkpt lat="44.81708" lon="5.75049">
        <ele>777.6</ele>
        <time>2021-04-22T11:17:26Z</time>
      </trkpt>
      <trkpt lat="44.81708" lon="5.75048">
        <ele>777.6</ele>
        <time>2021-04-22T11:17:27Z</time>
      </trkpt>
      <trkpt lat="44.81709" lon="5.75046">
        <ele>777.6</ele>
        <time>2021-04-22T11:17:28Z</time>
      </trkpt>
      <trkpt lat="44.81707" lon="5.75043">
        <ele>777.6</ele>
        <time>2021-04-22T11:17:29Z</time>
      </trkpt>
      <trkpt lat="44.81706" lon="5.75042">
        <ele>777.6</ele>
        <time>2021-04-22T11:17:30Z</time>
      </trkpt>
      <trkpt lat="44.81706" lon="5.75042">
        <ele>777.6</ele>
        <time>2021-04-22T11:17:31Z</time>
      </trkpt>
      <trkpt lat="44.81705" lon="5.75041">
        <ele>777.6</ele>
        <time>2021-04-22T11:17:32Z</time>
      </trkpt>
      <trkpt lat="44.81704" lon="5.75042">
        <ele>777.6</ele>
        <time>2021-04-22T11:17:33Z</time>
      </trkpt>
      <trkpt lat="44.81704" lon="5.75042">
        <ele>777.6</ele>
        <time>2021-04-22T11:17:34Z</time>
      </trkpt>
      <trkpt lat="44.81703" lon="5.75043">
        <ele>777.6</ele>
        <time>2021-04-22T11:17:35Z</time>
      </trkpt>
      <trkpt lat="44.81703" lon="5.75044">
        <ele>777.6</ele>
        <time>2021-04-22T11:17:36Z</time>
      </trkpt>
      <trkpt lat="44.81702" lon="5.75044">
        <ele>777.6</ele>
        <time>2021-04-22T11:17:37Z</time>
      </trkpt>
      <trkpt lat="44.81702" lon="5.75044">
        <ele>777.6</ele>
        <time>2021-04-22T11:17:38Z</time>
      </trkpt>
      <trkpt lat="44.81702" lon="5.75044">
        <ele>777.6</ele>
        <time>2021-04-22T11:17:39Z</time>
      </trkpt>
      <trkpt lat="44.81701" lon="5.75044">
        <ele>777.6</ele>
        <time>2021-04-22T11:17:40Z</time>
      </trkpt>
      <trkpt lat="44.81701" lon="5.75044">
        <ele>777.6</ele>
        <time>2021-04-22T11:17:41Z</time>
      </trkpt>
      <trkpt lat="44.81701" lon="5.75043">
        <ele>777.6</ele>
        <time>2021-04-22T11:17:42Z</time>
      </trkpt>
      <trkpt lat="44.81701" lon="5.75043">
        <ele>777.6</ele>
        <time>2021-04-22T11:17:43Z</time>
      </trkpt>
      <trkpt lat="44.81701" lon="5.75043">
        <ele>777.6</ele>
        <time>2021-04-22T11:17:44Z</time>
      </trkpt>
      <trkpt lat="44.817" lon="5.75043">
        <ele>777.6</ele>
        <time>2021-04-22T11:17:45Z</time>
      </trkpt>
      <trkpt lat="44.817" lon="5.75043">
        <ele>777.6</ele>
        <time>2021-04-22T11:17:46Z</time>
      </trkpt>
      <trkpt lat="44.817" lon="5.75043">
        <ele>777.6</ele>
        <time>2021-04-22T11:17:47Z</time>
      </trkpt>
      <trkpt lat="44.817" lon="5.75043">
        <ele>777.6</ele>
        <time>2021-04-22T11:17:48Z</time>
      </trkpt>
      <trkpt lat="44.817" lon="5.75043">
        <ele>777.6</ele>
        <time>2021-04-22T11:17:49Z</time>
      </trkpt>
      <trkpt lat="44.817" lon="5.75043">
        <ele>777.6</ele>
        <time>2021-04-22T11:17:50Z</time>
      </trkpt>
      <trkpt lat="44.817" lon="5.75043">
        <ele>777.6</ele>
        <time>2021-04-22T11:17:51Z</time>
      </trkpt>
      <trkpt lat="44.817" lon="5.75044">
        <ele>777.6</ele>
        <time>2021-04-22T11:17:52Z</time>
      </trkpt>
      <trkpt lat="44.817" lon="5.75044">
        <ele>777.6</ele>
        <time>2021-04-22T11:17:53Z</time>
      </trkpt>
      <trkpt lat="44.817" lon="5.75047">
        <ele>777.6</ele>
        <time>2021-04-22T11:18:09Z</time>
      </trkpt>
      <trkpt lat="44.81699" lon="5.75048">
        <ele>777.6</ele>
        <time>2021-04-22T11:18:10Z</time>
      </trkpt>
      <trkpt lat="44.81699" lon="5.75049">
        <ele>777.5</ele>
        <time>2021-04-22T11:18:11Z</time>
      </trkpt>
      <trkpt lat="44.81699" lon="5.75051">
        <ele>777.5</ele>
        <time>2021-04-22T11:18:12Z</time>
      </trkpt>
      <trkpt lat="44.81699" lon="5.75052">
        <ele>777.5</ele>
        <time>2021-04-22T11:18:13Z</time>
      </trkpt>
      <trkpt lat="44.81699" lon="5.75052">
        <ele>777.5</ele>
        <time>2021-04-22T11:18:14Z</time>
      </trkpt>
      <trkpt lat="44.817" lon="5.75052">
        <ele>777.5</ele>
        <time>2021-04-22T11:18:15Z</time>
      </trkpt>
      <trkpt lat="44.817" lon="5.75053">
        <ele>777.5</ele>
        <time>2021-04-22T11:18:16Z</time>
      </trkpt>
      <trkpt lat="44.817" lon="5.75053">
        <ele>777.5</ele>
        <time>2021-04-22T11:18:17Z</time>
      </trkpt>
      <trkpt lat="44.817" lon="5.75053">
        <ele>777.5</ele>
        <time>2021-04-22T11:18:18Z</time>
      </trkpt>
      <trkpt lat="44.817" lon="5.75053">
        <ele>777.5</ele>
        <time>2021-04-22T11:18:19Z</time>
      </trkpt>
      <trkpt lat="44.817" lon="5.75053">
        <ele>777.5</ele>
        <time>2021-04-22T11:18:20Z</time>
      </trkpt>
      <trkpt lat="44.81701" lon="5.75052">
        <ele>777.5</ele>
        <time>2021-04-22T11:18:21Z</time>
      </trkpt>
      <trkpt lat="44.81701" lon="5.75052">
        <ele>777.5</ele>
        <time>2021-04-22T11:18:22Z</time>
      </trkpt>
      <trkpt lat="44.81701" lon="5.75053">
        <ele>777.5</ele>
        <time>2021-04-22T11:18:23Z</time>
      </trkpt>
      <trkpt lat="44.81701" lon="5.75053">
        <ele>777.5</ele>
        <time>2021-04-22T11:18:24Z</time>
      </trkpt>
      <trkpt lat="44.81701" lon="5.75054">
        <ele>777.5</ele>
        <time>2021-04-22T11:18:25Z</time>
      </trkpt>
      <trkpt lat="44.81701" lon="5.75055">
        <ele>777.5</ele>
        <time>2021-04-22T11:18:26Z</time>
      </trkpt>
      <trkpt lat="44.81701" lon="5.75056">
        <ele>777.5</ele>
        <time>2021-04-22T11:18:27Z</time>
      </trkpt>
      <trkpt lat="44.81701" lon="5.75056">
        <ele>777.5</ele>
        <time>2021-04-22T11:18:28Z</time>
      </trkpt>
      <trkpt lat="44.81701" lon="5.75056">
        <ele>777.5</ele>
        <time>2021-04-22T11:18:29Z</time>
      </trkpt>
      <trkpt lat="44.81701" lon="5.75056">
        <ele>777.5</ele>
        <time>2021-04-22T11:18:30Z</time>
      </trkpt>
      <trkpt lat="44.81701" lon="5.75056">
        <ele>777.5</ele>
        <time>2021-04-22T11:18:31Z</time>
      </trkpt>
      <trkpt lat="44.81701" lon="5.75056">
        <ele>777.5</ele>
        <time>2021-04-22T11:18:32Z</time>
      </trkpt>
      <trkpt lat="44.81701" lon="5.75056">
        <ele>777.5</ele>
        <time>2021-04-22T11:18:33Z</time>
      </trkpt>
      <trkpt lat="44.81701" lon="5.75056">
        <ele>777.5</ele>
        <time>2021-04-22T11:18:34Z</time>
      </trkpt>
      <trkpt lat="44.81701" lon="5.75056">
        <ele>777.5</ele>
        <time>2021-04-22T11:18:35Z</time>
      </trkpt>
      <trkpt lat="44.81701" lon="5.75056">
        <ele>777.5</ele>
        <time>2021-04-22T11:18:36Z</time>
      </trkpt>
      <trkpt lat="44.81701" lon="5.75056">
        <ele>777.5</ele>
        <time>2021-04-22T11:18:37Z</time>
      </trkpt>
      <trkpt lat="44.81701" lon="5.75056">
        <ele>777.5</ele>
        <time>2021-04-22T11:18:38Z</time>
      </trkpt>
      <trkpt lat="44.81704" lon="5.75061">
        <ele>777.5</ele>
        <time>2021-04-22T11:21:36Z</time>
      </trkpt>
      <trkpt lat="44.81705" lon="5.75061">
        <ele>777.5</ele>
        <time>2021-04-22T11:21:37Z</time>
      </trkpt>
      <trkpt lat="44.81706" lon="5.75062">
        <ele>777.5</ele>
        <time>2021-04-22T11:21:38Z</time>
      </trkpt>
      <trkpt lat="44.81707" lon="5.75062">
        <ele>777.5</ele>
        <time>2021-04-22T11:21:39Z</time>
      </trkpt>
      <trkpt lat="44.81707" lon="5.7506">
        <ele>777.4</ele>
        <time>2021-04-22T11:21:40Z</time>
      </trkpt>
      <trkpt lat="44.81708" lon="5.7506">
        <ele>777.4</ele>
        <time>2021-04-22T11:21:42Z</time>
      </trkpt>
      <trkpt lat="44.81709" lon="5.75059">
        <ele>777.4</ele>
        <time>2021-04-22T11:21:43Z</time>
      </trkpt>
      <trkpt lat="44.81711" lon="5.75056">
        <ele>777.4</ele>
        <time>2021-04-22T11:21:44Z</time>
      </trkpt>
      <trkpt lat="44.81712" lon="5.75055">
        <ele>777.4</ele>
        <time>2021-04-22T11:21:46Z</time>
      </trkpt>
      <trkpt lat="44.81712" lon="5.75053">
        <ele>777.4</ele>
        <time>2021-04-22T11:21:47Z</time>
      </trkpt>
      <trkpt lat="44.81713" lon="5.75052">
        <ele>777.4</ele>
        <time>2021-04-22T11:21:48Z</time>
      </trkpt>
      <trkpt lat="44.81714" lon="5.7505">
        <ele>777.4</ele>
        <time>2021-04-22T11:21:49Z</time>
      </trkpt>
      <trkpt lat="44.81716" lon="5.75047">
        <ele>777.3</ele>
        <time>2021-04-22T11:21:51Z</time>
      </trkpt>
      <trkpt lat="44.81717" lon="5.75045">
        <ele>777.3</ele>
        <time>2021-04-22T11:21:52Z</time>
      </trkpt>
      <trkpt lat="44.81719" lon="5.75044">
        <ele>777.3</ele>
        <time>2021-04-22T11:21:54Z</time>
      </trkpt>
      <trkpt lat="44.81719" lon="5.75042">
        <ele>777.3</ele>
        <time>2021-04-22T11:21:55Z</time>
      </trkpt>
      <trkpt lat="44.8172" lon="5.75041">
        <ele>777.3</ele>
        <time>2021-04-22T11:21:56Z</time>
      </trkpt>
      <trkpt lat="44.8172" lon="5.7504">
        <ele>777.3</ele>
        <time>2021-04-22T11:21:57Z</time>
      </trkpt>
      <trkpt lat="44.8172" lon="5.75039">
        <ele>777.3</ele>
        <time>2021-04-22T11:21:58Z</time>
      </trkpt>
      <trkpt lat="44.8172" lon="5.75039">
        <ele>777.3</ele>
        <time>2021-04-22T11:21:59Z</time>
      </trkpt>
      <trkpt lat="44.8172" lon="5.75038">
        <ele>777.3</ele>
        <time>2021-04-22T11:22:00Z</time>
      </trkpt>
      <trkpt lat="44.8172" lon="5.75038">
        <ele>777.3</ele>
        <time>2021-04-22T11:22:01Z</time>
      </trkpt>
      <trkpt lat="44.8172" lon="5.75037">
        <ele>777.3</ele>
        <time>2021-04-22T11:22:02Z</time>
      </trkpt>
      <trkpt lat="44.8172" lon="5.75037">
        <ele>777.2</ele>
        <time>2021-04-22T11:22:03Z</time>
      </trkpt>
      <trkpt lat="44.81721" lon="5.75037">
        <ele>777.2</ele>
        <time>2021-04-22T11:22:04Z</time>
      </trkpt>
      <trkpt lat="44.81721" lon="5.75037">
        <ele>777.2</ele>
        <time>2021-04-22T11:22:05Z</time>
      </trkpt>
      <trkpt lat="44.81724" lon="5.75036">
        <ele>777.2</ele>
        <time>2021-04-22T11:36:46Z</time>
      </trkpt>
      <trkpt lat="44.81725" lon="5.75035">
        <ele>777.2</ele>
        <time>2021-04-22T11:36:47Z</time>
      </trkpt>
      <trkpt lat="44.81725" lon="5.75034">
        <ele>777.2</ele>
        <time>2021-04-22T11:36:48Z</time>
      </trkpt>
      <trkpt lat="44.81725" lon="5.75033">
        <ele>777.2</ele>
        <time>2021-04-22T11:36:49Z</time>
      </trkpt>
      <trkpt lat="44.81725" lon="5.75033">
        <ele>777.2</ele>
        <time>2021-04-22T11:36:50Z</time>
      </trkpt>
      <trkpt lat="44.81726" lon="5.75033">
        <ele>777.2</ele>
        <time>2021-04-22T11:36:51Z</time>
      </trkpt>
      <trkpt lat="44.81726" lon="5.75033">
        <ele>777.2</ele>
        <time>2021-04-22T11:36:52Z</time>
      </trkpt>
      <trkpt lat="44.81726" lon="5.75033">
        <ele>777.2</ele>
        <time>2021-04-22T11:36:53Z</time>
      </trkpt>
      <trkpt lat="44.81726" lon="5.75033">
        <ele>777.2</ele>
        <time>2021-04-22T11:36:54Z</time>
      </trkpt>
      <trkpt lat="44.81726" lon="5.75032">
        <ele>777.2</ele>
        <time>2021-04-22T11:36:55Z</time>
      </trkpt>
      <trkpt lat="44.81726" lon="5.75033">
        <ele>777.2</ele>
        <time>2021-04-22T11:36:56Z</time>
      </trkpt>
      <trkpt lat="44.81726" lon="5.75033">
        <ele>777.2</ele>
        <time>2021-04-22T11:36:57Z</time>
      </trkpt>
      <trkpt lat="44.81726" lon="5.75033">
        <ele>777.2</ele>
        <time>2021-04-22T11:36:58Z</time>
      </trkpt>
      <trkpt lat="44.81725" lon="5.75034">
        <ele>777.2</ele>
        <time>2021-04-22T11:36:59Z</time>
      </trkpt>
      <trkpt lat="44.81724" lon="5.75034">
        <ele>777.3</ele>
        <time>2021-04-22T11:37:00Z</time>
      </trkpt>
      <trkpt lat="44.81723" lon="5.75034">
        <ele>777.3</ele>
        <time>2021-04-22T11:37:01Z</time>
      </trkpt>
      <trkpt lat="44.81722" lon="5.75034">
        <ele>777.3</ele>
        <time>2021-04-22T11:37:02Z</time>
      </trkpt>
      <trkpt lat="44.81721" lon="5.75034">
        <ele>777.3</ele>
        <time>2021-04-22T11:37:03Z</time>
      </trkpt>
      <trkpt lat="44.81721" lon="5.75034">
        <ele>777.3</ele>
        <time>2021-04-22T11:37:04Z</time>
      </trkpt>
      <trkpt lat="44.81721" lon="5.75035">
        <ele>777.3</ele>
        <time>2021-04-22T11:37:05Z</time>
      </trkpt>
      <trkpt lat="44.8172" lon="5.75035">
        <ele>777.3</ele>
        <time>2021-04-22T11:37:06Z</time>
      </trkpt>
      <trkpt lat="44.8172" lon="5.75035">
        <ele>777.3</ele>
        <time>2021-04-22T11:37:07Z</time>
      </trkpt>
      <trkpt lat="44.81719" lon="5.75035">
        <ele>777.4</ele>
        <time>2021-04-22T11:37:08Z</time>
      </trkpt>
      <trkpt lat="44.81719" lon="5.75036">
        <ele>777.4</ele>
        <time>2021-04-22T11:37:09Z</time>
      </trkpt>
      <trkpt lat="44.81719" lon="5.75036">
        <ele>777.4</ele>
        <time>2021-04-22T11:37:10Z</time>
      </trkpt>
      <trkpt lat="44.81718" lon="5.75036">
        <ele>777.4</ele>
        <time>2021-04-22T11:37:11Z</time>
      </trkpt>
      <trkpt lat="44.81718" lon="5.75037">
        <ele>777.4</ele>
        <time>2021-04-22T11:37:12Z</time>
      </trkpt>
      <trkpt lat="44.81717" lon="5.75037">
        <ele>777.4</ele>
        <time>2021-04-22T11:37:13Z</time>
      </trkpt>
      <trkpt lat="44.81717" lon="5.75037">
        <ele>777.4</ele>
        <time>2021-04-22T11:37:14Z</time>
      </trkpt>
      <trkpt lat="44.81717" lon="5.75037">
        <ele>777.4</ele>
        <time>2021-04-22T11:38:17Z</time>
      </trkpt>
      <trkpt lat="44.81716" lon="5.75038">
        <ele>777.4</ele>
        <time>2021-04-22T11:38:18Z</time>
      </trkpt>
      <trkpt lat="44.81716" lon="5.75038">
        <ele>777.4</ele>
        <time>2021-04-22T11:38:19Z</time>
      </trkpt>
      <trkpt lat="44.81713" lon="5.75039">
        <ele>777.5</ele>
        <time>2021-04-22T11:38:20Z</time>
      </trkpt>
      <trkpt lat="44.81712" lon="5.75039">
        <ele>777.5</ele>
        <time>2021-04-22T11:38:21Z</time>
      </trkpt>
      <trkpt lat="44.81709" lon="5.75041">
        <ele>777.5</ele>
        <time>2021-04-22T11:38:22Z</time>
      </trkpt>
      <trkpt lat="44.81707" lon="5.75042">
        <ele>777.6</ele>
        <time>2021-04-22T11:38:23Z</time>
      </trkpt>
      <trkpt lat="44.81704" lon="5.75045">
        <ele>777.6</ele>
        <time>2021-04-22T11:38:24Z</time>
      </trkpt>
      <trkpt lat="44.81701" lon="5.75047">
        <ele>777.6</ele>
        <time>2021-04-22T11:38:25Z</time>
      </trkpt>
      <trkpt lat="44.81699" lon="5.7505">
        <ele>777.6</ele>
        <time>2021-04-22T11:38:26Z</time>
      </trkpt>
      <trkpt lat="44.81696" lon="5.75052">
        <ele>777.5</ele>
        <time>2021-04-22T11:38:27Z</time>
      </trkpt>
      <trkpt lat="44.81695" lon="5.75053">
        <ele>777.5</ele>
        <time>2021-04-22T11:38:28Z</time>
      </trkpt>
      <trkpt lat="44.81691" lon="5.75054">
        <ele>777.4</ele>
        <time>2021-04-22T11:38:29Z</time>
      </trkpt>
      <trkpt lat="44.8169" lon="5.75055">
        <ele>777.4</ele>
        <time>2021-04-22T11:38:30Z</time>
      </trkpt>
      <trkpt lat="44.81687" lon="5.75056">
        <ele>777.3</ele>
        <time>2021-04-22T11:38:31Z</time>
      </trkpt>
      <trkpt lat="44.81683" lon="5.75057">
        <ele>777.2</ele>
        <time>2021-04-22T11:38:32Z</time>
      </trkpt>
      <trkpt lat="44.8168" lon="5.75058">
        <ele>777.1</ele>
        <time>2021-04-22T11:38:33Z</time>
      </trkpt>
      <trkpt lat="44.81676" lon="5.7506">
        <ele>777.1</ele>
        <time>2021-04-22T11:38:34Z</time>
      </trkpt>
      <trkpt lat="44.81672" lon="5.75062">
        <ele>777</ele>
        <time>2021-04-22T11:38:35Z</time>
      </trkpt>
      <trkpt lat="44.81668" lon="5.75063">
        <ele>776.9</ele>
        <time>2021-04-22T11:38:36Z</time>
      </trkpt>
      <trkpt lat="44.81664" lon="5.75064">
        <ele>776.8</ele>
        <time>2021-04-22T11:38:37Z</time>
      </trkpt>
      <trkpt lat="44.81659" lon="5.75065">
        <ele>776.7</ele>
        <time>2021-04-22T11:38:38Z</time>
      </trkpt>
      <trkpt lat="44.81653" lon="5.75066">
        <ele>776.6</ele>
        <time>2021-04-22T11:38:39Z</time>
      </trkpt>
      <trkpt lat="44.81648" lon="5.75068">
        <ele>776.5</ele>
        <time>2021-04-22T11:38:40Z</time>
      </trkpt>
      <trkpt lat="44.81645" lon="5.75069">
        <ele>776.5</ele>
        <time>2021-04-22T11:38:41Z</time>
      </trkpt>
      <trkpt lat="44.81639" lon="5.75071">
        <ele>776.4</ele>
        <time>2021-04-22T11:38:42Z</time>
      </trkpt>
      <trkpt lat="44.81633" lon="5.75072">
        <ele>776.3</ele>
        <time>2021-04-22T11:38:43Z</time>
      </trkpt>
      <trkpt lat="44.81627" lon="5.75072">
        <ele>776.2</ele>
        <time>2021-04-22T11:38:44Z</time>
      </trkpt>
      <trkpt lat="44.81621" lon="5.75073">
        <ele>776.1</ele>
        <time>2021-04-22T11:38:45Z</time>
      </trkpt>
      <trkpt lat="44.81615" lon="5.75074">
        <ele>776</ele>
        <time>2021-04-22T11:38:46Z</time>
      </trkpt>
      <trkpt lat="44.81609" lon="5.75075">
        <ele>775.9</ele>
        <time>2021-04-22T11:38:47Z</time>
      </trkpt>
      <trkpt lat="44.81604" lon="5.75076">
        <ele>775.8</ele>
        <time>2021-04-22T11:38:48Z</time>
      </trkpt>
      <trkpt lat="44.81598" lon="5.75076">
        <ele>775.7</ele>
        <time>2021-04-22T11:38:49Z</time>
      </trkpt>
      <trkpt lat="44.81593" lon="5.75077">
        <ele>775.6</ele>
        <time>2021-04-22T11:38:50Z</time>
      </trkpt>
      <trkpt lat="44.81587" lon="5.75078">
        <ele>775.5</ele>
        <time>2021-04-22T11:38:51Z</time>
      </trkpt>
      <trkpt lat="44.81581" lon="5.75078">
        <ele>775.4</ele>
        <time>2021-04-22T11:38:52Z</time>
      </trkpt>
      <trkpt lat="44.81575" lon="5.75079">
        <ele>775.3</ele>
        <time>2021-04-22T11:38:53Z</time>
      </trkpt>
      <trkpt lat="44.81569" lon="5.7508">
        <ele>775.2</ele>
        <time>2021-04-22T11:38:54Z</time>
      </trkpt>
      <trkpt lat="44.81563" lon="5.75081">
        <ele>775.1</ele>
        <time>2021-04-22T11:38:55Z</time>
      </trkpt>
      <trkpt lat="44.81557" lon="5.75082">
        <ele>775</ele>
        <time>2021-04-22T11:38:56Z</time>
      </trkpt>
      <trkpt lat="44.81551" lon="5.75083">
        <ele>775</ele>
        <time>2021-04-22T11:38:57Z</time>
      </trkpt>
      <trkpt lat="44.81546" lon="5.75084">
        <ele>774.9</ele>
        <time>2021-04-22T11:38:58Z</time>
      </trkpt>
      <trkpt lat="44.8154" lon="5.75085">
        <ele>774.9</ele>
        <time>2021-04-22T11:38:59Z</time>
      </trkpt>
      <trkpt lat="44.81534" lon="5.75085">
        <ele>774.8</ele>
        <time>2021-04-22T11:39:00Z</time>
      </trkpt>
      <trkpt lat="44.81528" lon="5.75086">
        <ele>774.8</ele>
        <time>2021-04-22T11:39:01Z</time>
      </trkpt>
      <trkpt lat="44.81523" lon="5.75087">
        <ele>774.8</ele>
        <time>2021-04-22T11:39:02Z</time>
      </trkpt>
      <trkpt lat="44.81517" lon="5.75088">
        <ele>774.8</ele>
        <time>2021-04-22T11:39:03Z</time>
      </trkpt>
      <trkpt lat="44.81512" lon="5.75089">
        <ele>774.8</ele>
        <time>2021-04-22T11:39:04Z</time>
      </trkpt>
      <trkpt lat="44.81507" lon="5.7509">
        <ele>774.8</ele>
        <time>2021-04-22T11:39:05Z</time>
      </trkpt>
      <trkpt lat="44.81502" lon="5.75091">
        <ele>774.8</ele>
        <time>2021-04-22T11:39:06Z</time>
      </trkpt>
      <trkpt lat="44.81497" lon="5.75092">
        <ele>774.8</ele>
        <time>2021-04-22T11:39:07Z</time>
      </trkpt>
      <trkpt lat="44.81492" lon="5.75093">
        <ele>774.9</ele>
        <time>2021-04-22T11:39:08Z</time>
      </trkpt>
      <trkpt lat="44.81486" lon="5.75094">
        <ele>774.9</ele>
        <time>2021-04-22T11:39:09Z</time>
      </trkpt>
      <trkpt lat="44.81481" lon="5.75094">
        <ele>774.9</ele>
        <time>2021-04-22T11:39:10Z</time>
      </trkpt>
      <trkpt lat="44.81476" lon="5.75095">
        <ele>774.8</ele>
        <time>2021-04-22T11:39:11Z</time>
      </trkpt>
      <trkpt lat="44.81471" lon="5.75096">
        <ele>774.8</ele>
        <time>2021-04-22T11:39:12Z</time>
      </trkpt>
      <trkpt lat="44.81466" lon="5.75096">
        <ele>774.8</ele>
        <time>2021-04-22T11:39:13Z</time>
      </trkpt>
      <trkpt lat="44.81461" lon="5.75096">
        <ele>774.8</ele>
        <time>2021-04-22T11:39:14Z</time>
      </trkpt>
      <trkpt lat="44.81455" lon="5.75097">
        <ele>774.8</ele>
        <time>2021-04-22T11:39:15Z</time>
      </trkpt>
      <trkpt lat="44.81451" lon="5.75099">
        <ele>774.8</ele>
        <time>2021-04-22T11:39:16Z</time>
      </trkpt>
      <trkpt lat="44.81446" lon="5.751">
        <ele>774.8</ele>
        <time>2021-04-22T11:39:17Z</time>
      </trkpt>
      <trkpt lat="44.8144" lon="5.75101">
        <ele>774.9</ele>
        <time>2021-04-22T11:39:18Z</time>
      </trkpt>
      <trkpt lat="44.81435" lon="5.75102">
        <ele>775</ele>
        <time>2021-04-22T11:39:19Z</time>
      </trkpt>
      <trkpt lat="44.8143" lon="5.75102">
        <ele>775.1</ele>
        <time>2021-04-22T11:39:20Z</time>
      </trkpt>
      <trkpt lat="44.81425" lon="5.75102">
        <ele>775.2</ele>
        <time>2021-04-22T11:39:21Z</time>
      </trkpt>
      <trkpt lat="44.81421" lon="5.75102">
        <ele>775.4</ele>
        <time>2021-04-22T11:39:22Z</time>
      </trkpt>
      <trkpt lat="44.81417" lon="5.75101">
        <ele>775.5</ele>
        <time>2021-04-22T11:39:23Z</time>
      </trkpt>
      <trkpt lat="44.81415" lon="5.75101">
        <ele>775.6</ele>
        <time>2021-04-22T11:39:24Z</time>
      </trkpt>
      <trkpt lat="44.8141" lon="5.75101">
        <ele>775.8</ele>
        <time>2021-04-22T11:39:25Z</time>
      </trkpt>
      <trkpt lat="44.81407" lon="5.751">
        <ele>776</ele>
        <time>2021-04-22T11:39:26Z</time>
      </trkpt>
      <trkpt lat="44.81403" lon="5.751">
        <ele>776.2</ele>
        <time>2021-04-22T11:39:27Z</time>
      </trkpt>
      <trkpt lat="44.81399" lon="5.75099">
        <ele>776.4</ele>
        <time>2021-04-22T11:39:28Z</time>
      </trkpt>
      <trkpt lat="44.81395" lon="5.75097">
        <ele>776.7</ele>
        <time>2021-04-22T11:39:29Z</time>
      </trkpt>
      <trkpt lat="44.81392" lon="5.75094">
        <ele>777</ele>
        <time>2021-04-22T11:39:30Z</time>
      </trkpt>
      <trkpt lat="44.81389" lon="5.75091">
        <ele>777.2</ele>
        <time>2021-04-22T11:39:31Z</time>
      </trkpt>
      <trkpt lat="44.81385" lon="5.75088">
        <ele>777.5</ele>
        <time>2021-04-22T11:39:32Z</time>
      </trkpt>
      <trkpt lat="44.81381" lon="5.75084">
        <ele>777.8</ele>
        <time>2021-04-22T11:39:33Z</time>
      </trkpt>
      <trkpt lat="44.81379" lon="5.75081">
        <ele>778</ele>
        <time>2021-04-22T11:39:34Z</time>
      </trkpt>
      <trkpt lat="44.81377" lon="5.75078">
        <ele>778.2</ele>
        <time>2021-04-22T11:39:35Z</time>
      </trkpt>
      <trkpt lat="44.81375" lon="5.75073">
        <ele>778.4</ele>
        <time>2021-04-22T11:39:36Z</time>
      </trkpt>
      <trkpt lat="44.81373" lon="5.75068">
        <ele>778.7</ele>
        <time>2021-04-22T11:39:37Z</time>
      </trkpt>
      <trkpt lat="44.81371" lon="5.75064">
        <ele>778.9</ele>
        <time>2021-04-22T11:39:38Z</time>
      </trkpt>
      <trkpt lat="44.81369" lon="5.7506">
        <ele>779.1</ele>
        <time>2021-04-22T11:39:39Z</time>
      </trkpt>
      <trkpt lat="44.81367" lon="5.75055">
        <ele>779.3</ele>
        <time>2021-04-22T11:39:40Z</time>
      </trkpt>
      <trkpt lat="44.81366" lon="5.75051">
        <ele>779.4</ele>
        <time>2021-04-22T11:39:41Z</time>
      </trkpt>
      <trkpt lat="44.81365" lon="5.75046">
        <ele>779.6</ele>
        <time>2021-04-22T11:39:42Z</time>
      </trkpt>
      <trkpt lat="44.81364" lon="5.75042">
        <ele>779.7</ele>
        <time>2021-04-22T11:39:43Z</time>
      </trkpt>
      <trkpt lat="44.81363" lon="5.75038">
        <ele>779.9</ele>
        <time>2021-04-22T11:39:44Z</time>
      </trkpt>
      <trkpt lat="44.81361" lon="5.75034">
        <ele>780</ele>
        <time>2021-04-22T11:39:45Z</time>
      </trkpt>
      <trkpt lat="44.8136" lon="5.7503">
        <ele>780.2</ele>
        <time>2021-04-22T11:39:46Z</time>
      </trkpt>
      <trkpt lat="44.81358" lon="5.75026">
        <ele>780.3</ele>
        <time>2021-04-22T11:39:47Z</time>
      </trkpt>
      <trkpt lat="44.81357" lon="5.75021">
        <ele>780.5</ele>
        <time>2021-04-22T11:39:48Z</time>
      </trkpt>
      <trkpt lat="44.81356" lon="5.7502">
        <ele>780.6</ele>
        <time>2021-04-22T11:39:49Z</time>
      </trkpt>
      <trkpt lat="44.81355" lon="5.75014">
        <ele>780.8</ele>
        <time>2021-04-22T11:39:50Z</time>
      </trkpt>
      <trkpt lat="44.81354" lon="5.75013">
        <ele>780.9</ele>
        <time>2021-04-22T11:39:51Z</time>
      </trkpt>
      <trkpt lat="44.81352" lon="5.75007">
        <ele>781.1</ele>
        <time>2021-04-22T11:39:52Z</time>
      </trkpt>
      <trkpt lat="44.81352" lon="5.75005">
        <ele>781.2</ele>
        <time>2021-04-22T11:39:53Z</time>
      </trkpt>
      <trkpt lat="44.81351" lon="5.75003">
        <ele>781.3</ele>
        <time>2021-04-22T11:39:54Z</time>
      </trkpt>
      <trkpt lat="44.8135" lon="5.75001">
        <ele>781.2</ele>
        <time>2021-04-22T11:39:55Z</time>
      </trkpt>
      <trkpt lat="44.8135" lon="5.75">
        <ele>781.2</ele>
        <time>2021-04-22T11:39:56Z</time>
      </trkpt>
      <trkpt lat="44.8135" lon="5.75001">
        <ele>781.2</ele>
        <time>2021-04-22T11:39:57Z</time>
      </trkpt>
      <trkpt lat="44.81351" lon="5.75001">
        <ele>781.2</ele>
        <time>2021-04-22T11:39:58Z</time>
      </trkpt>
      <trkpt lat="44.81351" lon="5.75001">
        <ele>781.1</ele>
        <time>2021-04-22T11:39:59Z</time>
      </trkpt>
      <trkpt lat="44.8135" lon="5.75001">
        <ele>781.1</ele>
        <time>2021-04-22T11:40:00Z</time>
      </trkpt>
      <trkpt lat="44.8135" lon="5.75002">
        <ele>781.1</ele>
        <time>2021-04-22T11:40:01Z</time>
      </trkpt>
      <trkpt lat="44.8135" lon="5.75001">
        <ele>781.1</ele>
        <time>2021-04-22T11:40:02Z</time>
      </trkpt>
      <trkpt lat="44.8135" lon="5.75002">
        <ele>781.1</ele>
        <time>2021-04-22T11:40:03Z</time>
      </trkpt>
      <trkpt lat="44.8135" lon="5.75002">
        <ele>781.1</ele>
        <time>2021-04-22T11:40:04Z</time>
      </trkpt>
      <trkpt lat="44.81351" lon="5.75002">
        <ele>781.1</ele>
        <time>2021-04-22T11:40:05Z</time>
      </trkpt>
      <trkpt lat="44.81351" lon="5.75002">
        <ele>781.1</ele>
        <time>2021-04-22T11:40:06Z</time>
      </trkpt>
      <trkpt lat="44.8135" lon="5.75002">
        <ele>781.1</ele>
        <time>2021-04-22T11:40:07Z</time>
      </trkpt>
      <trkpt lat="44.81351" lon="5.75006">
        <ele>781</ele>
        <time>2021-04-22T11:40:56Z</time>
      </trkpt>
      <trkpt lat="44.81351" lon="5.75012">
        <ele>780.8</ele>
        <time>2021-04-22T11:40:58Z</time>
      </trkpt>
      <trkpt lat="44.81351" lon="5.75017">
        <ele>780.6</ele>
        <time>2021-04-22T11:40:59Z</time>
      </trkpt>
      <trkpt lat="44.81353" lon="5.75029">
        <ele>780.2</ele>
        <time>2021-04-22T11:41:01Z</time>
      </trkpt>
      <trkpt lat="44.81356" lon="5.7504">
        <ele>779.8</ele>
        <time>2021-04-22T11:41:03Z</time>
      </trkpt>
      <trkpt lat="44.81361" lon="5.75056">
        <ele>779.2</ele>
        <time>2021-04-22T11:41:05Z</time>
      </trkpt>
      <trkpt lat="44.81364" lon="5.75063">
        <ele>779</ele>
        <time>2021-04-22T11:41:06Z</time>
      </trkpt>
      <trkpt lat="44.81367" lon="5.7507">
        <ele>778.6</ele>
        <time>2021-04-22T11:41:07Z</time>
      </trkpt>
      <trkpt lat="44.81371" lon="5.75078">
        <ele>778.3</ele>
        <time>2021-04-22T11:41:08Z</time>
      </trkpt>
      <trkpt lat="44.81375" lon="5.75085">
        <ele>777.9</ele>
        <time>2021-04-22T11:41:09Z</time>
      </trkpt>
      <trkpt lat="44.81379" lon="5.75091">
        <ele>777.5</ele>
        <time>2021-04-22T11:41:10Z</time>
      </trkpt>
      <trkpt lat="44.81385" lon="5.75096">
        <ele>777.1</ele>
        <time>2021-04-22T11:41:11Z</time>
      </trkpt>
      <trkpt lat="44.81392" lon="5.75101">
        <ele>776.6</ele>
        <time>2021-04-22T11:41:12Z</time>
      </trkpt>
      <trkpt lat="44.81399" lon="5.75105">
        <ele>776.2</ele>
        <time>2021-04-22T11:41:13Z</time>
      </trkpt>
      <trkpt lat="44.81406" lon="5.75107">
        <ele>775.8</ele>
        <time>2021-04-22T11:41:14Z</time>
      </trkpt>
      <trkpt lat="44.81414" lon="5.75108">
        <ele>775.5</ele>
        <time>2021-04-22T11:41:15Z</time>
      </trkpt>
      <trkpt lat="44.81423" lon="5.75107">
        <ele>775.2</ele>
        <time>2021-04-22T11:41:16Z</time>
      </trkpt>
      <trkpt lat="44.81431" lon="5.75107">
        <ele>775</ele>
        <time>2021-04-22T11:41:17Z</time>
      </trkpt>
      <trkpt lat="44.8144" lon="5.75105">
        <ele>774.9</ele>
        <time>2021-04-22T11:41:18Z</time>
      </trkpt>
      <trkpt lat="44.81448" lon="5.75103">
        <ele>774.8</ele>
        <time>2021-04-22T11:41:19Z</time>
      </trkpt>
      <trkpt lat="44.81456" lon="5.75102">
        <ele>774.8</ele>
        <time>2021-04-22T11:41:20Z</time>
      </trkpt>
      <trkpt lat="44.81464" lon="5.751">
        <ele>774.8</ele>
        <time>2021-04-22T11:41:21Z</time>
      </trkpt>
      <trkpt lat="44.81472" lon="5.75099">
        <ele>774.8</ele>
        <time>2021-04-22T11:41:22Z</time>
      </trkpt>
      <trkpt lat="44.81478" lon="5.75098">
        <ele>774.9</ele>
        <time>2021-04-22T11:41:23Z</time>
      </trkpt>
      <trkpt lat="44.81484" lon="5.75097">
        <ele>774.9</ele>
        <time>2021-04-22T11:41:24Z</time>
      </trkpt>
      <trkpt lat="44.81492" lon="5.75095">
        <ele>774.9</ele>
        <time>2021-04-22T11:41:25Z</time>
      </trkpt>
      <trkpt lat="44.81499" lon="5.75094">
        <ele>774.8</ele>
        <time>2021-04-22T11:41:26Z</time>
      </trkpt>
      <trkpt lat="44.81506" lon="5.75093">
        <ele>774.8</ele>
        <time>2021-04-22T11:41:27Z</time>
      </trkpt>
      <trkpt lat="44.81512" lon="5.75093">
        <ele>774.8</ele>
        <time>2021-04-22T11:41:28Z</time>
      </trkpt>
      <trkpt lat="44.81518" lon="5.7509">
        <ele>774.8</ele>
        <time>2021-04-22T11:41:29Z</time>
      </trkpt>
      <trkpt lat="44.81524" lon="5.75089">
        <ele>774.8</ele>
        <time>2021-04-22T11:41:30Z</time>
      </trkpt>
      <trkpt lat="44.8153" lon="5.75088">
        <ele>774.8</ele>
        <time>2021-04-22T11:41:31Z</time>
      </trkpt>
      <trkpt lat="44.81536" lon="5.75087">
        <ele>774.8</ele>
        <time>2021-04-22T11:41:32Z</time>
      </trkpt>
      <trkpt lat="44.81542" lon="5.75086">
        <ele>774.9</ele>
        <time>2021-04-22T11:41:33Z</time>
      </trkpt>
      <trkpt lat="44.81547" lon="5.75084">
        <ele>774.9</ele>
        <time>2021-04-22T11:41:34Z</time>
      </trkpt>
      <trkpt lat="44.81553" lon="5.75083">
        <ele>775</ele>
        <time>2021-04-22T11:41:35Z</time>
      </trkpt>
      <trkpt lat="44.81559" lon="5.75082">
        <ele>775</ele>
        <time>2021-04-22T11:41:36Z</time>
      </trkpt>
      <trkpt lat="44.81564" lon="5.75082">
        <ele>775.1</ele>
        <time>2021-04-22T11:41:37Z</time>
      </trkpt>
      <trkpt lat="44.8157" lon="5.75081">
        <ele>775.2</ele>
        <time>2021-04-22T11:41:38Z</time>
      </trkpt>
      <trkpt lat="44.81575" lon="5.75081">
        <ele>775.3</ele>
        <time>2021-04-22T11:41:39Z</time>
      </trkpt>
      <trkpt lat="44.81581" lon="5.7508">
        <ele>775.4</ele>
        <time>2021-04-22T11:41:40Z</time>
      </trkpt>
      <trkpt lat="44.81587" lon="5.75079">
        <ele>775.5</ele>
        <time>2021-04-22T11:41:41Z</time>
      </trkpt>
      <trkpt lat="44.81592" lon="5.75078">
        <ele>775.6</ele>
        <time>2021-04-22T11:41:42Z</time>
      </trkpt>
      <trkpt lat="44.81597" lon="5.75077">
        <ele>775.7</ele>
        <time>2021-04-22T11:41:43Z</time>
      </trkpt>
      <trkpt lat="44.81602" lon="5.75076">
        <ele>775.8</ele>
        <time>2021-04-22T11:41:44Z</time>
      </trkpt>
      <trkpt lat="44.81608" lon="5.75075">
        <ele>775.9</ele>
        <time>2021-04-22T11:41:45Z</time>
      </trkpt>
      <trkpt lat="44.81613" lon="5.75074">
        <ele>776</ele>
        <time>2021-04-22T11:41:46Z</time>
      </trkpt>
      <trkpt lat="44.81617" lon="5.75072">
        <ele>776</ele>
        <time>2021-04-22T11:41:47Z</time>
      </trkpt>
      <trkpt lat="44.81622" lon="5.75071">
        <ele>776.1</ele>
        <time>2021-04-22T11:41:48Z</time>
      </trkpt>
      <trkpt lat="44.81626" lon="5.7507">
        <ele>776.2</ele>
        <time>2021-04-22T11:41:49Z</time>
      </trkpt>
      <trkpt lat="44.81631" lon="5.75069">
        <ele>776.3</ele>
        <time>2021-04-22T11:41:50Z</time>
      </trkpt>
      <trkpt lat="44.81637" lon="5.75068">
        <ele>776.4</ele>
        <time>2021-04-22T11:41:51Z</time>
      </trkpt>
      <trkpt lat="44.81642" lon="5.75066">
        <ele>776.5</ele>
        <time>2021-04-22T11:41:52Z</time>
      </trkpt>
      <trkpt lat="44.81647" lon="5.75064">
        <ele>776.5</ele>
        <time>2021-04-22T11:41:53Z</time>
      </trkpt>
      <trkpt lat="44.81651" lon="5.75062">
        <ele>776.6</ele>
        <time>2021-04-22T11:41:54Z</time>
      </trkpt>
      <trkpt lat="44.81656" lon="5.75061">
        <ele>776.7</ele>
        <time>2021-04-22T11:41:55Z</time>
      </trkpt>
      <trkpt lat="44.8166" lon="5.75059">
        <ele>776.7</ele>
        <time>2021-04-22T11:41:56Z</time>
      </trkpt>
      <trkpt lat="44.81664" lon="5.75057">
        <ele>776.8</ele>
        <time>2021-04-22T11:41:57Z</time>
      </trkpt>
      <trkpt lat="44.81668" lon="5.75056">
        <ele>776.9</ele>
        <time>2021-04-22T11:41:58Z</time>
      </trkpt>
      <trkpt lat="44.81672" lon="5.75055">
        <ele>777</ele>
        <time>2021-04-22T11:41:59Z</time>
      </trkpt>
      <trkpt lat="44.81675" lon="5.75054">
        <ele>777.1</ele>
        <time>2021-04-22T11:42:00Z</time>
      </trkpt>
      <trkpt lat="44.81678" lon="5.75052">
        <ele>777.1</ele>
        <time>2021-04-22T11:42:01Z</time>
      </trkpt>
      <trkpt lat="44.81682" lon="5.75052">
        <ele>777.2</ele>
        <time>2021-04-22T11:42:02Z</time>
      </trkpt>
      <trkpt lat="44.81685" lon="5.75051">
        <ele>777.3</ele>
        <time>2021-04-22T11:42:03Z</time>
      </trkpt>
      <trkpt lat="44.81688" lon="5.75052">
        <ele>777.4</ele>
        <time>2021-04-22T11:42:04Z</time>
      </trkpt>
      <trkpt lat="44.81692" lon="5.75055">
        <ele>777.5</ele>
        <time>2021-04-22T11:42:05Z</time>
      </trkpt>
      <trkpt lat="44.81694" lon="5.75057">
        <ele>777.5</ele>
        <time>2021-04-22T11:42:06Z</time>
      </trkpt>
      <trkpt lat="44.81695" lon="5.75063">
        <ele>777.7</ele>
        <time>2021-04-22T11:42:07Z</time>
      </trkpt>
      <trkpt lat="44.81697" lon="5.75068">
        <ele>777.8</ele>
        <time>2021-04-22T11:42:08Z</time>
      </trkpt>
      <trkpt lat="44.81698" lon="5.75072">
        <ele>777.9</ele>
        <time>2021-04-22T11:42:09Z</time>
      </trkpt>
      <trkpt lat="44.81699" lon="5.75077">
        <ele>778.1</ele>
        <time>2021-04-22T11:42:10Z</time>
      </trkpt>
      <trkpt lat="44.817" lon="5.75081">
        <ele>778.2</ele>
        <time>2021-04-22T11:42:11Z</time>
      </trkpt>
      <trkpt lat="44.817" lon="5.75086">
        <ele>778.3</ele>
        <time>2021-04-22T11:42:12Z</time>
      </trkpt>
      <trkpt lat="44.817" lon="5.75091">
        <ele>778.5</ele>
        <time>2021-04-22T11:42:13Z</time>
      </trkpt>
      <trkpt lat="44.81701" lon="5.75096">
        <ele>778.6</ele>
        <time>2021-04-22T11:42:14Z</time>
      </trkpt>
      <trkpt lat="44.81702" lon="5.75102">
        <ele>778.7</ele>
        <time>2021-04-22T11:42:15Z</time>
      </trkpt>
      <trkpt lat="44.81703" lon="5.75107">
        <ele>778.9</ele>
        <time>2021-04-22T11:42:16Z</time>
      </trkpt>
      <trkpt lat="44.81703" lon="5.75112">
        <ele>779</ele>
        <time>2021-04-22T11:42:17Z</time>
      </trkpt>
      <trkpt lat="44.81704" lon="5.75116">
        <ele>779.1</ele>
        <time>2021-04-22T11:42:18Z</time>
      </trkpt>
      <trkpt lat="44.81704" lon="5.75121">
        <ele>779.2</ele>
        <time>2021-04-22T11:42:19Z</time>
      </trkpt>
      <trkpt lat="44.81705" lon="5.75125">
        <ele>779.3</ele>
        <time>2021-04-22T11:42:20Z</time>
      </trkpt>
      <trkpt lat="44.81705" lon="5.7513">
        <ele>779.5</ele>
        <time>2021-04-22T11:42:21Z</time>
      </trkpt>
      <trkpt lat="44.81706" lon="5.75134">
        <ele>779.6</ele>
        <time>2021-04-22T11:42:22Z</time>
      </trkpt>
      <trkpt lat="44.81707" lon="5.75137">
        <ele>779.7</ele>
        <time>2021-04-22T11:42:23Z</time>
      </trkpt>
      <trkpt lat="44.81708" lon="5.75142">
        <ele>779.8</ele>
        <time>2021-04-22T11:42:24Z</time>
      </trkpt>
      <trkpt lat="44.81709" lon="5.75146">
        <ele>779.9</ele>
        <time>2021-04-22T11:42:25Z</time>
      </trkpt>
      <trkpt lat="44.81709" lon="5.7515">
        <ele>780</ele>
        <time>2021-04-22T11:42:26Z</time>
      </trkpt>
      <trkpt lat="44.8171" lon="5.75155">
        <ele>780.2</ele>
        <time>2021-04-22T11:42:27Z</time>
      </trkpt>
      <trkpt lat="44.8171" lon="5.75159">
        <ele>780.3</ele>
        <time>2021-04-22T11:42:28Z</time>
      </trkpt>
      <trkpt lat="44.81711" lon="5.75164">
        <ele>780.4</ele>
        <time>2021-04-22T11:42:29Z</time>
      </trkpt>
      <trkpt lat="44.81712" lon="5.75168">
        <ele>780.5</ele>
        <time>2021-04-22T11:42:30Z</time>
      </trkpt>
      <trkpt lat="44.81713" lon="5.75174">
        <ele>780.6</ele>
        <time>2021-04-22T11:42:31Z</time>
      </trkpt>
      <trkpt lat="44.81714" lon="5.75178">
        <ele>780.7</ele>
        <time>2021-04-22T11:42:32Z</time>
      </trkpt>
      <trkpt lat="44.81716" lon="5.75183">
        <ele>780.9</ele>
        <time>2021-04-22T11:42:33Z</time>
      </trkpt>
      <trkpt lat="44.81717" lon="5.75188">
        <ele>781</ele>
        <time>2021-04-22T11:42:34Z</time>
      </trkpt>
      <trkpt lat="44.81718" lon="5.75192">
        <ele>781.1</ele>
        <time>2021-04-22T11:42:35Z</time>
      </trkpt>
      <trkpt lat="44.81721" lon="5.75196">
        <ele>781.2</ele>
        <time>2021-04-22T11:42:36Z</time>
      </trkpt>
      <trkpt lat="44.81722" lon="5.752">
        <ele>781.3</ele>
        <time>2021-04-22T11:42:37Z</time>
      </trkpt>
      <trkpt lat="44.81724" lon="5.75204">
        <ele>781.4</ele>
        <time>2021-04-22T11:42:38Z</time>
      </trkpt>
      <trkpt lat="44.81726" lon="5.75209">
        <ele>781.5</ele>
        <time>2021-04-22T11:42:39Z</time>
      </trkpt>
      <trkpt lat="44.81727" lon="5.75212">
        <ele>781.6</ele>
        <time>2021-04-22T11:42:40Z</time>
      </trkpt>
      <trkpt lat="44.81729" lon="5.75216">
        <ele>781.7</ele>
        <time>2021-04-22T11:42:41Z</time>
      </trkpt>
      <trkpt lat="44.8173" lon="5.75221">
        <ele>781.8</ele>
        <time>2021-04-22T11:42:42Z</time>
      </trkpt>
      <trkpt lat="44.81732" lon="5.75225">
        <ele>781.9</ele>
        <time>2021-04-22T11:42:43Z</time>
      </trkpt>
      <trkpt lat="44.81733" lon="5.75229">
        <ele>782</ele>
        <time>2021-04-22T11:42:44Z</time>
      </trkpt>
      <trkpt lat="44.81735" lon="5.75233">
        <ele>782.2</ele>
        <time>2021-04-22T11:42:45Z</time>
      </trkpt>
      <trkpt lat="44.81736" lon="5.75237">
        <ele>782.3</ele>
        <time>2021-04-22T11:42:46Z</time>
      </trkpt>
      <trkpt lat="44.81738" lon="5.75242">
        <ele>782.4</ele>
        <time>2021-04-22T11:42:47Z</time>
      </trkpt>
      <trkpt lat="44.81739" lon="5.75246">
        <ele>782.5</ele>
        <time>2021-04-22T11:42:48Z</time>
      </trkpt>
      <trkpt lat="44.8174" lon="5.7525">
        <ele>782.6</ele>
        <time>2021-04-22T11:42:49Z</time>
      </trkpt>
      <trkpt lat="44.81741" lon="5.75254">
        <ele>782.7</ele>
        <time>2021-04-22T11:42:50Z</time>
      </trkpt>
      <trkpt lat="44.81742" lon="5.75257">
        <ele>782.8</ele>
        <time>2021-04-22T11:42:51Z</time>
      </trkpt>
      <trkpt lat="44.81743" lon="5.75262">
        <ele>782.9</ele>
        <time>2021-04-22T11:42:52Z</time>
      </trkpt>
      <trkpt lat="44.81744" lon="5.75266">
        <ele>783</ele>
        <time>2021-04-22T11:42:53Z</time>
      </trkpt>
      <trkpt lat="44.81746" lon="5.7527">
        <ele>783.2</ele>
        <time>2021-04-22T11:42:54Z</time>
      </trkpt>
      <trkpt lat="44.81747" lon="5.75275">
        <ele>783.3</ele>
        <time>2021-04-22T11:42:55Z</time>
      </trkpt>
      <trkpt lat="44.81748" lon="5.75279">
        <ele>783.4</ele>
        <time>2021-04-22T11:42:56Z</time>
      </trkpt>
      <trkpt lat="44.81749" lon="5.75282">
        <ele>783.5</ele>
        <time>2021-04-22T11:42:57Z</time>
      </trkpt>
      <trkpt lat="44.81751" lon="5.75287">
        <ele>783.6</ele>
        <time>2021-04-22T11:42:58Z</time>
      </trkpt>
      <trkpt lat="44.81752" lon="5.75291">
        <ele>783.7</ele>
        <time>2021-04-22T11:42:59Z</time>
      </trkpt>
      <trkpt lat="44.81754" lon="5.75296">
        <ele>783.8</ele>
        <time>2021-04-22T11:43:00Z</time>
      </trkpt>
      <trkpt lat="44.81755" lon="5.75299">
        <ele>783.9</ele>
        <time>2021-04-22T11:43:01Z</time>
      </trkpt>
      <trkpt lat="44.81756" lon="5.75303">
        <ele>784</ele>
        <time>2021-04-22T11:43:02Z</time>
      </trkpt>
      <trkpt lat="44.81757" lon="5.75306">
        <ele>784.1</ele>
        <time>2021-04-22T11:43:03Z</time>
      </trkpt>
      <trkpt lat="44.81758" lon="5.7531">
        <ele>784.2</ele>
        <time>2021-04-22T11:43:04Z</time>
      </trkpt>
      <trkpt lat="44.81759" lon="5.75314">
        <ele>784.3</ele>
        <time>2021-04-22T11:43:05Z</time>
      </trkpt>
      <trkpt lat="44.8176" lon="5.75318">
        <ele>784.4</ele>
        <time>2021-04-22T11:43:06Z</time>
      </trkpt>
      <trkpt lat="44.81761" lon="5.75322">
        <ele>784.5</ele>
        <time>2021-04-22T11:43:07Z</time>
      </trkpt>
      <trkpt lat="44.81762" lon="5.75326">
        <ele>784.7</ele>
        <time>2021-04-22T11:43:08Z</time>
      </trkpt>
      <trkpt lat="44.81764" lon="5.75331">
        <ele>784.8</ele>
        <time>2021-04-22T11:43:09Z</time>
      </trkpt>
      <trkpt lat="44.81766" lon="5.75336">
        <ele>785</ele>
        <time>2021-04-22T11:43:10Z</time>
      </trkpt>
      <trkpt lat="44.81767" lon="5.75338">
        <ele>785</ele>
        <time>2021-04-22T11:43:11Z</time>
      </trkpt>
      <trkpt lat="44.81769" lon="5.75343">
        <ele>785.2</ele>
        <time>2021-04-22T11:43:12Z</time>
      </trkpt>
      <trkpt lat="44.81771" lon="5.75346">
        <ele>785.3</ele>
        <time>2021-04-22T11:43:13Z</time>
      </trkpt>
      <trkpt lat="44.81773" lon="5.7535">
        <ele>785.4</ele>
        <time>2021-04-22T11:43:14Z</time>
      </trkpt>
      <trkpt lat="44.81775" lon="5.75354">
        <ele>785.6</ele>
        <time>2021-04-22T11:43:15Z</time>
      </trkpt>
      <trkpt lat="44.81777" lon="5.75357">
        <ele>785.7</ele>
        <time>2021-04-22T11:43:16Z</time>
      </trkpt>
      <trkpt lat="44.81779" lon="5.75361">
        <ele>785.9</ele>
        <time>2021-04-22T11:43:17Z</time>
      </trkpt>
      <trkpt lat="44.81781" lon="5.75365">
        <ele>786</ele>
        <time>2021-04-22T11:43:18Z</time>
      </trkpt>
      <trkpt lat="44.81783" lon="5.75369">
        <ele>786.2</ele>
        <time>2021-04-22T11:43:19Z</time>
      </trkpt>
      <trkpt lat="44.81785" lon="5.75372">
        <ele>786.3</ele>
        <time>2021-04-22T11:43:20Z</time>
      </trkpt>
      <trkpt lat="44.81787" lon="5.75375">
        <ele>786.5</ele>
        <time>2021-04-22T11:43:21Z</time>
      </trkpt>
      <trkpt lat="44.81789" lon="5.75379">
        <ele>786.7</ele>
        <time>2021-04-22T11:43:22Z</time>
      </trkpt>
      <trkpt lat="44.81791" lon="5.75382">
        <ele>786.8</ele>
        <time>2021-04-22T11:43:23Z</time>
      </trkpt>
      <trkpt lat="44.81793" lon="5.75386">
        <ele>786.8</ele>
        <time>2021-04-22T11:43:24Z</time>
      </trkpt>
      <trkpt lat="44.81795" lon="5.75389">
        <ele>786.9</ele>
        <time>2021-04-22T11:43:25Z</time>
      </trkpt>
      <trkpt lat="44.81797" lon="5.75393">
        <ele>787.1</ele>
        <time>2021-04-22T11:43:26Z</time>
      </trkpt>
      <trkpt lat="44.81798" lon="5.75398">
        <ele>787.2</ele>
        <time>2021-04-22T11:43:27Z</time>
      </trkpt>
      <trkpt lat="44.818" lon="5.75402">
        <ele>787.3</ele>
        <time>2021-04-22T11:43:28Z</time>
      </trkpt>
      <trkpt lat="44.81801" lon="5.75406">
        <ele>787.4</ele>
        <time>2021-04-22T11:43:29Z</time>
      </trkpt>
      <trkpt lat="44.81802" lon="5.7541">
        <ele>787.5</ele>
        <time>2021-04-22T11:43:30Z</time>
      </trkpt>
      <trkpt lat="44.81803" lon="5.75414">
        <ele>787.6</ele>
        <time>2021-04-22T11:43:31Z</time>
      </trkpt>
      <trkpt lat="44.81803" lon="5.75418">
        <ele>787.7</ele>
        <time>2021-04-22T11:43:32Z</time>
      </trkpt>
      <trkpt lat="44.81804" lon="5.75422">
        <ele>787.8</ele>
        <time>2021-04-22T11:43:33Z</time>
      </trkpt>
      <trkpt lat="44.81805" lon="5.75426">
        <ele>787.9</ele>
        <time>2021-04-22T11:43:34Z</time>
      </trkpt>
      <trkpt lat="44.81805" lon="5.75431">
        <ele>788</ele>
        <time>2021-04-22T11:43:35Z</time>
      </trkpt>
      <trkpt lat="44.81806" lon="5.75435">
        <ele>788.1</ele>
        <time>2021-04-22T11:43:36Z</time>
      </trkpt>
      <trkpt lat="44.81806" lon="5.75439">
        <ele>788.2</ele>
        <time>2021-04-22T11:43:37Z</time>
      </trkpt>
      <trkpt lat="44.81807" lon="5.75444">
        <ele>788.3</ele>
        <time>2021-04-22T11:43:38Z</time>
      </trkpt>
      <trkpt lat="44.81808" lon="5.75448">
        <ele>788.4</ele>
        <time>2021-04-22T11:43:39Z</time>
      </trkpt>
      <trkpt lat="44.81809" lon="5.75452">
        <ele>788.5</ele>
        <time>2021-04-22T11:43:40Z</time>
      </trkpt>
      <trkpt lat="44.8181" lon="5.75456">
        <ele>788.7</ele>
        <time>2021-04-22T11:43:41Z</time>
      </trkpt>
      <trkpt lat="44.8181" lon="5.7546">
        <ele>788.8</ele>
        <time>2021-04-22T11:43:42Z</time>
      </trkpt>
      <trkpt lat="44.81811" lon="5.75465">
        <ele>788.9</ele>
        <time>2021-04-22T11:43:43Z</time>
      </trkpt>
      <trkpt lat="44.81811" lon="5.75469">
        <ele>789</ele>
        <time>2021-04-22T11:43:44Z</time>
      </trkpt>
      <trkpt lat="44.81812" lon="5.75473">
        <ele>789.1</ele>
        <time>2021-04-22T11:43:45Z</time>
      </trkpt>
      <trkpt lat="44.81812" lon="5.75478">
        <ele>789.2</ele>
        <time>2021-04-22T11:43:46Z</time>
      </trkpt>
      <trkpt lat="44.81812" lon="5.75482">
        <ele>789.3</ele>
        <time>2021-04-22T11:43:47Z</time>
      </trkpt>
      <trkpt lat="44.81812" lon="5.75486">
        <ele>789.5</ele>
        <time>2021-04-22T11:43:48Z</time>
      </trkpt>
      <trkpt lat="44.81811" lon="5.7549">
        <ele>789.6</ele>
        <time>2021-04-22T11:43:49Z</time>
      </trkpt>
      <trkpt lat="44.8181" lon="5.75494">
        <ele>789.7</ele>
        <time>2021-04-22T11:43:50Z</time>
      </trkpt>
      <trkpt lat="44.81809" lon="5.75499">
        <ele>789.8</ele>
        <time>2021-04-22T11:43:51Z</time>
      </trkpt>
      <trkpt lat="44.81808" lon="5.75503">
        <ele>789.9</ele>
        <time>2021-04-22T11:43:52Z</time>
      </trkpt>
      <trkpt lat="44.81808" lon="5.75506">
        <ele>790</ele>
        <time>2021-04-22T11:43:53Z</time>
      </trkpt>
      <trkpt lat="44.81807" lon="5.75511">
        <ele>790.1</ele>
        <time>2021-04-22T11:43:54Z</time>
      </trkpt>
      <trkpt lat="44.81806" lon="5.75515">
        <ele>790.2</ele>
        <time>2021-04-22T11:43:55Z</time>
      </trkpt>
      <trkpt lat="44.81805" lon="5.7552">
        <ele>790.3</ele>
        <time>2021-04-22T11:43:56Z</time>
      </trkpt>
      <trkpt lat="44.81805" lon="5.75522">
        <ele>790.4</ele>
        <time>2021-04-22T11:43:57Z</time>
      </trkpt>
      <trkpt lat="44.81804" lon="5.75527">
        <ele>790.5</ele>
        <time>2021-04-22T11:43:58Z</time>
      </trkpt>
      <trkpt lat="44.81804" lon="5.75529">
        <ele>790.6</ele>
        <time>2021-04-22T11:43:59Z</time>
      </trkpt>
      <trkpt lat="44.81803" lon="5.75533">
        <ele>790.7</ele>
        <time>2021-04-22T11:44:00Z</time>
      </trkpt>
      <trkpt lat="44.81802" lon="5.75537">
        <ele>790.8</ele>
        <time>2021-04-22T11:44:01Z</time>
      </trkpt>
      <trkpt lat="44.81802" lon="5.75541">
        <ele>790.9</ele>
        <time>2021-04-22T11:44:02Z</time>
      </trkpt>
      <trkpt lat="44.81801" lon="5.75545">
        <ele>791</ele>
        <time>2021-04-22T11:44:03Z</time>
      </trkpt>
      <trkpt lat="44.818" lon="5.75549">
        <ele>791.1</ele>
        <time>2021-04-22T11:44:04Z</time>
      </trkpt>
      <trkpt lat="44.81799" lon="5.75553">
        <ele>791.3</ele>
        <time>2021-04-22T11:44:05Z</time>
      </trkpt>
      <trkpt lat="44.81798" lon="5.75557">
        <ele>791.4</ele>
        <time>2021-04-22T11:44:06Z</time>
      </trkpt>
      <trkpt lat="44.81797" lon="5.75562">
        <ele>791.5</ele>
        <time>2021-04-22T11:44:07Z</time>
      </trkpt>
      <trkpt lat="44.81796" lon="5.75567">
        <ele>791.7</ele>
        <time>2021-04-22T11:44:08Z</time>
      </trkpt>
      <trkpt lat="44.81795" lon="5.75568">
        <ele>791.7</ele>
        <time>2021-04-22T11:44:09Z</time>
      </trkpt>
      <trkpt lat="44.81794" lon="5.75573">
        <ele>791.8</ele>
        <time>2021-04-22T11:44:10Z</time>
      </trkpt>
      <trkpt lat="44.81793" lon="5.75577">
        <ele>792</ele>
        <time>2021-04-22T11:44:11Z</time>
      </trkpt>
      <trkpt lat="44.81793" lon="5.75582">
        <ele>792.1</ele>
        <time>2021-04-22T11:44:12Z</time>
      </trkpt>
      <trkpt lat="44.81792" lon="5.75586">
        <ele>792.2</ele>
        <time>2021-04-22T11:44:13Z</time>
      </trkpt>
      <trkpt lat="44.81791" lon="5.7559">
        <ele>792.4</ele>
        <time>2021-04-22T11:44:14Z</time>
      </trkpt>
      <trkpt lat="44.81791" lon="5.75595">
        <ele>792.5</ele>
        <time>2021-04-22T11:44:15Z</time>
      </trkpt>
      <trkpt lat="44.8179" lon="5.756">
        <ele>792.6</ele>
        <time>2021-04-22T11:44:16Z</time>
      </trkpt>
      <trkpt lat="44.81789" lon="5.75604">
        <ele>792.8</ele>
        <time>2021-04-22T11:44:17Z</time>
      </trkpt>
      <trkpt lat="44.81789" lon="5.75608">
        <ele>792.9</ele>
        <time>2021-04-22T11:44:18Z</time>
      </trkpt>
      <trkpt lat="44.81788" lon="5.75612">
        <ele>793</ele>
        <time>2021-04-22T11:44:19Z</time>
      </trkpt>
      <trkpt lat="44.81787" lon="5.75617">
        <ele>793.2</ele>
        <time>2021-04-22T11:44:20Z</time>
      </trkpt>
      <trkpt lat="44.81786" lon="5.75622">
        <ele>793.3</ele>
        <time>2021-04-22T11:44:21Z</time>
      </trkpt>
      <trkpt lat="44.81786" lon="5.75626">
        <ele>793.4</ele>
        <time>2021-04-22T11:44:22Z</time>
      </trkpt>
      <trkpt lat="44.81785" lon="5.7563">
        <ele>793.6</ele>
        <time>2021-04-22T11:44:23Z</time>
      </trkpt>
      <trkpt lat="44.81784" lon="5.75635">
        <ele>793.7</ele>
        <time>2021-04-22T11:44:24Z</time>
      </trkpt>
      <trkpt lat="44.81784" lon="5.75639">
        <ele>793.8</ele>
        <time>2021-04-22T11:44:25Z</time>
      </trkpt>
      <trkpt lat="44.81783" lon="5.75643">
        <ele>794</ele>
        <time>2021-04-22T11:44:26Z</time>
      </trkpt>
      <trkpt lat="44.81784" lon="5.75648">
        <ele>794.1</ele>
        <time>2021-04-22T11:44:27Z</time>
      </trkpt>
      <trkpt lat="44.81784" lon="5.75652">
        <ele>794.3</ele>
        <time>2021-04-22T11:44:28Z</time>
      </trkpt>
      <trkpt lat="44.81785" lon="5.75655">
        <ele>794.4</ele>
        <time>2021-04-22T11:44:29Z</time>
      </trkpt>
      <trkpt lat="44.81786" lon="5.75659">
        <ele>794.5</ele>
        <time>2021-04-22T11:44:30Z</time>
      </trkpt>
      <trkpt lat="44.81788" lon="5.75663">
        <ele>794.5</ele>
        <time>2021-04-22T11:44:31Z</time>
      </trkpt>
      <trkpt lat="44.8179" lon="5.75666">
        <ele>794.5</ele>
        <time>2021-04-22T11:44:32Z</time>
      </trkpt>
      <trkpt lat="44.81793" lon="5.75669">
        <ele>794.5</ele>
        <time>2021-04-22T11:44:33Z</time>
      </trkpt>
      <trkpt lat="44.81795" lon="5.7567">
        <ele>794.5</ele>
        <time>2021-04-22T11:44:34Z</time>
      </trkpt>
      <trkpt lat="44.81797" lon="5.75672">
        <ele>794.5</ele>
        <time>2021-04-22T11:44:35Z</time>
      </trkpt>
      <trkpt lat="44.818" lon="5.75673">
        <ele>794.5</ele>
        <time>2021-04-22T11:44:36Z</time>
      </trkpt>
      <trkpt lat="44.81804" lon="5.75675">
        <ele>794.5</ele>
        <time>2021-04-22T11:44:37Z</time>
      </trkpt>
      <trkpt lat="44.81807" lon="5.75677">
        <ele>794.5</ele>
        <time>2021-04-22T11:44:38Z</time>
      </trkpt>
      <trkpt lat="44.8181" lon="5.75679">
        <ele>794.5</ele>
        <time>2021-04-22T11:44:39Z</time>
      </trkpt>
      <trkpt lat="44.81813" lon="5.75681">
        <ele>794.4</ele>
        <time>2021-04-22T11:44:40Z</time>
      </trkpt>
      <trkpt lat="44.81817" lon="5.75684">
        <ele>794.4</ele>
        <time>2021-04-22T11:44:41Z</time>
      </trkpt>
      <trkpt lat="44.81822" lon="5.75688">
        <ele>794.3</ele>
        <time>2021-04-22T11:44:42Z</time>
      </trkpt>
      <trkpt lat="44.81827" lon="5.75691">
        <ele>794.3</ele>
        <time>2021-04-22T11:44:43Z</time>
      </trkpt>
      <trkpt lat="44.81831" lon="5.75695">
        <ele>794.2</ele>
        <time>2021-04-22T11:44:44Z</time>
      </trkpt>
      <trkpt lat="44.81835" lon="5.75697">
        <ele>794.2</ele>
        <time>2021-04-22T11:44:45Z</time>
      </trkpt>
      <trkpt lat="44.81839" lon="5.757">
        <ele>794.1</ele>
        <time>2021-04-22T11:44:46Z</time>
      </trkpt>
      <trkpt lat="44.81845" lon="5.75702">
        <ele>794</ele>
        <time>2021-04-22T11:44:47Z</time>
      </trkpt>
      <trkpt lat="44.8185" lon="5.75704">
        <ele>794</ele>
        <time>2021-04-22T11:44:48Z</time>
      </trkpt>
      <trkpt lat="44.81854" lon="5.75707">
        <ele>793.9</ele>
        <time>2021-04-22T11:44:49Z</time>
      </trkpt>
      <trkpt lat="44.81858" lon="5.7571">
        <ele>793.9</ele>
        <time>2021-04-22T11:44:50Z</time>
      </trkpt>
      <trkpt lat="44.81863" lon="5.75712">
        <ele>793.8</ele>
        <time>2021-04-22T11:44:51Z</time>
      </trkpt>
      <trkpt lat="44.81868" lon="5.75714">
        <ele>793.8</ele>
        <time>2021-04-22T11:44:52Z</time>
      </trkpt>
      <trkpt lat="44.81873" lon="5.75717">
        <ele>793.8</ele>
        <time>2021-04-22T11:44:53Z</time>
      </trkpt>
      <trkpt lat="44.81877" lon="5.7572">
        <ele>793.8</ele>
        <time>2021-04-22T11:44:54Z</time>
      </trkpt>
      <trkpt lat="44.81881" lon="5.75723">
        <ele>793.7</ele>
        <time>2021-04-22T11:44:55Z</time>
      </trkpt>
      <trkpt lat="44.81885" lon="5.75726">
        <ele>793.7</ele>
        <time>2021-04-22T11:44:56Z</time>
      </trkpt>
      <trkpt lat="44.81889" lon="5.75731">
        <ele>793.7</ele>
        <time>2021-04-22T11:44:57Z</time>
      </trkpt>
      <trkpt lat="44.81893" lon="5.75735">
        <ele>793.6</ele>
        <time>2021-04-22T11:44:58Z</time>
      </trkpt>
      <trkpt lat="44.81898" lon="5.75739">
        <ele>793.6</ele>
        <time>2021-04-22T11:44:59Z</time>
      </trkpt>
      <trkpt lat="44.81902" lon="5.75743">
        <ele>793.5</ele>
        <time>2021-04-22T11:45:00Z</time>
      </trkpt>
      <trkpt lat="44.81906" lon="5.75748">
        <ele>793.5</ele>
        <time>2021-04-22T11:45:01Z</time>
      </trkpt>
      <trkpt lat="44.8191" lon="5.75752">
        <ele>793.4</ele>
        <time>2021-04-22T11:45:02Z</time>
      </trkpt>
      <trkpt lat="44.81914" lon="5.75757">
        <ele>793.4</ele>
        <time>2021-04-22T11:45:03Z</time>
      </trkpt>
      <trkpt lat="44.81918" lon="5.75761">
        <ele>793.4</ele>
        <time>2021-04-22T11:45:04Z</time>
      </trkpt>
      <trkpt lat="44.81922" lon="5.75766">
        <ele>793.3</ele>
        <time>2021-04-22T11:45:05Z</time>
      </trkpt>
      <trkpt lat="44.81926" lon="5.7577">
        <ele>793.3</ele>
        <time>2021-04-22T11:45:06Z</time>
      </trkpt>
      <trkpt lat="44.8193" lon="5.75775">
        <ele>793.2</ele>
        <time>2021-04-22T11:45:07Z</time>
      </trkpt>
      <trkpt lat="44.81933" lon="5.7578">
        <ele>793.1</ele>
        <time>2021-04-22T11:45:08Z</time>
      </trkpt>
      <trkpt lat="44.81937" lon="5.75784">
        <ele>793.1</ele>
        <time>2021-04-22T11:45:09Z</time>
      </trkpt>
      <trkpt lat="44.81941" lon="5.75788">
        <ele>793</ele>
        <time>2021-04-22T11:45:10Z</time>
      </trkpt>
      <trkpt lat="44.81945" lon="5.75792">
        <ele>792.9</ele>
        <time>2021-04-22T11:45:11Z</time>
      </trkpt>
      <trkpt lat="44.81949" lon="5.75797">
        <ele>792.9</ele>
        <time>2021-04-22T11:45:12Z</time>
      </trkpt>
      <trkpt lat="44.81953" lon="5.75801">
        <ele>792.8</ele>
        <time>2021-04-22T11:45:13Z</time>
      </trkpt>
      <trkpt lat="44.81956" lon="5.75806">
        <ele>792.7</ele>
        <time>2021-04-22T11:45:14Z</time>
      </trkpt>
      <trkpt lat="44.81959" lon="5.75809">
        <ele>792.7</ele>
        <time>2021-04-22T11:45:15Z</time>
      </trkpt>
      <trkpt lat="44.81959" lon="5.7581">
        <ele>792.7</ele>
        <time>2021-04-22T11:45:16Z</time>
      </trkpt>
      <trkpt lat="44.81959" lon="5.75809">
        <ele>792.7</ele>
        <time>2021-04-22T11:45:17Z</time>
      </trkpt>
      <trkpt lat="44.81959" lon="5.75809">
        <ele>792.7</ele>
        <time>2021-04-22T11:45:18Z</time>
      </trkpt>
      <trkpt lat="44.81958" lon="5.75808">
        <ele>792.7</ele>
        <time>2021-04-22T11:45:19Z</time>
      </trkpt>
      <trkpt lat="44.81958" lon="5.75809">
        <ele>792.7</ele>
        <time>2021-04-22T11:45:20Z</time>
      </trkpt>
      <trkpt lat="44.81958" lon="5.75809">
        <ele>792.7</ele>
        <time>2021-04-22T11:45:21Z</time>
      </trkpt>
      <trkpt lat="44.81958" lon="5.7581">
        <ele>792.7</ele>
        <time>2021-04-22T11:45:22Z</time>
      </trkpt>
      <trkpt lat="44.81959" lon="5.75809">
        <ele>792.7</ele>
        <time>2021-04-22T11:45:24Z</time>
      </trkpt>
      <trkpt lat="44.81959" lon="5.75809">
        <ele>792.7</ele>
        <time>2021-04-22T11:45:25Z</time>
      </trkpt>
      <trkpt lat="44.8196" lon="5.75809">
        <ele>792.7</ele>
        <time>2021-04-22T11:45:26Z</time>
      </trkpt>
      <trkpt lat="44.8196" lon="5.75809">
        <ele>792.7</ele>
        <time>2021-04-22T11:45:27Z</time>
      </trkpt>
      <trkpt lat="44.8196" lon="5.75809">
        <ele>792.7</ele>
        <time>2021-04-22T11:45:28Z</time>
      </trkpt>
      <trkpt lat="44.8196" lon="5.75809">
        <ele>792.7</ele>
        <time>2021-04-22T11:45:29Z</time>
      </trkpt>
      <trkpt lat="44.8196" lon="5.7581">
        <ele>792.7</ele>
        <time>2021-04-22T11:45:30Z</time>
      </trkpt>
      <trkpt lat="44.8196" lon="5.7581">
        <ele>792.7</ele>
        <time>2021-04-22T11:45:31Z</time>
      </trkpt>
      <trkpt lat="44.81961" lon="5.7581">
        <ele>792.7</ele>
        <time>2021-04-22T11:45:32Z</time>
      </trkpt>
      <trkpt lat="44.81961" lon="5.7581">
        <ele>792.7</ele>
        <time>2021-04-22T11:45:33Z</time>
      </trkpt>
      <trkpt lat="44.81961" lon="5.7581">
        <ele>792.7</ele>
        <time>2021-04-22T11:45:34Z</time>
      </trkpt>
      <trkpt lat="44.81961" lon="5.7581">
        <ele>792.7</ele>
        <time>2021-04-22T11:45:35Z</time>
      </trkpt>
      <trkpt lat="44.81961" lon="5.7581">
        <ele>792.7</ele>
        <time>2021-04-22T11:45:36Z</time>
      </trkpt>
      <trkpt lat="44.81961" lon="5.7581">
        <ele>792.7</ele>
        <time>2021-04-22T11:45:37Z</time>
      </trkpt>
      <trkpt lat="44.81962" lon="5.75813">
        <ele>792.6</ele>
        <time>2021-04-22T11:46:33Z</time>
      </trkpt>
      <trkpt lat="44.81965" lon="5.75815">
        <ele>792.6</ele>
        <time>2021-04-22T11:46:34Z</time>
      </trkpt>
      <trkpt lat="44.81967" lon="5.75817">
        <ele>792.6</ele>
        <time>2021-04-22T11:46:35Z</time>
      </trkpt>
      <trkpt lat="44.8197" lon="5.75819">
        <ele>792.6</ele>
        <time>2021-04-22T11:46:36Z</time>
      </trkpt>
      <trkpt lat="44.81973" lon="5.75821">
        <ele>792.5</ele>
        <time>2021-04-22T11:46:37Z</time>
      </trkpt>
      <trkpt lat="44.81977" lon="5.75825">
        <ele>792.5</ele>
        <time>2021-04-22T11:46:38Z</time>
      </trkpt>
      <trkpt lat="44.8198" lon="5.75828">
        <ele>792.5</ele>
        <time>2021-04-22T11:46:39Z</time>
      </trkpt>
      <trkpt lat="44.81984" lon="5.75831">
        <ele>792.5</ele>
        <time>2021-04-22T11:46:40Z</time>
      </trkpt>
      <trkpt lat="44.81987" lon="5.75834">
        <ele>792.4</ele>
        <time>2021-04-22T11:46:41Z</time>
      </trkpt>
      <trkpt lat="44.81991" lon="5.75839">
        <ele>792.4</ele>
        <time>2021-04-22T11:46:42Z</time>
      </trkpt>
      <trkpt lat="44.81994" lon="5.75842">
        <ele>792.4</ele>
        <time>2021-04-22T11:46:43Z</time>
      </trkpt>
      <trkpt lat="44.81998" lon="5.75846">
        <ele>792.4</ele>
        <time>2021-04-22T11:46:44Z</time>
      </trkpt>
      <trkpt lat="44.82002" lon="5.75851">
        <ele>792.4</ele>
        <time>2021-04-22T11:46:45Z</time>
      </trkpt>
      <trkpt lat="44.82007" lon="5.75856">
        <ele>792.5</ele>
        <time>2021-04-22T11:46:46Z</time>
      </trkpt>
      <trkpt lat="44.82011" lon="5.75861">
        <ele>792.5</ele>
        <time>2021-04-22T11:46:47Z</time>
      </trkpt>
      <trkpt lat="44.82015" lon="5.75866">
        <ele>792.6</ele>
        <time>2021-04-22T11:46:48Z</time>
      </trkpt>
      <trkpt lat="44.82019" lon="5.7587">
        <ele>792.6</ele>
        <time>2021-04-22T11:46:49Z</time>
      </trkpt>
      <trkpt lat="44.82023" lon="5.75875">
        <ele>792.6</ele>
        <time>2021-04-22T11:46:50Z</time>
      </trkpt>
      <trkpt lat="44.82027" lon="5.75879">
        <ele>792.6</ele>
        <time>2021-04-22T11:46:51Z</time>
      </trkpt>
      <trkpt lat="44.8203" lon="5.75882">
        <ele>792.7</ele>
        <time>2021-04-22T11:46:52Z</time>
      </trkpt>
      <trkpt lat="44.82034" lon="5.75887">
        <ele>792.7</ele>
        <time>2021-04-22T11:46:53Z</time>
      </trkpt>
      <trkpt lat="44.82037" lon="5.75891">
        <ele>792.8</ele>
        <time>2021-04-22T11:46:54Z</time>
      </trkpt>
      <trkpt lat="44.8204" lon="5.75896">
        <ele>792.8</ele>
        <time>2021-04-22T11:46:55Z</time>
      </trkpt>
      <trkpt lat="44.82043" lon="5.75899">
        <ele>792.9</ele>
        <time>2021-04-22T11:46:56Z</time>
      </trkpt>
      <trkpt lat="44.82046" lon="5.75903">
        <ele>792.9</ele>
        <time>2021-04-22T11:46:57Z</time>
      </trkpt>
      <trkpt lat="44.8205" lon="5.75908">
        <ele>793</ele>
        <time>2021-04-22T11:46:58Z</time>
      </trkpt>
      <trkpt lat="44.82052" lon="5.75911">
        <ele>793</ele>
        <time>2021-04-22T11:46:59Z</time>
      </trkpt>
      <trkpt lat="44.82055" lon="5.75914">
        <ele>793</ele>
        <time>2021-04-22T11:47:00Z</time>
      </trkpt>
      <trkpt lat="44.82058" lon="5.75917">
        <ele>793.1</ele>
        <time>2021-04-22T11:47:01Z</time>
      </trkpt>
      <trkpt lat="44.8206" lon="5.7592">
        <ele>793.2</ele>
        <time>2021-04-22T11:47:02Z</time>
      </trkpt>
      <trkpt lat="44.82063" lon="5.75922">
        <ele>793.3</ele>
        <time>2021-04-22T11:47:03Z</time>
      </trkpt>
      <trkpt lat="44.82066" lon="5.75926">
        <ele>793.4</ele>
        <time>2021-04-22T11:47:04Z</time>
      </trkpt>
      <trkpt lat="44.82068" lon="5.75929">
        <ele>793.5</ele>
        <time>2021-04-22T11:47:05Z</time>
      </trkpt>
      <trkpt lat="44.82071" lon="5.75932">
        <ele>793.6</ele>
        <time>2021-04-22T11:47:06Z</time>
      </trkpt>
      <trkpt lat="44.82073" lon="5.75936">
        <ele>793.7</ele>
        <time>2021-04-22T11:47:07Z</time>
      </trkpt>
      <trkpt lat="44.82075" lon="5.7594">
        <ele>793.8</ele>
        <time>2021-04-22T11:47:08Z</time>
      </trkpt>
      <trkpt lat="44.82077" lon="5.75941">
        <ele>793.9</ele>
        <time>2021-04-22T11:47:09Z</time>
      </trkpt>
      <trkpt lat="44.82079" lon="5.75945">
        <ele>794</ele>
        <time>2021-04-22T11:47:10Z</time>
      </trkpt>
      <trkpt lat="44.82081" lon="5.75947">
        <ele>794.1</ele>
        <time>2021-04-22T11:47:11Z</time>
      </trkpt>
      <trkpt lat="44.82085" lon="5.75951">
        <ele>794.2</ele>
        <time>2021-04-22T11:47:12Z</time>
      </trkpt>
      <trkpt lat="44.82086" lon="5.75952">
        <ele>794.3</ele>
        <time>2021-04-22T11:47:13Z</time>
      </trkpt>
      <trkpt lat="44.82088" lon="5.75954">
        <ele>794.4</ele>
        <time>2021-04-22T11:47:14Z</time>
      </trkpt>
      <trkpt lat="44.82091" lon="5.75957">
        <ele>794.5</ele>
        <time>2021-04-22T11:47:15Z</time>
      </trkpt>
      <trkpt lat="44.82093" lon="5.7596">
        <ele>794.6</ele>
        <time>2021-04-22T11:47:16Z</time>
      </trkpt>
      <trkpt lat="44.82096" lon="5.75963">
        <ele>794.8</ele>
        <time>2021-04-22T11:47:17Z</time>
      </trkpt>
      <trkpt lat="44.82099" lon="5.75966">
        <ele>794.9</ele>
        <time>2021-04-22T11:47:18Z</time>
      </trkpt>
      <trkpt lat="44.82102" lon="5.75969">
        <ele>795.1</ele>
        <time>2021-04-22T11:47:19Z</time>
      </trkpt>
      <trkpt lat="44.82104" lon="5.75971">
        <ele>795.2</ele>
        <time>2021-04-22T11:47:20Z</time>
      </trkpt>
      <trkpt lat="44.82107" lon="5.75974">
        <ele>795.4</ele>
        <time>2021-04-22T11:47:21Z</time>
      </trkpt>
      <trkpt lat="44.82109" lon="5.75977">
        <ele>795.5</ele>
        <time>2021-04-22T11:47:22Z</time>
      </trkpt>
      <trkpt lat="44.82112" lon="5.7598">
        <ele>795.7</ele>
        <time>2021-04-22T11:47:23Z</time>
      </trkpt>
      <trkpt lat="44.82115" lon="5.75983">
        <ele>795.8</ele>
        <time>2021-04-22T11:47:24Z</time>
      </trkpt>
      <trkpt lat="44.82117" lon="5.75985">
        <ele>796</ele>
        <time>2021-04-22T11:47:25Z</time>
      </trkpt>
      <trkpt lat="44.82121" lon="5.75987">
        <ele>796.2</ele>
        <time>2021-04-22T11:47:26Z</time>
      </trkpt>
      <trkpt lat="44.82125" lon="5.75991">
        <ele>796.4</ele>
        <time>2021-04-22T11:47:27Z</time>
      </trkpt>
      <trkpt lat="44.82128" lon="5.75993">
        <ele>796.6</ele>
        <time>2021-04-22T11:47:28Z</time>
      </trkpt>
      <trkpt lat="44.82131" lon="5.75996">
        <ele>796.7</ele>
        <time>2021-04-22T11:47:29Z</time>
      </trkpt>
      <trkpt lat="44.82133" lon="5.75999">
        <ele>796.9</ele>
        <time>2021-04-22T11:47:30Z</time>
      </trkpt>
      <trkpt lat="44.82136" lon="5.76002">
        <ele>797</ele>
        <time>2021-04-22T11:47:31Z</time>
      </trkpt>
      <trkpt lat="44.82138" lon="5.76005">
        <ele>797.2</ele>
        <time>2021-04-22T11:47:32Z</time>
      </trkpt>
      <trkpt lat="44.8214" lon="5.76008">
        <ele>797.3</ele>
        <time>2021-04-22T11:47:33Z</time>
      </trkpt>
      <trkpt lat="44.82142" lon="5.76011">
        <ele>797.5</ele>
        <time>2021-04-22T11:47:34Z</time>
      </trkpt>
      <trkpt lat="44.82144" lon="5.76014">
        <ele>797.6</ele>
        <time>2021-04-22T11:47:35Z</time>
      </trkpt>
      <trkpt lat="44.82147" lon="5.76017">
        <ele>797.8</ele>
        <time>2021-04-22T11:47:36Z</time>
      </trkpt>
      <trkpt lat="44.82148" lon="5.76018">
        <ele>797.8</ele>
        <time>2021-04-22T11:47:37Z</time>
      </trkpt>
      <trkpt lat="44.82151" lon="5.76021">
        <ele>798</ele>
        <time>2021-04-22T11:47:38Z</time>
      </trkpt>
      <trkpt lat="44.82152" lon="5.76022">
        <ele>798</ele>
        <time>2021-04-22T11:47:39Z</time>
      </trkpt>
      <trkpt lat="44.82155" lon="5.76025">
        <ele>798.2</ele>
        <time>2021-04-22T11:47:40Z</time>
      </trkpt>
      <trkpt lat="44.82157" lon="5.76028">
        <ele>798.3</ele>
        <time>2021-04-22T11:47:41Z</time>
      </trkpt>
      <trkpt lat="44.8216" lon="5.76031">
        <ele>798.4</ele>
        <time>2021-04-22T11:47:42Z</time>
      </trkpt>
      <trkpt lat="44.82163" lon="5.76033">
        <ele>798.6</ele>
        <time>2021-04-22T11:47:43Z</time>
      </trkpt>
      <trkpt lat="44.82166" lon="5.76036">
        <ele>798.7</ele>
        <time>2021-04-22T11:47:44Z</time>
      </trkpt>
      <trkpt lat="44.82168" lon="5.76038">
        <ele>798.9</ele>
        <time>2021-04-22T11:47:45Z</time>
      </trkpt>
      <trkpt lat="44.82171" lon="5.76042">
        <ele>799</ele>
        <time>2021-04-22T11:47:46Z</time>
      </trkpt>
      <trkpt lat="44.82174" lon="5.76045">
        <ele>799.2</ele>
        <time>2021-04-22T11:47:47Z</time>
      </trkpt>
      <trkpt lat="44.82176" lon="5.76048">
        <ele>799.3</ele>
        <time>2021-04-22T11:47:48Z</time>
      </trkpt>
      <trkpt lat="44.82179" lon="5.76052">
        <ele>799.4</ele>
        <time>2021-04-22T11:47:49Z</time>
      </trkpt>
      <trkpt lat="44.82182" lon="5.76055">
        <ele>799.6</ele>
        <time>2021-04-22T11:47:50Z</time>
      </trkpt>
      <trkpt lat="44.82185" lon="5.76058">
        <ele>799.7</ele>
        <time>2021-04-22T11:47:51Z</time>
      </trkpt>
      <trkpt lat="44.82189" lon="5.76062">
        <ele>799.9</ele>
        <time>2021-04-22T11:47:52Z</time>
      </trkpt>
      <trkpt lat="44.82191" lon="5.76064">
        <ele>800</ele>
        <time>2021-04-22T11:47:53Z</time>
      </trkpt>
      <trkpt lat="44.82197" lon="5.76069">
        <ele>800.3</ele>
        <time>2021-04-22T11:47:54Z</time>
      </trkpt>
      <trkpt lat="44.822" lon="5.76073">
        <ele>800.5</ele>
        <time>2021-04-22T11:47:56Z</time>
      </trkpt>
      <trkpt lat="44.82201" lon="5.76075">
        <ele>800.6</ele>
        <time>2021-04-22T11:47:57Z</time>
      </trkpt>
      <trkpt lat="44.82204" lon="5.76079">
        <ele>800.8</ele>
        <time>2021-04-22T11:47:58Z</time>
      </trkpt>
      <trkpt lat="44.82209" lon="5.76084">
        <ele>801</ele>
        <time>2021-04-22T11:47:59Z</time>
      </trkpt>
      <trkpt lat="44.82212" lon="5.76087">
        <ele>801.1</ele>
        <time>2021-04-22T11:48:00Z</time>
      </trkpt>
      <trkpt lat="44.82216" lon="5.76092">
        <ele>801.3</ele>
        <time>2021-04-22T11:48:02Z</time>
      </trkpt>
      <trkpt lat="44.82218" lon="5.76094">
        <ele>801.5</ele>
        <time>2021-04-22T11:48:03Z</time>
      </trkpt>
      <trkpt lat="44.82224" lon="5.76101">
        <ele>801.8</ele>
        <time>2021-04-22T11:48:05Z</time>
      </trkpt>
      <trkpt lat="44.82228" lon="5.76106">
        <ele>802</ele>
        <time>2021-04-22T11:48:06Z</time>
      </trkpt>
      <trkpt lat="44.82233" lon="5.76112">
        <ele>802.2</ele>
        <time>2021-04-22T11:48:07Z</time>
      </trkpt>
      <trkpt lat="44.82236" lon="5.76115">
        <ele>802.4</ele>
        <time>2021-04-22T11:48:09Z</time>
      </trkpt>
      <trkpt lat="44.82241" lon="5.7612">
        <ele>802.6</ele>
        <time>2021-04-22T11:48:11Z</time>
      </trkpt>
      <trkpt lat="44.82246" lon="5.76128">
        <ele>802.9</ele>
        <time>2021-04-22T11:48:13Z</time>
      </trkpt>
      <trkpt lat="44.82252" lon="5.76133">
        <ele>803.2</ele>
        <time>2021-04-22T11:48:15Z</time>
      </trkpt>
      <trkpt lat="44.82255" lon="5.76136">
        <ele>803.3</ele>
        <time>2021-04-22T11:48:16Z</time>
      </trkpt>
      <trkpt lat="44.8226" lon="5.76143">
        <ele>803.6</ele>
        <time>2021-04-22T11:48:18Z</time>
      </trkpt>
      <trkpt lat="44.82264" lon="5.76147">
        <ele>803.8</ele>
        <time>2021-04-22T11:48:19Z</time>
      </trkpt>
      <trkpt lat="44.82269" lon="5.76152">
        <ele>804</ele>
        <time>2021-04-22T11:48:21Z</time>
      </trkpt>
      <trkpt lat="44.82272" lon="5.76155">
        <ele>804.2</ele>
        <time>2021-04-22T11:48:22Z</time>
      </trkpt>
      <trkpt lat="44.82277" lon="5.7616">
        <ele>804.4</ele>
        <time>2021-04-22T11:48:24Z</time>
      </trkpt>
      <trkpt lat="44.8228" lon="5.76163">
        <ele>804.5</ele>
        <time>2021-04-22T11:48:25Z</time>
      </trkpt>
      <trkpt lat="44.82285" lon="5.76169">
        <ele>804.8</ele>
        <time>2021-04-22T11:48:27Z</time>
      </trkpt>
      <trkpt lat="44.82289" lon="5.76173">
        <ele>805</ele>
        <time>2021-04-22T11:48:28Z</time>
      </trkpt>
      <trkpt lat="44.82294" lon="5.76178">
        <ele>805.3</ele>
        <time>2021-04-22T11:48:30Z</time>
      </trkpt>
      <trkpt lat="44.82297" lon="5.76182">
        <ele>805.5</ele>
        <time>2021-04-22T11:48:31Z</time>
      </trkpt>
      <trkpt lat="44.82301" lon="5.76186">
        <ele>805.7</ele>
        <time>2021-04-22T11:48:32Z</time>
      </trkpt>
      <trkpt lat="44.82304" lon="5.76189">
        <ele>805.8</ele>
        <time>2021-04-22T11:48:33Z</time>
      </trkpt>
      <trkpt lat="44.82307" lon="5.76194">
        <ele>806</ele>
        <time>2021-04-22T11:48:35Z</time>
      </trkpt>
      <trkpt lat="44.8231" lon="5.76197">
        <ele>806.2</ele>
        <time>2021-04-22T11:48:36Z</time>
      </trkpt>
      <trkpt lat="44.82314" lon="5.76201">
        <ele>806.4</ele>
        <time>2021-04-22T11:48:37Z</time>
      </trkpt>
      <trkpt lat="44.82318" lon="5.76205">
        <ele>806.6</ele>
        <time>2021-04-22T11:48:39Z</time>
      </trkpt>
      <trkpt lat="44.82322" lon="5.76208">
        <ele>806.8</ele>
        <time>2021-04-22T11:48:40Z</time>
      </trkpt>
      <trkpt lat="44.82327" lon="5.76214">
        <ele>807.1</ele>
        <time>2021-04-22T11:48:42Z</time>
      </trkpt>
      <trkpt lat="44.82332" lon="5.76218">
        <ele>807.3</ele>
        <time>2021-04-22T11:48:43Z</time>
      </trkpt>
      <trkpt lat="44.82336" lon="5.76222">
        <ele>807.5</ele>
        <time>2021-04-22T11:48:45Z</time>
      </trkpt>
      <trkpt lat="44.8234" lon="5.76225">
        <ele>807.7</ele>
        <time>2021-04-22T11:48:46Z</time>
      </trkpt>
      <trkpt lat="44.82343" lon="5.76229">
        <ele>807.9</ele>
        <time>2021-04-22T11:48:47Z</time>
      </trkpt>
      <trkpt lat="44.82347" lon="5.76234">
        <ele>808.1</ele>
        <time>2021-04-22T11:48:49Z</time>
      </trkpt>
      <trkpt lat="44.8235" lon="5.76237">
        <ele>808.3</ele>
        <time>2021-04-22T11:48:50Z</time>
      </trkpt>
      <trkpt lat="44.82355" lon="5.76243">
        <ele>808.6</ele>
        <time>2021-04-22T11:48:52Z</time>
      </trkpt>
      <trkpt lat="44.82361" lon="5.76248">
        <ele>808.9</ele>
        <time>2021-04-22T11:48:54Z</time>
      </trkpt>
      <trkpt lat="44.82363" lon="5.76252">
        <ele>809.1</ele>
        <time>2021-04-22T11:48:55Z</time>
      </trkpt>
      <trkpt lat="44.82368" lon="5.76257">
        <ele>809.3</ele>
        <time>2021-04-22T11:48:56Z</time>
      </trkpt>
      <trkpt lat="44.82372" lon="5.7626">
        <ele>809.5</ele>
        <time>2021-04-22T11:48:57Z</time>
      </trkpt>
      <trkpt lat="44.82375" lon="5.76263">
        <ele>809.7</ele>
        <time>2021-04-22T11:48:59Z</time>
      </trkpt>
      <trkpt lat="44.82378" lon="5.76266">
        <ele>809.9</ele>
        <time>2021-04-22T11:49:00Z</time>
      </trkpt>
      <trkpt lat="44.82383" lon="5.76271">
        <ele>810.1</ele>
        <time>2021-04-22T11:49:02Z</time>
      </trkpt>
      <trkpt lat="44.82386" lon="5.76275">
        <ele>810.3</ele>
        <time>2021-04-22T11:49:03Z</time>
      </trkpt>
      <trkpt lat="44.8239" lon="5.76278">
        <ele>810.5</ele>
        <time>2021-04-22T11:49:04Z</time>
      </trkpt>
      <trkpt lat="44.82395" lon="5.76282">
        <ele>810.7</ele>
        <time>2021-04-22T11:49:06Z</time>
      </trkpt>
      <trkpt lat="44.82399" lon="5.76286">
        <ele>810.9</ele>
        <time>2021-04-22T11:49:07Z</time>
      </trkpt>
      <trkpt lat="44.82402" lon="5.7629">
        <ele>811.1</ele>
        <time>2021-04-22T11:49:08Z</time>
      </trkpt>
      <trkpt lat="44.82406" lon="5.76295">
        <ele>811.3</ele>
        <time>2021-04-22T11:49:10Z</time>
      </trkpt>
      <trkpt lat="44.82412" lon="5.763">
        <ele>811.6</ele>
        <time>2021-04-22T11:49:12Z</time>
      </trkpt>
      <trkpt lat="44.82415" lon="5.76304">
        <ele>811.8</ele>
        <time>2021-04-22T11:49:13Z</time>
      </trkpt>
      <trkpt lat="44.82419" lon="5.76311">
        <ele>812.1</ele>
        <time>2021-04-22T11:49:15Z</time>
      </trkpt>
      <trkpt lat="44.82422" lon="5.76313">
        <ele>812.2</ele>
        <time>2021-04-22T11:49:16Z</time>
      </trkpt>
      <trkpt lat="44.82426" lon="5.76317">
        <ele>812.5</ele>
        <time>2021-04-22T11:49:17Z</time>
      </trkpt>
      <trkpt lat="44.82431" lon="5.76323">
        <ele>812.7</ele>
        <time>2021-04-22T11:49:19Z</time>
      </trkpt>
      <trkpt lat="44.82433" lon="5.76326">
        <ele>812.9</ele>
        <time>2021-04-22T11:49:20Z</time>
      </trkpt>
      <trkpt lat="44.82438" lon="5.76332">
        <ele>813.2</ele>
        <time>2021-04-22T11:49:22Z</time>
      </trkpt>
      <trkpt lat="44.82442" lon="5.76336">
        <ele>813.4</ele>
        <time>2021-04-22T11:49:23Z</time>
      </trkpt>
      <trkpt lat="44.82447" lon="5.76342">
        <ele>813.7</ele>
        <time>2021-04-22T11:49:24Z</time>
      </trkpt>
      <trkpt lat="44.8245" lon="5.76346">
        <ele>813.8</ele>
        <time>2021-04-22T11:49:26Z</time>
      </trkpt>
      <trkpt lat="44.82453" lon="5.76349">
        <ele>813.9</ele>
        <time>2021-04-22T11:49:27Z</time>
      </trkpt>
      <trkpt lat="44.82458" lon="5.76354">
        <ele>814.1</ele>
        <time>2021-04-22T11:49:29Z</time>
      </trkpt>
      <trkpt lat="44.82463" lon="5.76361">
        <ele>814.3</ele>
        <time>2021-04-22T11:49:31Z</time>
      </trkpt>
      <trkpt lat="44.82467" lon="5.76364">
        <ele>814.5</ele>
        <time>2021-04-22T11:49:32Z</time>
      </trkpt>
      <trkpt lat="44.82473" lon="5.7637">
        <ele>814.7</ele>
        <time>2021-04-22T11:49:34Z</time>
      </trkpt>
      <trkpt lat="44.8248" lon="5.76378">
        <ele>815.1</ele>
        <time>2021-04-22T11:49:36Z</time>
      </trkpt>
      <trkpt lat="44.82486" lon="5.76386">
        <ele>815.4</ele>
        <time>2021-04-22T11:49:38Z</time>
      </trkpt>
      <trkpt lat="44.82491" lon="5.76393">
        <ele>815.7</ele>
        <time>2021-04-22T11:49:40Z</time>
      </trkpt>
      <trkpt lat="44.82494" lon="5.76397">
        <ele>815.9</ele>
        <time>2021-04-22T11:49:41Z</time>
      </trkpt>
      <trkpt lat="44.82497" lon="5.764">
        <ele>816.1</ele>
        <time>2021-04-22T11:49:42Z</time>
      </trkpt>
      <trkpt lat="44.82501" lon="5.76403">
        <ele>816.2</ele>
        <time>2021-04-22T11:49:43Z</time>
      </trkpt>
      <trkpt lat="44.82505" lon="5.76408">
        <ele>816.5</ele>
        <time>2021-04-22T11:49:44Z</time>
      </trkpt>
      <trkpt lat="44.82509" lon="5.76413">
        <ele>816.7</ele>
        <time>2021-04-22T11:49:46Z</time>
      </trkpt>
      <trkpt lat="44.82513" lon="5.76417">
        <ele>816.9</ele>
        <time>2021-04-22T11:49:47Z</time>
      </trkpt>
      <trkpt lat="44.82517" lon="5.7642">
        <ele>817.1</ele>
        <time>2021-04-22T11:49:49Z</time>
      </trkpt>
      <trkpt lat="44.82522" lon="5.76427">
        <ele>817.3</ele>
        <time>2021-04-22T11:49:51Z</time>
      </trkpt>
      <trkpt lat="44.82525" lon="5.76431">
        <ele>817.5</ele>
        <time>2021-04-22T11:49:52Z</time>
      </trkpt>
      <trkpt lat="44.82529" lon="5.76433">
        <ele>817.7</ele>
        <time>2021-04-22T11:49:53Z</time>
      </trkpt>
      <trkpt lat="44.82531" lon="5.76437">
        <ele>817.8</ele>
        <time>2021-04-22T11:49:55Z</time>
      </trkpt>
      <trkpt lat="44.82536" lon="5.76442">
        <ele>818.1</ele>
        <time>2021-04-22T11:49:57Z</time>
      </trkpt>
      <trkpt lat="44.82539" lon="5.76445">
        <ele>818.2</ele>
        <time>2021-04-22T11:49:58Z</time>
      </trkpt>
      <trkpt lat="44.82542" lon="5.7645">
        <ele>818.4</ele>
        <time>2021-04-22T11:49:59Z</time>
      </trkpt>
      <trkpt lat="44.82547" lon="5.76455">
        <ele>818.6</ele>
        <time>2021-04-22T11:50:01Z</time>
      </trkpt>
      <trkpt lat="44.82551" lon="5.76458">
        <ele>818.8</ele>
        <time>2021-04-22T11:50:02Z</time>
      </trkpt>
      <trkpt lat="44.82556" lon="5.76464">
        <ele>819</ele>
        <time>2021-04-22T11:50:04Z</time>
      </trkpt>
      <trkpt lat="44.8256" lon="5.76467">
        <ele>819.2</ele>
        <time>2021-04-22T11:50:05Z</time>
      </trkpt>
      <trkpt lat="44.82565" lon="5.76472">
        <ele>819.4</ele>
        <time>2021-04-22T11:50:06Z</time>
      </trkpt>
      <trkpt lat="44.82568" lon="5.76476">
        <ele>819.6</ele>
        <time>2021-04-22T11:50:08Z</time>
      </trkpt>
      <trkpt lat="44.8257" lon="5.76479">
        <ele>819.7</ele>
        <time>2021-04-22T11:50:09Z</time>
      </trkpt>
      <trkpt lat="44.82573" lon="5.76482">
        <ele>819.9</ele>
        <time>2021-04-22T11:50:10Z</time>
      </trkpt>
      <trkpt lat="44.82577" lon="5.76487">
        <ele>820</ele>
        <time>2021-04-22T11:50:12Z</time>
      </trkpt>
      <trkpt lat="44.82581" lon="5.76491">
        <ele>820.3</ele>
        <time>2021-04-22T11:50:13Z</time>
      </trkpt>
      <trkpt lat="44.82584" lon="5.76495">
        <ele>820.4</ele>
        <time>2021-04-22T11:50:15Z</time>
      </trkpt>
      <trkpt lat="44.82586" lon="5.76498">
        <ele>820.6</ele>
        <time>2021-04-22T11:50:16Z</time>
      </trkpt>
      <trkpt lat="44.8259" lon="5.76503">
        <ele>820.8</ele>
        <time>2021-04-22T11:50:17Z</time>
      </trkpt>
      <trkpt lat="44.82593" lon="5.76506">
        <ele>820.9</ele>
        <time>2021-04-22T11:50:18Z</time>
      </trkpt>
      <trkpt lat="44.82598" lon="5.76511">
        <ele>821.2</ele>
        <time>2021-04-22T11:50:20Z</time>
      </trkpt>
      <trkpt lat="44.82603" lon="5.76515">
        <ele>821.4</ele>
        <time>2021-04-22T11:50:22Z</time>
      </trkpt>
      <trkpt lat="44.82607" lon="5.76519">
        <ele>821.6</ele>
        <time>2021-04-22T11:50:24Z</time>
      </trkpt>
      <trkpt lat="44.82609" lon="5.76522">
        <ele>821.8</ele>
        <time>2021-04-22T11:50:25Z</time>
      </trkpt>
      <trkpt lat="44.82611" lon="5.76526">
        <ele>821.9</ele>
        <time>2021-04-22T11:50:26Z</time>
      </trkpt>
      <trkpt lat="44.82614" lon="5.76529">
        <ele>822</ele>
        <time>2021-04-22T11:50:27Z</time>
      </trkpt>
      <trkpt lat="44.82616" lon="5.76532">
        <ele>822.1</ele>
        <time>2021-04-22T11:50:28Z</time>
      </trkpt>
      <trkpt lat="44.82618" lon="5.76535">
        <ele>822.2</ele>
        <time>2021-04-22T11:50:29Z</time>
      </trkpt>
      <trkpt lat="44.82621" lon="5.76538">
        <ele>822.4</ele>
        <time>2021-04-22T11:50:30Z</time>
      </trkpt>
      <trkpt lat="44.82624" lon="5.76541">
        <ele>822.5</ele>
        <time>2021-04-22T11:50:31Z</time>
      </trkpt>
      <trkpt lat="44.82626" lon="5.76544">
        <ele>822.7</ele>
        <time>2021-04-22T11:50:32Z</time>
      </trkpt>
      <trkpt lat="44.82629" lon="5.76548">
        <ele>822.8</ele>
        <time>2021-04-22T11:50:33Z</time>
      </trkpt>
      <trkpt lat="44.82632" lon="5.76551">
        <ele>823</ele>
        <time>2021-04-22T11:50:34Z</time>
      </trkpt>
      <trkpt lat="44.82635" lon="5.76555">
        <ele>823.1</ele>
        <time>2021-04-22T11:50:35Z</time>
      </trkpt>
      <trkpt lat="44.82638" lon="5.76557">
        <ele>823.2</ele>
        <time>2021-04-22T11:50:36Z</time>
      </trkpt>
      <trkpt lat="44.82641" lon="5.7656">
        <ele>823.2</ele>
        <time>2021-04-22T11:50:37Z</time>
      </trkpt>
      <trkpt lat="44.82643" lon="5.76563">
        <ele>823.3</ele>
        <time>2021-04-22T11:50:38Z</time>
      </trkpt>
      <trkpt lat="44.82646" lon="5.76566">
        <ele>823.4</ele>
        <time>2021-04-22T11:50:39Z</time>
      </trkpt>
      <trkpt lat="44.82648" lon="5.76569">
        <ele>823.4</ele>
        <time>2021-04-22T11:50:40Z</time>
      </trkpt>
      <trkpt lat="44.82651" lon="5.76572">
        <ele>823.5</ele>
        <time>2021-04-22T11:50:41Z</time>
      </trkpt>
      <trkpt lat="44.82654" lon="5.76574">
        <ele>823.6</ele>
        <time>2021-04-22T11:50:42Z</time>
      </trkpt>
      <trkpt lat="44.82657" lon="5.76577">
        <ele>823.7</ele>
        <time>2021-04-22T11:50:43Z</time>
      </trkpt>
      <trkpt lat="44.82659" lon="5.7658">
        <ele>823.9</ele>
        <time>2021-04-22T11:50:44Z</time>
      </trkpt>
      <trkpt lat="44.82661" lon="5.76583">
        <ele>824</ele>
        <time>2021-04-22T11:50:45Z</time>
      </trkpt>
      <trkpt lat="44.82664" lon="5.76585">
        <ele>824.1</ele>
        <time>2021-04-22T11:50:46Z</time>
      </trkpt>
      <trkpt lat="44.82666" lon="5.76588">
        <ele>824.2</ele>
        <time>2021-04-22T11:50:47Z</time>
      </trkpt>
      <trkpt lat="44.82668" lon="5.76591">
        <ele>824.4</ele>
        <time>2021-04-22T11:50:48Z</time>
      </trkpt>
      <trkpt lat="44.82671" lon="5.76594">
        <ele>824.5</ele>
        <time>2021-04-22T11:50:49Z</time>
      </trkpt>
      <trkpt lat="44.82674" lon="5.76596">
        <ele>824.7</ele>
        <time>2021-04-22T11:50:50Z</time>
      </trkpt>
      <trkpt lat="44.82677" lon="5.76599">
        <ele>824.8</ele>
        <time>2021-04-22T11:50:51Z</time>
      </trkpt>
      <trkpt lat="44.8268" lon="5.76602">
        <ele>825</ele>
        <time>2021-04-22T11:50:52Z</time>
      </trkpt>
      <trkpt lat="44.82683" lon="5.76604">
        <ele>825.1</ele>
        <time>2021-04-22T11:50:53Z</time>
      </trkpt>
      <trkpt lat="44.82686" lon="5.76607">
        <ele>825.3</ele>
        <time>2021-04-22T11:50:54Z</time>
      </trkpt>
      <trkpt lat="44.82688" lon="5.76609">
        <ele>825.4</ele>
        <time>2021-04-22T11:50:55Z</time>
      </trkpt>
      <trkpt lat="44.8269" lon="5.76612">
        <ele>825.5</ele>
        <time>2021-04-22T11:50:56Z</time>
      </trkpt>
      <trkpt lat="44.82693" lon="5.76614">
        <ele>825.6</ele>
        <time>2021-04-22T11:50:57Z</time>
      </trkpt>
      <trkpt lat="44.82695" lon="5.76617">
        <ele>825.8</ele>
        <time>2021-04-22T11:50:58Z</time>
      </trkpt>
      <trkpt lat="44.82698" lon="5.7662">
        <ele>825.9</ele>
        <time>2021-04-22T11:50:59Z</time>
      </trkpt>
      <trkpt lat="44.82701" lon="5.76623">
        <ele>826.1</ele>
        <time>2021-04-22T11:51:00Z</time>
      </trkpt>
      <trkpt lat="44.82704" lon="5.76626">
        <ele>826.3</ele>
        <time>2021-04-22T11:51:01Z</time>
      </trkpt>
      <trkpt lat="44.82706" lon="5.76629">
        <ele>826.4</ele>
        <time>2021-04-22T11:51:02Z</time>
      </trkpt>
      <trkpt lat="44.82709" lon="5.76633">
        <ele>826.6</ele>
        <time>2021-04-22T11:51:03Z</time>
      </trkpt>
      <trkpt lat="44.82712" lon="5.76635">
        <ele>826.7</ele>
        <time>2021-04-22T11:51:04Z</time>
      </trkpt>
      <trkpt lat="44.82714" lon="5.76638">
        <ele>826.8</ele>
        <time>2021-04-22T11:51:05Z</time>
      </trkpt>
      <trkpt lat="44.82717" lon="5.76641">
        <ele>827</ele>
        <time>2021-04-22T11:51:06Z</time>
      </trkpt>
      <trkpt lat="44.8272" lon="5.76644">
        <ele>827.1</ele>
        <time>2021-04-22T11:51:07Z</time>
      </trkpt>
      <trkpt lat="44.82722" lon="5.76646">
        <ele>827.2</ele>
        <time>2021-04-22T11:51:08Z</time>
      </trkpt>
      <trkpt lat="44.82724" lon="5.76649">
        <ele>827.4</ele>
        <time>2021-04-22T11:51:09Z</time>
      </trkpt>
      <trkpt lat="44.82726" lon="5.76652">
        <ele>827.5</ele>
        <time>2021-04-22T11:51:10Z</time>
      </trkpt>
      <trkpt lat="44.82729" lon="5.76655">
        <ele>827.6</ele>
        <time>2021-04-22T11:51:11Z</time>
      </trkpt>
      <trkpt lat="44.82732" lon="5.76657">
        <ele>827.8</ele>
        <time>2021-04-22T11:51:12Z</time>
      </trkpt>
      <trkpt lat="44.82734" lon="5.7666">
        <ele>827.9</ele>
        <time>2021-04-22T11:51:13Z</time>
      </trkpt>
      <trkpt lat="44.82737" lon="5.76663">
        <ele>828.1</ele>
        <time>2021-04-22T11:51:14Z</time>
      </trkpt>
      <trkpt lat="44.82739" lon="5.76666">
        <ele>828.2</ele>
        <time>2021-04-22T11:51:15Z</time>
      </trkpt>
      <trkpt lat="44.82742" lon="5.76669">
        <ele>828.3</ele>
        <time>2021-04-22T11:51:16Z</time>
      </trkpt>
      <trkpt lat="44.82744" lon="5.76672">
        <ele>828.5</ele>
        <time>2021-04-22T11:51:17Z</time>
      </trkpt>
      <trkpt lat="44.82747" lon="5.76675">
        <ele>828.6</ele>
        <time>2021-04-22T11:51:18Z</time>
      </trkpt>
      <trkpt lat="44.8275" lon="5.76678">
        <ele>828.8</ele>
        <time>2021-04-22T11:51:19Z</time>
      </trkpt>
      <trkpt lat="44.82753" lon="5.7668">
        <ele>828.9</ele>
        <time>2021-04-22T11:51:20Z</time>
      </trkpt>
      <trkpt lat="44.82756" lon="5.76683">
        <ele>829.1</ele>
        <time>2021-04-22T11:51:21Z</time>
      </trkpt>
      <trkpt lat="44.82759" lon="5.76686">
        <ele>829.3</ele>
        <time>2021-04-22T11:51:22Z</time>
      </trkpt>
      <trkpt lat="44.82761" lon="5.76689">
        <ele>829.4</ele>
        <time>2021-04-22T11:51:23Z</time>
      </trkpt>
      <trkpt lat="44.82764" lon="5.76692">
        <ele>829.6</ele>
        <time>2021-04-22T11:51:24Z</time>
      </trkpt>
      <trkpt lat="44.82767" lon="5.76695">
        <ele>829.7</ele>
        <time>2021-04-22T11:51:25Z</time>
      </trkpt>
      <trkpt lat="44.82769" lon="5.76698">
        <ele>829.9</ele>
        <time>2021-04-22T11:51:26Z</time>
      </trkpt>
      <trkpt lat="44.82771" lon="5.76701">
        <ele>830</ele>
        <time>2021-04-22T11:51:27Z</time>
      </trkpt>
      <trkpt lat="44.82774" lon="5.76704">
        <ele>830.1</ele>
        <time>2021-04-22T11:51:28Z</time>
      </trkpt>
      <trkpt lat="44.82777" lon="5.76707">
        <ele>830.3</ele>
        <time>2021-04-22T11:51:29Z</time>
      </trkpt>
      <trkpt lat="44.8278" lon="5.76709">
        <ele>830.4</ele>
        <time>2021-04-22T11:51:30Z</time>
      </trkpt>
      <trkpt lat="44.82782" lon="5.76712">
        <ele>830.6</ele>
        <time>2021-04-22T11:51:31Z</time>
      </trkpt>
      <trkpt lat="44.82785" lon="5.76715">
        <ele>830.7</ele>
        <time>2021-04-22T11:51:32Z</time>
      </trkpt>
      <trkpt lat="44.82788" lon="5.76717">
        <ele>830.8</ele>
        <time>2021-04-22T11:51:33Z</time>
      </trkpt>
      <trkpt lat="44.8279" lon="5.76719">
        <ele>830.9</ele>
        <time>2021-04-22T11:51:34Z</time>
      </trkpt>
      <trkpt lat="44.82792" lon="5.76722">
        <ele>831.1</ele>
        <time>2021-04-22T11:51:35Z</time>
      </trkpt>
      <trkpt lat="44.82795" lon="5.76726">
        <ele>831.2</ele>
        <time>2021-04-22T11:51:36Z</time>
      </trkpt>
      <trkpt lat="44.82798" lon="5.76729">
        <ele>831.4</ele>
        <time>2021-04-22T11:51:37Z</time>
      </trkpt>
      <trkpt lat="44.828" lon="5.76732">
        <ele>831.5</ele>
        <time>2021-04-22T11:51:38Z</time>
      </trkpt>
      <trkpt lat="44.82802" lon="5.76735">
        <ele>831.6</ele>
        <time>2021-04-22T11:51:39Z</time>
      </trkpt>
      <trkpt lat="44.82805" lon="5.76738">
        <ele>831.8</ele>
        <time>2021-04-22T11:51:40Z</time>
      </trkpt>
      <trkpt lat="44.82807" lon="5.7674">
        <ele>831.9</ele>
        <time>2021-04-22T11:51:41Z</time>
      </trkpt>
      <trkpt lat="44.8281" lon="5.76743">
        <ele>832</ele>
        <time>2021-04-22T11:51:42Z</time>
      </trkpt>
      <trkpt lat="44.82812" lon="5.76745">
        <ele>832.2</ele>
        <time>2021-04-22T11:51:43Z</time>
      </trkpt>
      <trkpt lat="44.82815" lon="5.76748">
        <ele>832.3</ele>
        <time>2021-04-22T11:51:44Z</time>
      </trkpt>
      <trkpt lat="44.82817" lon="5.7675">
        <ele>832.4</ele>
        <time>2021-04-22T11:51:45Z</time>
      </trkpt>
      <trkpt lat="44.8282" lon="5.76754">
        <ele>832.6</ele>
        <time>2021-04-22T11:51:46Z</time>
      </trkpt>
      <trkpt lat="44.82821" lon="5.76755">
        <ele>832.6</ele>
        <time>2021-04-22T11:51:47Z</time>
      </trkpt>
      <trkpt lat="44.82823" lon="5.76758">
        <ele>832.8</ele>
        <time>2021-04-22T11:51:48Z</time>
      </trkpt>
      <trkpt lat="44.82826" lon="5.76761">
        <ele>832.9</ele>
        <time>2021-04-22T11:51:49Z</time>
      </trkpt>
      <trkpt lat="44.82827" lon="5.76762">
        <ele>832.9</ele>
        <time>2021-04-22T11:51:50Z</time>
      </trkpt>
      <trkpt lat="44.82829" lon="5.76764">
        <ele>833.1</ele>
        <time>2021-04-22T11:51:51Z</time>
      </trkpt>
      <trkpt lat="44.82832" lon="5.76767">
        <ele>833.2</ele>
        <time>2021-04-22T11:51:52Z</time>
      </trkpt>
      <trkpt lat="44.82835" lon="5.7677">
        <ele>833.4</ele>
        <time>2021-04-22T11:51:53Z</time>
      </trkpt>
      <trkpt lat="44.82837" lon="5.76773">
        <ele>833.5</ele>
        <time>2021-04-22T11:51:54Z</time>
      </trkpt>
      <trkpt lat="44.82839" lon="5.76775">
        <ele>833.6</ele>
        <time>2021-04-22T11:51:55Z</time>
      </trkpt>
      <trkpt lat="44.82842" lon="5.76779">
        <ele>833.8</ele>
        <time>2021-04-22T11:51:56Z</time>
      </trkpt>
      <trkpt lat="44.82844" lon="5.76781">
        <ele>833.9</ele>
        <time>2021-04-22T11:51:57Z</time>
      </trkpt>
      <trkpt lat="44.82847" lon="5.76784">
        <ele>834</ele>
        <time>2021-04-22T11:51:58Z</time>
      </trkpt>
      <trkpt lat="44.8285" lon="5.76788">
        <ele>834.2</ele>
        <time>2021-04-22T11:51:59Z</time>
      </trkpt>
      <trkpt lat="44.82851" lon="5.7679">
        <ele>834.3</ele>
        <time>2021-04-22T11:52:00Z</time>
      </trkpt>
      <trkpt lat="44.82854" lon="5.76793">
        <ele>834.4</ele>
        <time>2021-04-22T11:52:01Z</time>
      </trkpt>
      <trkpt lat="44.82856" lon="5.76796">
        <ele>834.5</ele>
        <time>2021-04-22T11:52:02Z</time>
      </trkpt>
      <trkpt lat="44.82859" lon="5.76798">
        <ele>834.6</ele>
        <time>2021-04-22T11:52:03Z</time>
      </trkpt>
      <trkpt lat="44.82861" lon="5.76801">
        <ele>834.8</ele>
        <time>2021-04-22T11:52:04Z</time>
      </trkpt>
      <trkpt lat="44.82864" lon="5.76804">
        <ele>834.9</ele>
        <time>2021-04-22T11:52:05Z</time>
      </trkpt>
      <trkpt lat="44.82867" lon="5.76806">
        <ele>835</ele>
        <time>2021-04-22T11:52:06Z</time>
      </trkpt>
      <trkpt lat="44.8287" lon="5.76809">
        <ele>835.1</ele>
        <time>2021-04-22T11:52:07Z</time>
      </trkpt>
      <trkpt lat="44.82872" lon="5.76812">
        <ele>835.3</ele>
        <time>2021-04-22T11:52:08Z</time>
      </trkpt>
      <trkpt lat="44.82875" lon="5.76815">
        <ele>835.4</ele>
        <time>2021-04-22T11:52:09Z</time>
      </trkpt>
      <trkpt lat="44.82878" lon="5.76818">
        <ele>835.5</ele>
        <time>2021-04-22T11:52:10Z</time>
      </trkpt>
      <trkpt lat="44.8288" lon="5.76821">
        <ele>835.6</ele>
        <time>2021-04-22T11:52:11Z</time>
      </trkpt>
      <trkpt lat="44.82884" lon="5.76824">
        <ele>835.8</ele>
        <time>2021-04-22T11:52:12Z</time>
      </trkpt>
      <trkpt lat="44.82886" lon="5.76827">
        <ele>835.9</ele>
        <time>2021-04-22T11:52:13Z</time>
      </trkpt>
      <trkpt lat="44.82889" lon="5.7683">
        <ele>836.1</ele>
        <time>2021-04-22T11:52:14Z</time>
      </trkpt>
      <trkpt lat="44.82892" lon="5.76833">
        <ele>836.2</ele>
        <time>2021-04-22T11:52:15Z</time>
      </trkpt>
      <trkpt lat="44.82894" lon="5.76836">
        <ele>836.3</ele>
        <time>2021-04-22T11:52:16Z</time>
      </trkpt>
      <trkpt lat="44.82897" lon="5.76838">
        <ele>836.4</ele>
        <time>2021-04-22T11:52:17Z</time>
      </trkpt>
      <trkpt lat="44.82899" lon="5.76841">
        <ele>836.5</ele>
        <time>2021-04-22T11:52:18Z</time>
      </trkpt>
      <trkpt lat="44.82902" lon="5.76843">
        <ele>836.6</ele>
        <time>2021-04-22T11:52:19Z</time>
      </trkpt>
      <trkpt lat="44.82905" lon="5.76845">
        <ele>836.7</ele>
        <time>2021-04-22T11:52:20Z</time>
      </trkpt>
      <trkpt lat="44.82907" lon="5.76848">
        <ele>836.8</ele>
        <time>2021-04-22T11:52:21Z</time>
      </trkpt>
      <trkpt lat="44.82908" lon="5.76852">
        <ele>837</ele>
        <time>2021-04-22T11:52:22Z</time>
      </trkpt>
      <trkpt lat="44.8291" lon="5.76858">
        <ele>837</ele>
        <time>2021-04-22T11:52:23Z</time>
      </trkpt>
      <trkpt lat="44.8291" lon="5.76867">
        <ele>837</ele>
        <time>2021-04-22T11:52:24Z</time>
      </trkpt>
      <trkpt lat="44.82909" lon="5.76872">
        <ele>837.1</ele>
        <time>2021-04-22T11:52:25Z</time>
      </trkpt>
      <trkpt lat="44.82907" lon="5.76876">
        <ele>837.1</ele>
        <time>2021-04-22T11:52:27Z</time>
      </trkpt>
      <trkpt lat="44.82907" lon="5.76877">
        <ele>837.1</ele>
        <time>2021-04-22T11:52:28Z</time>
      </trkpt>
      <trkpt lat="44.82906" lon="5.76882">
        <ele>837.2</ele>
        <time>2021-04-22T11:52:29Z</time>
      </trkpt>
      <trkpt lat="44.82904" lon="5.76887">
        <ele>837.2</ele>
        <time>2021-04-22T11:52:30Z</time>
      </trkpt>
      <trkpt lat="44.82904" lon="5.76891">
        <ele>837.3</ele>
        <time>2021-04-22T11:52:32Z</time>
      </trkpt>
      <trkpt lat="44.82903" lon="5.76895">
        <ele>837.3</ele>
        <time>2021-04-22T11:52:33Z</time>
      </trkpt>
      <trkpt lat="44.82902" lon="5.76899">
        <ele>837.4</ele>
        <time>2021-04-22T11:52:34Z</time>
      </trkpt>
      <trkpt lat="44.82901" lon="5.76901">
        <ele>837.4</ele>
        <time>2021-04-22T11:52:35Z</time>
      </trkpt>
      <trkpt lat="44.82901" lon="5.76905">
        <ele>837.5</ele>
        <time>2021-04-22T11:52:37Z</time>
      </trkpt>
      <trkpt lat="44.829" lon="5.76908">
        <ele>837.5</ele>
        <time>2021-04-22T11:52:38Z</time>
      </trkpt>
      <trkpt lat="44.82898" lon="5.76912">
        <ele>837.6</ele>
        <time>2021-04-22T11:52:40Z</time>
      </trkpt>
      <trkpt lat="44.82895" lon="5.76916">
        <ele>837.7</ele>
        <time>2021-04-22T11:52:41Z</time>
      </trkpt>
      <trkpt lat="44.82894" lon="5.76917">
        <ele>837.7</ele>
        <time>2021-04-22T11:52:42Z</time>
      </trkpt>
      <trkpt lat="44.82892" lon="5.76924">
        <ele>837.7</ele>
        <time>2021-04-22T11:52:44Z</time>
      </trkpt>
      <trkpt lat="44.82889" lon="5.76926">
        <ele>837.8</ele>
        <time>2021-04-22T11:52:46Z</time>
      </trkpt>
      <trkpt lat="44.82885" lon="5.7693">
        <ele>837.8</ele>
        <time>2021-04-22T11:52:47Z</time>
      </trkpt>
      <trkpt lat="44.82883" lon="5.76932">
        <ele>837.8</ele>
        <time>2021-04-22T11:52:48Z</time>
      </trkpt>
      <trkpt lat="44.8288" lon="5.76937">
        <ele>837.8</ele>
        <time>2021-04-22T11:52:50Z</time>
      </trkpt>
      <trkpt lat="44.82878" lon="5.7694">
        <ele>837.8</ele>
        <time>2021-04-22T11:52:51Z</time>
      </trkpt>
      <trkpt lat="44.82875" lon="5.76947">
        <ele>837.9</ele>
        <time>2021-04-22T11:52:53Z</time>
      </trkpt>
      <trkpt lat="44.82872" lon="5.76953">
        <ele>838</ele>
        <time>2021-04-22T11:52:55Z</time>
      </trkpt>
      <trkpt lat="44.82869" lon="5.76959">
        <ele>838.1</ele>
        <time>2021-04-22T11:52:56Z</time>
      </trkpt>
      <trkpt lat="44.82867" lon="5.76964">
        <ele>838.2</ele>
        <time>2021-04-22T11:52:57Z</time>
      </trkpt>
      <trkpt lat="44.82864" lon="5.7697">
        <ele>838.3</ele>
        <time>2021-04-22T11:52:59Z</time>
      </trkpt>
      <trkpt lat="44.82863" lon="5.76972">
        <ele>838.4</ele>
        <time>2021-04-22T11:53:00Z</time>
      </trkpt>
      <trkpt lat="44.82862" lon="5.76974">
        <ele>838.4</ele>
        <time>2021-04-22T11:53:01Z</time>
      </trkpt>
      <trkpt lat="44.82859" lon="5.76979">
        <ele>838.6</ele>
        <time>2021-04-22T11:53:03Z</time>
      </trkpt>
      <trkpt lat="44.82858" lon="5.76983">
        <ele>838.6</ele>
        <time>2021-04-22T11:53:04Z</time>
      </trkpt>
      <trkpt lat="44.82856" lon="5.76987">
        <ele>838.7</ele>
        <time>2021-04-22T11:53:05Z</time>
      </trkpt>
      <trkpt lat="44.82853" lon="5.76993">
        <ele>838.9</ele>
        <time>2021-04-22T11:53:07Z</time>
      </trkpt>
      <trkpt lat="44.82851" lon="5.76998">
        <ele>839</ele>
        <time>2021-04-22T11:53:09Z</time>
      </trkpt>
      <trkpt lat="44.82849" lon="5.77003">
        <ele>839.1</ele>
        <time>2021-04-22T11:53:11Z</time>
      </trkpt>
      <trkpt lat="44.82846" lon="5.77008">
        <ele>839.2</ele>
        <time>2021-04-22T11:53:13Z</time>
      </trkpt>
      <trkpt lat="44.82845" lon="5.77011">
        <ele>839.5</ele>
        <time>2021-04-22T11:53:14Z</time>
      </trkpt>
      <trkpt lat="44.82843" lon="5.77015">
        <ele>839.8</ele>
        <time>2021-04-22T11:53:15Z</time>
      </trkpt>
      <trkpt lat="44.82842" lon="5.77022">
        <ele>840.2</ele>
        <time>2021-04-22T11:53:17Z</time>
      </trkpt>
      <trkpt lat="44.82842" lon="5.77028">
        <ele>840.6</ele>
        <time>2021-04-22T11:53:19Z</time>
      </trkpt>
      <trkpt lat="44.82841" lon="5.77032">
        <ele>841</ele>
        <time>2021-04-22T11:53:20Z</time>
      </trkpt>
      <trkpt lat="44.8284" lon="5.77033">
        <ele>841.1</ele>
        <time>2021-04-22T11:53:21Z</time>
      </trkpt>
      <trkpt lat="44.82839" lon="5.77037">
        <ele>841.5</ele>
        <time>2021-04-22T11:53:23Z</time>
      </trkpt>
      <trkpt lat="44.82838" lon="5.7704">
        <ele>841.8</ele>
        <time>2021-04-22T11:53:24Z</time>
      </trkpt>
      <trkpt lat="44.82836" lon="5.77045">
        <ele>842.2</ele>
        <time>2021-04-22T11:53:26Z</time>
      </trkpt>
      <trkpt lat="44.82835" lon="5.77049">
        <ele>842.5</ele>
        <time>2021-04-22T11:53:28Z</time>
      </trkpt>
      <trkpt lat="44.82835" lon="5.77051">
        <ele>842.6</ele>
        <time>2021-04-22T11:53:29Z</time>
      </trkpt>
      <trkpt lat="44.82835" lon="5.77053">
        <ele>842.7</ele>
        <time>2021-04-22T11:53:30Z</time>
      </trkpt>
      <trkpt lat="44.82835" lon="5.77055">
        <ele>842.9</ele>
        <time>2021-04-22T11:53:31Z</time>
      </trkpt>
      <trkpt lat="44.82833" lon="5.7706">
        <ele>843.2</ele>
        <time>2021-04-22T11:53:33Z</time>
      </trkpt>
      <trkpt lat="44.82833" lon="5.77061">
        <ele>843.4</ele>
        <time>2021-04-22T11:53:34Z</time>
      </trkpt>
      <trkpt lat="44.82833" lon="5.77063">
        <ele>843.5</ele>
        <time>2021-04-22T11:53:35Z</time>
      </trkpt>
      <trkpt lat="44.82832" lon="5.77068">
        <ele>843.8</ele>
        <time>2021-04-22T11:53:37Z</time>
      </trkpt>
      <trkpt lat="44.82832" lon="5.77072">
        <ele>844.2</ele>
        <time>2021-04-22T11:53:39Z</time>
      </trkpt>
      <trkpt lat="44.82832" lon="5.77073">
        <ele>844.3</ele>
        <time>2021-04-22T11:53:40Z</time>
      </trkpt>
      <trkpt lat="44.82832" lon="5.77077">
        <ele>844.8</ele>
        <time>2021-04-22T11:53:41Z</time>
      </trkpt>
      <trkpt lat="44.82832" lon="5.77079">
        <ele>845</ele>
        <time>2021-04-22T11:53:42Z</time>
      </trkpt>
      <trkpt lat="44.82832" lon="5.77081">
        <ele>845.2</ele>
        <time>2021-04-22T11:53:43Z</time>
      </trkpt>
      <trkpt lat="44.82832" lon="5.77085">
        <ele>845.5</ele>
        <time>2021-04-22T11:53:45Z</time>
      </trkpt>
      <trkpt lat="44.82832" lon="5.77089">
        <ele>845.9</ele>
        <time>2021-04-22T11:53:46Z</time>
      </trkpt>
      <trkpt lat="44.82832" lon="5.77091">
        <ele>846.2</ele>
        <time>2021-04-22T11:53:47Z</time>
      </trkpt>
      <trkpt lat="44.82832" lon="5.77094">
        <ele>846.5</ele>
        <time>2021-04-22T11:53:49Z</time>
      </trkpt>
      <trkpt lat="44.82832" lon="5.77097">
        <ele>846.7</ele>
        <time>2021-04-22T11:53:50Z</time>
      </trkpt>
      <trkpt lat="44.82832" lon="5.77099">
        <ele>846.9</ele>
        <time>2021-04-22T11:53:51Z</time>
      </trkpt>
      <trkpt lat="44.82832" lon="5.77103">
        <ele>847.2</ele>
        <time>2021-04-22T11:53:52Z</time>
      </trkpt>
      <trkpt lat="44.82832" lon="5.77108">
        <ele>847.6</ele>
        <time>2021-04-22T11:53:54Z</time>
      </trkpt>
      <trkpt lat="44.82832" lon="5.7711">
        <ele>847.8</ele>
        <time>2021-04-22T11:53:55Z</time>
      </trkpt>
      <trkpt lat="44.82832" lon="5.77112">
        <ele>848</ele>
        <time>2021-04-22T11:53:56Z</time>
      </trkpt>
      <trkpt lat="44.82832" lon="5.77114">
        <ele>848.1</ele>
        <time>2021-04-22T11:53:57Z</time>
      </trkpt>
      <trkpt lat="44.82833" lon="5.77118">
        <ele>848.4</ele>
        <time>2021-04-22T11:53:59Z</time>
      </trkpt>
      <trkpt lat="44.82833" lon="5.77124">
        <ele>848.9</ele>
        <time>2021-04-22T11:54:00Z</time>
      </trkpt>
      <trkpt lat="44.82833" lon="5.77126">
        <ele>849</ele>
        <time>2021-04-22T11:54:01Z</time>
      </trkpt>
      <trkpt lat="44.82834" lon="5.77128">
        <ele>849.3</ele>
        <time>2021-04-22T11:54:03Z</time>
      </trkpt>
      <trkpt lat="44.82835" lon="5.7713">
        <ele>849.4</ele>
        <time>2021-04-22T11:54:04Z</time>
      </trkpt>
      <trkpt lat="44.82836" lon="5.77134">
        <ele>849.8</ele>
        <time>2021-04-22T11:54:05Z</time>
      </trkpt>
      <trkpt lat="44.82836" lon="5.77136">
        <ele>849.9</ele>
        <time>2021-04-22T11:54:06Z</time>
      </trkpt>
      <trkpt lat="44.82838" lon="5.7714">
        <ele>850.3</ele>
        <time>2021-04-22T11:54:08Z</time>
      </trkpt>
      <trkpt lat="44.82839" lon="5.77145">
        <ele>850.7</ele>
        <time>2021-04-22T11:54:10Z</time>
      </trkpt>
      <trkpt lat="44.82839" lon="5.77147">
        <ele>850.9</ele>
        <time>2021-04-22T11:54:11Z</time>
      </trkpt>
      <trkpt lat="44.82839" lon="5.7715">
        <ele>851.1</ele>
        <time>2021-04-22T11:54:12Z</time>
      </trkpt>
      <trkpt lat="44.82839" lon="5.77153">
        <ele>851.4</ele>
        <time>2021-04-22T11:54:13Z</time>
      </trkpt>
      <trkpt lat="44.82841" lon="5.77158">
        <ele>851.8</ele>
        <time>2021-04-22T11:54:15Z</time>
      </trkpt>
      <trkpt lat="44.82841" lon="5.77162">
        <ele>852.1</ele>
        <time>2021-04-22T11:54:16Z</time>
      </trkpt>
      <trkpt lat="44.82842" lon="5.77163">
        <ele>852.2</ele>
        <time>2021-04-22T11:54:17Z</time>
      </trkpt>
      <trkpt lat="44.82842" lon="5.77166">
        <ele>852.5</ele>
        <time>2021-04-22T11:54:18Z</time>
      </trkpt>
      <trkpt lat="44.82844" lon="5.77171">
        <ele>853</ele>
        <time>2021-04-22T11:54:20Z</time>
      </trkpt>
      <trkpt lat="44.82844" lon="5.77174">
        <ele>853.2</ele>
        <time>2021-04-22T11:54:21Z</time>
      </trkpt>
      <trkpt lat="44.82846" lon="5.77178">
        <ele>853.6</ele>
        <time>2021-04-22T11:54:23Z</time>
      </trkpt>
      <trkpt lat="44.82847" lon="5.7718">
        <ele>853.9</ele>
        <time>2021-04-22T11:54:24Z</time>
      </trkpt>
      <trkpt lat="44.82849" lon="5.77184">
        <ele>854.2</ele>
        <time>2021-04-22T11:54:26Z</time>
      </trkpt>
      <trkpt lat="44.82849" lon="5.77186">
        <ele>854.5</ele>
        <time>2021-04-22T11:54:27Z</time>
      </trkpt>
      <trkpt lat="44.82852" lon="5.7719">
        <ele>854.8</ele>
        <time>2021-04-22T11:54:29Z</time>
      </trkpt>
      <trkpt lat="44.82854" lon="5.77193">
        <ele>855.1</ele>
        <time>2021-04-22T11:54:30Z</time>
      </trkpt>
      <trkpt lat="44.82855" lon="5.77195">
        <ele>855.3</ele>
        <time>2021-04-22T11:54:31Z</time>
      </trkpt>
      <trkpt lat="44.82858" lon="5.77198">
        <ele>855.7</ele>
        <time>2021-04-22T11:54:33Z</time>
      </trkpt>
      <trkpt lat="44.82862" lon="5.77201">
        <ele>856.2</ele>
        <time>2021-04-22T11:54:35Z</time>
      </trkpt>
      <trkpt lat="44.82863" lon="5.77202">
        <ele>856.4</ele>
        <time>2021-04-22T11:54:36Z</time>
      </trkpt>
      <trkpt lat="44.82864" lon="5.77203">
        <ele>856.6</ele>
        <time>2021-04-22T11:54:37Z</time>
      </trkpt>
      <trkpt lat="44.82868" lon="5.77206">
        <ele>857.1</ele>
        <time>2021-04-22T11:54:39Z</time>
      </trkpt>
      <trkpt lat="44.8287" lon="5.77208">
        <ele>857.4</ele>
        <time>2021-04-22T11:54:40Z</time>
      </trkpt>
      <trkpt lat="44.82872" lon="5.77209">
        <ele>857.7</ele>
        <time>2021-04-22T11:54:42Z</time>
      </trkpt>
      <trkpt lat="44.82875" lon="5.7721">
        <ele>858</ele>
        <time>2021-04-22T11:54:43Z</time>
      </trkpt>
      <trkpt lat="44.82876" lon="5.77211">
        <ele>858.2</ele>
        <time>2021-04-22T11:54:44Z</time>
      </trkpt>
      <trkpt lat="44.8288" lon="5.77213">
        <ele>858.8</ele>
        <time>2021-04-22T11:54:46Z</time>
      </trkpt>
      <trkpt lat="44.82883" lon="5.77215">
        <ele>859.2</ele>
        <time>2021-04-22T11:54:47Z</time>
      </trkpt>
      <trkpt lat="44.82886" lon="5.77217">
        <ele>859.6</ele>
        <time>2021-04-22T11:54:49Z</time>
      </trkpt>
      <trkpt lat="44.82886" lon="5.77217">
        <ele>859.7</ele>
        <time>2021-04-22T11:54:50Z</time>
      </trkpt>
      <trkpt lat="44.82888" lon="5.77218">
        <ele>860</ele>
        <time>2021-04-22T11:54:51Z</time>
      </trkpt>
      <trkpt lat="44.82891" lon="5.77219">
        <ele>860.4</ele>
        <time>2021-04-22T11:54:53Z</time>
      </trkpt>
      <trkpt lat="44.82893" lon="5.7722">
        <ele>860.7</ele>
        <time>2021-04-22T11:54:54Z</time>
      </trkpt>
      <trkpt lat="44.82895" lon="5.77221">
        <ele>861.1</ele>
        <time>2021-04-22T11:54:56Z</time>
      </trkpt>
      <trkpt lat="44.82898" lon="5.77223">
        <ele>861.5</ele>
        <time>2021-04-22T11:54:58Z</time>
      </trkpt>
      <trkpt lat="44.829" lon="5.77225">
        <ele>861.9</ele>
        <time>2021-04-22T11:55:00Z</time>
      </trkpt>
      <trkpt lat="44.82903" lon="5.77226">
        <ele>862.3</ele>
        <time>2021-04-22T11:55:02Z</time>
      </trkpt>
      <trkpt lat="44.82905" lon="5.77228">
        <ele>862.6</ele>
        <time>2021-04-22T11:55:03Z</time>
      </trkpt>
      <trkpt lat="44.82909" lon="5.77229">
        <ele>863</ele>
        <time>2021-04-22T11:55:05Z</time>
      </trkpt>
      <trkpt lat="44.82912" lon="5.7723">
        <ele>863.3</ele>
        <time>2021-04-22T11:55:07Z</time>
      </trkpt>
      <trkpt lat="44.82916" lon="5.77231">
        <ele>863.7</ele>
        <time>2021-04-22T11:55:09Z</time>
      </trkpt>
      <trkpt lat="44.82918" lon="5.77233">
        <ele>863.9</ele>
        <time>2021-04-22T11:55:10Z</time>
      </trkpt>
      <trkpt lat="44.8292" lon="5.77234">
        <ele>864.1</ele>
        <time>2021-04-22T11:55:12Z</time>
      </trkpt>
      <trkpt lat="44.82921" lon="5.77235">
        <ele>864.3</ele>
        <time>2021-04-22T11:55:13Z</time>
      </trkpt>
      <trkpt lat="44.82923" lon="5.77237">
        <ele>864.5</ele>
        <time>2021-04-22T11:55:15Z</time>
      </trkpt>
      <trkpt lat="44.82926" lon="5.77238">
        <ele>864.8</ele>
        <time>2021-04-22T11:55:16Z</time>
      </trkpt>
      <trkpt lat="44.82928" lon="5.77239">
        <ele>865</ele>
        <time>2021-04-22T11:55:18Z</time>
      </trkpt>
      <trkpt lat="44.82929" lon="5.7724">
        <ele>865.1</ele>
        <time>2021-04-22T11:55:19Z</time>
      </trkpt>
      <trkpt lat="44.82931" lon="5.77241">
        <ele>865.4</ele>
        <time>2021-04-22T11:55:20Z</time>
      </trkpt>
      <trkpt lat="44.82934" lon="5.77242">
        <ele>865.7</ele>
        <time>2021-04-22T11:55:21Z</time>
      </trkpt>
      <trkpt lat="44.82935" lon="5.77242">
        <ele>865.8</ele>
        <time>2021-04-22T11:55:22Z</time>
      </trkpt>
      <trkpt lat="44.82938" lon="5.77244">
        <ele>866.2</ele>
        <time>2021-04-22T11:55:24Z</time>
      </trkpt>
      <trkpt lat="44.82939" lon="5.77244">
        <ele>866.3</ele>
        <time>2021-04-22T11:55:25Z</time>
      </trkpt>
      <trkpt lat="44.82942" lon="5.77246">
        <ele>866.6</ele>
        <time>2021-04-22T11:55:27Z</time>
      </trkpt>
      <trkpt lat="44.82943" lon="5.77247">
        <ele>866.7</ele>
        <time>2021-04-22T11:55:28Z</time>
      </trkpt>
      <trkpt lat="44.82945" lon="5.77249">
        <ele>867</ele>
        <time>2021-04-22T11:55:29Z</time>
      </trkpt>
      <trkpt lat="44.82947" lon="5.7725">
        <ele>867.2</ele>
        <time>2021-04-22T11:55:31Z</time>
      </trkpt>
      <trkpt lat="44.82949" lon="5.77252">
        <ele>867.4</ele>
        <time>2021-04-22T11:55:32Z</time>
      </trkpt>
      <trkpt lat="44.82951" lon="5.77254">
        <ele>867.6</ele>
        <time>2021-04-22T11:55:34Z</time>
      </trkpt>
      <trkpt lat="44.82953" lon="5.77255">
        <ele>867.7</ele>
        <time>2021-04-22T11:55:35Z</time>
      </trkpt>
      <trkpt lat="44.82954" lon="5.77256">
        <ele>867.9</ele>
        <time>2021-04-22T11:55:36Z</time>
      </trkpt>
      <trkpt lat="44.82956" lon="5.77258">
        <ele>868.1</ele>
        <time>2021-04-22T11:55:37Z</time>
      </trkpt>
      <trkpt lat="44.82958" lon="5.7726">
        <ele>868.3</ele>
        <time>2021-04-22T11:55:39Z</time>
      </trkpt>
      <trkpt lat="44.82959" lon="5.77261">
        <ele>868.5</ele>
        <time>2021-04-22T11:55:40Z</time>
      </trkpt>
      <trkpt lat="44.82961" lon="5.77265">
        <ele>868.8</ele>
        <time>2021-04-22T11:55:42Z</time>
      </trkpt>
      <trkpt lat="44.82963" lon="5.77267">
        <ele>869.1</ele>
        <time>2021-04-22T11:55:43Z</time>
      </trkpt>
      <trkpt lat="44.82966" lon="5.7727">
        <ele>869.6</ele>
        <time>2021-04-22T11:55:45Z</time>
      </trkpt>
      <trkpt lat="44.82967" lon="5.77272">
        <ele>869.8</ele>
        <time>2021-04-22T11:55:46Z</time>
      </trkpt>
      <trkpt lat="44.8297" lon="5.77274">
        <ele>870.1</ele>
        <time>2021-04-22T11:55:48Z</time>
      </trkpt>
      <trkpt lat="44.82972" lon="5.77278">
        <ele>870.5</ele>
        <time>2021-04-22T11:55:50Z</time>
      </trkpt>
      <trkpt lat="44.82974" lon="5.77281">
        <ele>870.8</ele>
        <time>2021-04-22T11:55:52Z</time>
      </trkpt>
      <trkpt lat="44.82976" lon="5.77283">
        <ele>871</ele>
        <time>2021-04-22T11:55:53Z</time>
      </trkpt>
      <trkpt lat="44.82977" lon="5.77285">
        <ele>871.1</ele>
        <time>2021-04-22T11:55:54Z</time>
      </trkpt>
      <trkpt lat="44.82979" lon="5.77288">
        <ele>871.4</ele>
        <time>2021-04-22T11:55:55Z</time>
      </trkpt>
      <trkpt lat="44.82979" lon="5.7729">
        <ele>871.5</ele>
        <time>2021-04-22T11:55:56Z</time>
      </trkpt>
      <trkpt lat="44.8298" lon="5.77292">
        <ele>871.7</ele>
        <time>2021-04-22T11:55:58Z</time>
      </trkpt>
      <trkpt lat="44.82982" lon="5.77293">
        <ele>871.9</ele>
        <time>2021-04-22T11:55:59Z</time>
      </trkpt>
      <trkpt lat="44.82984" lon="5.77297">
        <ele>872.2</ele>
        <time>2021-04-22T11:56:01Z</time>
      </trkpt>
      <trkpt lat="44.82984" lon="5.77297">
        <ele>872.3</ele>
        <time>2021-04-22T11:56:02Z</time>
      </trkpt>
      <trkpt lat="44.82985" lon="5.773">
        <ele>872.5</ele>
        <time>2021-04-22T11:56:03Z</time>
      </trkpt>
      <trkpt lat="44.82987" lon="5.77302">
        <ele>872.7</ele>
        <time>2021-04-22T11:56:05Z</time>
      </trkpt>
      <trkpt lat="44.82988" lon="5.77307">
        <ele>873.1</ele>
        <time>2021-04-22T11:56:07Z</time>
      </trkpt>
      <trkpt lat="44.82988" lon="5.77308">
        <ele>873.2</ele>
        <time>2021-04-22T11:56:08Z</time>
      </trkpt>
      <trkpt lat="44.82989" lon="5.77313">
        <ele>873.6</ele>
        <time>2021-04-22T11:56:10Z</time>
      </trkpt>
      <trkpt lat="44.82991" lon="5.77317">
        <ele>874.1</ele>
        <time>2021-04-22T11:56:12Z</time>
      </trkpt>
      <trkpt lat="44.82992" lon="5.77319">
        <ele>874.4</ele>
        <time>2021-04-22T11:56:13Z</time>
      </trkpt>
      <trkpt lat="44.82993" lon="5.77323">
        <ele>874.7</ele>
        <time>2021-04-22T11:56:15Z</time>
      </trkpt>
      <trkpt lat="44.82993" lon="5.77324">
        <ele>874.9</ele>
        <time>2021-04-22T11:56:16Z</time>
      </trkpt>
      <trkpt lat="44.82995" lon="5.77328">
        <ele>875.3</ele>
        <time>2021-04-22T11:56:18Z</time>
      </trkpt>
      <trkpt lat="44.82996" lon="5.77329">
        <ele>875.5</ele>
        <time>2021-04-22T11:56:19Z</time>
      </trkpt>
      <trkpt lat="44.82998" lon="5.77331">
        <ele>875.8</ele>
        <time>2021-04-22T11:56:21Z</time>
      </trkpt>
      <trkpt lat="44.82999" lon="5.77334">
        <ele>876.1</ele>
        <time>2021-04-22T11:56:22Z</time>
      </trkpt>
      <trkpt lat="44.83" lon="5.77337">
        <ele>876.3</ele>
        <time>2021-04-22T11:56:24Z</time>
      </trkpt>
      <trkpt lat="44.83" lon="5.77341">
        <ele>876.7</ele>
        <time>2021-04-22T11:56:26Z</time>
      </trkpt>
      <trkpt lat="44.83001" lon="5.77346">
        <ele>877</ele>
        <time>2021-04-22T11:56:28Z</time>
      </trkpt>
      <trkpt lat="44.83002" lon="5.7735">
        <ele>877.4</ele>
        <time>2021-04-22T11:56:30Z</time>
      </trkpt>
      <trkpt lat="44.83003" lon="5.77352">
        <ele>877.6</ele>
        <time>2021-04-22T11:56:31Z</time>
      </trkpt>
      <trkpt lat="44.83004" lon="5.77355">
        <ele>877.8</ele>
        <time>2021-04-22T11:56:32Z</time>
      </trkpt>
      <trkpt lat="44.83005" lon="5.7736">
        <ele>878.2</ele>
        <time>2021-04-22T11:56:34Z</time>
      </trkpt>
      <trkpt lat="44.83008" lon="5.77366">
        <ele>878.7</ele>
        <time>2021-04-22T11:56:36Z</time>
      </trkpt>
      <trkpt lat="44.83009" lon="5.77368">
        <ele>878.9</ele>
        <time>2021-04-22T11:56:38Z</time>
      </trkpt>
      <trkpt lat="44.8301" lon="5.77371">
        <ele>879.1</ele>
        <time>2021-04-22T11:56:40Z</time>
      </trkpt>
      <trkpt lat="44.83011" lon="5.77373">
        <ele>879.3</ele>
        <time>2021-04-22T11:56:41Z</time>
      </trkpt>
      <trkpt lat="44.83012" lon="5.77376">
        <ele>879.6</ele>
        <time>2021-04-22T11:56:42Z</time>
      </trkpt>
      <trkpt lat="44.83013" lon="5.7738">
        <ele>880</ele>
        <time>2021-04-22T11:56:44Z</time>
      </trkpt>
      <trkpt lat="44.83014" lon="5.77384">
        <ele>880.3</ele>
        <time>2021-04-22T11:56:45Z</time>
      </trkpt>
      <trkpt lat="44.83014" lon="5.77386">
        <ele>880.5</ele>
        <time>2021-04-22T11:56:46Z</time>
      </trkpt>
      <trkpt lat="44.83015" lon="5.77389">
        <ele>880.7</ele>
        <time>2021-04-22T11:56:47Z</time>
      </trkpt>
      <trkpt lat="44.83015" lon="5.77392">
        <ele>880.9</ele>
        <time>2021-04-22T11:56:49Z</time>
      </trkpt>
      <trkpt lat="44.83015" lon="5.77394">
        <ele>881.1</ele>
        <time>2021-04-22T11:56:50Z</time>
      </trkpt>
      <trkpt lat="44.83015" lon="5.77396">
        <ele>881.2</ele>
        <time>2021-04-22T11:56:51Z</time>
      </trkpt>
      <trkpt lat="44.83015" lon="5.77401">
        <ele>881.6</ele>
        <time>2021-04-22T11:56:52Z</time>
      </trkpt>
      <trkpt lat="44.83015" lon="5.77402">
        <ele>881.7</ele>
        <time>2021-04-22T11:56:53Z</time>
      </trkpt>
      <trkpt lat="44.83016" lon="5.77407">
        <ele>882.1</ele>
        <time>2021-04-22T11:56:55Z</time>
      </trkpt>
      <trkpt lat="44.83015" lon="5.77411">
        <ele>882.4</ele>
        <time>2021-04-22T11:56:56Z</time>
      </trkpt>
      <trkpt lat="44.83015" lon="5.77413">
        <ele>882.5</ele>
        <time>2021-04-22T11:56:57Z</time>
      </trkpt>
      <trkpt lat="44.83016" lon="5.77415">
        <ele>882.8</ele>
        <time>2021-04-22T11:56:58Z</time>
      </trkpt>
      <trkpt lat="44.83016" lon="5.77416">
        <ele>882.8</ele>
        <time>2021-04-22T11:57:00Z</time>
      </trkpt>
      <trkpt lat="44.83016" lon="5.77417">
        <ele>882.9</ele>
        <time>2021-04-22T11:57:01Z</time>
      </trkpt>
      <trkpt lat="44.83017" lon="5.7742">
        <ele>883.1</ele>
        <time>2021-04-22T11:57:02Z</time>
      </trkpt>
      <trkpt lat="44.83016" lon="5.77422">
        <ele>883.4</ele>
        <time>2021-04-22T11:57:03Z</time>
      </trkpt>
      <trkpt lat="44.83016" lon="5.77425">
        <ele>883.6</ele>
        <time>2021-04-22T11:57:04Z</time>
      </trkpt>
      <trkpt lat="44.83017" lon="5.77429">
        <ele>884</ele>
        <time>2021-04-22T11:57:06Z</time>
      </trkpt>
      <trkpt lat="44.83019" lon="5.77433">
        <ele>884.3</ele>
        <time>2021-04-22T11:57:07Z</time>
      </trkpt>
      <trkpt lat="44.83019" lon="5.77434">
        <ele>884.4</ele>
        <time>2021-04-22T11:57:08Z</time>
      </trkpt>
      <trkpt lat="44.83021" lon="5.77439">
        <ele>884.9</ele>
        <time>2021-04-22T11:57:10Z</time>
      </trkpt>
      <trkpt lat="44.83022" lon="5.77444">
        <ele>885.3</ele>
        <time>2021-04-22T11:57:12Z</time>
      </trkpt>
      <trkpt lat="44.83022" lon="5.77448">
        <ele>885.7</ele>
        <time>2021-04-22T11:57:13Z</time>
      </trkpt>
      <trkpt lat="44.83022" lon="5.77449">
        <ele>885.9</ele>
        <time>2021-04-22T11:57:14Z</time>
      </trkpt>
      <trkpt lat="44.83024" lon="5.77453">
        <ele>886.2</ele>
        <time>2021-04-22T11:57:16Z</time>
      </trkpt>
      <trkpt lat="44.83025" lon="5.77457">
        <ele>886.7</ele>
        <time>2021-04-22T11:57:18Z</time>
      </trkpt>
      <trkpt lat="44.83025" lon="5.77462">
        <ele>887.2</ele>
        <time>2021-04-22T11:57:20Z</time>
      </trkpt>
      <trkpt lat="44.83024" lon="5.77467">
        <ele>887.7</ele>
        <time>2021-04-22T11:57:22Z</time>
      </trkpt>
      <trkpt lat="44.83024" lon="5.77471">
        <ele>888.1</ele>
        <time>2021-04-22T11:57:24Z</time>
      </trkpt>
      <trkpt lat="44.83025" lon="5.77472">
        <ele>888.2</ele>
        <time>2021-04-22T11:57:25Z</time>
      </trkpt>
      <trkpt lat="44.83025" lon="5.77474">
        <ele>888.4</ele>
        <time>2021-04-22T11:57:27Z</time>
      </trkpt>
      <trkpt lat="44.83025" lon="5.77477">
        <ele>888.5</ele>
        <time>2021-04-22T11:57:28Z</time>
      </trkpt>
      <trkpt lat="44.83027" lon="5.7748">
        <ele>888.7</ele>
        <time>2021-04-22T11:57:30Z</time>
      </trkpt>
      <trkpt lat="44.83029" lon="5.77484">
        <ele>889</ele>
        <time>2021-04-22T11:57:31Z</time>
      </trkpt>
      <trkpt lat="44.83029" lon="5.77485">
        <ele>889.1</ele>
        <time>2021-04-22T11:57:32Z</time>
      </trkpt>
      <trkpt lat="44.83032" lon="5.7749">
        <ele>889.6</ele>
        <time>2021-04-22T11:57:34Z</time>
      </trkpt>
      <trkpt lat="44.83034" lon="5.77492">
        <ele>889.8</ele>
        <time>2021-04-22T11:57:36Z</time>
      </trkpt>
      <trkpt lat="44.83035" lon="5.77493">
        <ele>890</ele>
        <time>2021-04-22T11:57:37Z</time>
      </trkpt>
      <trkpt lat="44.83037" lon="5.77495">
        <ele>890.2</ele>
        <time>2021-04-22T11:57:38Z</time>
      </trkpt>
      <trkpt lat="44.83037" lon="5.77501">
        <ele>890.6</ele>
        <time>2021-04-22T11:57:40Z</time>
      </trkpt>
      <trkpt lat="44.83037" lon="5.77502">
        <ele>890.8</ele>
        <time>2021-04-22T11:57:41Z</time>
      </trkpt>
      <trkpt lat="44.83037" lon="5.77504">
        <ele>890.9</ele>
        <time>2021-04-22T11:57:42Z</time>
      </trkpt>
      <trkpt lat="44.8304" lon="5.7751">
        <ele>891.6</ele>
        <time>2021-04-22T11:57:44Z</time>
      </trkpt>
      <trkpt lat="44.83041" lon="5.77513">
        <ele>891.8</ele>
        <time>2021-04-22T11:57:46Z</time>
      </trkpt>
      <trkpt lat="44.83042" lon="5.77515">
        <ele>892</ele>
        <time>2021-04-22T11:57:47Z</time>
      </trkpt>
      <trkpt lat="44.83043" lon="5.77517">
        <ele>892.3</ele>
        <time>2021-04-22T11:57:48Z</time>
      </trkpt>
      <trkpt lat="44.83045" lon="5.77521">
        <ele>892.7</ele>
        <time>2021-04-22T11:57:50Z</time>
      </trkpt>
      <trkpt lat="44.83045" lon="5.77527">
        <ele>893.2</ele>
        <time>2021-04-22T11:57:52Z</time>
      </trkpt>
      <trkpt lat="44.83046" lon="5.77532">
        <ele>893.6</ele>
        <time>2021-04-22T11:57:54Z</time>
      </trkpt>
      <trkpt lat="44.83048" lon="5.77537">
        <ele>894</ele>
        <time>2021-04-22T11:57:56Z</time>
      </trkpt>
      <trkpt lat="44.83048" lon="5.7754">
        <ele>894.2</ele>
        <time>2021-04-22T11:57:57Z</time>
      </trkpt>
      <trkpt lat="44.8305" lon="5.77544">
        <ele>894.5</ele>
        <time>2021-04-22T11:57:59Z</time>
      </trkpt>
      <trkpt lat="44.83052" lon="5.77548">
        <ele>894.9</ele>
        <time>2021-04-22T11:58:01Z</time>
      </trkpt>
      <trkpt lat="44.83053" lon="5.77551">
        <ele>895.2</ele>
        <time>2021-04-22T11:58:02Z</time>
      </trkpt>
      <trkpt lat="44.83054" lon="5.77555">
        <ele>895.5</ele>
        <time>2021-04-22T11:58:03Z</time>
      </trkpt>
      <trkpt lat="44.83056" lon="5.77559">
        <ele>895.9</ele>
        <time>2021-04-22T11:58:05Z</time>
      </trkpt>
      <trkpt lat="44.83057" lon="5.77561">
        <ele>896.1</ele>
        <time>2021-04-22T11:58:06Z</time>
      </trkpt>
      <trkpt lat="44.83059" lon="5.77564">
        <ele>896.5</ele>
        <time>2021-04-22T11:58:07Z</time>
      </trkpt>
      <trkpt lat="44.83061" lon="5.77567">
        <ele>896.9</ele>
        <time>2021-04-22T11:58:09Z</time>
      </trkpt>
      <trkpt lat="44.83062" lon="5.77568">
        <ele>897</ele>
        <time>2021-04-22T11:58:10Z</time>
      </trkpt>
      <trkpt lat="44.83064" lon="5.77572">
        <ele>897.5</ele>
        <time>2021-04-22T11:58:12Z</time>
      </trkpt>
      <trkpt lat="44.83065" lon="5.77575">
        <ele>897.9</ele>
        <time>2021-04-22T11:58:13Z</time>
      </trkpt>
      <trkpt lat="44.83068" lon="5.77578">
        <ele>898.3</ele>
        <time>2021-04-22T11:58:15Z</time>
      </trkpt>
      <trkpt lat="44.8307" lon="5.7758">
        <ele>898.7</ele>
        <time>2021-04-22T11:58:16Z</time>
      </trkpt>
      <trkpt lat="44.83073" lon="5.77584">
        <ele>899.3</ele>
        <time>2021-04-22T11:58:18Z</time>
      </trkpt>
      <trkpt lat="44.83075" lon="5.77586">
        <ele>899.6</ele>
        <time>2021-04-22T11:58:19Z</time>
      </trkpt>
      <trkpt lat="44.83077" lon="5.77588">
        <ele>900</ele>
        <time>2021-04-22T11:58:21Z</time>
      </trkpt>
      <trkpt lat="44.8308" lon="5.7759">
        <ele>900.3</ele>
        <time>2021-04-22T11:58:23Z</time>
      </trkpt>
      <trkpt lat="44.83081" lon="5.77592">
        <ele>900.5</ele>
        <time>2021-04-22T11:58:24Z</time>
      </trkpt>
      <trkpt lat="44.83084" lon="5.77594">
        <ele>900.8</ele>
        <time>2021-04-22T11:58:26Z</time>
      </trkpt>
      <trkpt lat="44.83087" lon="5.77597">
        <ele>901.1</ele>
        <time>2021-04-22T11:58:28Z</time>
      </trkpt>
      <trkpt lat="44.8309" lon="5.776">
        <ele>901.4</ele>
        <time>2021-04-22T11:58:29Z</time>
      </trkpt>
      <trkpt lat="44.83092" lon="5.77603">
        <ele>901.7</ele>
        <time>2021-04-22T11:58:31Z</time>
      </trkpt>
      <trkpt lat="44.83093" lon="5.77604">
        <ele>901.8</ele>
        <time>2021-04-22T11:58:32Z</time>
      </trkpt>
      <trkpt lat="44.83095" lon="5.77606">
        <ele>902.2</ele>
        <time>2021-04-22T11:58:33Z</time>
      </trkpt>
      <trkpt lat="44.83098" lon="5.77609">
        <ele>902.5</ele>
        <time>2021-04-22T11:58:35Z</time>
      </trkpt>
      <trkpt lat="44.83099" lon="5.7761">
        <ele>902.7</ele>
        <time>2021-04-22T11:58:36Z</time>
      </trkpt>
      <trkpt lat="44.83101" lon="5.77612">
        <ele>903.1</ele>
        <time>2021-04-22T11:58:38Z</time>
      </trkpt>
      <trkpt lat="44.83104" lon="5.77614">
        <ele>903.5</ele>
        <time>2021-04-22T11:58:39Z</time>
      </trkpt>
      <trkpt lat="44.83105" lon="5.77615">
        <ele>903.7</ele>
        <time>2021-04-22T11:58:41Z</time>
      </trkpt>
      <trkpt lat="44.83106" lon="5.77616">
        <ele>903.9</ele>
        <time>2021-04-22T11:58:42Z</time>
      </trkpt>
      <trkpt lat="44.83107" lon="5.77617">
        <ele>904</ele>
        <time>2021-04-22T11:58:43Z</time>
      </trkpt>
      <trkpt lat="44.83109" lon="5.7762">
        <ele>904.4</ele>
        <time>2021-04-22T11:58:45Z</time>
      </trkpt>
      <trkpt lat="44.83112" lon="5.77622">
        <ele>904.8</ele>
        <time>2021-04-22T11:58:46Z</time>
      </trkpt>
      <trkpt lat="44.83113" lon="5.77623">
        <ele>905</ele>
        <time>2021-04-22T11:58:47Z</time>
      </trkpt>
      <trkpt lat="44.83116" lon="5.77626">
        <ele>905.4</ele>
        <time>2021-04-22T11:58:49Z</time>
      </trkpt>
      <trkpt lat="44.83118" lon="5.77627">
        <ele>905.6</ele>
        <time>2021-04-22T11:58:50Z</time>
      </trkpt>
      <trkpt lat="44.83119" lon="5.77628">
        <ele>905.7</ele>
        <time>2021-04-22T11:58:51Z</time>
      </trkpt>
      <trkpt lat="44.83122" lon="5.7763">
        <ele>906.1</ele>
        <time>2021-04-22T11:58:53Z</time>
      </trkpt>
      <trkpt lat="44.83124" lon="5.77633">
        <ele>906.5</ele>
        <time>2021-04-22T11:58:54Z</time>
      </trkpt>
      <trkpt lat="44.83126" lon="5.77634">
        <ele>906.6</ele>
        <time>2021-04-22T11:58:56Z</time>
      </trkpt>
      <trkpt lat="44.83129" lon="5.77636">
        <ele>906.6</ele>
        <time>2021-04-22T11:58:58Z</time>
      </trkpt>
      <trkpt lat="44.83131" lon="5.77637">
        <ele>906.6</ele>
        <time>2021-04-22T11:58:59Z</time>
      </trkpt>
      <trkpt lat="44.83134" lon="5.77638">
        <ele>906.5</ele>
        <time>2021-04-22T11:59:01Z</time>
      </trkpt>
      <trkpt lat="44.83138" lon="5.7764">
        <ele>906.5</ele>
        <time>2021-04-22T11:59:02Z</time>
      </trkpt>
      <trkpt lat="44.83139" lon="5.7764">
        <ele>906.4</ele>
        <time>2021-04-22T11:59:03Z</time>
      </trkpt>
      <trkpt lat="44.83143" lon="5.77641">
        <ele>906.4</ele>
        <time>2021-04-22T11:59:05Z</time>
      </trkpt>
      <trkpt lat="44.83145" lon="5.77642">
        <ele>906.4</ele>
        <time>2021-04-22T11:59:06Z</time>
      </trkpt>
      <trkpt lat="44.83148" lon="5.77642">
        <ele>906.3</ele>
        <time>2021-04-22T11:59:08Z</time>
      </trkpt>
      <trkpt lat="44.8315" lon="5.77643">
        <ele>906.3</ele>
        <time>2021-04-22T11:59:09Z</time>
      </trkpt>
      <trkpt lat="44.83154" lon="5.77643">
        <ele>906.3</ele>
        <time>2021-04-22T11:59:11Z</time>
      </trkpt>
      <trkpt lat="44.83156" lon="5.77643">
        <ele>906.3</ele>
        <time>2021-04-22T11:59:12Z</time>
      </trkpt>
      <trkpt lat="44.83161" lon="5.77641">
        <ele>906.3</ele>
        <time>2021-04-22T11:59:14Z</time>
      </trkpt>
      <trkpt lat="44.83165" lon="5.77641">
        <ele>906.3</ele>
        <time>2021-04-22T11:59:16Z</time>
      </trkpt>
      <trkpt lat="44.83168" lon="5.7764">
        <ele>906.3</ele>
        <time>2021-04-22T11:59:17Z</time>
      </trkpt>
      <trkpt lat="44.8317" lon="5.77639">
        <ele>906.2</ele>
        <time>2021-04-22T11:59:19Z</time>
      </trkpt>
      <trkpt lat="44.83172" lon="5.77638">
        <ele>906.2</ele>
        <time>2021-04-22T11:59:20Z</time>
      </trkpt>
      <trkpt lat="44.83176" lon="5.77636">
        <ele>906.2</ele>
        <time>2021-04-22T11:59:22Z</time>
      </trkpt>
      <trkpt lat="44.83177" lon="5.77635">
        <ele>906.2</ele>
        <time>2021-04-22T11:59:23Z</time>
      </trkpt>
      <trkpt lat="44.83181" lon="5.77633">
        <ele>906.2</ele>
        <time>2021-04-22T11:59:25Z</time>
      </trkpt>
      <trkpt lat="44.83183" lon="5.77632">
        <ele>906.2</ele>
        <time>2021-04-22T11:59:26Z</time>
      </trkpt>
      <trkpt lat="44.83184" lon="5.77631">
        <ele>906.2</ele>
        <time>2021-04-22T11:59:27Z</time>
      </trkpt>
      <trkpt lat="44.83186" lon="5.7763">
        <ele>906.1</ele>
        <time>2021-04-22T11:59:28Z</time>
      </trkpt>
      <trkpt lat="44.83188" lon="5.77628">
        <ele>906.1</ele>
        <time>2021-04-22T11:59:30Z</time>
      </trkpt>
      <trkpt lat="44.8319" lon="5.77626">
        <ele>906.1</ele>
        <time>2021-04-22T11:59:31Z</time>
      </trkpt>
      <trkpt lat="44.83193" lon="5.77624">
        <ele>906.1</ele>
        <time>2021-04-22T11:59:33Z</time>
      </trkpt>
      <trkpt lat="44.83195" lon="5.77622">
        <ele>906</ele>
        <time>2021-04-22T11:59:34Z</time>
      </trkpt>
      <trkpt lat="44.83198" lon="5.77619">
        <ele>906</ele>
        <time>2021-04-22T11:59:35Z</time>
      </trkpt>
      <trkpt lat="44.83199" lon="5.77619">
        <ele>906</ele>
        <time>2021-04-22T11:59:36Z</time>
      </trkpt>
      <trkpt lat="44.83202" lon="5.77617">
        <ele>906</ele>
        <time>2021-04-22T11:59:38Z</time>
      </trkpt>
      <trkpt lat="44.83203" lon="5.77616">
        <ele>906</ele>
        <time>2021-04-22T11:59:39Z</time>
      </trkpt>
      <trkpt lat="44.83206" lon="5.77615">
        <ele>906.1</ele>
        <time>2021-04-22T11:59:40Z</time>
      </trkpt>
      <trkpt lat="44.83209" lon="5.77614">
        <ele>906.1</ele>
        <time>2021-04-22T11:59:42Z</time>
      </trkpt>
      <trkpt lat="44.8321" lon="5.77613">
        <ele>906</ele>
        <time>2021-04-22T11:59:43Z</time>
      </trkpt>
      <trkpt lat="44.83214" lon="5.77613">
        <ele>906</ele>
        <time>2021-04-22T11:59:45Z</time>
      </trkpt>
      <trkpt lat="44.83216" lon="5.77613">
        <ele>906.3</ele>
        <time>2021-04-22T11:59:46Z</time>
      </trkpt>
      <trkpt lat="44.83218" lon="5.77614">
        <ele>906.7</ele>
        <time>2021-04-22T11:59:48Z</time>
      </trkpt>
      <trkpt lat="44.83219" lon="5.77616">
        <ele>906.9</ele>
        <time>2021-04-22T11:59:49Z</time>
      </trkpt>
      <trkpt lat="44.8322" lon="5.77621">
        <ele>907.5</ele>
        <time>2021-04-22T11:59:51Z</time>
      </trkpt>
      <trkpt lat="44.83218" lon="5.77629">
        <ele>908.1</ele>
        <time>2021-04-22T11:59:53Z</time>
      </trkpt>
      <trkpt lat="44.83216" lon="5.77634">
        <ele>908.6</ele>
        <time>2021-04-22T11:59:55Z</time>
      </trkpt>
      <trkpt lat="44.83212" lon="5.7764">
        <ele>909.2</ele>
        <time>2021-04-22T11:59:57Z</time>
      </trkpt>
      <trkpt lat="44.8321" lon="5.77642">
        <ele>909.4</ele>
        <time>2021-04-22T11:59:58Z</time>
      </trkpt>
      <trkpt lat="44.83207" lon="5.77645">
        <ele>909.9</ele>
        <time>2021-04-22T12:00:00Z</time>
      </trkpt>
      <trkpt lat="44.83205" lon="5.77647">
        <ele>910.3</ele>
        <time>2021-04-22T12:00:02Z</time>
      </trkpt>
      <trkpt lat="44.83202" lon="5.77649">
        <ele>910.6</ele>
        <time>2021-04-22T12:00:03Z</time>
      </trkpt>
      <trkpt lat="44.83199" lon="5.77652">
        <ele>911.2</ele>
        <time>2021-04-22T12:00:04Z</time>
      </trkpt>
      <trkpt lat="44.83197" lon="5.77655">
        <ele>911.6</ele>
        <time>2021-04-22T12:00:06Z</time>
      </trkpt>
      <trkpt lat="44.83195" lon="5.77658">
        <ele>912</ele>
        <time>2021-04-22T12:00:08Z</time>
      </trkpt>
      <trkpt lat="44.83193" lon="5.77663">
        <ele>912.5</ele>
        <time>2021-04-22T12:00:10Z</time>
      </trkpt>
      <trkpt lat="44.83192" lon="5.77666">
        <ele>912.9</ele>
        <time>2021-04-22T12:00:11Z</time>
      </trkpt>
      <trkpt lat="44.83191" lon="5.77671">
        <ele>913.3</ele>
        <time>2021-04-22T12:00:13Z</time>
      </trkpt>
      <trkpt lat="44.83191" lon="5.77673">
        <ele>913.5</ele>
        <time>2021-04-22T12:00:14Z</time>
      </trkpt>
      <trkpt lat="44.83191" lon="5.77676">
        <ele>913.8</ele>
        <time>2021-04-22T12:00:15Z</time>
      </trkpt>
      <trkpt lat="44.83191" lon="5.77682">
        <ele>914.3</ele>
        <time>2021-04-22T12:00:17Z</time>
      </trkpt>
      <trkpt lat="44.83192" lon="5.77685">
        <ele>914.6</ele>
        <time>2021-04-22T12:00:18Z</time>
      </trkpt>
      <trkpt lat="44.83193" lon="5.77689">
        <ele>915</ele>
        <time>2021-04-22T12:00:20Z</time>
      </trkpt>
      <trkpt lat="44.83195" lon="5.77693">
        <ele>915.3</ele>
        <time>2021-04-22T12:00:21Z</time>
      </trkpt>
      <trkpt lat="44.83196" lon="5.77696">
        <ele>915.6</ele>
        <time>2021-04-22T12:00:23Z</time>
      </trkpt>
      <trkpt lat="44.83197" lon="5.77698">
        <ele>915.7</ele>
        <time>2021-04-22T12:00:24Z</time>
      </trkpt>
      <trkpt lat="44.83199" lon="5.77704">
        <ele>916.1</ele>
        <time>2021-04-22T12:00:26Z</time>
      </trkpt>
      <trkpt lat="44.832" lon="5.77709">
        <ele>916.5</ele>
        <time>2021-04-22T12:00:28Z</time>
      </trkpt>
      <trkpt lat="44.83201" lon="5.77713">
        <ele>916.8</ele>
        <time>2021-04-22T12:00:29Z</time>
      </trkpt>
      <trkpt lat="44.83203" lon="5.77717">
        <ele>917.1</ele>
        <time>2021-04-22T12:00:31Z</time>
      </trkpt>
      <trkpt lat="44.83204" lon="5.7772">
        <ele>917.3</ele>
        <time>2021-04-22T12:00:32Z</time>
      </trkpt>
      <trkpt lat="44.83206" lon="5.77726">
        <ele>917.8</ele>
        <time>2021-04-22T12:00:34Z</time>
      </trkpt>
      <trkpt lat="44.83207" lon="5.77731">
        <ele>918.1</ele>
        <time>2021-04-22T12:00:36Z</time>
      </trkpt>
      <trkpt lat="44.83208" lon="5.77733">
        <ele>918.3</ele>
        <time>2021-04-22T12:00:37Z</time>
      </trkpt>
      <trkpt lat="44.83209" lon="5.77738">
        <ele>918.6</ele>
        <time>2021-04-22T12:00:39Z</time>
      </trkpt>
      <trkpt lat="44.8321" lon="5.77744">
        <ele>919</ele>
        <time>2021-04-22T12:00:41Z</time>
      </trkpt>
      <trkpt lat="44.83211" lon="5.77747">
        <ele>919.3</ele>
        <time>2021-04-22T12:00:42Z</time>
      </trkpt>
      <trkpt lat="44.8321" lon="5.77753">
        <ele>919.9</ele>
        <time>2021-04-22T12:00:44Z</time>
      </trkpt>
      <trkpt lat="44.83209" lon="5.77759">
        <ele>920.4</ele>
        <time>2021-04-22T12:00:46Z</time>
      </trkpt>
      <trkpt lat="44.83206" lon="5.77762">
        <ele>920.8</ele>
        <time>2021-04-22T12:00:48Z</time>
      </trkpt>
      <trkpt lat="44.83203" lon="5.77766">
        <ele>921.3</ele>
        <time>2021-04-22T12:00:50Z</time>
      </trkpt>
      <trkpt lat="44.832" lon="5.77769">
        <ele>921.7</ele>
        <time>2021-04-22T12:00:51Z</time>
      </trkpt>
      <trkpt lat="44.83197" lon="5.77771">
        <ele>922.1</ele>
        <time>2021-04-22T12:00:53Z</time>
      </trkpt>
      <trkpt lat="44.83196" lon="5.77773">
        <ele>922.3</ele>
        <time>2021-04-22T12:00:54Z</time>
      </trkpt>
      <trkpt lat="44.83193" lon="5.77775">
        <ele>922.6</ele>
        <time>2021-04-22T12:00:56Z</time>
      </trkpt>
      <trkpt lat="44.83191" lon="5.77776">
        <ele>922.9</ele>
        <time>2021-04-22T12:00:57Z</time>
      </trkpt>
      <trkpt lat="44.83187" lon="5.77779">
        <ele>923.5</ele>
        <time>2021-04-22T12:00:59Z</time>
      </trkpt>
      <trkpt lat="44.83182" lon="5.77783">
        <ele>924.2</ele>
        <time>2021-04-22T12:01:01Z</time>
      </trkpt>
      <trkpt lat="44.83178" lon="5.77787">
        <ele>924.8</ele>
        <time>2021-04-22T12:01:03Z</time>
      </trkpt>
      <trkpt lat="44.83176" lon="5.7779">
        <ele>925.3</ele>
        <time>2021-04-22T12:01:05Z</time>
      </trkpt>
      <trkpt lat="44.83175" lon="5.77791">
        <ele>925.4</ele>
        <time>2021-04-22T12:01:06Z</time>
      </trkpt>
      <trkpt lat="44.83174" lon="5.77795">
        <ele>925.8</ele>
        <time>2021-04-22T12:01:07Z</time>
      </trkpt>
      <trkpt lat="44.83174" lon="5.77798">
        <ele>926.1</ele>
        <time>2021-04-22T12:01:09Z</time>
      </trkpt>
      <trkpt lat="44.83175" lon="5.77799">
        <ele>926.2</ele>
        <time>2021-04-22T12:01:10Z</time>
      </trkpt>
      <trkpt lat="44.83176" lon="5.77796">
        <ele>925.9</ele>
        <time>2021-04-22T12:01:11Z</time>
      </trkpt>
      <trkpt lat="44.83177" lon="5.77794">
        <ele>925.7</ele>
        <time>2021-04-22T12:01:12Z</time>
      </trkpt>
      <trkpt lat="44.83178" lon="5.77793">
        <ele>925.4</ele>
        <time>2021-04-22T12:01:13Z</time>
      </trkpt>
      <trkpt lat="44.83181" lon="5.77787">
        <ele>924.8</ele>
        <time>2021-04-22T12:01:15Z</time>
      </trkpt>
      <trkpt lat="44.83184" lon="5.77782">
        <ele>924.2</ele>
        <time>2021-04-22T12:01:16Z</time>
      </trkpt>
      <trkpt lat="44.83191" lon="5.77775">
        <ele>923.2</ele>
        <time>2021-04-22T12:01:18Z</time>
      </trkpt>
      <trkpt lat="44.83195" lon="5.77771">
        <ele>922.6</ele>
        <time>2021-04-22T12:01:19Z</time>
      </trkpt>
      <trkpt lat="44.83198" lon="5.77768">
        <ele>922.2</ele>
        <time>2021-04-22T12:01:21Z</time>
      </trkpt>
      <trkpt lat="44.832" lon="5.77766">
        <ele>921.9</ele>
        <time>2021-04-22T12:01:22Z</time>
      </trkpt>
      <trkpt lat="44.83204" lon="5.7776">
        <ele>921.3</ele>
        <time>2021-04-22T12:01:24Z</time>
      </trkpt>
      <trkpt lat="44.83206" lon="5.77758">
        <ele>921</ele>
        <time>2021-04-22T12:01:26Z</time>
      </trkpt>
      <trkpt lat="44.83206" lon="5.77757">
        <ele>921</ele>
        <time>2021-04-22T12:01:27Z</time>
      </trkpt>
      <trkpt lat="44.83205" lon="5.77759">
        <ele>920.8</ele>
        <time>2021-04-22T12:01:28Z</time>
      </trkpt>
      <trkpt lat="44.83205" lon="5.77759">
        <ele>920.7</ele>
        <time>2021-04-22T12:01:29Z</time>
      </trkpt>
      <trkpt lat="44.83205" lon="5.77759">
        <ele>920.7</ele>
        <time>2021-04-22T12:01:30Z</time>
      </trkpt>
      <trkpt lat="44.83205" lon="5.77759">
        <ele>920.7</ele>
        <time>2021-04-22T12:01:31Z</time>
      </trkpt>
      <trkpt lat="44.83205" lon="5.7776">
        <ele>920.7</ele>
        <time>2021-04-22T12:01:32Z</time>
      </trkpt>
      <trkpt lat="44.83205" lon="5.7776">
        <ele>920.7</ele>
        <time>2021-04-22T12:01:33Z</time>
      </trkpt>
      <trkpt lat="44.83205" lon="5.7776">
        <ele>920.7</ele>
        <time>2021-04-22T12:01:34Z</time>
      </trkpt>
      <trkpt lat="44.83205" lon="5.7776">
        <ele>920.6</ele>
        <time>2021-04-22T12:01:35Z</time>
      </trkpt>
      <trkpt lat="44.83205" lon="5.7776">
        <ele>920.6</ele>
        <time>2021-04-22T12:01:36Z</time>
      </trkpt>
      <trkpt lat="44.83208" lon="5.77751">
        <ele>919.8</ele>
        <time>2021-04-22T12:02:33Z</time>
      </trkpt>
      <trkpt lat="44.8321" lon="5.77747">
        <ele>919.4</ele>
        <time>2021-04-22T12:02:34Z</time>
      </trkpt>
      <trkpt lat="44.83212" lon="5.77739">
        <ele>918.6</ele>
        <time>2021-04-22T12:02:35Z</time>
      </trkpt>
      <trkpt lat="44.83214" lon="5.77733">
        <ele>918.2</ele>
        <time>2021-04-22T12:02:37Z</time>
      </trkpt>
      <trkpt lat="44.83216" lon="5.77729">
        <ele>917.7</ele>
        <time>2021-04-22T12:02:38Z</time>
      </trkpt>
      <trkpt lat="44.83216" lon="5.77728">
        <ele>917.6</ele>
        <time>2021-04-22T12:02:39Z</time>
      </trkpt>
      <trkpt lat="44.83217" lon="5.77725">
        <ele>917.1</ele>
        <time>2021-04-22T12:02:41Z</time>
      </trkpt>
      <trkpt lat="44.83219" lon="5.77723">
        <ele>916.8</ele>
        <time>2021-04-22T12:02:42Z</time>
      </trkpt>
      <trkpt lat="44.83221" lon="5.7772">
        <ele>916.3</ele>
        <time>2021-04-22T12:02:44Z</time>
      </trkpt>
      <trkpt lat="44.83223" lon="5.77713">
        <ele>915.3</ele>
        <time>2021-04-22T12:02:46Z</time>
      </trkpt>
      <trkpt lat="44.83226" lon="5.77708">
        <ele>914.6</ele>
        <time>2021-04-22T12:02:48Z</time>
      </trkpt>
      <trkpt lat="44.83227" lon="5.77707">
        <ele>914.5</ele>
        <time>2021-04-22T12:02:49Z</time>
      </trkpt>
      <trkpt lat="44.83228" lon="5.77706">
        <ele>914.3</ele>
        <time>2021-04-22T12:02:50Z</time>
      </trkpt>
      <trkpt lat="44.83229" lon="5.77705">
        <ele>914.1</ele>
        <time>2021-04-22T12:02:51Z</time>
      </trkpt>
      <trkpt lat="44.8323" lon="5.77705">
        <ele>913.9</ele>
        <time>2021-04-22T12:02:52Z</time>
      </trkpt>
      <trkpt lat="44.8323" lon="5.77703">
        <ele>913.7</ele>
        <time>2021-04-22T12:02:53Z</time>
      </trkpt>
      <trkpt lat="44.83231" lon="5.77702">
        <ele>913.5</ele>
        <time>2021-04-22T12:02:54Z</time>
      </trkpt>
      <trkpt lat="44.83232" lon="5.777">
        <ele>913.2</ele>
        <time>2021-04-22T12:02:55Z</time>
      </trkpt>
      <trkpt lat="44.83233" lon="5.77698">
        <ele>913</ele>
        <time>2021-04-22T12:02:56Z</time>
      </trkpt>
      <trkpt lat="44.83234" lon="5.77697">
        <ele>912.8</ele>
        <time>2021-04-22T12:02:57Z</time>
      </trkpt>
      <trkpt lat="44.83235" lon="5.77695">
        <ele>912.5</ele>
        <time>2021-04-22T12:02:58Z</time>
      </trkpt>
      <trkpt lat="44.83236" lon="5.77693">
        <ele>912.2</ele>
        <time>2021-04-22T12:02:59Z</time>
      </trkpt>
      <trkpt lat="44.83237" lon="5.77691">
        <ele>911.9</ele>
        <time>2021-04-22T12:03:00Z</time>
      </trkpt>
      <trkpt lat="44.83238" lon="5.77687">
        <ele>911.4</ele>
        <time>2021-04-22T12:03:01Z</time>
      </trkpt>
      <trkpt lat="44.83239" lon="5.77686">
        <ele>911.2</ele>
        <time>2021-04-22T12:03:02Z</time>
      </trkpt>
      <trkpt lat="44.8324" lon="5.77682">
        <ele>910.7</ele>
        <time>2021-04-22T12:03:03Z</time>
      </trkpt>
      <trkpt lat="44.83241" lon="5.7768">
        <ele>910.5</ele>
        <time>2021-04-22T12:03:04Z</time>
      </trkpt>
      <trkpt lat="44.83243" lon="5.77676">
        <ele>909.9</ele>
        <time>2021-04-22T12:03:05Z</time>
      </trkpt>
      <trkpt lat="44.83243" lon="5.77675">
        <ele>909.7</ele>
        <time>2021-04-22T12:03:06Z</time>
      </trkpt>
      <trkpt lat="44.83245" lon="5.77671">
        <ele>909.2</ele>
        <time>2021-04-22T12:03:07Z</time>
      </trkpt>
      <trkpt lat="44.83245" lon="5.7767">
        <ele>909</ele>
        <time>2021-04-22T12:03:08Z</time>
      </trkpt>
      <trkpt lat="44.83246" lon="5.77666">
        <ele>908.6</ele>
        <time>2021-04-22T12:03:09Z</time>
      </trkpt>
      <trkpt lat="44.83246" lon="5.77665">
        <ele>908.4</ele>
        <time>2021-04-22T12:03:10Z</time>
      </trkpt>
      <trkpt lat="44.83246" lon="5.77661">
        <ele>907.9</ele>
        <time>2021-04-22T12:03:11Z</time>
      </trkpt>
      <trkpt lat="44.83246" lon="5.77659">
        <ele>907.8</ele>
        <time>2021-04-22T12:03:12Z</time>
      </trkpt>
      <trkpt lat="44.83246" lon="5.77655">
        <ele>907.2</ele>
        <time>2021-04-22T12:03:13Z</time>
      </trkpt>
      <trkpt lat="44.83245" lon="5.77653">
        <ele>907</ele>
        <time>2021-04-22T12:03:14Z</time>
      </trkpt>
      <trkpt lat="44.83246" lon="5.77648">
        <ele>906.4</ele>
        <time>2021-04-22T12:03:15Z</time>
      </trkpt>
      <trkpt lat="44.83246" lon="5.77647">
        <ele>906.2</ele>
        <time>2021-04-22T12:03:16Z</time>
      </trkpt>
      <trkpt lat="44.83249" lon="5.77645">
        <ele>905.8</ele>
        <time>2021-04-22T12:03:17Z</time>
      </trkpt>
      <trkpt lat="44.83251" lon="5.77645">
        <ele>906</ele>
        <time>2021-04-22T12:03:18Z</time>
      </trkpt>
      <trkpt lat="44.83254" lon="5.77647">
        <ele>906.5</ele>
        <time>2021-04-22T12:03:19Z</time>
      </trkpt>
      <trkpt lat="44.83255" lon="5.77649">
        <ele>906.7</ele>
        <time>2021-04-22T12:03:20Z</time>
      </trkpt>
      <trkpt lat="44.83256" lon="5.77654">
        <ele>907.2</ele>
        <time>2021-04-22T12:03:21Z</time>
      </trkpt>
      <trkpt lat="44.83256" lon="5.77656">
        <ele>907.3</ele>
        <time>2021-04-22T12:03:22Z</time>
      </trkpt>
      <trkpt lat="44.83257" lon="5.7766">
        <ele>907.7</ele>
        <time>2021-04-22T12:03:23Z</time>
      </trkpt>
      <trkpt lat="44.83258" lon="5.77666">
        <ele>908.1</ele>
        <time>2021-04-22T12:03:24Z</time>
      </trkpt>
      <trkpt lat="44.83258" lon="5.77671">
        <ele>908.5</ele>
        <time>2021-04-22T12:03:25Z</time>
      </trkpt>
      <trkpt lat="44.83259" lon="5.77676">
        <ele>908.9</ele>
        <time>2021-04-22T12:03:26Z</time>
      </trkpt>
      <trkpt lat="44.8326" lon="5.77683">
        <ele>909.3</ele>
        <time>2021-04-22T12:03:27Z</time>
      </trkpt>
      <trkpt lat="44.83261" lon="5.7769">
        <ele>909.8</ele>
        <time>2021-04-22T12:03:28Z</time>
      </trkpt>
      <trkpt lat="44.83261" lon="5.777">
        <ele>910.2</ele>
        <time>2021-04-22T12:03:29Z</time>
      </trkpt>
      <trkpt lat="44.83262" lon="5.77709">
        <ele>910.7</ele>
        <time>2021-04-22T12:03:30Z</time>
      </trkpt>
      <trkpt lat="44.83263" lon="5.77717">
        <ele>911.1</ele>
        <time>2021-04-22T12:03:31Z</time>
      </trkpt>
      <trkpt lat="44.83264" lon="5.77725">
        <ele>911.5</ele>
        <time>2021-04-22T12:03:32Z</time>
      </trkpt>
      <trkpt lat="44.83265" lon="5.77733">
        <ele>911.9</ele>
        <time>2021-04-22T12:03:33Z</time>
      </trkpt>
      <trkpt lat="44.83266" lon="5.7774">
        <ele>912.2</ele>
        <time>2021-04-22T12:03:34Z</time>
      </trkpt>
      <trkpt lat="44.83267" lon="5.77747">
        <ele>912.6</ele>
        <time>2021-04-22T12:03:35Z</time>
      </trkpt>
      <trkpt lat="44.83268" lon="5.77755">
        <ele>913.1</ele>
        <time>2021-04-22T12:03:36Z</time>
      </trkpt>
      <trkpt lat="44.83268" lon="5.77763">
        <ele>913.6</ele>
        <time>2021-04-22T12:03:37Z</time>
      </trkpt>
      <trkpt lat="44.83269" lon="5.77772">
        <ele>914.1</ele>
        <time>2021-04-22T12:03:38Z</time>
      </trkpt>
      <trkpt lat="44.8327" lon="5.77781">
        <ele>914.6</ele>
        <time>2021-04-22T12:03:39Z</time>
      </trkpt>
      <trkpt lat="44.83271" lon="5.77789">
        <ele>915.1</ele>
        <time>2021-04-22T12:03:40Z</time>
      </trkpt>
      <trkpt lat="44.83271" lon="5.77798">
        <ele>915.7</ele>
        <time>2021-04-22T12:03:41Z</time>
      </trkpt>
      <trkpt lat="44.83271" lon="5.77806">
        <ele>916.2</ele>
        <time>2021-04-22T12:03:42Z</time>
      </trkpt>
      <trkpt lat="44.83269" lon="5.77814">
        <ele>916.7</ele>
        <time>2021-04-22T12:03:43Z</time>
      </trkpt>
      <trkpt lat="44.83267" lon="5.77821">
        <ele>917.2</ele>
        <time>2021-04-22T12:03:44Z</time>
      </trkpt>
      <trkpt lat="44.83263" lon="5.77826">
        <ele>917.7</ele>
        <time>2021-04-22T12:03:45Z</time>
      </trkpt>
      <trkpt lat="44.8326" lon="5.77831">
        <ele>918.3</ele>
        <time>2021-04-22T12:03:46Z</time>
      </trkpt>
      <trkpt lat="44.83256" lon="5.77837">
        <ele>918.9</ele>
        <time>2021-04-22T12:03:47Z</time>
      </trkpt>
      <trkpt lat="44.83253" lon="5.77842">
        <ele>919.5</ele>
        <time>2021-04-22T12:03:48Z</time>
      </trkpt>
      <trkpt lat="44.83249" lon="5.77848">
        <ele>920.2</ele>
        <time>2021-04-22T12:03:49Z</time>
      </trkpt>
      <trkpt lat="44.83246" lon="5.77855">
        <ele>920.9</ele>
        <time>2021-04-22T12:03:50Z</time>
      </trkpt>
      <trkpt lat="44.83243" lon="5.77861">
        <ele>921.7</ele>
        <time>2021-04-22T12:03:51Z</time>
      </trkpt>
      <trkpt lat="44.8324" lon="5.77866">
        <ele>922.2</ele>
        <time>2021-04-22T12:03:52Z</time>
      </trkpt>
      <trkpt lat="44.83236" lon="5.77871">
        <ele>922.9</ele>
        <time>2021-04-22T12:03:53Z</time>
      </trkpt>
      <trkpt lat="44.83233" lon="5.77877">
        <ele>923.6</ele>
        <time>2021-04-22T12:03:54Z</time>
      </trkpt>
      <trkpt lat="44.83231" lon="5.7788">
        <ele>924</ele>
        <time>2021-04-22T12:03:55Z</time>
      </trkpt>
      <trkpt lat="44.83229" lon="5.77884">
        <ele>924.5</ele>
        <time>2021-04-22T12:03:56Z</time>
      </trkpt>
      <trkpt lat="44.83227" lon="5.77889">
        <ele>925</ele>
        <time>2021-04-22T12:03:57Z</time>
      </trkpt>
      <trkpt lat="44.83225" lon="5.77894">
        <ele>925.6</ele>
        <time>2021-04-22T12:03:58Z</time>
      </trkpt>
      <trkpt lat="44.83223" lon="5.779">
        <ele>925.5</ele>
        <time>2021-04-22T12:03:59Z</time>
      </trkpt>
      <trkpt lat="44.83222" lon="5.77907">
        <ele>924.6</ele>
        <time>2021-04-22T12:04:00Z</time>
      </trkpt>
      <trkpt lat="44.83222" lon="5.77913">
        <ele>924</ele>
        <time>2021-04-22T12:04:01Z</time>
      </trkpt>
      <trkpt lat="44.83226" lon="5.77917">
        <ele>923.2</ele>
        <time>2021-04-22T12:04:02Z</time>
      </trkpt>
      <trkpt lat="44.83232" lon="5.77921">
        <ele>922.2</ele>
        <time>2021-04-22T12:04:03Z</time>
      </trkpt>
      <trkpt lat="44.83237" lon="5.77924">
        <ele>921.4</ele>
        <time>2021-04-22T12:04:04Z</time>
      </trkpt>
      <trkpt lat="44.83243" lon="5.77928">
        <ele>920.6</ele>
        <time>2021-04-22T12:04:05Z</time>
      </trkpt>
      <trkpt lat="44.8325" lon="5.77932">
        <ele>919.7</ele>
        <time>2021-04-22T12:04:06Z</time>
      </trkpt>
      <trkpt lat="44.83256" lon="5.77936">
        <ele>918.9</ele>
        <time>2021-04-22T12:04:07Z</time>
      </trkpt>
      <trkpt lat="44.83261" lon="5.77941">
        <ele>918.2</ele>
        <time>2021-04-22T12:04:08Z</time>
      </trkpt>
      <trkpt lat="44.83267" lon="5.77945">
        <ele>917.4</ele>
        <time>2021-04-22T12:04:09Z</time>
      </trkpt>
      <trkpt lat="44.83273" lon="5.77949">
        <ele>916.7</ele>
        <time>2021-04-22T12:04:10Z</time>
      </trkpt>
      <trkpt lat="44.83279" lon="5.77952">
        <ele>915.9</ele>
        <time>2021-04-22T12:04:11Z</time>
      </trkpt>
      <trkpt lat="44.83284" lon="5.77955">
        <ele>915.1</ele>
        <time>2021-04-22T12:04:12Z</time>
      </trkpt>
      <trkpt lat="44.8329" lon="5.77958">
        <ele>914.3</ele>
        <time>2021-04-22T12:04:13Z</time>
      </trkpt>
      <trkpt lat="44.83296" lon="5.77962">
        <ele>913.2</ele>
        <time>2021-04-22T12:04:14Z</time>
      </trkpt>
      <trkpt lat="44.83302" lon="5.77967">
        <ele>912</ele>
        <time>2021-04-22T12:04:15Z</time>
      </trkpt>
      <trkpt lat="44.83308" lon="5.77974">
        <ele>910.6</ele>
        <time>2021-04-22T12:04:16Z</time>
      </trkpt>
      <trkpt lat="44.83315" lon="5.77981">
        <ele>909.1</ele>
        <time>2021-04-22T12:04:17Z</time>
      </trkpt>
      <trkpt lat="44.83322" lon="5.77988">
        <ele>908</ele>
        <time>2021-04-22T12:04:18Z</time>
      </trkpt>
      <trkpt lat="44.83329" lon="5.77995">
        <ele>907.3</ele>
        <time>2021-04-22T12:04:19Z</time>
      </trkpt>
      <trkpt lat="44.83335" lon="5.78003">
        <ele>906.8</ele>
        <time>2021-04-22T12:04:20Z</time>
      </trkpt>
      <trkpt lat="44.83341" lon="5.78013">
        <ele>906.4</ele>
        <time>2021-04-22T12:04:21Z</time>
      </trkpt>
      <trkpt lat="44.83347" lon="5.78022">
        <ele>906.2</ele>
        <time>2021-04-22T12:04:22Z</time>
      </trkpt>
      <trkpt lat="44.83353" lon="5.78031">
        <ele>906.1</ele>
        <time>2021-04-22T12:04:23Z</time>
      </trkpt>
      <trkpt lat="44.83357" lon="5.78039">
        <ele>906.2</ele>
        <time>2021-04-22T12:04:24Z</time>
      </trkpt>
      <trkpt lat="44.83362" lon="5.78047">
        <ele>906.3</ele>
        <time>2021-04-22T12:04:25Z</time>
      </trkpt>
      <trkpt lat="44.83367" lon="5.78053">
        <ele>906.4</ele>
        <time>2021-04-22T12:04:26Z</time>
      </trkpt>
      <trkpt lat="44.83372" lon="5.78059">
        <ele>906.6</ele>
        <time>2021-04-22T12:04:27Z</time>
      </trkpt>
      <trkpt lat="44.83378" lon="5.78064">
        <ele>906.8</ele>
        <time>2021-04-22T12:04:28Z</time>
      </trkpt>
      <trkpt lat="44.83383" lon="5.78069">
        <ele>907.1</ele>
        <time>2021-04-22T12:04:29Z</time>
      </trkpt>
      <trkpt lat="44.83387" lon="5.78075">
        <ele>907.3</ele>
        <time>2021-04-22T12:04:30Z</time>
      </trkpt>
      <trkpt lat="44.83391" lon="5.78078">
        <ele>907.5</ele>
        <time>2021-04-22T12:04:31Z</time>
      </trkpt>
      <trkpt lat="44.83394" lon="5.78079">
        <ele>907.7</ele>
        <time>2021-04-22T12:04:32Z</time>
      </trkpt>
      <trkpt lat="44.83399" lon="5.78079">
        <ele>907.9</ele>
        <time>2021-04-22T12:04:33Z</time>
      </trkpt>
      <trkpt lat="44.83404" lon="5.78076">
        <ele>908.2</ele>
        <time>2021-04-22T12:04:34Z</time>
      </trkpt>
      <trkpt lat="44.83408" lon="5.78074">
        <ele>908.4</ele>
        <time>2021-04-22T12:04:35Z</time>
      </trkpt>
      <trkpt lat="44.83412" lon="5.78072">
        <ele>908.5</ele>
        <time>2021-04-22T12:04:36Z</time>
      </trkpt>
      <trkpt lat="44.83415" lon="5.78072">
        <ele>908.7</ele>
        <time>2021-04-22T12:04:37Z</time>
      </trkpt>
      <trkpt lat="44.83419" lon="5.78072">
        <ele>909</ele>
        <time>2021-04-22T12:04:38Z</time>
      </trkpt>
      <trkpt lat="44.83423" lon="5.78072">
        <ele>909.2</ele>
        <time>2021-04-22T12:04:39Z</time>
      </trkpt>
      <trkpt lat="44.83426" lon="5.78074">
        <ele>909.4</ele>
        <time>2021-04-22T12:04:40Z</time>
      </trkpt>
      <trkpt lat="44.83428" lon="5.78076">
        <ele>909.6</ele>
        <time>2021-04-22T12:04:41Z</time>
      </trkpt>
      <trkpt lat="44.83429" lon="5.7808">
        <ele>910.1</ele>
        <time>2021-04-22T12:04:42Z</time>
      </trkpt>
      <trkpt lat="44.83429" lon="5.78081">
        <ele>910.2</ele>
        <time>2021-04-22T12:04:43Z</time>
      </trkpt>
      <trkpt lat="44.83429" lon="5.78086">
        <ele>910.7</ele>
        <time>2021-04-22T12:04:44Z</time>
      </trkpt>
      <trkpt lat="44.83429" lon="5.78087">
        <ele>910.8</ele>
        <time>2021-04-22T12:04:45Z</time>
      </trkpt>
      <trkpt lat="44.83432" lon="5.78091">
        <ele>911.2</ele>
        <time>2021-04-22T12:04:46Z</time>
      </trkpt>
      <trkpt lat="44.83432" lon="5.78092">
        <ele>911.3</ele>
        <time>2021-04-22T12:04:47Z</time>
      </trkpt>
      <trkpt lat="44.83435" lon="5.78094">
        <ele>911.8</ele>
        <time>2021-04-22T12:04:48Z</time>
      </trkpt>
      <trkpt lat="44.83436" lon="5.78094">
        <ele>911.9</ele>
        <time>2021-04-22T12:04:49Z</time>
      </trkpt>
      <trkpt lat="44.83437" lon="5.78096">
        <ele>912.1</ele>
        <time>2021-04-22T12:04:50Z</time>
      </trkpt>
      <trkpt lat="44.83439" lon="5.78098">
        <ele>912.3</ele>
        <time>2021-04-22T12:04:51Z</time>
      </trkpt>
      <trkpt lat="44.8344" lon="5.78099">
        <ele>912.6</ele>
        <time>2021-04-22T12:04:52Z</time>
      </trkpt>
      <trkpt lat="44.83442" lon="5.781">
        <ele>912.8</ele>
        <time>2021-04-22T12:04:53Z</time>
      </trkpt>
      <trkpt lat="44.83444" lon="5.78102">
        <ele>913.2</ele>
        <time>2021-04-22T12:04:54Z</time>
      </trkpt>
      <trkpt lat="44.83445" lon="5.78102">
        <ele>913.3</ele>
        <time>2021-04-22T12:04:55Z</time>
      </trkpt>
      <trkpt lat="44.83446" lon="5.78103">
        <ele>913.5</ele>
        <time>2021-04-22T12:04:56Z</time>
      </trkpt>
      <trkpt lat="44.83448" lon="5.78103">
        <ele>913.7</ele>
        <time>2021-04-22T12:04:57Z</time>
      </trkpt>
      <trkpt lat="44.8345" lon="5.78103">
        <ele>913.9</ele>
        <time>2021-04-22T12:04:58Z</time>
      </trkpt>
      <trkpt lat="44.83452" lon="5.78102">
        <ele>914.1</ele>
        <time>2021-04-22T12:04:59Z</time>
      </trkpt>
      <trkpt lat="44.83453" lon="5.78102">
        <ele>914.2</ele>
        <time>2021-04-22T12:05:00Z</time>
      </trkpt>
      <trkpt lat="44.83455" lon="5.78102">
        <ele>914.4</ele>
        <time>2021-04-22T12:05:01Z</time>
      </trkpt>
      <trkpt lat="44.83458" lon="5.78103">
        <ele>914.6</ele>
        <time>2021-04-22T12:05:02Z</time>
      </trkpt>
      <trkpt lat="44.83459" lon="5.78104">
        <ele>914.7</ele>
        <time>2021-04-22T12:05:03Z</time>
      </trkpt>
      <trkpt lat="44.83462" lon="5.78105">
        <ele>914.9</ele>
        <time>2021-04-22T12:05:04Z</time>
      </trkpt>
      <trkpt lat="44.83463" lon="5.78106">
        <ele>915</ele>
        <time>2021-04-22T12:05:05Z</time>
      </trkpt>
      <trkpt lat="44.83466" lon="5.78107">
        <ele>915.2</ele>
        <time>2021-04-22T12:05:06Z</time>
      </trkpt>
      <trkpt lat="44.83467" lon="5.78108">
        <ele>915.2</ele>
        <time>2021-04-22T12:05:07Z</time>
      </trkpt>
      <trkpt lat="44.8347" lon="5.78111">
        <ele>915.3</ele>
        <time>2021-04-22T12:05:08Z</time>
      </trkpt>
      <trkpt lat="44.83471" lon="5.78112">
        <ele>915.4</ele>
        <time>2021-04-22T12:05:09Z</time>
      </trkpt>
      <trkpt lat="44.83474" lon="5.78115">
        <ele>915.5</ele>
        <time>2021-04-22T12:05:10Z</time>
      </trkpt>
      <trkpt lat="44.83475" lon="5.78116">
        <ele>915.6</ele>
        <time>2021-04-22T12:05:11Z</time>
      </trkpt>
      <trkpt lat="44.83478" lon="5.78119">
        <ele>915.7</ele>
        <time>2021-04-22T12:05:12Z</time>
      </trkpt>
      <trkpt lat="44.83479" lon="5.7812">
        <ele>915.8</ele>
        <time>2021-04-22T12:05:13Z</time>
      </trkpt>
      <trkpt lat="44.83482" lon="5.78122">
        <ele>915.9</ele>
        <time>2021-04-22T12:05:14Z</time>
      </trkpt>
      <trkpt lat="44.83484" lon="5.78124">
        <ele>916</ele>
        <time>2021-04-22T12:05:15Z</time>
      </trkpt>
      <trkpt lat="44.83487" lon="5.78127">
        <ele>916.1</ele>
        <time>2021-04-22T12:05:16Z</time>
      </trkpt>
      <trkpt lat="44.83488" lon="5.78128">
        <ele>916.1</ele>
        <time>2021-04-22T12:05:17Z</time>
      </trkpt>
      <trkpt lat="44.83492" lon="5.78132">
        <ele>916.2</ele>
        <time>2021-04-22T12:05:18Z</time>
      </trkpt>
      <trkpt lat="44.83493" lon="5.78133">
        <ele>916.3</ele>
        <time>2021-04-22T12:05:19Z</time>
      </trkpt>
      <trkpt lat="44.83496" lon="5.78136">
        <ele>916.4</ele>
        <time>2021-04-22T12:05:20Z</time>
      </trkpt>
      <trkpt lat="44.83497" lon="5.78137">
        <ele>916.4</ele>
        <time>2021-04-22T12:05:21Z</time>
      </trkpt>
      <trkpt lat="44.83501" lon="5.7814">
        <ele>916.5</ele>
        <time>2021-04-22T12:05:22Z</time>
      </trkpt>
      <trkpt lat="44.83502" lon="5.78142">
        <ele>916.5</ele>
        <time>2021-04-22T12:05:23Z</time>
      </trkpt>
      <trkpt lat="44.83505" lon="5.78144">
        <ele>916.6</ele>
        <time>2021-04-22T12:05:24Z</time>
      </trkpt>
      <trkpt lat="44.83507" lon="5.78146">
        <ele>916.6</ele>
        <time>2021-04-22T12:05:25Z</time>
      </trkpt>
      <trkpt lat="44.8351" lon="5.78149">
        <ele>916.6</ele>
        <time>2021-04-22T12:05:26Z</time>
      </trkpt>
      <trkpt lat="44.83513" lon="5.78152">
        <ele>916.6</ele>
        <time>2021-04-22T12:05:27Z</time>
      </trkpt>
      <trkpt lat="44.83516" lon="5.78155">
        <ele>916.6</ele>
        <time>2021-04-22T12:05:28Z</time>
      </trkpt>
      <trkpt lat="44.8352" lon="5.78159">
        <ele>916.5</ele>
        <time>2021-04-22T12:05:29Z</time>
      </trkpt>
      <trkpt lat="44.83523" lon="5.78163">
        <ele>916.4</ele>
        <time>2021-04-22T12:05:30Z</time>
      </trkpt>
      <trkpt lat="44.83525" lon="5.78167">
        <ele>916.3</ele>
        <time>2021-04-22T12:05:31Z</time>
      </trkpt>
      <trkpt lat="44.83527" lon="5.7817">
        <ele>916.1</ele>
        <time>2021-04-22T12:05:32Z</time>
      </trkpt>
      <trkpt lat="44.83529" lon="5.78173">
        <ele>915.9</ele>
        <time>2021-04-22T12:05:33Z</time>
      </trkpt>
      <trkpt lat="44.83532" lon="5.78178">
        <ele>915.7</ele>
        <time>2021-04-22T12:05:34Z</time>
      </trkpt>
      <trkpt lat="44.83533" lon="5.78179">
        <ele>915.6</ele>
        <time>2021-04-22T12:05:35Z</time>
      </trkpt>
      <trkpt lat="44.83535" lon="5.78182">
        <ele>915.3</ele>
        <time>2021-04-22T12:05:36Z</time>
      </trkpt>
      <trkpt lat="44.83537" lon="5.78185">
        <ele>915.1</ele>
        <time>2021-04-22T12:05:37Z</time>
      </trkpt>
      <trkpt lat="44.83539" lon="5.78189">
        <ele>914.9</ele>
        <time>2021-04-22T12:05:38Z</time>
      </trkpt>
      <trkpt lat="44.83541" lon="5.78192">
        <ele>914.6</ele>
        <time>2021-04-22T12:05:39Z</time>
      </trkpt>
      <trkpt lat="44.83543" lon="5.78195">
        <ele>914.3</ele>
        <time>2021-04-22T12:05:40Z</time>
      </trkpt>
      <trkpt lat="44.83546" lon="5.78198">
        <ele>914</ele>
        <time>2021-04-22T12:05:41Z</time>
      </trkpt>
      <trkpt lat="44.83549" lon="5.78203">
        <ele>913.5</ele>
        <time>2021-04-22T12:05:42Z</time>
      </trkpt>
      <trkpt lat="44.83551" lon="5.78208">
        <ele>913.2</ele>
        <time>2021-04-22T12:05:43Z</time>
      </trkpt>
      <trkpt lat="44.83552" lon="5.78212">
        <ele>912.8</ele>
        <time>2021-04-22T12:05:44Z</time>
      </trkpt>
      <trkpt lat="44.83554" lon="5.78218">
        <ele>912.3</ele>
        <time>2021-04-22T12:05:45Z</time>
      </trkpt>
      <trkpt lat="44.83556" lon="5.78224">
        <ele>911.9</ele>
        <time>2021-04-22T12:05:46Z</time>
      </trkpt>
      <trkpt lat="44.83558" lon="5.78229">
        <ele>911.5</ele>
        <time>2021-04-22T12:05:47Z</time>
      </trkpt>
      <trkpt lat="44.83559" lon="5.78234">
        <ele>911.1</ele>
        <time>2021-04-22T12:05:48Z</time>
      </trkpt>
      <trkpt lat="44.8356" lon="5.7824">
        <ele>910.8</ele>
        <time>2021-04-22T12:05:49Z</time>
      </trkpt>
      <trkpt lat="44.83562" lon="5.78248">
        <ele>910.4</ele>
        <time>2021-04-22T12:05:50Z</time>
      </trkpt>
      <trkpt lat="44.83565" lon="5.78257">
        <ele>910</ele>
        <time>2021-04-22T12:05:51Z</time>
      </trkpt>
      <trkpt lat="44.83566" lon="5.78267">
        <ele>909.7</ele>
        <time>2021-04-22T12:05:52Z</time>
      </trkpt>
      <trkpt lat="44.83568" lon="5.78276">
        <ele>909.5</ele>
        <time>2021-04-22T12:05:53Z</time>
      </trkpt>
      <trkpt lat="44.83569" lon="5.78285">
        <ele>909.4</ele>
        <time>2021-04-22T12:05:54Z</time>
      </trkpt>
      <trkpt lat="44.83569" lon="5.78293">
        <ele>909.3</ele>
        <time>2021-04-22T12:05:55Z</time>
      </trkpt>
      <trkpt lat="44.8357" lon="5.783">
        <ele>909.3</ele>
        <time>2021-04-22T12:05:56Z</time>
      </trkpt>
      <trkpt lat="44.8357" lon="5.78307">
        <ele>909.3</ele>
        <time>2021-04-22T12:05:57Z</time>
      </trkpt>
      <trkpt lat="44.8357" lon="5.78312">
        <ele>909.3</ele>
        <time>2021-04-22T12:05:58Z</time>
      </trkpt>
      <trkpt lat="44.83571" lon="5.78313">
        <ele>909.3</ele>
        <time>2021-04-22T12:05:59Z</time>
      </trkpt>
      <trkpt lat="44.83572" lon="5.78316">
        <ele>909.4</ele>
        <time>2021-04-22T12:06:00Z</time>
      </trkpt>
      <trkpt lat="44.83573" lon="5.7832">
        <ele>909.4</ele>
        <time>2021-04-22T12:06:01Z</time>
      </trkpt>
      <trkpt lat="44.83572" lon="5.78325">
        <ele>909.4</ele>
        <time>2021-04-22T12:06:02Z</time>
      </trkpt>
      <trkpt lat="44.83571" lon="5.78327">
        <ele>909.5</ele>
        <time>2021-04-22T12:06:03Z</time>
      </trkpt>
      <trkpt lat="44.8357" lon="5.78333">
        <ele>909.4</ele>
        <time>2021-04-22T12:06:04Z</time>
      </trkpt>
      <trkpt lat="44.83571" lon="5.78335">
        <ele>909.4</ele>
        <time>2021-04-22T12:06:05Z</time>
      </trkpt>
      <trkpt lat="44.83572" lon="5.78339">
        <ele>909.4</ele>
        <time>2021-04-22T12:06:06Z</time>
      </trkpt>
      <trkpt lat="44.83573" lon="5.78344">
        <ele>909.3</ele>
        <time>2021-04-22T12:06:07Z</time>
      </trkpt>
      <trkpt lat="44.83573" lon="5.78348">
        <ele>909.2</ele>
        <time>2021-04-22T12:06:08Z</time>
      </trkpt>
      <trkpt lat="44.83574" lon="5.78353">
        <ele>909</ele>
        <time>2021-04-22T12:06:09Z</time>
      </trkpt>
      <trkpt lat="44.83574" lon="5.78355">
        <ele>909</ele>
        <time>2021-04-22T12:06:10Z</time>
      </trkpt>
      <trkpt lat="44.83575" lon="5.78359">
        <ele>908.8</ele>
        <time>2021-04-22T12:06:11Z</time>
      </trkpt>
      <trkpt lat="44.83574" lon="5.78363">
        <ele>908.7</ele>
        <time>2021-04-22T12:06:12Z</time>
      </trkpt>
      <trkpt lat="44.83576" lon="5.78367">
        <ele>908.5</ele>
        <time>2021-04-22T12:06:13Z</time>
      </trkpt>
      <trkpt lat="44.83578" lon="5.78372">
        <ele>908.2</ele>
        <time>2021-04-22T12:06:14Z</time>
      </trkpt>
      <trkpt lat="44.8358" lon="5.78377">
        <ele>907.9</ele>
        <time>2021-04-22T12:06:15Z</time>
      </trkpt>
      <trkpt lat="44.83583" lon="5.78381">
        <ele>907.7</ele>
        <time>2021-04-22T12:06:16Z</time>
      </trkpt>
      <trkpt lat="44.83588" lon="5.78386">
        <ele>907.3</ele>
        <time>2021-04-22T12:06:17Z</time>
      </trkpt>
      <trkpt lat="44.83594" lon="5.78387">
        <ele>907</ele>
        <time>2021-04-22T12:06:18Z</time>
      </trkpt>
      <trkpt lat="44.83598" lon="5.78387">
        <ele>906.8</ele>
        <time>2021-04-22T12:06:19Z</time>
      </trkpt>
      <trkpt lat="44.83603" lon="5.78385">
        <ele>906.7</ele>
        <time>2021-04-22T12:06:20Z</time>
      </trkpt>
      <trkpt lat="44.83607" lon="5.78384">
        <ele>906.6</ele>
        <time>2021-04-22T12:06:21Z</time>
      </trkpt>
      <trkpt lat="44.8361" lon="5.78382">
        <ele>906.5</ele>
        <time>2021-04-22T12:06:22Z</time>
      </trkpt>
      <trkpt lat="44.83613" lon="5.78381">
        <ele>906.4</ele>
        <time>2021-04-22T12:06:23Z</time>
      </trkpt>
      <trkpt lat="44.83616" lon="5.78379">
        <ele>906.4</ele>
        <time>2021-04-22T12:06:24Z</time>
      </trkpt>
      <trkpt lat="44.83618" lon="5.78379">
        <ele>906.4</ele>
        <time>2021-04-22T12:06:25Z</time>
      </trkpt>
      <trkpt lat="44.83622" lon="5.78378">
        <ele>906.4</ele>
        <time>2021-04-22T12:06:26Z</time>
      </trkpt>
      <trkpt lat="44.83623" lon="5.78378">
        <ele>906.5</ele>
        <time>2021-04-22T12:06:27Z</time>
      </trkpt>
      <trkpt lat="44.83627" lon="5.78376">
        <ele>906.6</ele>
        <time>2021-04-22T12:06:28Z</time>
      </trkpt>
      <trkpt lat="44.83628" lon="5.78376">
        <ele>906.6</ele>
        <time>2021-04-22T12:06:29Z</time>
      </trkpt>
      <trkpt lat="44.83632" lon="5.78373">
        <ele>906.8</ele>
        <time>2021-04-22T12:06:30Z</time>
      </trkpt>
      <trkpt lat="44.83633" lon="5.78372">
        <ele>906.9</ele>
        <time>2021-04-22T12:06:31Z</time>
      </trkpt>
      <trkpt lat="44.83636" lon="5.78369">
        <ele>907.2</ele>
        <time>2021-04-22T12:06:32Z</time>
      </trkpt>
      <trkpt lat="44.83637" lon="5.78369">
        <ele>907.3</ele>
        <time>2021-04-22T12:06:33Z</time>
      </trkpt>
      <trkpt lat="44.8364" lon="5.78367">
        <ele>907.5</ele>
        <time>2021-04-22T12:06:34Z</time>
      </trkpt>
      <trkpt lat="44.8364" lon="5.78366">
        <ele>907.6</ele>
        <time>2021-04-22T12:06:35Z</time>
      </trkpt>
      <trkpt lat="44.83642" lon="5.78365">
        <ele>907.8</ele>
        <time>2021-04-22T12:06:36Z</time>
      </trkpt>
      <trkpt lat="44.83642" lon="5.78366">
        <ele>907.8</ele>
        <time>2021-04-22T12:06:37Z</time>
      </trkpt>
      <trkpt lat="44.83642" lon="5.78366">
        <ele>907.9</ele>
        <time>2021-04-22T12:06:38Z</time>
      </trkpt>
      <trkpt lat="44.83642" lon="5.78367">
        <ele>907.9</ele>
        <time>2021-04-22T12:06:39Z</time>
      </trkpt>
      <trkpt lat="44.83643" lon="5.78367">
        <ele>908</ele>
        <time>2021-04-22T12:06:40Z</time>
      </trkpt>
      <trkpt lat="44.83644" lon="5.78367">
        <ele>908.1</ele>
        <time>2021-04-22T12:06:41Z</time>
      </trkpt>
      <trkpt lat="44.83645" lon="5.78366">
        <ele>908.3</ele>
        <time>2021-04-22T12:06:42Z</time>
      </trkpt>
      <trkpt lat="44.83647" lon="5.78366">
        <ele>908.4</ele>
        <time>2021-04-22T12:06:43Z</time>
      </trkpt>
      <trkpt lat="44.83648" lon="5.78366">
        <ele>908.6</ele>
        <time>2021-04-22T12:06:44Z</time>
      </trkpt>
      <trkpt lat="44.83649" lon="5.78365">
        <ele>908.7</ele>
        <time>2021-04-22T12:06:45Z</time>
      </trkpt>
      <trkpt lat="44.8365" lon="5.78364">
        <ele>908.9</ele>
        <time>2021-04-22T12:06:46Z</time>
      </trkpt>
      <trkpt lat="44.83652" lon="5.78363">
        <ele>909.2</ele>
        <time>2021-04-22T12:06:47Z</time>
      </trkpt>
      <trkpt lat="44.83652" lon="5.78362">
        <ele>909.3</ele>
        <time>2021-04-22T12:06:48Z</time>
      </trkpt>
      <trkpt lat="44.83653" lon="5.78362">
        <ele>909.4</ele>
        <time>2021-04-22T12:06:49Z</time>
      </trkpt>
      <trkpt lat="44.83654" lon="5.78361">
        <ele>909.5</ele>
        <time>2021-04-22T12:06:50Z</time>
      </trkpt>
      <trkpt lat="44.83655" lon="5.7836">
        <ele>909.7</ele>
        <time>2021-04-22T12:06:51Z</time>
      </trkpt>
      <trkpt lat="44.83656" lon="5.7836">
        <ele>909.9</ele>
        <time>2021-04-22T12:06:52Z</time>
      </trkpt>
      <trkpt lat="44.83658" lon="5.78359">
        <ele>910.3</ele>
        <time>2021-04-22T12:06:53Z</time>
      </trkpt>
      <trkpt lat="44.83659" lon="5.78359">
        <ele>910.4</ele>
        <time>2021-04-22T12:06:54Z</time>
      </trkpt>
      <trkpt lat="44.8366" lon="5.78359">
        <ele>910.5</ele>
        <time>2021-04-22T12:06:55Z</time>
      </trkpt>
      <trkpt lat="44.83661" lon="5.78359">
        <ele>910.7</ele>
        <time>2021-04-22T12:06:56Z</time>
      </trkpt>
      <trkpt lat="44.83662" lon="5.78359">
        <ele>910.9</ele>
        <time>2021-04-22T12:06:57Z</time>
      </trkpt>
      <trkpt lat="44.83663" lon="5.78359">
        <ele>911.1</ele>
        <time>2021-04-22T12:06:58Z</time>
      </trkpt>
      <trkpt lat="44.83664" lon="5.78359">
        <ele>911.3</ele>
        <time>2021-04-22T12:06:59Z</time>
      </trkpt>
      <trkpt lat="44.83665" lon="5.7836">
        <ele>911.5</ele>
        <time>2021-04-22T12:07:00Z</time>
      </trkpt>
      <trkpt lat="44.83666" lon="5.7836">
        <ele>911.6</ele>
        <time>2021-04-22T12:07:01Z</time>
      </trkpt>
      <trkpt lat="44.83667" lon="5.78361">
        <ele>911.8</ele>
        <time>2021-04-22T12:07:02Z</time>
      </trkpt>
      <trkpt lat="44.83668" lon="5.78361">
        <ele>911.9</ele>
        <time>2021-04-22T12:07:03Z</time>
      </trkpt>
      <trkpt lat="44.83669" lon="5.78362">
        <ele>912.1</ele>
        <time>2021-04-22T12:07:04Z</time>
      </trkpt>
      <trkpt lat="44.83669" lon="5.78363">
        <ele>912.2</ele>
        <time>2021-04-22T12:07:05Z</time>
      </trkpt>
      <trkpt lat="44.8367" lon="5.78364">
        <ele>912.4</ele>
        <time>2021-04-22T12:07:06Z</time>
      </trkpt>
      <trkpt lat="44.8367" lon="5.78365">
        <ele>912.6</ele>
        <time>2021-04-22T12:07:07Z</time>
      </trkpt>
      <trkpt lat="44.83671" lon="5.78367">
        <ele>912.8</ele>
        <time>2021-04-22T12:07:08Z</time>
      </trkpt>
      <trkpt lat="44.83671" lon="5.78368">
        <ele>913</ele>
        <time>2021-04-22T12:07:09Z</time>
      </trkpt>
      <trkpt lat="44.83672" lon="5.78369">
        <ele>913.1</ele>
        <time>2021-04-22T12:07:10Z</time>
      </trkpt>
      <trkpt lat="44.83672" lon="5.7837">
        <ele>913.3</ele>
        <time>2021-04-22T12:07:11Z</time>
      </trkpt>
      <trkpt lat="44.83673" lon="5.78372">
        <ele>913.5</ele>
        <time>2021-04-22T12:07:12Z</time>
      </trkpt>
      <trkpt lat="44.83673" lon="5.78374">
        <ele>913.9</ele>
        <time>2021-04-22T12:07:13Z</time>
      </trkpt>
      <trkpt lat="44.83673" lon="5.78378">
        <ele>914.4</ele>
        <time>2021-04-22T12:07:15Z</time>
      </trkpt>
      <trkpt lat="44.83674" lon="5.78381">
        <ele>914.8</ele>
        <time>2021-04-22T12:07:17Z</time>
      </trkpt>
      <trkpt lat="44.83674" lon="5.78383">
        <ele>915</ele>
        <time>2021-04-22T12:07:18Z</time>
      </trkpt>
      <trkpt lat="44.83675" lon="5.78385">
        <ele>915.3</ele>
        <time>2021-04-22T12:07:20Z</time>
      </trkpt>
      <trkpt lat="44.83675" lon="5.78386">
        <ele>915.5</ele>
        <time>2021-04-22T12:07:21Z</time>
      </trkpt>
      <trkpt lat="44.83675" lon="5.78387">
        <ele>915.7</ele>
        <time>2021-04-22T12:07:22Z</time>
      </trkpt>
      <trkpt lat="44.83675" lon="5.78389">
        <ele>915.9</ele>
        <time>2021-04-22T12:07:23Z</time>
      </trkpt>
      <trkpt lat="44.83676" lon="5.7839">
        <ele>916.2</ele>
        <time>2021-04-22T12:07:25Z</time>
      </trkpt>
      <trkpt lat="44.83676" lon="5.78392">
        <ele>916.5</ele>
        <time>2021-04-22T12:07:27Z</time>
      </trkpt>
      <trkpt lat="44.83676" lon="5.78395">
        <ele>916.8</ele>
        <time>2021-04-22T12:07:29Z</time>
      </trkpt>
      <trkpt lat="44.83677" lon="5.78397">
        <ele>917.2</ele>
        <time>2021-04-22T12:07:31Z</time>
      </trkpt>
      <trkpt lat="44.83677" lon="5.78399">
        <ele>917.4</ele>
        <time>2021-04-22T12:07:32Z</time>
      </trkpt>
      <trkpt lat="44.83678" lon="5.78401">
        <ele>917.7</ele>
        <time>2021-04-22T12:07:33Z</time>
      </trkpt>
      <trkpt lat="44.83678" lon="5.78402">
        <ele>917.9</ele>
        <time>2021-04-22T12:07:34Z</time>
      </trkpt>
      <trkpt lat="44.83679" lon="5.78403">
        <ele>918.1</ele>
        <time>2021-04-22T12:07:35Z</time>
      </trkpt>
      <trkpt lat="44.83681" lon="5.78405">
        <ele>918.5</ele>
        <time>2021-04-22T12:07:37Z</time>
      </trkpt>
      <trkpt lat="44.83681" lon="5.78406">
        <ele>918.7</ele>
        <time>2021-04-22T12:07:38Z</time>
      </trkpt>
      <trkpt lat="44.83682" lon="5.78407">
        <ele>918.9</ele>
        <time>2021-04-22T12:07:39Z</time>
      </trkpt>
      <trkpt lat="44.83683" lon="5.78408">
        <ele>919.2</ele>
        <time>2021-04-22T12:07:41Z</time>
      </trkpt>
      <trkpt lat="44.83684" lon="5.78409">
        <ele>919.3</ele>
        <time>2021-04-22T12:07:42Z</time>
      </trkpt>
      <trkpt lat="44.83684" lon="5.78409">
        <ele>919.5</ele>
        <time>2021-04-22T12:07:43Z</time>
      </trkpt>
      <trkpt lat="44.83685" lon="5.7841">
        <ele>919.7</ele>
        <time>2021-04-22T12:07:44Z</time>
      </trkpt>
      <trkpt lat="44.83687" lon="5.78411">
        <ele>920.1</ele>
        <time>2021-04-22T12:07:46Z</time>
      </trkpt>
      <trkpt lat="44.83687" lon="5.78411">
        <ele>920.2</ele>
        <time>2021-04-22T12:07:47Z</time>
      </trkpt>
      <trkpt lat="44.8369" lon="5.78413">
        <ele>920.8</ele>
        <time>2021-04-22T12:07:49Z</time>
      </trkpt>
      <trkpt lat="44.83691" lon="5.78413">
        <ele>920.9</ele>
        <time>2021-04-22T12:07:50Z</time>
      </trkpt>
      <trkpt lat="44.83691" lon="5.78414">
        <ele>921.1</ele>
        <time>2021-04-22T12:07:51Z</time>
      </trkpt>
      <trkpt lat="44.83693" lon="5.78414">
        <ele>921.4</ele>
        <time>2021-04-22T12:07:52Z</time>
      </trkpt>
      <trkpt lat="44.83696" lon="5.78415">
        <ele>922</ele>
        <time>2021-04-22T12:07:54Z</time>
      </trkpt>
      <trkpt lat="44.83697" lon="5.78415">
        <ele>922.3</ele>
        <time>2021-04-22T12:07:56Z</time>
      </trkpt>
      <trkpt lat="44.83699" lon="5.78416">
        <ele>922.6</ele>
        <time>2021-04-22T12:07:57Z</time>
      </trkpt>
      <trkpt lat="44.83701" lon="5.78417">
        <ele>923</ele>
        <time>2021-04-22T12:07:59Z</time>
      </trkpt>
      <trkpt lat="44.83701" lon="5.78417">
        <ele>923.1</ele>
        <time>2021-04-22T12:08:00Z</time>
      </trkpt>
      <trkpt lat="44.83702" lon="5.78417">
        <ele>923.2</ele>
        <time>2021-04-22T12:08:01Z</time>
      </trkpt>
      <trkpt lat="44.83702" lon="5.78417">
        <ele>923.2</ele>
        <time>2021-04-22T12:08:02Z</time>
      </trkpt>
      <trkpt lat="44.83702" lon="5.78416">
        <ele>923.3</ele>
        <time>2021-04-22T12:08:03Z</time>
      </trkpt>
      <trkpt lat="44.83703" lon="5.78416">
        <ele>923.5</ele>
        <time>2021-04-22T12:08:04Z</time>
      </trkpt>
      <trkpt lat="44.83704" lon="5.78416">
        <ele>923.7</ele>
        <time>2021-04-22T12:08:05Z</time>
      </trkpt>
      <trkpt lat="44.83705" lon="5.78417">
        <ele>923.9</ele>
        <time>2021-04-22T12:08:07Z</time>
      </trkpt>
      <trkpt lat="44.83706" lon="5.78417">
        <ele>924.1</ele>
        <time>2021-04-22T12:08:08Z</time>
      </trkpt>
      <trkpt lat="44.83708" lon="5.78417">
        <ele>924.5</ele>
        <time>2021-04-22T12:08:09Z</time>
      </trkpt>
      <trkpt lat="44.83711" lon="5.78417">
        <ele>925</ele>
        <time>2021-04-22T12:08:10Z</time>
      </trkpt>
      <trkpt lat="44.83712" lon="5.78418">
        <ele>925.1</ele>
        <time>2021-04-22T12:08:11Z</time>
      </trkpt>
      <trkpt lat="44.83714" lon="5.78418">
        <ele>925.5</ele>
        <time>2021-04-22T12:08:13Z</time>
      </trkpt>
      <trkpt lat="44.83715" lon="5.78418">
        <ele>925.7</ele>
        <time>2021-04-22T12:08:14Z</time>
      </trkpt>
      <trkpt lat="44.83718" lon="5.78419">
        <ele>926.1</ele>
        <time>2021-04-22T12:08:16Z</time>
      </trkpt>
      <trkpt lat="44.8372" lon="5.7842">
        <ele>926.4</ele>
        <time>2021-04-22T12:08:17Z</time>
      </trkpt>
      <trkpt lat="44.83721" lon="5.7842">
        <ele>926.6</ele>
        <time>2021-04-22T12:08:18Z</time>
      </trkpt>
      <trkpt lat="44.83722" lon="5.78419">
        <ele>926.8</ele>
        <time>2021-04-22T12:08:19Z</time>
      </trkpt>
      <trkpt lat="44.83723" lon="5.78419">
        <ele>926.9</ele>
        <time>2021-04-22T12:08:20Z</time>
      </trkpt>
      <trkpt lat="44.83725" lon="5.7842">
        <ele>927.1</ele>
        <time>2021-04-22T12:08:22Z</time>
      </trkpt>
      <trkpt lat="44.83726" lon="5.7842">
        <ele>927.2</ele>
        <time>2021-04-22T12:08:23Z</time>
      </trkpt>
      <trkpt lat="44.83727" lon="5.78421">
        <ele>927.4</ele>
        <time>2021-04-22T12:08:24Z</time>
      </trkpt>
      <trkpt lat="44.83728" lon="5.78421">
        <ele>927.5</ele>
        <time>2021-04-22T12:08:26Z</time>
      </trkpt>
      <trkpt lat="44.83728" lon="5.78421">
        <ele>927.6</ele>
        <time>2021-04-22T12:08:27Z</time>
      </trkpt>
      <trkpt lat="44.83729" lon="5.78421">
        <ele>927.8</ele>
        <time>2021-04-22T12:08:29Z</time>
      </trkpt>
      <trkpt lat="44.83731" lon="5.7842">
        <ele>928</ele>
        <time>2021-04-22T12:08:30Z</time>
      </trkpt>
      <trkpt lat="44.83733" lon="5.7842">
        <ele>928.2</ele>
        <time>2021-04-22T12:08:32Z</time>
      </trkpt>
      <trkpt lat="44.83734" lon="5.78419">
        <ele>928.4</ele>
        <time>2021-04-22T12:08:33Z</time>
      </trkpt>
      <trkpt lat="44.83734" lon="5.78419">
        <ele>928.5</ele>
        <time>2021-04-22T12:08:34Z</time>
      </trkpt>
      <trkpt lat="44.83736" lon="5.78419">
        <ele>928.7</ele>
        <time>2021-04-22T12:08:35Z</time>
      </trkpt>
      <trkpt lat="44.83738" lon="5.78418">
        <ele>929</ele>
        <time>2021-04-22T12:08:37Z</time>
      </trkpt>
      <trkpt lat="44.83739" lon="5.78418">
        <ele>929.1</ele>
        <time>2021-04-22T12:08:38Z</time>
      </trkpt>
      <trkpt lat="44.83742" lon="5.78417">
        <ele>929.5</ele>
        <time>2021-04-22T12:08:40Z</time>
      </trkpt>
      <trkpt lat="44.83745" lon="5.78416">
        <ele>929.8</ele>
        <time>2021-04-22T12:08:42Z</time>
      </trkpt>
      <trkpt lat="44.83747" lon="5.78416">
        <ele>930.1</ele>
        <time>2021-04-22T12:08:43Z</time>
      </trkpt>
      <trkpt lat="44.83748" lon="5.78416">
        <ele>930.3</ele>
        <time>2021-04-22T12:08:44Z</time>
      </trkpt>
      <trkpt lat="44.8375" lon="5.78417">
        <ele>930.5</ele>
        <time>2021-04-22T12:08:46Z</time>
      </trkpt>
      <trkpt lat="44.83752" lon="5.78417">
        <ele>930.8</ele>
        <time>2021-04-22T12:08:48Z</time>
      </trkpt>
      <trkpt lat="44.83756" lon="5.78417">
        <ele>931.2</ele>
        <time>2021-04-22T12:08:50Z</time>
      </trkpt>
      <trkpt lat="44.83757" lon="5.78417">
        <ele>931.3</ele>
        <time>2021-04-22T12:08:51Z</time>
      </trkpt>
      <trkpt lat="44.83759" lon="5.78417">
        <ele>931.6</ele>
        <time>2021-04-22T12:08:53Z</time>
      </trkpt>
      <trkpt lat="44.83761" lon="5.78416">
        <ele>931.9</ele>
        <time>2021-04-22T12:08:55Z</time>
      </trkpt>
      <trkpt lat="44.83762" lon="5.78415">
        <ele>932</ele>
        <time>2021-04-22T12:08:56Z</time>
      </trkpt>
      <trkpt lat="44.83763" lon="5.78415">
        <ele>932.1</ele>
        <time>2021-04-22T12:08:57Z</time>
      </trkpt>
      <trkpt lat="44.83765" lon="5.78415">
        <ele>932.4</ele>
        <time>2021-04-22T12:08:59Z</time>
      </trkpt>
      <trkpt lat="44.83768" lon="5.78416">
        <ele>932.8</ele>
        <time>2021-04-22T12:09:01Z</time>
      </trkpt>
      <trkpt lat="44.83769" lon="5.78416">
        <ele>932.9</ele>
        <time>2021-04-22T12:09:02Z</time>
      </trkpt>
      <trkpt lat="44.83771" lon="5.78417">
        <ele>933.1</ele>
        <time>2021-04-22T12:09:04Z</time>
      </trkpt>
      <trkpt lat="44.83772" lon="5.78418">
        <ele>933.2</ele>
        <time>2021-04-22T12:09:05Z</time>
      </trkpt>
      <trkpt lat="44.83773" lon="5.78418">
        <ele>933.4</ele>
        <time>2021-04-22T12:09:06Z</time>
      </trkpt>
      <trkpt lat="44.83775" lon="5.78419">
        <ele>933.6</ele>
        <time>2021-04-22T12:09:07Z</time>
      </trkpt>
      <trkpt lat="44.83776" lon="5.7842">
        <ele>933.7</ele>
        <time>2021-04-22T12:09:09Z</time>
      </trkpt>
      <trkpt lat="44.83777" lon="5.7842">
        <ele>933.9</ele>
        <time>2021-04-22T12:09:10Z</time>
      </trkpt>
      <trkpt lat="44.83781" lon="5.78421">
        <ele>934.2</ele>
        <time>2021-04-22T12:09:12Z</time>
      </trkpt>
      <trkpt lat="44.83781" lon="5.78421">
        <ele>934.3</ele>
        <time>2021-04-22T12:09:13Z</time>
      </trkpt>
      <trkpt lat="44.83784" lon="5.78421">
        <ele>934.6</ele>
        <time>2021-04-22T12:09:14Z</time>
      </trkpt>
      <trkpt lat="44.83785" lon="5.78422">
        <ele>934.7</ele>
        <time>2021-04-22T12:09:15Z</time>
      </trkpt>
      <trkpt lat="44.83789" lon="5.78422">
        <ele>935</ele>
        <time>2021-04-22T12:09:17Z</time>
      </trkpt>
      <trkpt lat="44.83789" lon="5.78422">
        <ele>935.1</ele>
        <time>2021-04-22T12:09:18Z</time>
      </trkpt>
      <trkpt lat="44.83792" lon="5.78423">
        <ele>935.4</ele>
        <time>2021-04-22T12:09:19Z</time>
      </trkpt>
      <trkpt lat="44.83793" lon="5.78423">
        <ele>935.5</ele>
        <time>2021-04-22T12:09:20Z</time>
      </trkpt>
      <trkpt lat="44.83795" lon="5.78424">
        <ele>935.7</ele>
        <time>2021-04-22T12:09:21Z</time>
      </trkpt>
      <trkpt lat="44.83797" lon="5.78424">
        <ele>935.9</ele>
        <time>2021-04-22T12:09:23Z</time>
      </trkpt>
      <trkpt lat="44.838" lon="5.78425">
        <ele>936.2</ele>
        <time>2021-04-22T12:09:25Z</time>
      </trkpt>
      <trkpt lat="44.838" lon="5.78426">
        <ele>936.3</ele>
        <time>2021-04-22T12:09:26Z</time>
      </trkpt>
      <trkpt lat="44.83802" lon="5.78426">
        <ele>936.5</ele>
        <time>2021-04-22T12:09:27Z</time>
      </trkpt>
      <trkpt lat="44.83804" lon="5.78427">
        <ele>936.6</ele>
        <time>2021-04-22T12:09:28Z</time>
      </trkpt>
      <trkpt lat="44.83806" lon="5.78428">
        <ele>936.9</ele>
        <time>2021-04-22T12:09:30Z</time>
      </trkpt>
      <trkpt lat="44.83808" lon="5.78428">
        <ele>937.1</ele>
        <time>2021-04-22T12:09:32Z</time>
      </trkpt>
      <trkpt lat="44.83807" lon="5.78427">
        <ele>937.2</ele>
        <time>2021-04-22T12:09:34Z</time>
      </trkpt>
      <trkpt lat="44.8381" lon="5.78427">
        <ele>937.4</ele>
        <time>2021-04-22T12:09:36Z</time>
      </trkpt>
      <trkpt lat="44.83813" lon="5.78427">
        <ele>937.8</ele>
        <time>2021-04-22T12:09:38Z</time>
      </trkpt>
      <trkpt lat="44.83816" lon="5.78426">
        <ele>938</ele>
        <time>2021-04-22T12:09:39Z</time>
      </trkpt>
      <trkpt lat="44.83817" lon="5.78427">
        <ele>938.1</ele>
        <time>2021-04-22T12:09:41Z</time>
      </trkpt>
      <trkpt lat="44.83817" lon="5.78429">
        <ele>938.2</ele>
        <time>2021-04-22T12:09:42Z</time>
      </trkpt>
      <trkpt lat="44.83818" lon="5.78431">
        <ele>938.4</ele>
        <time>2021-04-22T12:09:44Z</time>
      </trkpt>
      <trkpt lat="44.83819" lon="5.78433">
        <ele>938.6</ele>
        <time>2021-04-22T12:09:45Z</time>
      </trkpt>
      <trkpt lat="44.83821" lon="5.78435">
        <ele>938.8</ele>
        <time>2021-04-22T12:09:47Z</time>
      </trkpt>
      <trkpt lat="44.83823" lon="5.78436">
        <ele>939</ele>
        <time>2021-04-22T12:09:48Z</time>
      </trkpt>
      <trkpt lat="44.83824" lon="5.78437">
        <ele>939.2</ele>
        <time>2021-04-22T12:09:49Z</time>
      </trkpt>
      <trkpt lat="44.83827" lon="5.78437">
        <ele>939.5</ele>
        <time>2021-04-22T12:09:51Z</time>
      </trkpt>
      <trkpt lat="44.83829" lon="5.78437">
        <ele>939.7</ele>
        <time>2021-04-22T12:09:52Z</time>
      </trkpt>
      <trkpt lat="44.83831" lon="5.78436">
        <ele>939.9</ele>
        <time>2021-04-22T12:09:53Z</time>
      </trkpt>
      <trkpt lat="44.83834" lon="5.78436">
        <ele>940.2</ele>
        <time>2021-04-22T12:09:55Z</time>
      </trkpt>
      <trkpt lat="44.83834" lon="5.78435">
        <ele>940.3</ele>
        <time>2021-04-22T12:09:56Z</time>
      </trkpt>
      <trkpt lat="44.83836" lon="5.78435">
        <ele>940.5</ele>
        <time>2021-04-22T12:09:58Z</time>
      </trkpt>
      <trkpt lat="44.83838" lon="5.78435">
        <ele>940.7</ele>
        <time>2021-04-22T12:09:59Z</time>
      </trkpt>
      <trkpt lat="44.8384" lon="5.78436">
        <ele>940.9</ele>
        <time>2021-04-22T12:10:01Z</time>
      </trkpt>
      <trkpt lat="44.83843" lon="5.78436">
        <ele>941.2</ele>
        <time>2021-04-22T12:10:03Z</time>
      </trkpt>
      <trkpt lat="44.83845" lon="5.78436">
        <ele>941.4</ele>
        <time>2021-04-22T12:10:04Z</time>
      </trkpt>
      <trkpt lat="44.83846" lon="5.78437">
        <ele>941.6</ele>
        <time>2021-04-22T12:10:05Z</time>
      </trkpt>
      <trkpt lat="44.83847" lon="5.78436">
        <ele>941.7</ele>
        <time>2021-04-22T12:10:06Z</time>
      </trkpt>
      <trkpt lat="44.83849" lon="5.78436">
        <ele>941.8</ele>
        <time>2021-04-22T12:10:08Z</time>
      </trkpt>
      <trkpt lat="44.8385" lon="5.78436">
        <ele>941.9</ele>
        <time>2021-04-22T12:10:09Z</time>
      </trkpt>
      <trkpt lat="44.83851" lon="5.78437">
        <ele>942.1</ele>
        <time>2021-04-22T12:10:10Z</time>
      </trkpt>
      <trkpt lat="44.83853" lon="5.78437">
        <ele>942.2</ele>
        <time>2021-04-22T12:10:12Z</time>
      </trkpt>
      <trkpt lat="44.83854" lon="5.78437">
        <ele>942.4</ele>
        <time>2021-04-22T12:10:13Z</time>
      </trkpt>
      <trkpt lat="44.83856" lon="5.78438">
        <ele>942.6</ele>
        <time>2021-04-22T12:10:15Z</time>
      </trkpt>
      <trkpt lat="44.83858" lon="5.78438">
        <ele>942.7</ele>
        <time>2021-04-22T12:10:16Z</time>
      </trkpt>
      <trkpt lat="44.83861" lon="5.78439">
        <ele>943</ele>
        <time>2021-04-22T12:10:18Z</time>
      </trkpt>
      <trkpt lat="44.83863" lon="5.7844">
        <ele>943.2</ele>
        <time>2021-04-22T12:10:19Z</time>
      </trkpt>
      <trkpt lat="44.83864" lon="5.78442">
        <ele>943.3</ele>
        <time>2021-04-22T12:10:20Z</time>
      </trkpt>
      <trkpt lat="44.83864" lon="5.78445">
        <ele>943.5</ele>
        <time>2021-04-22T12:10:21Z</time>
      </trkpt>
      <trkpt lat="44.83865" lon="5.78446">
        <ele>943.6</ele>
        <time>2021-04-22T12:10:22Z</time>
      </trkpt>
      <trkpt lat="44.83867" lon="5.78449">
        <ele>943.7</ele>
        <time>2021-04-22T12:10:23Z</time>
      </trkpt>
      <trkpt lat="44.83868" lon="5.7845">
        <ele>943.8</ele>
        <time>2021-04-22T12:10:25Z</time>
      </trkpt>
      <trkpt lat="44.83869" lon="5.78451">
        <ele>943.9</ele>
        <time>2021-04-22T12:10:26Z</time>
      </trkpt>
      <trkpt lat="44.83871" lon="5.78451">
        <ele>944</ele>
        <time>2021-04-22T12:10:28Z</time>
      </trkpt>
      <trkpt lat="44.83872" lon="5.78452">
        <ele>944.1</ele>
        <time>2021-04-22T12:10:29Z</time>
      </trkpt>
      <trkpt lat="44.83873" lon="5.78453">
        <ele>944.2</ele>
        <time>2021-04-22T12:10:30Z</time>
      </trkpt>
      <trkpt lat="44.83874" lon="5.78454">
        <ele>944.3</ele>
        <time>2021-04-22T12:10:31Z</time>
      </trkpt>
      <trkpt lat="44.83876" lon="5.78456">
        <ele>944.4</ele>
        <time>2021-04-22T12:10:32Z</time>
      </trkpt>
      <trkpt lat="44.83878" lon="5.78459">
        <ele>944.6</ele>
        <time>2021-04-22T12:10:34Z</time>
      </trkpt>
      <trkpt lat="44.83879" lon="5.78462">
        <ele>944.7</ele>
        <time>2021-04-22T12:10:35Z</time>
      </trkpt>
      <trkpt lat="44.8388" lon="5.78465">
        <ele>944.9</ele>
        <time>2021-04-22T12:10:37Z</time>
      </trkpt>
      <trkpt lat="44.83882" lon="5.78468">
        <ele>945.1</ele>
        <time>2021-04-22T12:10:39Z</time>
      </trkpt>
      <trkpt lat="44.83882" lon="5.78468">
        <ele>945.2</ele>
        <time>2021-04-22T12:10:40Z</time>
      </trkpt>
      <trkpt lat="44.83883" lon="5.7847">
        <ele>945.3</ele>
        <time>2021-04-22T12:10:41Z</time>
      </trkpt>
      <trkpt lat="44.83886" lon="5.78473">
        <ele>945.6</ele>
        <time>2021-04-22T12:10:43Z</time>
      </trkpt>
      <trkpt lat="44.83886" lon="5.78475">
        <ele>945.8</ele>
        <time>2021-04-22T12:10:44Z</time>
      </trkpt>
      <trkpt lat="44.83889" lon="5.78478">
        <ele>946.1</ele>
        <time>2021-04-22T12:10:46Z</time>
      </trkpt>
      <trkpt lat="44.83891" lon="5.78481">
        <ele>946.4</ele>
        <time>2021-04-22T12:10:48Z</time>
      </trkpt>
      <trkpt lat="44.83892" lon="5.78482">
        <ele>946.5</ele>
        <time>2021-04-22T12:10:50Z</time>
      </trkpt>
      <trkpt lat="44.83892" lon="5.78483">
        <ele>946.6</ele>
        <time>2021-04-22T12:10:52Z</time>
      </trkpt>
      <trkpt lat="44.83894" lon="5.78485">
        <ele>946.9</ele>
        <time>2021-04-22T12:10:54Z</time>
      </trkpt>
      <trkpt lat="44.83895" lon="5.78486">
        <ele>947</ele>
        <time>2021-04-22T12:10:55Z</time>
      </trkpt>
      <trkpt lat="44.83896" lon="5.78488">
        <ele>947.2</ele>
        <time>2021-04-22T12:10:56Z</time>
      </trkpt>
      <trkpt lat="44.83897" lon="5.7849">
        <ele>947.4</ele>
        <time>2021-04-22T12:10:58Z</time>
      </trkpt>
      <trkpt lat="44.83899" lon="5.78493">
        <ele>947.7</ele>
        <time>2021-04-22T12:11:00Z</time>
      </trkpt>
      <trkpt lat="44.83899" lon="5.78495">
        <ele>947.9</ele>
        <time>2021-04-22T12:11:01Z</time>
      </trkpt>
      <trkpt lat="44.83901" lon="5.78495">
        <ele>948</ele>
        <time>2021-04-22T12:11:02Z</time>
      </trkpt>
      <trkpt lat="44.83902" lon="5.78497">
        <ele>948.3</ele>
        <time>2021-04-22T12:11:03Z</time>
      </trkpt>
      <trkpt lat="44.83903" lon="5.78498">
        <ele>948.4</ele>
        <time>2021-04-22T12:11:05Z</time>
      </trkpt>
      <trkpt lat="44.83904" lon="5.78499">
        <ele>948.5</ele>
        <time>2021-04-22T12:11:06Z</time>
      </trkpt>
      <trkpt lat="44.83906" lon="5.78502">
        <ele>948.8</ele>
        <time>2021-04-22T12:11:07Z</time>
      </trkpt>
      <trkpt lat="44.83906" lon="5.78503">
        <ele>948.9</ele>
        <time>2021-04-22T12:11:08Z</time>
      </trkpt>
      <trkpt lat="44.83907" lon="5.78504">
        <ele>949.1</ele>
        <time>2021-04-22T12:11:10Z</time>
      </trkpt>
      <trkpt lat="44.83908" lon="5.78505">
        <ele>949.2</ele>
        <time>2021-04-22T12:11:11Z</time>
      </trkpt>
      <trkpt lat="44.83911" lon="5.78508">
        <ele>949.6</ele>
        <time>2021-04-22T12:11:13Z</time>
      </trkpt>
      <trkpt lat="44.83913" lon="5.7851">
        <ele>949.9</ele>
        <time>2021-04-22T12:11:14Z</time>
      </trkpt>
      <trkpt lat="44.83913" lon="5.78512">
        <ele>950.1</ele>
        <time>2021-04-22T12:11:15Z</time>
      </trkpt>
      <trkpt lat="44.83915" lon="5.78513">
        <ele>950.3</ele>
        <time>2021-04-22T12:11:17Z</time>
      </trkpt>
      <trkpt lat="44.83916" lon="5.78513">
        <ele>950.4</ele>
        <time>2021-04-22T12:11:18Z</time>
      </trkpt>
      <trkpt lat="44.83917" lon="5.78514">
        <ele>950.5</ele>
        <time>2021-04-22T12:11:19Z</time>
      </trkpt>
      <trkpt lat="44.83917" lon="5.78516">
        <ele>950.7</ele>
        <time>2021-04-22T12:11:20Z</time>
      </trkpt>
      <trkpt lat="44.83919" lon="5.78519">
        <ele>951</ele>
        <time>2021-04-22T12:11:22Z</time>
      </trkpt>
      <trkpt lat="44.83921" lon="5.78522">
        <ele>951.4</ele>
        <time>2021-04-22T12:11:24Z</time>
      </trkpt>
      <trkpt lat="44.83921" lon="5.78523">
        <ele>951.5</ele>
        <time>2021-04-22T12:11:25Z</time>
      </trkpt>
      <trkpt lat="44.83922" lon="5.78525">
        <ele>951.7</ele>
        <time>2021-04-22T12:11:27Z</time>
      </trkpt>
      <trkpt lat="44.83923" lon="5.78527">
        <ele>951.8</ele>
        <time>2021-04-22T12:11:29Z</time>
      </trkpt>
      <trkpt lat="44.83923" lon="5.78528">
        <ele>952</ele>
        <time>2021-04-22T12:11:30Z</time>
      </trkpt>
      <trkpt lat="44.83924" lon="5.7853">
        <ele>952.2</ele>
        <time>2021-04-22T12:11:32Z</time>
      </trkpt>
      <trkpt lat="44.83924" lon="5.7853">
        <ele>952.2</ele>
        <time>2021-04-22T12:11:33Z</time>
      </trkpt>
      <trkpt lat="44.83924" lon="5.78531">
        <ele>952.3</ele>
        <time>2021-04-22T12:11:34Z</time>
      </trkpt>
      <trkpt lat="44.83924" lon="5.78531">
        <ele>952.3</ele>
        <time>2021-04-22T12:11:35Z</time>
      </trkpt>
      <trkpt lat="44.83925" lon="5.78531">
        <ele>952.3</ele>
        <time>2021-04-22T12:11:36Z</time>
      </trkpt>
      <trkpt lat="44.83925" lon="5.78532">
        <ele>952.4</ele>
        <time>2021-04-22T12:11:37Z</time>
      </trkpt>
      <trkpt lat="44.83924" lon="5.78532">
        <ele>952.4</ele>
        <time>2021-04-22T12:11:39Z</time>
      </trkpt>
      <trkpt lat="44.83924" lon="5.78531">
        <ele>952.5</ele>
        <time>2021-04-22T12:11:41Z</time>
      </trkpt>
      <trkpt lat="44.83924" lon="5.7853">
        <ele>952.6</ele>
        <time>2021-04-22T12:11:42Z</time>
      </trkpt>
      <trkpt lat="44.83924" lon="5.78529">
        <ele>952.6</ele>
        <time>2021-04-22T12:11:43Z</time>
      </trkpt>
      <trkpt lat="44.83924" lon="5.78529">
        <ele>952.6</ele>
        <time>2021-04-22T12:11:44Z</time>
      </trkpt>
      <trkpt lat="44.83924" lon="5.78529">
        <ele>952.6</ele>
        <time>2021-04-22T12:11:45Z</time>
      </trkpt>
      <trkpt lat="44.83924" lon="5.78529">
        <ele>952.7</ele>
        <time>2021-04-22T12:11:46Z</time>
      </trkpt>
      <trkpt lat="44.83924" lon="5.78529">
        <ele>952.7</ele>
        <time>2021-04-22T12:11:47Z</time>
      </trkpt>
      <trkpt lat="44.83924" lon="5.78529">
        <ele>952.7</ele>
        <time>2021-04-22T12:11:48Z</time>
      </trkpt>
      <trkpt lat="44.83924" lon="5.78529">
        <ele>952.7</ele>
        <time>2021-04-22T12:11:49Z</time>
      </trkpt>
      <trkpt lat="44.83925" lon="5.78526">
        <ele>952.9</ele>
        <time>2021-04-22T12:11:53Z</time>
      </trkpt>
      <trkpt lat="44.83926" lon="5.78525">
        <ele>953.1</ele>
        <time>2021-04-22T12:11:54Z</time>
      </trkpt>
      <trkpt lat="44.83926" lon="5.78524">
        <ele>953.1</ele>
        <time>2021-04-22T12:11:55Z</time>
      </trkpt>
      <trkpt lat="44.83926" lon="5.78524">
        <ele>953.1</ele>
        <time>2021-04-22T12:11:56Z</time>
      </trkpt>
      <trkpt lat="44.83926" lon="5.78524">
        <ele>953.1</ele>
        <time>2021-04-22T12:11:57Z</time>
      </trkpt>
      <trkpt lat="44.83926" lon="5.78524">
        <ele>953.2</ele>
        <time>2021-04-22T12:11:58Z</time>
      </trkpt>
      <trkpt lat="44.83926" lon="5.78524">
        <ele>953.2</ele>
        <time>2021-04-22T12:11:59Z</time>
      </trkpt>
      <trkpt lat="44.83926" lon="5.78524">
        <ele>953.2</ele>
        <time>2021-04-22T12:12:00Z</time>
      </trkpt>
      <trkpt lat="44.83926" lon="5.78524">
        <ele>953.2</ele>
        <time>2021-04-22T12:12:01Z</time>
      </trkpt>
      <trkpt lat="44.83926" lon="5.78524">
        <ele>953.2</ele>
        <time>2021-04-22T12:12:02Z</time>
      </trkpt>
      <trkpt lat="44.83926" lon="5.78524">
        <ele>953.2</ele>
        <time>2021-04-22T12:12:03Z</time>
      </trkpt>
      <trkpt lat="44.83926" lon="5.78524">
        <ele>953.2</ele>
        <time>2021-04-22T12:12:04Z</time>
      </trkpt>
      <trkpt lat="44.83926" lon="5.78524">
        <ele>953.2</ele>
        <time>2021-04-22T12:12:05Z</time>
      </trkpt>
      <trkpt lat="44.83926" lon="5.78524">
        <ele>953.2</ele>
        <time>2021-04-22T12:12:06Z</time>
      </trkpt>
      <trkpt lat="44.83928" lon="5.78525">
        <ele>953.4</ele>
        <time>2021-04-22T12:12:29Z</time>
      </trkpt>
      <trkpt lat="44.83929" lon="5.78526">
        <ele>953.6</ele>
        <time>2021-04-22T12:12:30Z</time>
      </trkpt>
      <trkpt lat="44.83929" lon="5.78529">
        <ele>953.8</ele>
        <time>2021-04-22T12:12:31Z</time>
      </trkpt>
      <trkpt lat="44.83931" lon="5.78532">
        <ele>954.1</ele>
        <time>2021-04-22T12:12:33Z</time>
      </trkpt>
      <trkpt lat="44.83934" lon="5.78536">
        <ele>954.5</ele>
        <time>2021-04-22T12:12:35Z</time>
      </trkpt>
      <trkpt lat="44.83936" lon="5.78539">
        <ele>954.8</ele>
        <time>2021-04-22T12:12:36Z</time>
      </trkpt>
      <trkpt lat="44.83938" lon="5.78542">
        <ele>955.2</ele>
        <time>2021-04-22T12:12:37Z</time>
      </trkpt>
      <trkpt lat="44.83938" lon="5.78543">
        <ele>955.3</ele>
        <time>2021-04-22T12:12:38Z</time>
      </trkpt>
      <trkpt lat="44.83941" lon="5.78544">
        <ele>955.6</ele>
        <time>2021-04-22T12:12:40Z</time>
      </trkpt>
      <trkpt lat="44.83943" lon="5.78546">
        <ele>955.9</ele>
        <time>2021-04-22T12:12:41Z</time>
      </trkpt>
      <trkpt lat="44.83947" lon="5.78549">
        <ele>956.4</ele>
        <time>2021-04-22T12:12:43Z</time>
      </trkpt>
      <trkpt lat="44.83951" lon="5.78551">
        <ele>957</ele>
        <time>2021-04-22T12:12:45Z</time>
      </trkpt>
      <trkpt lat="44.83954" lon="5.78554">
        <ele>957.5</ele>
        <time>2021-04-22T12:12:46Z</time>
      </trkpt>
      <trkpt lat="44.83957" lon="5.78557">
        <ele>958</ele>
        <time>2021-04-22T12:12:48Z</time>
      </trkpt>
      <trkpt lat="44.83958" lon="5.78558">
        <ele>958.1</ele>
        <time>2021-04-22T12:12:49Z</time>
      </trkpt>
      <trkpt lat="44.8396" lon="5.78559">
        <ele>958.5</ele>
        <time>2021-04-22T12:12:50Z</time>
      </trkpt>
      <trkpt lat="44.83962" lon="5.78562">
        <ele>958.9</ele>
        <time>2021-04-22T12:12:52Z</time>
      </trkpt>
      <trkpt lat="44.83963" lon="5.78563">
        <ele>959</ele>
        <time>2021-04-22T12:12:53Z</time>
      </trkpt>
      <trkpt lat="44.83963" lon="5.78564">
        <ele>959</ele>
        <time>2021-04-22T12:12:54Z</time>
      </trkpt>
      <trkpt lat="44.83963" lon="5.78563">
        <ele>959.1</ele>
        <time>2021-04-22T12:12:55Z</time>
      </trkpt>
      <trkpt lat="44.83962" lon="5.78563">
        <ele>959.1</ele>
        <time>2021-04-22T12:12:56Z</time>
      </trkpt>
      <trkpt lat="44.83962" lon="5.78563">
        <ele>959.1</ele>
        <time>2021-04-22T12:12:57Z</time>
      </trkpt>
      <trkpt lat="44.83963" lon="5.78565">
        <ele>959.3</ele>
        <time>2021-04-22T12:12:59Z</time>
      </trkpt>
      <trkpt lat="44.83965" lon="5.78566">
        <ele>959.5</ele>
        <time>2021-04-22T12:13:01Z</time>
      </trkpt>
      <trkpt lat="44.83966" lon="5.78567">
        <ele>959.7</ele>
        <time>2021-04-22T12:13:02Z</time>
      </trkpt>
      <trkpt lat="44.83967" lon="5.78568">
        <ele>959.9</ele>
        <time>2021-04-22T12:13:03Z</time>
      </trkpt>
      <trkpt lat="44.83969" lon="5.78569">
        <ele>960.2</ele>
        <time>2021-04-22T12:13:05Z</time>
      </trkpt>
      <trkpt lat="44.8397" lon="5.78569">
        <ele>960.4</ele>
        <time>2021-04-22T12:13:06Z</time>
      </trkpt>
      <trkpt lat="44.83972" lon="5.7857">
        <ele>960.7</ele>
        <time>2021-04-22T12:13:08Z</time>
      </trkpt>
      <trkpt lat="44.83974" lon="5.78569">
        <ele>961</ele>
        <time>2021-04-22T12:13:09Z</time>
      </trkpt>
      <trkpt lat="44.83976" lon="5.78569">
        <ele>961.3</ele>
        <time>2021-04-22T12:13:10Z</time>
      </trkpt>
      <trkpt lat="44.83978" lon="5.78569">
        <ele>961.6</ele>
        <time>2021-04-22T12:13:12Z</time>
      </trkpt>
      <trkpt lat="44.83981" lon="5.78568">
        <ele>962.1</ele>
        <time>2021-04-22T12:13:14Z</time>
      </trkpt>
      <trkpt lat="44.83982" lon="5.78568">
        <ele>962.3</ele>
        <time>2021-04-22T12:13:15Z</time>
      </trkpt>
      <trkpt lat="44.83984" lon="5.78569">
        <ele>962.5</ele>
        <time>2021-04-22T12:13:17Z</time>
      </trkpt>
      <trkpt lat="44.83985" lon="5.78569">
        <ele>962.7</ele>
        <time>2021-04-22T12:13:18Z</time>
      </trkpt>
      <trkpt lat="44.83988" lon="5.7857">
        <ele>963.1</ele>
        <time>2021-04-22T12:13:20Z</time>
      </trkpt>
      <trkpt lat="44.8399" lon="5.78571">
        <ele>963.4</ele>
        <time>2021-04-22T12:13:22Z</time>
      </trkpt>
      <trkpt lat="44.83991" lon="5.78571">
        <ele>963.6</ele>
        <time>2021-04-22T12:13:23Z</time>
      </trkpt>
      <trkpt lat="44.83993" lon="5.78571">
        <ele>963.8</ele>
        <time>2021-04-22T12:13:25Z</time>
      </trkpt>
      <trkpt lat="44.83995" lon="5.78572">
        <ele>964</ele>
        <time>2021-04-22T12:13:27Z</time>
      </trkpt>
      <trkpt lat="44.83997" lon="5.78572">
        <ele>964.3</ele>
        <time>2021-04-22T12:13:29Z</time>
      </trkpt>
      <trkpt lat="44.83998" lon="5.78572">
        <ele>964.5</ele>
        <time>2021-04-22T12:13:30Z</time>
      </trkpt>
      <trkpt lat="44.83999" lon="5.78573">
        <ele>964.6</ele>
        <time>2021-04-22T12:13:31Z</time>
      </trkpt>
      <trkpt lat="44.84" lon="5.78574">
        <ele>964.8</ele>
        <time>2021-04-22T12:13:32Z</time>
      </trkpt>
      <trkpt lat="44.84002" lon="5.78574">
        <ele>965</ele>
        <time>2021-04-22T12:13:34Z</time>
      </trkpt>
      <trkpt lat="44.84003" lon="5.78575">
        <ele>965.2</ele>
        <time>2021-04-22T12:13:35Z</time>
      </trkpt>
      <trkpt lat="44.84005" lon="5.78576">
        <ele>965.5</ele>
        <time>2021-04-22T12:13:36Z</time>
      </trkpt>
      <trkpt lat="44.84007" lon="5.78577">
        <ele>965.7</ele>
        <time>2021-04-22T12:13:38Z</time>
      </trkpt>
      <trkpt lat="44.84009" lon="5.78578">
        <ele>966.1</ele>
        <time>2021-04-22T12:13:39Z</time>
      </trkpt>
      <trkpt lat="44.8401" lon="5.78579">
        <ele>966.3</ele>
        <time>2021-04-22T12:13:41Z</time>
      </trkpt>
      <trkpt lat="44.84012" lon="5.7858">
        <ele>966.5</ele>
        <time>2021-04-22T12:13:43Z</time>
      </trkpt>
      <trkpt lat="44.84013" lon="5.78581">
        <ele>966.6</ele>
        <time>2021-04-22T12:13:44Z</time>
      </trkpt>
      <trkpt lat="44.84015" lon="5.78582">
        <ele>966.9</ele>
        <time>2021-04-22T12:13:45Z</time>
      </trkpt>
      <trkpt lat="44.84016" lon="5.78582">
        <ele>967</ele>
        <time>2021-04-22T12:13:47Z</time>
      </trkpt>
      <trkpt lat="44.84016" lon="5.78582">
        <ele>967.1</ele>
        <time>2021-04-22T12:13:48Z</time>
      </trkpt>
      <trkpt lat="44.84018" lon="5.78583">
        <ele>967.4</ele>
        <time>2021-04-22T12:13:49Z</time>
      </trkpt>
      <trkpt lat="44.84019" lon="5.78584">
        <ele>967.5</ele>
        <time>2021-04-22T12:13:51Z</time>
      </trkpt>
      <trkpt lat="44.8402" lon="5.78584">
        <ele>967.8</ele>
        <time>2021-04-22T12:13:52Z</time>
      </trkpt>
      <trkpt lat="44.84022" lon="5.78585">
        <ele>968</ele>
        <time>2021-04-22T12:13:54Z</time>
      </trkpt>
      <trkpt lat="44.84024" lon="5.78585">
        <ele>968.2</ele>
        <time>2021-04-22T12:13:55Z</time>
      </trkpt>
      <trkpt lat="44.84026" lon="5.78586">
        <ele>968.6</ele>
        <time>2021-04-22T12:13:57Z</time>
      </trkpt>
      <trkpt lat="44.84029" lon="5.78586">
        <ele>969</ele>
        <time>2021-04-22T12:13:59Z</time>
      </trkpt>
      <trkpt lat="44.8403" lon="5.78587">
        <ele>969.1</ele>
        <time>2021-04-22T12:14:00Z</time>
      </trkpt>
      <trkpt lat="44.84032" lon="5.78587">
        <ele>969.4</ele>
        <time>2021-04-22T12:14:01Z</time>
      </trkpt>
      <trkpt lat="44.84033" lon="5.78588">
        <ele>969.6</ele>
        <time>2021-04-22T12:14:02Z</time>
      </trkpt>
      <trkpt lat="44.84034" lon="5.78588">
        <ele>969.8</ele>
        <time>2021-04-22T12:14:04Z</time>
      </trkpt>
      <trkpt lat="44.84035" lon="5.78589">
        <ele>970.1</ele>
        <time>2021-04-22T12:14:05Z</time>
      </trkpt>
      <trkpt lat="44.84037" lon="5.7859">
        <ele>970.3</ele>
        <time>2021-04-22T12:14:07Z</time>
      </trkpt>
      <trkpt lat="44.84038" lon="5.7859">
        <ele>970.5</ele>
        <time>2021-04-22T12:14:08Z</time>
      </trkpt>
      <trkpt lat="44.8404" lon="5.78591">
        <ele>970.8</ele>
        <time>2021-04-22T12:14:10Z</time>
      </trkpt>
      <trkpt lat="44.84041" lon="5.78591">
        <ele>971.1</ele>
        <time>2021-04-22T12:14:11Z</time>
      </trkpt>
      <trkpt lat="44.84043" lon="5.78591">
        <ele>971.3</ele>
        <time>2021-04-22T12:14:12Z</time>
      </trkpt>
      <trkpt lat="44.84044" lon="5.78592">
        <ele>971.5</ele>
        <time>2021-04-22T12:14:14Z</time>
      </trkpt>
      <trkpt lat="44.84045" lon="5.78592">
        <ele>971.7</ele>
        <time>2021-04-22T12:14:15Z</time>
      </trkpt>
      <trkpt lat="44.84047" lon="5.78592">
        <ele>972</ele>
        <time>2021-04-22T12:14:17Z</time>
      </trkpt>
      <trkpt lat="44.84048" lon="5.78592">
        <ele>972.2</ele>
        <time>2021-04-22T12:14:18Z</time>
      </trkpt>
      <trkpt lat="44.84049" lon="5.78592">
        <ele>972.4</ele>
        <time>2021-04-22T12:14:19Z</time>
      </trkpt>
      <trkpt lat="44.8405" lon="5.78592">
        <ele>972.6</ele>
        <time>2021-04-22T12:14:21Z</time>
      </trkpt>
      <trkpt lat="44.84052" lon="5.78592">
        <ele>972.8</ele>
        <time>2021-04-22T12:14:22Z</time>
      </trkpt>
      <trkpt lat="44.84054" lon="5.78592">
        <ele>973.2</ele>
        <time>2021-04-22T12:14:23Z</time>
      </trkpt>
      <trkpt lat="44.84055" lon="5.78593">
        <ele>973.5</ele>
        <time>2021-04-22T12:14:25Z</time>
      </trkpt>
      <trkpt lat="44.84057" lon="5.78596">
        <ele>973.9</ele>
        <time>2021-04-22T12:14:27Z</time>
      </trkpt>
      <trkpt lat="44.84059" lon="5.78598">
        <ele>974.4</ele>
        <time>2021-04-22T12:14:29Z</time>
      </trkpt>
      <trkpt lat="44.8406" lon="5.78599">
        <ele>974.6</ele>
        <time>2021-04-22T12:14:30Z</time>
      </trkpt>
      <trkpt lat="44.84061" lon="5.78599">
        <ele>974.9</ele>
        <time>2021-04-22T12:14:32Z</time>
      </trkpt>
      <trkpt lat="44.84063" lon="5.786">
        <ele>975.2</ele>
        <time>2021-04-22T12:14:34Z</time>
      </trkpt>
      <trkpt lat="44.84065" lon="5.78601">
        <ele>975.6</ele>
        <time>2021-04-22T12:14:36Z</time>
      </trkpt>
      <trkpt lat="44.84066" lon="5.78602">
        <ele>975.9</ele>
        <time>2021-04-22T12:14:37Z</time>
      </trkpt>
      <trkpt lat="44.84067" lon="5.78603">
        <ele>976.1</ele>
        <time>2021-04-22T12:14:39Z</time>
      </trkpt>
      <trkpt lat="44.84067" lon="5.78604">
        <ele>976.2</ele>
        <time>2021-04-22T12:14:40Z</time>
      </trkpt>
      <trkpt lat="44.84068" lon="5.78605">
        <ele>976.5</ele>
        <time>2021-04-22T12:14:41Z</time>
      </trkpt>
      <trkpt lat="44.84069" lon="5.78606">
        <ele>976.8</ele>
        <time>2021-04-22T12:14:43Z</time>
      </trkpt>
      <trkpt lat="44.8407" lon="5.78607">
        <ele>977</ele>
        <time>2021-04-22T12:14:44Z</time>
      </trkpt>
      <trkpt lat="44.84072" lon="5.78609">
        <ele>977.3</ele>
        <time>2021-04-22T12:14:46Z</time>
      </trkpt>
      <trkpt lat="44.84073" lon="5.78609">
        <ele>977.5</ele>
        <time>2021-04-22T12:14:47Z</time>
      </trkpt>
      <trkpt lat="44.84074" lon="5.7861">
        <ele>977.7</ele>
        <time>2021-04-22T12:14:49Z</time>
      </trkpt>
      <trkpt lat="44.84074" lon="5.78611">
        <ele>977.9</ele>
        <time>2021-04-22T12:14:50Z</time>
      </trkpt>
      <trkpt lat="44.84076" lon="5.78612">
        <ele>978.2</ele>
        <time>2021-04-22T12:14:51Z</time>
      </trkpt>
      <trkpt lat="44.84076" lon="5.78613">
        <ele>978.4</ele>
        <time>2021-04-22T12:14:53Z</time>
      </trkpt>
      <trkpt lat="44.84077" lon="5.78614">
        <ele>978.5</ele>
        <time>2021-04-22T12:14:54Z</time>
      </trkpt>
      <trkpt lat="44.84078" lon="5.78616">
        <ele>978.9</ele>
        <time>2021-04-22T12:14:56Z</time>
      </trkpt>
      <trkpt lat="44.84079" lon="5.78618">
        <ele>979.2</ele>
        <time>2021-04-22T12:14:58Z</time>
      </trkpt>
      <trkpt lat="44.8408" lon="5.78619">
        <ele>979.3</ele>
        <time>2021-04-22T12:14:59Z</time>
      </trkpt>
      <trkpt lat="44.8408" lon="5.7862">
        <ele>979.5</ele>
        <time>2021-04-22T12:15:00Z</time>
      </trkpt>
      <trkpt lat="44.84081" lon="5.78622">
        <ele>979.7</ele>
        <time>2021-04-22T12:15:01Z</time>
      </trkpt>
      <trkpt lat="44.84082" lon="5.78623">
        <ele>980</ele>
        <time>2021-04-22T12:15:03Z</time>
      </trkpt>
      <trkpt lat="44.84084" lon="5.78625">
        <ele>980.3</ele>
        <time>2021-04-22T12:15:05Z</time>
      </trkpt>
      <trkpt lat="44.84085" lon="5.78626">
        <ele>980.5</ele>
        <time>2021-04-22T12:15:06Z</time>
      </trkpt>
      <trkpt lat="44.84086" lon="5.78628">
        <ele>980.8</ele>
        <time>2021-04-22T12:15:08Z</time>
      </trkpt>
      <trkpt lat="44.84087" lon="5.78629">
        <ele>981</ele>
        <time>2021-04-22T12:15:09Z</time>
      </trkpt>
      <trkpt lat="44.84088" lon="5.7863">
        <ele>981.3</ele>
        <time>2021-04-22T12:15:11Z</time>
      </trkpt>
      <trkpt lat="44.84089" lon="5.78631">
        <ele>981.5</ele>
        <time>2021-04-22T12:15:12Z</time>
      </trkpt>
      <trkpt lat="44.8409" lon="5.78632">
        <ele>981.6</ele>
        <time>2021-04-22T12:15:13Z</time>
      </trkpt>
      <trkpt lat="44.84092" lon="5.78633">
        <ele>982</ele>
        <time>2021-04-22T12:15:15Z</time>
      </trkpt>
      <trkpt lat="44.84093" lon="5.78633">
        <ele>982.1</ele>
        <time>2021-04-22T12:15:16Z</time>
      </trkpt>
      <trkpt lat="44.84094" lon="5.78634">
        <ele>982.4</ele>
        <time>2021-04-22T12:15:18Z</time>
      </trkpt>
      <trkpt lat="44.84095" lon="5.78635">
        <ele>982.5</ele>
        <time>2021-04-22T12:15:19Z</time>
      </trkpt>
      <trkpt lat="44.84096" lon="5.78636">
        <ele>982.7</ele>
        <time>2021-04-22T12:15:20Z</time>
      </trkpt>
      <trkpt lat="44.84097" lon="5.78637">
        <ele>982.9</ele>
        <time>2021-04-22T12:15:21Z</time>
      </trkpt>
      <trkpt lat="44.84098" lon="5.78639">
        <ele>983.2</ele>
        <time>2021-04-22T12:15:23Z</time>
      </trkpt>
      <trkpt lat="44.841" lon="5.78641">
        <ele>983.5</ele>
        <time>2021-04-22T12:15:25Z</time>
      </trkpt>
      <trkpt lat="44.84101" lon="5.78642">
        <ele>983.7</ele>
        <time>2021-04-22T12:15:26Z</time>
      </trkpt>
      <trkpt lat="44.84102" lon="5.78643">
        <ele>984</ele>
        <time>2021-04-22T12:15:28Z</time>
      </trkpt>
      <trkpt lat="44.84104" lon="5.78645">
        <ele>984.3</ele>
        <time>2021-04-22T12:15:30Z</time>
      </trkpt>
      <trkpt lat="44.84105" lon="5.78646">
        <ele>984.5</ele>
        <time>2021-04-22T12:15:31Z</time>
      </trkpt>
      <trkpt lat="44.84106" lon="5.78647">
        <ele>984.7</ele>
        <time>2021-04-22T12:15:32Z</time>
      </trkpt>
      <trkpt lat="44.84107" lon="5.78649">
        <ele>984.9</ele>
        <time>2021-04-22T12:15:34Z</time>
      </trkpt>
      <trkpt lat="44.84108" lon="5.78651">
        <ele>985.2</ele>
        <time>2021-04-22T12:15:36Z</time>
      </trkpt>
      <trkpt lat="44.8411" lon="5.78653">
        <ele>985.1</ele>
        <time>2021-04-22T12:15:37Z</time>
      </trkpt>
      <trkpt lat="44.84111" lon="5.78654">
        <ele>985</ele>
        <time>2021-04-22T12:15:39Z</time>
      </trkpt>
      <trkpt lat="44.84111" lon="5.78655">
        <ele>984.9</ele>
        <time>2021-04-22T12:15:40Z</time>
      </trkpt>
      <trkpt lat="44.84112" lon="5.78656">
        <ele>984.8</ele>
        <time>2021-04-22T12:15:42Z</time>
      </trkpt>
      <trkpt lat="44.84113" lon="5.78657">
        <ele>984.7</ele>
        <time>2021-04-22T12:15:43Z</time>
      </trkpt>
      <trkpt lat="44.84114" lon="5.78657">
        <ele>984.6</ele>
        <time>2021-04-22T12:15:44Z</time>
      </trkpt>
      <trkpt lat="44.84115" lon="5.78658">
        <ele>984.5</ele>
        <time>2021-04-22T12:15:46Z</time>
      </trkpt>
      <trkpt lat="44.84116" lon="5.78658">
        <ele>984.4</ele>
        <time>2021-04-22T12:15:47Z</time>
      </trkpt>
      <trkpt lat="44.84118" lon="5.7866">
        <ele>984.2</ele>
        <time>2021-04-22T12:15:48Z</time>
      </trkpt>
      <trkpt lat="44.84119" lon="5.78661">
        <ele>984.1</ele>
        <time>2021-04-22T12:15:50Z</time>
      </trkpt>
      <trkpt lat="44.8412" lon="5.78661">
        <ele>984</ele>
        <time>2021-04-22T12:15:51Z</time>
      </trkpt>
      <trkpt lat="44.84121" lon="5.78663">
        <ele>983.8</ele>
        <time>2021-04-22T12:15:52Z</time>
      </trkpt>
      <trkpt lat="44.84122" lon="5.78663">
        <ele>983.8</ele>
        <time>2021-04-22T12:15:54Z</time>
      </trkpt>
      <trkpt lat="44.84123" lon="5.78664">
        <ele>983.7</ele>
        <time>2021-04-22T12:15:55Z</time>
      </trkpt>
      <trkpt lat="44.84124" lon="5.78665">
        <ele>983.6</ele>
        <time>2021-04-22T12:15:57Z</time>
      </trkpt>
      <trkpt lat="44.84124" lon="5.78665">
        <ele>983.5</ele>
        <time>2021-04-22T12:15:58Z</time>
      </trkpt>
      <trkpt lat="44.84126" lon="5.78666">
        <ele>983.4</ele>
        <time>2021-04-22T12:15:59Z</time>
      </trkpt>
      <trkpt lat="44.84127" lon="5.78667">
        <ele>983.3</ele>
        <time>2021-04-22T12:16:01Z</time>
      </trkpt>
      <trkpt lat="44.84128" lon="5.78668">
        <ele>983.1</ele>
        <time>2021-04-22T12:16:02Z</time>
      </trkpt>
      <trkpt lat="44.84129" lon="5.78669">
        <ele>983</ele>
        <time>2021-04-22T12:16:04Z</time>
      </trkpt>
      <trkpt lat="44.8413" lon="5.7867">
        <ele>983</ele>
        <time>2021-04-22T12:16:05Z</time>
      </trkpt>
      <trkpt lat="44.84131" lon="5.7867">
        <ele>982.9</ele>
        <time>2021-04-22T12:16:06Z</time>
      </trkpt>
      <trkpt lat="44.84133" lon="5.7867">
        <ele>982.7</ele>
        <time>2021-04-22T12:16:08Z</time>
      </trkpt>
      <trkpt lat="44.84134" lon="5.7867">
        <ele>982.6</ele>
        <time>2021-04-22T12:16:09Z</time>
      </trkpt>
      <trkpt lat="44.84135" lon="5.78671">
        <ele>982.4</ele>
        <time>2021-04-22T12:16:11Z</time>
      </trkpt>
      <trkpt lat="44.84137" lon="5.78672">
        <ele>982.2</ele>
        <time>2021-04-22T12:16:13Z</time>
      </trkpt>
      <trkpt lat="44.84139" lon="5.78673">
        <ele>982</ele>
        <time>2021-04-22T12:16:14Z</time>
      </trkpt>
      <trkpt lat="44.8414" lon="5.78673">
        <ele>981.9</ele>
        <time>2021-04-22T12:16:15Z</time>
      </trkpt>
      <trkpt lat="44.84142" lon="5.78672">
        <ele>981.6</ele>
        <time>2021-04-22T12:16:16Z</time>
      </trkpt>
      <trkpt lat="44.84144" lon="5.78671">
        <ele>981.3</ele>
        <time>2021-04-22T12:16:18Z</time>
      </trkpt>
      <trkpt lat="44.84145" lon="5.7867">
        <ele>981.1</ele>
        <time>2021-04-22T12:16:20Z</time>
      </trkpt>
      <trkpt lat="44.84147" lon="5.7867">
        <ele>980.9</ele>
        <time>2021-04-22T12:16:22Z</time>
      </trkpt>
      <trkpt lat="44.84148" lon="5.78668">
        <ele>980</ele>
        <time>2021-04-22T12:16:24Z</time>
      </trkpt>
      <trkpt lat="44.8415" lon="5.78667">
        <ele>979.9</ele>
        <time>2021-04-22T12:16:26Z</time>
      </trkpt>
      <trkpt lat="44.8415" lon="5.78666">
        <ele>979.9</ele>
        <time>2021-04-22T12:16:28Z</time>
      </trkpt>
      <trkpt lat="44.84151" lon="5.78665">
        <ele>979.9</ele>
        <time>2021-04-22T12:16:29Z</time>
      </trkpt>
      <trkpt lat="44.84152" lon="5.78664">
        <ele>979.8</ele>
        <time>2021-04-22T12:16:31Z</time>
      </trkpt>
      <trkpt lat="44.84153" lon="5.78664">
        <ele>979.8</ele>
        <time>2021-04-22T12:16:32Z</time>
      </trkpt>
      <trkpt lat="44.84153" lon="5.78664">
        <ele>979.8</ele>
        <time>2021-04-22T12:16:33Z</time>
      </trkpt>
      <trkpt lat="44.84154" lon="5.78665">
        <ele>979.8</ele>
        <time>2021-04-22T12:16:35Z</time>
      </trkpt>
      <trkpt lat="44.84155" lon="5.78667">
        <ele>979.8</ele>
        <time>2021-04-22T12:16:36Z</time>
      </trkpt>
      <trkpt lat="44.84154" lon="5.7867">
        <ele>979.8</ele>
        <time>2021-04-22T12:16:37Z</time>
      </trkpt>
      <trkpt lat="44.84153" lon="5.78672">
        <ele>979.8</ele>
        <time>2021-04-22T12:16:39Z</time>
      </trkpt>
      <trkpt lat="44.84153" lon="5.78674">
        <ele>979.9</ele>
        <time>2021-04-22T12:16:40Z</time>
      </trkpt>
      <trkpt lat="44.84152" lon="5.78676">
        <ele>979.9</ele>
        <time>2021-04-22T12:16:41Z</time>
      </trkpt>
      <trkpt lat="44.84152" lon="5.78678">
        <ele>979.9</ele>
        <time>2021-04-22T12:16:42Z</time>
      </trkpt>
      <trkpt lat="44.84151" lon="5.7868">
        <ele>979.9</ele>
        <time>2021-04-22T12:16:43Z</time>
      </trkpt>
      <trkpt lat="44.84151" lon="5.78682">
        <ele>979.9</ele>
        <time>2021-04-22T12:16:44Z</time>
      </trkpt>
      <trkpt lat="44.84152" lon="5.78684">
        <ele>980</ele>
        <time>2021-04-22T12:16:46Z</time>
      </trkpt>
      <trkpt lat="44.84152" lon="5.78686">
        <ele>980</ele>
        <time>2021-04-22T12:16:47Z</time>
      </trkpt>
      <trkpt lat="44.84152" lon="5.78689">
        <ele>980</ele>
        <time>2021-04-22T12:16:48Z</time>
      </trkpt>
      <trkpt lat="44.84153" lon="5.78691">
        <ele>980</ele>
        <time>2021-04-22T12:16:50Z</time>
      </trkpt>
      <trkpt lat="44.84154" lon="5.78692">
        <ele>980</ele>
        <time>2021-04-22T12:16:51Z</time>
      </trkpt>
      <trkpt lat="44.84155" lon="5.78693">
        <ele>980.1</ele>
        <time>2021-04-22T12:16:53Z</time>
      </trkpt>
      <trkpt lat="44.84155" lon="5.78693">
        <ele>980</ele>
        <time>2021-04-22T12:16:54Z</time>
      </trkpt>
      <trkpt lat="44.84155" lon="5.78693">
        <ele>980</ele>
        <time>2021-04-22T12:16:55Z</time>
      </trkpt>
      <trkpt lat="44.84155" lon="5.78693">
        <ele>980</ele>
        <time>2021-04-22T12:16:56Z</time>
      </trkpt>
      <trkpt lat="44.84155" lon="5.78693">
        <ele>980</ele>
        <time>2021-04-22T12:16:57Z</time>
      </trkpt>
      <trkpt lat="44.84155" lon="5.78692">
        <ele>980</ele>
        <time>2021-04-22T12:16:58Z</time>
      </trkpt>
      <trkpt lat="44.84155" lon="5.78692">
        <ele>980</ele>
        <time>2021-04-22T12:16:59Z</time>
      </trkpt>
      <trkpt lat="44.84155" lon="5.78692">
        <ele>980</ele>
        <time>2021-04-22T12:17:00Z</time>
      </trkpt>
      <trkpt lat="44.84155" lon="5.78692">
        <ele>980</ele>
        <time>2021-04-22T12:17:01Z</time>
      </trkpt>
      <trkpt lat="44.84155" lon="5.78692">
        <ele>980</ele>
        <time>2021-04-22T12:17:02Z</time>
      </trkpt>
      <trkpt lat="44.84155" lon="5.78692">
        <ele>980</ele>
        <time>2021-04-22T12:17:03Z</time>
      </trkpt>
      <trkpt lat="44.84159" lon="5.78694">
        <ele>979.9</ele>
        <time>2021-04-22T12:18:40Z</time>
      </trkpt>
      <trkpt lat="44.84162" lon="5.78694">
        <ele>979.8</ele>
        <time>2021-04-22T12:18:41Z</time>
      </trkpt>
      <trkpt lat="44.84165" lon="5.78696">
        <ele>979.7</ele>
        <time>2021-04-22T12:18:43Z</time>
      </trkpt>
      <trkpt lat="44.84171" lon="5.78702">
        <ele>979.4</ele>
        <time>2021-04-22T12:18:45Z</time>
      </trkpt>
      <trkpt lat="44.84174" lon="5.78705">
        <ele>979.2</ele>
        <time>2021-04-22T12:18:46Z</time>
      </trkpt>
      <trkpt lat="44.84177" lon="5.7871">
        <ele>978.9</ele>
        <time>2021-04-22T12:18:47Z</time>
      </trkpt>
      <trkpt lat="44.84183" lon="5.78715">
        <ele>978.6</ele>
        <time>2021-04-22T12:18:48Z</time>
      </trkpt>
      <trkpt lat="44.84194" lon="5.78725">
        <ele>977.7</ele>
        <time>2021-04-22T12:18:50Z</time>
      </trkpt>
      <trkpt lat="44.842" lon="5.7873">
        <ele>977.3</ele>
        <time>2021-04-22T12:18:51Z</time>
      </trkpt>
      <trkpt lat="44.84205" lon="5.78736">
        <ele>976.9</ele>
        <time>2021-04-22T12:18:52Z</time>
      </trkpt>
      <trkpt lat="44.8421" lon="5.78743">
        <ele>976.5</ele>
        <time>2021-04-22T12:18:53Z</time>
      </trkpt>
      <trkpt lat="44.84214" lon="5.78752">
        <ele>976</ele>
        <time>2021-04-22T12:18:54Z</time>
      </trkpt>
      <trkpt lat="44.84218" lon="5.78762">
        <ele>975.5</ele>
        <time>2021-04-22T12:18:55Z</time>
      </trkpt>
      <trkpt lat="44.8422" lon="5.78774">
        <ele>974.9</ele>
        <time>2021-04-22T12:18:56Z</time>
      </trkpt>
      <trkpt lat="44.8422" lon="5.78787">
        <ele>974.2</ele>
        <time>2021-04-22T12:18:57Z</time>
      </trkpt>
      <trkpt lat="44.8422" lon="5.788">
        <ele>973.6</ele>
        <time>2021-04-22T12:18:58Z</time>
      </trkpt>
      <trkpt lat="44.84219" lon="5.78813">
        <ele>972.9</ele>
        <time>2021-04-22T12:18:59Z</time>
      </trkpt>
      <trkpt lat="44.84219" lon="5.78827">
        <ele>972.2</ele>
        <time>2021-04-22T12:19:00Z</time>
      </trkpt>
      <trkpt lat="44.8422" lon="5.78841">
        <ele>971.6</ele>
        <time>2021-04-22T12:19:01Z</time>
      </trkpt>
      <trkpt lat="44.8422" lon="5.78854">
        <ele>971.1</ele>
        <time>2021-04-22T12:19:02Z</time>
      </trkpt>
      <trkpt lat="44.84221" lon="5.78868">
        <ele>970.5</ele>
        <time>2021-04-22T12:19:03Z</time>
      </trkpt>
      <trkpt lat="44.84222" lon="5.78882">
        <ele>970</ele>
        <time>2021-04-22T12:19:04Z</time>
      </trkpt>
      <trkpt lat="44.84224" lon="5.78895">
        <ele>969.4</ele>
        <time>2021-04-22T12:19:05Z</time>
      </trkpt>
      <trkpt lat="44.84225" lon="5.7891">
        <ele>968.7</ele>
        <time>2021-04-22T12:19:06Z</time>
      </trkpt>
      <trkpt lat="44.84223" lon="5.78924">
        <ele>968</ele>
        <time>2021-04-22T12:19:07Z</time>
      </trkpt>
      <trkpt lat="44.84221" lon="5.78938">
        <ele>967.4</ele>
        <time>2021-04-22T12:19:08Z</time>
      </trkpt>
      <trkpt lat="44.84218" lon="5.78952">
        <ele>966.7</ele>
        <time>2021-04-22T12:19:09Z</time>
      </trkpt>
      <trkpt lat="44.84217" lon="5.78966">
        <ele>966.1</ele>
        <time>2021-04-22T12:19:10Z</time>
      </trkpt>
      <trkpt lat="44.84214" lon="5.7898">
        <ele>965.5</ele>
        <time>2021-04-22T12:19:11Z</time>
      </trkpt>
      <trkpt lat="44.84211" lon="5.78994">
        <ele>964.9</ele>
        <time>2021-04-22T12:19:12Z</time>
      </trkpt>
      <trkpt lat="44.84208" lon="5.79007">
        <ele>964.3</ele>
        <time>2021-04-22T12:19:13Z</time>
      </trkpt>
      <trkpt lat="44.84206" lon="5.79021">
        <ele>963.8</ele>
        <time>2021-04-22T12:19:14Z</time>
      </trkpt>
      <trkpt lat="44.84203" lon="5.79036">
        <ele>963.3</ele>
        <time>2021-04-22T12:19:15Z</time>
      </trkpt>
      <trkpt lat="44.84198" lon="5.7905">
        <ele>962.8</ele>
        <time>2021-04-22T12:19:16Z</time>
      </trkpt>
      <trkpt lat="44.84193" lon="5.79063">
        <ele>962.2</ele>
        <time>2021-04-22T12:19:17Z</time>
      </trkpt>
      <trkpt lat="44.84187" lon="5.79076">
        <ele>961.6</ele>
        <time>2021-04-22T12:19:18Z</time>
      </trkpt>
      <trkpt lat="44.8418" lon="5.79087">
        <ele>961.1</ele>
        <time>2021-04-22T12:19:19Z</time>
      </trkpt>
      <trkpt lat="44.84173" lon="5.79097">
        <ele>960.5</ele>
        <time>2021-04-22T12:19:20Z</time>
      </trkpt>
      <trkpt lat="44.84166" lon="5.79108">
        <ele>960.1</ele>
        <time>2021-04-22T12:19:21Z</time>
      </trkpt>
      <trkpt lat="44.8416" lon="5.79121">
        <ele>959.6</ele>
        <time>2021-04-22T12:19:22Z</time>
      </trkpt>
      <trkpt lat="44.84155" lon="5.79135">
        <ele>959.1</ele>
        <time>2021-04-22T12:19:23Z</time>
      </trkpt>
      <trkpt lat="44.84151" lon="5.79149">
        <ele>958.6</ele>
        <time>2021-04-22T12:19:24Z</time>
      </trkpt>
      <trkpt lat="44.84146" lon="5.79163">
        <ele>958</ele>
        <time>2021-04-22T12:19:25Z</time>
      </trkpt>
      <trkpt lat="44.8414" lon="5.79176">
        <ele>957.4</ele>
        <time>2021-04-22T12:19:26Z</time>
      </trkpt>
      <trkpt lat="44.84133" lon="5.79188">
        <ele>956.9</ele>
        <time>2021-04-22T12:19:27Z</time>
      </trkpt>
      <trkpt lat="44.84127" lon="5.79199">
        <ele>956.4</ele>
        <time>2021-04-22T12:19:28Z</time>
      </trkpt>
      <trkpt lat="44.8412" lon="5.79209">
        <ele>956</ele>
        <time>2021-04-22T12:19:29Z</time>
      </trkpt>
      <trkpt lat="44.84113" lon="5.79219">
        <ele>955.5</ele>
        <time>2021-04-22T12:19:30Z</time>
      </trkpt>
      <trkpt lat="44.84106" lon="5.79229">
        <ele>955.1</ele>
        <time>2021-04-22T12:19:31Z</time>
      </trkpt>
      <trkpt lat="44.84099" lon="5.7924">
        <ele>954.5</ele>
        <time>2021-04-22T12:19:32Z</time>
      </trkpt>
      <trkpt lat="44.84092" lon="5.7925">
        <ele>954.1</ele>
        <time>2021-04-22T12:19:33Z</time>
      </trkpt>
      <trkpt lat="44.84085" lon="5.7926">
        <ele>953.7</ele>
        <time>2021-04-22T12:19:34Z</time>
      </trkpt>
      <trkpt lat="44.84077" lon="5.7927">
        <ele>953.1</ele>
        <time>2021-04-22T12:19:35Z</time>
      </trkpt>
      <trkpt lat="44.84069" lon="5.79279">
        <ele>952.6</ele>
        <time>2021-04-22T12:19:36Z</time>
      </trkpt>
      <trkpt lat="44.84062" lon="5.79289">
        <ele>952.1</ele>
        <time>2021-04-22T12:19:37Z</time>
      </trkpt>
      <trkpt lat="44.84055" lon="5.79299">
        <ele>951.5</ele>
        <time>2021-04-22T12:19:38Z</time>
      </trkpt>
      <trkpt lat="44.84047" lon="5.79309">
        <ele>950.9</ele>
        <time>2021-04-22T12:19:39Z</time>
      </trkpt>
      <trkpt lat="44.84039" lon="5.79319">
        <ele>950.3</ele>
        <time>2021-04-22T12:19:40Z</time>
      </trkpt>
      <trkpt lat="44.84032" lon="5.7933">
        <ele>949.7</ele>
        <time>2021-04-22T12:19:41Z</time>
      </trkpt>
      <trkpt lat="44.84025" lon="5.79341">
        <ele>949.1</ele>
        <time>2021-04-22T12:19:42Z</time>
      </trkpt>
      <trkpt lat="44.84018" lon="5.79352">
        <ele>948.6</ele>
        <time>2021-04-22T12:19:43Z</time>
      </trkpt>
      <trkpt lat="44.8401" lon="5.79362">
        <ele>948</ele>
        <time>2021-04-22T12:19:44Z</time>
      </trkpt>
      <trkpt lat="44.84003" lon="5.79373">
        <ele>947.5</ele>
        <time>2021-04-22T12:19:45Z</time>
      </trkpt>
      <trkpt lat="44.83996" lon="5.79384">
        <ele>947</ele>
        <time>2021-04-22T12:19:46Z</time>
      </trkpt>
      <trkpt lat="44.83988" lon="5.79394">
        <ele>946.5</ele>
        <time>2021-04-22T12:19:47Z</time>
      </trkpt>
      <trkpt lat="44.83979" lon="5.79404">
        <ele>945.9</ele>
        <time>2021-04-22T12:19:48Z</time>
      </trkpt>
      <trkpt lat="44.83972" lon="5.79415">
        <ele>945.5</ele>
        <time>2021-04-22T12:19:49Z</time>
      </trkpt>
      <trkpt lat="44.83965" lon="5.79426">
        <ele>945</ele>
        <time>2021-04-22T12:19:50Z</time>
      </trkpt>
      <trkpt lat="44.83957" lon="5.79438">
        <ele>944.5</ele>
        <time>2021-04-22T12:19:51Z</time>
      </trkpt>
      <trkpt lat="44.8395" lon="5.79448">
        <ele>944</ele>
        <time>2021-04-22T12:19:52Z</time>
      </trkpt>
      <trkpt lat="44.83943" lon="5.79459">
        <ele>943.5</ele>
        <time>2021-04-22T12:19:53Z</time>
      </trkpt>
      <trkpt lat="44.83935" lon="5.79472">
        <ele>942.9</ele>
        <time>2021-04-22T12:19:54Z</time>
      </trkpt>
      <trkpt lat="44.83929" lon="5.79484">
        <ele>942.3</ele>
        <time>2021-04-22T12:19:55Z</time>
      </trkpt>
      <trkpt lat="44.83922" lon="5.79496">
        <ele>941.7</ele>
        <time>2021-04-22T12:19:56Z</time>
      </trkpt>
      <trkpt lat="44.83916" lon="5.79509">
        <ele>941.1</ele>
        <time>2021-04-22T12:19:57Z</time>
      </trkpt>
      <trkpt lat="44.8391" lon="5.79522">
        <ele>940.5</ele>
        <time>2021-04-22T12:19:58Z</time>
      </trkpt>
      <trkpt lat="44.83904" lon="5.79535">
        <ele>939.8</ele>
        <time>2021-04-22T12:19:59Z</time>
      </trkpt>
      <trkpt lat="44.83898" lon="5.79548">
        <ele>939.2</ele>
        <time>2021-04-22T12:20:00Z</time>
      </trkpt>
      <trkpt lat="44.83892" lon="5.79561">
        <ele>938.6</ele>
        <time>2021-04-22T12:20:01Z</time>
      </trkpt>
      <trkpt lat="44.83887" lon="5.79574">
        <ele>938</ele>
        <time>2021-04-22T12:20:02Z</time>
      </trkpt>
      <trkpt lat="44.83883" lon="5.79588">
        <ele>937.3</ele>
        <time>2021-04-22T12:20:03Z</time>
      </trkpt>
      <trkpt lat="44.83879" lon="5.79603">
        <ele>936.6</ele>
        <time>2021-04-22T12:20:04Z</time>
      </trkpt>
      <trkpt lat="44.83878" lon="5.7962">
        <ele>935.9</ele>
        <time>2021-04-22T12:20:05Z</time>
      </trkpt>
      <trkpt lat="44.83876" lon="5.79636">
        <ele>935.1</ele>
        <time>2021-04-22T12:20:06Z</time>
      </trkpt>
      <trkpt lat="44.83874" lon="5.79653">
        <ele>934.3</ele>
        <time>2021-04-22T12:20:07Z</time>
      </trkpt>
      <trkpt lat="44.83871" lon="5.79668">
        <ele>933.6</ele>
        <time>2021-04-22T12:20:08Z</time>
      </trkpt>
      <trkpt lat="44.83868" lon="5.79684">
        <ele>932.9</ele>
        <time>2021-04-22T12:20:09Z</time>
      </trkpt>
      <trkpt lat="44.83866" lon="5.797">
        <ele>932.2</ele>
        <time>2021-04-22T12:20:10Z</time>
      </trkpt>
      <trkpt lat="44.83864" lon="5.79716">
        <ele>931.5</ele>
        <time>2021-04-22T12:20:11Z</time>
      </trkpt>
      <trkpt lat="44.83863" lon="5.79732">
        <ele>930.9</ele>
        <time>2021-04-22T12:20:12Z</time>
      </trkpt>
      <trkpt lat="44.83862" lon="5.79748">
        <ele>930.3</ele>
        <time>2021-04-22T12:20:13Z</time>
      </trkpt>
      <trkpt lat="44.83861" lon="5.79765">
        <ele>929.6</ele>
        <time>2021-04-22T12:20:14Z</time>
      </trkpt>
      <trkpt lat="44.83861" lon="5.79781">
        <ele>929</ele>
        <time>2021-04-22T12:20:15Z</time>
      </trkpt>
      <trkpt lat="44.83863" lon="5.79796">
        <ele>928.3</ele>
        <time>2021-04-22T12:20:16Z</time>
      </trkpt>
      <trkpt lat="44.83866" lon="5.79811">
        <ele>927.6</ele>
        <time>2021-04-22T12:20:17Z</time>
      </trkpt>
      <trkpt lat="44.83872" lon="5.79824">
        <ele>926.8</ele>
        <time>2021-04-22T12:20:18Z</time>
      </trkpt>
      <trkpt lat="44.8388" lon="5.79836">
        <ele>926.1</ele>
        <time>2021-04-22T12:20:19Z</time>
      </trkpt>
      <trkpt lat="44.83889" lon="5.79846">
        <ele>925.3</ele>
        <time>2021-04-22T12:20:20Z</time>
      </trkpt>
      <trkpt lat="44.83897" lon="5.79857">
        <ele>924.6</ele>
        <time>2021-04-22T12:20:21Z</time>
      </trkpt>
      <trkpt lat="44.83905" lon="5.79869">
        <ele>923.9</ele>
        <time>2021-04-22T12:20:22Z</time>
      </trkpt>
      <trkpt lat="44.83912" lon="5.79882">
        <ele>923.3</ele>
        <time>2021-04-22T12:20:23Z</time>
      </trkpt>
      <trkpt lat="44.83919" lon="5.79894">
        <ele>922.7</ele>
        <time>2021-04-22T12:20:24Z</time>
      </trkpt>
      <trkpt lat="44.83925" lon="5.79908">
        <ele>922.1</ele>
        <time>2021-04-22T12:20:25Z</time>
      </trkpt>
      <trkpt lat="44.83927" lon="5.79923">
        <ele>921.5</ele>
        <time>2021-04-22T12:20:26Z</time>
      </trkpt>
      <trkpt lat="44.83928" lon="5.79939">
        <ele>920.8</ele>
        <time>2021-04-22T12:20:27Z</time>
      </trkpt>
      <trkpt lat="44.8393" lon="5.79955">
        <ele>920.3</ele>
        <time>2021-04-22T12:20:28Z</time>
      </trkpt>
      <trkpt lat="44.83935" lon="5.79968">
        <ele>919.8</ele>
        <time>2021-04-22T12:20:29Z</time>
      </trkpt>
      <trkpt lat="44.83942" lon="5.7998">
        <ele>919.5</ele>
        <time>2021-04-22T12:20:30Z</time>
      </trkpt>
      <trkpt lat="44.8395" lon="5.79989">
        <ele>919.2</ele>
        <time>2021-04-22T12:20:31Z</time>
      </trkpt>
      <trkpt lat="44.83959" lon="5.79997">
        <ele>918.9</ele>
        <time>2021-04-22T12:20:32Z</time>
      </trkpt>
      <trkpt lat="44.83967" lon="5.80006">
        <ele>918.6</ele>
        <time>2021-04-22T12:20:33Z</time>
      </trkpt>
      <trkpt lat="44.83976" lon="5.80013">
        <ele>918.3</ele>
        <time>2021-04-22T12:20:34Z</time>
      </trkpt>
      <trkpt lat="44.83985" lon="5.80021">
        <ele>918</ele>
        <time>2021-04-22T12:20:35Z</time>
      </trkpt>
      <trkpt lat="44.83994" lon="5.80028">
        <ele>917.7</ele>
        <time>2021-04-22T12:20:36Z</time>
      </trkpt>
      <trkpt lat="44.84001" lon="5.80036">
        <ele>917.4</ele>
        <time>2021-04-22T12:20:37Z</time>
      </trkpt>
      <trkpt lat="44.84009" lon="5.80044">
        <ele>917.2</ele>
        <time>2021-04-22T12:20:38Z</time>
      </trkpt>
      <trkpt lat="44.84017" lon="5.80053">
        <ele>916.9</ele>
        <time>2021-04-22T12:20:39Z</time>
      </trkpt>
      <trkpt lat="44.84025" lon="5.8006">
        <ele>916.6</ele>
        <time>2021-04-22T12:20:40Z</time>
      </trkpt>
      <trkpt lat="44.84033" lon="5.80068">
        <ele>916.2</ele>
        <time>2021-04-22T12:20:41Z</time>
      </trkpt>
      <trkpt lat="44.84041" lon="5.80076">
        <ele>915.9</ele>
        <time>2021-04-22T12:20:42Z</time>
      </trkpt>
      <trkpt lat="44.84049" lon="5.80083">
        <ele>915.7</ele>
        <time>2021-04-22T12:20:43Z</time>
      </trkpt>
      <trkpt lat="44.84057" lon="5.80091">
        <ele>915.4</ele>
        <time>2021-04-22T12:20:44Z</time>
      </trkpt>
      <trkpt lat="44.84064" lon="5.80099">
        <ele>915.1</ele>
        <time>2021-04-22T12:20:45Z</time>
      </trkpt>
      <trkpt lat="44.84072" lon="5.80107">
        <ele>914.8</ele>
        <time>2021-04-22T12:20:46Z</time>
      </trkpt>
      <trkpt lat="44.8408" lon="5.80114">
        <ele>914.6</ele>
        <time>2021-04-22T12:20:47Z</time>
      </trkpt>
      <trkpt lat="44.84087" lon="5.80121">
        <ele>914.3</ele>
        <time>2021-04-22T12:20:48Z</time>
      </trkpt>
      <trkpt lat="44.84095" lon="5.80128">
        <ele>914.1</ele>
        <time>2021-04-22T12:20:49Z</time>
      </trkpt>
      <trkpt lat="44.84102" lon="5.80136">
        <ele>913.9</ele>
        <time>2021-04-22T12:20:50Z</time>
      </trkpt>
      <trkpt lat="44.8411" lon="5.80143">
        <ele>913.7</ele>
        <time>2021-04-22T12:20:51Z</time>
      </trkpt>
      <trkpt lat="44.84117" lon="5.80151">
        <ele>913.6</ele>
        <time>2021-04-22T12:20:52Z</time>
      </trkpt>
      <trkpt lat="44.84124" lon="5.80158">
        <ele>913.4</ele>
        <time>2021-04-22T12:20:53Z</time>
      </trkpt>
      <trkpt lat="44.84131" lon="5.80165">
        <ele>913.2</ele>
        <time>2021-04-22T12:20:54Z</time>
      </trkpt>
      <trkpt lat="44.84138" lon="5.80172">
        <ele>913</ele>
        <time>2021-04-22T12:20:55Z</time>
      </trkpt>
      <trkpt lat="44.84145" lon="5.80179">
        <ele>912.8</ele>
        <time>2021-04-22T12:20:56Z</time>
      </trkpt>
      <trkpt lat="44.84153" lon="5.80186">
        <ele>912.6</ele>
        <time>2021-04-22T12:20:57Z</time>
      </trkpt>
      <trkpt lat="44.8416" lon="5.80193">
        <ele>912.4</ele>
        <time>2021-04-22T12:20:58Z</time>
      </trkpt>
      <trkpt lat="44.84166" lon="5.80201">
        <ele>912.2</ele>
        <time>2021-04-22T12:20:59Z</time>
      </trkpt>
      <trkpt lat="44.84173" lon="5.80208">
        <ele>912</ele>
        <time>2021-04-22T12:21:00Z</time>
      </trkpt>
      <trkpt lat="44.8418" lon="5.80215">
        <ele>911.8</ele>
        <time>2021-04-22T12:21:01Z</time>
      </trkpt>
      <trkpt lat="44.84187" lon="5.80222">
        <ele>911.6</ele>
        <time>2021-04-22T12:21:02Z</time>
      </trkpt>
      <trkpt lat="44.84195" lon="5.80228">
        <ele>911.3</ele>
        <time>2021-04-22T12:21:03Z</time>
      </trkpt>
      <trkpt lat="44.84202" lon="5.80232">
        <ele>910.7</ele>
        <time>2021-04-22T12:21:04Z</time>
      </trkpt>
      <trkpt lat="44.8421" lon="5.80235">
        <ele>909.9</ele>
        <time>2021-04-22T12:21:05Z</time>
      </trkpt>
      <trkpt lat="44.84219" lon="5.8024">
        <ele>908.9</ele>
        <time>2021-04-22T12:21:06Z</time>
      </trkpt>
      <trkpt lat="44.84228" lon="5.80244">
        <ele>908</ele>
        <time>2021-04-22T12:21:07Z</time>
      </trkpt>
      <trkpt lat="44.84238" lon="5.80248">
        <ele>907.2</ele>
        <time>2021-04-22T12:21:08Z</time>
      </trkpt>
      <trkpt lat="44.84247" lon="5.80253">
        <ele>906.4</ele>
        <time>2021-04-22T12:21:09Z</time>
      </trkpt>
      <trkpt lat="44.84257" lon="5.80259">
        <ele>905.8</ele>
        <time>2021-04-22T12:21:10Z</time>
      </trkpt>
      <trkpt lat="44.84266" lon="5.80265">
        <ele>905.2</ele>
        <time>2021-04-22T12:21:11Z</time>
      </trkpt>
      <trkpt lat="44.84275" lon="5.80271">
        <ele>904.6</ele>
        <time>2021-04-22T12:21:12Z</time>
      </trkpt>
      <trkpt lat="44.84284" lon="5.80278">
        <ele>904.1</ele>
        <time>2021-04-22T12:21:13Z</time>
      </trkpt>
      <trkpt lat="44.84293" lon="5.80287">
        <ele>903.6</ele>
        <time>2021-04-22T12:21:14Z</time>
      </trkpt>
      <trkpt lat="44.84301" lon="5.80295">
        <ele>903</ele>
        <time>2021-04-22T12:21:15Z</time>
      </trkpt>
      <trkpt lat="44.8431" lon="5.80304">
        <ele>902.2</ele>
        <time>2021-04-22T12:21:16Z</time>
      </trkpt>
      <trkpt lat="44.8432" lon="5.80311">
        <ele>901.4</ele>
        <time>2021-04-22T12:21:17Z</time>
      </trkpt>
      <trkpt lat="44.8433" lon="5.80316">
        <ele>900.4</ele>
        <time>2021-04-22T12:21:18Z</time>
      </trkpt>
      <trkpt lat="44.84341" lon="5.80319">
        <ele>899.5</ele>
        <time>2021-04-22T12:21:19Z</time>
      </trkpt>
      <trkpt lat="44.84351" lon="5.80322">
        <ele>898.5</ele>
        <time>2021-04-22T12:21:20Z</time>
      </trkpt>
      <trkpt lat="44.84362" lon="5.80326">
        <ele>897.3</ele>
        <time>2021-04-22T12:21:21Z</time>
      </trkpt>
      <trkpt lat="44.84374" lon="5.80331">
        <ele>896.1</ele>
        <time>2021-04-22T12:21:22Z</time>
      </trkpt>
      <trkpt lat="44.84386" lon="5.80335">
        <ele>894.8</ele>
        <time>2021-04-22T12:21:23Z</time>
      </trkpt>
      <trkpt lat="44.84398" lon="5.80339">
        <ele>893.6</ele>
        <time>2021-04-22T12:21:24Z</time>
      </trkpt>
      <trkpt lat="44.8441" lon="5.8034">
        <ele>892.4</ele>
        <time>2021-04-22T12:21:25Z</time>
      </trkpt>
      <trkpt lat="44.84422" lon="5.80342">
        <ele>891.2</ele>
        <time>2021-04-22T12:21:26Z</time>
      </trkpt>
      <trkpt lat="44.84434" lon="5.80344">
        <ele>890</ele>
        <time>2021-04-22T12:21:27Z</time>
      </trkpt>
      <trkpt lat="44.84447" lon="5.80346">
        <ele>888.9</ele>
        <time>2021-04-22T12:21:28Z</time>
      </trkpt>
      <trkpt lat="44.84459" lon="5.8035">
        <ele>887.9</ele>
        <time>2021-04-22T12:21:29Z</time>
      </trkpt>
      <trkpt lat="44.84471" lon="5.80354">
        <ele>887</ele>
        <time>2021-04-22T12:21:30Z</time>
      </trkpt>
      <trkpt lat="44.84483" lon="5.80355">
        <ele>886</ele>
        <time>2021-04-22T12:21:31Z</time>
      </trkpt>
      <trkpt lat="44.84495" lon="5.80354">
        <ele>885</ele>
        <time>2021-04-22T12:21:32Z</time>
      </trkpt>
      <trkpt lat="44.84508" lon="5.80354">
        <ele>884</ele>
        <time>2021-04-22T12:21:33Z</time>
      </trkpt>
      <trkpt lat="44.8452" lon="5.80354">
        <ele>883.1</ele>
        <time>2021-04-22T12:21:34Z</time>
      </trkpt>
      <trkpt lat="44.84532" lon="5.80353">
        <ele>882.3</ele>
        <time>2021-04-22T12:21:35Z</time>
      </trkpt>
      <trkpt lat="44.84544" lon="5.80352">
        <ele>881.5</ele>
        <time>2021-04-22T12:21:36Z</time>
      </trkpt>
      <trkpt lat="44.84554" lon="5.80352">
        <ele>880.8</ele>
        <time>2021-04-22T12:21:37Z</time>
      </trkpt>
      <trkpt lat="44.84564" lon="5.80352">
        <ele>880.1</ele>
        <time>2021-04-22T12:21:38Z</time>
      </trkpt>
      <trkpt lat="44.84575" lon="5.80353">
        <ele>879.4</ele>
        <time>2021-04-22T12:21:39Z</time>
      </trkpt>
      <trkpt lat="44.84585" lon="5.80355">
        <ele>878.7</ele>
        <time>2021-04-22T12:21:40Z</time>
      </trkpt>
      <trkpt lat="44.84594" lon="5.80357">
        <ele>878</ele>
        <time>2021-04-22T12:21:41Z</time>
      </trkpt>
      <trkpt lat="44.84601" lon="5.80357">
        <ele>877.5</ele>
        <time>2021-04-22T12:21:42Z</time>
      </trkpt>
      <trkpt lat="44.84608" lon="5.80353">
        <ele>876.9</ele>
        <time>2021-04-22T12:21:43Z</time>
      </trkpt>
      <trkpt lat="44.84613" lon="5.80344">
        <ele>875.8</ele>
        <time>2021-04-22T12:21:44Z</time>
      </trkpt>
      <trkpt lat="44.84614" lon="5.80333">
        <ele>875.5</ele>
        <time>2021-04-22T12:21:45Z</time>
      </trkpt>
      <trkpt lat="44.84613" lon="5.80321">
        <ele>875.2</ele>
        <time>2021-04-22T12:21:46Z</time>
      </trkpt>
      <trkpt lat="44.84613" lon="5.8031">
        <ele>874.9</ele>
        <time>2021-04-22T12:21:47Z</time>
      </trkpt>
      <trkpt lat="44.84612" lon="5.80299">
        <ele>874.6</ele>
        <time>2021-04-22T12:21:48Z</time>
      </trkpt>
      <trkpt lat="44.84612" lon="5.80287">
        <ele>874.4</ele>
        <time>2021-04-22T12:21:49Z</time>
      </trkpt>
      <trkpt lat="44.84611" lon="5.80275">
        <ele>874.1</ele>
        <time>2021-04-22T12:21:50Z</time>
      </trkpt>
      <trkpt lat="44.84611" lon="5.80263">
        <ele>873.9</ele>
        <time>2021-04-22T12:21:51Z</time>
      </trkpt>
      <trkpt lat="44.84611" lon="5.80252">
        <ele>873.7</ele>
        <time>2021-04-22T12:21:52Z</time>
      </trkpt>
      <trkpt lat="44.84612" lon="5.8024">
        <ele>873.5</ele>
        <time>2021-04-22T12:21:53Z</time>
      </trkpt>
      <trkpt lat="44.84614" lon="5.80229">
        <ele>873.3</ele>
        <time>2021-04-22T12:21:54Z</time>
      </trkpt>
      <trkpt lat="44.84616" lon="5.80218">
        <ele>873.2</ele>
        <time>2021-04-22T12:21:55Z</time>
      </trkpt>
      <trkpt lat="44.84618" lon="5.80208">
        <ele>873</ele>
        <time>2021-04-22T12:21:56Z</time>
      </trkpt>
      <trkpt lat="44.84621" lon="5.80198">
        <ele>872.8</ele>
        <time>2021-04-22T12:21:57Z</time>
      </trkpt>
      <trkpt lat="44.84624" lon="5.80188">
        <ele>872.7</ele>
        <time>2021-04-22T12:21:58Z</time>
      </trkpt>
      <trkpt lat="44.84627" lon="5.80178">
        <ele>872.6</ele>
        <time>2021-04-22T12:21:59Z</time>
      </trkpt>
      <trkpt lat="44.8463" lon="5.80168">
        <ele>872.5</ele>
        <time>2021-04-22T12:22:00Z</time>
      </trkpt>
      <trkpt lat="44.84633" lon="5.80159">
        <ele>872.3</ele>
        <time>2021-04-22T12:22:01Z</time>
      </trkpt>
      <trkpt lat="44.84636" lon="5.8015">
        <ele>872.2</ele>
        <time>2021-04-22T12:22:02Z</time>
      </trkpt>
      <trkpt lat="44.8464" lon="5.80141">
        <ele>872.1</ele>
        <time>2021-04-22T12:22:03Z</time>
      </trkpt>
      <trkpt lat="44.84644" lon="5.80133">
        <ele>872</ele>
        <time>2021-04-22T12:22:04Z</time>
      </trkpt>
      <trkpt lat="44.84647" lon="5.80125">
        <ele>871.9</ele>
        <time>2021-04-22T12:22:05Z</time>
      </trkpt>
      <trkpt lat="44.84651" lon="5.80116">
        <ele>871.8</ele>
        <time>2021-04-22T12:22:06Z</time>
      </trkpt>
      <trkpt lat="44.84654" lon="5.80108">
        <ele>871.7</ele>
        <time>2021-04-22T12:22:07Z</time>
      </trkpt>
      <trkpt lat="44.84658" lon="5.80099">
        <ele>871.6</ele>
        <time>2021-04-22T12:22:08Z</time>
      </trkpt>
      <trkpt lat="44.84662" lon="5.8009">
        <ele>871.5</ele>
        <time>2021-04-22T12:22:09Z</time>
      </trkpt>
      <trkpt lat="44.84665" lon="5.80081">
        <ele>871.4</ele>
        <time>2021-04-22T12:22:10Z</time>
      </trkpt>
      <trkpt lat="44.84668" lon="5.80072">
        <ele>871.3</ele>
        <time>2021-04-22T12:22:11Z</time>
      </trkpt>
      <trkpt lat="44.8467" lon="5.80062">
        <ele>871.1</ele>
        <time>2021-04-22T12:22:12Z</time>
      </trkpt>
      <trkpt lat="44.84673" lon="5.80053">
        <ele>871</ele>
        <time>2021-04-22T12:22:13Z</time>
      </trkpt>
      <trkpt lat="44.84676" lon="5.80043">
        <ele>870.9</ele>
        <time>2021-04-22T12:22:14Z</time>
      </trkpt>
      <trkpt lat="44.84679" lon="5.80034">
        <ele>870.7</ele>
        <time>2021-04-22T12:22:15Z</time>
      </trkpt>
      <trkpt lat="44.84683" lon="5.80025">
        <ele>870.6</ele>
        <time>2021-04-22T12:22:16Z</time>
      </trkpt>
      <trkpt lat="44.84687" lon="5.80016">
        <ele>870.5</ele>
        <time>2021-04-22T12:22:17Z</time>
      </trkpt>
      <trkpt lat="44.84691" lon="5.80007">
        <ele>870.3</ele>
        <time>2021-04-22T12:22:18Z</time>
      </trkpt>
      <trkpt lat="44.84695" lon="5.79999">
        <ele>870.2</ele>
        <time>2021-04-22T12:22:19Z</time>
      </trkpt>
      <trkpt lat="44.84699" lon="5.79991">
        <ele>870.1</ele>
        <time>2021-04-22T12:22:20Z</time>
      </trkpt>
      <trkpt lat="44.84704" lon="5.79983">
        <ele>870</ele>
        <time>2021-04-22T12:22:21Z</time>
      </trkpt>
      <trkpt lat="44.84708" lon="5.79976">
        <ele>869.9</ele>
        <time>2021-04-22T12:22:22Z</time>
      </trkpt>
      <trkpt lat="44.84713" lon="5.79968">
        <ele>869.8</ele>
        <time>2021-04-22T12:22:23Z</time>
      </trkpt>
      <trkpt lat="44.84717" lon="5.7996">
        <ele>869.7</ele>
        <time>2021-04-22T12:22:24Z</time>
      </trkpt>
      <trkpt lat="44.84721" lon="5.79953">
        <ele>869.7</ele>
        <time>2021-04-22T12:22:25Z</time>
      </trkpt>
      <trkpt lat="44.84726" lon="5.79947">
        <ele>869.6</ele>
        <time>2021-04-22T12:22:26Z</time>
      </trkpt>
      <trkpt lat="44.84731" lon="5.79942">
        <ele>869.5</ele>
        <time>2021-04-22T12:22:27Z</time>
      </trkpt>
      <trkpt lat="44.84738" lon="5.79942">
        <ele>869.3</ele>
        <time>2021-04-22T12:22:28Z</time>
      </trkpt>
      <trkpt lat="44.84744" lon="5.79944">
        <ele>869.2</ele>
        <time>2021-04-22T12:22:29Z</time>
      </trkpt>
      <trkpt lat="44.8475" lon="5.79948">
        <ele>869</ele>
        <time>2021-04-22T12:22:30Z</time>
      </trkpt>
      <trkpt lat="44.84755" lon="5.79952">
        <ele>868.9</ele>
        <time>2021-04-22T12:22:31Z</time>
      </trkpt>
      <trkpt lat="44.84761" lon="5.79955">
        <ele>868.8</ele>
        <time>2021-04-22T12:22:32Z</time>
      </trkpt>
      <trkpt lat="44.84768" lon="5.79956">
        <ele>868.6</ele>
        <time>2021-04-22T12:22:33Z</time>
      </trkpt>
      <trkpt lat="44.84775" lon="5.79955">
        <ele>868.5</ele>
        <time>2021-04-22T12:22:34Z</time>
      </trkpt>
      <trkpt lat="44.84783" lon="5.79952">
        <ele>868.3</ele>
        <time>2021-04-22T12:22:35Z</time>
      </trkpt>
      <trkpt lat="44.8479" lon="5.79948">
        <ele>868.1</ele>
        <time>2021-04-22T12:22:36Z</time>
      </trkpt>
      <trkpt lat="44.84796" lon="5.79942">
        <ele>867.9</ele>
        <time>2021-04-22T12:22:37Z</time>
      </trkpt>
      <trkpt lat="44.84801" lon="5.79934">
        <ele>867.8</ele>
        <time>2021-04-22T12:22:38Z</time>
      </trkpt>
      <trkpt lat="44.84805" lon="5.79926">
        <ele>867.6</ele>
        <time>2021-04-22T12:22:39Z</time>
      </trkpt>
      <trkpt lat="44.84808" lon="5.79918">
        <ele>867.5</ele>
        <time>2021-04-22T12:22:40Z</time>
      </trkpt>
      <trkpt lat="44.84811" lon="5.79908">
        <ele>867.3</ele>
        <time>2021-04-22T12:22:41Z</time>
      </trkpt>
      <trkpt lat="44.84812" lon="5.79899">
        <ele>867.2</ele>
        <time>2021-04-22T12:22:42Z</time>
      </trkpt>
      <trkpt lat="44.84812" lon="5.79889">
        <ele>867.1</ele>
        <time>2021-04-22T12:22:43Z</time>
      </trkpt>
      <trkpt lat="44.84811" lon="5.79879">
        <ele>867.1</ele>
        <time>2021-04-22T12:22:44Z</time>
      </trkpt>
      <trkpt lat="44.84809" lon="5.79871">
        <ele>867.2</ele>
        <time>2021-04-22T12:22:45Z</time>
      </trkpt>
      <trkpt lat="44.84807" lon="5.79865">
        <ele>867.2</ele>
        <time>2021-04-22T12:22:46Z</time>
      </trkpt>
      <trkpt lat="44.84804" lon="5.79858">
        <ele>867.2</ele>
        <time>2021-04-22T12:22:47Z</time>
      </trkpt>
      <trkpt lat="44.84802" lon="5.79852">
        <ele>867.1</ele>
        <time>2021-04-22T12:22:48Z</time>
      </trkpt>
      <trkpt lat="44.84801" lon="5.79845">
        <ele>867.1</ele>
        <time>2021-04-22T12:22:49Z</time>
      </trkpt>
      <trkpt lat="44.848" lon="5.79838">
        <ele>867</ele>
        <time>2021-04-22T12:22:50Z</time>
      </trkpt>
      <trkpt lat="44.848" lon="5.79831">
        <ele>867</ele>
        <time>2021-04-22T12:22:51Z</time>
      </trkpt>
      <trkpt lat="44.84799" lon="5.79823">
        <ele>866.9</ele>
        <time>2021-04-22T12:22:52Z</time>
      </trkpt>
      <trkpt lat="44.848" lon="5.79816">
        <ele>866.8</ele>
        <time>2021-04-22T12:22:53Z</time>
      </trkpt>
      <trkpt lat="44.84801" lon="5.79809">
        <ele>866.8</ele>
        <time>2021-04-22T12:22:54Z</time>
      </trkpt>
      <trkpt lat="44.84802" lon="5.79802">
        <ele>866.7</ele>
        <time>2021-04-22T12:22:55Z</time>
      </trkpt>
      <trkpt lat="44.84803" lon="5.79794">
        <ele>866.6</ele>
        <time>2021-04-22T12:22:56Z</time>
      </trkpt>
      <trkpt lat="44.84804" lon="5.79786">
        <ele>866.4</ele>
        <time>2021-04-22T12:22:57Z</time>
      </trkpt>
      <trkpt lat="44.84805" lon="5.79778">
        <ele>866.3</ele>
        <time>2021-04-22T12:22:58Z</time>
      </trkpt>
      <trkpt lat="44.84805" lon="5.7977">
        <ele>866.2</ele>
        <time>2021-04-22T12:22:59Z</time>
      </trkpt>
      <trkpt lat="44.84806" lon="5.79761">
        <ele>866.1</ele>
        <time>2021-04-22T12:23:00Z</time>
      </trkpt>
      <trkpt lat="44.84807" lon="5.79753">
        <ele>866</ele>
        <time>2021-04-22T12:23:01Z</time>
      </trkpt>
      <trkpt lat="44.84809" lon="5.79745">
        <ele>866</ele>
        <time>2021-04-22T12:23:02Z</time>
      </trkpt>
      <trkpt lat="44.84812" lon="5.79737">
        <ele>865.9</ele>
        <time>2021-04-22T12:23:03Z</time>
      </trkpt>
      <trkpt lat="44.84814" lon="5.79729">
        <ele>865.9</ele>
        <time>2021-04-22T12:23:04Z</time>
      </trkpt>
      <trkpt lat="44.84816" lon="5.79721">
        <ele>865.8</ele>
        <time>2021-04-22T12:23:05Z</time>
      </trkpt>
      <trkpt lat="44.84818" lon="5.79713">
        <ele>865.8</ele>
        <time>2021-04-22T12:23:06Z</time>
      </trkpt>
      <trkpt lat="44.84819" lon="5.79706">
        <ele>865.8</ele>
        <time>2021-04-22T12:23:07Z</time>
      </trkpt>
      <trkpt lat="44.84821" lon="5.79698">
        <ele>865.8</ele>
        <time>2021-04-22T12:23:08Z</time>
      </trkpt>
      <trkpt lat="44.84822" lon="5.79691">
        <ele>865.7</ele>
        <time>2021-04-22T12:23:09Z</time>
      </trkpt>
      <trkpt lat="44.84825" lon="5.79683">
        <ele>865.7</ele>
        <time>2021-04-22T12:23:10Z</time>
      </trkpt>
      <trkpt lat="44.84827" lon="5.79676">
        <ele>865.6</ele>
        <time>2021-04-22T12:23:11Z</time>
      </trkpt>
      <trkpt lat="44.84831" lon="5.7967">
        <ele>865.6</ele>
        <time>2021-04-22T12:23:12Z</time>
      </trkpt>
      <trkpt lat="44.84835" lon="5.79664">
        <ele>865.5</ele>
        <time>2021-04-22T12:23:13Z</time>
      </trkpt>
      <trkpt lat="44.8484" lon="5.7966">
        <ele>865.4</ele>
        <time>2021-04-22T12:23:14Z</time>
      </trkpt>
      <trkpt lat="44.84844" lon="5.79656">
        <ele>865.3</ele>
        <time>2021-04-22T12:23:15Z</time>
      </trkpt>
      <trkpt lat="44.84849" lon="5.79653">
        <ele>865.2</ele>
        <time>2021-04-22T12:23:16Z</time>
      </trkpt>
      <trkpt lat="44.84855" lon="5.79651">
        <ele>865.1</ele>
        <time>2021-04-22T12:23:17Z</time>
      </trkpt>
      <trkpt lat="44.84861" lon="5.7965">
        <ele>865</ele>
        <time>2021-04-22T12:23:18Z</time>
      </trkpt>
      <trkpt lat="44.84867" lon="5.79648">
        <ele>864.8</ele>
        <time>2021-04-22T12:23:19Z</time>
      </trkpt>
      <trkpt lat="44.84873" lon="5.79646">
        <ele>864.7</ele>
        <time>2021-04-22T12:23:20Z</time>
      </trkpt>
      <trkpt lat="44.8488" lon="5.79644">
        <ele>864.6</ele>
        <time>2021-04-22T12:23:21Z</time>
      </trkpt>
      <trkpt lat="44.84886" lon="5.79642">
        <ele>864.6</ele>
        <time>2021-04-22T12:23:22Z</time>
      </trkpt>
      <trkpt lat="44.84893" lon="5.79639">
        <ele>864.5</ele>
        <time>2021-04-22T12:23:23Z</time>
      </trkpt>
      <trkpt lat="44.84899" lon="5.79637">
        <ele>864.4</ele>
        <time>2021-04-22T12:23:24Z</time>
      </trkpt>
      <trkpt lat="44.84905" lon="5.79634">
        <ele>864.3</ele>
        <time>2021-04-22T12:23:25Z</time>
      </trkpt>
      <trkpt lat="44.84911" lon="5.79631">
        <ele>864.3</ele>
        <time>2021-04-22T12:23:26Z</time>
      </trkpt>
      <trkpt lat="44.84917" lon="5.79628">
        <ele>864.2</ele>
        <time>2021-04-22T12:23:27Z</time>
      </trkpt>
      <trkpt lat="44.84923" lon="5.79624">
        <ele>864.2</ele>
        <time>2021-04-22T12:23:28Z</time>
      </trkpt>
      <trkpt lat="44.84928" lon="5.7962">
        <ele>864.1</ele>
        <time>2021-04-22T12:23:29Z</time>
      </trkpt>
      <trkpt lat="44.84934" lon="5.79616">
        <ele>864.1</ele>
        <time>2021-04-22T12:23:30Z</time>
      </trkpt>
      <trkpt lat="44.8494" lon="5.79613">
        <ele>864.1</ele>
        <time>2021-04-22T12:23:31Z</time>
      </trkpt>
      <trkpt lat="44.84945" lon="5.79609">
        <ele>864</ele>
        <time>2021-04-22T12:23:32Z</time>
      </trkpt>
      <trkpt lat="44.84951" lon="5.79605">
        <ele>864</ele>
        <time>2021-04-22T12:23:33Z</time>
      </trkpt>
      <trkpt lat="44.84956" lon="5.796">
        <ele>864</ele>
        <time>2021-04-22T12:23:34Z</time>
      </trkpt>
      <trkpt lat="44.84961" lon="5.79596">
        <ele>863.9</ele>
        <time>2021-04-22T12:23:35Z</time>
      </trkpt>
      <trkpt lat="44.84966" lon="5.7959">
        <ele>864</ele>
        <time>2021-04-22T12:23:36Z</time>
      </trkpt>
      <trkpt lat="44.8497" lon="5.79584">
        <ele>864.1</ele>
        <time>2021-04-22T12:23:37Z</time>
      </trkpt>
      <trkpt lat="44.84973" lon="5.79577">
        <ele>864.2</ele>
        <time>2021-04-22T12:23:38Z</time>
      </trkpt>
      <trkpt lat="44.84976" lon="5.7957">
        <ele>864.3</ele>
        <time>2021-04-22T12:23:39Z</time>
      </trkpt>
      <trkpt lat="44.84978" lon="5.79564">
        <ele>864.5</ele>
        <time>2021-04-22T12:23:40Z</time>
      </trkpt>
      <trkpt lat="44.84981" lon="5.79558">
        <ele>864.6</ele>
        <time>2021-04-22T12:23:41Z</time>
      </trkpt>
      <trkpt lat="44.84983" lon="5.79553">
        <ele>864.8</ele>
        <time>2021-04-22T12:23:42Z</time>
      </trkpt>
      <trkpt lat="44.84984" lon="5.79547">
        <ele>864.9</ele>
        <time>2021-04-22T12:23:43Z</time>
      </trkpt>
      <trkpt lat="44.84986" lon="5.79541">
        <ele>865.1</ele>
        <time>2021-04-22T12:23:44Z</time>
      </trkpt>
      <trkpt lat="44.84988" lon="5.79535">
        <ele>865.3</ele>
        <time>2021-04-22T12:23:45Z</time>
      </trkpt>
      <trkpt lat="44.84988" lon="5.79533">
        <ele>865.4</ele>
        <time>2021-04-22T12:23:46Z</time>
      </trkpt>
      <trkpt lat="44.84989" lon="5.79528">
        <ele>865.5</ele>
        <time>2021-04-22T12:23:47Z</time>
      </trkpt>
      <trkpt lat="44.8499" lon="5.79523">
        <ele>865.7</ele>
        <time>2021-04-22T12:23:48Z</time>
      </trkpt>
      <trkpt lat="44.84991" lon="5.79519">
        <ele>865.8</ele>
        <time>2021-04-22T12:23:49Z</time>
      </trkpt>
      <trkpt lat="44.84993" lon="5.79514">
        <ele>866</ele>
        <time>2021-04-22T12:23:50Z</time>
      </trkpt>
      <trkpt lat="44.84994" lon="5.7951">
        <ele>866.2</ele>
        <time>2021-04-22T12:23:51Z</time>
      </trkpt>
      <trkpt lat="44.84995" lon="5.79503">
        <ele>866.4</ele>
        <time>2021-04-22T12:23:52Z</time>
      </trkpt>
      <trkpt lat="44.84998" lon="5.79494">
        <ele>866.9</ele>
        <time>2021-04-22T12:23:54Z</time>
      </trkpt>
      <trkpt lat="44.85002" lon="5.79487">
        <ele>867.3</ele>
        <time>2021-04-22T12:23:56Z</time>
      </trkpt>
      <trkpt lat="44.85004" lon="5.79483">
        <ele>867.5</ele>
        <time>2021-04-22T12:23:57Z</time>
      </trkpt>
      <trkpt lat="44.85006" lon="5.79479">
        <ele>867.7</ele>
        <time>2021-04-22T12:23:59Z</time>
      </trkpt>
      <trkpt lat="44.85008" lon="5.79476">
        <ele>868</ele>
        <time>2021-04-22T12:24:00Z</time>
      </trkpt>
      <trkpt lat="44.85013" lon="5.79471">
        <ele>868.4</ele>
        <time>2021-04-22T12:24:02Z</time>
      </trkpt>
      <trkpt lat="44.85016" lon="5.79468">
        <ele>868.7</ele>
        <time>2021-04-22T12:24:03Z</time>
      </trkpt>
      <trkpt lat="44.85019" lon="5.79466">
        <ele>868.9</ele>
        <time>2021-04-22T12:24:05Z</time>
      </trkpt>
      <trkpt lat="44.8502" lon="5.79466">
        <ele>869</ele>
        <time>2021-04-22T12:24:06Z</time>
      </trkpt>
      <trkpt lat="44.85022" lon="5.79465">
        <ele>869.2</ele>
        <time>2021-04-22T12:24:07Z</time>
      </trkpt>
      <trkpt lat="44.85025" lon="5.79463">
        <ele>869.5</ele>
        <time>2021-04-22T12:24:09Z</time>
      </trkpt>
      <trkpt lat="44.8503" lon="5.7946">
        <ele>870</ele>
        <time>2021-04-22T12:24:11Z</time>
      </trkpt>
      <trkpt lat="44.85034" lon="5.79459">
        <ele>870.3</ele>
        <time>2021-04-22T12:24:12Z</time>
      </trkpt>
      <trkpt lat="44.85037" lon="5.79457">
        <ele>870.6</ele>
        <time>2021-04-22T12:24:14Z</time>
      </trkpt>
      <trkpt lat="44.85041" lon="5.79456">
        <ele>870.9</ele>
        <time>2021-04-22T12:24:15Z</time>
      </trkpt>
      <trkpt lat="44.85044" lon="5.79455">
        <ele>871.2</ele>
        <time>2021-04-22T12:24:16Z</time>
      </trkpt>
      <trkpt lat="44.85047" lon="5.79453">
        <ele>871.5</ele>
        <time>2021-04-22T12:24:18Z</time>
      </trkpt>
      <trkpt lat="44.85052" lon="5.79452">
        <ele>871.9</ele>
        <time>2021-04-22T12:24:20Z</time>
      </trkpt>
      <trkpt lat="44.85055" lon="5.79451">
        <ele>872.2</ele>
        <time>2021-04-22T12:24:21Z</time>
      </trkpt>
      <trkpt lat="44.8506" lon="5.79449">
        <ele>872.6</ele>
        <time>2021-04-22T12:24:23Z</time>
      </trkpt>
      <trkpt lat="44.85065" lon="5.79447">
        <ele>873</ele>
        <time>2021-04-22T12:24:25Z</time>
      </trkpt>
      <trkpt lat="44.85067" lon="5.79446">
        <ele>873.2</ele>
        <time>2021-04-22T12:24:26Z</time>
      </trkpt>
      <trkpt lat="44.85071" lon="5.79444">
        <ele>873.5</ele>
        <time>2021-04-22T12:24:28Z</time>
      </trkpt>
      <trkpt lat="44.85074" lon="5.79442">
        <ele>873.7</ele>
        <time>2021-04-22T12:24:30Z</time>
      </trkpt>
      <trkpt lat="44.85077" lon="5.79439">
        <ele>874</ele>
        <time>2021-04-22T12:24:31Z</time>
      </trkpt>
      <trkpt lat="44.85081" lon="5.79436">
        <ele>874.3</ele>
        <time>2021-04-22T12:24:33Z</time>
      </trkpt>
      <trkpt lat="44.85082" lon="5.79436">
        <ele>874.4</ele>
        <time>2021-04-22T12:24:34Z</time>
      </trkpt>
      <trkpt lat="44.85085" lon="5.79431">
        <ele>874.6</ele>
        <time>2021-04-22T12:24:36Z</time>
      </trkpt>
      <trkpt lat="44.85088" lon="5.79428">
        <ele>874.9</ele>
        <time>2021-04-22T12:24:37Z</time>
      </trkpt>
      <trkpt lat="44.85089" lon="5.79427">
        <ele>875</ele>
        <time>2021-04-22T12:24:38Z</time>
      </trkpt>
      <trkpt lat="44.85092" lon="5.79423">
        <ele>875.3</ele>
        <time>2021-04-22T12:24:40Z</time>
      </trkpt>
      <trkpt lat="44.85096" lon="5.7942">
        <ele>875.5</ele>
        <time>2021-04-22T12:24:42Z</time>
      </trkpt>
      <trkpt lat="44.851" lon="5.79416">
        <ele>875.9</ele>
        <time>2021-04-22T12:24:44Z</time>
      </trkpt>
      <trkpt lat="44.85103" lon="5.79412">
        <ele>876.2</ele>
        <time>2021-04-22T12:24:46Z</time>
      </trkpt>
      <trkpt lat="44.85107" lon="5.79408">
        <ele>876.5</ele>
        <time>2021-04-22T12:24:47Z</time>
      </trkpt>
      <trkpt lat="44.85108" lon="5.79406">
        <ele>876.6</ele>
        <time>2021-04-22T12:24:48Z</time>
      </trkpt>
      <trkpt lat="44.8511" lon="5.79404">
        <ele>876.8</ele>
        <time>2021-04-22T12:24:49Z</time>
      </trkpt>
      <trkpt lat="44.85111" lon="5.79402">
        <ele>877</ele>
        <time>2021-04-22T12:24:51Z</time>
      </trkpt>
      <trkpt lat="44.85114" lon="5.79398">
        <ele>877.3</ele>
        <time>2021-04-22T12:24:53Z</time>
      </trkpt>
      <trkpt lat="44.85117" lon="5.79396">
        <ele>877.5</ele>
        <time>2021-04-22T12:24:54Z</time>
      </trkpt>
      <trkpt lat="44.8512" lon="5.79393">
        <ele>877.8</ele>
        <time>2021-04-22T12:24:56Z</time>
      </trkpt>
      <trkpt lat="44.85124" lon="5.79389">
        <ele>878.2</ele>
        <time>2021-04-22T12:24:58Z</time>
      </trkpt>
      <trkpt lat="44.85126" lon="5.79388">
        <ele>878.3</ele>
        <time>2021-04-22T12:24:59Z</time>
      </trkpt>
      <trkpt lat="44.85127" lon="5.79387">
        <ele>878.4</ele>
        <time>2021-04-22T12:25:00Z</time>
      </trkpt>
      <trkpt lat="44.8513" lon="5.79384">
        <ele>878.7</ele>
        <time>2021-04-22T12:25:02Z</time>
      </trkpt>
      <trkpt lat="44.85132" lon="5.79382">
        <ele>878.9</ele>
        <time>2021-04-22T12:25:03Z</time>
      </trkpt>
      <trkpt lat="44.85135" lon="5.79379">
        <ele>879.2</ele>
        <time>2021-04-22T12:25:05Z</time>
      </trkpt>
      <trkpt lat="44.85138" lon="5.79375">
        <ele>879.6</ele>
        <time>2021-04-22T12:25:07Z</time>
      </trkpt>
      <trkpt lat="44.85142" lon="5.79371">
        <ele>880</ele>
        <time>2021-04-22T12:25:09Z</time>
      </trkpt>
      <trkpt lat="44.85143" lon="5.79367">
        <ele>880.2</ele>
        <time>2021-04-22T12:25:10Z</time>
      </trkpt>
      <trkpt lat="44.85144" lon="5.79365">
        <ele>880.4</ele>
        <time>2021-04-22T12:25:12Z</time>
      </trkpt>
      <trkpt lat="44.85146" lon="5.79364">
        <ele>880.5</ele>
        <time>2021-04-22T12:25:13Z</time>
      </trkpt>
      <trkpt lat="44.85148" lon="5.7936">
        <ele>880.8</ele>
        <time>2021-04-22T12:25:14Z</time>
      </trkpt>
      <trkpt lat="44.85149" lon="5.79359">
        <ele>880.9</ele>
        <time>2021-04-22T12:25:15Z</time>
      </trkpt>
      <trkpt lat="44.85152" lon="5.79356">
        <ele>881.2</ele>
        <time>2021-04-22T12:25:17Z</time>
      </trkpt>
      <trkpt lat="44.85155" lon="5.79353">
        <ele>881.6</ele>
        <time>2021-04-22T12:25:18Z</time>
      </trkpt>
      <trkpt lat="44.85156" lon="5.79351">
        <ele>881.7</ele>
        <time>2021-04-22T12:25:19Z</time>
      </trkpt>
      <trkpt lat="44.85158" lon="5.7935">
        <ele>881.8</ele>
        <time>2021-04-22T12:25:20Z</time>
      </trkpt>
      <trkpt lat="44.85159" lon="5.79347">
        <ele>882</ele>
        <time>2021-04-22T12:25:22Z</time>
      </trkpt>
      <trkpt lat="44.85161" lon="5.79344">
        <ele>882.3</ele>
        <time>2021-04-22T12:25:23Z</time>
      </trkpt>
      <trkpt lat="44.85162" lon="5.79343">
        <ele>882.3</ele>
        <time>2021-04-22T12:25:24Z</time>
      </trkpt>
      <trkpt lat="44.85165" lon="5.79339">
        <ele>882.6</ele>
        <time>2021-04-22T12:25:26Z</time>
      </trkpt>
      <trkpt lat="44.85168" lon="5.79337">
        <ele>882.9</ele>
        <time>2021-04-22T12:25:27Z</time>
      </trkpt>
      <trkpt lat="44.85168" lon="5.79336">
        <ele>883</ele>
        <time>2021-04-22T12:25:28Z</time>
      </trkpt>
      <trkpt lat="44.85171" lon="5.79332">
        <ele>883.4</ele>
        <time>2021-04-22T12:25:29Z</time>
      </trkpt>
      <trkpt lat="44.85172" lon="5.79331">
        <ele>883.5</ele>
        <time>2021-04-22T12:25:30Z</time>
      </trkpt>
      <trkpt lat="44.85176" lon="5.79328">
        <ele>883.9</ele>
        <time>2021-04-22T12:25:32Z</time>
      </trkpt>
      <trkpt lat="44.85177" lon="5.79326">
        <ele>884</ele>
        <time>2021-04-22T12:25:33Z</time>
      </trkpt>
      <trkpt lat="44.85178" lon="5.79325">
        <ele>884.1</ele>
        <time>2021-04-22T12:25:35Z</time>
      </trkpt>
      <trkpt lat="44.85181" lon="5.79323">
        <ele>884.4</ele>
        <time>2021-04-22T12:25:37Z</time>
      </trkpt>
      <trkpt lat="44.85184" lon="5.79319">
        <ele>884.8</ele>
        <time>2021-04-22T12:25:39Z</time>
      </trkpt>
      <trkpt lat="44.85187" lon="5.79316">
        <ele>885.2</ele>
        <time>2021-04-22T12:25:41Z</time>
      </trkpt>
      <trkpt lat="44.8519" lon="5.79313">
        <ele>885.5</ele>
        <time>2021-04-22T12:25:42Z</time>
      </trkpt>
      <trkpt lat="44.85191" lon="5.79312">
        <ele>885.6</ele>
        <time>2021-04-22T12:25:43Z</time>
      </trkpt>
      <trkpt lat="44.85193" lon="5.79309">
        <ele>885.9</ele>
        <time>2021-04-22T12:25:44Z</time>
      </trkpt>
      <trkpt lat="44.85196" lon="5.79306">
        <ele>886.3</ele>
        <time>2021-04-22T12:25:46Z</time>
      </trkpt>
      <trkpt lat="44.85199" lon="5.79304">
        <ele>886.6</ele>
        <time>2021-04-22T12:25:47Z</time>
      </trkpt>
      <trkpt lat="44.85203" lon="5.79301">
        <ele>887.1</ele>
        <time>2021-04-22T12:25:49Z</time>
      </trkpt>
      <trkpt lat="44.85204" lon="5.793">
        <ele>887.2</ele>
        <time>2021-04-22T12:25:50Z</time>
      </trkpt>
      <trkpt lat="44.85205" lon="5.79299">
        <ele>887.3</ele>
        <time>2021-04-22T12:25:51Z</time>
      </trkpt>
      <trkpt lat="44.85209" lon="5.79296">
        <ele>887.7</ele>
        <time>2021-04-22T12:25:53Z</time>
      </trkpt>
      <trkpt lat="44.85212" lon="5.79294">
        <ele>888.1</ele>
        <time>2021-04-22T12:25:54Z</time>
      </trkpt>
      <trkpt lat="44.85213" lon="5.79293">
        <ele>888.2</ele>
        <time>2021-04-22T12:25:55Z</time>
      </trkpt>
      <trkpt lat="44.85215" lon="5.7929">
        <ele>888.5</ele>
        <time>2021-04-22T12:25:57Z</time>
      </trkpt>
      <trkpt lat="44.85216" lon="5.79289">
        <ele>888.6</ele>
        <time>2021-04-22T12:25:58Z</time>
      </trkpt>
      <trkpt lat="44.8522" lon="5.79286">
        <ele>889.1</ele>
        <time>2021-04-22T12:26:00Z</time>
      </trkpt>
      <trkpt lat="44.85221" lon="5.79285">
        <ele>889.2</ele>
        <time>2021-04-22T12:26:01Z</time>
      </trkpt>
      <trkpt lat="44.85222" lon="5.79284">
        <ele>889.3</ele>
        <time>2021-04-22T12:26:02Z</time>
      </trkpt>
      <trkpt lat="44.85225" lon="5.79281">
        <ele>889.7</ele>
        <time>2021-04-22T12:26:03Z</time>
      </trkpt>
      <trkpt lat="44.85228" lon="5.79278">
        <ele>890.1</ele>
        <time>2021-04-22T12:26:05Z</time>
      </trkpt>
      <trkpt lat="44.85229" lon="5.79276">
        <ele>890.2</ele>
        <time>2021-04-22T12:26:06Z</time>
      </trkpt>
      <trkpt lat="44.8523" lon="5.79274">
        <ele>890.4</ele>
        <time>2021-04-22T12:26:07Z</time>
      </trkpt>
      <trkpt lat="44.85232" lon="5.7927">
        <ele>890.8</ele>
        <time>2021-04-22T12:26:09Z</time>
      </trkpt>
      <trkpt lat="44.85233" lon="5.79266">
        <ele>891.1</ele>
        <time>2021-04-22T12:26:10Z</time>
      </trkpt>
      <trkpt lat="44.85236" lon="5.79264">
        <ele>891.5</ele>
        <time>2021-04-22T12:26:12Z</time>
      </trkpt>
      <trkpt lat="44.85237" lon="5.79263">
        <ele>891.6</ele>
        <time>2021-04-22T12:26:13Z</time>
      </trkpt>
      <trkpt lat="44.85238" lon="5.79261">
        <ele>891.8</ele>
        <time>2021-04-22T12:26:14Z</time>
      </trkpt>
      <trkpt lat="44.85241" lon="5.79258">
        <ele>892.1</ele>
        <time>2021-04-22T12:26:16Z</time>
      </trkpt>
      <trkpt lat="44.85245" lon="5.79254">
        <ele>892.7</ele>
        <time>2021-04-22T12:26:18Z</time>
      </trkpt>
      <trkpt lat="44.85246" lon="5.79252">
        <ele>892.8</ele>
        <time>2021-04-22T12:26:19Z</time>
      </trkpt>
      <trkpt lat="44.85247" lon="5.79251">
        <ele>893</ele>
        <time>2021-04-22T12:26:20Z</time>
      </trkpt>
      <trkpt lat="44.8525" lon="5.79247">
        <ele>893.4</ele>
        <time>2021-04-22T12:26:22Z</time>
      </trkpt>
      <trkpt lat="44.85252" lon="5.79246">
        <ele>893.6</ele>
        <time>2021-04-22T12:26:23Z</time>
      </trkpt>
      <trkpt lat="44.85253" lon="5.79245">
        <ele>893.8</ele>
        <time>2021-04-22T12:26:24Z</time>
      </trkpt>
      <trkpt lat="44.85254" lon="5.79243">
        <ele>893.9</ele>
        <time>2021-04-22T12:26:26Z</time>
      </trkpt>
      <trkpt lat="44.85256" lon="5.79242">
        <ele>894.1</ele>
        <time>2021-04-22T12:26:27Z</time>
      </trkpt>
      <trkpt lat="44.85259" lon="5.7924">
        <ele>894.5</ele>
        <time>2021-04-22T12:26:29Z</time>
      </trkpt>
      <trkpt lat="44.85261" lon="5.79237">
        <ele>894.7</ele>
        <time>2021-04-22T12:26:30Z</time>
      </trkpt>
      <trkpt lat="44.85261" lon="5.79236">
        <ele>894.8</ele>
        <time>2021-04-22T12:26:31Z</time>
      </trkpt>
      <trkpt lat="44.85264" lon="5.79232">
        <ele>895.2</ele>
        <time>2021-04-22T12:26:33Z</time>
      </trkpt>
      <trkpt lat="44.85268" lon="5.7923">
        <ele>895.6</ele>
        <time>2021-04-22T12:26:35Z</time>
      </trkpt>
      <trkpt lat="44.85272" lon="5.79227">
        <ele>896</ele>
        <time>2021-04-22T12:26:37Z</time>
      </trkpt>
      <trkpt lat="44.85274" lon="5.79225">
        <ele>896.2</ele>
        <time>2021-04-22T12:26:38Z</time>
      </trkpt>
      <trkpt lat="44.85277" lon="5.79224">
        <ele>896.5</ele>
        <time>2021-04-22T12:26:40Z</time>
      </trkpt>
      <trkpt lat="44.8528" lon="5.79222">
        <ele>896.7</ele>
        <time>2021-04-22T12:26:41Z</time>
      </trkpt>
      <trkpt lat="44.85281" lon="5.79221">
        <ele>896.8</ele>
        <time>2021-04-22T12:26:42Z</time>
      </trkpt>
      <trkpt lat="44.85286" lon="5.7922">
        <ele>897.2</ele>
        <time>2021-04-22T12:26:44Z</time>
      </trkpt>
      <trkpt lat="44.85287" lon="5.7922">
        <ele>897.3</ele>
        <time>2021-04-22T12:26:45Z</time>
      </trkpt>
      <trkpt lat="44.85288" lon="5.79219">
        <ele>897.4</ele>
        <time>2021-04-22T12:26:46Z</time>
      </trkpt>
      <trkpt lat="44.85293" lon="5.79218">
        <ele>897.7</ele>
        <time>2021-04-22T12:26:48Z</time>
      </trkpt>
      <trkpt lat="44.85295" lon="5.79216">
        <ele>897.9</ele>
        <time>2021-04-22T12:26:49Z</time>
      </trkpt>
      <trkpt lat="44.85296" lon="5.79215">
        <ele>898</ele>
        <time>2021-04-22T12:26:50Z</time>
      </trkpt>
      <trkpt lat="44.853" lon="5.79214">
        <ele>898.2</ele>
        <time>2021-04-22T12:26:51Z</time>
      </trkpt>
      <trkpt lat="44.85302" lon="5.79213">
        <ele>898.4</ele>
        <time>2021-04-22T12:26:53Z</time>
      </trkpt>
      <trkpt lat="44.85306" lon="5.79211">
        <ele>898.7</ele>
        <time>2021-04-22T12:26:55Z</time>
      </trkpt>
      <trkpt lat="44.85308" lon="5.79208">
        <ele>898.9</ele>
        <time>2021-04-22T12:26:57Z</time>
      </trkpt>
      <trkpt lat="44.85312" lon="5.79206">
        <ele>899.2</ele>
        <time>2021-04-22T12:26:59Z</time>
      </trkpt>
      <trkpt lat="44.85315" lon="5.79204">
        <ele>899.4</ele>
        <time>2021-04-22T12:27:00Z</time>
      </trkpt>
      <trkpt lat="44.85319" lon="5.792">
        <ele>899.8</ele>
        <time>2021-04-22T12:27:02Z</time>
      </trkpt>
      <trkpt lat="44.85321" lon="5.79199">
        <ele>899.9</ele>
        <time>2021-04-22T12:27:03Z</time>
      </trkpt>
      <trkpt lat="44.85322" lon="5.79197">
        <ele>900</ele>
        <time>2021-04-22T12:27:04Z</time>
      </trkpt>
      <trkpt lat="44.85326" lon="5.79194">
        <ele>900.3</ele>
        <time>2021-04-22T12:27:06Z</time>
      </trkpt>
      <trkpt lat="44.85329" lon="5.79191">
        <ele>900.6</ele>
        <time>2021-04-22T12:27:08Z</time>
      </trkpt>
      <trkpt lat="44.85332" lon="5.79189">
        <ele>900.9</ele>
        <time>2021-04-22T12:27:09Z</time>
      </trkpt>
      <trkpt lat="44.85333" lon="5.79188">
        <ele>901</ele>
        <time>2021-04-22T12:27:10Z</time>
      </trkpt>
      <trkpt lat="44.85335" lon="5.79185">
        <ele>901.2</ele>
        <time>2021-04-22T12:27:11Z</time>
      </trkpt>
      <trkpt lat="44.8534" lon="5.79181">
        <ele>901.6</ele>
        <time>2021-04-22T12:27:13Z</time>
      </trkpt>
      <trkpt lat="44.85341" lon="5.7918">
        <ele>901.7</ele>
        <time>2021-04-22T12:27:15Z</time>
      </trkpt>
      <trkpt lat="44.85343" lon="5.79178">
        <ele>901.9</ele>
        <time>2021-04-22T12:27:16Z</time>
      </trkpt>
      <trkpt lat="44.85345" lon="5.79177">
        <ele>902</ele>
        <time>2021-04-22T12:27:17Z</time>
      </trkpt>
      <trkpt lat="44.85349" lon="5.79174">
        <ele>902.4</ele>
        <time>2021-04-22T12:27:19Z</time>
      </trkpt>
      <trkpt lat="44.85353" lon="5.79171">
        <ele>902.7</ele>
        <time>2021-04-22T12:27:21Z</time>
      </trkpt>
      <trkpt lat="44.85355" lon="5.79169">
        <ele>902.9</ele>
        <time>2021-04-22T12:27:22Z</time>
      </trkpt>
      <trkpt lat="44.85359" lon="5.79166">
        <ele>903.2</ele>
        <time>2021-04-22T12:27:24Z</time>
      </trkpt>
      <trkpt lat="44.85362" lon="5.79164">
        <ele>903.4</ele>
        <time>2021-04-22T12:27:25Z</time>
      </trkpt>
      <trkpt lat="44.85363" lon="5.79163">
        <ele>903.4</ele>
        <time>2021-04-22T12:27:26Z</time>
      </trkpt>
      <trkpt lat="44.85365" lon="5.79161">
        <ele>903.6</ele>
        <time>2021-04-22T12:27:27Z</time>
      </trkpt>
      <trkpt lat="44.85368" lon="5.79157">
        <ele>903.9</ele>
        <time>2021-04-22T12:27:29Z</time>
      </trkpt>
      <trkpt lat="44.8537" lon="5.79155">
        <ele>904</ele>
        <time>2021-04-22T12:27:30Z</time>
      </trkpt>
      <trkpt lat="44.85374" lon="5.79153">
        <ele>904.3</ele>
        <time>2021-04-22T12:27:32Z</time>
      </trkpt>
      <trkpt lat="44.85377" lon="5.79151">
        <ele>904.5</ele>
        <time>2021-04-22T12:27:33Z</time>
      </trkpt>
      <trkpt lat="44.8538" lon="5.79147">
        <ele>904.8</ele>
        <time>2021-04-22T12:27:35Z</time>
      </trkpt>
      <trkpt lat="44.85382" lon="5.79145">
        <ele>904.9</ele>
        <time>2021-04-22T12:27:36Z</time>
      </trkpt>
      <trkpt lat="44.85386" lon="5.79142">
        <ele>905.2</ele>
        <time>2021-04-22T12:27:38Z</time>
      </trkpt>
      <trkpt lat="44.85389" lon="5.7914">
        <ele>905.4</ele>
        <time>2021-04-22T12:27:39Z</time>
      </trkpt>
      <trkpt lat="44.85392" lon="5.79138">
        <ele>905.6</ele>
        <time>2021-04-22T12:27:41Z</time>
      </trkpt>
      <trkpt lat="44.85394" lon="5.79135">
        <ele>905.8</ele>
        <time>2021-04-22T12:27:42Z</time>
      </trkpt>
      <trkpt lat="44.85396" lon="5.79132">
        <ele>906</ele>
        <time>2021-04-22T12:27:43Z</time>
      </trkpt>
      <trkpt lat="44.85398" lon="5.7913">
        <ele>906.2</ele>
        <time>2021-04-22T12:27:44Z</time>
      </trkpt>
      <trkpt lat="44.85401" lon="5.79128">
        <ele>906.4</ele>
        <time>2021-04-22T12:27:46Z</time>
      </trkpt>
      <trkpt lat="44.85404" lon="5.79127">
        <ele>906.6</ele>
        <time>2021-04-22T12:27:47Z</time>
      </trkpt>
      <trkpt lat="44.85407" lon="5.79126">
        <ele>906.8</ele>
        <time>2021-04-22T12:27:48Z</time>
      </trkpt>
      <trkpt lat="44.85409" lon="5.79124">
        <ele>906.9</ele>
        <time>2021-04-22T12:27:49Z</time>
      </trkpt>
      <trkpt lat="44.85411" lon="5.79123">
        <ele>907.1</ele>
        <time>2021-04-22T12:27:51Z</time>
      </trkpt>
      <trkpt lat="44.85413" lon="5.79121">
        <ele>907.2</ele>
        <time>2021-04-22T12:27:52Z</time>
      </trkpt>
      <trkpt lat="44.85417" lon="5.79118">
        <ele>907.5</ele>
        <time>2021-04-22T12:27:54Z</time>
      </trkpt>
      <trkpt lat="44.85419" lon="5.79116">
        <ele>907.7</ele>
        <time>2021-04-22T12:27:55Z</time>
      </trkpt>
      <trkpt lat="44.85421" lon="5.79112">
        <ele>907.9</ele>
        <time>2021-04-22T12:27:56Z</time>
      </trkpt>
      <trkpt lat="44.85423" lon="5.79107">
        <ele>908.1</ele>
        <time>2021-04-22T12:27:58Z</time>
      </trkpt>
      <trkpt lat="44.85423" lon="5.79105">
        <ele>908.2</ele>
        <time>2021-04-22T12:27:59Z</time>
      </trkpt>
      <trkpt lat="44.85421" lon="5.79101">
        <ele>908.4</ele>
        <time>2021-04-22T12:28:00Z</time>
      </trkpt>
      <trkpt lat="44.85417" lon="5.79097">
        <ele>908.8</ele>
        <time>2021-04-22T12:28:02Z</time>
      </trkpt>
      <trkpt lat="44.85414" lon="5.79097">
        <ele>908.9</ele>
        <time>2021-04-22T12:28:03Z</time>
      </trkpt>
      <trkpt lat="44.8541" lon="5.79101">
        <ele>909.2</ele>
        <time>2021-04-22T12:28:05Z</time>
      </trkpt>
      <trkpt lat="44.85406" lon="5.79104">
        <ele>909.5</ele>
        <time>2021-04-22T12:28:06Z</time>
      </trkpt>
      <trkpt lat="44.85403" lon="5.79106">
        <ele>909.7</ele>
        <time>2021-04-22T12:28:08Z</time>
      </trkpt>
      <trkpt lat="44.85401" lon="5.79107">
        <ele>909.8</ele>
        <time>2021-04-22T12:28:09Z</time>
      </trkpt>
      <trkpt lat="44.85397" lon="5.7911">
        <ele>910</ele>
        <time>2021-04-22T12:28:10Z</time>
      </trkpt>
      <trkpt lat="44.85394" lon="5.79111">
        <ele>910.2</ele>
        <time>2021-04-22T12:28:12Z</time>
      </trkpt>
      <trkpt lat="44.85391" lon="5.79112">
        <ele>910.3</ele>
        <time>2021-04-22T12:28:13Z</time>
      </trkpt>
      <trkpt lat="44.85387" lon="5.79113">
        <ele>910.5</ele>
        <time>2021-04-22T12:28:15Z</time>
      </trkpt>
      <trkpt lat="44.85383" lon="5.79114">
        <ele>910.7</ele>
        <time>2021-04-22T12:28:17Z</time>
      </trkpt>
      <trkpt lat="44.85379" lon="5.79116">
        <ele>911</ele>
        <time>2021-04-22T12:28:19Z</time>
      </trkpt>
      <trkpt lat="44.85376" lon="5.79115">
        <ele>911.2</ele>
        <time>2021-04-22T12:28:20Z</time>
      </trkpt>
      <trkpt lat="44.85372" lon="5.79114">
        <ele>911.4</ele>
        <time>2021-04-22T12:28:21Z</time>
      </trkpt>
      <trkpt lat="44.85368" lon="5.79109">
        <ele>911.7</ele>
        <time>2021-04-22T12:28:23Z</time>
      </trkpt>
      <trkpt lat="44.85367" lon="5.79102">
        <ele>912</ele>
        <time>2021-04-22T12:28:25Z</time>
      </trkpt>
      <trkpt lat="44.85367" lon="5.79098">
        <ele>912.2</ele>
        <time>2021-04-22T12:28:26Z</time>
      </trkpt>
      <trkpt lat="44.8537" lon="5.79093">
        <ele>912.6</ele>
        <time>2021-04-22T12:28:27Z</time>
      </trkpt>
      <trkpt lat="44.85375" lon="5.79091">
        <ele>912.9</ele>
        <time>2021-04-22T12:28:29Z</time>
      </trkpt>
      <trkpt lat="44.85381" lon="5.79091">
        <ele>913.3</ele>
        <time>2021-04-22T12:28:30Z</time>
      </trkpt>
      <trkpt lat="44.85386" lon="5.79091">
        <ele>913.7</ele>
        <time>2021-04-22T12:28:32Z</time>
      </trkpt>
      <trkpt lat="44.85392" lon="5.7909">
        <ele>914.1</ele>
        <time>2021-04-22T12:28:34Z</time>
      </trkpt>
      <trkpt lat="44.85397" lon="5.79089">
        <ele>914.5</ele>
        <time>2021-04-22T12:28:36Z</time>
      </trkpt>
      <trkpt lat="44.854" lon="5.79087">
        <ele>914.7</ele>
        <time>2021-04-22T12:28:37Z</time>
      </trkpt>
      <trkpt lat="44.85401" lon="5.79086">
        <ele>914.8</ele>
        <time>2021-04-22T12:28:38Z</time>
      </trkpt>
      <trkpt lat="44.85406" lon="5.79084">
        <ele>915.2</ele>
        <time>2021-04-22T12:28:40Z</time>
      </trkpt>
      <trkpt lat="44.85409" lon="5.79083">
        <ele>915.4</ele>
        <time>2021-04-22T12:28:42Z</time>
      </trkpt>
      <trkpt lat="44.85413" lon="5.79081">
        <ele>915.7</ele>
        <time>2021-04-22T12:28:43Z</time>
      </trkpt>
      <trkpt lat="44.85416" lon="5.79079">
        <ele>915.9</ele>
        <time>2021-04-22T12:28:45Z</time>
      </trkpt>
      <trkpt lat="44.85418" lon="5.79078">
        <ele>916.1</ele>
        <time>2021-04-22T12:28:46Z</time>
      </trkpt>
      <trkpt lat="44.85423" lon="5.79077">
        <ele>916.5</ele>
        <time>2021-04-22T12:28:48Z</time>
      </trkpt>
      <trkpt lat="44.85427" lon="5.79076">
        <ele>916.8</ele>
        <time>2021-04-22T12:28:49Z</time>
      </trkpt>
      <trkpt lat="44.85428" lon="5.79075">
        <ele>916.9</ele>
        <time>2021-04-22T12:28:50Z</time>
      </trkpt>
      <trkpt lat="44.85433" lon="5.79074">
        <ele>917.3</ele>
        <time>2021-04-22T12:28:52Z</time>
      </trkpt>
      <trkpt lat="44.85436" lon="5.79073">
        <ele>917.6</ele>
        <time>2021-04-22T12:28:53Z</time>
      </trkpt>
      <trkpt lat="44.8544" lon="5.79071">
        <ele>917.9</ele>
        <time>2021-04-22T12:28:54Z</time>
      </trkpt>
      <trkpt lat="44.85443" lon="5.7907">
        <ele>918.1</ele>
        <time>2021-04-22T12:28:56Z</time>
      </trkpt>
      <trkpt lat="44.85443" lon="5.7907">
        <ele>918.2</ele>
        <time>2021-04-22T12:28:57Z</time>
      </trkpt>
      <trkpt lat="44.85447" lon="5.79069">
        <ele>918.5</ele>
        <time>2021-04-22T12:28:59Z</time>
      </trkpt>
      <trkpt lat="44.85449" lon="5.79068">
        <ele>918.7</ele>
        <time>2021-04-22T12:29:00Z</time>
      </trkpt>
      <trkpt lat="44.85452" lon="5.79067">
        <ele>918.9</ele>
        <time>2021-04-22T12:29:01Z</time>
      </trkpt>
      <trkpt lat="44.85457" lon="5.79065">
        <ele>919.3</ele>
        <time>2021-04-22T12:29:03Z</time>
      </trkpt>
      <trkpt lat="44.85459" lon="5.79064">
        <ele>919.6</ele>
        <time>2021-04-22T12:29:04Z</time>
      </trkpt>
      <trkpt lat="44.85463" lon="5.79063">
        <ele>919.9</ele>
        <time>2021-04-22T12:29:06Z</time>
      </trkpt>
      <trkpt lat="44.85465" lon="5.79061">
        <ele>920.1</ele>
        <time>2021-04-22T12:29:07Z</time>
      </trkpt>
      <trkpt lat="44.85469" lon="5.7906">
        <ele>920.5</ele>
        <time>2021-04-22T12:29:09Z</time>
      </trkpt>
      <trkpt lat="44.85475" lon="5.79058">
        <ele>920.9</ele>
        <time>2021-04-22T12:29:11Z</time>
      </trkpt>
      <trkpt lat="44.85479" lon="5.79055">
        <ele>921.4</ele>
        <time>2021-04-22T12:29:13Z</time>
      </trkpt>
      <trkpt lat="44.85482" lon="5.79054">
        <ele>921.7</ele>
        <time>2021-04-22T12:29:14Z</time>
      </trkpt>
      <trkpt lat="44.85488" lon="5.79051">
        <ele>922.2</ele>
        <time>2021-04-22T12:29:16Z</time>
      </trkpt>
      <trkpt lat="44.85491" lon="5.79048">
        <ele>922.5</ele>
        <time>2021-04-22T12:29:18Z</time>
      </trkpt>
      <trkpt lat="44.85494" lon="5.79046">
        <ele>922.8</ele>
        <time>2021-04-22T12:29:19Z</time>
      </trkpt>
      <trkpt lat="44.85495" lon="5.79046">
        <ele>922.9</ele>
        <time>2021-04-22T12:29:20Z</time>
      </trkpt>
      <trkpt lat="44.85498" lon="5.79044">
        <ele>923.2</ele>
        <time>2021-04-22T12:29:21Z</time>
      </trkpt>
      <trkpt lat="44.85499" lon="5.79043">
        <ele>923.3</ele>
        <time>2021-04-22T12:29:22Z</time>
      </trkpt>
      <trkpt lat="44.85504" lon="5.79042">
        <ele>923.7</ele>
        <time>2021-04-22T12:29:24Z</time>
      </trkpt>
      <trkpt lat="44.85506" lon="5.79041">
        <ele>923.9</ele>
        <time>2021-04-22T12:29:25Z</time>
      </trkpt>
      <trkpt lat="44.85508" lon="5.79041">
        <ele>924</ele>
        <time>2021-04-22T12:29:26Z</time>
      </trkpt>
      <trkpt lat="44.85511" lon="5.7904">
        <ele>924.3</ele>
        <time>2021-04-22T12:29:28Z</time>
      </trkpt>
      <trkpt lat="44.85512" lon="5.79039">
        <ele>924.4</ele>
        <time>2021-04-22T12:29:29Z</time>
      </trkpt>
      <trkpt lat="44.85515" lon="5.79036">
        <ele>924.8</ele>
        <time>2021-04-22T12:29:31Z</time>
      </trkpt>
      <trkpt lat="44.85518" lon="5.79035">
        <ele>925</ele>
        <time>2021-04-22T12:29:32Z</time>
      </trkpt>
      <trkpt lat="44.85523" lon="5.79033">
        <ele>925.5</ele>
        <time>2021-04-22T12:29:33Z</time>
      </trkpt>
      <trkpt lat="44.85526" lon="5.7903">
        <ele>925.8</ele>
        <time>2021-04-22T12:29:35Z</time>
      </trkpt>
      <trkpt lat="44.85527" lon="5.79029">
        <ele>925.9</ele>
        <time>2021-04-22T12:29:36Z</time>
      </trkpt>
      <trkpt lat="44.85531" lon="5.79028">
        <ele>926.3</ele>
        <time>2021-04-22T12:29:37Z</time>
      </trkpt>
      <trkpt lat="44.85535" lon="5.79027">
        <ele>926.6</ele>
        <time>2021-04-22T12:29:39Z</time>
      </trkpt>
      <trkpt lat="44.85537" lon="5.79027">
        <ele>926.7</ele>
        <time>2021-04-22T12:29:40Z</time>
      </trkpt>
      <trkpt lat="44.85538" lon="5.79026">
        <ele>926.9</ele>
        <time>2021-04-22T12:29:41Z</time>
      </trkpt>
      <trkpt lat="44.85541" lon="5.79025">
        <ele>927.1</ele>
        <time>2021-04-22T12:29:43Z</time>
      </trkpt>
      <trkpt lat="44.85545" lon="5.79024">
        <ele>927.5</ele>
        <time>2021-04-22T12:29:44Z</time>
      </trkpt>
      <trkpt lat="44.85547" lon="5.79023">
        <ele>927.6</ele>
        <time>2021-04-22T12:29:45Z</time>
      </trkpt>
      <trkpt lat="44.8555" lon="5.79022">
        <ele>927.9</ele>
        <time>2021-04-22T12:29:47Z</time>
      </trkpt>
      <trkpt lat="44.85551" lon="5.79021">
        <ele>927.9</ele>
        <time>2021-04-22T12:29:48Z</time>
      </trkpt>
      <trkpt lat="44.85553" lon="5.79019">
        <ele>928.2</ele>
        <time>2021-04-22T12:29:49Z</time>
      </trkpt>
      <trkpt lat="44.85557" lon="5.79016">
        <ele>928.5</ele>
        <time>2021-04-22T12:29:51Z</time>
      </trkpt>
      <trkpt lat="44.8556" lon="5.79015">
        <ele>928.7</ele>
        <time>2021-04-22T12:29:52Z</time>
      </trkpt>
      <trkpt lat="44.85561" lon="5.79014">
        <ele>928.8</ele>
        <time>2021-04-22T12:29:53Z</time>
      </trkpt>
      <trkpt lat="44.85566" lon="5.79012">
        <ele>929.1</ele>
        <time>2021-04-22T12:29:55Z</time>
      </trkpt>
      <trkpt lat="44.85569" lon="5.7901">
        <ele>929.4</ele>
        <time>2021-04-22T12:29:57Z</time>
      </trkpt>
      <trkpt lat="44.85572" lon="5.79008">
        <ele>929.5</ele>
        <time>2021-04-22T12:29:58Z</time>
      </trkpt>
      <trkpt lat="44.85575" lon="5.79006">
        <ele>929.8</ele>
        <time>2021-04-22T12:30:00Z</time>
      </trkpt>
      <trkpt lat="44.85579" lon="5.79003">
        <ele>930</ele>
        <time>2021-04-22T12:30:01Z</time>
      </trkpt>
      <trkpt lat="44.8558" lon="5.79001">
        <ele>930.1</ele>
        <time>2021-04-22T12:30:02Z</time>
      </trkpt>
      <trkpt lat="44.85584" lon="5.78998">
        <ele>930.3</ele>
        <time>2021-04-22T12:30:04Z</time>
      </trkpt>
      <trkpt lat="44.85588" lon="5.78994">
        <ele>930.6</ele>
        <time>2021-04-22T12:30:06Z</time>
      </trkpt>
      <trkpt lat="44.8559" lon="5.7899">
        <ele>930.7</ele>
        <time>2021-04-22T12:30:07Z</time>
      </trkpt>
      <trkpt lat="44.85592" lon="5.78987">
        <ele>930.9</ele>
        <time>2021-04-22T12:30:08Z</time>
      </trkpt>
      <trkpt lat="44.85597" lon="5.78984">
        <ele>931.1</ele>
        <time>2021-04-22T12:30:10Z</time>
      </trkpt>
      <trkpt lat="44.856" lon="5.78979">
        <ele>931.3</ele>
        <time>2021-04-22T12:30:12Z</time>
      </trkpt>
      <trkpt lat="44.85603" lon="5.78977">
        <ele>931.3</ele>
        <time>2021-04-22T12:30:13Z</time>
      </trkpt>
      <trkpt lat="44.85606" lon="5.78975">
        <ele>931.4</ele>
        <time>2021-04-22T12:30:14Z</time>
      </trkpt>
      <trkpt lat="44.85609" lon="5.78973">
        <ele>931.4</ele>
        <time>2021-04-22T12:30:15Z</time>
      </trkpt>
      <trkpt lat="44.85615" lon="5.78969">
        <ele>931.4</ele>
        <time>2021-04-22T12:30:17Z</time>
      </trkpt>
      <trkpt lat="44.85619" lon="5.78966">
        <ele>931.4</ele>
        <time>2021-04-22T12:30:18Z</time>
      </trkpt>
      <trkpt lat="44.85623" lon="5.78963">
        <ele>931.4</ele>
        <time>2021-04-22T12:30:19Z</time>
      </trkpt>
      <trkpt lat="44.85627" lon="5.7896">
        <ele>931.4</ele>
        <time>2021-04-22T12:30:20Z</time>
      </trkpt>
      <trkpt lat="44.85631" lon="5.78956">
        <ele>931.4</ele>
        <time>2021-04-22T12:30:22Z</time>
      </trkpt>
      <trkpt lat="44.85634" lon="5.78954">
        <ele>931.4</ele>
        <time>2021-04-22T12:30:23Z</time>
      </trkpt>
      <trkpt lat="44.8564" lon="5.7895">
        <ele>931.5</ele>
        <time>2021-04-22T12:30:24Z</time>
      </trkpt>
      <trkpt lat="44.85644" lon="5.78947">
        <ele>931.5</ele>
        <time>2021-04-22T12:30:26Z</time>
      </trkpt>
      <trkpt lat="44.85648" lon="5.78944">
        <ele>931.5</ele>
        <time>2021-04-22T12:30:27Z</time>
      </trkpt>
      <trkpt lat="44.85652" lon="5.78941">
        <ele>931.5</ele>
        <time>2021-04-22T12:30:28Z</time>
      </trkpt>
      <trkpt lat="44.8566" lon="5.78935">
        <ele>931.6</ele>
        <time>2021-04-22T12:30:30Z</time>
      </trkpt>
      <trkpt lat="44.85666" lon="5.78932">
        <ele>931.7</ele>
        <time>2021-04-22T12:30:31Z</time>
      </trkpt>
      <trkpt lat="44.85672" lon="5.78928">
        <ele>931.9</ele>
        <time>2021-04-22T12:30:33Z</time>
      </trkpt>
      <trkpt lat="44.85676" lon="5.78926">
        <ele>932</ele>
        <time>2021-04-22T12:30:34Z</time>
      </trkpt>
      <trkpt lat="44.85682" lon="5.78923">
        <ele>932.1</ele>
        <time>2021-04-22T12:30:35Z</time>
      </trkpt>
      <trkpt lat="44.85686" lon="5.78921">
        <ele>932.3</ele>
        <time>2021-04-22T12:30:37Z</time>
      </trkpt>
      <trkpt lat="44.8569" lon="5.78919">
        <ele>932.4</ele>
        <time>2021-04-22T12:30:38Z</time>
      </trkpt>
      <trkpt lat="44.85696" lon="5.78914">
        <ele>932.7</ele>
        <time>2021-04-22T12:30:40Z</time>
      </trkpt>
      <trkpt lat="44.857" lon="5.78913">
        <ele>932.8</ele>
        <time>2021-04-22T12:30:41Z</time>
      </trkpt>
      <trkpt lat="44.85707" lon="5.78911">
        <ele>933.1</ele>
        <time>2021-04-22T12:30:43Z</time>
      </trkpt>
      <trkpt lat="44.85711" lon="5.7891">
        <ele>933.2</ele>
        <time>2021-04-22T12:30:44Z</time>
      </trkpt>
      <trkpt lat="44.85717" lon="5.78909">
        <ele>933.5</ele>
        <time>2021-04-22T12:30:46Z</time>
      </trkpt>
      <trkpt lat="44.85721" lon="5.78907">
        <ele>933.6</ele>
        <time>2021-04-22T12:30:47Z</time>
      </trkpt>
      <trkpt lat="44.85725" lon="5.78906">
        <ele>933.8</ele>
        <time>2021-04-22T12:30:48Z</time>
      </trkpt>
      <trkpt lat="44.8573" lon="5.78905">
        <ele>934</ele>
        <time>2021-04-22T12:30:49Z</time>
      </trkpt>
      <trkpt lat="44.85736" lon="5.78901">
        <ele>934</ele>
        <time>2021-04-22T12:30:51Z</time>
      </trkpt>
      <trkpt lat="44.85743" lon="5.78897">
        <ele>934</ele>
        <time>2021-04-22T12:30:53Z</time>
      </trkpt>
      <trkpt lat="44.8575" lon="5.78894">
        <ele>933.9</ele>
        <time>2021-04-22T12:30:55Z</time>
      </trkpt>
      <trkpt lat="44.85755" lon="5.78892">
        <ele>933.7</ele>
        <time>2021-04-22T12:30:56Z</time>
      </trkpt>
      <trkpt lat="44.85759" lon="5.78892">
        <ele>933.6</ele>
        <time>2021-04-22T12:30:57Z</time>
      </trkpt>
      <trkpt lat="44.85768" lon="5.7889">
        <ele>933.1</ele>
        <time>2021-04-22T12:30:59Z</time>
      </trkpt>
      <trkpt lat="44.85774" lon="5.7889">
        <ele>932.8</ele>
        <time>2021-04-22T12:31:00Z</time>
      </trkpt>
      <trkpt lat="44.8578" lon="5.7889">
        <ele>932.4</ele>
        <time>2021-04-22T12:31:01Z</time>
      </trkpt>
      <trkpt lat="44.85786" lon="5.7889">
        <ele>932.1</ele>
        <time>2021-04-22T12:31:02Z</time>
      </trkpt>
      <trkpt lat="44.85793" lon="5.78891">
        <ele>931.6</ele>
        <time>2021-04-22T12:31:03Z</time>
      </trkpt>
      <trkpt lat="44.85801" lon="5.78891">
        <ele>931.2</ele>
        <time>2021-04-22T12:31:04Z</time>
      </trkpt>
      <trkpt lat="44.85808" lon="5.78891">
        <ele>930.6</ele>
        <time>2021-04-22T12:31:05Z</time>
      </trkpt>
      <trkpt lat="44.85816" lon="5.78891">
        <ele>930.1</ele>
        <time>2021-04-22T12:31:06Z</time>
      </trkpt>
      <trkpt lat="44.85824" lon="5.7889">
        <ele>929.4</ele>
        <time>2021-04-22T12:31:07Z</time>
      </trkpt>
      <trkpt lat="44.85833" lon="5.78888">
        <ele>928.6</ele>
        <time>2021-04-22T12:31:08Z</time>
      </trkpt>
      <trkpt lat="44.85841" lon="5.78885">
        <ele>927.9</ele>
        <time>2021-04-22T12:31:09Z</time>
      </trkpt>
      <trkpt lat="44.8585" lon="5.78881">
        <ele>927</ele>
        <time>2021-04-22T12:31:10Z</time>
      </trkpt>
      <trkpt lat="44.85859" lon="5.78876">
        <ele>926.1</ele>
        <time>2021-04-22T12:31:11Z</time>
      </trkpt>
      <trkpt lat="44.85868" lon="5.78871">
        <ele>925.2</ele>
        <time>2021-04-22T12:31:12Z</time>
      </trkpt>
      <trkpt lat="44.85877" lon="5.78866">
        <ele>924.3</ele>
        <time>2021-04-22T12:31:13Z</time>
      </trkpt>
      <trkpt lat="44.85887" lon="5.7886">
        <ele>923.4</ele>
        <time>2021-04-22T12:31:14Z</time>
      </trkpt>
      <trkpt lat="44.85896" lon="5.78854">
        <ele>922.6</ele>
        <time>2021-04-22T12:31:15Z</time>
      </trkpt>
      <trkpt lat="44.85906" lon="5.78848">
        <ele>922</ele>
        <time>2021-04-22T12:31:16Z</time>
      </trkpt>
      <trkpt lat="44.85915" lon="5.78841">
        <ele>921.3</ele>
        <time>2021-04-22T12:31:17Z</time>
      </trkpt>
      <trkpt lat="44.85924" lon="5.78836">
        <ele>920.6</ele>
        <time>2021-04-22T12:31:18Z</time>
      </trkpt>
      <trkpt lat="44.85934" lon="5.78833">
        <ele>919.9</ele>
        <time>2021-04-22T12:31:19Z</time>
      </trkpt>
      <trkpt lat="44.85944" lon="5.78829">
        <ele>919</ele>
        <time>2021-04-22T12:31:20Z</time>
      </trkpt>
      <trkpt lat="44.85954" lon="5.78824">
        <ele>918.2</ele>
        <time>2021-04-22T12:31:21Z</time>
      </trkpt>
      <trkpt lat="44.85965" lon="5.78818">
        <ele>917.3</ele>
        <time>2021-04-22T12:31:22Z</time>
      </trkpt>
      <trkpt lat="44.85975" lon="5.78812">
        <ele>916.6</ele>
        <time>2021-04-22T12:31:23Z</time>
      </trkpt>
      <trkpt lat="44.85986" lon="5.78807">
        <ele>915.9</ele>
        <time>2021-04-22T12:31:24Z</time>
      </trkpt>
      <trkpt lat="44.85996" lon="5.78802">
        <ele>915.3</ele>
        <time>2021-04-22T12:31:25Z</time>
      </trkpt>
      <trkpt lat="44.86005" lon="5.788">
        <ele>914.7</ele>
        <time>2021-04-22T12:31:26Z</time>
      </trkpt>
      <trkpt lat="44.86013" lon="5.78799">
        <ele>914.2</ele>
        <time>2021-04-22T12:31:27Z</time>
      </trkpt>
      <trkpt lat="44.86022" lon="5.78799">
        <ele>913.6</ele>
        <time>2021-04-22T12:31:28Z</time>
      </trkpt>
      <trkpt lat="44.8603" lon="5.788">
        <ele>913.1</ele>
        <time>2021-04-22T12:31:29Z</time>
      </trkpt>
      <trkpt lat="44.86039" lon="5.78801">
        <ele>912.6</ele>
        <time>2021-04-22T12:31:30Z</time>
      </trkpt>
      <trkpt lat="44.86047" lon="5.78801">
        <ele>912.1</ele>
        <time>2021-04-22T12:31:31Z</time>
      </trkpt>
      <trkpt lat="44.86057" lon="5.788">
        <ele>911.6</ele>
        <time>2021-04-22T12:31:32Z</time>
      </trkpt>
      <trkpt lat="44.86066" lon="5.78799">
        <ele>911.2</ele>
        <time>2021-04-22T12:31:33Z</time>
      </trkpt>
      <trkpt lat="44.86075" lon="5.78796">
        <ele>910.7</ele>
        <time>2021-04-22T12:31:34Z</time>
      </trkpt>
      <trkpt lat="44.86084" lon="5.78793">
        <ele>910.3</ele>
        <time>2021-04-22T12:31:35Z</time>
      </trkpt>
      <trkpt lat="44.86093" lon="5.78788">
        <ele>909.8</ele>
        <time>2021-04-22T12:31:36Z</time>
      </trkpt>
      <trkpt lat="44.86102" lon="5.78784">
        <ele>909.4</ele>
        <time>2021-04-22T12:31:37Z</time>
      </trkpt>
      <trkpt lat="44.8611" lon="5.78778">
        <ele>908.9</ele>
        <time>2021-04-22T12:31:38Z</time>
      </trkpt>
      <trkpt lat="44.86118" lon="5.78772">
        <ele>908.5</ele>
        <time>2021-04-22T12:31:39Z</time>
      </trkpt>
      <trkpt lat="44.86126" lon="5.78767">
        <ele>908</ele>
        <time>2021-04-22T12:31:40Z</time>
      </trkpt>
      <trkpt lat="44.86132" lon="5.78762">
        <ele>907.4</ele>
        <time>2021-04-22T12:31:41Z</time>
      </trkpt>
      <trkpt lat="44.86135" lon="5.78755">
        <ele>907</ele>
        <time>2021-04-22T12:31:42Z</time>
      </trkpt>
      <trkpt lat="44.86136" lon="5.78749">
        <ele>906.6</ele>
        <time>2021-04-22T12:31:43Z</time>
      </trkpt>
      <trkpt lat="44.86135" lon="5.78745">
        <ele>906.3</ele>
        <time>2021-04-22T12:31:44Z</time>
      </trkpt>
      <trkpt lat="44.86134" lon="5.7874">
        <ele>905.9</ele>
        <time>2021-04-22T12:31:45Z</time>
      </trkpt>
      <trkpt lat="44.86132" lon="5.78735">
        <ele>905.4</ele>
        <time>2021-04-22T12:31:46Z</time>
      </trkpt>
      <trkpt lat="44.86128" lon="5.78727">
        <ele>904.7</ele>
        <time>2021-04-22T12:31:47Z</time>
      </trkpt>
      <trkpt lat="44.86124" lon="5.7872">
        <ele>903.9</ele>
        <time>2021-04-22T12:31:48Z</time>
      </trkpt>
      <trkpt lat="44.8612" lon="5.78712">
        <ele>903.2</ele>
        <time>2021-04-22T12:31:49Z</time>
      </trkpt>
      <trkpt lat="44.86115" lon="5.78703">
        <ele>902.3</ele>
        <time>2021-04-22T12:31:50Z</time>
      </trkpt>
      <trkpt lat="44.86111" lon="5.78693">
        <ele>901.4</ele>
        <time>2021-04-22T12:31:51Z</time>
      </trkpt>
      <trkpt lat="44.86106" lon="5.78682">
        <ele>900.5</ele>
        <time>2021-04-22T12:31:52Z</time>
      </trkpt>
      <trkpt lat="44.86104" lon="5.78669">
        <ele>899.6</ele>
        <time>2021-04-22T12:31:53Z</time>
      </trkpt>
      <trkpt lat="44.86103" lon="5.78655">
        <ele>898.6</ele>
        <time>2021-04-22T12:31:54Z</time>
      </trkpt>
      <trkpt lat="44.86103" lon="5.78641">
        <ele>897.5</ele>
        <time>2021-04-22T12:31:55Z</time>
      </trkpt>
      <trkpt lat="44.86103" lon="5.78626">
        <ele>896.4</ele>
        <time>2021-04-22T12:31:56Z</time>
      </trkpt>
      <trkpt lat="44.86102" lon="5.78614">
        <ele>895.5</ele>
        <time>2021-04-22T12:31:57Z</time>
      </trkpt>
      <trkpt lat="44.861" lon="5.78604">
        <ele>894.7</ele>
        <time>2021-04-22T12:31:58Z</time>
      </trkpt>
      <trkpt lat="44.86098" lon="5.78596">
        <ele>894.1</ele>
        <time>2021-04-22T12:31:59Z</time>
      </trkpt>
      <trkpt lat="44.86096" lon="5.78589">
        <ele>893.5</ele>
        <time>2021-04-22T12:32:00Z</time>
      </trkpt>
      <trkpt lat="44.86093" lon="5.78581">
        <ele>892.9</ele>
        <time>2021-04-22T12:32:01Z</time>
      </trkpt>
      <trkpt lat="44.86089" lon="5.78573">
        <ele>892.3</ele>
        <time>2021-04-22T12:32:02Z</time>
      </trkpt>
      <trkpt lat="44.86085" lon="5.78564">
        <ele>891.7</ele>
        <time>2021-04-22T12:32:03Z</time>
      </trkpt>
      <trkpt lat="44.86082" lon="5.78555">
        <ele>891.1</ele>
        <time>2021-04-22T12:32:04Z</time>
      </trkpt>
      <trkpt lat="44.86078" lon="5.78544">
        <ele>890.4</ele>
        <time>2021-04-22T12:32:05Z</time>
      </trkpt>
      <trkpt lat="44.86074" lon="5.78534">
        <ele>889.8</ele>
        <time>2021-04-22T12:32:06Z</time>
      </trkpt>
      <trkpt lat="44.8607" lon="5.78524">
        <ele>889.3</ele>
        <time>2021-04-22T12:32:07Z</time>
      </trkpt>
      <trkpt lat="44.86066" lon="5.78513">
        <ele>888.8</ele>
        <time>2021-04-22T12:32:08Z</time>
      </trkpt>
      <trkpt lat="44.86063" lon="5.78505">
        <ele>888.3</ele>
        <time>2021-04-22T12:32:09Z</time>
      </trkpt>
      <trkpt lat="44.86061" lon="5.78499">
        <ele>888.1</ele>
        <time>2021-04-22T12:32:10Z</time>
      </trkpt>
      <trkpt lat="44.8606" lon="5.78495">
        <ele>887.9</ele>
        <time>2021-04-22T12:32:11Z</time>
      </trkpt>
      <trkpt lat="44.8606" lon="5.78494">
        <ele>887.8</ele>
        <time>2021-04-22T12:32:12Z</time>
      </trkpt>
      <trkpt lat="44.86059" lon="5.78494">
        <ele>887.8</ele>
        <time>2021-04-22T12:32:13Z</time>
      </trkpt>
      <trkpt lat="44.86057" lon="5.78494">
        <ele>887.8</ele>
        <time>2021-04-22T12:32:14Z</time>
      </trkpt>
      <trkpt lat="44.86056" lon="5.78495">
        <ele>887.9</ele>
        <time>2021-04-22T12:32:15Z</time>
      </trkpt>
      <trkpt lat="44.86058" lon="5.78497">
        <ele>888</ele>
        <time>2021-04-22T12:32:16Z</time>
      </trkpt>
      <trkpt lat="44.86059" lon="5.78498">
        <ele>888</ele>
        <time>2021-04-22T12:32:17Z</time>
      </trkpt>
      <trkpt lat="44.86061" lon="5.785">
        <ele>888.1</ele>
        <time>2021-04-22T12:32:19Z</time>
      </trkpt>
      <trkpt lat="44.86061" lon="5.78502">
        <ele>888.2</ele>
        <time>2021-04-22T12:32:20Z</time>
      </trkpt>
      <trkpt lat="44.86061" lon="5.78504">
        <ele>888.3</ele>
        <time>2021-04-22T12:32:22Z</time>
      </trkpt>
      <trkpt lat="44.86061" lon="5.78503">
        <ele>888.3</ele>
        <time>2021-04-22T12:32:23Z</time>
      </trkpt>
      <trkpt lat="44.86061" lon="5.78503">
        <ele>888.3</ele>
        <time>2021-04-22T12:32:24Z</time>
      </trkpt>
      <trkpt lat="44.8606" lon="5.78503">
        <ele>888.3</ele>
        <time>2021-04-22T12:32:25Z</time>
      </trkpt>
      <trkpt lat="44.8606" lon="5.78503">
        <ele>888.3</ele>
        <time>2021-04-22T12:32:26Z</time>
      </trkpt>
      <trkpt lat="44.8606" lon="5.78503">
        <ele>888.3</ele>
        <time>2021-04-22T12:32:27Z</time>
      </trkpt>
      <trkpt lat="44.86059" lon="5.78503">
        <ele>888.3</ele>
        <time>2021-04-22T12:32:28Z</time>
      </trkpt>
      <trkpt lat="44.86059" lon="5.78503">
        <ele>888.3</ele>
        <time>2021-04-22T12:32:29Z</time>
      </trkpt>
      <trkpt lat="44.86059" lon="5.78503">
        <ele>888.3</ele>
        <time>2021-04-22T12:32:30Z</time>
      </trkpt>
      <trkpt lat="44.86064" lon="5.78512">
        <ele>888.7</ele>
        <time>2021-04-22T12:33:28Z</time>
      </trkpt>
      <trkpt lat="44.86065" lon="5.78513">
        <ele>888.8</ele>
        <time>2021-04-22T12:33:29Z</time>
      </trkpt>
      <trkpt lat="44.86065" lon="5.78515">
        <ele>888.8</ele>
        <time>2021-04-22T12:33:30Z</time>
      </trkpt>
      <trkpt lat="44.86066" lon="5.78516">
        <ele>888.9</ele>
        <time>2021-04-22T12:33:31Z</time>
      </trkpt>
      <trkpt lat="44.86065" lon="5.78517">
        <ele>888.9</ele>
        <time>2021-04-22T12:33:32Z</time>
      </trkpt>
      <trkpt lat="44.86065" lon="5.78518">
        <ele>888.9</ele>
        <time>2021-04-22T12:33:33Z</time>
      </trkpt>
      <trkpt lat="44.86066" lon="5.78518">
        <ele>889</ele>
        <time>2021-04-22T12:33:34Z</time>
      </trkpt>
      <trkpt lat="44.86067" lon="5.78519">
        <ele>889</ele>
        <time>2021-04-22T12:33:36Z</time>
      </trkpt>
      <trkpt lat="44.86067" lon="5.78518">
        <ele>889</ele>
        <time>2021-04-22T12:33:37Z</time>
      </trkpt>
      <trkpt lat="44.86067" lon="5.78519">
        <ele>889.1</ele>
        <time>2021-04-22T12:33:38Z</time>
      </trkpt>
      <trkpt lat="44.86068" lon="5.78519">
        <ele>889.1</ele>
        <time>2021-04-22T12:33:39Z</time>
      </trkpt>
      <trkpt lat="44.86068" lon="5.7852">
        <ele>889.1</ele>
        <time>2021-04-22T12:33:41Z</time>
      </trkpt>
      <trkpt lat="44.86068" lon="5.7852">
        <ele>889.1</ele>
        <time>2021-04-22T12:33:42Z</time>
      </trkpt>
      <trkpt lat="44.86068" lon="5.7852">
        <ele>889.1</ele>
        <time>2021-04-22T12:33:43Z</time>
      </trkpt>
      <trkpt lat="44.86068" lon="5.7852">
        <ele>889.1</ele>
        <time>2021-04-22T12:33:44Z</time>
      </trkpt>
      <trkpt lat="44.86068" lon="5.7852">
        <ele>889.1</ele>
        <time>2021-04-22T12:33:45Z</time>
      </trkpt>
      <trkpt lat="44.86068" lon="5.7852">
        <ele>889.1</ele>
        <time>2021-04-22T12:33:46Z</time>
      </trkpt>
      <trkpt lat="44.86068" lon="5.7852">
        <ele>889.2</ele>
        <time>2021-04-22T12:33:47Z</time>
      </trkpt>
      <trkpt lat="44.86068" lon="5.78519">
        <ele>889.2</ele>
        <time>2021-04-22T12:33:48Z</time>
      </trkpt>
      <trkpt lat="44.86068" lon="5.78519">
        <ele>889.2</ele>
        <time>2021-04-22T12:33:49Z</time>
      </trkpt>
      <trkpt lat="44.86068" lon="5.78519">
        <ele>889.2</ele>
        <time>2021-04-22T12:33:50Z</time>
      </trkpt>
      <trkpt lat="44.86068" lon="5.78519">
        <ele>889.2</ele>
        <time>2021-04-22T12:33:51Z</time>
      </trkpt>
      <trkpt lat="44.86068" lon="5.78519">
        <ele>889.2</ele>
        <time>2021-04-22T12:33:52Z</time>
      </trkpt>
      <trkpt lat="44.86068" lon="5.78519">
        <ele>889.2</ele>
        <time>2021-04-22T12:33:53Z</time>
      </trkpt>
      <trkpt lat="44.86068" lon="5.78519">
        <ele>889.2</ele>
        <time>2021-04-22T12:33:54Z</time>
      </trkpt>
      <trkpt lat="44.86064" lon="5.78521">
        <ele>889.4</ele>
        <time>2021-04-22T12:34:04Z</time>
      </trkpt>
      <trkpt lat="44.86064" lon="5.78521">
        <ele>889.4</ele>
        <time>2021-04-22T12:34:05Z</time>
      </trkpt>
      <trkpt lat="44.86062" lon="5.78521">
        <ele>889.5</ele>
        <time>2021-04-22T12:34:06Z</time>
      </trkpt>
      <trkpt lat="44.86058" lon="5.78522">
        <ele>889.7</ele>
        <time>2021-04-22T12:34:08Z</time>
      </trkpt>
      <trkpt lat="44.86056" lon="5.78522">
        <ele>889.8</ele>
        <time>2021-04-22T12:34:10Z</time>
      </trkpt>
      <trkpt lat="44.86055" lon="5.78524">
        <ele>889.9</ele>
        <time>2021-04-22T12:34:12Z</time>
      </trkpt>
      <trkpt lat="44.86057" lon="5.7853">
        <ele>890.1</ele>
        <time>2021-04-22T12:34:14Z</time>
      </trkpt>
      <trkpt lat="44.86059" lon="5.78534">
        <ele>890.3</ele>
        <time>2021-04-22T12:34:16Z</time>
      </trkpt>
      <trkpt lat="44.86068" lon="5.78544">
        <ele>891</ele>
        <time>2021-04-22T12:34:17Z</time>
      </trkpt>
      <trkpt lat="44.8607" lon="5.78546">
        <ele>891.1</ele>
        <time>2021-04-22T12:34:18Z</time>
      </trkpt>
      <trkpt lat="44.86073" lon="5.78554">
        <ele>891.5</ele>
        <time>2021-04-22T12:34:20Z</time>
      </trkpt>
      <trkpt lat="44.86073" lon="5.78559">
        <ele>891.7</ele>
        <time>2021-04-22T12:34:21Z</time>
      </trkpt>
      <trkpt lat="44.86072" lon="5.78563">
        <ele>891.9</ele>
        <time>2021-04-22T12:34:22Z</time>
      </trkpt>
      <trkpt lat="44.86071" lon="5.78567">
        <ele>892.1</ele>
        <time>2021-04-22T12:34:23Z</time>
      </trkpt>
      <trkpt lat="44.86071" lon="5.78575">
        <ele>892.5</ele>
        <time>2021-04-22T12:34:25Z</time>
      </trkpt>
      <trkpt lat="44.86072" lon="5.78582">
        <ele>892.9</ele>
        <time>2021-04-22T12:34:27Z</time>
      </trkpt>
      <trkpt lat="44.86074" lon="5.78592">
        <ele>893.3</ele>
        <time>2021-04-22T12:34:29Z</time>
      </trkpt>
      <trkpt lat="44.86077" lon="5.78599">
        <ele>893.8</ele>
        <time>2021-04-22T12:34:31Z</time>
      </trkpt>
      <trkpt lat="44.86078" lon="5.78602">
        <ele>894</ele>
        <time>2021-04-22T12:34:32Z</time>
      </trkpt>
      <trkpt lat="44.8608" lon="5.78606">
        <ele>894.2</ele>
        <time>2021-04-22T12:34:33Z</time>
      </trkpt>
      <trkpt lat="44.86082" lon="5.7861">
        <ele>894.5</ele>
        <time>2021-04-22T12:34:34Z</time>
      </trkpt>
      <trkpt lat="44.86082" lon="5.78615">
        <ele>894.8</ele>
        <time>2021-04-22T12:34:36Z</time>
      </trkpt>
      <trkpt lat="44.86083" lon="5.78616">
        <ele>894.8</ele>
        <time>2021-04-22T12:34:37Z</time>
      </trkpt>
      <trkpt lat="44.86086" lon="5.78621">
        <ele>895.2</ele>
        <time>2021-04-22T12:34:38Z</time>
      </trkpt>
      <trkpt lat="44.8609" lon="5.78624">
        <ele>895.6</ele>
        <time>2021-04-22T12:34:39Z</time>
      </trkpt>
      <trkpt lat="44.86096" lon="5.78623">
        <ele>896</ele>
        <time>2021-04-22T12:34:40Z</time>
      </trkpt>
      <trkpt lat="44.86099" lon="5.78623">
        <ele>896.1</ele>
        <time>2021-04-22T12:34:42Z</time>
      </trkpt>
      <trkpt lat="44.861" lon="5.78622">
        <ele>896</ele>
        <time>2021-04-22T12:34:43Z</time>
      </trkpt>
      <trkpt lat="44.86101" lon="5.78622">
        <ele>895.9</ele>
        <time>2021-04-22T12:34:44Z</time>
      </trkpt>
      <trkpt lat="44.86102" lon="5.78622">
        <ele>895.8</ele>
        <time>2021-04-22T12:34:45Z</time>
      </trkpt>
      <trkpt lat="44.86102" lon="5.78622">
        <ele>895.8</ele>
        <time>2021-04-22T12:34:46Z</time>
      </trkpt>
      <trkpt lat="44.86103" lon="5.78621">
        <ele>895.8</ele>
        <time>2021-04-22T12:34:47Z</time>
      </trkpt>
      <trkpt lat="44.86103" lon="5.78621">
        <ele>895.7</ele>
        <time>2021-04-22T12:34:48Z</time>
      </trkpt>
      <trkpt lat="44.86103" lon="5.78621">
        <ele>895.7</ele>
        <time>2021-04-22T12:34:49Z</time>
      </trkpt>
      <trkpt lat="44.86104" lon="5.78621">
        <ele>895.7</ele>
        <time>2021-04-22T12:34:50Z</time>
      </trkpt>
      <trkpt lat="44.86103" lon="5.78616">
        <ele>895.2</ele>
        <time>2021-04-22T12:36:02Z</time>
      </trkpt>
      <trkpt lat="44.86102" lon="5.78611">
        <ele>894.9</ele>
        <time>2021-04-22T12:36:03Z</time>
      </trkpt>
      <trkpt lat="44.86099" lon="5.78601">
        <ele>894.1</ele>
        <time>2021-04-22T12:36:05Z</time>
      </trkpt>
      <trkpt lat="44.86096" lon="5.78594">
        <ele>893.5</ele>
        <time>2021-04-22T12:36:06Z</time>
      </trkpt>
      <trkpt lat="44.86091" lon="5.78577">
        <ele>892.3</ele>
        <time>2021-04-22T12:36:08Z</time>
      </trkpt>
      <trkpt lat="44.86087" lon="5.78569">
        <ele>891.8</ele>
        <time>2021-04-22T12:36:09Z</time>
      </trkpt>
      <trkpt lat="44.86084" lon="5.7856">
        <ele>891.2</ele>
        <time>2021-04-22T12:36:10Z</time>
      </trkpt>
      <trkpt lat="44.86081" lon="5.78551">
        <ele>890.6</ele>
        <time>2021-04-22T12:36:11Z</time>
      </trkpt>
      <trkpt lat="44.86078" lon="5.78541">
        <ele>890.1</ele>
        <time>2021-04-22T12:36:12Z</time>
      </trkpt>
      <trkpt lat="44.86075" lon="5.78531">
        <ele>889.5</ele>
        <time>2021-04-22T12:36:13Z</time>
      </trkpt>
      <trkpt lat="44.86071" lon="5.78521">
        <ele>889</ele>
        <time>2021-04-22T12:36:14Z</time>
      </trkpt>
      <trkpt lat="44.86067" lon="5.78511">
        <ele>888.5</ele>
        <time>2021-04-22T12:36:15Z</time>
      </trkpt>
      <trkpt lat="44.86063" lon="5.785">
        <ele>888</ele>
        <time>2021-04-22T12:36:16Z</time>
      </trkpt>
      <trkpt lat="44.86059" lon="5.7849">
        <ele>887.5</ele>
        <time>2021-04-22T12:36:17Z</time>
      </trkpt>
      <trkpt lat="44.86055" lon="5.7848">
        <ele>887</ele>
        <time>2021-04-22T12:36:18Z</time>
      </trkpt>
      <trkpt lat="44.86051" lon="5.78469">
        <ele>886.5</ele>
        <time>2021-04-22T12:36:19Z</time>
      </trkpt>
      <trkpt lat="44.86046" lon="5.78458">
        <ele>886</ele>
        <time>2021-04-22T12:36:20Z</time>
      </trkpt>
      <trkpt lat="44.86041" lon="5.78448">
        <ele>885.5</ele>
        <time>2021-04-22T12:36:21Z</time>
      </trkpt>
      <trkpt lat="44.86035" lon="5.78438">
        <ele>885</ele>
        <time>2021-04-22T12:36:22Z</time>
      </trkpt>
      <trkpt lat="44.86029" lon="5.78428">
        <ele>884.5</ele>
        <time>2021-04-22T12:36:23Z</time>
      </trkpt>
      <trkpt lat="44.86023" lon="5.78418">
        <ele>883.9</ele>
        <time>2021-04-22T12:36:24Z</time>
      </trkpt>
      <trkpt lat="44.86017" lon="5.78408">
        <ele>883.3</ele>
        <time>2021-04-22T12:36:25Z</time>
      </trkpt>
      <trkpt lat="44.86011" lon="5.78398">
        <ele>882.8</ele>
        <time>2021-04-22T12:36:26Z</time>
      </trkpt>
      <trkpt lat="44.86005" lon="5.78388">
        <ele>882.2</ele>
        <time>2021-04-22T12:36:27Z</time>
      </trkpt>
      <trkpt lat="44.85998" lon="5.78378">
        <ele>881.7</ele>
        <time>2021-04-22T12:36:28Z</time>
      </trkpt>
      <trkpt lat="44.85992" lon="5.78369">
        <ele>881.2</ele>
        <time>2021-04-22T12:36:29Z</time>
      </trkpt>
      <trkpt lat="44.85986" lon="5.78358">
        <ele>880.7</ele>
        <time>2021-04-22T12:36:30Z</time>
      </trkpt>
      <trkpt lat="44.8598" lon="5.78348">
        <ele>880.2</ele>
        <time>2021-04-22T12:36:31Z</time>
      </trkpt>
      <trkpt lat="44.85976" lon="5.78335">
        <ele>879.4</ele>
        <time>2021-04-22T12:36:32Z</time>
      </trkpt>
      <trkpt lat="44.85974" lon="5.78323">
        <ele>878.7</ele>
        <time>2021-04-22T12:36:33Z</time>
      </trkpt>
      <trkpt lat="44.85973" lon="5.7831">
        <ele>878</ele>
        <time>2021-04-22T12:36:34Z</time>
      </trkpt>
      <trkpt lat="44.85972" lon="5.78296">
        <ele>877.4</ele>
        <time>2021-04-22T12:36:35Z</time>
      </trkpt>
      <trkpt lat="44.85971" lon="5.78284">
        <ele>876.7</ele>
        <time>2021-04-22T12:36:36Z</time>
      </trkpt>
      <trkpt lat="44.85971" lon="5.78271">
        <ele>876</ele>
        <time>2021-04-22T12:36:37Z</time>
      </trkpt>
      <trkpt lat="44.8597" lon="5.78258">
        <ele>875.3</ele>
        <time>2021-04-22T12:36:38Z</time>
      </trkpt>
      <trkpt lat="44.85969" lon="5.78244">
        <ele>874.5</ele>
        <time>2021-04-22T12:36:39Z</time>
      </trkpt>
      <trkpt lat="44.85967" lon="5.78231">
        <ele>873.7</ele>
        <time>2021-04-22T12:36:40Z</time>
      </trkpt>
      <trkpt lat="44.85963" lon="5.78218">
        <ele>872.9</ele>
        <time>2021-04-22T12:36:41Z</time>
      </trkpt>
      <trkpt lat="44.85959" lon="5.78205">
        <ele>872</ele>
        <time>2021-04-22T12:36:42Z</time>
      </trkpt>
      <trkpt lat="44.85954" lon="5.78192">
        <ele>871.1</ele>
        <time>2021-04-22T12:36:43Z</time>
      </trkpt>
      <trkpt lat="44.8595" lon="5.78178">
        <ele>870.2</ele>
        <time>2021-04-22T12:36:44Z</time>
      </trkpt>
      <trkpt lat="44.85947" lon="5.78164">
        <ele>869.2</ele>
        <time>2021-04-22T12:36:45Z</time>
      </trkpt>
      <trkpt lat="44.85944" lon="5.78149">
        <ele>868.2</ele>
        <time>2021-04-22T12:36:46Z</time>
      </trkpt>
      <trkpt lat="44.85941" lon="5.78134">
        <ele>867.3</ele>
        <time>2021-04-22T12:36:47Z</time>
      </trkpt>
      <trkpt lat="44.85938" lon="5.7812">
        <ele>866.4</ele>
        <time>2021-04-22T12:36:48Z</time>
      </trkpt>
      <trkpt lat="44.85935" lon="5.78105">
        <ele>865.6</ele>
        <time>2021-04-22T12:36:49Z</time>
      </trkpt>
      <trkpt lat="44.85933" lon="5.7809">
        <ele>864.8</ele>
        <time>2021-04-22T12:36:50Z</time>
      </trkpt>
      <trkpt lat="44.85931" lon="5.78073">
        <ele>864</ele>
        <time>2021-04-22T12:36:51Z</time>
      </trkpt>
      <trkpt lat="44.8593" lon="5.78057">
        <ele>863.2</ele>
        <time>2021-04-22T12:36:52Z</time>
      </trkpt>
      <trkpt lat="44.8593" lon="5.78041">
        <ele>862.4</ele>
        <time>2021-04-22T12:36:53Z</time>
      </trkpt>
      <trkpt lat="44.85932" lon="5.78026">
        <ele>861.6</ele>
        <time>2021-04-22T12:36:54Z</time>
      </trkpt>
      <trkpt lat="44.85935" lon="5.78014">
        <ele>860.9</ele>
        <time>2021-04-22T12:36:55Z</time>
      </trkpt>
      <trkpt lat="44.85935" lon="5.78003">
        <ele>860.3</ele>
        <time>2021-04-22T12:36:56Z</time>
      </trkpt>
      <trkpt lat="44.8593" lon="5.77993">
        <ele>859.9</ele>
        <time>2021-04-22T12:36:57Z</time>
      </trkpt>
      <trkpt lat="44.85921" lon="5.77989">
        <ele>859.5</ele>
        <time>2021-04-22T12:36:58Z</time>
      </trkpt>
      <trkpt lat="44.85913" lon="5.77991">
        <ele>859</ele>
        <time>2021-04-22T12:36:59Z</time>
      </trkpt>
      <trkpt lat="44.85905" lon="5.78001">
        <ele>858.2</ele>
        <time>2021-04-22T12:37:00Z</time>
      </trkpt>
      <trkpt lat="44.85901" lon="5.78014">
        <ele>857.4</ele>
        <time>2021-04-22T12:37:01Z</time>
      </trkpt>
      <trkpt lat="44.85897" lon="5.78027">
        <ele>856.6</ele>
        <time>2021-04-22T12:37:02Z</time>
      </trkpt>
      <trkpt lat="44.85895" lon="5.78041">
        <ele>855.8</ele>
        <time>2021-04-22T12:37:03Z</time>
      </trkpt>
      <trkpt lat="44.85891" lon="5.78054">
        <ele>855</ele>
        <time>2021-04-22T12:37:04Z</time>
      </trkpt>
      <trkpt lat="44.85887" lon="5.78068">
        <ele>854.2</ele>
        <time>2021-04-22T12:37:05Z</time>
      </trkpt>
      <trkpt lat="44.85882" lon="5.78082">
        <ele>853.3</ele>
        <time>2021-04-22T12:37:06Z</time>
      </trkpt>
      <trkpt lat="44.85876" lon="5.78095">
        <ele>852.4</ele>
        <time>2021-04-22T12:37:07Z</time>
      </trkpt>
      <trkpt lat="44.85868" lon="5.78107">
        <ele>851.5</ele>
        <time>2021-04-22T12:37:08Z</time>
      </trkpt>
      <trkpt lat="44.85859" lon="5.78117">
        <ele>850.6</ele>
        <time>2021-04-22T12:37:09Z</time>
      </trkpt>
      <trkpt lat="44.8585" lon="5.78127">
        <ele>849.8</ele>
        <time>2021-04-22T12:37:10Z</time>
      </trkpt>
      <trkpt lat="44.8584" lon="5.78136">
        <ele>848.8</ele>
        <time>2021-04-22T12:37:11Z</time>
      </trkpt>
      <trkpt lat="44.8583" lon="5.78144">
        <ele>847.8</ele>
        <time>2021-04-22T12:37:12Z</time>
      </trkpt>
      <trkpt lat="44.85819" lon="5.78151">
        <ele>846.7</ele>
        <time>2021-04-22T12:37:13Z</time>
      </trkpt>
      <trkpt lat="44.85807" lon="5.78156">
        <ele>845.6</ele>
        <time>2021-04-22T12:37:14Z</time>
      </trkpt>
      <trkpt lat="44.85795" lon="5.7816">
        <ele>844.6</ele>
        <time>2021-04-22T12:37:15Z</time>
      </trkpt>
      <trkpt lat="44.85783" lon="5.78161">
        <ele>843.5</ele>
        <time>2021-04-22T12:37:16Z</time>
      </trkpt>
      <trkpt lat="44.8577" lon="5.78159">
        <ele>842.4</ele>
        <time>2021-04-22T12:37:17Z</time>
      </trkpt>
      <trkpt lat="44.85757" lon="5.78158">
        <ele>841.4</ele>
        <time>2021-04-22T12:37:18Z</time>
      </trkpt>
      <trkpt lat="44.85745" lon="5.78155">
        <ele>840.3</ele>
        <time>2021-04-22T12:37:19Z</time>
      </trkpt>
      <trkpt lat="44.85732" lon="5.7815">
        <ele>839.3</ele>
        <time>2021-04-22T12:37:20Z</time>
      </trkpt>
      <trkpt lat="44.8572" lon="5.78146">
        <ele>838.2</ele>
        <time>2021-04-22T12:37:21Z</time>
      </trkpt>
      <trkpt lat="44.85709" lon="5.78139">
        <ele>837.2</ele>
        <time>2021-04-22T12:37:22Z</time>
      </trkpt>
      <trkpt lat="44.85697" lon="5.7813">
        <ele>836.1</ele>
        <time>2021-04-22T12:37:23Z</time>
      </trkpt>
      <trkpt lat="44.85687" lon="5.78119">
        <ele>835.1</ele>
        <time>2021-04-22T12:37:24Z</time>
      </trkpt>
      <trkpt lat="44.85677" lon="5.78107">
        <ele>834</ele>
        <time>2021-04-22T12:37:25Z</time>
      </trkpt>
      <trkpt lat="44.85668" lon="5.78095">
        <ele>833.1</ele>
        <time>2021-04-22T12:37:26Z</time>
      </trkpt>
      <trkpt lat="44.85658" lon="5.78083">
        <ele>832.2</ele>
        <time>2021-04-22T12:37:27Z</time>
      </trkpt>
      <trkpt lat="44.85649" lon="5.78072">
        <ele>831.4</ele>
        <time>2021-04-22T12:37:28Z</time>
      </trkpt>
      <trkpt lat="44.8564" lon="5.7806">
        <ele>830.6</ele>
        <time>2021-04-22T12:37:29Z</time>
      </trkpt>
      <trkpt lat="44.85631" lon="5.78049">
        <ele>830</ele>
        <time>2021-04-22T12:37:30Z</time>
      </trkpt>
      <trkpt lat="44.85623" lon="5.78037">
        <ele>829.5</ele>
        <time>2021-04-22T12:37:31Z</time>
      </trkpt>
      <trkpt lat="44.85615" lon="5.78025">
        <ele>829.1</ele>
        <time>2021-04-22T12:37:32Z</time>
      </trkpt>
      <trkpt lat="44.85607" lon="5.78013">
        <ele>828.7</ele>
        <time>2021-04-22T12:37:33Z</time>
      </trkpt>
      <trkpt lat="44.856" lon="5.78001">
        <ele>828.4</ele>
        <time>2021-04-22T12:37:34Z</time>
      </trkpt>
      <trkpt lat="44.85593" lon="5.77989">
        <ele>828</ele>
        <time>2021-04-22T12:37:35Z</time>
      </trkpt>
      <trkpt lat="44.85587" lon="5.77978">
        <ele>827.8</ele>
        <time>2021-04-22T12:37:36Z</time>
      </trkpt>
      <trkpt lat="44.85581" lon="5.77967">
        <ele>827.6</ele>
        <time>2021-04-22T12:37:37Z</time>
      </trkpt>
      <trkpt lat="44.85575" lon="5.77956">
        <ele>827.5</ele>
        <time>2021-04-22T12:37:38Z</time>
      </trkpt>
      <trkpt lat="44.8557" lon="5.77945">
        <ele>827.3</ele>
        <time>2021-04-22T12:37:39Z</time>
      </trkpt>
      <trkpt lat="44.85564" lon="5.77934">
        <ele>827.2</ele>
        <time>2021-04-22T12:37:40Z</time>
      </trkpt>
      <trkpt lat="44.85559" lon="5.77925">
        <ele>827.1</ele>
        <time>2021-04-22T12:37:41Z</time>
      </trkpt>
      <trkpt lat="44.85553" lon="5.77915">
        <ele>827.1</ele>
        <time>2021-04-22T12:37:42Z</time>
      </trkpt>
      <trkpt lat="44.85548" lon="5.77905">
        <ele>827.1</ele>
        <time>2021-04-22T12:37:43Z</time>
      </trkpt>
      <trkpt lat="44.85543" lon="5.77896">
        <ele>827.1</ele>
        <time>2021-04-22T12:37:44Z</time>
      </trkpt>
      <trkpt lat="44.85538" lon="5.77887">
        <ele>827</ele>
        <time>2021-04-22T12:37:45Z</time>
      </trkpt>
      <trkpt lat="44.85533" lon="5.77879">
        <ele>827</ele>
        <time>2021-04-22T12:37:46Z</time>
      </trkpt>
      <trkpt lat="44.85527" lon="5.7787">
        <ele>827</ele>
        <time>2021-04-22T12:37:47Z</time>
      </trkpt>
      <trkpt lat="44.85522" lon="5.77862">
        <ele>827</ele>
        <time>2021-04-22T12:37:48Z</time>
      </trkpt>
      <trkpt lat="44.85517" lon="5.77854">
        <ele>827</ele>
        <time>2021-04-22T12:37:49Z</time>
      </trkpt>
      <trkpt lat="44.85513" lon="5.77846">
        <ele>827</ele>
        <time>2021-04-22T12:37:50Z</time>
      </trkpt>
      <trkpt lat="44.85508" lon="5.77837">
        <ele>827</ele>
        <time>2021-04-22T12:37:51Z</time>
      </trkpt>
      <trkpt lat="44.85504" lon="5.77828">
        <ele>827</ele>
        <time>2021-04-22T12:37:52Z</time>
      </trkpt>
      <trkpt lat="44.85499" lon="5.7782">
        <ele>826.9</ele>
        <time>2021-04-22T12:37:53Z</time>
      </trkpt>
      <trkpt lat="44.85495" lon="5.77813">
        <ele>826.9</ele>
        <time>2021-04-22T12:37:54Z</time>
      </trkpt>
      <trkpt lat="44.8549" lon="5.77805">
        <ele>826.9</ele>
        <time>2021-04-22T12:37:55Z</time>
      </trkpt>
      <trkpt lat="44.85486" lon="5.77797">
        <ele>826.9</ele>
        <time>2021-04-22T12:37:56Z</time>
      </trkpt>
      <trkpt lat="44.85481" lon="5.7779">
        <ele>826.9</ele>
        <time>2021-04-22T12:37:57Z</time>
      </trkpt>
      <trkpt lat="44.85477" lon="5.77782">
        <ele>826.9</ele>
        <time>2021-04-22T12:37:58Z</time>
      </trkpt>
      <trkpt lat="44.85472" lon="5.77775">
        <ele>827</ele>
        <time>2021-04-22T12:37:59Z</time>
      </trkpt>
      <trkpt lat="44.85467" lon="5.77769">
        <ele>827</ele>
        <time>2021-04-22T12:38:00Z</time>
      </trkpt>
      <trkpt lat="44.85463" lon="5.77761">
        <ele>827</ele>
        <time>2021-04-22T12:38:01Z</time>
      </trkpt>
      <trkpt lat="44.85459" lon="5.77754">
        <ele>826.9</ele>
        <time>2021-04-22T12:38:02Z</time>
      </trkpt>
      <trkpt lat="44.85455" lon="5.77748">
        <ele>826.9</ele>
        <time>2021-04-22T12:38:03Z</time>
      </trkpt>
      <trkpt lat="44.8545" lon="5.77742">
        <ele>826.9</ele>
        <time>2021-04-22T12:38:04Z</time>
      </trkpt>
      <trkpt lat="44.85446" lon="5.77735">
        <ele>826.9</ele>
        <time>2021-04-22T12:38:05Z</time>
      </trkpt>
      <trkpt lat="44.85441" lon="5.77729">
        <ele>826.9</ele>
        <time>2021-04-22T12:38:06Z</time>
      </trkpt>
      <trkpt lat="44.85438" lon="5.77723">
        <ele>826.9</ele>
        <time>2021-04-22T12:38:07Z</time>
      </trkpt>
      <trkpt lat="44.85434" lon="5.77717">
        <ele>826.9</ele>
        <time>2021-04-22T12:38:08Z</time>
      </trkpt>
      <trkpt lat="44.8543" lon="5.77712">
        <ele>826.9</ele>
        <time>2021-04-22T12:38:09Z</time>
      </trkpt>
      <trkpt lat="44.85427" lon="5.77706">
        <ele>827</ele>
        <time>2021-04-22T12:38:10Z</time>
      </trkpt>
      <trkpt lat="44.85423" lon="5.777">
        <ele>827</ele>
        <time>2021-04-22T12:38:11Z</time>
      </trkpt>
      <trkpt lat="44.8542" lon="5.77694">
        <ele>827</ele>
        <time>2021-04-22T12:38:12Z</time>
      </trkpt>
      <trkpt lat="44.85417" lon="5.77688">
        <ele>827.1</ele>
        <time>2021-04-22T12:38:13Z</time>
      </trkpt>
      <trkpt lat="44.85413" lon="5.77682">
        <ele>827.1</ele>
        <time>2021-04-22T12:38:14Z</time>
      </trkpt>
      <trkpt lat="44.8541" lon="5.77675">
        <ele>827.2</ele>
        <time>2021-04-22T12:38:15Z</time>
      </trkpt>
      <trkpt lat="44.85407" lon="5.77669">
        <ele>827.2</ele>
        <time>2021-04-22T12:38:16Z</time>
      </trkpt>
      <trkpt lat="44.85404" lon="5.77663">
        <ele>827.2</ele>
        <time>2021-04-22T12:38:17Z</time>
      </trkpt>
      <trkpt lat="44.85401" lon="5.77656">
        <ele>827.2</ele>
        <time>2021-04-22T12:38:18Z</time>
      </trkpt>
      <trkpt lat="44.85399" lon="5.7765">
        <ele>827.2</ele>
        <time>2021-04-22T12:38:19Z</time>
      </trkpt>
      <trkpt lat="44.85396" lon="5.77643">
        <ele>827.2</ele>
        <time>2021-04-22T12:38:20Z</time>
      </trkpt>
      <trkpt lat="44.85394" lon="5.77636">
        <ele>827.2</ele>
        <time>2021-04-22T12:38:21Z</time>
      </trkpt>
      <trkpt lat="44.85392" lon="5.77629">
        <ele>827.3</ele>
        <time>2021-04-22T12:38:22Z</time>
      </trkpt>
      <trkpt lat="44.85389" lon="5.77621">
        <ele>827.3</ele>
        <time>2021-04-22T12:38:23Z</time>
      </trkpt>
      <trkpt lat="44.85387" lon="5.77614">
        <ele>827.3</ele>
        <time>2021-04-22T12:38:24Z</time>
      </trkpt>
      <trkpt lat="44.85385" lon="5.77606">
        <ele>827.4</ele>
        <time>2021-04-22T12:38:25Z</time>
      </trkpt>
      <trkpt lat="44.85383" lon="5.77599">
        <ele>827.4</ele>
        <time>2021-04-22T12:38:26Z</time>
      </trkpt>
      <trkpt lat="44.85381" lon="5.77592">
        <ele>827.5</ele>
        <time>2021-04-22T12:38:27Z</time>
      </trkpt>
      <trkpt lat="44.85379" lon="5.77585">
        <ele>827.5</ele>
        <time>2021-04-22T12:38:28Z</time>
      </trkpt>
      <trkpt lat="44.85378" lon="5.77579">
        <ele>827.6</ele>
        <time>2021-04-22T12:38:29Z</time>
      </trkpt>
      <trkpt lat="44.85376" lon="5.77573">
        <ele>827.6</ele>
        <time>2021-04-22T12:38:30Z</time>
      </trkpt>
      <trkpt lat="44.85374" lon="5.77566">
        <ele>827.6</ele>
        <time>2021-04-22T12:38:31Z</time>
      </trkpt>
      <trkpt lat="44.85373" lon="5.77562">
        <ele>827.6</ele>
        <time>2021-04-22T12:38:32Z</time>
      </trkpt>
      <trkpt lat="44.85372" lon="5.77555">
        <ele>827.5</ele>
        <time>2021-04-22T12:38:33Z</time>
      </trkpt>
      <trkpt lat="44.8537" lon="5.77548">
        <ele>827.5</ele>
        <time>2021-04-22T12:38:34Z</time>
      </trkpt>
      <trkpt lat="44.85368" lon="5.77542">
        <ele>827.4</ele>
        <time>2021-04-22T12:38:35Z</time>
      </trkpt>
      <trkpt lat="44.85366" lon="5.77535">
        <ele>827.4</ele>
        <time>2021-04-22T12:38:36Z</time>
      </trkpt>
      <trkpt lat="44.85364" lon="5.77528">
        <ele>827.3</ele>
        <time>2021-04-22T12:38:37Z</time>
      </trkpt>
      <trkpt lat="44.85361" lon="5.7752">
        <ele>827.3</ele>
        <time>2021-04-22T12:38:38Z</time>
      </trkpt>
      <trkpt lat="44.8536" lon="5.77513">
        <ele>827.3</ele>
        <time>2021-04-22T12:38:39Z</time>
      </trkpt>
      <trkpt lat="44.85358" lon="5.77506">
        <ele>827.4</ele>
        <time>2021-04-22T12:38:40Z</time>
      </trkpt>
      <trkpt lat="44.85356" lon="5.77499">
        <ele>827.4</ele>
        <time>2021-04-22T12:38:41Z</time>
      </trkpt>
      <trkpt lat="44.85353" lon="5.77493">
        <ele>827.5</ele>
        <time>2021-04-22T12:38:42Z</time>
      </trkpt>
      <trkpt lat="44.85351" lon="5.77486">
        <ele>827.5</ele>
        <time>2021-04-22T12:38:43Z</time>
      </trkpt>
      <trkpt lat="44.85349" lon="5.7748">
        <ele>827.6</ele>
        <time>2021-04-22T12:38:44Z</time>
      </trkpt>
      <trkpt lat="44.85347" lon="5.77473">
        <ele>827.6</ele>
        <time>2021-04-22T12:38:45Z</time>
      </trkpt>
      <trkpt lat="44.85345" lon="5.77467">
        <ele>827.7</ele>
        <time>2021-04-22T12:38:46Z</time>
      </trkpt>
      <trkpt lat="44.85344" lon="5.7746">
        <ele>827.8</ele>
        <time>2021-04-22T12:38:47Z</time>
      </trkpt>
      <trkpt lat="44.85342" lon="5.77453">
        <ele>827.9</ele>
        <time>2021-04-22T12:38:48Z</time>
      </trkpt>
      <trkpt lat="44.85341" lon="5.77447">
        <ele>828</ele>
        <time>2021-04-22T12:38:49Z</time>
      </trkpt>
      <trkpt lat="44.85339" lon="5.7744">
        <ele>828.1</ele>
        <time>2021-04-22T12:38:50Z</time>
      </trkpt>
      <trkpt lat="44.85338" lon="5.77434">
        <ele>828.2</ele>
        <time>2021-04-22T12:38:51Z</time>
      </trkpt>
      <trkpt lat="44.85338" lon="5.77429">
        <ele>828.3</ele>
        <time>2021-04-22T12:38:52Z</time>
      </trkpt>
      <trkpt lat="44.85336" lon="5.77423">
        <ele>828.5</ele>
        <time>2021-04-22T12:38:53Z</time>
      </trkpt>
      <trkpt lat="44.85336" lon="5.77419">
        <ele>828.6</ele>
        <time>2021-04-22T12:38:54Z</time>
      </trkpt>
      <trkpt lat="44.85335" lon="5.77414">
        <ele>828.7</ele>
        <time>2021-04-22T12:38:55Z</time>
      </trkpt>
      <trkpt lat="44.85335" lon="5.77409">
        <ele>828.8</ele>
        <time>2021-04-22T12:38:56Z</time>
      </trkpt>
      <trkpt lat="44.85335" lon="5.77404">
        <ele>828.9</ele>
        <time>2021-04-22T12:38:57Z</time>
      </trkpt>
      <trkpt lat="44.85333" lon="5.77398">
        <ele>829</ele>
        <time>2021-04-22T12:38:59Z</time>
      </trkpt>
      <trkpt lat="44.85332" lon="5.77394">
        <ele>829.1</ele>
        <time>2021-04-22T12:39:00Z</time>
      </trkpt>
      <trkpt lat="44.85332" lon="5.77385">
        <ele>829.2</ele>
        <time>2021-04-22T12:39:01Z</time>
      </trkpt>
      <trkpt lat="44.8533" lon="5.77373">
        <ele>829.3</ele>
        <time>2021-04-22T12:39:02Z</time>
      </trkpt>
      <trkpt lat="44.8533" lon="5.77366">
        <ele>829.3</ele>
        <time>2021-04-22T12:39:04Z</time>
      </trkpt>
      <trkpt lat="44.85329" lon="5.77359">
        <ele>829.4</ele>
        <time>2021-04-22T12:39:05Z</time>
      </trkpt>
      <trkpt lat="44.85328" lon="5.77349">
        <ele>829.4</ele>
        <time>2021-04-22T12:39:06Z</time>
      </trkpt>
      <trkpt lat="44.85328" lon="5.77342">
        <ele>829.4</ele>
        <time>2021-04-22T12:39:08Z</time>
      </trkpt>
      <trkpt lat="44.85328" lon="5.77328">
        <ele>829.3</ele>
        <time>2021-04-22T12:39:10Z</time>
      </trkpt>
      <trkpt lat="44.85327" lon="5.77321">
        <ele>829.3</ele>
        <time>2021-04-22T12:39:11Z</time>
      </trkpt>
      <trkpt lat="44.85327" lon="5.77314">
        <ele>829.2</ele>
        <time>2021-04-22T12:39:12Z</time>
      </trkpt>
      <trkpt lat="44.85326" lon="5.77307">
        <ele>829.2</ele>
        <time>2021-04-22T12:39:13Z</time>
      </trkpt>
      <trkpt lat="44.85326" lon="5.773">
        <ele>829.2</ele>
        <time>2021-04-22T12:39:14Z</time>
      </trkpt>
      <trkpt lat="44.85325" lon="5.77293">
        <ele>829.1</ele>
        <time>2021-04-22T12:39:15Z</time>
      </trkpt>
      <trkpt lat="44.85325" lon="5.77286">
        <ele>829.1</ele>
        <time>2021-04-22T12:39:16Z</time>
      </trkpt>
      <trkpt lat="44.85325" lon="5.77279">
        <ele>829</ele>
        <time>2021-04-22T12:39:17Z</time>
      </trkpt>
      <trkpt lat="44.85325" lon="5.77272">
        <ele>828.9</ele>
        <time>2021-04-22T12:39:18Z</time>
      </trkpt>
      <trkpt lat="44.85325" lon="5.77265">
        <ele>828.8</ele>
        <time>2021-04-22T12:39:19Z</time>
      </trkpt>
      <trkpt lat="44.85324" lon="5.77257">
        <ele>828.8</ele>
        <time>2021-04-22T12:39:20Z</time>
      </trkpt>
      <trkpt lat="44.85324" lon="5.77249">
        <ele>828.7</ele>
        <time>2021-04-22T12:39:21Z</time>
      </trkpt>
      <trkpt lat="44.85323" lon="5.77242">
        <ele>828.6</ele>
        <time>2021-04-22T12:39:22Z</time>
      </trkpt>
      <trkpt lat="44.85323" lon="5.77234">
        <ele>828.5</ele>
        <time>2021-04-22T12:39:23Z</time>
      </trkpt>
      <trkpt lat="44.85322" lon="5.77226">
        <ele>828.5</ele>
        <time>2021-04-22T12:39:24Z</time>
      </trkpt>
      <trkpt lat="44.85321" lon="5.77218">
        <ele>828.5</ele>
        <time>2021-04-22T12:39:25Z</time>
      </trkpt>
      <trkpt lat="44.8532" lon="5.7721">
        <ele>828.4</ele>
        <time>2021-04-22T12:39:26Z</time>
      </trkpt>
      <trkpt lat="44.8532" lon="5.77202">
        <ele>828.4</ele>
        <time>2021-04-22T12:39:27Z</time>
      </trkpt>
      <trkpt lat="44.85319" lon="5.77194">
        <ele>828.4</ele>
        <time>2021-04-22T12:39:28Z</time>
      </trkpt>
      <trkpt lat="44.85318" lon="5.77187">
        <ele>828.4</ele>
        <time>2021-04-22T12:39:29Z</time>
      </trkpt>
      <trkpt lat="44.85318" lon="5.7718">
        <ele>828.3</ele>
        <time>2021-04-22T12:39:30Z</time>
      </trkpt>
      <trkpt lat="44.85317" lon="5.77172">
        <ele>828.3</ele>
        <time>2021-04-22T12:39:31Z</time>
      </trkpt>
      <trkpt lat="44.85317" lon="5.77165">
        <ele>828.3</ele>
        <time>2021-04-22T12:39:32Z</time>
      </trkpt>
      <trkpt lat="44.85317" lon="5.77157">
        <ele>828.3</ele>
        <time>2021-04-22T12:39:33Z</time>
      </trkpt>
      <trkpt lat="44.85316" lon="5.7715">
        <ele>828.3</ele>
        <time>2021-04-22T12:39:34Z</time>
      </trkpt>
      <trkpt lat="44.85315" lon="5.77142">
        <ele>828.2</ele>
        <time>2021-04-22T12:39:35Z</time>
      </trkpt>
      <trkpt lat="44.85314" lon="5.77135">
        <ele>828.2</ele>
        <time>2021-04-22T12:39:36Z</time>
      </trkpt>
      <trkpt lat="44.85313" lon="5.77127">
        <ele>828.2</ele>
        <time>2021-04-22T12:39:37Z</time>
      </trkpt>
      <trkpt lat="44.85312" lon="5.7712">
        <ele>828.2</ele>
        <time>2021-04-22T12:39:38Z</time>
      </trkpt>
      <trkpt lat="44.85312" lon="5.77112">
        <ele>828.2</ele>
        <time>2021-04-22T12:39:39Z</time>
      </trkpt>
      <trkpt lat="44.85311" lon="5.77105">
        <ele>828.1</ele>
        <time>2021-04-22T12:39:40Z</time>
      </trkpt>
      <trkpt lat="44.85311" lon="5.77097">
        <ele>828.1</ele>
        <time>2021-04-22T12:39:41Z</time>
      </trkpt>
      <trkpt lat="44.8531" lon="5.7709">
        <ele>828.1</ele>
        <time>2021-04-22T12:39:42Z</time>
      </trkpt>
      <trkpt lat="44.8531" lon="5.77083">
        <ele>828</ele>
        <time>2021-04-22T12:39:43Z</time>
      </trkpt>
      <trkpt lat="44.85309" lon="5.77076">
        <ele>828</ele>
        <time>2021-04-22T12:39:44Z</time>
      </trkpt>
      <trkpt lat="44.85309" lon="5.77069">
        <ele>828</ele>
        <time>2021-04-22T12:39:45Z</time>
      </trkpt>
      <trkpt lat="44.85309" lon="5.77062">
        <ele>827.9</ele>
        <time>2021-04-22T12:39:46Z</time>
      </trkpt>
      <trkpt lat="44.85308" lon="5.77055">
        <ele>827.9</ele>
        <time>2021-04-22T12:39:47Z</time>
      </trkpt>
      <trkpt lat="44.85307" lon="5.77048">
        <ele>827.8</ele>
        <time>2021-04-22T12:39:48Z</time>
      </trkpt>
      <trkpt lat="44.85307" lon="5.7704">
        <ele>827.8</ele>
        <time>2021-04-22T12:39:49Z</time>
      </trkpt>
      <trkpt lat="44.85306" lon="5.77033">
        <ele>827.7</ele>
        <time>2021-04-22T12:39:50Z</time>
      </trkpt>
      <trkpt lat="44.85305" lon="5.77025">
        <ele>827.7</ele>
        <time>2021-04-22T12:39:51Z</time>
      </trkpt>
      <trkpt lat="44.85304" lon="5.77018">
        <ele>827.7</ele>
        <time>2021-04-22T12:39:52Z</time>
      </trkpt>
      <trkpt lat="44.85303" lon="5.7701">
        <ele>827.7</ele>
        <time>2021-04-22T12:39:53Z</time>
      </trkpt>
      <trkpt lat="44.85302" lon="5.77002">
        <ele>827.7</ele>
        <time>2021-04-22T12:39:54Z</time>
      </trkpt>
      <trkpt lat="44.85302" lon="5.76995">
        <ele>827.6</ele>
        <time>2021-04-22T12:39:55Z</time>
      </trkpt>
      <trkpt lat="44.85301" lon="5.76987">
        <ele>827.6</ele>
        <time>2021-04-22T12:39:56Z</time>
      </trkpt>
      <trkpt lat="44.853" lon="5.76979">
        <ele>827.5</ele>
        <time>2021-04-22T12:39:57Z</time>
      </trkpt>
      <trkpt lat="44.85299" lon="5.76971">
        <ele>827.5</ele>
        <time>2021-04-22T12:39:58Z</time>
      </trkpt>
      <trkpt lat="44.85298" lon="5.76963">
        <ele>827.4</ele>
        <time>2021-04-22T12:39:59Z</time>
      </trkpt>
      <trkpt lat="44.85297" lon="5.76955">
        <ele>827.4</ele>
        <time>2021-04-22T12:40:00Z</time>
      </trkpt>
      <trkpt lat="44.85297" lon="5.76947">
        <ele>827.3</ele>
        <time>2021-04-22T12:40:01Z</time>
      </trkpt>
      <trkpt lat="44.85295" lon="5.7694">
        <ele>827.2</ele>
        <time>2021-04-22T12:40:02Z</time>
      </trkpt>
      <trkpt lat="44.85295" lon="5.76932">
        <ele>827.2</ele>
        <time>2021-04-22T12:40:03Z</time>
      </trkpt>
      <trkpt lat="44.85293" lon="5.76924">
        <ele>827.1</ele>
        <time>2021-04-22T12:40:04Z</time>
      </trkpt>
      <trkpt lat="44.85292" lon="5.76916">
        <ele>827</ele>
        <time>2021-04-22T12:40:05Z</time>
      </trkpt>
      <trkpt lat="44.85291" lon="5.76907">
        <ele>827</ele>
        <time>2021-04-22T12:40:06Z</time>
      </trkpt>
      <trkpt lat="44.85291" lon="5.769">
        <ele>826.9</ele>
        <time>2021-04-22T12:40:07Z</time>
      </trkpt>
      <trkpt lat="44.8529" lon="5.76892">
        <ele>826.9</ele>
        <time>2021-04-22T12:40:08Z</time>
      </trkpt>
      <trkpt lat="44.85289" lon="5.76884">
        <ele>826.8</ele>
        <time>2021-04-22T12:40:09Z</time>
      </trkpt>
      <trkpt lat="44.85289" lon="5.76876">
        <ele>826.8</ele>
        <time>2021-04-22T12:40:10Z</time>
      </trkpt>
      <trkpt lat="44.85288" lon="5.76868">
        <ele>826.7</ele>
        <time>2021-04-22T12:40:11Z</time>
      </trkpt>
      <trkpt lat="44.85287" lon="5.7686">
        <ele>826.6</ele>
        <time>2021-04-22T12:40:12Z</time>
      </trkpt>
      <trkpt lat="44.85287" lon="5.76853">
        <ele>826.5</ele>
        <time>2021-04-22T12:40:13Z</time>
      </trkpt>
      <trkpt lat="44.85286" lon="5.76845">
        <ele>826.4</ele>
        <time>2021-04-22T12:40:14Z</time>
      </trkpt>
      <trkpt lat="44.85286" lon="5.76837">
        <ele>826.4</ele>
        <time>2021-04-22T12:40:15Z</time>
      </trkpt>
      <trkpt lat="44.85286" lon="5.76829">
        <ele>826.3</ele>
        <time>2021-04-22T12:40:16Z</time>
      </trkpt>
      <trkpt lat="44.85287" lon="5.76822">
        <ele>826.3</ele>
        <time>2021-04-22T12:40:17Z</time>
      </trkpt>
      <trkpt lat="44.85287" lon="5.76815">
        <ele>826.2</ele>
        <time>2021-04-22T12:40:18Z</time>
      </trkpt>
      <trkpt lat="44.85287" lon="5.76807">
        <ele>826.2</ele>
        <time>2021-04-22T12:40:19Z</time>
      </trkpt>
      <trkpt lat="44.85287" lon="5.76799">
        <ele>826.1</ele>
        <time>2021-04-22T12:40:20Z</time>
      </trkpt>
      <trkpt lat="44.85287" lon="5.76792">
        <ele>826.1</ele>
        <time>2021-04-22T12:40:21Z</time>
      </trkpt>
      <trkpt lat="44.85287" lon="5.76784">
        <ele>826</ele>
        <time>2021-04-22T12:40:22Z</time>
      </trkpt>
      <trkpt lat="44.85287" lon="5.76776">
        <ele>826</ele>
        <time>2021-04-22T12:40:23Z</time>
      </trkpt>
      <trkpt lat="44.85287" lon="5.76769">
        <ele>825.9</ele>
        <time>2021-04-22T12:40:24Z</time>
      </trkpt>
      <trkpt lat="44.85288" lon="5.76762">
        <ele>825.9</ele>
        <time>2021-04-22T12:40:25Z</time>
      </trkpt>
      <trkpt lat="44.85288" lon="5.76754">
        <ele>825.8</ele>
        <time>2021-04-22T12:40:26Z</time>
      </trkpt>
      <trkpt lat="44.85287" lon="5.76746">
        <ele>825.8</ele>
        <time>2021-04-22T12:40:27Z</time>
      </trkpt>
      <trkpt lat="44.85287" lon="5.76739">
        <ele>825.7</ele>
        <time>2021-04-22T12:40:28Z</time>
      </trkpt>
      <trkpt lat="44.85287" lon="5.76732">
        <ele>825.7</ele>
        <time>2021-04-22T12:40:29Z</time>
      </trkpt>
      <trkpt lat="44.85287" lon="5.76724">
        <ele>825.6</ele>
        <time>2021-04-22T12:40:30Z</time>
      </trkpt>
      <trkpt lat="44.85287" lon="5.76717">
        <ele>825.6</ele>
        <time>2021-04-22T12:40:31Z</time>
      </trkpt>
      <trkpt lat="44.85287" lon="5.76709">
        <ele>825.6</ele>
        <time>2021-04-22T12:40:32Z</time>
      </trkpt>
      <trkpt lat="44.85287" lon="5.76702">
        <ele>825.5</ele>
        <time>2021-04-22T12:40:33Z</time>
      </trkpt>
      <trkpt lat="44.85288" lon="5.76695">
        <ele>825.5</ele>
        <time>2021-04-22T12:40:34Z</time>
      </trkpt>
      <trkpt lat="44.85288" lon="5.76688">
        <ele>825.4</ele>
        <time>2021-04-22T12:40:35Z</time>
      </trkpt>
      <trkpt lat="44.85289" lon="5.76681">
        <ele>825.4</ele>
        <time>2021-04-22T12:40:36Z</time>
      </trkpt>
      <trkpt lat="44.85288" lon="5.76674">
        <ele>825.4</ele>
        <time>2021-04-22T12:40:37Z</time>
      </trkpt>
      <trkpt lat="44.85288" lon="5.76667">
        <ele>825.3</ele>
        <time>2021-04-22T12:40:38Z</time>
      </trkpt>
      <trkpt lat="44.85288" lon="5.7666">
        <ele>825.3</ele>
        <time>2021-04-22T12:40:39Z</time>
      </trkpt>
      <trkpt lat="44.85288" lon="5.76652">
        <ele>825.3</ele>
        <time>2021-04-22T12:40:40Z</time>
      </trkpt>
      <trkpt lat="44.85287" lon="5.76645">
        <ele>825.2</ele>
        <time>2021-04-22T12:40:41Z</time>
      </trkpt>
      <trkpt lat="44.85287" lon="5.76638">
        <ele>825.2</ele>
        <time>2021-04-22T12:40:42Z</time>
      </trkpt>
      <trkpt lat="44.85287" lon="5.7663">
        <ele>825.2</ele>
        <time>2021-04-22T12:40:43Z</time>
      </trkpt>
      <trkpt lat="44.85287" lon="5.76623">
        <ele>825.1</ele>
        <time>2021-04-22T12:40:44Z</time>
      </trkpt>
      <trkpt lat="44.85287" lon="5.76615">
        <ele>825</ele>
        <time>2021-04-22T12:40:45Z</time>
      </trkpt>
      <trkpt lat="44.85287" lon="5.76608">
        <ele>825</ele>
        <time>2021-04-22T12:40:46Z</time>
      </trkpt>
      <trkpt lat="44.85288" lon="5.76601">
        <ele>824.9</ele>
        <time>2021-04-22T12:40:47Z</time>
      </trkpt>
      <trkpt lat="44.85287" lon="5.76593">
        <ele>824.8</ele>
        <time>2021-04-22T12:40:48Z</time>
      </trkpt>
      <trkpt lat="44.85287" lon="5.76586">
        <ele>824.8</ele>
        <time>2021-04-22T12:40:49Z</time>
      </trkpt>
      <trkpt lat="44.85287" lon="5.76578">
        <ele>824.7</ele>
        <time>2021-04-22T12:40:50Z</time>
      </trkpt>
      <trkpt lat="44.85288" lon="5.7657">
        <ele>824.7</ele>
        <time>2021-04-22T12:40:51Z</time>
      </trkpt>
      <trkpt lat="44.85289" lon="5.76562">
        <ele>824.6</ele>
        <time>2021-04-22T12:40:52Z</time>
      </trkpt>
      <trkpt lat="44.8529" lon="5.76554">
        <ele>824.6</ele>
        <time>2021-04-22T12:40:53Z</time>
      </trkpt>
      <trkpt lat="44.85291" lon="5.76546">
        <ele>824.6</ele>
        <time>2021-04-22T12:40:54Z</time>
      </trkpt>
      <trkpt lat="44.85292" lon="5.76538">
        <ele>824.5</ele>
        <time>2021-04-22T12:40:55Z</time>
      </trkpt>
      <trkpt lat="44.85292" lon="5.7653">
        <ele>824.5</ele>
        <time>2021-04-22T12:40:56Z</time>
      </trkpt>
      <trkpt lat="44.85292" lon="5.76523">
        <ele>824.5</ele>
        <time>2021-04-22T12:40:57Z</time>
      </trkpt>
      <trkpt lat="44.85292" lon="5.76515">
        <ele>824.5</ele>
        <time>2021-04-22T12:40:58Z</time>
      </trkpt>
      <trkpt lat="44.85292" lon="5.76508">
        <ele>824.5</ele>
        <time>2021-04-22T12:40:59Z</time>
      </trkpt>
      <trkpt lat="44.85292" lon="5.765">
        <ele>824.5</ele>
        <time>2021-04-22T12:41:00Z</time>
      </trkpt>
      <trkpt lat="44.85292" lon="5.76492">
        <ele>824.5</ele>
        <time>2021-04-22T12:41:01Z</time>
      </trkpt>
      <trkpt lat="44.85293" lon="5.76485">
        <ele>824.4</ele>
        <time>2021-04-22T12:41:02Z</time>
      </trkpt>
      <trkpt lat="44.85294" lon="5.76477">
        <ele>824.4</ele>
        <time>2021-04-22T12:41:03Z</time>
      </trkpt>
      <trkpt lat="44.85294" lon="5.76469">
        <ele>824.4</ele>
        <time>2021-04-22T12:41:04Z</time>
      </trkpt>
      <trkpt lat="44.85295" lon="5.76462">
        <ele>824.4</ele>
        <time>2021-04-22T12:41:05Z</time>
      </trkpt>
      <trkpt lat="44.85296" lon="5.76456">
        <ele>824.4</ele>
        <time>2021-04-22T12:41:06Z</time>
      </trkpt>
      <trkpt lat="44.85297" lon="5.76448">
        <ele>824.4</ele>
        <time>2021-04-22T12:41:07Z</time>
      </trkpt>
      <trkpt lat="44.85297" lon="5.76441">
        <ele>824.3</ele>
        <time>2021-04-22T12:41:08Z</time>
      </trkpt>
      <trkpt lat="44.85297" lon="5.76434">
        <ele>824.3</ele>
        <time>2021-04-22T12:41:09Z</time>
      </trkpt>
      <trkpt lat="44.85298" lon="5.76426">
        <ele>824.3</ele>
        <time>2021-04-22T12:41:10Z</time>
      </trkpt>
      <trkpt lat="44.85298" lon="5.76419">
        <ele>824.2</ele>
        <time>2021-04-22T12:41:11Z</time>
      </trkpt>
      <trkpt lat="44.85299" lon="5.76412">
        <ele>824.2</ele>
        <time>2021-04-22T12:41:12Z</time>
      </trkpt>
      <trkpt lat="44.85301" lon="5.76405">
        <ele>824.2</ele>
        <time>2021-04-22T12:41:13Z</time>
      </trkpt>
      <trkpt lat="44.85302" lon="5.76397">
        <ele>824.1</ele>
        <time>2021-04-22T12:41:14Z</time>
      </trkpt>
      <trkpt lat="44.85302" lon="5.76389">
        <ele>824.1</ele>
        <time>2021-04-22T12:41:15Z</time>
      </trkpt>
      <trkpt lat="44.85303" lon="5.76382">
        <ele>824.1</ele>
        <time>2021-04-22T12:41:16Z</time>
      </trkpt>
      <trkpt lat="44.85304" lon="5.76375">
        <ele>824.1</ele>
        <time>2021-04-22T12:41:17Z</time>
      </trkpt>
      <trkpt lat="44.85305" lon="5.76369">
        <ele>824</ele>
        <time>2021-04-22T12:41:18Z</time>
      </trkpt>
      <trkpt lat="44.85306" lon="5.76362">
        <ele>824</ele>
        <time>2021-04-22T12:41:19Z</time>
      </trkpt>
      <trkpt lat="44.85306" lon="5.76355">
        <ele>823.9</ele>
        <time>2021-04-22T12:41:20Z</time>
      </trkpt>
      <trkpt lat="44.85307" lon="5.76347">
        <ele>823.9</ele>
        <time>2021-04-22T12:41:21Z</time>
      </trkpt>
      <trkpt lat="44.85309" lon="5.7634">
        <ele>823.9</ele>
        <time>2021-04-22T12:41:22Z</time>
      </trkpt>
      <trkpt lat="44.85311" lon="5.76333">
        <ele>823.8</ele>
        <time>2021-04-22T12:41:23Z</time>
      </trkpt>
      <trkpt lat="44.85313" lon="5.76327">
        <ele>823.8</ele>
        <time>2021-04-22T12:41:24Z</time>
      </trkpt>
      <trkpt lat="44.85314" lon="5.7632">
        <ele>823.8</ele>
        <time>2021-04-22T12:41:25Z</time>
      </trkpt>
      <trkpt lat="44.85315" lon="5.76313">
        <ele>823.8</ele>
        <time>2021-04-22T12:41:26Z</time>
      </trkpt>
      <trkpt lat="44.85315" lon="5.76309">
        <ele>823.8</ele>
        <time>2021-04-22T12:41:27Z</time>
      </trkpt>
      <trkpt lat="44.85315" lon="5.76301">
        <ele>823.8</ele>
        <time>2021-04-22T12:41:28Z</time>
      </trkpt>
      <trkpt lat="44.85316" lon="5.76292">
        <ele>823.8</ele>
        <time>2021-04-22T12:41:29Z</time>
      </trkpt>
      <trkpt lat="44.85316" lon="5.76284">
        <ele>823.7</ele>
        <time>2021-04-22T12:41:30Z</time>
      </trkpt>
      <trkpt lat="44.85316" lon="5.76275">
        <ele>823.7</ele>
        <time>2021-04-22T12:41:31Z</time>
      </trkpt>
      <trkpt lat="44.85316" lon="5.76267">
        <ele>823.7</ele>
        <time>2021-04-22T12:41:32Z</time>
      </trkpt>
      <trkpt lat="44.85317" lon="5.76259">
        <ele>823.7</ele>
        <time>2021-04-22T12:41:33Z</time>
      </trkpt>
      <trkpt lat="44.85317" lon="5.76251">
        <ele>823.7</ele>
        <time>2021-04-22T12:41:34Z</time>
      </trkpt>
      <trkpt lat="44.85317" lon="5.76244">
        <ele>823.7</ele>
        <time>2021-04-22T12:41:35Z</time>
      </trkpt>
      <trkpt lat="44.85317" lon="5.76236">
        <ele>823.7</ele>
        <time>2021-04-22T12:41:36Z</time>
      </trkpt>
      <trkpt lat="44.85317" lon="5.76231">
        <ele>823.7</ele>
        <time>2021-04-22T12:41:37Z</time>
      </trkpt>
      <trkpt lat="44.85317" lon="5.76229">
        <ele>823.7</ele>
        <time>2021-04-22T12:41:38Z</time>
      </trkpt>
      <trkpt lat="44.85317" lon="5.76226">
        <ele>823.7</ele>
        <time>2021-04-22T12:41:39Z</time>
      </trkpt>
      <trkpt lat="44.85317" lon="5.76225">
        <ele>823.7</ele>
        <time>2021-04-22T12:41:40Z</time>
      </trkpt>
      <trkpt lat="44.85318" lon="5.76224">
        <ele>823.7</ele>
        <time>2021-04-22T12:41:41Z</time>
      </trkpt>
      <trkpt lat="44.85318" lon="5.7622">
        <ele>823.8</ele>
        <time>2021-04-22T12:41:42Z</time>
      </trkpt>
      <trkpt lat="44.8532" lon="5.76218">
        <ele>823.8</ele>
        <time>2021-04-22T12:41:44Z</time>
      </trkpt>
      <trkpt lat="44.85321" lon="5.76217">
        <ele>823.7</ele>
        <time>2021-04-22T12:41:45Z</time>
      </trkpt>
      <trkpt lat="44.85324" lon="5.76213">
        <ele>823.6</ele>
        <time>2021-04-22T12:41:46Z</time>
      </trkpt>
      <trkpt lat="44.85331" lon="5.76206">
        <ele>823.6</ele>
        <time>2021-04-22T12:41:48Z</time>
      </trkpt>
      <trkpt lat="44.85335" lon="5.76201">
        <ele>823.6</ele>
        <time>2021-04-22T12:41:49Z</time>
      </trkpt>
      <trkpt lat="44.85342" lon="5.76196">
        <ele>823.6</ele>
        <time>2021-04-22T12:41:51Z</time>
      </trkpt>
      <trkpt lat="44.85347" lon="5.76192">
        <ele>823.5</ele>
        <time>2021-04-22T12:41:53Z</time>
      </trkpt>
      <trkpt lat="44.85348" lon="5.76184">
        <ele>823.4</ele>
        <time>2021-04-22T12:41:54Z</time>
      </trkpt>
      <trkpt lat="44.85345" lon="5.76176">
        <ele>823.2</ele>
        <time>2021-04-22T12:41:55Z</time>
      </trkpt>
      <trkpt lat="44.85342" lon="5.76167">
        <ele>823</ele>
        <time>2021-04-22T12:41:57Z</time>
      </trkpt>
      <trkpt lat="44.8534" lon="5.76161">
        <ele>822.9</ele>
        <time>2021-04-22T12:41:58Z</time>
      </trkpt>
      <trkpt lat="44.85338" lon="5.76157">
        <ele>822.9</ele>
        <time>2021-04-22T12:41:59Z</time>
      </trkpt>
      <trkpt lat="44.85334" lon="5.76143">
        <ele>822.8</ele>
        <time>2021-04-22T12:42:01Z</time>
      </trkpt>
      <trkpt lat="44.85332" lon="5.76137">
        <ele>822.7</ele>
        <time>2021-04-22T12:42:02Z</time>
      </trkpt>
      <trkpt lat="44.8533" lon="5.76131">
        <ele>822.7</ele>
        <time>2021-04-22T12:42:03Z</time>
      </trkpt>
      <trkpt lat="44.85328" lon="5.76125">
        <ele>822.6</ele>
        <time>2021-04-22T12:42:04Z</time>
      </trkpt>
      <trkpt lat="44.85327" lon="5.76119">
        <ele>822.6</ele>
        <time>2021-04-22T12:42:05Z</time>
      </trkpt>
      <trkpt lat="44.85325" lon="5.76112">
        <ele>822.6</ele>
        <time>2021-04-22T12:42:06Z</time>
      </trkpt>
      <trkpt lat="44.85323" lon="5.76106">
        <ele>822.5</ele>
        <time>2021-04-22T12:42:07Z</time>
      </trkpt>
      <trkpt lat="44.85322" lon="5.76099">
        <ele>822.5</ele>
        <time>2021-04-22T12:42:08Z</time>
      </trkpt>
      <trkpt lat="44.8532" lon="5.76092">
        <ele>822.4</ele>
        <time>2021-04-22T12:42:09Z</time>
      </trkpt>
      <trkpt lat="44.85319" lon="5.76085">
        <ele>822.4</ele>
        <time>2021-04-22T12:42:10Z</time>
      </trkpt>
      <trkpt lat="44.85317" lon="5.76079">
        <ele>822.3</ele>
        <time>2021-04-22T12:42:11Z</time>
      </trkpt>
      <trkpt lat="44.85316" lon="5.76075">
        <ele>822.3</ele>
        <time>2021-04-22T12:42:12Z</time>
      </trkpt>
      <trkpt lat="44.85314" lon="5.76068">
        <ele>822.2</ele>
        <time>2021-04-22T12:42:13Z</time>
      </trkpt>
      <trkpt lat="44.85312" lon="5.7606">
        <ele>822.1</ele>
        <time>2021-04-22T12:42:14Z</time>
      </trkpt>
      <trkpt lat="44.8531" lon="5.76052">
        <ele>822</ele>
        <time>2021-04-22T12:42:15Z</time>
      </trkpt>
      <trkpt lat="44.85308" lon="5.76045">
        <ele>822</ele>
        <time>2021-04-22T12:42:16Z</time>
      </trkpt>
      <trkpt lat="44.85306" lon="5.76037">
        <ele>821.9</ele>
        <time>2021-04-22T12:42:17Z</time>
      </trkpt>
      <trkpt lat="44.85305" lon="5.7603">
        <ele>821.8</ele>
        <time>2021-04-22T12:42:18Z</time>
      </trkpt>
      <trkpt lat="44.85304" lon="5.76023">
        <ele>821.7</ele>
        <time>2021-04-22T12:42:19Z</time>
      </trkpt>
      <trkpt lat="44.85303" lon="5.76015">
        <ele>821.6</ele>
        <time>2021-04-22T12:42:20Z</time>
      </trkpt>
      <trkpt lat="44.85303" lon="5.76007">
        <ele>821.5</ele>
        <time>2021-04-22T12:42:21Z</time>
      </trkpt>
      <trkpt lat="44.85303" lon="5.75999">
        <ele>821.5</ele>
        <time>2021-04-22T12:42:22Z</time>
      </trkpt>
      <trkpt lat="44.85303" lon="5.75992">
        <ele>821.4</ele>
        <time>2021-04-22T12:42:23Z</time>
      </trkpt>
      <trkpt lat="44.85304" lon="5.75984">
        <ele>821.4</ele>
        <time>2021-04-22T12:42:24Z</time>
      </trkpt>
      <trkpt lat="44.85304" lon="5.75977">
        <ele>821.3</ele>
        <time>2021-04-22T12:42:25Z</time>
      </trkpt>
      <trkpt lat="44.85306" lon="5.7597">
        <ele>821.3</ele>
        <time>2021-04-22T12:42:26Z</time>
      </trkpt>
      <trkpt lat="44.8531" lon="5.75962">
        <ele>821.3</ele>
        <time>2021-04-22T12:42:27Z</time>
      </trkpt>
      <trkpt lat="44.85315" lon="5.75955">
        <ele>821.2</ele>
        <time>2021-04-22T12:42:28Z</time>
      </trkpt>
      <trkpt lat="44.85319" lon="5.7595">
        <ele>821.2</ele>
        <time>2021-04-22T12:42:29Z</time>
      </trkpt>
      <trkpt lat="44.85325" lon="5.75946">
        <ele>821.2</ele>
        <time>2021-04-22T12:42:30Z</time>
      </trkpt>
      <trkpt lat="44.8533" lon="5.75942">
        <ele>821.2</ele>
        <time>2021-04-22T12:42:31Z</time>
      </trkpt>
      <trkpt lat="44.85334" lon="5.75936">
        <ele>821.2</ele>
        <time>2021-04-22T12:42:32Z</time>
      </trkpt>
      <trkpt lat="44.85336" lon="5.75929">
        <ele>821.1</ele>
        <time>2021-04-22T12:42:33Z</time>
      </trkpt>
      <trkpt lat="44.85338" lon="5.75922">
        <ele>821.1</ele>
        <time>2021-04-22T12:42:34Z</time>
      </trkpt>
      <trkpt lat="44.8534" lon="5.75916">
        <ele>821.1</ele>
        <time>2021-04-22T12:42:35Z</time>
      </trkpt>
      <trkpt lat="44.85341" lon="5.75908">
        <ele>821</ele>
        <time>2021-04-22T12:42:36Z</time>
      </trkpt>
      <trkpt lat="44.85343" lon="5.759">
        <ele>821</ele>
        <time>2021-04-22T12:42:37Z</time>
      </trkpt>
      <trkpt lat="44.85344" lon="5.75892">
        <ele>821</ele>
        <time>2021-04-22T12:42:38Z</time>
      </trkpt>
      <trkpt lat="44.85345" lon="5.75884">
        <ele>820.9</ele>
        <time>2021-04-22T12:42:39Z</time>
      </trkpt>
      <trkpt lat="44.85346" lon="5.75876">
        <ele>820.9</ele>
        <time>2021-04-22T12:42:40Z</time>
      </trkpt>
      <trkpt lat="44.85347" lon="5.75869">
        <ele>821</ele>
        <time>2021-04-22T12:42:41Z</time>
      </trkpt>
      <trkpt lat="44.85348" lon="5.75862">
        <ele>821</ele>
        <time>2021-04-22T12:42:42Z</time>
      </trkpt>
      <trkpt lat="44.85349" lon="5.75855">
        <ele>821</ele>
        <time>2021-04-22T12:42:43Z</time>
      </trkpt>
      <trkpt lat="44.8535" lon="5.75848">
        <ele>821</ele>
        <time>2021-04-22T12:42:44Z</time>
      </trkpt>
      <trkpt lat="44.85351" lon="5.75841">
        <ele>821.1</ele>
        <time>2021-04-22T12:42:45Z</time>
      </trkpt>
      <trkpt lat="44.85351" lon="5.75833">
        <ele>821.1</ele>
        <time>2021-04-22T12:42:46Z</time>
      </trkpt>
      <trkpt lat="44.85352" lon="5.75826">
        <ele>821.1</ele>
        <time>2021-04-22T12:42:47Z</time>
      </trkpt>
      <trkpt lat="44.85352" lon="5.7582">
        <ele>821.1</ele>
        <time>2021-04-22T12:42:48Z</time>
      </trkpt>
      <trkpt lat="44.85352" lon="5.75812">
        <ele>821.1</ele>
        <time>2021-04-22T12:42:49Z</time>
      </trkpt>
      <trkpt lat="44.85352" lon="5.75806">
        <ele>821.1</ele>
        <time>2021-04-22T12:42:50Z</time>
      </trkpt>
      <trkpt lat="44.85351" lon="5.75799">
        <ele>821.1</ele>
        <time>2021-04-22T12:42:51Z</time>
      </trkpt>
      <trkpt lat="44.8535" lon="5.75792">
        <ele>821</ele>
        <time>2021-04-22T12:42:52Z</time>
      </trkpt>
      <trkpt lat="44.85348" lon="5.75785">
        <ele>821</ele>
        <time>2021-04-22T12:42:53Z</time>
      </trkpt>
      <trkpt lat="44.85346" lon="5.75778">
        <ele>821</ele>
        <time>2021-04-22T12:42:54Z</time>
      </trkpt>
      <trkpt lat="44.85344" lon="5.7577">
        <ele>820.9</ele>
        <time>2021-04-22T12:42:55Z</time>
      </trkpt>
      <trkpt lat="44.85342" lon="5.75763">
        <ele>820.8</ele>
        <time>2021-04-22T12:42:56Z</time>
      </trkpt>
      <trkpt lat="44.8534" lon="5.75755">
        <ele>820.7</ele>
        <time>2021-04-22T12:42:57Z</time>
      </trkpt>
      <trkpt lat="44.85338" lon="5.75747">
        <ele>820.6</ele>
        <time>2021-04-22T12:42:58Z</time>
      </trkpt>
      <trkpt lat="44.85338" lon="5.75738">
        <ele>820.4</ele>
        <time>2021-04-22T12:42:59Z</time>
      </trkpt>
      <trkpt lat="44.85338" lon="5.7573">
        <ele>820.3</ele>
        <time>2021-04-22T12:43:00Z</time>
      </trkpt>
      <trkpt lat="44.8534" lon="5.75722">
        <ele>820.1</ele>
        <time>2021-04-22T12:43:01Z</time>
      </trkpt>
      <trkpt lat="44.85343" lon="5.75715">
        <ele>820</ele>
        <time>2021-04-22T12:43:02Z</time>
      </trkpt>
      <trkpt lat="44.85346" lon="5.75708">
        <ele>819.8</ele>
        <time>2021-04-22T12:43:03Z</time>
      </trkpt>
      <trkpt lat="44.8535" lon="5.75701">
        <ele>819.6</ele>
        <time>2021-04-22T12:43:04Z</time>
      </trkpt>
      <trkpt lat="44.85353" lon="5.75694">
        <ele>819.4</ele>
        <time>2021-04-22T12:43:05Z</time>
      </trkpt>
      <trkpt lat="44.85356" lon="5.75687">
        <ele>819.2</ele>
        <time>2021-04-22T12:43:06Z</time>
      </trkpt>
      <trkpt lat="44.85359" lon="5.75679">
        <ele>818.9</ele>
        <time>2021-04-22T12:43:07Z</time>
      </trkpt>
      <trkpt lat="44.85362" lon="5.75672">
        <ele>818.8</ele>
        <time>2021-04-22T12:43:08Z</time>
      </trkpt>
      <trkpt lat="44.85365" lon="5.75664">
        <ele>818.6</ele>
        <time>2021-04-22T12:43:09Z</time>
      </trkpt>
      <trkpt lat="44.85367" lon="5.75656">
        <ele>818.4</ele>
        <time>2021-04-22T12:43:10Z</time>
      </trkpt>
      <trkpt lat="44.85369" lon="5.75647">
        <ele>818.2</ele>
        <time>2021-04-22T12:43:11Z</time>
      </trkpt>
      <trkpt lat="44.8537" lon="5.75638">
        <ele>818.1</ele>
        <time>2021-04-22T12:43:12Z</time>
      </trkpt>
      <trkpt lat="44.85371" lon="5.75629">
        <ele>817.9</ele>
        <time>2021-04-22T12:43:13Z</time>
      </trkpt>
      <trkpt lat="44.85372" lon="5.75619">
        <ele>817.8</ele>
        <time>2021-04-22T12:43:14Z</time>
      </trkpt>
      <trkpt lat="44.85372" lon="5.7561">
        <ele>817.7</ele>
        <time>2021-04-22T12:43:15Z</time>
      </trkpt>
      <trkpt lat="44.85371" lon="5.75601">
        <ele>817.6</ele>
        <time>2021-04-22T12:43:16Z</time>
      </trkpt>
      <trkpt lat="44.8537" lon="5.75593">
        <ele>817.6</ele>
        <time>2021-04-22T12:43:17Z</time>
      </trkpt>
      <trkpt lat="44.8537" lon="5.75585">
        <ele>817.6</ele>
        <time>2021-04-22T12:43:18Z</time>
      </trkpt>
      <trkpt lat="44.85369" lon="5.75578">
        <ele>817.5</ele>
        <time>2021-04-22T12:43:19Z</time>
      </trkpt>
      <trkpt lat="44.85368" lon="5.7557">
        <ele>817.5</ele>
        <time>2021-04-22T12:43:20Z</time>
      </trkpt>
      <trkpt lat="44.85367" lon="5.75563">
        <ele>817.4</ele>
        <time>2021-04-22T12:43:21Z</time>
      </trkpt>
      <trkpt lat="44.85367" lon="5.75556">
        <ele>817.4</ele>
        <time>2021-04-22T12:43:22Z</time>
      </trkpt>
      <trkpt lat="44.85367" lon="5.75549">
        <ele>817.3</ele>
        <time>2021-04-22T12:43:23Z</time>
      </trkpt>
      <trkpt lat="44.85366" lon="5.75542">
        <ele>817.3</ele>
        <time>2021-04-22T12:43:24Z</time>
      </trkpt>
      <trkpt lat="44.85366" lon="5.75535">
        <ele>817.2</ele>
        <time>2021-04-22T12:43:25Z</time>
      </trkpt>
      <trkpt lat="44.85365" lon="5.75528">
        <ele>817.2</ele>
        <time>2021-04-22T12:43:26Z</time>
      </trkpt>
      <trkpt lat="44.85364" lon="5.75521">
        <ele>817.1</ele>
        <time>2021-04-22T12:43:27Z</time>
      </trkpt>
      <trkpt lat="44.85364" lon="5.75514">
        <ele>817.1</ele>
        <time>2021-04-22T12:43:28Z</time>
      </trkpt>
      <trkpt lat="44.85364" lon="5.75507">
        <ele>817</ele>
        <time>2021-04-22T12:43:29Z</time>
      </trkpt>
      <trkpt lat="44.85364" lon="5.75501">
        <ele>816.9</ele>
        <time>2021-04-22T12:43:30Z</time>
      </trkpt>
      <trkpt lat="44.85364" lon="5.75494">
        <ele>816.9</ele>
        <time>2021-04-22T12:43:31Z</time>
      </trkpt>
      <trkpt lat="44.85364" lon="5.75487">
        <ele>816.8</ele>
        <time>2021-04-22T12:43:32Z</time>
      </trkpt>
      <trkpt lat="44.85364" lon="5.7548">
        <ele>816.8</ele>
        <time>2021-04-22T12:43:33Z</time>
      </trkpt>
      <trkpt lat="44.85365" lon="5.75473">
        <ele>816.7</ele>
        <time>2021-04-22T12:43:34Z</time>
      </trkpt>
      <trkpt lat="44.85366" lon="5.75467">
        <ele>816.6</ele>
        <time>2021-04-22T12:43:35Z</time>
      </trkpt>
      <trkpt lat="44.85366" lon="5.7546">
        <ele>816.6</ele>
        <time>2021-04-22T12:43:36Z</time>
      </trkpt>
      <trkpt lat="44.85366" lon="5.75452">
        <ele>816.5</ele>
        <time>2021-04-22T12:43:37Z</time>
      </trkpt>
      <trkpt lat="44.85366" lon="5.75445">
        <ele>816.4</ele>
        <time>2021-04-22T12:43:38Z</time>
      </trkpt>
      <trkpt lat="44.85366" lon="5.75437">
        <ele>816.4</ele>
        <time>2021-04-22T12:43:39Z</time>
      </trkpt>
      <trkpt lat="44.85367" lon="5.7543">
        <ele>816.3</ele>
        <time>2021-04-22T12:43:40Z</time>
      </trkpt>
      <trkpt lat="44.85367" lon="5.75423">
        <ele>816.3</ele>
        <time>2021-04-22T12:43:41Z</time>
      </trkpt>
      <trkpt lat="44.85368" lon="5.75416">
        <ele>816.2</ele>
        <time>2021-04-22T12:43:42Z</time>
      </trkpt>
      <trkpt lat="44.85369" lon="5.75408">
        <ele>816.2</ele>
        <time>2021-04-22T12:43:43Z</time>
      </trkpt>
      <trkpt lat="44.85369" lon="5.754">
        <ele>816.1</ele>
        <time>2021-04-22T12:43:44Z</time>
      </trkpt>
      <trkpt lat="44.8537" lon="5.75393">
        <ele>816.1</ele>
        <time>2021-04-22T12:43:45Z</time>
      </trkpt>
      <trkpt lat="44.8537" lon="5.75385">
        <ele>816</ele>
        <time>2021-04-22T12:43:46Z</time>
      </trkpt>
      <trkpt lat="44.85369" lon="5.75377">
        <ele>816</ele>
        <time>2021-04-22T12:43:47Z</time>
      </trkpt>
      <trkpt lat="44.8537" lon="5.7537">
        <ele>815.9</ele>
        <time>2021-04-22T12:43:48Z</time>
      </trkpt>
      <trkpt lat="44.8537" lon="5.75362">
        <ele>815.9</ele>
        <time>2021-04-22T12:43:49Z</time>
      </trkpt>
      <trkpt lat="44.8537" lon="5.75354">
        <ele>815.8</ele>
        <time>2021-04-22T12:43:50Z</time>
      </trkpt>
      <trkpt lat="44.8537" lon="5.75346">
        <ele>815.7</ele>
        <time>2021-04-22T12:43:51Z</time>
      </trkpt>
      <trkpt lat="44.8537" lon="5.75338">
        <ele>815.6</ele>
        <time>2021-04-22T12:43:52Z</time>
      </trkpt>
      <trkpt lat="44.8537" lon="5.7533">
        <ele>815.5</ele>
        <time>2021-04-22T12:43:53Z</time>
      </trkpt>
      <trkpt lat="44.8537" lon="5.75322">
        <ele>815.4</ele>
        <time>2021-04-22T12:43:54Z</time>
      </trkpt>
      <trkpt lat="44.8537" lon="5.75314">
        <ele>815.3</ele>
        <time>2021-04-22T12:43:55Z</time>
      </trkpt>
      <trkpt lat="44.85371" lon="5.75307">
        <ele>815.2</ele>
        <time>2021-04-22T12:43:56Z</time>
      </trkpt>
      <trkpt lat="44.85372" lon="5.75299">
        <ele>815.1</ele>
        <time>2021-04-22T12:43:57Z</time>
      </trkpt>
      <trkpt lat="44.85371" lon="5.75291">
        <ele>815</ele>
        <time>2021-04-22T12:43:58Z</time>
      </trkpt>
      <trkpt lat="44.85372" lon="5.75282">
        <ele>814.9</ele>
        <time>2021-04-22T12:43:59Z</time>
      </trkpt>
      <trkpt lat="44.85372" lon="5.75273">
        <ele>814.7</ele>
        <time>2021-04-22T12:44:00Z</time>
      </trkpt>
      <trkpt lat="44.85372" lon="5.75264">
        <ele>814.5</ele>
        <time>2021-04-22T12:44:01Z</time>
      </trkpt>
      <trkpt lat="44.85372" lon="5.75255">
        <ele>814.3</ele>
        <time>2021-04-22T12:44:02Z</time>
      </trkpt>
      <trkpt lat="44.85371" lon="5.75246">
        <ele>814.1</ele>
        <time>2021-04-22T12:44:03Z</time>
      </trkpt>
      <trkpt lat="44.85371" lon="5.75237">
        <ele>813.9</ele>
        <time>2021-04-22T12:44:04Z</time>
      </trkpt>
      <trkpt lat="44.85371" lon="5.75227">
        <ele>813.7</ele>
        <time>2021-04-22T12:44:05Z</time>
      </trkpt>
      <trkpt lat="44.8537" lon="5.75218">
        <ele>813.5</ele>
        <time>2021-04-22T12:44:06Z</time>
      </trkpt>
      <trkpt lat="44.8537" lon="5.75208">
        <ele>813.3</ele>
        <time>2021-04-22T12:44:07Z</time>
      </trkpt>
      <trkpt lat="44.85369" lon="5.75198">
        <ele>813.1</ele>
        <time>2021-04-22T12:44:08Z</time>
      </trkpt>
      <trkpt lat="44.85369" lon="5.75188">
        <ele>812.9</ele>
        <time>2021-04-22T12:44:09Z</time>
      </trkpt>
      <trkpt lat="44.85368" lon="5.75178">
        <ele>812.7</ele>
        <time>2021-04-22T12:44:10Z</time>
      </trkpt>
      <trkpt lat="44.85368" lon="5.75168">
        <ele>812.5</ele>
        <time>2021-04-22T12:44:11Z</time>
      </trkpt>
      <trkpt lat="44.85368" lon="5.75157">
        <ele>812.3</ele>
        <time>2021-04-22T12:44:12Z</time>
      </trkpt>
      <trkpt lat="44.85368" lon="5.75148">
        <ele>812.1</ele>
        <time>2021-04-22T12:44:13Z</time>
      </trkpt>
      <trkpt lat="44.85368" lon="5.75137">
        <ele>811.9</ele>
        <time>2021-04-22T12:44:14Z</time>
      </trkpt>
      <trkpt lat="44.85367" lon="5.75127">
        <ele>811.7</ele>
        <time>2021-04-22T12:44:15Z</time>
      </trkpt>
      <trkpt lat="44.85367" lon="5.75117">
        <ele>811.5</ele>
        <time>2021-04-22T12:44:16Z</time>
      </trkpt>
      <trkpt lat="44.85367" lon="5.75106">
        <ele>811.2</ele>
        <time>2021-04-22T12:44:17Z</time>
      </trkpt>
      <trkpt lat="44.85367" lon="5.75096">
        <ele>811</ele>
        <time>2021-04-22T12:44:18Z</time>
      </trkpt>
      <trkpt lat="44.85366" lon="5.75085">
        <ele>810.6</ele>
        <time>2021-04-22T12:44:19Z</time>
      </trkpt>
      <trkpt lat="44.85365" lon="5.75075">
        <ele>810.3</ele>
        <time>2021-04-22T12:44:20Z</time>
      </trkpt>
      <trkpt lat="44.85364" lon="5.75064">
        <ele>810</ele>
        <time>2021-04-22T12:44:21Z</time>
      </trkpt>
      <trkpt lat="44.85362" lon="5.75053">
        <ele>809.7</ele>
        <time>2021-04-22T12:44:22Z</time>
      </trkpt>
      <trkpt lat="44.8536" lon="5.75042">
        <ele>809.4</ele>
        <time>2021-04-22T12:44:23Z</time>
      </trkpt>
      <trkpt lat="44.85358" lon="5.75032">
        <ele>809.1</ele>
        <time>2021-04-22T12:44:24Z</time>
      </trkpt>
      <trkpt lat="44.85356" lon="5.75021">
        <ele>808.8</ele>
        <time>2021-04-22T12:44:25Z</time>
      </trkpt>
      <trkpt lat="44.85354" lon="5.75011">
        <ele>808.5</ele>
        <time>2021-04-22T12:44:26Z</time>
      </trkpt>
      <trkpt lat="44.85351" lon="5.75">
        <ele>808.2</ele>
        <time>2021-04-22T12:44:27Z</time>
      </trkpt>
      <trkpt lat="44.85348" lon="5.74989">
        <ele>807.8</ele>
        <time>2021-04-22T12:44:28Z</time>
      </trkpt>
      <trkpt lat="44.85346" lon="5.74978">
        <ele>807.5</ele>
        <time>2021-04-22T12:44:29Z</time>
      </trkpt>
      <trkpt lat="44.85343" lon="5.74967">
        <ele>807.2</ele>
        <time>2021-04-22T12:44:30Z</time>
      </trkpt>
      <trkpt lat="44.8534" lon="5.74956">
        <ele>806.8</ele>
        <time>2021-04-22T12:44:31Z</time>
      </trkpt>
      <trkpt lat="44.85338" lon="5.74944">
        <ele>806.5</ele>
        <time>2021-04-22T12:44:32Z</time>
      </trkpt>
      <trkpt lat="44.85336" lon="5.74933">
        <ele>806.1</ele>
        <time>2021-04-22T12:44:33Z</time>
      </trkpt>
      <trkpt lat="44.85334" lon="5.74922">
        <ele>805.6</ele>
        <time>2021-04-22T12:44:34Z</time>
      </trkpt>
      <trkpt lat="44.85331" lon="5.7491">
        <ele>805.1</ele>
        <time>2021-04-22T12:44:35Z</time>
      </trkpt>
      <trkpt lat="44.85328" lon="5.74899">
        <ele>804.7</ele>
        <time>2021-04-22T12:44:36Z</time>
      </trkpt>
      <trkpt lat="44.85326" lon="5.74887">
        <ele>804.2</ele>
        <time>2021-04-22T12:44:37Z</time>
      </trkpt>
      <trkpt lat="44.85323" lon="5.74876">
        <ele>803.8</ele>
        <time>2021-04-22T12:44:38Z</time>
      </trkpt>
      <trkpt lat="44.85321" lon="5.74864">
        <ele>803.3</ele>
        <time>2021-04-22T12:44:39Z</time>
      </trkpt>
      <trkpt lat="44.85317" lon="5.74854">
        <ele>802.9</ele>
        <time>2021-04-22T12:44:40Z</time>
      </trkpt>
      <trkpt lat="44.85313" lon="5.74844">
        <ele>802.4</ele>
        <time>2021-04-22T12:44:41Z</time>
      </trkpt>
      <trkpt lat="44.85307" lon="5.74836">
        <ele>802</ele>
        <time>2021-04-22T12:44:42Z</time>
      </trkpt>
      <trkpt lat="44.853" lon="5.74829">
        <ele>801.4</ele>
        <time>2021-04-22T12:44:43Z</time>
      </trkpt>
      <trkpt lat="44.85292" lon="5.74825">
        <ele>800.8</ele>
        <time>2021-04-22T12:44:44Z</time>
      </trkpt>
      <trkpt lat="44.85283" lon="5.74821">
        <ele>800.2</ele>
        <time>2021-04-22T12:44:45Z</time>
      </trkpt>
      <trkpt lat="44.85275" lon="5.74817">
        <ele>799.6</ele>
        <time>2021-04-22T12:44:46Z</time>
      </trkpt>
      <trkpt lat="44.85266" lon="5.74812">
        <ele>798.9</ele>
        <time>2021-04-22T12:44:47Z</time>
      </trkpt>
      <trkpt lat="44.85258" lon="5.74806">
        <ele>798.3</ele>
        <time>2021-04-22T12:44:48Z</time>
      </trkpt>
      <trkpt lat="44.8525" lon="5.74799">
        <ele>797.6</ele>
        <time>2021-04-22T12:44:49Z</time>
      </trkpt>
      <trkpt lat="44.85241" lon="5.74791">
        <ele>796.9</ele>
        <time>2021-04-22T12:44:50Z</time>
      </trkpt>
      <trkpt lat="44.85233" lon="5.74782">
        <ele>796.2</ele>
        <time>2021-04-22T12:44:51Z</time>
      </trkpt>
      <trkpt lat="44.85227" lon="5.7477">
        <ele>795.4</ele>
        <time>2021-04-22T12:44:52Z</time>
      </trkpt>
      <trkpt lat="44.85222" lon="5.74756">
        <ele>794.6</ele>
        <time>2021-04-22T12:44:53Z</time>
      </trkpt>
      <trkpt lat="44.85217" lon="5.74743">
        <ele>793.8</ele>
        <time>2021-04-22T12:44:54Z</time>
      </trkpt>
      <trkpt lat="44.85212" lon="5.74731">
        <ele>793</ele>
        <time>2021-04-22T12:44:55Z</time>
      </trkpt>
      <trkpt lat="44.85203" lon="5.74723">
        <ele>792.3</ele>
        <time>2021-04-22T12:44:56Z</time>
      </trkpt>
      <trkpt lat="44.85192" lon="5.74716">
        <ele>791.5</ele>
        <time>2021-04-22T12:44:57Z</time>
      </trkpt>
      <trkpt lat="44.85182" lon="5.74712">
        <ele>790.7</ele>
        <time>2021-04-22T12:44:58Z</time>
      </trkpt>
      <trkpt lat="44.85172" lon="5.74708">
        <ele>789.9</ele>
        <time>2021-04-22T12:44:59Z</time>
      </trkpt>
      <trkpt lat="44.85162" lon="5.74703">
        <ele>789.2</ele>
        <time>2021-04-22T12:45:00Z</time>
      </trkpt>
      <trkpt lat="44.85153" lon="5.74696">
        <ele>788.5</ele>
        <time>2021-04-22T12:45:01Z</time>
      </trkpt>
      <trkpt lat="44.85144" lon="5.74688">
        <ele>787.7</ele>
        <time>2021-04-22T12:45:02Z</time>
      </trkpt>
      <trkpt lat="44.85137" lon="5.74677">
        <ele>786.9</ele>
        <time>2021-04-22T12:45:03Z</time>
      </trkpt>
      <trkpt lat="44.85131" lon="5.74665">
        <ele>786.1</ele>
        <time>2021-04-22T12:45:04Z</time>
      </trkpt>
      <trkpt lat="44.85126" lon="5.74652">
        <ele>785.3</ele>
        <time>2021-04-22T12:45:05Z</time>
      </trkpt>
      <trkpt lat="44.85122" lon="5.74637">
        <ele>784.4</ele>
        <time>2021-04-22T12:45:06Z</time>
      </trkpt>
      <trkpt lat="44.85121" lon="5.74622">
        <ele>783.4</ele>
        <time>2021-04-22T12:45:07Z</time>
      </trkpt>
      <trkpt lat="44.85121" lon="5.74606">
        <ele>782.5</ele>
        <time>2021-04-22T12:45:08Z</time>
      </trkpt>
      <trkpt lat="44.8512" lon="5.7459">
        <ele>781.6</ele>
        <time>2021-04-22T12:45:09Z</time>
      </trkpt>
      <trkpt lat="44.85117" lon="5.74575">
        <ele>780.7</ele>
        <time>2021-04-22T12:45:10Z</time>
      </trkpt>
      <trkpt lat="44.85112" lon="5.7456">
        <ele>779.9</ele>
        <time>2021-04-22T12:45:11Z</time>
      </trkpt>
      <trkpt lat="44.85106" lon="5.74547">
        <ele>779.1</ele>
        <time>2021-04-22T12:45:12Z</time>
      </trkpt>
      <trkpt lat="44.85099" lon="5.74535">
        <ele>778.4</ele>
        <time>2021-04-22T12:45:13Z</time>
      </trkpt>
      <trkpt lat="44.8509" lon="5.74525">
        <ele>777.6</ele>
        <time>2021-04-22T12:45:14Z</time>
      </trkpt>
      <trkpt lat="44.85081" lon="5.74516">
        <ele>776.8</ele>
        <time>2021-04-22T12:45:15Z</time>
      </trkpt>
      <trkpt lat="44.85072" lon="5.74508">
        <ele>776</ele>
        <time>2021-04-22T12:45:16Z</time>
      </trkpt>
      <trkpt lat="44.85063" lon="5.745">
        <ele>775.2</ele>
        <time>2021-04-22T12:45:17Z</time>
      </trkpt>
      <trkpt lat="44.85054" lon="5.74492">
        <ele>774.5</ele>
        <time>2021-04-22T12:45:18Z</time>
      </trkpt>
      <trkpt lat="44.85045" lon="5.74483">
        <ele>773.8</ele>
        <time>2021-04-22T12:45:19Z</time>
      </trkpt>
      <trkpt lat="44.85037" lon="5.74472">
        <ele>773</ele>
        <time>2021-04-22T12:45:20Z</time>
      </trkpt>
      <trkpt lat="44.85032" lon="5.74458">
        <ele>772.1</ele>
        <time>2021-04-22T12:45:21Z</time>
      </trkpt>
      <trkpt lat="44.85028" lon="5.74444">
        <ele>771.3</ele>
        <time>2021-04-22T12:45:22Z</time>
      </trkpt>
      <trkpt lat="44.85025" lon="5.74429">
        <ele>770.5</ele>
        <time>2021-04-22T12:45:23Z</time>
      </trkpt>
      <trkpt lat="44.85024" lon="5.74414">
        <ele>769.7</ele>
        <time>2021-04-22T12:45:24Z</time>
      </trkpt>
      <trkpt lat="44.85025" lon="5.744">
        <ele>769</ele>
        <time>2021-04-22T12:45:25Z</time>
      </trkpt>
      <trkpt lat="44.85027" lon="5.74385">
        <ele>768.3</ele>
        <time>2021-04-22T12:45:26Z</time>
      </trkpt>
      <trkpt lat="44.8503" lon="5.74372">
        <ele>767.6</ele>
        <time>2021-04-22T12:45:27Z</time>
      </trkpt>
      <trkpt lat="44.85035" lon="5.74359">
        <ele>766.8</ele>
        <time>2021-04-22T12:45:28Z</time>
      </trkpt>
      <trkpt lat="44.85041" lon="5.74348">
        <ele>766.1</ele>
        <time>2021-04-22T12:45:29Z</time>
      </trkpt>
      <trkpt lat="44.85046" lon="5.74337">
        <ele>765.3</ele>
        <time>2021-04-22T12:45:30Z</time>
      </trkpt>
      <trkpt lat="44.85052" lon="5.74326">
        <ele>764.6</ele>
        <time>2021-04-22T12:45:31Z</time>
      </trkpt>
      <trkpt lat="44.85059" lon="5.74316">
        <ele>763.8</ele>
        <time>2021-04-22T12:45:32Z</time>
      </trkpt>
      <trkpt lat="44.85066" lon="5.74306">
        <ele>763.1</ele>
        <time>2021-04-22T12:45:33Z</time>
      </trkpt>
      <trkpt lat="44.85073" lon="5.74297">
        <ele>762.3</ele>
        <time>2021-04-22T12:45:34Z</time>
      </trkpt>
      <trkpt lat="44.85081" lon="5.74289">
        <ele>761.6</ele>
        <time>2021-04-22T12:45:35Z</time>
      </trkpt>
      <trkpt lat="44.85089" lon="5.74282">
        <ele>760.9</ele>
        <time>2021-04-22T12:45:36Z</time>
      </trkpt>
      <trkpt lat="44.85098" lon="5.74274">
        <ele>760.2</ele>
        <time>2021-04-22T12:45:37Z</time>
      </trkpt>
      <trkpt lat="44.85106" lon="5.74266">
        <ele>759.4</ele>
        <time>2021-04-22T12:45:38Z</time>
      </trkpt>
      <trkpt lat="44.85115" lon="5.74259">
        <ele>758.6</ele>
        <time>2021-04-22T12:45:39Z</time>
      </trkpt>
      <trkpt lat="44.85123" lon="5.74251">
        <ele>757.8</ele>
        <time>2021-04-22T12:45:40Z</time>
      </trkpt>
      <trkpt lat="44.85133" lon="5.74244">
        <ele>757.1</ele>
        <time>2021-04-22T12:45:41Z</time>
      </trkpt>
      <trkpt lat="44.85142" lon="5.74237">
        <ele>756.3</ele>
        <time>2021-04-22T12:45:42Z</time>
      </trkpt>
      <trkpt lat="44.85151" lon="5.74229">
        <ele>755.6</ele>
        <time>2021-04-22T12:45:43Z</time>
      </trkpt>
      <trkpt lat="44.8516" lon="5.74222">
        <ele>754.8</ele>
        <time>2021-04-22T12:45:44Z</time>
      </trkpt>
      <trkpt lat="44.85169" lon="5.74214">
        <ele>754.1</ele>
        <time>2021-04-22T12:45:45Z</time>
      </trkpt>
      <trkpt lat="44.85178" lon="5.74206">
        <ele>753.3</ele>
        <time>2021-04-22T12:45:46Z</time>
      </trkpt>
      <trkpt lat="44.85186" lon="5.74198">
        <ele>752.5</ele>
        <time>2021-04-22T12:45:47Z</time>
      </trkpt>
      <trkpt lat="44.85193" lon="5.74187">
        <ele>751.7</ele>
        <time>2021-04-22T12:45:48Z</time>
      </trkpt>
      <trkpt lat="44.85199" lon="5.74176">
        <ele>751.1</ele>
        <time>2021-04-22T12:45:49Z</time>
      </trkpt>
      <trkpt lat="44.85203" lon="5.74163">
        <ele>750.3</ele>
        <time>2021-04-22T12:45:50Z</time>
      </trkpt>
      <trkpt lat="44.85207" lon="5.74149">
        <ele>749.5</ele>
        <time>2021-04-22T12:45:51Z</time>
      </trkpt>
      <trkpt lat="44.85209" lon="5.74134">
        <ele>748.7</ele>
        <time>2021-04-22T12:45:52Z</time>
      </trkpt>
      <trkpt lat="44.85212" lon="5.7412">
        <ele>747.9</ele>
        <time>2021-04-22T12:45:53Z</time>
      </trkpt>
      <trkpt lat="44.85214" lon="5.74106">
        <ele>747.2</ele>
        <time>2021-04-22T12:45:54Z</time>
      </trkpt>
      <trkpt lat="44.85217" lon="5.74092">
        <ele>746.5</ele>
        <time>2021-04-22T12:45:55Z</time>
      </trkpt>
      <trkpt lat="44.8522" lon="5.74079">
        <ele>745.7</ele>
        <time>2021-04-22T12:45:56Z</time>
      </trkpt>
      <trkpt lat="44.85225" lon="5.74066">
        <ele>745</ele>
        <time>2021-04-22T12:45:57Z</time>
      </trkpt>
      <trkpt lat="44.8523" lon="5.74053">
        <ele>744.3</ele>
        <time>2021-04-22T12:45:58Z</time>
      </trkpt>
      <trkpt lat="44.85235" lon="5.74041">
        <ele>743.6</ele>
        <time>2021-04-22T12:45:59Z</time>
      </trkpt>
      <trkpt lat="44.85241" lon="5.74029">
        <ele>743</ele>
        <time>2021-04-22T12:46:00Z</time>
      </trkpt>
      <trkpt lat="44.85246" lon="5.74017">
        <ele>742.5</ele>
        <time>2021-04-22T12:46:01Z</time>
      </trkpt>
      <trkpt lat="44.85252" lon="5.74006">
        <ele>742</ele>
        <time>2021-04-22T12:46:02Z</time>
      </trkpt>
      <trkpt lat="44.85257" lon="5.73993">
        <ele>741.5</ele>
        <time>2021-04-22T12:46:03Z</time>
      </trkpt>
      <trkpt lat="44.85259" lon="5.73979">
        <ele>741.2</ele>
        <time>2021-04-22T12:46:04Z</time>
      </trkpt>
      <trkpt lat="44.85259" lon="5.73966">
        <ele>741.1</ele>
        <time>2021-04-22T12:46:05Z</time>
      </trkpt>
      <trkpt lat="44.85256" lon="5.73952">
        <ele>741.1</ele>
        <time>2021-04-22T12:46:06Z</time>
      </trkpt>
      <trkpt lat="44.85251" lon="5.7394">
        <ele>741.1</ele>
        <time>2021-04-22T12:46:07Z</time>
      </trkpt>
      <trkpt lat="44.85247" lon="5.73928">
        <ele>741.1</ele>
        <time>2021-04-22T12:46:08Z</time>
      </trkpt>
      <trkpt lat="44.85243" lon="5.73916">
        <ele>741</ele>
        <time>2021-04-22T12:46:09Z</time>
      </trkpt>
      <trkpt lat="44.85238" lon="5.73906">
        <ele>740.9</ele>
        <time>2021-04-22T12:46:10Z</time>
      </trkpt>
      <trkpt lat="44.85232" lon="5.73897">
        <ele>740.9</ele>
        <time>2021-04-22T12:46:11Z</time>
      </trkpt>
      <trkpt lat="44.85224" lon="5.7389">
        <ele>740.8</ele>
        <time>2021-04-22T12:46:12Z</time>
      </trkpt>
      <trkpt lat="44.85216" lon="5.73886">
        <ele>740.8</ele>
        <time>2021-04-22T12:46:13Z</time>
      </trkpt>
      <trkpt lat="44.85208" lon="5.73882">
        <ele>740.8</ele>
        <time>2021-04-22T12:46:14Z</time>
      </trkpt>
      <trkpt lat="44.852" lon="5.73878">
        <ele>740.8</ele>
        <time>2021-04-22T12:46:15Z</time>
      </trkpt>
      <trkpt lat="44.85193" lon="5.73874">
        <ele>740.9</ele>
        <time>2021-04-22T12:46:16Z</time>
      </trkpt>
      <trkpt lat="44.85185" lon="5.7387">
        <ele>741</ele>
        <time>2021-04-22T12:46:17Z</time>
      </trkpt>
      <trkpt lat="44.85179" lon="5.73866">
        <ele>741.1</ele>
        <time>2021-04-22T12:46:18Z</time>
      </trkpt>
      <trkpt lat="44.85172" lon="5.73862">
        <ele>741.1</ele>
        <time>2021-04-22T12:46:19Z</time>
      </trkpt>
      <trkpt lat="44.85165" lon="5.73858">
        <ele>741.1</ele>
        <time>2021-04-22T12:46:20Z</time>
      </trkpt>
      <trkpt lat="44.85159" lon="5.73853">
        <ele>741.1</ele>
        <time>2021-04-22T12:46:21Z</time>
      </trkpt>
      <trkpt lat="44.85153" lon="5.73847">
        <ele>741.1</ele>
        <time>2021-04-22T12:46:22Z</time>
      </trkpt>
      <trkpt lat="44.85147" lon="5.73842">
        <ele>741.1</ele>
        <time>2021-04-22T12:46:23Z</time>
      </trkpt>
      <trkpt lat="44.85141" lon="5.73838">
        <ele>741.2</ele>
        <time>2021-04-22T12:46:24Z</time>
      </trkpt>
      <trkpt lat="44.85136" lon="5.73834">
        <ele>741.3</ele>
        <time>2021-04-22T12:46:25Z</time>
      </trkpt>
      <trkpt lat="44.85131" lon="5.7383">
        <ele>741.3</ele>
        <time>2021-04-22T12:46:26Z</time>
      </trkpt>
      <trkpt lat="44.85125" lon="5.73826">
        <ele>741.4</ele>
        <time>2021-04-22T12:46:27Z</time>
      </trkpt>
      <trkpt lat="44.85119" lon="5.73823">
        <ele>741.4</ele>
        <time>2021-04-22T12:46:28Z</time>
      </trkpt>
      <trkpt lat="44.85114" lon="5.7382">
        <ele>741.5</ele>
        <time>2021-04-22T12:46:29Z</time>
      </trkpt>
      <trkpt lat="44.85108" lon="5.73818">
        <ele>741.5</ele>
        <time>2021-04-22T12:46:30Z</time>
      </trkpt>
      <trkpt lat="44.85102" lon="5.73816">
        <ele>741.6</ele>
        <time>2021-04-22T12:46:31Z</time>
      </trkpt>
      <trkpt lat="44.85096" lon="5.73814">
        <ele>741.6</ele>
        <time>2021-04-22T12:46:32Z</time>
      </trkpt>
      <trkpt lat="44.8509" lon="5.73812">
        <ele>741.7</ele>
        <time>2021-04-22T12:46:33Z</time>
      </trkpt>
      <trkpt lat="44.85084" lon="5.7381">
        <ele>741.7</ele>
        <time>2021-04-22T12:46:34Z</time>
      </trkpt>
      <trkpt lat="44.85079" lon="5.73807">
        <ele>741.8</ele>
        <time>2021-04-22T12:46:35Z</time>
      </trkpt>
      <trkpt lat="44.85073" lon="5.73806">
        <ele>741.8</ele>
        <time>2021-04-22T12:46:36Z</time>
      </trkpt>
      <trkpt lat="44.85068" lon="5.73805">
        <ele>741.9</ele>
        <time>2021-04-22T12:46:37Z</time>
      </trkpt>
      <trkpt lat="44.85063" lon="5.73803">
        <ele>741.9</ele>
        <time>2021-04-22T12:46:38Z</time>
      </trkpt>
      <trkpt lat="44.85057" lon="5.73801">
        <ele>742</ele>
        <time>2021-04-22T12:46:39Z</time>
      </trkpt>
      <trkpt lat="44.85052" lon="5.73799">
        <ele>742</ele>
        <time>2021-04-22T12:46:40Z</time>
      </trkpt>
      <trkpt lat="44.85046" lon="5.73796">
        <ele>742</ele>
        <time>2021-04-22T12:46:41Z</time>
      </trkpt>
      <trkpt lat="44.85041" lon="5.73794">
        <ele>742</ele>
        <time>2021-04-22T12:46:42Z</time>
      </trkpt>
      <trkpt lat="44.85036" lon="5.73793">
        <ele>742.1</ele>
        <time>2021-04-22T12:46:43Z</time>
      </trkpt>
      <trkpt lat="44.85031" lon="5.73791">
        <ele>742.1</ele>
        <time>2021-04-22T12:46:44Z</time>
      </trkpt>
      <trkpt lat="44.85026" lon="5.73789">
        <ele>742.1</ele>
        <time>2021-04-22T12:46:45Z</time>
      </trkpt>
      <trkpt lat="44.8502" lon="5.73787">
        <ele>742.2</ele>
        <time>2021-04-22T12:46:46Z</time>
      </trkpt>
      <trkpt lat="44.85015" lon="5.73784">
        <ele>742.2</ele>
        <time>2021-04-22T12:46:47Z</time>
      </trkpt>
      <trkpt lat="44.8501" lon="5.73782">
        <ele>742.2</ele>
        <time>2021-04-22T12:46:48Z</time>
      </trkpt>
      <trkpt lat="44.85005" lon="5.73779">
        <ele>742.2</ele>
        <time>2021-04-22T12:46:49Z</time>
      </trkpt>
      <trkpt lat="44.85" lon="5.73777">
        <ele>742.2</ele>
        <time>2021-04-22T12:46:50Z</time>
      </trkpt>
      <trkpt lat="44.84994" lon="5.73773">
        <ele>742.2</ele>
        <time>2021-04-22T12:46:51Z</time>
      </trkpt>
      <trkpt lat="44.84989" lon="5.73771">
        <ele>742.2</ele>
        <time>2021-04-22T12:46:52Z</time>
      </trkpt>
      <trkpt lat="44.84985" lon="5.73768">
        <ele>742.3</ele>
        <time>2021-04-22T12:46:53Z</time>
      </trkpt>
      <trkpt lat="44.8498" lon="5.73765">
        <ele>742.3</ele>
        <time>2021-04-22T12:46:54Z</time>
      </trkpt>
      <trkpt lat="44.84975" lon="5.73762">
        <ele>742.3</ele>
        <time>2021-04-22T12:46:55Z</time>
      </trkpt>
      <trkpt lat="44.8497" lon="5.73758">
        <ele>742.3</ele>
        <time>2021-04-22T12:46:56Z</time>
      </trkpt>
      <trkpt lat="44.84965" lon="5.73755">
        <ele>742.4</ele>
        <time>2021-04-22T12:46:57Z</time>
      </trkpt>
      <trkpt lat="44.84959" lon="5.73752">
        <ele>742.4</ele>
        <time>2021-04-22T12:46:58Z</time>
      </trkpt>
      <trkpt lat="44.84954" lon="5.73748">
        <ele>742.5</ele>
        <time>2021-04-22T12:46:59Z</time>
      </trkpt>
      <trkpt lat="44.84949" lon="5.73745">
        <ele>742.6</ele>
        <time>2021-04-22T12:47:00Z</time>
      </trkpt>
      <trkpt lat="44.84944" lon="5.73742">
        <ele>742.6</ele>
        <time>2021-04-22T12:47:01Z</time>
      </trkpt>
      <trkpt lat="44.84938" lon="5.7374">
        <ele>742.7</ele>
        <time>2021-04-22T12:47:02Z</time>
      </trkpt>
      <trkpt lat="44.84933" lon="5.73738">
        <ele>742.8</ele>
        <time>2021-04-22T12:47:03Z</time>
      </trkpt>
      <trkpt lat="44.84928" lon="5.73735">
        <ele>742.8</ele>
        <time>2021-04-22T12:47:04Z</time>
      </trkpt>
      <trkpt lat="44.84923" lon="5.73733">
        <ele>742.9</ele>
        <time>2021-04-22T12:47:05Z</time>
      </trkpt>
      <trkpt lat="44.84918" lon="5.7373">
        <ele>743</ele>
        <time>2021-04-22T12:47:06Z</time>
      </trkpt>
      <trkpt lat="44.84912" lon="5.73727">
        <ele>743</ele>
        <time>2021-04-22T12:47:07Z</time>
      </trkpt>
      <trkpt lat="44.84908" lon="5.73725">
        <ele>743.1</ele>
        <time>2021-04-22T12:47:08Z</time>
      </trkpt>
      <trkpt lat="44.84902" lon="5.73723">
        <ele>743.1</ele>
        <time>2021-04-22T12:47:09Z</time>
      </trkpt>
      <trkpt lat="44.84897" lon="5.73721">
        <ele>743.2</ele>
        <time>2021-04-22T12:47:10Z</time>
      </trkpt>
      <trkpt lat="44.84892" lon="5.7372">
        <ele>743.3</ele>
        <time>2021-04-22T12:47:11Z</time>
      </trkpt>
      <trkpt lat="44.84887" lon="5.73719">
        <ele>743.3</ele>
        <time>2021-04-22T12:47:12Z</time>
      </trkpt>
      <trkpt lat="44.84883" lon="5.73718">
        <ele>743.4</ele>
        <time>2021-04-22T12:47:13Z</time>
      </trkpt>
      <trkpt lat="44.84878" lon="5.73716">
        <ele>743.4</ele>
        <time>2021-04-22T12:47:14Z</time>
      </trkpt>
      <trkpt lat="44.84874" lon="5.73714">
        <ele>743.5</ele>
        <time>2021-04-22T12:47:15Z</time>
      </trkpt>
      <trkpt lat="44.84868" lon="5.73713">
        <ele>743.6</ele>
        <time>2021-04-22T12:47:16Z</time>
      </trkpt>
      <trkpt lat="44.84863" lon="5.7371">
        <ele>743.6</ele>
        <time>2021-04-22T12:47:17Z</time>
      </trkpt>
      <trkpt lat="44.84858" lon="5.73709">
        <ele>743.7</ele>
        <time>2021-04-22T12:47:18Z</time>
      </trkpt>
      <trkpt lat="44.84853" lon="5.73708">
        <ele>743.7</ele>
        <time>2021-04-22T12:47:19Z</time>
      </trkpt>
      <trkpt lat="44.84849" lon="5.73708">
        <ele>743.8</ele>
        <time>2021-04-22T12:47:20Z</time>
      </trkpt>
      <trkpt lat="44.84845" lon="5.73706">
        <ele>743.8</ele>
        <time>2021-04-22T12:47:21Z</time>
      </trkpt>
      <trkpt lat="44.8484" lon="5.73704">
        <ele>743.8</ele>
        <time>2021-04-22T12:47:22Z</time>
      </trkpt>
      <trkpt lat="44.84836" lon="5.73701">
        <ele>743.8</ele>
        <time>2021-04-22T12:47:23Z</time>
      </trkpt>
      <trkpt lat="44.84831" lon="5.73698">
        <ele>743.9</ele>
        <time>2021-04-22T12:47:24Z</time>
      </trkpt>
      <trkpt lat="44.84828" lon="5.73693">
        <ele>743.9</ele>
        <time>2021-04-22T12:47:25Z</time>
      </trkpt>
      <trkpt lat="44.84825" lon="5.73687">
        <ele>744</ele>
        <time>2021-04-22T12:47:26Z</time>
      </trkpt>
      <trkpt lat="44.84822" lon="5.73681">
        <ele>744.2</ele>
        <time>2021-04-22T12:47:27Z</time>
      </trkpt>
      <trkpt lat="44.84819" lon="5.73675">
        <ele>744.3</ele>
        <time>2021-04-22T12:47:28Z</time>
      </trkpt>
      <trkpt lat="44.84817" lon="5.7367">
        <ele>744.5</ele>
        <time>2021-04-22T12:47:29Z</time>
      </trkpt>
      <trkpt lat="44.84816" lon="5.73666">
        <ele>744.6</ele>
        <time>2021-04-22T12:47:30Z</time>
      </trkpt>
      <trkpt lat="44.84814" lon="5.73661">
        <ele>744.8</ele>
        <time>2021-04-22T12:47:31Z</time>
      </trkpt>
      <trkpt lat="44.84812" lon="5.73657">
        <ele>745</ele>
        <time>2021-04-22T12:47:32Z</time>
      </trkpt>
      <trkpt lat="44.84811" lon="5.73653">
        <ele>745.2</ele>
        <time>2021-04-22T12:47:33Z</time>
      </trkpt>
      <trkpt lat="44.84809" lon="5.73648">
        <ele>745.3</ele>
        <time>2021-04-22T12:47:34Z</time>
      </trkpt>
      <trkpt lat="44.84808" lon="5.73644">
        <ele>745.5</ele>
        <time>2021-04-22T12:47:35Z</time>
      </trkpt>
      <trkpt lat="44.84806" lon="5.7364">
        <ele>745.8</ele>
        <time>2021-04-22T12:47:36Z</time>
      </trkpt>
      <trkpt lat="44.84805" lon="5.73639">
        <ele>745.8</ele>
        <time>2021-04-22T12:47:38Z</time>
      </trkpt>
      <trkpt lat="44.848" lon="5.73629">
        <ele>746.4</ele>
        <time>2021-04-22T12:47:40Z</time>
      </trkpt>
      <trkpt lat="44.84797" lon="5.73625">
        <ele>746.6</ele>
        <time>2021-04-22T12:47:41Z</time>
      </trkpt>
      <trkpt lat="44.84794" lon="5.73616">
        <ele>747</ele>
        <time>2021-04-22T12:47:43Z</time>
      </trkpt>
      <trkpt lat="44.84792" lon="5.73612">
        <ele>747.2</ele>
        <time>2021-04-22T12:47:44Z</time>
      </trkpt>
      <trkpt lat="44.84789" lon="5.73609">
        <ele>747.4</ele>
        <time>2021-04-22T12:47:45Z</time>
      </trkpt>
      <trkpt lat="44.84786" lon="5.73604">
        <ele>747.6</ele>
        <time>2021-04-22T12:47:46Z</time>
      </trkpt>
      <trkpt lat="44.84783" lon="5.73601">
        <ele>747.8</ele>
        <time>2021-04-22T12:47:48Z</time>
      </trkpt>
      <trkpt lat="44.84781" lon="5.73598">
        <ele>748</ele>
        <time>2021-04-22T12:47:49Z</time>
      </trkpt>
      <trkpt lat="44.84777" lon="5.73593">
        <ele>748.3</ele>
        <time>2021-04-22T12:47:51Z</time>
      </trkpt>
      <trkpt lat="44.84774" lon="5.7359">
        <ele>748.5</ele>
        <time>2021-04-22T12:47:52Z</time>
      </trkpt>
      <trkpt lat="44.84771" lon="5.73587">
        <ele>748.8</ele>
        <time>2021-04-22T12:47:53Z</time>
      </trkpt>
      <trkpt lat="44.84766" lon="5.73582">
        <ele>749.2</ele>
        <time>2021-04-22T12:47:55Z</time>
      </trkpt>
      <trkpt lat="44.84762" lon="5.73577">
        <ele>749.5</ele>
        <time>2021-04-22T12:47:57Z</time>
      </trkpt>
      <trkpt lat="44.84758" lon="5.73571">
        <ele>749.9</ele>
        <time>2021-04-22T12:47:59Z</time>
      </trkpt>
      <trkpt lat="44.84756" lon="5.73568">
        <ele>750.1</ele>
        <time>2021-04-22T12:48:00Z</time>
      </trkpt>
      <trkpt lat="44.84753" lon="5.73562">
        <ele>750.4</ele>
        <time>2021-04-22T12:48:02Z</time>
      </trkpt>
      <trkpt lat="44.84751" lon="5.73558">
        <ele>750.6</ele>
        <time>2021-04-22T12:48:03Z</time>
      </trkpt>
      <trkpt lat="44.84747" lon="5.73554">
        <ele>751</ele>
        <time>2021-04-22T12:48:05Z</time>
      </trkpt>
      <trkpt lat="44.84744" lon="5.73548">
        <ele>751.4</ele>
        <time>2021-04-22T12:48:07Z</time>
      </trkpt>
      <trkpt lat="44.84741" lon="5.73544">
        <ele>751.7</ele>
        <time>2021-04-22T12:48:08Z</time>
      </trkpt>
      <trkpt lat="44.84738" lon="5.73537">
        <ele>752.1</ele>
        <time>2021-04-22T12:48:10Z</time>
      </trkpt>
      <trkpt lat="44.84735" lon="5.73534">
        <ele>752.4</ele>
        <time>2021-04-22T12:48:11Z</time>
      </trkpt>
      <trkpt lat="44.84733" lon="5.73531">
        <ele>752.6</ele>
        <time>2021-04-22T12:48:12Z</time>
      </trkpt>
      <trkpt lat="44.8473" lon="5.73527">
        <ele>753</ele>
        <time>2021-04-22T12:48:14Z</time>
      </trkpt>
      <trkpt lat="44.84729" lon="5.73525">
        <ele>753.1</ele>
        <time>2021-04-22T12:48:15Z</time>
      </trkpt>
      <trkpt lat="44.84727" lon="5.7352">
        <ele>753.4</ele>
        <time>2021-04-22T12:48:17Z</time>
      </trkpt>
      <trkpt lat="44.84724" lon="5.73517">
        <ele>753.7</ele>
        <time>2021-04-22T12:48:18Z</time>
      </trkpt>
      <trkpt lat="44.84722" lon="5.73514">
        <ele>753.9</ele>
        <time>2021-04-22T12:48:19Z</time>
      </trkpt>
      <trkpt lat="44.84719" lon="5.73508">
        <ele>754.4</ele>
        <time>2021-04-22T12:48:21Z</time>
      </trkpt>
      <trkpt lat="44.84717" lon="5.73504">
        <ele>754.7</ele>
        <time>2021-04-22T12:48:22Z</time>
      </trkpt>
      <trkpt lat="44.84716" lon="5.73503">
        <ele>754.8</ele>
        <time>2021-04-22T12:48:23Z</time>
      </trkpt>
      <trkpt lat="44.84715" lon="5.73499">
        <ele>755</ele>
        <time>2021-04-22T12:48:24Z</time>
      </trkpt>
      <trkpt lat="44.84713" lon="5.73494">
        <ele>755.4</ele>
        <time>2021-04-22T12:48:26Z</time>
      </trkpt>
      <trkpt lat="44.84711" lon="5.7349">
        <ele>755.7</ele>
        <time>2021-04-22T12:48:27Z</time>
      </trkpt>
      <trkpt lat="44.84708" lon="5.73485">
        <ele>756</ele>
        <time>2021-04-22T12:48:28Z</time>
      </trkpt>
      <trkpt lat="44.84706" lon="5.73481">
        <ele>756.3</ele>
        <time>2021-04-22T12:48:30Z</time>
      </trkpt>
      <trkpt lat="44.84706" lon="5.7348">
        <ele>756.3</ele>
        <time>2021-04-22T12:48:31Z</time>
      </trkpt>
      <trkpt lat="44.84706" lon="5.73473">
        <ele>756.7</ele>
        <time>2021-04-22T12:48:33Z</time>
      </trkpt>
      <trkpt lat="44.84705" lon="5.73469">
        <ele>756.9</ele>
        <time>2021-04-22T12:48:34Z</time>
      </trkpt>
      <trkpt lat="44.84705" lon="5.73463">
        <ele>757.3</ele>
        <time>2021-04-22T12:48:36Z</time>
      </trkpt>
      <trkpt lat="44.84706" lon="5.73456">
        <ele>757.6</ele>
        <time>2021-04-22T12:48:38Z</time>
      </trkpt>
      <trkpt lat="44.84706" lon="5.73454">
        <ele>757.8</ele>
        <time>2021-04-22T12:48:39Z</time>
      </trkpt>
      <trkpt lat="44.84706" lon="5.73452">
        <ele>757.9</ele>
        <time>2021-04-22T12:48:40Z</time>
      </trkpt>
      <trkpt lat="44.84706" lon="5.73447">
        <ele>758.1</ele>
        <time>2021-04-22T12:48:42Z</time>
      </trkpt>
      <trkpt lat="44.84707" lon="5.73444">
        <ele>758.2</ele>
        <time>2021-04-22T12:48:43Z</time>
      </trkpt>
      <trkpt lat="44.84707" lon="5.73438">
        <ele>758.5</ele>
        <time>2021-04-22T12:48:45Z</time>
      </trkpt>
      <trkpt lat="44.84706" lon="5.73435">
        <ele>758.7</ele>
        <time>2021-04-22T12:48:46Z</time>
      </trkpt>
      <trkpt lat="44.84706" lon="5.73429">
        <ele>758.9</ele>
        <time>2021-04-22T12:48:48Z</time>
      </trkpt>
      <trkpt lat="44.84704" lon="5.73426">
        <ele>759.1</ele>
        <time>2021-04-22T12:48:49Z</time>
      </trkpt>
      <trkpt lat="44.84702" lon="5.73422">
        <ele>759.2</ele>
        <time>2021-04-22T12:48:51Z</time>
      </trkpt>
      <trkpt lat="44.847" lon="5.73418">
        <ele>759.3</ele>
        <time>2021-04-22T12:48:52Z</time>
      </trkpt>
      <trkpt lat="44.84697" lon="5.73413">
        <ele>759.5</ele>
        <time>2021-04-22T12:48:54Z</time>
      </trkpt>
      <trkpt lat="44.84695" lon="5.7341">
        <ele>759.6</ele>
        <time>2021-04-22T12:48:55Z</time>
      </trkpt>
      <trkpt lat="44.84693" lon="5.73406">
        <ele>759.7</ele>
        <time>2021-04-22T12:48:57Z</time>
      </trkpt>
      <trkpt lat="44.84691" lon="5.73404">
        <ele>759.8</ele>
        <time>2021-04-22T12:48:58Z</time>
      </trkpt>
      <trkpt lat="44.84688" lon="5.73399">
        <ele>759.9</ele>
        <time>2021-04-22T12:49:00Z</time>
      </trkpt>
      <trkpt lat="44.84685" lon="5.73396">
        <ele>760.1</ele>
        <time>2021-04-22T12:49:01Z</time>
      </trkpt>
      <trkpt lat="44.84684" lon="5.73395">
        <ele>760.1</ele>
        <time>2021-04-22T12:49:02Z</time>
      </trkpt>
      <trkpt lat="44.84681" lon="5.73389">
        <ele>760.5</ele>
        <time>2021-04-22T12:49:04Z</time>
      </trkpt>
      <trkpt lat="44.84679" lon="5.73385">
        <ele>760.7</ele>
        <time>2021-04-22T12:49:05Z</time>
      </trkpt>
      <trkpt lat="44.84678" lon="5.73384">
        <ele>760.7</ele>
        <time>2021-04-22T12:49:06Z</time>
      </trkpt>
      <trkpt lat="44.84676" lon="5.73381">
        <ele>760.9</ele>
        <time>2021-04-22T12:49:07Z</time>
      </trkpt>
      <trkpt lat="44.84673" lon="5.73378">
        <ele>761.1</ele>
        <time>2021-04-22T12:49:09Z</time>
      </trkpt>
      <trkpt lat="44.84669" lon="5.73374">
        <ele>761.4</ele>
        <time>2021-04-22T12:49:11Z</time>
      </trkpt>
      <trkpt lat="44.84667" lon="5.73369">
        <ele>761.7</ele>
        <time>2021-04-22T12:49:13Z</time>
      </trkpt>
      <trkpt lat="44.84665" lon="5.73366">
        <ele>761.9</ele>
        <time>2021-04-22T12:49:14Z</time>
      </trkpt>
      <trkpt lat="44.84663" lon="5.73363">
        <ele>762.1</ele>
        <time>2021-04-22T12:49:15Z</time>
      </trkpt>
      <trkpt lat="44.8466" lon="5.73357">
        <ele>762.4</ele>
        <time>2021-04-22T12:49:17Z</time>
      </trkpt>
      <trkpt lat="44.84658" lon="5.73354">
        <ele>762.5</ele>
        <time>2021-04-22T12:49:18Z</time>
      </trkpt>
      <trkpt lat="44.84654" lon="5.7335">
        <ele>762.8</ele>
        <time>2021-04-22T12:49:20Z</time>
      </trkpt>
      <trkpt lat="44.84652" lon="5.73346">
        <ele>763</ele>
        <time>2021-04-22T12:49:22Z</time>
      </trkpt>
      <trkpt lat="44.8465" lon="5.73342">
        <ele>763.2</ele>
        <time>2021-04-22T12:49:23Z</time>
      </trkpt>
      <trkpt lat="44.84646" lon="5.73337">
        <ele>763.5</ele>
        <time>2021-04-22T12:49:25Z</time>
      </trkpt>
      <trkpt lat="44.84645" lon="5.73331">
        <ele>763.7</ele>
        <time>2021-04-22T12:49:27Z</time>
      </trkpt>
      <trkpt lat="44.84643" lon="5.73326">
        <ele>763.9</ele>
        <time>2021-04-22T12:49:28Z</time>
      </trkpt>
      <trkpt lat="44.84641" lon="5.7332">
        <ele>764.2</ele>
        <time>2021-04-22T12:49:30Z</time>
      </trkpt>
      <trkpt lat="44.84639" lon="5.73314">
        <ele>764.5</ele>
        <time>2021-04-22T12:49:32Z</time>
      </trkpt>
      <trkpt lat="44.84638" lon="5.73308">
        <ele>764.8</ele>
        <time>2021-04-22T12:49:34Z</time>
      </trkpt>
      <trkpt lat="44.84637" lon="5.73304">
        <ele>765</ele>
        <time>2021-04-22T12:49:35Z</time>
      </trkpt>
      <trkpt lat="44.84636" lon="5.733">
        <ele>765.3</ele>
        <time>2021-04-22T12:49:36Z</time>
      </trkpt>
      <trkpt lat="44.84636" lon="5.73295">
        <ele>765.5</ele>
        <time>2021-04-22T12:49:38Z</time>
      </trkpt>
      <trkpt lat="44.84635" lon="5.73289">
        <ele>765.8</ele>
        <time>2021-04-22T12:49:39Z</time>
      </trkpt>
      <trkpt lat="44.84635" lon="5.73287">
        <ele>765.9</ele>
        <time>2021-04-22T12:49:40Z</time>
      </trkpt>
      <trkpt lat="44.84634" lon="5.7328">
        <ele>766.2</ele>
        <time>2021-04-22T12:49:42Z</time>
      </trkpt>
      <trkpt lat="44.84634" lon="5.73278">
        <ele>766.4</ele>
        <time>2021-04-22T12:49:43Z</time>
      </trkpt>
      <trkpt lat="44.84633" lon="5.73276">
        <ele>766.5</ele>
        <time>2021-04-22T12:49:44Z</time>
      </trkpt>
      <trkpt lat="44.84633" lon="5.7327">
        <ele>766.8</ele>
        <time>2021-04-22T12:49:45Z</time>
      </trkpt>
      <trkpt lat="44.84633" lon="5.73268">
        <ele>766.9</ele>
        <time>2021-04-22T12:49:46Z</time>
      </trkpt>
      <trkpt lat="44.84631" lon="5.73262">
        <ele>767.2</ele>
        <time>2021-04-22T12:49:48Z</time>
      </trkpt>
      <trkpt lat="44.84631" lon="5.73259">
        <ele>767.4</ele>
        <time>2021-04-22T12:49:50Z</time>
      </trkpt>
      <trkpt lat="44.84631" lon="5.73256">
        <ele>767.5</ele>
        <time>2021-04-22T12:49:51Z</time>
      </trkpt>
      <trkpt lat="44.84631" lon="5.73253">
        <ele>767.7</ele>
        <time>2021-04-22T12:49:52Z</time>
      </trkpt>
      <trkpt lat="44.8463" lon="5.73249">
        <ele>767.9</ele>
        <time>2021-04-22T12:49:53Z</time>
      </trkpt>
      <trkpt lat="44.8463" lon="5.73244">
        <ele>768.2</ele>
        <time>2021-04-22T12:49:55Z</time>
      </trkpt>
      <trkpt lat="44.8463" lon="5.73242">
        <ele>768.3</ele>
        <time>2021-04-22T12:49:56Z</time>
      </trkpt>
      <trkpt lat="44.8463" lon="5.73237">
        <ele>768.6</ele>
        <time>2021-04-22T12:49:57Z</time>
      </trkpt>
      <trkpt lat="44.84629" lon="5.73233">
        <ele>768.9</ele>
        <time>2021-04-22T12:49:59Z</time>
      </trkpt>
      <trkpt lat="44.84629" lon="5.73232">
        <ele>768.9</ele>
        <time>2021-04-22T12:50:00Z</time>
      </trkpt>
      <trkpt lat="44.84628" lon="5.73227">
        <ele>769.2</ele>
        <time>2021-04-22T12:50:02Z</time>
      </trkpt>
      <trkpt lat="44.84628" lon="5.73225">
        <ele>769.3</ele>
        <time>2021-04-22T12:50:03Z</time>
      </trkpt>
      <trkpt lat="44.84628" lon="5.73221">
        <ele>769.6</ele>
        <time>2021-04-22T12:50:05Z</time>
      </trkpt>
      <trkpt lat="44.84626" lon="5.73215">
        <ele>769.9</ele>
        <time>2021-04-22T12:50:06Z</time>
      </trkpt>
      <trkpt lat="44.84626" lon="5.73213">
        <ele>770.1</ele>
        <time>2021-04-22T12:50:07Z</time>
      </trkpt>
      <trkpt lat="44.84625" lon="5.73209">
        <ele>770.3</ele>
        <time>2021-04-22T12:50:09Z</time>
      </trkpt>
      <trkpt lat="44.84624" lon="5.73207">
        <ele>770.4</ele>
        <time>2021-04-22T12:50:10Z</time>
      </trkpt>
      <trkpt lat="44.84624" lon="5.73205">
        <ele>770.6</ele>
        <time>2021-04-22T12:50:11Z</time>
      </trkpt>
      <trkpt lat="44.84623" lon="5.732">
        <ele>770.9</ele>
        <time>2021-04-22T12:50:12Z</time>
      </trkpt>
      <trkpt lat="44.84622" lon="5.73198">
        <ele>771</ele>
        <time>2021-04-22T12:50:13Z</time>
      </trkpt>
      <trkpt lat="44.84621" lon="5.73191">
        <ele>771.4</ele>
        <time>2021-04-22T12:50:15Z</time>
      </trkpt>
      <trkpt lat="44.8462" lon="5.73186">
        <ele>771.7</ele>
        <time>2021-04-22T12:50:17Z</time>
      </trkpt>
      <trkpt lat="44.8462" lon="5.73183">
        <ele>771.8</ele>
        <time>2021-04-22T12:50:18Z</time>
      </trkpt>
      <trkpt lat="44.84619" lon="5.73177">
        <ele>772.2</ele>
        <time>2021-04-22T12:50:20Z</time>
      </trkpt>
      <trkpt lat="44.84618" lon="5.73172">
        <ele>772.4</ele>
        <time>2021-04-22T12:50:22Z</time>
      </trkpt>
      <trkpt lat="44.84618" lon="5.7317">
        <ele>772.6</ele>
        <time>2021-04-22T12:50:23Z</time>
      </trkpt>
      <trkpt lat="44.84616" lon="5.73164">
        <ele>773</ele>
        <time>2021-04-22T12:50:25Z</time>
      </trkpt>
      <trkpt lat="44.84616" lon="5.73158">
        <ele>773.3</ele>
        <time>2021-04-22T12:50:27Z</time>
      </trkpt>
      <trkpt lat="44.84615" lon="5.73155">
        <ele>773.4</ele>
        <time>2021-04-22T12:50:28Z</time>
      </trkpt>
      <trkpt lat="44.84614" lon="5.7315">
        <ele>773.7</ele>
        <time>2021-04-22T12:50:30Z</time>
      </trkpt>
      <trkpt lat="44.84612" lon="5.73147">
        <ele>774</ele>
        <time>2021-04-22T12:50:31Z</time>
      </trkpt>
      <trkpt lat="44.84611" lon="5.73141">
        <ele>774.3</ele>
        <time>2021-04-22T12:50:33Z</time>
      </trkpt>
      <trkpt lat="44.84611" lon="5.73136">
        <ele>774.6</ele>
        <time>2021-04-22T12:50:35Z</time>
      </trkpt>
      <trkpt lat="44.84609" lon="5.73129">
        <ele>775</ele>
        <time>2021-04-22T12:50:37Z</time>
      </trkpt>
      <trkpt lat="44.84609" lon="5.73127">
        <ele>775.1</ele>
        <time>2021-04-22T12:50:38Z</time>
      </trkpt>
      <trkpt lat="44.84609" lon="5.73124">
        <ele>775.2</ele>
        <time>2021-04-22T12:50:39Z</time>
      </trkpt>
      <trkpt lat="44.84608" lon="5.73119">
        <ele>775.6</ele>
        <time>2021-04-22T12:50:41Z</time>
      </trkpt>
      <trkpt lat="44.84608" lon="5.73115">
        <ele>775.8</ele>
        <time>2021-04-22T12:50:42Z</time>
      </trkpt>
      <trkpt lat="44.84607" lon="5.73111">
        <ele>776</ele>
        <time>2021-04-22T12:50:43Z</time>
      </trkpt>
      <trkpt lat="44.84606" lon="5.73106">
        <ele>776.3</ele>
        <time>2021-04-22T12:50:45Z</time>
      </trkpt>
      <trkpt lat="44.84605" lon="5.73104">
        <ele>776.4</ele>
        <time>2021-04-22T12:50:46Z</time>
      </trkpt>
      <trkpt lat="44.84605" lon="5.73101">
        <ele>776.6</ele>
        <time>2021-04-22T12:50:47Z</time>
      </trkpt>
      <trkpt lat="44.84604" lon="5.73097">
        <ele>776.8</ele>
        <time>2021-04-22T12:50:49Z</time>
      </trkpt>
      <trkpt lat="44.84603" lon="5.73092">
        <ele>777.1</ele>
        <time>2021-04-22T12:50:50Z</time>
      </trkpt>
      <trkpt lat="44.84603" lon="5.7309">
        <ele>777.2</ele>
        <time>2021-04-22T12:50:51Z</time>
      </trkpt>
      <trkpt lat="44.84602" lon="5.73086">
        <ele>777.4</ele>
        <time>2021-04-22T12:50:53Z</time>
      </trkpt>
      <trkpt lat="44.84601" lon="5.73082">
        <ele>777.7</ele>
        <time>2021-04-22T12:50:54Z</time>
      </trkpt>
      <trkpt lat="44.846" lon="5.73078">
        <ele>777.9</ele>
        <time>2021-04-22T12:50:56Z</time>
      </trkpt>
      <trkpt lat="44.846" lon="5.73076">
        <ele>778</ele>
        <time>2021-04-22T12:50:57Z</time>
      </trkpt>
      <trkpt lat="44.84599" lon="5.73071">
        <ele>778.3</ele>
        <time>2021-04-22T12:50:59Z</time>
      </trkpt>
      <trkpt lat="44.84599" lon="5.73066">
        <ele>778.5</ele>
        <time>2021-04-22T12:51:01Z</time>
      </trkpt>
      <trkpt lat="44.84599" lon="5.73062">
        <ele>778.7</ele>
        <time>2021-04-22T12:51:02Z</time>
      </trkpt>
      <trkpt lat="44.84599" lon="5.73057">
        <ele>779</ele>
        <time>2021-04-22T12:51:04Z</time>
      </trkpt>
      <trkpt lat="44.84597" lon="5.73051">
        <ele>779.3</ele>
        <time>2021-04-22T12:51:06Z</time>
      </trkpt>
      <trkpt lat="44.84596" lon="5.73046">
        <ele>779.6</ele>
        <time>2021-04-22T12:51:07Z</time>
      </trkpt>
      <trkpt lat="44.84595" lon="5.7304">
        <ele>779.9</ele>
        <time>2021-04-22T12:51:09Z</time>
      </trkpt>
      <trkpt lat="44.84595" lon="5.73039">
        <ele>780</ele>
        <time>2021-04-22T12:51:10Z</time>
      </trkpt>
      <trkpt lat="44.84594" lon="5.73037">
        <ele>780.1</ele>
        <time>2021-04-22T12:51:11Z</time>
      </trkpt>
      <trkpt lat="44.84593" lon="5.73033">
        <ele>780.4</ele>
        <time>2021-04-22T12:51:12Z</time>
      </trkpt>
      <trkpt lat="44.84592" lon="5.73029">
        <ele>780.6</ele>
        <time>2021-04-22T12:51:14Z</time>
      </trkpt>
      <trkpt lat="44.84592" lon="5.73028">
        <ele>780.7</ele>
        <time>2021-04-22T12:51:15Z</time>
      </trkpt>
      <trkpt lat="44.84591" lon="5.73023">
        <ele>780.9</ele>
        <time>2021-04-22T12:51:16Z</time>
      </trkpt>
      <trkpt lat="44.8459" lon="5.73019">
        <ele>781.2</ele>
        <time>2021-04-22T12:51:17Z</time>
      </trkpt>
      <trkpt lat="44.8459" lon="5.73017">
        <ele>781.2</ele>
        <time>2021-04-22T12:51:18Z</time>
      </trkpt>
      <trkpt lat="44.84589" lon="5.73014">
        <ele>781.4</ele>
        <time>2021-04-22T12:51:20Z</time>
      </trkpt>
      <trkpt lat="44.84589" lon="5.7301">
        <ele>781.6</ele>
        <time>2021-04-22T12:51:21Z</time>
      </trkpt>
      <trkpt lat="44.84588" lon="5.73004">
        <ele>781.9</ele>
        <time>2021-04-22T12:51:23Z</time>
      </trkpt>
      <trkpt lat="44.84587" lon="5.72999">
        <ele>782.2</ele>
        <time>2021-04-22T12:51:25Z</time>
      </trkpt>
      <trkpt lat="44.84586" lon="5.72996">
        <ele>782.4</ele>
        <time>2021-04-22T12:51:26Z</time>
      </trkpt>
      <trkpt lat="44.84585" lon="5.72991">
        <ele>782.6</ele>
        <time>2021-04-22T12:51:28Z</time>
      </trkpt>
      <trkpt lat="44.84584" lon="5.72989">
        <ele>782.8</ele>
        <time>2021-04-22T12:51:29Z</time>
      </trkpt>
      <trkpt lat="44.84584" lon="5.72987">
        <ele>782.9</ele>
        <time>2021-04-22T12:51:30Z</time>
      </trkpt>
      <trkpt lat="44.84583" lon="5.72982">
        <ele>783.2</ele>
        <time>2021-04-22T12:51:31Z</time>
      </trkpt>
      <trkpt lat="44.84583" lon="5.7298">
        <ele>783.3</ele>
        <time>2021-04-22T12:51:32Z</time>
      </trkpt>
      <trkpt lat="44.84583" lon="5.72976">
        <ele>783.5</ele>
        <time>2021-04-22T12:51:34Z</time>
      </trkpt>
      <trkpt lat="44.84582" lon="5.72972">
        <ele>783.7</ele>
        <time>2021-04-22T12:51:35Z</time>
      </trkpt>
      <trkpt lat="44.84582" lon="5.72967">
        <ele>784</ele>
        <time>2021-04-22T12:51:37Z</time>
      </trkpt>
      <trkpt lat="44.84582" lon="5.72962">
        <ele>784.3</ele>
        <time>2021-04-22T12:51:39Z</time>
      </trkpt>
      <trkpt lat="44.84581" lon="5.72957">
        <ele>784.6</ele>
        <time>2021-04-22T12:51:40Z</time>
      </trkpt>
      <trkpt lat="44.84581" lon="5.72955">
        <ele>784.7</ele>
        <time>2021-04-22T12:51:41Z</time>
      </trkpt>
      <trkpt lat="44.8458" lon="5.7295">
        <ele>785</ele>
        <time>2021-04-22T12:51:43Z</time>
      </trkpt>
      <trkpt lat="44.84579" lon="5.72945">
        <ele>785.3</ele>
        <time>2021-04-22T12:51:44Z</time>
      </trkpt>
      <trkpt lat="44.84578" lon="5.72943">
        <ele>785.4</ele>
        <time>2021-04-22T12:51:45Z</time>
      </trkpt>
      <trkpt lat="44.84578" lon="5.72939">
        <ele>785.6</ele>
        <time>2021-04-22T12:51:46Z</time>
      </trkpt>
      <trkpt lat="44.84578" lon="5.72937">
        <ele>785.7</ele>
        <time>2021-04-22T12:51:47Z</time>
      </trkpt>
      <trkpt lat="44.84578" lon="5.72934">
        <ele>785.8</ele>
        <time>2021-04-22T12:51:48Z</time>
      </trkpt>
      <trkpt lat="44.84577" lon="5.72931">
        <ele>786</ele>
        <time>2021-04-22T12:51:50Z</time>
      </trkpt>
      <trkpt lat="44.84577" lon="5.72927">
        <ele>786.2</ele>
        <time>2021-04-22T12:51:51Z</time>
      </trkpt>
      <trkpt lat="44.84577" lon="5.72925">
        <ele>786.3</ele>
        <time>2021-04-22T12:51:52Z</time>
      </trkpt>
      <trkpt lat="44.84577" lon="5.72921">
        <ele>786.5</ele>
        <time>2021-04-22T12:51:53Z</time>
      </trkpt>
      <trkpt lat="44.84577" lon="5.72914">
        <ele>786.8</ele>
        <time>2021-04-22T12:51:55Z</time>
      </trkpt>
      <trkpt lat="44.84576" lon="5.72909">
        <ele>787.1</ele>
        <time>2021-04-22T12:51:56Z</time>
      </trkpt>
      <trkpt lat="44.84575" lon="5.72907">
        <ele>787.2</ele>
        <time>2021-04-22T12:51:57Z</time>
      </trkpt>
      <trkpt lat="44.84574" lon="5.72904">
        <ele>787.4</ele>
        <time>2021-04-22T12:51:58Z</time>
      </trkpt>
      <trkpt lat="44.84573" lon="5.72899">
        <ele>787.6</ele>
        <time>2021-04-22T12:52:00Z</time>
      </trkpt>
      <trkpt lat="44.84572" lon="5.72895">
        <ele>787.8</ele>
        <time>2021-04-22T12:52:01Z</time>
      </trkpt>
      <trkpt lat="44.84571" lon="5.72891">
        <ele>788.1</ele>
        <time>2021-04-22T12:52:03Z</time>
      </trkpt>
      <trkpt lat="44.84569" lon="5.72886">
        <ele>788.4</ele>
        <time>2021-04-22T12:52:05Z</time>
      </trkpt>
      <trkpt lat="44.84567" lon="5.72881">
        <ele>788.6</ele>
        <time>2021-04-22T12:52:07Z</time>
      </trkpt>
      <trkpt lat="44.84566" lon="5.72877">
        <ele>788.8</ele>
        <time>2021-04-22T12:52:08Z</time>
      </trkpt>
      <trkpt lat="44.84565" lon="5.72872">
        <ele>789.1</ele>
        <time>2021-04-22T12:52:09Z</time>
      </trkpt>
      <trkpt lat="44.84563" lon="5.72868">
        <ele>789.4</ele>
        <time>2021-04-22T12:52:11Z</time>
      </trkpt>
      <trkpt lat="44.84562" lon="5.72862">
        <ele>789.7</ele>
        <time>2021-04-22T12:52:13Z</time>
      </trkpt>
      <trkpt lat="44.8456" lon="5.72858">
        <ele>789.9</ele>
        <time>2021-04-22T12:52:14Z</time>
      </trkpt>
      <trkpt lat="44.84559" lon="5.72855">
        <ele>790.1</ele>
        <time>2021-04-22T12:52:15Z</time>
      </trkpt>
      <trkpt lat="44.84557" lon="5.7285">
        <ele>790.4</ele>
        <time>2021-04-22T12:52:17Z</time>
      </trkpt>
      <trkpt lat="44.84555" lon="5.72845">
        <ele>790.7</ele>
        <time>2021-04-22T12:52:18Z</time>
      </trkpt>
      <trkpt lat="44.84554" lon="5.72843">
        <ele>790.8</ele>
        <time>2021-04-22T12:52:19Z</time>
      </trkpt>
      <trkpt lat="44.84552" lon="5.72837">
        <ele>791.1</ele>
        <time>2021-04-22T12:52:21Z</time>
      </trkpt>
      <trkpt lat="44.84551" lon="5.72833">
        <ele>791.3</ele>
        <time>2021-04-22T12:52:23Z</time>
      </trkpt>
      <trkpt lat="44.8455" lon="5.7283">
        <ele>791.5</ele>
        <time>2021-04-22T12:52:24Z</time>
      </trkpt>
      <trkpt lat="44.84548" lon="5.72825">
        <ele>791.8</ele>
        <time>2021-04-22T12:52:26Z</time>
      </trkpt>
      <trkpt lat="44.84547" lon="5.72821">
        <ele>792</ele>
        <time>2021-04-22T12:52:27Z</time>
      </trkpt>
      <trkpt lat="44.84546" lon="5.72819">
        <ele>792.1</ele>
        <time>2021-04-22T12:52:28Z</time>
      </trkpt>
      <trkpt lat="44.84544" lon="5.72814">
        <ele>792.3</ele>
        <time>2021-04-22T12:52:30Z</time>
      </trkpt>
      <trkpt lat="44.84543" lon="5.7281">
        <ele>792.6</ele>
        <time>2021-04-22T12:52:32Z</time>
      </trkpt>
      <trkpt lat="44.84541" lon="5.72805">
        <ele>792.9</ele>
        <time>2021-04-22T12:52:33Z</time>
      </trkpt>
      <trkpt lat="44.8454" lon="5.72804">
        <ele>793</ele>
        <time>2021-04-22T12:52:34Z</time>
      </trkpt>
      <trkpt lat="44.84539" lon="5.72799">
        <ele>793.2</ele>
        <time>2021-04-22T12:52:36Z</time>
      </trkpt>
      <trkpt lat="44.84539" lon="5.72796">
        <ele>793.4</ele>
        <time>2021-04-22T12:52:37Z</time>
      </trkpt>
      <trkpt lat="44.84538" lon="5.7279">
        <ele>793.7</ele>
        <time>2021-04-22T12:52:39Z</time>
      </trkpt>
      <trkpt lat="44.84537" lon="5.72785">
        <ele>793.9</ele>
        <time>2021-04-22T12:52:40Z</time>
      </trkpt>
      <trkpt lat="44.84537" lon="5.72783">
        <ele>794</ele>
        <time>2021-04-22T12:52:41Z</time>
      </trkpt>
      <trkpt lat="44.84537" lon="5.7278">
        <ele>794.2</ele>
        <time>2021-04-22T12:52:42Z</time>
      </trkpt>
      <trkpt lat="44.84537" lon="5.72777">
        <ele>794.4</ele>
        <time>2021-04-22T12:52:44Z</time>
      </trkpt>
      <trkpt lat="44.84536" lon="5.72773">
        <ele>794.6</ele>
        <time>2021-04-22T12:52:45Z</time>
      </trkpt>
      <trkpt lat="44.84536" lon="5.72768">
        <ele>794.9</ele>
        <time>2021-04-22T12:52:46Z</time>
      </trkpt>
      <trkpt lat="44.84537" lon="5.72766">
        <ele>795</ele>
        <time>2021-04-22T12:52:47Z</time>
      </trkpt>
      <trkpt lat="44.84537" lon="5.72762">
        <ele>795.1</ele>
        <time>2021-04-22T12:52:48Z</time>
      </trkpt>
      <trkpt lat="44.84538" lon="5.72759">
        <ele>795.3</ele>
        <time>2021-04-22T12:52:50Z</time>
      </trkpt>
      <trkpt lat="44.84538" lon="5.72755">
        <ele>795.6</ele>
        <time>2021-04-22T12:52:51Z</time>
      </trkpt>
      <trkpt lat="44.84538" lon="5.72753">
        <ele>795.7</ele>
        <time>2021-04-22T12:52:52Z</time>
      </trkpt>
      <trkpt lat="44.84538" lon="5.72746">
        <ele>796</ele>
        <time>2021-04-22T12:52:54Z</time>
      </trkpt>
      <trkpt lat="44.84539" lon="5.72743">
        <ele>796.2</ele>
        <time>2021-04-22T12:52:55Z</time>
      </trkpt>
      <trkpt lat="44.84539" lon="5.72738">
        <ele>796.5</ele>
        <time>2021-04-22T12:52:57Z</time>
      </trkpt>
      <trkpt lat="44.84539" lon="5.72731">
        <ele>796.9</ele>
        <time>2021-04-22T12:52:58Z</time>
      </trkpt>
      <trkpt lat="44.84539" lon="5.72729">
        <ele>797</ele>
        <time>2021-04-22T12:52:59Z</time>
      </trkpt>
      <trkpt lat="44.8454" lon="5.72722">
        <ele>797.4</ele>
        <time>2021-04-22T12:53:01Z</time>
      </trkpt>
      <trkpt lat="44.8454" lon="5.72719">
        <ele>797.6</ele>
        <time>2021-04-22T12:53:02Z</time>
      </trkpt>
      <trkpt lat="44.8454" lon="5.72716">
        <ele>797.7</ele>
        <time>2021-04-22T12:53:03Z</time>
      </trkpt>
      <trkpt lat="44.8454" lon="5.72713">
        <ele>797.9</ele>
        <time>2021-04-22T12:53:05Z</time>
      </trkpt>
      <trkpt lat="44.8454" lon="5.72709">
        <ele>798.1</ele>
        <time>2021-04-22T12:53:06Z</time>
      </trkpt>
      <trkpt lat="44.8454" lon="5.72702">
        <ele>798.5</ele>
        <time>2021-04-22T12:53:08Z</time>
      </trkpt>
      <trkpt lat="44.84541" lon="5.72696">
        <ele>798.8</ele>
        <time>2021-04-22T12:53:10Z</time>
      </trkpt>
      <trkpt lat="44.84541" lon="5.72691">
        <ele>799.1</ele>
        <time>2021-04-22T12:53:12Z</time>
      </trkpt>
      <trkpt lat="44.84541" lon="5.72688">
        <ele>799.3</ele>
        <time>2021-04-22T12:53:13Z</time>
      </trkpt>
      <trkpt lat="44.84541" lon="5.72682">
        <ele>799.6</ele>
        <time>2021-04-22T12:53:15Z</time>
      </trkpt>
      <trkpt lat="44.84542" lon="5.72677">
        <ele>799.9</ele>
        <time>2021-04-22T12:53:16Z</time>
      </trkpt>
      <trkpt lat="44.84542" lon="5.72675">
        <ele>800</ele>
        <time>2021-04-22T12:53:17Z</time>
      </trkpt>
      <trkpt lat="44.84542" lon="5.72669">
        <ele>800.3</ele>
        <time>2021-04-22T12:53:19Z</time>
      </trkpt>
      <trkpt lat="44.84542" lon="5.72664">
        <ele>800.6</ele>
        <time>2021-04-22T12:53:21Z</time>
      </trkpt>
      <trkpt lat="44.84542" lon="5.72659">
        <ele>800.9</ele>
        <time>2021-04-22T12:53:23Z</time>
      </trkpt>
      <trkpt lat="44.84542" lon="5.72654">
        <ele>801.2</ele>
        <time>2021-04-22T12:53:24Z</time>
      </trkpt>
      <trkpt lat="44.84542" lon="5.72652">
        <ele>801.3</ele>
        <time>2021-04-22T12:53:25Z</time>
      </trkpt>
      <trkpt lat="44.84542" lon="5.72648">
        <ele>801.5</ele>
        <time>2021-04-22T12:53:26Z</time>
      </trkpt>
      <trkpt lat="44.84542" lon="5.72644">
        <ele>801.7</ele>
        <time>2021-04-22T12:53:28Z</time>
      </trkpt>
      <trkpt lat="44.84543" lon="5.7264">
        <ele>801.9</ele>
        <time>2021-04-22T12:53:29Z</time>
      </trkpt>
      <trkpt lat="44.84542" lon="5.72637">
        <ele>802.2</ele>
        <time>2021-04-22T12:53:30Z</time>
      </trkpt>
      <trkpt lat="44.84543" lon="5.72631">
        <ele>802.5</ele>
        <time>2021-04-22T12:53:32Z</time>
      </trkpt>
      <trkpt lat="44.84544" lon="5.72626">
        <ele>802.8</ele>
        <time>2021-04-22T12:53:33Z</time>
      </trkpt>
      <trkpt lat="44.84545" lon="5.72624">
        <ele>802.9</ele>
        <time>2021-04-22T12:53:34Z</time>
      </trkpt>
      <trkpt lat="44.84545" lon="5.7262">
        <ele>803.2</ele>
        <time>2021-04-22T12:53:36Z</time>
      </trkpt>
      <trkpt lat="44.84546" lon="5.72617">
        <ele>803.3</ele>
        <time>2021-04-22T12:53:37Z</time>
      </trkpt>
      <trkpt lat="44.84547" lon="5.72615">
        <ele>803.5</ele>
        <time>2021-04-22T12:53:39Z</time>
      </trkpt>
      <trkpt lat="44.84548" lon="5.72613">
        <ele>803.6</ele>
        <time>2021-04-22T12:53:40Z</time>
      </trkpt>
      <trkpt lat="44.84549" lon="5.72611">
        <ele>803.8</ele>
        <time>2021-04-22T12:53:41Z</time>
      </trkpt>
      <trkpt lat="44.84551" lon="5.72607">
        <ele>804.1</ele>
        <time>2021-04-22T12:53:42Z</time>
      </trkpt>
      <trkpt lat="44.84552" lon="5.72606">
        <ele>804.2</ele>
        <time>2021-04-22T12:53:43Z</time>
      </trkpt>
      <trkpt lat="44.84554" lon="5.72601">
        <ele>804.5</ele>
        <time>2021-04-22T12:53:45Z</time>
      </trkpt>
      <trkpt lat="44.84556" lon="5.726">
        <ele>804.6</ele>
        <time>2021-04-22T12:53:46Z</time>
      </trkpt>
      <trkpt lat="44.84557" lon="5.72598">
        <ele>804.8</ele>
        <time>2021-04-22T12:53:47Z</time>
      </trkpt>
      <trkpt lat="44.84559" lon="5.72596">
        <ele>805</ele>
        <time>2021-04-22T12:53:49Z</time>
      </trkpt>
      <trkpt lat="44.84562" lon="5.72593">
        <ele>805.3</ele>
        <time>2021-04-22T12:53:50Z</time>
      </trkpt>
      <trkpt lat="44.84563" lon="5.72593">
        <ele>805.4</ele>
        <time>2021-04-22T12:53:51Z</time>
      </trkpt>
      <trkpt lat="44.84567" lon="5.7259">
        <ele>805.7</ele>
        <time>2021-04-22T12:53:53Z</time>
      </trkpt>
      <trkpt lat="44.84571" lon="5.72588">
        <ele>806</ele>
        <time>2021-04-22T12:53:55Z</time>
      </trkpt>
      <trkpt lat="44.84574" lon="5.72587">
        <ele>806.2</ele>
        <time>2021-04-22T12:53:56Z</time>
      </trkpt>
      <trkpt lat="44.84578" lon="5.72585">
        <ele>806.5</ele>
        <time>2021-04-22T12:53:58Z</time>
      </trkpt>
      <trkpt lat="44.8458" lon="5.72584">
        <ele>806.7</ele>
        <time>2021-04-22T12:53:59Z</time>
      </trkpt>
      <trkpt lat="44.84584" lon="5.72581">
        <ele>807</ele>
        <time>2021-04-22T12:54:01Z</time>
      </trkpt>
      <trkpt lat="44.84586" lon="5.72575">
        <ele>807.3</ele>
        <time>2021-04-22T12:54:02Z</time>
      </trkpt>
      <trkpt lat="44.84588" lon="5.72572">
        <ele>807.5</ele>
        <time>2021-04-22T12:54:03Z</time>
      </trkpt>
      <trkpt lat="44.8459" lon="5.72567">
        <ele>807.7</ele>
        <time>2021-04-22T12:54:05Z</time>
      </trkpt>
      <trkpt lat="44.84589" lon="5.72559">
        <ele>808</ele>
        <time>2021-04-22T12:54:06Z</time>
      </trkpt>
      <trkpt lat="44.84589" lon="5.72555">
        <ele>808.2</ele>
        <time>2021-04-22T12:54:07Z</time>
      </trkpt>
      <trkpt lat="44.84587" lon="5.72549">
        <ele>808.5</ele>
        <time>2021-04-22T12:54:09Z</time>
      </trkpt>
      <trkpt lat="44.84583" lon="5.72543">
        <ele>808.8</ele>
        <time>2021-04-22T12:54:11Z</time>
      </trkpt>
      <trkpt lat="44.8458" lon="5.72541">
        <ele>809</ele>
        <time>2021-04-22T12:54:12Z</time>
      </trkpt>
      <trkpt lat="44.84579" lon="5.7254">
        <ele>809</ele>
        <time>2021-04-22T12:54:13Z</time>
      </trkpt>
      <trkpt lat="44.84576" lon="5.72538">
        <ele>809.2</ele>
        <time>2021-04-22T12:54:14Z</time>
      </trkpt>
      <trkpt lat="44.84571" lon="5.72537">
        <ele>809.5</ele>
        <time>2021-04-22T12:54:16Z</time>
      </trkpt>
      <trkpt lat="44.84567" lon="5.72539">
        <ele>809.7</ele>
        <time>2021-04-22T12:54:18Z</time>
      </trkpt>
      <trkpt lat="44.84565" lon="5.72539">
        <ele>809.9</ele>
        <time>2021-04-22T12:54:19Z</time>
      </trkpt>
      <trkpt lat="44.84559" lon="5.72542">
        <ele>810.1</ele>
        <time>2021-04-22T12:54:21Z</time>
      </trkpt>
      <trkpt lat="44.84555" lon="5.72543">
        <ele>810.4</ele>
        <time>2021-04-22T12:54:23Z</time>
      </trkpt>
      <trkpt lat="44.84551" lon="5.72546">
        <ele>810.6</ele>
        <time>2021-04-22T12:54:25Z</time>
      </trkpt>
      <trkpt lat="44.84549" lon="5.72547">
        <ele>810.7</ele>
        <time>2021-04-22T12:54:26Z</time>
      </trkpt>
      <trkpt lat="44.84545" lon="5.72551">
        <ele>811</ele>
        <time>2021-04-22T12:54:28Z</time>
      </trkpt>
      <trkpt lat="44.84542" lon="5.72554">
        <ele>811.2</ele>
        <time>2021-04-22T12:54:30Z</time>
      </trkpt>
      <trkpt lat="44.84538" lon="5.72556">
        <ele>811.3</ele>
        <time>2021-04-22T12:54:31Z</time>
      </trkpt>
      <trkpt lat="44.84537" lon="5.72557">
        <ele>811.4</ele>
        <time>2021-04-22T12:54:32Z</time>
      </trkpt>
      <trkpt lat="44.84531" lon="5.7256">
        <ele>811.7</ele>
        <time>2021-04-22T12:54:34Z</time>
      </trkpt>
      <trkpt lat="44.84527" lon="5.7256">
        <ele>812</ele>
        <time>2021-04-22T12:54:35Z</time>
      </trkpt>
      <trkpt lat="44.84523" lon="5.7256">
        <ele>812.2</ele>
        <time>2021-04-22T12:54:36Z</time>
      </trkpt>
      <trkpt lat="44.8452" lon="5.72559">
        <ele>812.4</ele>
        <time>2021-04-22T12:54:38Z</time>
      </trkpt>
      <trkpt lat="44.84515" lon="5.72558">
        <ele>812.7</ele>
        <time>2021-04-22T12:54:40Z</time>
      </trkpt>
      <trkpt lat="44.84512" lon="5.72557">
        <ele>812.9</ele>
        <time>2021-04-22T12:54:41Z</time>
      </trkpt>
      <trkpt lat="44.84508" lon="5.72557">
        <ele>813.1</ele>
        <time>2021-04-22T12:54:42Z</time>
      </trkpt>
      <trkpt lat="44.84503" lon="5.72555">
        <ele>813.4</ele>
        <time>2021-04-22T12:54:43Z</time>
      </trkpt>
      <trkpt lat="44.84499" lon="5.72555">
        <ele>813.6</ele>
        <time>2021-04-22T12:54:45Z</time>
      </trkpt>
      <trkpt lat="44.84498" lon="5.72555">
        <ele>813.7</ele>
        <time>2021-04-22T12:54:46Z</time>
      </trkpt>
      <trkpt lat="44.84494" lon="5.72554">
        <ele>813.9</ele>
        <time>2021-04-22T12:54:48Z</time>
      </trkpt>
      <trkpt lat="44.84491" lon="5.72553">
        <ele>814.2</ele>
        <time>2021-04-22T12:54:49Z</time>
      </trkpt>
      <trkpt lat="44.84489" lon="5.72552">
        <ele>814.3</ele>
        <time>2021-04-22T12:54:50Z</time>
      </trkpt>
      <trkpt lat="44.84485" lon="5.72551">
        <ele>814.6</ele>
        <time>2021-04-22T12:54:51Z</time>
      </trkpt>
      <trkpt lat="44.84482" lon="5.72551">
        <ele>814.9</ele>
        <time>2021-04-22T12:54:53Z</time>
      </trkpt>
      <trkpt lat="44.84479" lon="5.72549">
        <ele>815.1</ele>
        <time>2021-04-22T12:54:54Z</time>
      </trkpt>
      <trkpt lat="44.84476" lon="5.72549">
        <ele>815.4</ele>
        <time>2021-04-22T12:54:56Z</time>
      </trkpt>
      <trkpt lat="44.84473" lon="5.72547">
        <ele>815.6</ele>
        <time>2021-04-22T12:54:57Z</time>
      </trkpt>
      <trkpt lat="44.84469" lon="5.72546">
        <ele>815.9</ele>
        <time>2021-04-22T12:54:59Z</time>
      </trkpt>
      <trkpt lat="44.84467" lon="5.72545">
        <ele>816.1</ele>
        <time>2021-04-22T12:55:00Z</time>
      </trkpt>
      <trkpt lat="44.84465" lon="5.72545">
        <ele>816.2</ele>
        <time>2021-04-22T12:55:01Z</time>
      </trkpt>
      <trkpt lat="44.84461" lon="5.72543">
        <ele>816.6</ele>
        <time>2021-04-22T12:55:03Z</time>
      </trkpt>
      <trkpt lat="44.84456" lon="5.72541">
        <ele>816.9</ele>
        <time>2021-04-22T12:55:05Z</time>
      </trkpt>
      <trkpt lat="44.84451" lon="5.72539">
        <ele>817.3</ele>
        <time>2021-04-22T12:55:07Z</time>
      </trkpt>
      <trkpt lat="44.84447" lon="5.72536">
        <ele>817.6</ele>
        <time>2021-04-22T12:55:08Z</time>
      </trkpt>
      <trkpt lat="44.84446" lon="5.72535">
        <ele>817.8</ele>
        <time>2021-04-22T12:55:09Z</time>
      </trkpt>
      <trkpt lat="44.84442" lon="5.72533">
        <ele>818.1</ele>
        <time>2021-04-22T12:55:11Z</time>
      </trkpt>
      <trkpt lat="44.84439" lon="5.72531">
        <ele>818.4</ele>
        <time>2021-04-22T12:55:13Z</time>
      </trkpt>
      <trkpt lat="44.84436" lon="5.72529">
        <ele>818.6</ele>
        <time>2021-04-22T12:55:14Z</time>
      </trkpt>
      <trkpt lat="44.84435" lon="5.72529">
        <ele>818.7</ele>
        <time>2021-04-22T12:55:15Z</time>
      </trkpt>
      <trkpt lat="44.84432" lon="5.72527">
        <ele>818.9</ele>
        <time>2021-04-22T12:55:16Z</time>
      </trkpt>
      <trkpt lat="44.8443" lon="5.72524">
        <ele>819.2</ele>
        <time>2021-04-22T12:55:17Z</time>
      </trkpt>
      <trkpt lat="44.84427" lon="5.72521">
        <ele>819.5</ele>
        <time>2021-04-22T12:55:19Z</time>
      </trkpt>
      <trkpt lat="44.84424" lon="5.72517">
        <ele>819.8</ele>
        <time>2021-04-22T12:55:20Z</time>
      </trkpt>
      <trkpt lat="44.84423" lon="5.72516">
        <ele>819.9</ele>
        <time>2021-04-22T12:55:21Z</time>
      </trkpt>
      <trkpt lat="44.84421" lon="5.72514">
        <ele>820.1</ele>
        <time>2021-04-22T12:55:23Z</time>
      </trkpt>
      <trkpt lat="44.84418" lon="5.72511">
        <ele>820.4</ele>
        <time>2021-04-22T12:55:24Z</time>
      </trkpt>
      <trkpt lat="44.84415" lon="5.72507">
        <ele>820.6</ele>
        <time>2021-04-22T12:55:26Z</time>
      </trkpt>
      <trkpt lat="44.84413" lon="5.72505">
        <ele>820.8</ele>
        <time>2021-04-22T12:55:27Z</time>
      </trkpt>
      <trkpt lat="44.8441" lon="5.72501">
        <ele>821.1</ele>
        <time>2021-04-22T12:55:29Z</time>
      </trkpt>
      <trkpt lat="44.84409" lon="5.72497">
        <ele>821.4</ele>
        <time>2021-04-22T12:55:30Z</time>
      </trkpt>
      <trkpt lat="44.84408" lon="5.72495">
        <ele>821.5</ele>
        <time>2021-04-22T12:55:31Z</time>
      </trkpt>
      <trkpt lat="44.84406" lon="5.72492">
        <ele>821.7</ele>
        <time>2021-04-22T12:55:33Z</time>
      </trkpt>
      <trkpt lat="44.84405" lon="5.72491">
        <ele>821.8</ele>
        <time>2021-04-22T12:55:34Z</time>
      </trkpt>
      <trkpt lat="44.84404" lon="5.72488">
        <ele>822</ele>
        <time>2021-04-22T12:55:35Z</time>
      </trkpt>
      <trkpt lat="44.84402" lon="5.72485">
        <ele>822.2</ele>
        <time>2021-04-22T12:55:36Z</time>
      </trkpt>
      <trkpt lat="44.84401" lon="5.72483">
        <ele>822.4</ele>
        <time>2021-04-22T12:55:38Z</time>
      </trkpt>
      <trkpt lat="44.84399" lon="5.7248">
        <ele>822.6</ele>
        <time>2021-04-22T12:55:39Z</time>
      </trkpt>
      <trkpt lat="44.84397" lon="5.72477">
        <ele>822.8</ele>
        <time>2021-04-22T12:55:41Z</time>
      </trkpt>
      <trkpt lat="44.84396" lon="5.72473">
        <ele>823</ele>
        <time>2021-04-22T12:55:42Z</time>
      </trkpt>
      <trkpt lat="44.84395" lon="5.72472">
        <ele>823.1</ele>
        <time>2021-04-22T12:55:43Z</time>
      </trkpt>
      <trkpt lat="44.84393" lon="5.72467">
        <ele>823.4</ele>
        <time>2021-04-22T12:55:44Z</time>
      </trkpt>
      <trkpt lat="44.84392" lon="5.72465">
        <ele>823.6</ele>
        <time>2021-04-22T12:55:45Z</time>
      </trkpt>
      <trkpt lat="44.84391" lon="5.72462">
        <ele>823.8</ele>
        <time>2021-04-22T12:55:47Z</time>
      </trkpt>
      <trkpt lat="44.84389" lon="5.72458">
        <ele>824.1</ele>
        <time>2021-04-22T12:55:49Z</time>
      </trkpt>
      <trkpt lat="44.84387" lon="5.72455">
        <ele>824.3</ele>
        <time>2021-04-22T12:55:50Z</time>
      </trkpt>
      <trkpt lat="44.84385" lon="5.72451">
        <ele>824.5</ele>
        <time>2021-04-22T12:55:52Z</time>
      </trkpt>
      <trkpt lat="44.84383" lon="5.72449">
        <ele>824.8</ele>
        <time>2021-04-22T12:55:53Z</time>
      </trkpt>
      <trkpt lat="44.84382" lon="5.72447">
        <ele>824.9</ele>
        <time>2021-04-22T12:55:54Z</time>
      </trkpt>
      <trkpt lat="44.84379" lon="5.72444">
        <ele>825.2</ele>
        <time>2021-04-22T12:55:56Z</time>
      </trkpt>
      <trkpt lat="44.84377" lon="5.72441">
        <ele>825.4</ele>
        <time>2021-04-22T12:55:57Z</time>
      </trkpt>
      <trkpt lat="44.84375" lon="5.72437">
        <ele>825.7</ele>
        <time>2021-04-22T12:55:59Z</time>
      </trkpt>
      <trkpt lat="44.84372" lon="5.72432">
        <ele>826</ele>
        <time>2021-04-22T12:56:01Z</time>
      </trkpt>
      <trkpt lat="44.8437" lon="5.72428">
        <ele>826.3</ele>
        <time>2021-04-22T12:56:02Z</time>
      </trkpt>
      <trkpt lat="44.84369" lon="5.72427">
        <ele>826.4</ele>
        <time>2021-04-22T12:56:03Z</time>
      </trkpt>
      <trkpt lat="44.84366" lon="5.72424">
        <ele>826.7</ele>
        <time>2021-04-22T12:56:05Z</time>
      </trkpt>
      <trkpt lat="44.84364" lon="5.72421">
        <ele>826.9</ele>
        <time>2021-04-22T12:56:06Z</time>
      </trkpt>
      <trkpt lat="44.84361" lon="5.72418">
        <ele>827.2</ele>
        <time>2021-04-22T12:56:08Z</time>
      </trkpt>
      <trkpt lat="44.84359" lon="5.72415">
        <ele>827.4</ele>
        <time>2021-04-22T12:56:10Z</time>
      </trkpt>
      <trkpt lat="44.84357" lon="5.72413">
        <ele>827.6</ele>
        <time>2021-04-22T12:56:11Z</time>
      </trkpt>
      <trkpt lat="44.84354" lon="5.72411">
        <ele>827.8</ele>
        <time>2021-04-22T12:56:13Z</time>
      </trkpt>
      <trkpt lat="44.84353" lon="5.72409">
        <ele>828</ele>
        <time>2021-04-22T12:56:14Z</time>
      </trkpt>
      <trkpt lat="44.8435" lon="5.72404">
        <ele>828.3</ele>
        <time>2021-04-22T12:56:16Z</time>
      </trkpt>
      <trkpt lat="44.84348" lon="5.724">
        <ele>828.6</ele>
        <time>2021-04-22T12:56:17Z</time>
      </trkpt>
      <trkpt lat="44.84348" lon="5.72399">
        <ele>828.7</ele>
        <time>2021-04-22T12:56:18Z</time>
      </trkpt>
      <trkpt lat="44.84347" lon="5.72395">
        <ele>828.9</ele>
        <time>2021-04-22T12:56:19Z</time>
      </trkpt>
      <trkpt lat="44.84345" lon="5.72393">
        <ele>829.1</ele>
        <time>2021-04-22T12:56:21Z</time>
      </trkpt>
      <trkpt lat="44.84344" lon="5.72389">
        <ele>829.4</ele>
        <time>2021-04-22T12:56:22Z</time>
      </trkpt>
      <trkpt lat="44.84343" lon="5.72388">
        <ele>829.5</ele>
        <time>2021-04-22T12:56:23Z</time>
      </trkpt>
      <trkpt lat="44.84343" lon="5.72382">
        <ele>829.8</ele>
        <time>2021-04-22T12:56:25Z</time>
      </trkpt>
      <trkpt lat="44.84341" lon="5.72378">
        <ele>830.1</ele>
        <time>2021-04-22T12:56:26Z</time>
      </trkpt>
      <trkpt lat="44.84341" lon="5.72377">
        <ele>830.2</ele>
        <time>2021-04-22T12:56:27Z</time>
      </trkpt>
      <trkpt lat="44.84339" lon="5.7237">
        <ele>830.6</ele>
        <time>2021-04-22T12:56:29Z</time>
      </trkpt>
      <trkpt lat="44.84338" lon="5.72368">
        <ele>830.8</ele>
        <time>2021-04-22T12:56:30Z</time>
      </trkpt>
      <trkpt lat="44.84337" lon="5.72365">
        <ele>831</ele>
        <time>2021-04-22T12:56:31Z</time>
      </trkpt>
      <trkpt lat="44.84337" lon="5.72362">
        <ele>831.2</ele>
        <time>2021-04-22T12:56:33Z</time>
      </trkpt>
      <trkpt lat="44.84335" lon="5.72356">
        <ele>831.5</ele>
        <time>2021-04-22T12:56:35Z</time>
      </trkpt>
      <trkpt lat="44.84334" lon="5.7235">
        <ele>831.9</ele>
        <time>2021-04-22T12:56:37Z</time>
      </trkpt>
      <trkpt lat="44.84333" lon="5.72345">
        <ele>832.3</ele>
        <time>2021-04-22T12:56:38Z</time>
      </trkpt>
      <trkpt lat="44.84333" lon="5.72338">
        <ele>832.7</ele>
        <time>2021-04-22T12:56:40Z</time>
      </trkpt>
      <trkpt lat="44.84333" lon="5.72336">
        <ele>832.8</ele>
        <time>2021-04-22T12:56:41Z</time>
      </trkpt>
      <trkpt lat="44.84332" lon="5.72333">
        <ele>833</ele>
        <time>2021-04-22T12:56:42Z</time>
      </trkpt>
      <trkpt lat="44.84332" lon="5.7233">
        <ele>833.2</ele>
        <time>2021-04-22T12:56:44Z</time>
      </trkpt>
      <trkpt lat="44.84332" lon="5.72325">
        <ele>833.5</ele>
        <time>2021-04-22T12:56:46Z</time>
      </trkpt>
      <trkpt lat="44.84332" lon="5.72322">
        <ele>833.7</ele>
        <time>2021-04-22T12:56:47Z</time>
      </trkpt>
      <trkpt lat="44.84332" lon="5.72317">
        <ele>834</ele>
        <time>2021-04-22T12:56:49Z</time>
      </trkpt>
      <trkpt lat="44.84332" lon="5.72315">
        <ele>834.1</ele>
        <time>2021-04-22T12:56:50Z</time>
      </trkpt>
      <trkpt lat="44.84332" lon="5.72313">
        <ele>834.2</ele>
        <time>2021-04-22T12:56:51Z</time>
      </trkpt>
      <trkpt lat="44.84332" lon="5.72311">
        <ele>834.4</ele>
        <time>2021-04-22T12:56:52Z</time>
      </trkpt>
      <trkpt lat="44.84332" lon="5.72308">
        <ele>834.5</ele>
        <time>2021-04-22T12:56:53Z</time>
      </trkpt>
      <trkpt lat="44.84332" lon="5.72305">
        <ele>834.7</ele>
        <time>2021-04-22T12:56:54Z</time>
      </trkpt>
      <trkpt lat="44.84332" lon="5.72299">
        <ele>835</ele>
        <time>2021-04-22T12:56:56Z</time>
      </trkpt>
      <trkpt lat="44.84332" lon="5.72295">
        <ele>835.2</ele>
        <time>2021-04-22T12:56:57Z</time>
      </trkpt>
      <trkpt lat="44.8433" lon="5.72289">
        <ele>835.6</ele>
        <time>2021-04-22T12:56:59Z</time>
      </trkpt>
      <trkpt lat="44.84329" lon="5.72286">
        <ele>835.7</ele>
        <time>2021-04-22T12:57:00Z</time>
      </trkpt>
      <trkpt lat="44.84327" lon="5.72284">
        <ele>835.9</ele>
        <time>2021-04-22T12:57:01Z</time>
      </trkpt>
      <trkpt lat="44.84324" lon="5.72281">
        <ele>836.1</ele>
        <time>2021-04-22T12:57:03Z</time>
      </trkpt>
      <trkpt lat="44.84322" lon="5.7228">
        <ele>836.3</ele>
        <time>2021-04-22T12:57:04Z</time>
      </trkpt>
      <trkpt lat="44.84317" lon="5.72279">
        <ele>836.5</ele>
        <time>2021-04-22T12:57:05Z</time>
      </trkpt>
      <trkpt lat="44.84314" lon="5.7228">
        <ele>836.7</ele>
        <time>2021-04-22T12:57:06Z</time>
      </trkpt>
      <trkpt lat="44.84311" lon="5.72281">
        <ele>836.9</ele>
        <time>2021-04-22T12:57:08Z</time>
      </trkpt>
      <trkpt lat="44.84308" lon="5.72285">
        <ele>837.1</ele>
        <time>2021-04-22T12:57:09Z</time>
      </trkpt>
      <trkpt lat="44.84307" lon="5.72289">
        <ele>837.2</ele>
        <time>2021-04-22T12:57:10Z</time>
      </trkpt>
      <trkpt lat="44.84306" lon="5.72295">
        <ele>837.4</ele>
        <time>2021-04-22T12:57:11Z</time>
      </trkpt>
      <trkpt lat="44.84305" lon="5.72299">
        <ele>837.5</ele>
        <time>2021-04-22T12:57:13Z</time>
      </trkpt>
      <trkpt lat="44.84304" lon="5.72305">
        <ele>837.7</ele>
        <time>2021-04-22T12:57:14Z</time>
      </trkpt>
      <trkpt lat="44.84305" lon="5.72309">
        <ele>837.8</ele>
        <time>2021-04-22T12:57:16Z</time>
      </trkpt>
      <trkpt lat="44.84304" lon="5.72313">
        <ele>837.9</ele>
        <time>2021-04-22T12:57:17Z</time>
      </trkpt>
      <trkpt lat="44.84302" lon="5.7232">
        <ele>838</ele>
        <time>2021-04-22T12:57:18Z</time>
      </trkpt>
      <trkpt lat="44.84301" lon="5.72323">
        <ele>838.2</ele>
        <time>2021-04-22T12:57:20Z</time>
      </trkpt>
      <trkpt lat="44.84299" lon="5.72329">
        <ele>838.3</ele>
        <time>2021-04-22T12:57:21Z</time>
      </trkpt>
      <trkpt lat="44.84296" lon="5.72333">
        <ele>838.5</ele>
        <time>2021-04-22T12:57:23Z</time>
      </trkpt>
      <trkpt lat="44.84295" lon="5.72335">
        <ele>838.5</ele>
        <time>2021-04-22T12:57:24Z</time>
      </trkpt>
      <trkpt lat="44.84292" lon="5.72339">
        <ele>838.7</ele>
        <time>2021-04-22T12:57:25Z</time>
      </trkpt>
      <trkpt lat="44.84288" lon="5.72343">
        <ele>838.9</ele>
        <time>2021-04-22T12:57:27Z</time>
      </trkpt>
      <trkpt lat="44.84283" lon="5.72344">
        <ele>839</ele>
        <time>2021-04-22T12:57:28Z</time>
      </trkpt>
      <trkpt lat="44.8428" lon="5.72344">
        <ele>839.2</ele>
        <time>2021-04-22T12:57:29Z</time>
      </trkpt>
      <trkpt lat="44.84275" lon="5.72342">
        <ele>839.4</ele>
        <time>2021-04-22T12:57:31Z</time>
      </trkpt>
      <trkpt lat="44.8427" lon="5.72341">
        <ele>839.6</ele>
        <time>2021-04-22T12:57:32Z</time>
      </trkpt>
      <trkpt lat="44.84266" lon="5.7234">
        <ele>839.8</ele>
        <time>2021-04-22T12:57:33Z</time>
      </trkpt>
      <trkpt lat="44.84258" lon="5.72335">
        <ele>840.3</ele>
        <time>2021-04-22T12:57:37Z</time>
      </trkpt>
      <trkpt lat="44.84255" lon="5.72334">
        <ele>840.5</ele>
        <time>2021-04-22T12:57:38Z</time>
      </trkpt>
      <trkpt lat="44.84252" lon="5.72331">
        <ele>840.7</ele>
        <time>2021-04-22T12:57:39Z</time>
      </trkpt>
      <trkpt lat="44.84247" lon="5.72328">
        <ele>841.1</ele>
        <time>2021-04-22T12:57:41Z</time>
      </trkpt>
      <trkpt lat="44.84244" lon="5.72326">
        <ele>841.3</ele>
        <time>2021-04-22T12:57:42Z</time>
      </trkpt>
      <trkpt lat="44.84241" lon="5.72323">
        <ele>841.5</ele>
        <time>2021-04-22T12:57:43Z</time>
      </trkpt>
      <trkpt lat="44.84237" lon="5.7232">
        <ele>841.9</ele>
        <time>2021-04-22T12:57:44Z</time>
      </trkpt>
      <trkpt lat="44.84233" lon="5.72317">
        <ele>842.2</ele>
        <time>2021-04-22T12:57:46Z</time>
      </trkpt>
      <trkpt lat="44.84229" lon="5.72313">
        <ele>842.5</ele>
        <time>2021-04-22T12:57:47Z</time>
      </trkpt>
      <trkpt lat="44.84227" lon="5.7231">
        <ele>842.7</ele>
        <time>2021-04-22T12:57:49Z</time>
      </trkpt>
      <trkpt lat="44.84225" lon="5.72309">
        <ele>842.9</ele>
        <time>2021-04-22T12:57:50Z</time>
      </trkpt>
      <trkpt lat="44.84221" lon="5.72304">
        <ele>843.3</ele>
        <time>2021-04-22T12:57:52Z</time>
      </trkpt>
      <trkpt lat="44.84218" lon="5.72302">
        <ele>843.6</ele>
        <time>2021-04-22T12:57:53Z</time>
      </trkpt>
      <trkpt lat="44.84214" lon="5.72298">
        <ele>844</ele>
        <time>2021-04-22T12:57:55Z</time>
      </trkpt>
      <trkpt lat="44.84211" lon="5.72294">
        <ele>844.3</ele>
        <time>2021-04-22T12:57:56Z</time>
      </trkpt>
      <trkpt lat="44.84207" lon="5.72291">
        <ele>844.6</ele>
        <time>2021-04-22T12:57:58Z</time>
      </trkpt>
      <trkpt lat="44.84206" lon="5.72289">
        <ele>844.8</ele>
        <time>2021-04-22T12:57:59Z</time>
      </trkpt>
      <trkpt lat="44.84201" lon="5.72284">
        <ele>845.3</ele>
        <time>2021-04-22T12:58:01Z</time>
      </trkpt>
      <trkpt lat="44.84195" lon="5.7228">
        <ele>845.9</ele>
        <time>2021-04-22T12:58:03Z</time>
      </trkpt>
      <trkpt lat="44.84192" lon="5.72278">
        <ele>846.2</ele>
        <time>2021-04-22T12:58:04Z</time>
      </trkpt>
      <trkpt lat="44.84187" lon="5.72275">
        <ele>846.6</ele>
        <time>2021-04-22T12:58:06Z</time>
      </trkpt>
      <trkpt lat="44.84184" lon="5.72271">
        <ele>847</ele>
        <time>2021-04-22T12:58:08Z</time>
      </trkpt>
      <trkpt lat="44.84182" lon="5.72269">
        <ele>847.2</ele>
        <time>2021-04-22T12:58:09Z</time>
      </trkpt>
      <trkpt lat="44.84178" lon="5.72265">
        <ele>847.5</ele>
        <time>2021-04-22T12:58:11Z</time>
      </trkpt>
      <trkpt lat="44.84174" lon="5.72262">
        <ele>847.9</ele>
        <time>2021-04-22T12:58:13Z</time>
      </trkpt>
      <trkpt lat="44.8417" lon="5.7226">
        <ele>848.3</ele>
        <time>2021-04-22T12:58:15Z</time>
      </trkpt>
      <trkpt lat="44.84165" lon="5.72255">
        <ele>848.6</ele>
        <time>2021-04-22T12:58:17Z</time>
      </trkpt>
      <trkpt lat="44.84161" lon="5.72252">
        <ele>848.9</ele>
        <time>2021-04-22T12:58:19Z</time>
      </trkpt>
      <trkpt lat="44.84159" lon="5.7225">
        <ele>849.1</ele>
        <time>2021-04-22T12:58:20Z</time>
      </trkpt>
      <trkpt lat="44.84155" lon="5.72245">
        <ele>849.4</ele>
        <time>2021-04-22T12:58:22Z</time>
      </trkpt>
      <trkpt lat="44.84151" lon="5.72241">
        <ele>849.7</ele>
        <time>2021-04-22T12:58:24Z</time>
      </trkpt>
      <trkpt lat="44.84149" lon="5.72238">
        <ele>849.9</ele>
        <time>2021-04-22T12:58:25Z</time>
      </trkpt>
      <trkpt lat="44.84143" lon="5.72234">
        <ele>850.2</ele>
        <time>2021-04-22T12:58:27Z</time>
      </trkpt>
      <trkpt lat="44.84141" lon="5.72232">
        <ele>850.3</ele>
        <time>2021-04-22T12:58:28Z</time>
      </trkpt>
      <trkpt lat="44.84137" lon="5.72227">
        <ele>850.5</ele>
        <time>2021-04-22T12:58:30Z</time>
      </trkpt>
      <trkpt lat="44.84134" lon="5.72224">
        <ele>850.6</ele>
        <time>2021-04-22T12:58:31Z</time>
      </trkpt>
      <trkpt lat="44.84132" lon="5.7222">
        <ele>850.7</ele>
        <time>2021-04-22T12:58:32Z</time>
      </trkpt>
      <trkpt lat="44.84129" lon="5.72215">
        <ele>850.9</ele>
        <time>2021-04-22T12:58:34Z</time>
      </trkpt>
      <trkpt lat="44.84127" lon="5.72212">
        <ele>851</ele>
        <time>2021-04-22T12:58:35Z</time>
      </trkpt>
      <trkpt lat="44.84125" lon="5.72208">
        <ele>851.1</ele>
        <time>2021-04-22T12:58:36Z</time>
      </trkpt>
      <trkpt lat="44.8412" lon="5.72203">
        <ele>851.3</ele>
        <time>2021-04-22T12:58:37Z</time>
      </trkpt>
      <trkpt lat="44.84118" lon="5.722">
        <ele>851.4</ele>
        <time>2021-04-22T12:58:39Z</time>
      </trkpt>
      <trkpt lat="44.84113" lon="5.72194">
        <ele>851.6</ele>
        <time>2021-04-22T12:58:41Z</time>
      </trkpt>
      <trkpt lat="44.8411" lon="5.72191">
        <ele>851.7</ele>
        <time>2021-04-22T12:58:42Z</time>
      </trkpt>
      <trkpt lat="44.84106" lon="5.72185">
        <ele>851.9</ele>
        <time>2021-04-22T12:58:43Z</time>
      </trkpt>
      <trkpt lat="44.84102" lon="5.72181">
        <ele>852.1</ele>
        <time>2021-04-22T12:58:45Z</time>
      </trkpt>
      <trkpt lat="44.84099" lon="5.72175">
        <ele>852.2</ele>
        <time>2021-04-22T12:58:46Z</time>
      </trkpt>
      <trkpt lat="44.84096" lon="5.72169">
        <ele>852.4</ele>
        <time>2021-04-22T12:58:48Z</time>
      </trkpt>
      <trkpt lat="44.84092" lon="5.72163">
        <ele>852.6</ele>
        <time>2021-04-22T12:58:50Z</time>
      </trkpt>
      <trkpt lat="44.84088" lon="5.72158">
        <ele>852.8</ele>
        <time>2021-04-22T12:58:51Z</time>
      </trkpt>
      <trkpt lat="44.84083" lon="5.7215">
        <ele>853</ele>
        <time>2021-04-22T12:58:53Z</time>
      </trkpt>
      <trkpt lat="44.84081" lon="5.72146">
        <ele>853.1</ele>
        <time>2021-04-22T12:58:54Z</time>
      </trkpt>
      <trkpt lat="44.84076" lon="5.72139">
        <ele>853.3</ele>
        <time>2021-04-22T12:58:55Z</time>
      </trkpt>
      <trkpt lat="44.84074" lon="5.72135">
        <ele>853.5</ele>
        <time>2021-04-22T12:58:57Z</time>
      </trkpt>
      <trkpt lat="44.84071" lon="5.72131">
        <ele>853.6</ele>
        <time>2021-04-22T12:58:58Z</time>
      </trkpt>
      <trkpt lat="44.84066" lon="5.72124">
        <ele>853.8</ele>
        <time>2021-04-22T12:59:00Z</time>
      </trkpt>
      <trkpt lat="44.84063" lon="5.72121">
        <ele>853.9</ele>
        <time>2021-04-22T12:59:01Z</time>
      </trkpt>
      <trkpt lat="44.84061" lon="5.72117">
        <ele>854</ele>
        <time>2021-04-22T12:59:02Z</time>
      </trkpt>
      <trkpt lat="44.84058" lon="5.7211">
        <ele>854.2</ele>
        <time>2021-04-22T12:59:04Z</time>
      </trkpt>
      <trkpt lat="44.84056" lon="5.72107">
        <ele>854.3</ele>
        <time>2021-04-22T12:59:05Z</time>
      </trkpt>
      <trkpt lat="44.84052" lon="5.72101">
        <ele>854.4</ele>
        <time>2021-04-22T12:59:07Z</time>
      </trkpt>
      <trkpt lat="44.8405" lon="5.72098">
        <ele>854.5</ele>
        <time>2021-04-22T12:59:08Z</time>
      </trkpt>
      <trkpt lat="44.84045" lon="5.7209">
        <ele>854.7</ele>
        <time>2021-04-22T12:59:10Z</time>
      </trkpt>
      <trkpt lat="44.84039" lon="5.72082">
        <ele>854.8</ele>
        <time>2021-04-22T12:59:12Z</time>
      </trkpt>
      <trkpt lat="44.84033" lon="5.72076">
        <ele>855</ele>
        <time>2021-04-22T12:59:14Z</time>
      </trkpt>
      <trkpt lat="44.8403" lon="5.72072">
        <ele>855</ele>
        <time>2021-04-22T12:59:15Z</time>
      </trkpt>
      <trkpt lat="44.84027" lon="5.72066">
        <ele>855.1</ele>
        <time>2021-04-22T12:59:16Z</time>
      </trkpt>
      <trkpt lat="44.84024" lon="5.72061">
        <ele>855.1</ele>
        <time>2021-04-22T12:59:17Z</time>
      </trkpt>
      <trkpt lat="44.84019" lon="5.72054">
        <ele>855.1</ele>
        <time>2021-04-22T12:59:19Z</time>
      </trkpt>
      <trkpt lat="44.84014" lon="5.72047">
        <ele>855.2</ele>
        <time>2021-04-22T12:59:21Z</time>
      </trkpt>
      <trkpt lat="44.84009" lon="5.7204">
        <ele>855.2</ele>
        <time>2021-04-22T12:59:23Z</time>
      </trkpt>
      <trkpt lat="44.84006" lon="5.72036">
        <ele>855.3</ele>
        <time>2021-04-22T12:59:24Z</time>
      </trkpt>
      <trkpt lat="44.84001" lon="5.72028">
        <ele>855.4</ele>
        <time>2021-04-22T12:59:26Z</time>
      </trkpt>
      <trkpt lat="44.83997" lon="5.72024">
        <ele>855.4</ele>
        <time>2021-04-22T12:59:27Z</time>
      </trkpt>
      <trkpt lat="44.83992" lon="5.72017">
        <ele>855.5</ele>
        <time>2021-04-22T12:59:29Z</time>
      </trkpt>
      <trkpt lat="44.83989" lon="5.72011">
        <ele>855.5</ele>
        <time>2021-04-22T12:59:30Z</time>
      </trkpt>
      <trkpt lat="44.83985" lon="5.72007">
        <ele>855.6</ele>
        <time>2021-04-22T12:59:32Z</time>
      </trkpt>
      <trkpt lat="44.83983" lon="5.72003">
        <ele>855.6</ele>
        <time>2021-04-22T12:59:33Z</time>
      </trkpt>
      <trkpt lat="44.8398" lon="5.72">
        <ele>855.7</ele>
        <time>2021-04-22T12:59:34Z</time>
      </trkpt>
      <trkpt lat="44.83977" lon="5.71993">
        <ele>855.7</ele>
        <time>2021-04-22T12:59:36Z</time>
      </trkpt>
      <trkpt lat="44.83975" lon="5.71989">
        <ele>855.8</ele>
        <time>2021-04-22T12:59:37Z</time>
      </trkpt>
      <trkpt lat="44.83974" lon="5.71985">
        <ele>855.8</ele>
        <time>2021-04-22T12:59:38Z</time>
      </trkpt>
      <trkpt lat="44.83974" lon="5.71978">
        <ele>855.9</ele>
        <time>2021-04-22T12:59:39Z</time>
      </trkpt>
      <trkpt lat="44.83975" lon="5.71972">
        <ele>856</ele>
        <time>2021-04-22T12:59:40Z</time>
      </trkpt>
      <trkpt lat="44.8398" lon="5.71963">
        <ele>856.1</ele>
        <time>2021-04-22T12:59:42Z</time>
      </trkpt>
      <trkpt lat="44.83986" lon="5.71954">
        <ele>856.1</ele>
        <time>2021-04-22T12:59:44Z</time>
      </trkpt>
      <trkpt lat="44.8399" lon="5.7195">
        <ele>856.1</ele>
        <time>2021-04-22T12:59:45Z</time>
      </trkpt>
      <trkpt lat="44.83996" lon="5.71943">
        <ele>856.2</ele>
        <time>2021-04-22T12:59:47Z</time>
      </trkpt>
      <trkpt lat="44.83999" lon="5.71938">
        <ele>856.3</ele>
        <time>2021-04-22T12:59:48Z</time>
      </trkpt>
      <trkpt lat="44.84003" lon="5.71933">
        <ele>856.4</ele>
        <time>2021-04-22T12:59:49Z</time>
      </trkpt>
      <trkpt lat="44.84008" lon="5.71925">
        <ele>856.5</ele>
        <time>2021-04-22T12:59:50Z</time>
      </trkpt>
      <trkpt lat="44.84011" lon="5.71919">
        <ele>856.6</ele>
        <time>2021-04-22T12:59:52Z</time>
      </trkpt>
      <trkpt lat="44.84015" lon="5.71912">
        <ele>856.7</ele>
        <time>2021-04-22T12:59:53Z</time>
      </trkpt>
      <trkpt lat="44.84018" lon="5.71906">
        <ele>856.8</ele>
        <time>2021-04-22T12:59:54Z</time>
      </trkpt>
      <trkpt lat="44.84022" lon="5.71899">
        <ele>856.9</ele>
        <time>2021-04-22T12:59:55Z</time>
      </trkpt>
      <trkpt lat="44.84024" lon="5.71894">
        <ele>857</ele>
        <time>2021-04-22T12:59:57Z</time>
      </trkpt>
      <trkpt lat="44.84027" lon="5.71887">
        <ele>857.1</ele>
        <time>2021-04-22T12:59:58Z</time>
      </trkpt>
      <trkpt lat="44.8403" lon="5.71879">
        <ele>857.2</ele>
        <time>2021-04-22T12:59:59Z</time>
      </trkpt>
      <trkpt lat="44.84033" lon="5.71873">
        <ele>857.3</ele>
        <time>2021-04-22T13:00:01Z</time>
      </trkpt>
      <trkpt lat="44.84034" lon="5.71869">
        <ele>857.4</ele>
        <time>2021-04-22T13:00:02Z</time>
      </trkpt>
      <trkpt lat="44.84036" lon="5.71864">
        <ele>857.5</ele>
        <time>2021-04-22T13:00:03Z</time>
      </trkpt>
      <trkpt lat="44.84038" lon="5.71857">
        <ele>857.7</ele>
        <time>2021-04-22T13:00:04Z</time>
      </trkpt>
      <trkpt lat="44.8404" lon="5.71851">
        <ele>857.8</ele>
        <time>2021-04-22T13:00:05Z</time>
      </trkpt>
      <trkpt lat="44.84043" lon="5.71842">
        <ele>858</ele>
        <time>2021-04-22T13:00:07Z</time>
      </trkpt>
      <trkpt lat="44.84044" lon="5.71836">
        <ele>858.2</ele>
        <time>2021-04-22T13:00:08Z</time>
      </trkpt>
      <trkpt lat="44.84046" lon="5.71829">
        <ele>858.4</ele>
        <time>2021-04-22T13:00:09Z</time>
      </trkpt>
      <trkpt lat="44.84047" lon="5.71819">
        <ele>858.6</ele>
        <time>2021-04-22T13:00:11Z</time>
      </trkpt>
      <trkpt lat="44.84049" lon="5.71814">
        <ele>858.7</ele>
        <time>2021-04-22T13:00:12Z</time>
      </trkpt>
      <trkpt lat="44.84051" lon="5.71805">
        <ele>859</ele>
        <time>2021-04-22T13:00:14Z</time>
      </trkpt>
      <trkpt lat="44.84052" lon="5.71795">
        <ele>859.2</ele>
        <time>2021-04-22T13:00:15Z</time>
      </trkpt>
      <trkpt lat="44.84053" lon="5.71789">
        <ele>859.4</ele>
        <time>2021-04-22T13:00:16Z</time>
      </trkpt>
      <trkpt lat="44.84054" lon="5.71784">
        <ele>859.5</ele>
        <time>2021-04-22T13:00:18Z</time>
      </trkpt>
      <trkpt lat="44.84055" lon="5.71777">
        <ele>859.7</ele>
        <time>2021-04-22T13:00:19Z</time>
      </trkpt>
      <trkpt lat="44.84056" lon="5.71771">
        <ele>859.9</ele>
        <time>2021-04-22T13:00:20Z</time>
      </trkpt>
      <trkpt lat="44.84057" lon="5.71761">
        <ele>860.2</ele>
        <time>2021-04-22T13:00:22Z</time>
      </trkpt>
      <trkpt lat="44.84057" lon="5.71755">
        <ele>860.4</ele>
        <time>2021-04-22T13:00:23Z</time>
      </trkpt>
      <trkpt lat="44.84057" lon="5.71751">
        <ele>860.5</ele>
        <time>2021-04-22T13:00:24Z</time>
      </trkpt>
      <trkpt lat="44.84057" lon="5.71743">
        <ele>860.8</ele>
        <time>2021-04-22T13:00:26Z</time>
      </trkpt>
      <trkpt lat="44.84057" lon="5.71738">
        <ele>860.9</ele>
        <time>2021-04-22T13:00:27Z</time>
      </trkpt>
      <trkpt lat="44.84057" lon="5.71734">
        <ele>861</ele>
        <time>2021-04-22T13:00:28Z</time>
      </trkpt>
      <trkpt lat="44.84057" lon="5.71729">
        <ele>861.2</ele>
        <time>2021-04-22T13:00:29Z</time>
      </trkpt>
      <trkpt lat="44.84057" lon="5.71723">
        <ele>861.4</ele>
        <time>2021-04-22T13:00:30Z</time>
      </trkpt>
      <trkpt lat="44.84057" lon="5.71717">
        <ele>861.6</ele>
        <time>2021-04-22T13:00:32Z</time>
      </trkpt>
      <trkpt lat="44.84057" lon="5.71712">
        <ele>861.8</ele>
        <time>2021-04-22T13:00:33Z</time>
      </trkpt>
      <trkpt lat="44.84056" lon="5.71709">
        <ele>861.8</ele>
        <time>2021-04-22T13:00:34Z</time>
      </trkpt>
      <trkpt lat="44.84056" lon="5.71702">
        <ele>862.1</ele>
        <time>2021-04-22T13:00:36Z</time>
      </trkpt>
      <trkpt lat="44.84056" lon="5.71698">
        <ele>862.3</ele>
        <time>2021-04-22T13:00:37Z</time>
      </trkpt>
      <trkpt lat="44.84057" lon="5.7169">
        <ele>862.5</ele>
        <time>2021-04-22T13:00:39Z</time>
      </trkpt>
      <trkpt lat="44.84056" lon="5.71685">
        <ele>862.8</ele>
        <time>2021-04-22T13:00:40Z</time>
      </trkpt>
      <trkpt lat="44.84056" lon="5.71678">
        <ele>863</ele>
        <time>2021-04-22T13:00:42Z</time>
      </trkpt>
      <trkpt lat="44.84056" lon="5.71675">
        <ele>863.1</ele>
        <time>2021-04-22T13:00:43Z</time>
      </trkpt>
      <trkpt lat="44.84056" lon="5.71672">
        <ele>863.2</ele>
        <time>2021-04-22T13:00:44Z</time>
      </trkpt>
      <trkpt lat="44.84055" lon="5.71665">
        <ele>863.5</ele>
        <time>2021-04-22T13:00:45Z</time>
      </trkpt>
      <trkpt lat="44.84055" lon="5.7166">
        <ele>863.7</ele>
        <time>2021-04-22T13:00:47Z</time>
      </trkpt>
      <trkpt lat="44.84055" lon="5.71655">
        <ele>863.9</ele>
        <time>2021-04-22T13:00:48Z</time>
      </trkpt>
      <trkpt lat="44.84054" lon="5.71651">
        <ele>864</ele>
        <time>2021-04-22T13:00:49Z</time>
      </trkpt>
      <trkpt lat="44.84053" lon="5.71645">
        <ele>864.2</ele>
        <time>2021-04-22T13:00:51Z</time>
      </trkpt>
      <trkpt lat="44.84053" lon="5.7164">
        <ele>864.4</ele>
        <time>2021-04-22T13:00:52Z</time>
      </trkpt>
      <trkpt lat="44.84053" lon="5.71638">
        <ele>864.5</ele>
        <time>2021-04-22T13:00:53Z</time>
      </trkpt>
      <trkpt lat="44.84053" lon="5.71632">
        <ele>864.7</ele>
        <time>2021-04-22T13:00:54Z</time>
      </trkpt>
      <trkpt lat="44.84053" lon="5.71626">
        <ele>864.9</ele>
        <time>2021-04-22T13:00:56Z</time>
      </trkpt>
      <trkpt lat="44.84053" lon="5.71618">
        <ele>865.1</ele>
        <time>2021-04-22T13:00:57Z</time>
      </trkpt>
      <trkpt lat="44.84053" lon="5.71613">
        <ele>865.3</ele>
        <time>2021-04-22T13:00:59Z</time>
      </trkpt>
      <trkpt lat="44.84053" lon="5.71605">
        <ele>865.6</ele>
        <time>2021-04-22T13:01:01Z</time>
      </trkpt>
      <trkpt lat="44.84053" lon="5.71601">
        <ele>865.7</ele>
        <time>2021-04-22T13:01:02Z</time>
      </trkpt>
      <trkpt lat="44.84053" lon="5.71599">
        <ele>865.8</ele>
        <time>2021-04-22T13:01:03Z</time>
      </trkpt>
      <trkpt lat="44.84053" lon="5.71594">
        <ele>866</ele>
        <time>2021-04-22T13:01:04Z</time>
      </trkpt>
      <trkpt lat="44.84053" lon="5.71592">
        <ele>866.1</ele>
        <time>2021-04-22T13:01:05Z</time>
      </trkpt>
      <trkpt lat="44.84053" lon="5.71588">
        <ele>866.2</ele>
        <time>2021-04-22T13:01:06Z</time>
      </trkpt>
      <trkpt lat="44.84053" lon="5.71583">
        <ele>866.4</ele>
        <time>2021-04-22T13:01:07Z</time>
      </trkpt>
      <trkpt lat="44.84053" lon="5.71576">
        <ele>866.6</ele>
        <time>2021-04-22T13:01:09Z</time>
      </trkpt>
      <trkpt lat="44.84053" lon="5.71571">
        <ele>866.8</ele>
        <time>2021-04-22T13:01:10Z</time>
      </trkpt>
      <trkpt lat="44.84053" lon="5.71567">
        <ele>866.9</ele>
        <time>2021-04-22T13:01:11Z</time>
      </trkpt>
      <trkpt lat="44.84052" lon="5.71562">
        <ele>867</ele>
        <time>2021-04-22T13:01:12Z</time>
      </trkpt>
      <trkpt lat="44.84052" lon="5.71558">
        <ele>867.2</ele>
        <time>2021-04-22T13:01:13Z</time>
      </trkpt>
      <trkpt lat="44.84052" lon="5.71551">
        <ele>867.4</ele>
        <time>2021-04-22T13:01:15Z</time>
      </trkpt>
      <trkpt lat="44.84052" lon="5.71546">
        <ele>867.6</ele>
        <time>2021-04-22T13:01:16Z</time>
      </trkpt>
      <trkpt lat="44.84052" lon="5.71544">
        <ele>867.6</ele>
        <time>2021-04-22T13:01:17Z</time>
      </trkpt>
      <trkpt lat="44.84051" lon="5.71536">
        <ele>867.9</ele>
        <time>2021-04-22T13:01:19Z</time>
      </trkpt>
      <trkpt lat="44.84051" lon="5.71531">
        <ele>868.1</ele>
        <time>2021-04-22T13:01:20Z</time>
      </trkpt>
      <trkpt lat="44.84051" lon="5.71522">
        <ele>868.3</ele>
        <time>2021-04-22T13:01:21Z</time>
      </trkpt>
      <trkpt lat="44.84051" lon="5.71516">
        <ele>868.5</ele>
        <time>2021-04-22T13:01:23Z</time>
      </trkpt>
      <trkpt lat="44.84051" lon="5.71509">
        <ele>868.7</ele>
        <time>2021-04-22T13:01:24Z</time>
      </trkpt>
      <trkpt lat="44.8405" lon="5.71502">
        <ele>869</ele>
        <time>2021-04-22T13:01:26Z</time>
      </trkpt>
      <trkpt lat="44.8405" lon="5.71497">
        <ele>869.1</ele>
        <time>2021-04-22T13:01:27Z</time>
      </trkpt>
      <trkpt lat="44.84049" lon="5.71491">
        <ele>869.3</ele>
        <time>2021-04-22T13:01:28Z</time>
      </trkpt>
      <trkpt lat="44.84049" lon="5.71486">
        <ele>869.5</ele>
        <time>2021-04-22T13:01:30Z</time>
      </trkpt>
      <trkpt lat="44.84049" lon="5.71481">
        <ele>869.6</ele>
        <time>2021-04-22T13:01:31Z</time>
      </trkpt>
      <trkpt lat="44.84048" lon="5.71474">
        <ele>869.9</ele>
        <time>2021-04-22T13:01:32Z</time>
      </trkpt>
      <trkpt lat="44.84048" lon="5.71469">
        <ele>870</ele>
        <time>2021-04-22T13:01:34Z</time>
      </trkpt>
      <trkpt lat="44.84048" lon="5.71465">
        <ele>870.2</ele>
        <time>2021-04-22T13:01:35Z</time>
      </trkpt>
      <trkpt lat="44.84048" lon="5.71457">
        <ele>870.4</ele>
        <time>2021-04-22T13:01:37Z</time>
      </trkpt>
      <trkpt lat="44.84047" lon="5.71452">
        <ele>870.6</ele>
        <time>2021-04-22T13:01:38Z</time>
      </trkpt>
      <trkpt lat="44.84047" lon="5.71444">
        <ele>870.8</ele>
        <time>2021-04-22T13:01:40Z</time>
      </trkpt>
      <trkpt lat="44.84047" lon="5.71439">
        <ele>871</ele>
        <time>2021-04-22T13:01:41Z</time>
      </trkpt>
      <trkpt lat="44.84047" lon="5.71432">
        <ele>871.2</ele>
        <time>2021-04-22T13:01:42Z</time>
      </trkpt>
      <trkpt lat="44.84047" lon="5.71427">
        <ele>871.4</ele>
        <time>2021-04-22T13:01:43Z</time>
      </trkpt>
      <trkpt lat="44.84046" lon="5.71423">
        <ele>871.5</ele>
        <time>2021-04-22T13:01:44Z</time>
      </trkpt>
      <trkpt lat="44.84046" lon="5.71419">
        <ele>871.6</ele>
        <time>2021-04-22T13:01:46Z</time>
      </trkpt>
      <trkpt lat="44.84046" lon="5.71411">
        <ele>871.8</ele>
        <time>2021-04-22T13:01:48Z</time>
      </trkpt>
      <trkpt lat="44.84047" lon="5.71404">
        <ele>872.1</ele>
        <time>2021-04-22T13:01:49Z</time>
      </trkpt>
      <trkpt lat="44.84047" lon="5.71398">
        <ele>872.2</ele>
        <time>2021-04-22T13:01:51Z</time>
      </trkpt>
      <trkpt lat="44.84046" lon="5.71393">
        <ele>872.4</ele>
        <time>2021-04-22T13:01:52Z</time>
      </trkpt>
      <trkpt lat="44.84046" lon="5.71386">
        <ele>872.6</ele>
        <time>2021-04-22T13:01:53Z</time>
      </trkpt>
      <trkpt lat="44.84046" lon="5.71381">
        <ele>872.8</ele>
        <time>2021-04-22T13:01:54Z</time>
      </trkpt>
      <trkpt lat="44.84045" lon="5.71376">
        <ele>872.9</ele>
        <time>2021-04-22T13:01:56Z</time>
      </trkpt>
      <trkpt lat="44.84046" lon="5.71371">
        <ele>873.1</ele>
        <time>2021-04-22T13:01:57Z</time>
      </trkpt>
      <trkpt lat="44.84046" lon="5.71363">
        <ele>873.4</ele>
        <time>2021-04-22T13:01:59Z</time>
      </trkpt>
      <trkpt lat="44.84046" lon="5.71358">
        <ele>873.5</ele>
        <time>2021-04-22T13:02:00Z</time>
      </trkpt>
      <trkpt lat="44.84046" lon="5.71351">
        <ele>873.8</ele>
        <time>2021-04-22T13:02:02Z</time>
      </trkpt>
      <trkpt lat="44.84046" lon="5.71346">
        <ele>873.9</ele>
        <time>2021-04-22T13:02:03Z</time>
      </trkpt>
      <trkpt lat="44.84046" lon="5.71341">
        <ele>874.1</ele>
        <time>2021-04-22T13:02:04Z</time>
      </trkpt>
      <trkpt lat="44.84045" lon="5.71331">
        <ele>874.4</ele>
        <time>2021-04-22T13:02:06Z</time>
      </trkpt>
      <trkpt lat="44.84045" lon="5.71325">
        <ele>874.6</ele>
        <time>2021-04-22T13:02:07Z</time>
      </trkpt>
      <trkpt lat="44.84045" lon="5.71316">
        <ele>874.9</ele>
        <time>2021-04-22T13:02:09Z</time>
      </trkpt>
      <trkpt lat="44.84045" lon="5.71308">
        <ele>875.2</ele>
        <time>2021-04-22T13:02:11Z</time>
      </trkpt>
      <trkpt lat="44.84045" lon="5.71298">
        <ele>875.6</ele>
        <time>2021-04-22T13:02:13Z</time>
      </trkpt>
      <trkpt lat="44.84045" lon="5.7129">
        <ele>875.8</ele>
        <time>2021-04-22T13:02:15Z</time>
      </trkpt>
      <trkpt lat="44.84045" lon="5.71286">
        <ele>876</ele>
        <time>2021-04-22T13:02:16Z</time>
      </trkpt>
      <trkpt lat="44.84045" lon="5.7128">
        <ele>876.2</ele>
        <time>2021-04-22T13:02:17Z</time>
      </trkpt>
      <trkpt lat="44.84045" lon="5.7127">
        <ele>876.6</ele>
        <time>2021-04-22T13:02:19Z</time>
      </trkpt>
      <trkpt lat="44.84045" lon="5.71265">
        <ele>876.8</ele>
        <time>2021-04-22T13:02:20Z</time>
      </trkpt>
      <trkpt lat="44.84044" lon="5.71256">
        <ele>877.1</ele>
        <time>2021-04-22T13:02:22Z</time>
      </trkpt>
      <trkpt lat="44.84044" lon="5.71249">
        <ele>877.3</ele>
        <time>2021-04-22T13:02:23Z</time>
      </trkpt>
      <trkpt lat="44.84043" lon="5.71243">
        <ele>877.6</ele>
        <time>2021-04-22T13:02:25Z</time>
      </trkpt>
      <trkpt lat="44.84043" lon="5.71236">
        <ele>877.8</ele>
        <time>2021-04-22T13:02:26Z</time>
      </trkpt>
      <trkpt lat="44.84042" lon="5.71227">
        <ele>878.1</ele>
        <time>2021-04-22T13:02:28Z</time>
      </trkpt>
      <trkpt lat="44.84042" lon="5.7122">
        <ele>878.3</ele>
        <time>2021-04-22T13:02:29Z</time>
      </trkpt>
      <trkpt lat="44.84041" lon="5.71215">
        <ele>878.5</ele>
        <time>2021-04-22T13:02:30Z</time>
      </trkpt>
      <trkpt lat="44.84041" lon="5.71209">
        <ele>878.7</ele>
        <time>2021-04-22T13:02:32Z</time>
      </trkpt>
      <trkpt lat="44.8404" lon="5.71203">
        <ele>879</ele>
        <time>2021-04-22T13:02:33Z</time>
      </trkpt>
      <trkpt lat="44.8404" lon="5.71198">
        <ele>879.2</ele>
        <time>2021-04-22T13:02:35Z</time>
      </trkpt>
      <trkpt lat="44.84039" lon="5.71192">
        <ele>879.4</ele>
        <time>2021-04-22T13:02:36Z</time>
      </trkpt>
      <trkpt lat="44.84039" lon="5.7119">
        <ele>879.5</ele>
        <time>2021-04-22T13:02:37Z</time>
      </trkpt>
      <trkpt lat="44.84038" lon="5.71185">
        <ele>879.7</ele>
        <time>2021-04-22T13:02:38Z</time>
      </trkpt>
      <trkpt lat="44.84036" lon="5.71176">
        <ele>880</ele>
        <time>2021-04-22T13:02:40Z</time>
      </trkpt>
      <trkpt lat="44.84035" lon="5.71169">
        <ele>880.2</ele>
        <time>2021-04-22T13:02:41Z</time>
      </trkpt>
      <trkpt lat="44.84034" lon="5.71165">
        <ele>880.4</ele>
        <time>2021-04-22T13:02:42Z</time>
      </trkpt>
      <trkpt lat="44.84033" lon="5.7116">
        <ele>880.6</ele>
        <time>2021-04-22T13:02:44Z</time>
      </trkpt>
      <trkpt lat="44.8403" lon="5.7115">
        <ele>880.9</ele>
        <time>2021-04-22T13:02:46Z</time>
      </trkpt>
      <trkpt lat="44.84028" lon="5.71142">
        <ele>881.2</ele>
        <time>2021-04-22T13:02:48Z</time>
      </trkpt>
      <trkpt lat="44.84027" lon="5.71137">
        <ele>881.4</ele>
        <time>2021-04-22T13:02:49Z</time>
      </trkpt>
      <trkpt lat="44.84025" lon="5.71132">
        <ele>881.6</ele>
        <time>2021-04-22T13:02:50Z</time>
      </trkpt>
      <trkpt lat="44.84023" lon="5.71123">
        <ele>881.9</ele>
        <time>2021-04-22T13:02:52Z</time>
      </trkpt>
      <trkpt lat="44.84021" lon="5.71115">
        <ele>882.2</ele>
        <time>2021-04-22T13:02:54Z</time>
      </trkpt>
      <trkpt lat="44.84018" lon="5.71105">
        <ele>882.6</ele>
        <time>2021-04-22T13:02:56Z</time>
      </trkpt>
      <trkpt lat="44.84016" lon="5.711">
        <ele>882.9</ele>
        <time>2021-04-22T13:02:57Z</time>
      </trkpt>
      <trkpt lat="44.84013" lon="5.71091">
        <ele>883.2</ele>
        <time>2021-04-22T13:02:59Z</time>
      </trkpt>
      <trkpt lat="44.84011" lon="5.71084">
        <ele>883.5</ele>
        <time>2021-04-22T13:03:01Z</time>
      </trkpt>
      <trkpt lat="44.8401" lon="5.7108">
        <ele>883.7</ele>
        <time>2021-04-22T13:03:02Z</time>
      </trkpt>
      <trkpt lat="44.8401" lon="5.71075">
        <ele>883.9</ele>
        <time>2021-04-22T13:03:03Z</time>
      </trkpt>
      <trkpt lat="44.84009" lon="5.71069">
        <ele>884.1</ele>
        <time>2021-04-22T13:03:04Z</time>
      </trkpt>
      <trkpt lat="44.84008" lon="5.71061">
        <ele>884.4</ele>
        <time>2021-04-22T13:03:06Z</time>
      </trkpt>
      <trkpt lat="44.84007" lon="5.71053">
        <ele>884.6</ele>
        <time>2021-04-22T13:03:08Z</time>
      </trkpt>
      <trkpt lat="44.84007" lon="5.71049">
        <ele>884.7</ele>
        <time>2021-04-22T13:03:09Z</time>
      </trkpt>
      <trkpt lat="44.84008" lon="5.71041">
        <ele>884.7</ele>
        <time>2021-04-22T13:03:11Z</time>
      </trkpt>
      <trkpt lat="44.84008" lon="5.71037">
        <ele>884.7</ele>
        <time>2021-04-22T13:03:12Z</time>
      </trkpt>
      <trkpt lat="44.84009" lon="5.71032">
        <ele>884.7</ele>
        <time>2021-04-22T13:03:13Z</time>
      </trkpt>
      <trkpt lat="44.8401" lon="5.71026">
        <ele>884.7</ele>
        <time>2021-04-22T13:03:15Z</time>
      </trkpt>
      <trkpt lat="44.84011" lon="5.71022">
        <ele>884.7</ele>
        <time>2021-04-22T13:03:16Z</time>
      </trkpt>
      <trkpt lat="44.84012" lon="5.71017">
        <ele>884.7</ele>
        <time>2021-04-22T13:03:17Z</time>
      </trkpt>
      <trkpt lat="44.84012" lon="5.71015">
        <ele>884.7</ele>
        <time>2021-04-22T13:03:18Z</time>
      </trkpt>
      <trkpt lat="44.84013" lon="5.7101">
        <ele>884.7</ele>
        <time>2021-04-22T13:03:20Z</time>
      </trkpt>
      <trkpt lat="44.84014" lon="5.71007">
        <ele>884.8</ele>
        <time>2021-04-22T13:03:21Z</time>
      </trkpt>
      <trkpt lat="44.84014" lon="5.71006">
        <ele>884.8</ele>
        <time>2021-04-22T13:03:23Z</time>
      </trkpt>
      <trkpt lat="44.84013" lon="5.71008">
        <ele>884.8</ele>
        <time>2021-04-22T13:03:24Z</time>
      </trkpt>
      <trkpt lat="44.84013" lon="5.7101">
        <ele>884.8</ele>
        <time>2021-04-22T13:03:25Z</time>
      </trkpt>
      <trkpt lat="44.84012" lon="5.7101">
        <ele>884.8</ele>
        <time>2021-04-22T13:03:26Z</time>
      </trkpt>
      <trkpt lat="44.84012" lon="5.71011">
        <ele>884.8</ele>
        <time>2021-04-22T13:03:27Z</time>
      </trkpt>
      <trkpt lat="44.84012" lon="5.71011">
        <ele>884.8</ele>
        <time>2021-04-22T13:03:28Z</time>
      </trkpt>
      <trkpt lat="44.84011" lon="5.71012">
        <ele>884.8</ele>
        <time>2021-04-22T13:03:29Z</time>
      </trkpt>
      <trkpt lat="44.84011" lon="5.71012">
        <ele>884.8</ele>
        <time>2021-04-22T13:03:30Z</time>
      </trkpt>
      <trkpt lat="44.8401" lon="5.71013">
        <ele>884.8</ele>
        <time>2021-04-22T13:03:31Z</time>
      </trkpt>
      <trkpt lat="44.8401" lon="5.71013">
        <ele>884.8</ele>
        <time>2021-04-22T13:03:32Z</time>
      </trkpt>
      <trkpt lat="44.8401" lon="5.71013">
        <ele>884.8</ele>
        <time>2021-04-22T13:03:33Z</time>
      </trkpt>
      <trkpt lat="44.84009" lon="5.71014">
        <ele>884.8</ele>
        <time>2021-04-22T13:03:35Z</time>
      </trkpt>
      <trkpt lat="44.84009" lon="5.71014">
        <ele>884.8</ele>
        <time>2021-04-22T13:03:36Z</time>
      </trkpt>
      <trkpt lat="44.84008" lon="5.71015">
        <ele>884.8</ele>
        <time>2021-04-22T13:03:37Z</time>
      </trkpt>
      <trkpt lat="44.84005" lon="5.71015">
        <ele>884.8</ele>
        <time>2021-04-22T13:03:39Z</time>
      </trkpt>
      <trkpt lat="44.84003" lon="5.71018">
        <ele>884.8</ele>
        <time>2021-04-22T13:03:40Z</time>
      </trkpt>
      <trkpt lat="44.83999" lon="5.71022">
        <ele>884.8</ele>
        <time>2021-04-22T13:03:42Z</time>
      </trkpt>
      <trkpt lat="44.83997" lon="5.71025">
        <ele>884.8</ele>
        <time>2021-04-22T13:03:43Z</time>
      </trkpt>
      <trkpt lat="44.83995" lon="5.71033">
        <ele>884.8</ele>
        <time>2021-04-22T13:03:45Z</time>
      </trkpt>
      <trkpt lat="44.83998" lon="5.71037">
        <ele>884.9</ele>
        <time>2021-04-22T13:03:46Z</time>
      </trkpt>
      <trkpt lat="44.84002" lon="5.71039">
        <ele>884.9</ele>
        <time>2021-04-22T13:03:48Z</time>
      </trkpt>
      <trkpt lat="44.84005" lon="5.71036">
        <ele>884.9</ele>
        <time>2021-04-22T13:03:49Z</time>
      </trkpt>
      <trkpt lat="44.84007" lon="5.71033">
        <ele>884.9</ele>
        <time>2021-04-22T13:03:51Z</time>
      </trkpt>
      <trkpt lat="44.84008" lon="5.71033">
        <ele>884.9</ele>
        <time>2021-04-22T13:03:52Z</time>
      </trkpt>
      <trkpt lat="44.84009" lon="5.71034">
        <ele>884.9</ele>
        <time>2021-04-22T13:03:53Z</time>
      </trkpt>
      <trkpt lat="44.84009" lon="5.71034">
        <ele>884.9</ele>
        <time>2021-04-22T13:03:54Z</time>
      </trkpt>
      <trkpt lat="44.84009" lon="5.71034">
        <ele>884.9</ele>
        <time>2021-04-22T13:03:55Z</time>
      </trkpt>
      <trkpt lat="44.84009" lon="5.71034">
        <ele>884.9</ele>
        <time>2021-04-22T13:03:56Z</time>
      </trkpt>
      <trkpt lat="44.84009" lon="5.71034">
        <ele>884.9</ele>
        <time>2021-04-22T13:03:57Z</time>
      </trkpt>
      <trkpt lat="44.84009" lon="5.71035">
        <ele>884.9</ele>
        <time>2021-04-22T13:03:59Z</time>
      </trkpt>
      <trkpt lat="44.84009" lon="5.71035">
        <ele>884.9</ele>
        <time>2021-04-22T13:04:00Z</time>
      </trkpt>
      <trkpt lat="44.84009" lon="5.71035">
        <ele>884.9</ele>
        <time>2021-04-22T13:04:01Z</time>
      </trkpt>
      <trkpt lat="44.84009" lon="5.71036">
        <ele>884.9</ele>
        <time>2021-04-22T13:04:02Z</time>
      </trkpt>
      <trkpt lat="44.84009" lon="5.71036">
        <ele>884.9</ele>
        <time>2021-04-22T13:04:03Z</time>
      </trkpt>
      <trkpt lat="44.84009" lon="5.71036">
        <ele>884.9</ele>
        <time>2021-04-22T13:04:04Z</time>
      </trkpt>
      <trkpt lat="44.84009" lon="5.71036">
        <ele>884.9</ele>
        <time>2021-04-22T13:04:05Z</time>
      </trkpt>
      <trkpt lat="44.84009" lon="5.71035">
        <ele>884.9</ele>
        <time>2021-04-22T13:04:07Z</time>
      </trkpt>
      <trkpt lat="44.84009" lon="5.71036">
        <ele>884.9</ele>
        <time>2021-04-22T13:04:09Z</time>
      </trkpt>
      <trkpt lat="44.84009" lon="5.71036">
        <ele>884.9</ele>
        <time>2021-04-22T13:04:10Z</time>
      </trkpt>
      <trkpt lat="44.84009" lon="5.71036">
        <ele>884.9</ele>
        <time>2021-04-22T13:04:11Z</time>
      </trkpt>
      <trkpt lat="44.84009" lon="5.71036">
        <ele>884.9</ele>
        <time>2021-04-22T13:04:12Z</time>
      </trkpt>
      <trkpt lat="44.84009" lon="5.71036">
        <ele>884.9</ele>
        <time>2021-04-22T13:04:13Z</time>
      </trkpt>
      <trkpt lat="44.84009" lon="5.71036">
        <ele>884.9</ele>
        <time>2021-04-22T13:04:14Z</time>
      </trkpt>
      <trkpt lat="44.84009" lon="5.71036">
        <ele>884.9</ele>
        <time>2021-04-22T13:04:15Z</time>
      </trkpt>
      <trkpt lat="44.84009" lon="5.71032">
        <ele>884.9</ele>
        <time>2021-04-22T13:08:24Z</time>
      </trkpt>
      <trkpt lat="44.84008" lon="5.7103">
        <ele>884.9</ele>
        <time>2021-04-22T13:08:26Z</time>
      </trkpt>
      <trkpt lat="44.84008" lon="5.71029">
        <ele>884.9</ele>
        <time>2021-04-22T13:08:27Z</time>
      </trkpt>
      <trkpt lat="44.84008" lon="5.71029">
        <ele>884.9</ele>
        <time>2021-04-22T13:08:28Z</time>
      </trkpt>
      <trkpt lat="44.84008" lon="5.71029">
        <ele>884.9</ele>
        <time>2021-04-22T13:08:29Z</time>
      </trkpt>
      <trkpt lat="44.84008" lon="5.71029">
        <ele>884.9</ele>
        <time>2021-04-22T13:08:30Z</time>
      </trkpt>
      <trkpt lat="44.84008" lon="5.71029">
        <ele>884.9</ele>
        <time>2021-04-22T13:08:31Z</time>
      </trkpt>
      <trkpt lat="44.84008" lon="5.71029">
        <ele>884.9</ele>
        <time>2021-04-22T13:08:32Z</time>
      </trkpt>
      <trkpt lat="44.84008" lon="5.71029">
        <ele>884.9</ele>
        <time>2021-04-22T13:08:33Z</time>
      </trkpt>
      <trkpt lat="44.84008" lon="5.71029">
        <ele>884.9</ele>
        <time>2021-04-22T13:08:34Z</time>
      </trkpt>
      <trkpt lat="44.84008" lon="5.71029">
        <ele>884.9</ele>
        <time>2021-04-22T13:08:35Z</time>
      </trkpt>
      <trkpt lat="44.84008" lon="5.71029">
        <ele>884.9</ele>
        <time>2021-04-22T13:08:36Z</time>
      </trkpt>
      <trkpt lat="44.84008" lon="5.71027">
        <ele>884.9</ele>
        <time>2021-04-22T13:08:38Z</time>
      </trkpt>
      <trkpt lat="44.84009" lon="5.71023">
        <ele>885</ele>
        <time>2021-04-22T13:08:39Z</time>
      </trkpt>
      <trkpt lat="44.84009" lon="5.71021">
        <ele>885</ele>
        <time>2021-04-22T13:08:40Z</time>
      </trkpt>
      <trkpt lat="44.84011" lon="5.71016">
        <ele>885</ele>
        <time>2021-04-22T13:08:42Z</time>
      </trkpt>
      <trkpt lat="44.84013" lon="5.71009">
        <ele>885.1</ele>
        <time>2021-04-22T13:08:44Z</time>
      </trkpt>
      <trkpt lat="44.84014" lon="5.71002">
        <ele>885.1</ele>
        <time>2021-04-22T13:08:46Z</time>
      </trkpt>
      <trkpt lat="44.84015" lon="5.70994">
        <ele>885</ele>
        <time>2021-04-22T13:08:48Z</time>
      </trkpt>
      <trkpt lat="44.84018" lon="5.70986">
        <ele>884.8</ele>
        <time>2021-04-22T13:08:50Z</time>
      </trkpt>
      <trkpt lat="44.8402" lon="5.70979">
        <ele>884.6</ele>
        <time>2021-04-22T13:08:51Z</time>
      </trkpt>
      <trkpt lat="44.84024" lon="5.70967">
        <ele>884</ele>
        <time>2021-04-22T13:08:53Z</time>
      </trkpt>
      <trkpt lat="44.84026" lon="5.70961">
        <ele>883.7</ele>
        <time>2021-04-22T13:08:54Z</time>
      </trkpt>
      <trkpt lat="44.84028" lon="5.70953">
        <ele>883.3</ele>
        <time>2021-04-22T13:08:55Z</time>
      </trkpt>
      <trkpt lat="44.8403" lon="5.70945">
        <ele>882.9</ele>
        <time>2021-04-22T13:08:56Z</time>
      </trkpt>
      <trkpt lat="44.84032" lon="5.70936">
        <ele>882.5</ele>
        <time>2021-04-22T13:08:57Z</time>
      </trkpt>
      <trkpt lat="44.84034" lon="5.70927">
        <ele>882</ele>
        <time>2021-04-22T13:08:58Z</time>
      </trkpt>
      <trkpt lat="44.84035" lon="5.70917">
        <ele>881.5</ele>
        <time>2021-04-22T13:08:59Z</time>
      </trkpt>
      <trkpt lat="44.84035" lon="5.70907">
        <ele>881.1</ele>
        <time>2021-04-22T13:09:00Z</time>
      </trkpt>
      <trkpt lat="44.84036" lon="5.70897">
        <ele>880.6</ele>
        <time>2021-04-22T13:09:01Z</time>
      </trkpt>
      <trkpt lat="44.84036" lon="5.70887">
        <ele>880.1</ele>
        <time>2021-04-22T13:09:02Z</time>
      </trkpt>
      <trkpt lat="44.84035" lon="5.70877">
        <ele>879.6</ele>
        <time>2021-04-22T13:09:03Z</time>
      </trkpt>
      <trkpt lat="44.84034" lon="5.70866">
        <ele>879.1</ele>
        <time>2021-04-22T13:09:04Z</time>
      </trkpt>
      <trkpt lat="44.84033" lon="5.70855">
        <ele>878.5</ele>
        <time>2021-04-22T13:09:05Z</time>
      </trkpt>
      <trkpt lat="44.84031" lon="5.70844">
        <ele>877.9</ele>
        <time>2021-04-22T13:09:06Z</time>
      </trkpt>
      <trkpt lat="44.84029" lon="5.70833">
        <ele>877.3</ele>
        <time>2021-04-22T13:09:07Z</time>
      </trkpt>
      <trkpt lat="44.84026" lon="5.70821">
        <ele>876.7</ele>
        <time>2021-04-22T13:09:08Z</time>
      </trkpt>
      <trkpt lat="44.84022" lon="5.70809">
        <ele>876.1</ele>
        <time>2021-04-22T13:09:09Z</time>
      </trkpt>
      <trkpt lat="44.84018" lon="5.70797">
        <ele>875.5</ele>
        <time>2021-04-22T13:09:10Z</time>
      </trkpt>
      <trkpt lat="44.84015" lon="5.70786">
        <ele>874.9</ele>
        <time>2021-04-22T13:09:11Z</time>
      </trkpt>
      <trkpt lat="44.84012" lon="5.70774">
        <ele>874.4</ele>
        <time>2021-04-22T13:09:12Z</time>
      </trkpt>
      <trkpt lat="44.8401" lon="5.70761">
        <ele>873.8</ele>
        <time>2021-04-22T13:09:13Z</time>
      </trkpt>
      <trkpt lat="44.84008" lon="5.70748">
        <ele>873.1</ele>
        <time>2021-04-22T13:09:14Z</time>
      </trkpt>
      <trkpt lat="44.84007" lon="5.70734">
        <ele>872.3</ele>
        <time>2021-04-22T13:09:15Z</time>
      </trkpt>
      <trkpt lat="44.84007" lon="5.70721">
        <ele>871.6</ele>
        <time>2021-04-22T13:09:16Z</time>
      </trkpt>
      <trkpt lat="44.84007" lon="5.70707">
        <ele>870.8</ele>
        <time>2021-04-22T13:09:17Z</time>
      </trkpt>
      <trkpt lat="44.84007" lon="5.70692">
        <ele>870.1</ele>
        <time>2021-04-22T13:09:18Z</time>
      </trkpt>
      <trkpt lat="44.84007" lon="5.70678">
        <ele>869.3</ele>
        <time>2021-04-22T13:09:19Z</time>
      </trkpt>
      <trkpt lat="44.84008" lon="5.70663">
        <ele>868.5</ele>
        <time>2021-04-22T13:09:20Z</time>
      </trkpt>
      <trkpt lat="44.84008" lon="5.70648">
        <ele>867.8</ele>
        <time>2021-04-22T13:09:21Z</time>
      </trkpt>
      <trkpt lat="44.84009" lon="5.70589">
        <ele>864.8</ele>
        <time>2021-04-22T13:09:25Z</time>
      </trkpt>
      <trkpt lat="44.84009" lon="5.70564">
        <ele>863.5</ele>
        <time>2021-04-22T13:09:26Z</time>
      </trkpt>
      <trkpt lat="44.84009" lon="5.70554">
        <ele>862.9</ele>
        <time>2021-04-22T13:09:27Z</time>
      </trkpt>
      <trkpt lat="44.84009" lon="5.70543">
        <ele>862.3</ele>
        <time>2021-04-22T13:09:28Z</time>
      </trkpt>
      <trkpt lat="44.8401" lon="5.70528">
        <ele>861.5</ele>
        <time>2021-04-22T13:09:29Z</time>
      </trkpt>
      <trkpt lat="44.8401" lon="5.70512">
        <ele>860.7</ele>
        <time>2021-04-22T13:09:30Z</time>
      </trkpt>
      <trkpt lat="44.8401" lon="5.70496">
        <ele>859.9</ele>
        <time>2021-04-22T13:09:31Z</time>
      </trkpt>
      <trkpt lat="44.8401" lon="5.7048">
        <ele>859.1</ele>
        <time>2021-04-22T13:09:32Z</time>
      </trkpt>
      <trkpt lat="44.84011" lon="5.70463">
        <ele>858.3</ele>
        <time>2021-04-22T13:09:33Z</time>
      </trkpt>
      <trkpt lat="44.84014" lon="5.70447">
        <ele>857.5</ele>
        <time>2021-04-22T13:09:34Z</time>
      </trkpt>
      <trkpt lat="44.84017" lon="5.70431">
        <ele>856.7</ele>
        <time>2021-04-22T13:09:35Z</time>
      </trkpt>
      <trkpt lat="44.84021" lon="5.70415">
        <ele>856</ele>
        <time>2021-04-22T13:09:36Z</time>
      </trkpt>
      <trkpt lat="44.84025" lon="5.704">
        <ele>855.2</ele>
        <time>2021-04-22T13:09:37Z</time>
      </trkpt>
      <trkpt lat="44.84031" lon="5.70386">
        <ele>854.5</ele>
        <time>2021-04-22T13:09:38Z</time>
      </trkpt>
      <trkpt lat="44.84037" lon="5.70372">
        <ele>853.7</ele>
        <time>2021-04-22T13:09:39Z</time>
      </trkpt>
      <trkpt lat="44.84043" lon="5.70358">
        <ele>853</ele>
        <time>2021-04-22T13:09:40Z</time>
      </trkpt>
      <trkpt lat="44.84048" lon="5.70345">
        <ele>852.3</ele>
        <time>2021-04-22T13:09:41Z</time>
      </trkpt>
      <trkpt lat="44.84054" lon="5.70331">
        <ele>851.5</ele>
        <time>2021-04-22T13:09:42Z</time>
      </trkpt>
      <trkpt lat="44.8406" lon="5.70317">
        <ele>850.8</ele>
        <time>2021-04-22T13:09:43Z</time>
      </trkpt>
      <trkpt lat="44.84065" lon="5.70304">
        <ele>850.1</ele>
        <time>2021-04-22T13:09:44Z</time>
      </trkpt>
      <trkpt lat="44.84071" lon="5.7029">
        <ele>849.4</ele>
        <time>2021-04-22T13:09:45Z</time>
      </trkpt>
      <trkpt lat="44.84077" lon="5.70276">
        <ele>848.6</ele>
        <time>2021-04-22T13:09:46Z</time>
      </trkpt>
      <trkpt lat="44.84082" lon="5.70262">
        <ele>847.9</ele>
        <time>2021-04-22T13:09:47Z</time>
      </trkpt>
      <trkpt lat="44.84088" lon="5.70248">
        <ele>847.3</ele>
        <time>2021-04-22T13:09:48Z</time>
      </trkpt>
      <trkpt lat="44.84094" lon="5.70234">
        <ele>846.6</ele>
        <time>2021-04-22T13:09:49Z</time>
      </trkpt>
      <trkpt lat="44.84099" lon="5.70222">
        <ele>845.8</ele>
        <time>2021-04-22T13:09:50Z</time>
      </trkpt>
      <trkpt lat="44.84104" lon="5.70208">
        <ele>845.1</ele>
        <time>2021-04-22T13:09:51Z</time>
      </trkpt>
      <trkpt lat="44.8411" lon="5.70194">
        <ele>844.3</ele>
        <time>2021-04-22T13:09:52Z</time>
      </trkpt>
      <trkpt lat="44.84116" lon="5.70181">
        <ele>843.5</ele>
        <time>2021-04-22T13:09:53Z</time>
      </trkpt>
      <trkpt lat="44.84123" lon="5.70167">
        <ele>842.7</ele>
        <time>2021-04-22T13:09:54Z</time>
      </trkpt>
      <trkpt lat="44.84129" lon="5.70154">
        <ele>841.9</ele>
        <time>2021-04-22T13:09:55Z</time>
      </trkpt>
      <trkpt lat="44.84134" lon="5.70141">
        <ele>841.2</ele>
        <time>2021-04-22T13:09:56Z</time>
      </trkpt>
      <trkpt lat="44.84139" lon="5.70128">
        <ele>840.6</ele>
        <time>2021-04-22T13:09:57Z</time>
      </trkpt>
      <trkpt lat="44.84144" lon="5.70115">
        <ele>839.9</ele>
        <time>2021-04-22T13:09:58Z</time>
      </trkpt>
      <trkpt lat="44.8415" lon="5.70102">
        <ele>839.2</ele>
        <time>2021-04-22T13:09:59Z</time>
      </trkpt>
      <trkpt lat="44.84155" lon="5.70089">
        <ele>838.5</ele>
        <time>2021-04-22T13:10:00Z</time>
      </trkpt>
      <trkpt lat="44.84161" lon="5.70077">
        <ele>837.9</ele>
        <time>2021-04-22T13:10:01Z</time>
      </trkpt>
      <trkpt lat="44.84167" lon="5.70064">
        <ele>837.2</ele>
        <time>2021-04-22T13:10:02Z</time>
      </trkpt>
      <trkpt lat="44.84172" lon="5.70052">
        <ele>836.5</ele>
        <time>2021-04-22T13:10:03Z</time>
      </trkpt>
      <trkpt lat="44.84177" lon="5.70039">
        <ele>835.8</ele>
        <time>2021-04-22T13:10:04Z</time>
      </trkpt>
      <trkpt lat="44.84182" lon="5.70026">
        <ele>835</ele>
        <time>2021-04-22T13:10:05Z</time>
      </trkpt>
      <trkpt lat="44.84188" lon="5.70012">
        <ele>834.3</ele>
        <time>2021-04-22T13:10:06Z</time>
      </trkpt>
      <trkpt lat="44.84193" lon="5.69998">
        <ele>833.5</ele>
        <time>2021-04-22T13:10:07Z</time>
      </trkpt>
      <trkpt lat="44.84199" lon="5.69985">
        <ele>832.8</ele>
        <time>2021-04-22T13:10:08Z</time>
      </trkpt>
      <trkpt lat="44.84205" lon="5.69971">
        <ele>832</ele>
        <time>2021-04-22T13:10:09Z</time>
      </trkpt>
      <trkpt lat="44.8421" lon="5.69957">
        <ele>831.3</ele>
        <time>2021-04-22T13:10:10Z</time>
      </trkpt>
      <trkpt lat="44.84216" lon="5.69943">
        <ele>830.5</ele>
        <time>2021-04-22T13:10:11Z</time>
      </trkpt>
      <trkpt lat="44.84222" lon="5.69929">
        <ele>829.8</ele>
        <time>2021-04-22T13:10:12Z</time>
      </trkpt>
      <trkpt lat="44.84228" lon="5.69915">
        <ele>828.9</ele>
        <time>2021-04-22T13:10:13Z</time>
      </trkpt>
      <trkpt lat="44.84234" lon="5.69902">
        <ele>828.1</ele>
        <time>2021-04-22T13:10:14Z</time>
      </trkpt>
      <trkpt lat="44.84241" lon="5.69889">
        <ele>827.2</ele>
        <time>2021-04-22T13:10:15Z</time>
      </trkpt>
      <trkpt lat="44.84249" lon="5.69877">
        <ele>826.3</ele>
        <time>2021-04-22T13:10:16Z</time>
      </trkpt>
      <trkpt lat="44.84257" lon="5.69866">
        <ele>825.5</ele>
        <time>2021-04-22T13:10:17Z</time>
      </trkpt>
      <trkpt lat="44.84266" lon="5.69856">
        <ele>824.7</ele>
        <time>2021-04-22T13:10:18Z</time>
      </trkpt>
      <trkpt lat="44.84275" lon="5.69848">
        <ele>823.9</ele>
        <time>2021-04-22T13:10:19Z</time>
      </trkpt>
      <trkpt lat="44.84284" lon="5.6984">
        <ele>823.2</ele>
        <time>2021-04-22T13:10:20Z</time>
      </trkpt>
      <trkpt lat="44.84294" lon="5.69832">
        <ele>822.5</ele>
        <time>2021-04-22T13:10:21Z</time>
      </trkpt>
      <trkpt lat="44.84304" lon="5.69824">
        <ele>821.8</ele>
        <time>2021-04-22T13:10:22Z</time>
      </trkpt>
      <trkpt lat="44.84313" lon="5.69818">
        <ele>821.1</ele>
        <time>2021-04-22T13:10:23Z</time>
      </trkpt>
      <trkpt lat="44.84323" lon="5.69811">
        <ele>820.4</ele>
        <time>2021-04-22T13:10:24Z</time>
      </trkpt>
      <trkpt lat="44.84332" lon="5.69803">
        <ele>819.6</ele>
        <time>2021-04-22T13:10:25Z</time>
      </trkpt>
      <trkpt lat="44.84342" lon="5.69796">
        <ele>818.9</ele>
        <time>2021-04-22T13:10:26Z</time>
      </trkpt>
      <trkpt lat="44.84351" lon="5.69789">
        <ele>818.2</ele>
        <time>2021-04-22T13:10:27Z</time>
      </trkpt>
      <trkpt lat="44.8436" lon="5.69782">
        <ele>817.5</ele>
        <time>2021-04-22T13:10:28Z</time>
      </trkpt>
      <trkpt lat="44.8437" lon="5.69775">
        <ele>816.8</ele>
        <time>2021-04-22T13:10:29Z</time>
      </trkpt>
      <trkpt lat="44.84379" lon="5.69769">
        <ele>816.1</ele>
        <time>2021-04-22T13:10:30Z</time>
      </trkpt>
      <trkpt lat="44.84388" lon="5.69762">
        <ele>815.4</ele>
        <time>2021-04-22T13:10:31Z</time>
      </trkpt>
      <trkpt lat="44.84398" lon="5.69755">
        <ele>814.7</ele>
        <time>2021-04-22T13:10:32Z</time>
      </trkpt>
      <trkpt lat="44.84407" lon="5.69748">
        <ele>814</ele>
        <time>2021-04-22T13:10:33Z</time>
      </trkpt>
      <trkpt lat="44.84416" lon="5.69741">
        <ele>813.3</ele>
        <time>2021-04-22T13:10:34Z</time>
      </trkpt>
      <trkpt lat="44.84426" lon="5.69734">
        <ele>812.5</ele>
        <time>2021-04-22T13:10:35Z</time>
      </trkpt>
      <trkpt lat="44.84436" lon="5.69727">
        <ele>811.8</ele>
        <time>2021-04-22T13:10:36Z</time>
      </trkpt>
      <trkpt lat="44.84445" lon="5.6972">
        <ele>811.2</ele>
        <time>2021-04-22T13:10:37Z</time>
      </trkpt>
      <trkpt lat="44.84455" lon="5.69713">
        <ele>810.5</ele>
        <time>2021-04-22T13:10:38Z</time>
      </trkpt>
      <trkpt lat="44.84464" lon="5.69706">
        <ele>809.9</ele>
        <time>2021-04-22T13:10:39Z</time>
      </trkpt>
      <trkpt lat="44.84473" lon="5.69699">
        <ele>809.2</ele>
        <time>2021-04-22T13:10:40Z</time>
      </trkpt>
      <trkpt lat="44.84482" lon="5.69692">
        <ele>808.5</ele>
        <time>2021-04-22T13:10:41Z</time>
      </trkpt>
      <trkpt lat="44.84492" lon="5.69685">
        <ele>807.8</ele>
        <time>2021-04-22T13:10:42Z</time>
      </trkpt>
      <trkpt lat="44.84501" lon="5.69678">
        <ele>807.1</ele>
        <time>2021-04-22T13:10:43Z</time>
      </trkpt>
      <trkpt lat="44.8451" lon="5.69672">
        <ele>806.3</ele>
        <time>2021-04-22T13:10:44Z</time>
      </trkpt>
      <trkpt lat="44.8452" lon="5.69665">
        <ele>805.5</ele>
        <time>2021-04-22T13:10:45Z</time>
      </trkpt>
      <trkpt lat="44.84529" lon="5.69657">
        <ele>804.7</ele>
        <time>2021-04-22T13:10:46Z</time>
      </trkpt>
      <trkpt lat="44.84539" lon="5.6965">
        <ele>803.9</ele>
        <time>2021-04-22T13:10:47Z</time>
      </trkpt>
      <trkpt lat="44.84548" lon="5.69643">
        <ele>803.2</ele>
        <time>2021-04-22T13:10:48Z</time>
      </trkpt>
      <trkpt lat="44.84558" lon="5.69636">
        <ele>802.4</ele>
        <time>2021-04-22T13:10:49Z</time>
      </trkpt>
      <trkpt lat="44.84568" lon="5.69628">
        <ele>801.7</ele>
        <time>2021-04-22T13:10:50Z</time>
      </trkpt>
      <trkpt lat="44.84577" lon="5.69621">
        <ele>801</ele>
        <time>2021-04-22T13:10:51Z</time>
      </trkpt>
      <trkpt lat="44.84586" lon="5.69614">
        <ele>800.3</ele>
        <time>2021-04-22T13:10:52Z</time>
      </trkpt>
      <trkpt lat="44.84595" lon="5.69607">
        <ele>799.5</ele>
        <time>2021-04-22T13:10:53Z</time>
      </trkpt>
      <trkpt lat="44.84604" lon="5.696">
        <ele>798.8</ele>
        <time>2021-04-22T13:10:54Z</time>
      </trkpt>
      <trkpt lat="44.84613" lon="5.69593">
        <ele>798.1</ele>
        <time>2021-04-22T13:10:55Z</time>
      </trkpt>
      <trkpt lat="44.84622" lon="5.69586">
        <ele>797.5</ele>
        <time>2021-04-22T13:10:56Z</time>
      </trkpt>
      <trkpt lat="44.84631" lon="5.6958">
        <ele>796.9</ele>
        <time>2021-04-22T13:10:57Z</time>
      </trkpt>
      <trkpt lat="44.8464" lon="5.69574">
        <ele>796.3</ele>
        <time>2021-04-22T13:10:58Z</time>
      </trkpt>
      <trkpt lat="44.84648" lon="5.69567">
        <ele>795.6</ele>
        <time>2021-04-22T13:10:59Z</time>
      </trkpt>
      <trkpt lat="44.84657" lon="5.69561">
        <ele>795</ele>
        <time>2021-04-22T13:11:00Z</time>
      </trkpt>
      <trkpt lat="44.84666" lon="5.69554">
        <ele>794.4</ele>
        <time>2021-04-22T13:11:01Z</time>
      </trkpt>
      <trkpt lat="44.84674" lon="5.69548">
        <ele>793.8</ele>
        <time>2021-04-22T13:11:02Z</time>
      </trkpt>
      <trkpt lat="44.84682" lon="5.69541">
        <ele>793.2</ele>
        <time>2021-04-22T13:11:03Z</time>
      </trkpt>
      <trkpt lat="44.8469" lon="5.69533">
        <ele>792.6</ele>
        <time>2021-04-22T13:11:04Z</time>
      </trkpt>
      <trkpt lat="44.84697" lon="5.69525">
        <ele>792</ele>
        <time>2021-04-22T13:11:05Z</time>
      </trkpt>
      <trkpt lat="44.84704" lon="5.69516">
        <ele>791.4</ele>
        <time>2021-04-22T13:11:06Z</time>
      </trkpt>
      <trkpt lat="44.84711" lon="5.69506">
        <ele>790.8</ele>
        <time>2021-04-22T13:11:07Z</time>
      </trkpt>
      <trkpt lat="44.84717" lon="5.69496">
        <ele>790.2</ele>
        <time>2021-04-22T13:11:08Z</time>
      </trkpt>
      <trkpt lat="44.84723" lon="5.69485">
        <ele>789.7</ele>
        <time>2021-04-22T13:11:09Z</time>
      </trkpt>
      <trkpt lat="44.84729" lon="5.69473">
        <ele>789</ele>
        <time>2021-04-22T13:11:10Z</time>
      </trkpt>
      <trkpt lat="44.84735" lon="5.69461">
        <ele>788.4</ele>
        <time>2021-04-22T13:11:11Z</time>
      </trkpt>
      <trkpt lat="44.8474" lon="5.69449">
        <ele>787.7</ele>
        <time>2021-04-22T13:11:12Z</time>
      </trkpt>
      <trkpt lat="44.84746" lon="5.69436">
        <ele>787</ele>
        <time>2021-04-22T13:11:13Z</time>
      </trkpt>
      <trkpt lat="44.84751" lon="5.69424">
        <ele>786.2</ele>
        <time>2021-04-22T13:11:14Z</time>
      </trkpt>
      <trkpt lat="44.84758" lon="5.69412">
        <ele>785.3</ele>
        <time>2021-04-22T13:11:15Z</time>
      </trkpt>
      <trkpt lat="44.84765" lon="5.694">
        <ele>784.6</ele>
        <time>2021-04-22T13:11:16Z</time>
      </trkpt>
      <trkpt lat="44.84773" lon="5.6939">
        <ele>783.9</ele>
        <time>2021-04-22T13:11:17Z</time>
      </trkpt>
      <trkpt lat="44.84781" lon="5.6938">
        <ele>783.2</ele>
        <time>2021-04-22T13:11:18Z</time>
      </trkpt>
      <trkpt lat="44.8479" lon="5.69371">
        <ele>782.4</ele>
        <time>2021-04-22T13:11:19Z</time>
      </trkpt>
      <trkpt lat="44.848" lon="5.69363">
        <ele>781.6</ele>
        <time>2021-04-22T13:11:20Z</time>
      </trkpt>
      <trkpt lat="44.84808" lon="5.69354">
        <ele>780.9</ele>
        <time>2021-04-22T13:11:21Z</time>
      </trkpt>
      <trkpt lat="44.84817" lon="5.69346">
        <ele>780.2</ele>
        <time>2021-04-22T13:11:22Z</time>
      </trkpt>
      <trkpt lat="44.84826" lon="5.69338">
        <ele>779.5</ele>
        <time>2021-04-22T13:11:23Z</time>
      </trkpt>
      <trkpt lat="44.84835" lon="5.69329">
        <ele>778.7</ele>
        <time>2021-04-22T13:11:24Z</time>
      </trkpt>
      <trkpt lat="44.84844" lon="5.69321">
        <ele>778</ele>
        <time>2021-04-22T13:11:25Z</time>
      </trkpt>
      <trkpt lat="44.84853" lon="5.69312">
        <ele>777.3</ele>
        <time>2021-04-22T13:11:26Z</time>
      </trkpt>
      <trkpt lat="44.84861" lon="5.69304">
        <ele>776.7</ele>
        <time>2021-04-22T13:11:27Z</time>
      </trkpt>
      <trkpt lat="44.8487" lon="5.69296">
        <ele>776</ele>
        <time>2021-04-22T13:11:28Z</time>
      </trkpt>
      <trkpt lat="44.84878" lon="5.69288">
        <ele>775.4</ele>
        <time>2021-04-22T13:11:29Z</time>
      </trkpt>
      <trkpt lat="44.84887" lon="5.6928">
        <ele>774.7</ele>
        <time>2021-04-22T13:11:30Z</time>
      </trkpt>
      <trkpt lat="44.84896" lon="5.69272">
        <ele>774</ele>
        <time>2021-04-22T13:11:31Z</time>
      </trkpt>
      <trkpt lat="44.84905" lon="5.69263">
        <ele>773.2</ele>
        <time>2021-04-22T13:11:32Z</time>
      </trkpt>
      <trkpt lat="44.84914" lon="5.69255">
        <ele>772.4</ele>
        <time>2021-04-22T13:11:33Z</time>
      </trkpt>
      <trkpt lat="44.84923" lon="5.69246">
        <ele>771.7</ele>
        <time>2021-04-22T13:11:34Z</time>
      </trkpt>
      <trkpt lat="44.84933" lon="5.69237">
        <ele>770.9</ele>
        <time>2021-04-22T13:11:35Z</time>
      </trkpt>
      <trkpt lat="44.84942" lon="5.69228">
        <ele>770.2</ele>
        <time>2021-04-22T13:11:36Z</time>
      </trkpt>
      <trkpt lat="44.84952" lon="5.6922">
        <ele>769.4</ele>
        <time>2021-04-22T13:11:37Z</time>
      </trkpt>
      <trkpt lat="44.84961" lon="5.69213">
        <ele>768.6</ele>
        <time>2021-04-22T13:11:38Z</time>
      </trkpt>
      <trkpt lat="44.84973" lon="5.69209">
        <ele>767.8</ele>
        <time>2021-04-22T13:11:39Z</time>
      </trkpt>
      <trkpt lat="44.84985" lon="5.69206">
        <ele>767</ele>
        <time>2021-04-22T13:11:40Z</time>
      </trkpt>
      <trkpt lat="44.84997" lon="5.69207">
        <ele>766.1</ele>
        <time>2021-04-22T13:11:41Z</time>
      </trkpt>
      <trkpt lat="44.8501" lon="5.69211">
        <ele>765.2</ele>
        <time>2021-04-22T13:11:42Z</time>
      </trkpt>
      <trkpt lat="44.85022" lon="5.69216">
        <ele>764.4</ele>
        <time>2021-04-22T13:11:43Z</time>
      </trkpt>
      <trkpt lat="44.85034" lon="5.69221">
        <ele>763.5</ele>
        <time>2021-04-22T13:11:44Z</time>
      </trkpt>
      <trkpt lat="44.85045" lon="5.69225">
        <ele>762.6</ele>
        <time>2021-04-22T13:11:45Z</time>
      </trkpt>
      <trkpt lat="44.85057" lon="5.69226">
        <ele>761.8</ele>
        <time>2021-04-22T13:11:46Z</time>
      </trkpt>
      <trkpt lat="44.85069" lon="5.69224">
        <ele>761</ele>
        <time>2021-04-22T13:11:47Z</time>
      </trkpt>
      <trkpt lat="44.85081" lon="5.6922">
        <ele>760.3</ele>
        <time>2021-04-22T13:11:48Z</time>
      </trkpt>
      <trkpt lat="44.85092" lon="5.69215">
        <ele>759.5</ele>
        <time>2021-04-22T13:11:49Z</time>
      </trkpt>
      <trkpt lat="44.85104" lon="5.6921">
        <ele>758.7</ele>
        <time>2021-04-22T13:11:50Z</time>
      </trkpt>
      <trkpt lat="44.85115" lon="5.69204">
        <ele>757.8</ele>
        <time>2021-04-22T13:11:51Z</time>
      </trkpt>
      <trkpt lat="44.85126" lon="5.69199">
        <ele>757</ele>
        <time>2021-04-22T13:11:52Z</time>
      </trkpt>
      <trkpt lat="44.85137" lon="5.69193">
        <ele>756.1</ele>
        <time>2021-04-22T13:11:53Z</time>
      </trkpt>
      <trkpt lat="44.85148" lon="5.69185">
        <ele>755.3</ele>
        <time>2021-04-22T13:11:54Z</time>
      </trkpt>
      <trkpt lat="44.85158" lon="5.69175">
        <ele>754.6</ele>
        <time>2021-04-22T13:11:55Z</time>
      </trkpt>
      <trkpt lat="44.85166" lon="5.69163">
        <ele>753.8</ele>
        <time>2021-04-22T13:11:56Z</time>
      </trkpt>
      <trkpt lat="44.85173" lon="5.69149">
        <ele>753</ele>
        <time>2021-04-22T13:11:57Z</time>
      </trkpt>
      <trkpt lat="44.85179" lon="5.69133">
        <ele>752.2</ele>
        <time>2021-04-22T13:11:58Z</time>
      </trkpt>
      <trkpt lat="44.85183" lon="5.69118">
        <ele>751.4</ele>
        <time>2021-04-22T13:11:59Z</time>
      </trkpt>
      <trkpt lat="44.85188" lon="5.69103">
        <ele>750.6</ele>
        <time>2021-04-22T13:12:00Z</time>
      </trkpt>
      <trkpt lat="44.85193" lon="5.69088">
        <ele>749.8</ele>
        <time>2021-04-22T13:12:01Z</time>
      </trkpt>
      <trkpt lat="44.85198" lon="5.69073">
        <ele>749.1</ele>
        <time>2021-04-22T13:12:02Z</time>
      </trkpt>
      <trkpt lat="44.85203" lon="5.69059">
        <ele>748.4</ele>
        <time>2021-04-22T13:12:03Z</time>
      </trkpt>
      <trkpt lat="44.8521" lon="5.69046">
        <ele>747.6</ele>
        <time>2021-04-22T13:12:04Z</time>
      </trkpt>
      <trkpt lat="44.85218" lon="5.69033">
        <ele>746.8</ele>
        <time>2021-04-22T13:12:05Z</time>
      </trkpt>
      <trkpt lat="44.85227" lon="5.69022">
        <ele>746.1</ele>
        <time>2021-04-22T13:12:06Z</time>
      </trkpt>
      <trkpt lat="44.85236" lon="5.69011">
        <ele>745.3</ele>
        <time>2021-04-22T13:12:07Z</time>
      </trkpt>
      <trkpt lat="44.85245" lon="5.69001">
        <ele>744.6</ele>
        <time>2021-04-22T13:12:08Z</time>
      </trkpt>
      <trkpt lat="44.85255" lon="5.68992">
        <ele>744.4</ele>
        <time>2021-04-22T13:12:09Z</time>
      </trkpt>
      <trkpt lat="44.85264" lon="5.68984">
        <ele>743.8</ele>
        <time>2021-04-22T13:12:10Z</time>
      </trkpt>
      <trkpt lat="44.85273" lon="5.68975">
        <ele>743</ele>
        <time>2021-04-22T13:12:11Z</time>
      </trkpt>
      <trkpt lat="44.85283" lon="5.68966">
        <ele>742.2</ele>
        <time>2021-04-22T13:12:12Z</time>
      </trkpt>
      <trkpt lat="44.85292" lon="5.68957">
        <ele>741.5</ele>
        <time>2021-04-22T13:12:13Z</time>
      </trkpt>
      <trkpt lat="44.85301" lon="5.68948">
        <ele>740.7</ele>
        <time>2021-04-22T13:12:14Z</time>
      </trkpt>
      <trkpt lat="44.85311" lon="5.6894">
        <ele>740</ele>
        <time>2021-04-22T13:12:15Z</time>
      </trkpt>
      <trkpt lat="44.8532" lon="5.68932">
        <ele>739.3</ele>
        <time>2021-04-22T13:12:16Z</time>
      </trkpt>
      <trkpt lat="44.8533" lon="5.68923">
        <ele>738.5</ele>
        <time>2021-04-22T13:12:17Z</time>
      </trkpt>
      <trkpt lat="44.85338" lon="5.68915">
        <ele>737.8</ele>
        <time>2021-04-22T13:12:18Z</time>
      </trkpt>
      <trkpt lat="44.85347" lon="5.68906">
        <ele>737.1</ele>
        <time>2021-04-22T13:12:19Z</time>
      </trkpt>
      <trkpt lat="44.85357" lon="5.68898">
        <ele>736.3</ele>
        <time>2021-04-22T13:12:20Z</time>
      </trkpt>
      <trkpt lat="44.85366" lon="5.68888">
        <ele>735.5</ele>
        <time>2021-04-22T13:12:21Z</time>
      </trkpt>
      <trkpt lat="44.85376" lon="5.68878">
        <ele>734.7</ele>
        <time>2021-04-22T13:12:22Z</time>
      </trkpt>
      <trkpt lat="44.85386" lon="5.68866">
        <ele>733.9</ele>
        <time>2021-04-22T13:12:23Z</time>
      </trkpt>
      <trkpt lat="44.85395" lon="5.68856">
        <ele>733.2</ele>
        <time>2021-04-22T13:12:24Z</time>
      </trkpt>
      <trkpt lat="44.85404" lon="5.68846">
        <ele>732.5</ele>
        <time>2021-04-22T13:12:25Z</time>
      </trkpt>
      <trkpt lat="44.85412" lon="5.68835">
        <ele>731.8</ele>
        <time>2021-04-22T13:12:26Z</time>
      </trkpt>
      <trkpt lat="44.85421" lon="5.68825">
        <ele>731.1</ele>
        <time>2021-04-22T13:12:27Z</time>
      </trkpt>
      <trkpt lat="44.8543" lon="5.68816">
        <ele>730.3</ele>
        <time>2021-04-22T13:12:28Z</time>
      </trkpt>
      <trkpt lat="44.85439" lon="5.68806">
        <ele>729.6</ele>
        <time>2021-04-22T13:12:29Z</time>
      </trkpt>
      <trkpt lat="44.85449" lon="5.68797">
        <ele>728.8</ele>
        <time>2021-04-22T13:12:30Z</time>
      </trkpt>
      <trkpt lat="44.85459" lon="5.68788">
        <ele>728.1</ele>
        <time>2021-04-22T13:12:31Z</time>
      </trkpt>
      <trkpt lat="44.85468" lon="5.68778">
        <ele>727.4</ele>
        <time>2021-04-22T13:12:32Z</time>
      </trkpt>
      <trkpt lat="44.85477" lon="5.68768">
        <ele>726.6</ele>
        <time>2021-04-22T13:12:33Z</time>
      </trkpt>
      <trkpt lat="44.85485" lon="5.68759">
        <ele>726</ele>
        <time>2021-04-22T13:12:34Z</time>
      </trkpt>
      <trkpt lat="44.85494" lon="5.68749">
        <ele>725.2</ele>
        <time>2021-04-22T13:12:35Z</time>
      </trkpt>
      <trkpt lat="44.85503" lon="5.6874">
        <ele>724.5</ele>
        <time>2021-04-22T13:12:36Z</time>
      </trkpt>
      <trkpt lat="44.85512" lon="5.68731">
        <ele>723.8</ele>
        <time>2021-04-22T13:12:37Z</time>
      </trkpt>
      <trkpt lat="44.85521" lon="5.68722">
        <ele>723</ele>
        <time>2021-04-22T13:12:38Z</time>
      </trkpt>
      <trkpt lat="44.85531" lon="5.68713">
        <ele>722.3</ele>
        <time>2021-04-22T13:12:39Z</time>
      </trkpt>
      <trkpt lat="44.85541" lon="5.68703">
        <ele>721.4</ele>
        <time>2021-04-22T13:12:40Z</time>
      </trkpt>
      <trkpt lat="44.85551" lon="5.68694">
        <ele>720.6</ele>
        <time>2021-04-22T13:12:41Z</time>
      </trkpt>
      <trkpt lat="44.85561" lon="5.68686">
        <ele>719.8</ele>
        <time>2021-04-22T13:12:42Z</time>
      </trkpt>
      <trkpt lat="44.8557" lon="5.68677">
        <ele>719</ele>
        <time>2021-04-22T13:12:43Z</time>
      </trkpt>
      <trkpt lat="44.85579" lon="5.68668">
        <ele>718.2</ele>
        <time>2021-04-22T13:12:44Z</time>
      </trkpt>
      <trkpt lat="44.85588" lon="5.68658">
        <ele>717.3</ele>
        <time>2021-04-22T13:12:45Z</time>
      </trkpt>
      <trkpt lat="44.85598" lon="5.68647">
        <ele>716.5</ele>
        <time>2021-04-22T13:12:46Z</time>
      </trkpt>
      <trkpt lat="44.85608" lon="5.68635">
        <ele>715.7</ele>
        <time>2021-04-22T13:12:47Z</time>
      </trkpt>
      <trkpt lat="44.85617" lon="5.68624">
        <ele>714.9</ele>
        <time>2021-04-22T13:12:48Z</time>
      </trkpt>
      <trkpt lat="44.85626" lon="5.68613">
        <ele>714.2</ele>
        <time>2021-04-22T13:12:49Z</time>
      </trkpt>
      <trkpt lat="44.85634" lon="5.68601">
        <ele>713.4</ele>
        <time>2021-04-22T13:12:50Z</time>
      </trkpt>
      <trkpt lat="44.85641" lon="5.6859">
        <ele>712.7</ele>
        <time>2021-04-22T13:12:51Z</time>
      </trkpt>
      <trkpt lat="44.85649" lon="5.68578">
        <ele>711.9</ele>
        <time>2021-04-22T13:12:52Z</time>
      </trkpt>
      <trkpt lat="44.85658" lon="5.68568">
        <ele>711.2</ele>
        <time>2021-04-22T13:12:53Z</time>
      </trkpt>
      <trkpt lat="44.85667" lon="5.68558">
        <ele>710.4</ele>
        <time>2021-04-22T13:12:54Z</time>
      </trkpt>
      <trkpt lat="44.85677" lon="5.68549">
        <ele>709.6</ele>
        <time>2021-04-22T13:12:55Z</time>
      </trkpt>
      <trkpt lat="44.85686" lon="5.68539">
        <ele>708.9</ele>
        <time>2021-04-22T13:12:56Z</time>
      </trkpt>
      <trkpt lat="44.85695" lon="5.6853">
        <ele>708.1</ele>
        <time>2021-04-22T13:12:57Z</time>
      </trkpt>
      <trkpt lat="44.85703" lon="5.6852">
        <ele>707.4</ele>
        <time>2021-04-22T13:12:58Z</time>
      </trkpt>
      <trkpt lat="44.8571" lon="5.6851">
        <ele>706.7</ele>
        <time>2021-04-22T13:12:59Z</time>
      </trkpt>
      <trkpt lat="44.85718" lon="5.685">
        <ele>705.9</ele>
        <time>2021-04-22T13:13:00Z</time>
      </trkpt>
      <trkpt lat="44.85727" lon="5.6849">
        <ele>705.1</ele>
        <time>2021-04-22T13:13:01Z</time>
      </trkpt>
      <trkpt lat="44.85735" lon="5.68481">
        <ele>704.3</ele>
        <time>2021-04-22T13:13:02Z</time>
      </trkpt>
      <trkpt lat="44.85744" lon="5.6847">
        <ele>703.5</ele>
        <time>2021-04-22T13:13:03Z</time>
      </trkpt>
      <trkpt lat="44.85751" lon="5.6846">
        <ele>702.8</ele>
        <time>2021-04-22T13:13:04Z</time>
      </trkpt>
      <trkpt lat="44.85758" lon="5.6845">
        <ele>702.1</ele>
        <time>2021-04-22T13:13:05Z</time>
      </trkpt>
      <trkpt lat="44.85766" lon="5.6844">
        <ele>701.4</ele>
        <time>2021-04-22T13:13:06Z</time>
      </trkpt>
      <trkpt lat="44.85774" lon="5.6843">
        <ele>700.7</ele>
        <time>2021-04-22T13:13:07Z</time>
      </trkpt>
      <trkpt lat="44.85781" lon="5.6842">
        <ele>700</ele>
        <time>2021-04-22T13:13:08Z</time>
      </trkpt>
      <trkpt lat="44.85788" lon="5.68409">
        <ele>699.4</ele>
        <time>2021-04-22T13:13:09Z</time>
      </trkpt>
      <trkpt lat="44.85793" lon="5.68397">
        <ele>698.7</ele>
        <time>2021-04-22T13:13:10Z</time>
      </trkpt>
      <trkpt lat="44.85798" lon="5.68384">
        <ele>698</ele>
        <time>2021-04-22T13:13:11Z</time>
      </trkpt>
      <trkpt lat="44.85803" lon="5.68371">
        <ele>697.2</ele>
        <time>2021-04-22T13:13:12Z</time>
      </trkpt>
      <trkpt lat="44.85809" lon="5.68359">
        <ele>696.3</ele>
        <time>2021-04-22T13:13:13Z</time>
      </trkpt>
      <trkpt lat="44.85816" lon="5.68349">
        <ele>695.4</ele>
        <time>2021-04-22T13:13:14Z</time>
      </trkpt>
      <trkpt lat="44.85826" lon="5.68341">
        <ele>694.5</ele>
        <time>2021-04-22T13:13:15Z</time>
      </trkpt>
      <trkpt lat="44.85837" lon="5.68337">
        <ele>693.6</ele>
        <time>2021-04-22T13:13:16Z</time>
      </trkpt>
      <trkpt lat="44.85848" lon="5.68337">
        <ele>692.8</ele>
        <time>2021-04-22T13:13:17Z</time>
      </trkpt>
      <trkpt lat="44.85859" lon="5.68337">
        <ele>692.2</ele>
        <time>2021-04-22T13:13:18Z</time>
      </trkpt>
      <trkpt lat="44.8587" lon="5.68339">
        <ele>691.7</ele>
        <time>2021-04-22T13:13:19Z</time>
      </trkpt>
      <trkpt lat="44.85881" lon="5.6834">
        <ele>691.1</ele>
        <time>2021-04-22T13:13:20Z</time>
      </trkpt>
      <trkpt lat="44.85891" lon="5.6834">
        <ele>690.6</ele>
        <time>2021-04-22T13:13:21Z</time>
      </trkpt>
      <trkpt lat="44.85902" lon="5.68341">
        <ele>690</ele>
        <time>2021-04-22T13:13:22Z</time>
      </trkpt>
      <trkpt lat="44.85912" lon="5.68343">
        <ele>689.5</ele>
        <time>2021-04-22T13:13:23Z</time>
      </trkpt>
      <trkpt lat="44.85921" lon="5.68344">
        <ele>688.9</ele>
        <time>2021-04-22T13:13:24Z</time>
      </trkpt>
      <trkpt lat="44.85931" lon="5.68344">
        <ele>688.2</ele>
        <time>2021-04-22T13:13:25Z</time>
      </trkpt>
      <trkpt lat="44.8594" lon="5.68345">
        <ele>687.5</ele>
        <time>2021-04-22T13:13:26Z</time>
      </trkpt>
      <trkpt lat="44.85949" lon="5.68345">
        <ele>686.7</ele>
        <time>2021-04-22T13:13:27Z</time>
      </trkpt>
      <trkpt lat="44.85958" lon="5.68345">
        <ele>685.8</ele>
        <time>2021-04-22T13:13:28Z</time>
      </trkpt>
      <trkpt lat="44.85968" lon="5.68346">
        <ele>684.8</ele>
        <time>2021-04-22T13:13:29Z</time>
      </trkpt>
      <trkpt lat="44.85978" lon="5.68346">
        <ele>683.9</ele>
        <time>2021-04-22T13:13:30Z</time>
      </trkpt>
      <trkpt lat="44.85989" lon="5.68344">
        <ele>682.9</ele>
        <time>2021-04-22T13:13:31Z</time>
      </trkpt>
      <trkpt lat="44.85999" lon="5.68339">
        <ele>682</ele>
        <time>2021-04-22T13:13:32Z</time>
      </trkpt>
      <trkpt lat="44.86008" lon="5.6833">
        <ele>681</ele>
        <time>2021-04-22T13:13:33Z</time>
      </trkpt>
      <trkpt lat="44.86015" lon="5.68319">
        <ele>680</ele>
        <time>2021-04-22T13:13:34Z</time>
      </trkpt>
      <trkpt lat="44.8602" lon="5.68305">
        <ele>679.1</ele>
        <time>2021-04-22T13:13:35Z</time>
      </trkpt>
      <trkpt lat="44.86022" lon="5.68289">
        <ele>678.1</ele>
        <time>2021-04-22T13:13:36Z</time>
      </trkpt>
      <trkpt lat="44.86022" lon="5.68273">
        <ele>677.1</ele>
        <time>2021-04-22T13:13:37Z</time>
      </trkpt>
      <trkpt lat="44.86022" lon="5.68257">
        <ele>676.1</ele>
        <time>2021-04-22T13:13:38Z</time>
      </trkpt>
      <trkpt lat="44.86022" lon="5.6824">
        <ele>675.1</ele>
        <time>2021-04-22T13:13:39Z</time>
      </trkpt>
      <trkpt lat="44.86024" lon="5.68224">
        <ele>674.1</ele>
        <time>2021-04-22T13:13:40Z</time>
      </trkpt>
      <trkpt lat="44.86028" lon="5.68208">
        <ele>673.2</ele>
        <time>2021-04-22T13:13:41Z</time>
      </trkpt>
      <trkpt lat="44.86035" lon="5.68194">
        <ele>672.2</ele>
        <time>2021-04-22T13:13:42Z</time>
      </trkpt>
      <trkpt lat="44.86044" lon="5.68182">
        <ele>671.3</ele>
        <time>2021-04-22T13:13:43Z</time>
      </trkpt>
      <trkpt lat="44.86054" lon="5.68174">
        <ele>670.4</ele>
        <time>2021-04-22T13:13:44Z</time>
      </trkpt>
      <trkpt lat="44.86065" lon="5.68167">
        <ele>669.5</ele>
        <time>2021-04-22T13:13:45Z</time>
      </trkpt>
      <trkpt lat="44.86076" lon="5.68164">
        <ele>668.4</ele>
        <time>2021-04-22T13:13:46Z</time>
      </trkpt>
      <trkpt lat="44.86087" lon="5.68161">
        <ele>667.4</ele>
        <time>2021-04-22T13:13:47Z</time>
      </trkpt>
      <trkpt lat="44.86099" lon="5.68158">
        <ele>666.3</ele>
        <time>2021-04-22T13:13:48Z</time>
      </trkpt>
      <trkpt lat="44.86111" lon="5.68155">
        <ele>665.2</ele>
        <time>2021-04-22T13:13:49Z</time>
      </trkpt>
      <trkpt lat="44.86122" lon="5.68151">
        <ele>664.1</ele>
        <time>2021-04-22T13:13:50Z</time>
      </trkpt>
      <trkpt lat="44.86134" lon="5.68146">
        <ele>663</ele>
        <time>2021-04-22T13:13:51Z</time>
      </trkpt>
      <trkpt lat="44.86145" lon="5.68141">
        <ele>662</ele>
        <time>2021-04-22T13:13:52Z</time>
      </trkpt>
      <trkpt lat="44.86156" lon="5.68136">
        <ele>661</ele>
        <time>2021-04-22T13:13:53Z</time>
      </trkpt>
      <trkpt lat="44.86167" lon="5.68129">
        <ele>659.9</ele>
        <time>2021-04-22T13:13:54Z</time>
      </trkpt>
      <trkpt lat="44.86177" lon="5.68121">
        <ele>659</ele>
        <time>2021-04-22T13:13:55Z</time>
      </trkpt>
      <trkpt lat="44.86186" lon="5.68112">
        <ele>658.1</ele>
        <time>2021-04-22T13:13:56Z</time>
      </trkpt>
      <trkpt lat="44.86195" lon="5.681">
        <ele>657.1</ele>
        <time>2021-04-22T13:13:57Z</time>
      </trkpt>
      <trkpt lat="44.86203" lon="5.68088">
        <ele>656.2</ele>
        <time>2021-04-22T13:13:58Z</time>
      </trkpt>
      <trkpt lat="44.86211" lon="5.68076">
        <ele>655.4</ele>
        <time>2021-04-22T13:13:59Z</time>
      </trkpt>
      <trkpt lat="44.86218" lon="5.68064">
        <ele>654.7</ele>
        <time>2021-04-22T13:14:00Z</time>
      </trkpt>
      <trkpt lat="44.86225" lon="5.68051">
        <ele>654</ele>
        <time>2021-04-22T13:14:01Z</time>
      </trkpt>
      <trkpt lat="44.86232" lon="5.68038">
        <ele>653.4</ele>
        <time>2021-04-22T13:14:02Z</time>
      </trkpt>
      <trkpt lat="44.86238" lon="5.68026">
        <ele>652.8</ele>
        <time>2021-04-22T13:14:03Z</time>
      </trkpt>
      <trkpt lat="44.86245" lon="5.68013">
        <ele>652.3</ele>
        <time>2021-04-22T13:14:04Z</time>
      </trkpt>
      <trkpt lat="44.86252" lon="5.68">
        <ele>651.9</ele>
        <time>2021-04-22T13:14:05Z</time>
      </trkpt>
      <trkpt lat="44.86259" lon="5.67987">
        <ele>651.6</ele>
        <time>2021-04-22T13:14:06Z</time>
      </trkpt>
      <trkpt lat="44.86266" lon="5.67976">
        <ele>651.2</ele>
        <time>2021-04-22T13:14:07Z</time>
      </trkpt>
      <trkpt lat="44.86272" lon="5.67964">
        <ele>650.7</ele>
        <time>2021-04-22T13:14:08Z</time>
      </trkpt>
      <trkpt lat="44.86278" lon="5.67952">
        <ele>650.2</ele>
        <time>2021-04-22T13:14:09Z</time>
      </trkpt>
      <trkpt lat="44.86284" lon="5.67941">
        <ele>649.7</ele>
        <time>2021-04-22T13:14:10Z</time>
      </trkpt>
      <trkpt lat="44.8629" lon="5.6793">
        <ele>649.1</ele>
        <time>2021-04-22T13:14:11Z</time>
      </trkpt>
      <trkpt lat="44.86294" lon="5.67918">
        <ele>648.5</ele>
        <time>2021-04-22T13:14:12Z</time>
      </trkpt>
      <trkpt lat="44.86298" lon="5.67905">
        <ele>647.8</ele>
        <time>2021-04-22T13:14:13Z</time>
      </trkpt>
      <trkpt lat="44.86303" lon="5.67893">
        <ele>647</ele>
        <time>2021-04-22T13:14:14Z</time>
      </trkpt>
      <trkpt lat="44.86307" lon="5.6788">
        <ele>646.3</ele>
        <time>2021-04-22T13:14:15Z</time>
      </trkpt>
      <trkpt lat="44.86312" lon="5.67867">
        <ele>645.5</ele>
        <time>2021-04-22T13:14:16Z</time>
      </trkpt>
      <trkpt lat="44.86317" lon="5.67855">
        <ele>644.7</ele>
        <time>2021-04-22T13:14:17Z</time>
      </trkpt>
      <trkpt lat="44.86323" lon="5.67842">
        <ele>644</ele>
        <time>2021-04-22T13:14:18Z</time>
      </trkpt>
      <trkpt lat="44.86328" lon="5.67829">
        <ele>643.2</ele>
        <time>2021-04-22T13:14:19Z</time>
      </trkpt>
      <trkpt lat="44.86334" lon="5.67816">
        <ele>642.3</ele>
        <time>2021-04-22T13:14:20Z</time>
      </trkpt>
      <trkpt lat="44.8634" lon="5.67803">
        <ele>641.5</ele>
        <time>2021-04-22T13:14:21Z</time>
      </trkpt>
      <trkpt lat="44.86347" lon="5.6779">
        <ele>640.6</ele>
        <time>2021-04-22T13:14:22Z</time>
      </trkpt>
      <trkpt lat="44.86353" lon="5.67777">
        <ele>639.7</ele>
        <time>2021-04-22T13:14:23Z</time>
      </trkpt>
      <trkpt lat="44.86359" lon="5.67764">
        <ele>638.8</ele>
        <time>2021-04-22T13:14:24Z</time>
      </trkpt>
      <trkpt lat="44.86365" lon="5.67751">
        <ele>638</ele>
        <time>2021-04-22T13:14:25Z</time>
      </trkpt>
      <trkpt lat="44.86371" lon="5.67737">
        <ele>637.1</ele>
        <time>2021-04-22T13:14:26Z</time>
      </trkpt>
      <trkpt lat="44.86376" lon="5.67724">
        <ele>636.2</ele>
        <time>2021-04-22T13:14:27Z</time>
      </trkpt>
      <trkpt lat="44.86382" lon="5.6771">
        <ele>635.3</ele>
        <time>2021-04-22T13:14:28Z</time>
      </trkpt>
      <trkpt lat="44.86388" lon="5.67697">
        <ele>634.3</ele>
        <time>2021-04-22T13:14:29Z</time>
      </trkpt>
      <trkpt lat="44.86394" lon="5.67683">
        <ele>633.4</ele>
        <time>2021-04-22T13:14:30Z</time>
      </trkpt>
      <trkpt lat="44.864" lon="5.67669">
        <ele>632.5</ele>
        <time>2021-04-22T13:14:31Z</time>
      </trkpt>
      <trkpt lat="44.86406" lon="5.67655">
        <ele>631.6</ele>
        <time>2021-04-22T13:14:32Z</time>
      </trkpt>
      <trkpt lat="44.86412" lon="5.6764">
        <ele>630.8</ele>
        <time>2021-04-22T13:14:33Z</time>
      </trkpt>
      <trkpt lat="44.86417" lon="5.67626">
        <ele>630</ele>
        <time>2021-04-22T13:14:34Z</time>
      </trkpt>
      <trkpt lat="44.86423" lon="5.67612">
        <ele>629.2</ele>
        <time>2021-04-22T13:14:35Z</time>
      </trkpt>
      <trkpt lat="44.86428" lon="5.67598">
        <ele>628.4</ele>
        <time>2021-04-22T13:14:36Z</time>
      </trkpt>
      <trkpt lat="44.86432" lon="5.67583">
        <ele>627.5</ele>
        <time>2021-04-22T13:14:37Z</time>
      </trkpt>
      <trkpt lat="44.86433" lon="5.67568">
        <ele>626.7</ele>
        <time>2021-04-22T13:14:38Z</time>
      </trkpt>
      <trkpt lat="44.86434" lon="5.67556">
        <ele>626.3</ele>
        <time>2021-04-22T13:14:39Z</time>
      </trkpt>
      <trkpt lat="44.86434" lon="5.67546">
        <ele>625.9</ele>
        <time>2021-04-22T13:14:40Z</time>
      </trkpt>
      <trkpt lat="44.86436" lon="5.67537">
        <ele>625.6</ele>
        <time>2021-04-22T13:14:41Z</time>
      </trkpt>
      <trkpt lat="44.86443" lon="5.67533">
        <ele>625.2</ele>
        <time>2021-04-22T13:14:42Z</time>
      </trkpt>
      <trkpt lat="44.86449" lon="5.67537">
        <ele>624.8</ele>
        <time>2021-04-22T13:14:43Z</time>
      </trkpt>
      <trkpt lat="44.86452" lon="5.67547">
        <ele>624.3</ele>
        <time>2021-04-22T13:14:44Z</time>
      </trkpt>
      <trkpt lat="44.86452" lon="5.67558">
        <ele>623.7</ele>
        <time>2021-04-22T13:14:45Z</time>
      </trkpt>
      <trkpt lat="44.86453" lon="5.67569">
        <ele>623.1</ele>
        <time>2021-04-22T13:14:46Z</time>
      </trkpt>
      <trkpt lat="44.86454" lon="5.67581">
        <ele>622.4</ele>
        <time>2021-04-22T13:14:47Z</time>
      </trkpt>
      <trkpt lat="44.86457" lon="5.67592">
        <ele>621.6</ele>
        <time>2021-04-22T13:14:48Z</time>
      </trkpt>
      <trkpt lat="44.86459" lon="5.67604">
        <ele>620.8</ele>
        <time>2021-04-22T13:14:49Z</time>
      </trkpt>
      <trkpt lat="44.86462" lon="5.67617">
        <ele>619.9</ele>
        <time>2021-04-22T13:14:50Z</time>
      </trkpt>
      <trkpt lat="44.86465" lon="5.67631">
        <ele>619.1</ele>
        <time>2021-04-22T13:14:51Z</time>
      </trkpt>
      <trkpt lat="44.86468" lon="5.67645">
        <ele>618.3</ele>
        <time>2021-04-22T13:14:52Z</time>
      </trkpt>
      <trkpt lat="44.8647" lon="5.67658">
        <ele>617.6</ele>
        <time>2021-04-22T13:14:53Z</time>
      </trkpt>
      <trkpt lat="44.86473" lon="5.67673">
        <ele>616.9</ele>
        <time>2021-04-22T13:14:54Z</time>
      </trkpt>
      <trkpt lat="44.86475" lon="5.67687">
        <ele>616.1</ele>
        <time>2021-04-22T13:14:55Z</time>
      </trkpt>
      <trkpt lat="44.86478" lon="5.67701">
        <ele>615.4</ele>
        <time>2021-04-22T13:14:56Z</time>
      </trkpt>
      <trkpt lat="44.86481" lon="5.67715">
        <ele>614.6</ele>
        <time>2021-04-22T13:14:57Z</time>
      </trkpt>
      <trkpt lat="44.86486" lon="5.67727">
        <ele>613.8</ele>
        <time>2021-04-22T13:14:58Z</time>
      </trkpt>
      <trkpt lat="44.86493" lon="5.67734">
        <ele>613</ele>
        <time>2021-04-22T13:14:59Z</time>
      </trkpt>
      <trkpt lat="44.86503" lon="5.67732">
        <ele>612.3</ele>
        <time>2021-04-22T13:15:00Z</time>
      </trkpt>
      <trkpt lat="44.86511" lon="5.67722">
        <ele>611.5</ele>
        <time>2021-04-22T13:15:01Z</time>
      </trkpt>
      <trkpt lat="44.86516" lon="5.67709">
        <ele>610.8</ele>
        <time>2021-04-22T13:15:02Z</time>
      </trkpt>
      <trkpt lat="44.86519" lon="5.67694">
        <ele>610.1</ele>
        <time>2021-04-22T13:15:03Z</time>
      </trkpt>
      <trkpt lat="44.86521" lon="5.67681">
        <ele>609.4</ele>
        <time>2021-04-22T13:15:04Z</time>
      </trkpt>
      <trkpt lat="44.86524" lon="5.67667">
        <ele>608.7</ele>
        <time>2021-04-22T13:15:05Z</time>
      </trkpt>
      <trkpt lat="44.86527" lon="5.67654">
        <ele>608</ele>
        <time>2021-04-22T13:15:06Z</time>
      </trkpt>
      <trkpt lat="44.86532" lon="5.6764">
        <ele>607.3</ele>
        <time>2021-04-22T13:15:07Z</time>
      </trkpt>
      <trkpt lat="44.86537" lon="5.67627">
        <ele>606.6</ele>
        <time>2021-04-22T13:15:08Z</time>
      </trkpt>
      <trkpt lat="44.86542" lon="5.67613">
        <ele>605.9</ele>
        <time>2021-04-22T13:15:09Z</time>
      </trkpt>
      <trkpt lat="44.86548" lon="5.676">
        <ele>605.3</ele>
        <time>2021-04-22T13:15:10Z</time>
      </trkpt>
      <trkpt lat="44.86554" lon="5.67587">
        <ele>604.7</ele>
        <time>2021-04-22T13:15:11Z</time>
      </trkpt>
      <trkpt lat="44.8656" lon="5.67574">
        <ele>604.1</ele>
        <time>2021-04-22T13:15:12Z</time>
      </trkpt>
      <trkpt lat="44.86566" lon="5.67562">
        <ele>603.5</ele>
        <time>2021-04-22T13:15:13Z</time>
      </trkpt>
      <trkpt lat="44.86571" lon="5.6755">
        <ele>602.9</ele>
        <time>2021-04-22T13:15:14Z</time>
      </trkpt>
      <trkpt lat="44.86577" lon="5.67537">
        <ele>602.2</ele>
        <time>2021-04-22T13:15:15Z</time>
      </trkpt>
      <trkpt lat="44.86582" lon="5.67523">
        <ele>601.5</ele>
        <time>2021-04-22T13:15:16Z</time>
      </trkpt>
      <trkpt lat="44.86587" lon="5.6751">
        <ele>600.8</ele>
        <time>2021-04-22T13:15:17Z</time>
      </trkpt>
      <trkpt lat="44.86593" lon="5.67497">
        <ele>600.5</ele>
        <time>2021-04-22T13:15:18Z</time>
      </trkpt>
      <trkpt lat="44.86599" lon="5.67483">
        <ele>599.6</ele>
        <time>2021-04-22T13:15:19Z</time>
      </trkpt>
      <trkpt lat="44.86603" lon="5.67469">
        <ele>598.7</ele>
        <time>2021-04-22T13:15:20Z</time>
      </trkpt>
      <trkpt lat="44.86606" lon="5.67453">
        <ele>597.7</ele>
        <time>2021-04-22T13:15:21Z</time>
      </trkpt>
      <trkpt lat="44.86608" lon="5.67437">
        <ele>596.8</ele>
        <time>2021-04-22T13:15:22Z</time>
      </trkpt>
      <trkpt lat="44.86608" lon="5.67421">
        <ele>595.9</ele>
        <time>2021-04-22T13:15:23Z</time>
      </trkpt>
      <trkpt lat="44.86607" lon="5.67405">
        <ele>595.1</ele>
        <time>2021-04-22T13:15:24Z</time>
      </trkpt>
      <trkpt lat="44.86603" lon="5.67389">
        <ele>594.3</ele>
        <time>2021-04-22T13:15:25Z</time>
      </trkpt>
      <trkpt lat="44.86599" lon="5.67376">
        <ele>593.6</ele>
        <time>2021-04-22T13:15:26Z</time>
      </trkpt>
      <trkpt lat="44.86599" lon="5.67365">
        <ele>593</ele>
        <time>2021-04-22T13:15:27Z</time>
      </trkpt>
      <trkpt lat="44.86604" lon="5.67356">
        <ele>592.4</ele>
        <time>2021-04-22T13:15:28Z</time>
      </trkpt>
      <trkpt lat="44.86613" lon="5.67354">
        <ele>591.7</ele>
        <time>2021-04-22T13:15:29Z</time>
      </trkpt>
      <trkpt lat="44.86621" lon="5.67363">
        <ele>590.8</ele>
        <time>2021-04-22T13:15:30Z</time>
      </trkpt>
      <trkpt lat="44.86626" lon="5.67376">
        <ele>589.8</ele>
        <time>2021-04-22T13:15:31Z</time>
      </trkpt>
      <trkpt lat="44.86631" lon="5.6739">
        <ele>588.9</ele>
        <time>2021-04-22T13:15:32Z</time>
      </trkpt>
      <trkpt lat="44.86635" lon="5.67402">
        <ele>588</ele>
        <time>2021-04-22T13:15:33Z</time>
      </trkpt>
      <trkpt lat="44.8664" lon="5.67415">
        <ele>587.2</ele>
        <time>2021-04-22T13:15:34Z</time>
      </trkpt>
      <trkpt lat="44.86644" lon="5.67428">
        <ele>586.3</ele>
        <time>2021-04-22T13:15:35Z</time>
      </trkpt>
      <trkpt lat="44.86648" lon="5.67442">
        <ele>585.5</ele>
        <time>2021-04-22T13:15:36Z</time>
      </trkpt>
      <trkpt lat="44.86652" lon="5.67455">
        <ele>584.8</ele>
        <time>2021-04-22T13:15:37Z</time>
      </trkpt>
      <trkpt lat="44.86657" lon="5.67469">
        <ele>584</ele>
        <time>2021-04-22T13:15:38Z</time>
      </trkpt>
      <trkpt lat="44.86662" lon="5.67482">
        <ele>583.2</ele>
        <time>2021-04-22T13:15:39Z</time>
      </trkpt>
      <trkpt lat="44.86668" lon="5.67496">
        <ele>582.4</ele>
        <time>2021-04-22T13:15:40Z</time>
      </trkpt>
      <trkpt lat="44.86674" lon="5.6751">
        <ele>581.6</ele>
        <time>2021-04-22T13:15:41Z</time>
      </trkpt>
      <trkpt lat="44.86679" lon="5.67525">
        <ele>580.9</ele>
        <time>2021-04-22T13:15:42Z</time>
      </trkpt>
      <trkpt lat="44.86685" lon="5.6754">
        <ele>580.1</ele>
        <time>2021-04-22T13:15:43Z</time>
      </trkpt>
      <trkpt lat="44.86691" lon="5.67555">
        <ele>579.4</ele>
        <time>2021-04-22T13:15:44Z</time>
      </trkpt>
      <trkpt lat="44.86696" lon="5.67571">
        <ele>578.7</ele>
        <time>2021-04-22T13:15:45Z</time>
      </trkpt>
      <trkpt lat="44.86701" lon="5.67587">
        <ele>578.3</ele>
        <time>2021-04-22T13:15:46Z</time>
      </trkpt>
      <trkpt lat="44.86705" lon="5.67604">
        <ele>578</ele>
        <time>2021-04-22T13:15:47Z</time>
      </trkpt>
      <trkpt lat="44.86706" lon="5.6762">
        <ele>577.8</ele>
        <time>2021-04-22T13:15:48Z</time>
      </trkpt>
      <trkpt lat="44.86705" lon="5.67636">
        <ele>577.5</ele>
        <time>2021-04-22T13:15:49Z</time>
      </trkpt>
      <trkpt lat="44.86704" lon="5.67649">
        <ele>577.2</ele>
        <time>2021-04-22T13:15:50Z</time>
      </trkpt>
      <trkpt lat="44.86706" lon="5.67659">
        <ele>576.8</ele>
        <time>2021-04-22T13:15:51Z</time>
      </trkpt>
      <trkpt lat="44.86713" lon="5.67664">
        <ele>576.3</ele>
        <time>2021-04-22T13:15:52Z</time>
      </trkpt>
      <trkpt lat="44.86722" lon="5.67661">
        <ele>575.5</ele>
        <time>2021-04-22T13:15:53Z</time>
      </trkpt>
      <trkpt lat="44.86728" lon="5.6765">
        <ele>574.7</ele>
        <time>2021-04-22T13:15:54Z</time>
      </trkpt>
      <trkpt lat="44.86731" lon="5.67636">
        <ele>573.9</ele>
        <time>2021-04-22T13:15:55Z</time>
      </trkpt>
      <trkpt lat="44.86731" lon="5.67622">
        <ele>573.2</ele>
        <time>2021-04-22T13:15:56Z</time>
      </trkpt>
      <trkpt lat="44.86732" lon="5.67607">
        <ele>572.5</ele>
        <time>2021-04-22T13:15:57Z</time>
      </trkpt>
      <trkpt lat="44.86732" lon="5.67592">
        <ele>571.8</ele>
        <time>2021-04-22T13:15:58Z</time>
      </trkpt>
      <trkpt lat="44.86731" lon="5.67577">
        <ele>571.1</ele>
        <time>2021-04-22T13:15:59Z</time>
      </trkpt>
      <trkpt lat="44.86729" lon="5.67562">
        <ele>570.4</ele>
        <time>2021-04-22T13:16:00Z</time>
      </trkpt>
      <trkpt lat="44.86726" lon="5.67547">
        <ele>569.7</ele>
        <time>2021-04-22T13:16:01Z</time>
      </trkpt>
      <trkpt lat="44.86723" lon="5.67532">
        <ele>568.9</ele>
        <time>2021-04-22T13:16:02Z</time>
      </trkpt>
      <trkpt lat="44.86721" lon="5.67516">
        <ele>568.1</ele>
        <time>2021-04-22T13:16:03Z</time>
      </trkpt>
      <trkpt lat="44.86718" lon="5.67501">
        <ele>567.3</ele>
        <time>2021-04-22T13:16:04Z</time>
      </trkpt>
      <trkpt lat="44.86716" lon="5.67486">
        <ele>566.6</ele>
        <time>2021-04-22T13:16:05Z</time>
      </trkpt>
      <trkpt lat="44.86716" lon="5.6747">
        <ele>565.8</ele>
        <time>2021-04-22T13:16:06Z</time>
      </trkpt>
      <trkpt lat="44.86717" lon="5.67454">
        <ele>565</ele>
        <time>2021-04-22T13:16:07Z</time>
      </trkpt>
      <trkpt lat="44.86719" lon="5.67437">
        <ele>564.3</ele>
        <time>2021-04-22T13:16:08Z</time>
      </trkpt>
      <trkpt lat="44.86721" lon="5.67421">
        <ele>563.5</ele>
        <time>2021-04-22T13:16:09Z</time>
      </trkpt>
      <trkpt lat="44.86722" lon="5.67404">
        <ele>562.6</ele>
        <time>2021-04-22T13:16:10Z</time>
      </trkpt>
      <trkpt lat="44.86723" lon="5.67387">
        <ele>561.6</ele>
        <time>2021-04-22T13:16:11Z</time>
      </trkpt>
      <trkpt lat="44.86723" lon="5.67371">
        <ele>560.6</ele>
        <time>2021-04-22T13:16:12Z</time>
      </trkpt>
      <trkpt lat="44.86724" lon="5.67354">
        <ele>559.5</ele>
        <time>2021-04-22T13:16:13Z</time>
      </trkpt>
      <trkpt lat="44.86726" lon="5.67338">
        <ele>558.4</ele>
        <time>2021-04-22T13:16:14Z</time>
      </trkpt>
      <trkpt lat="44.86726" lon="5.6732">
        <ele>557.2</ele>
        <time>2021-04-22T13:16:15Z</time>
      </trkpt>
      <trkpt lat="44.86727" lon="5.67303">
        <ele>556.1</ele>
        <time>2021-04-22T13:16:16Z</time>
      </trkpt>
      <trkpt lat="44.86729" lon="5.67285">
        <ele>554.9</ele>
        <time>2021-04-22T13:16:17Z</time>
      </trkpt>
      <trkpt lat="44.86732" lon="5.67268">
        <ele>553.6</ele>
        <time>2021-04-22T13:16:18Z</time>
      </trkpt>
      <trkpt lat="44.86737" lon="5.6725">
        <ele>552.9</ele>
        <time>2021-04-22T13:16:19Z</time>
      </trkpt>
      <trkpt lat="44.86743" lon="5.67234">
        <ele>552.1</ele>
        <time>2021-04-22T13:16:20Z</time>
      </trkpt>
      <trkpt lat="44.86751" lon="5.6722">
        <ele>550.8</ele>
        <time>2021-04-22T13:16:21Z</time>
      </trkpt>
      <trkpt lat="44.86759" lon="5.67207">
        <ele>549.5</ele>
        <time>2021-04-22T13:16:22Z</time>
      </trkpt>
      <trkpt lat="44.86768" lon="5.67192">
        <ele>548.1</ele>
        <time>2021-04-22T13:16:23Z</time>
      </trkpt>
      <trkpt lat="44.86776" lon="5.67178">
        <ele>547.1</ele>
        <time>2021-04-22T13:16:24Z</time>
      </trkpt>
      <trkpt lat="44.86783" lon="5.67162">
        <ele>546.8</ele>
        <time>2021-04-22T13:16:25Z</time>
      </trkpt>
      <trkpt lat="44.86788" lon="5.67148">
        <ele>546.6</ele>
        <time>2021-04-22T13:16:26Z</time>
      </trkpt>
      <trkpt lat="44.86793" lon="5.67134">
        <ele>546.5</ele>
        <time>2021-04-22T13:16:27Z</time>
      </trkpt>
      <trkpt lat="44.86798" lon="5.67121">
        <ele>546.6</ele>
        <time>2021-04-22T13:16:28Z</time>
      </trkpt>
      <trkpt lat="44.86803" lon="5.67109">
        <ele>546.6</ele>
        <time>2021-04-22T13:16:29Z</time>
      </trkpt>
      <trkpt lat="44.86808" lon="5.67097">
        <ele>546.7</ele>
        <time>2021-04-22T13:16:30Z</time>
      </trkpt>
      <trkpt lat="44.86813" lon="5.67085">
        <ele>546.7</ele>
        <time>2021-04-22T13:16:31Z</time>
      </trkpt>
      <trkpt lat="44.86818" lon="5.67073">
        <ele>546.8</ele>
        <time>2021-04-22T13:16:32Z</time>
      </trkpt>
      <trkpt lat="44.86823" lon="5.67063">
        <ele>546.9</ele>
        <time>2021-04-22T13:16:33Z</time>
      </trkpt>
      <trkpt lat="44.86827" lon="5.67052">
        <ele>547.1</ele>
        <time>2021-04-22T13:16:34Z</time>
      </trkpt>
      <trkpt lat="44.86832" lon="5.67041">
        <ele>547.2</ele>
        <time>2021-04-22T13:16:35Z</time>
      </trkpt>
      <trkpt lat="44.86836" lon="5.67032">
        <ele>547.3</ele>
        <time>2021-04-22T13:16:36Z</time>
      </trkpt>
      <trkpt lat="44.8684" lon="5.67022">
        <ele>547.5</ele>
        <time>2021-04-22T13:16:37Z</time>
      </trkpt>
      <trkpt lat="44.86844" lon="5.67012">
        <ele>547.8</ele>
        <time>2021-04-22T13:16:38Z</time>
      </trkpt>
      <trkpt lat="44.86848" lon="5.67003">
        <ele>548.1</ele>
        <time>2021-04-22T13:16:39Z</time>
      </trkpt>
      <trkpt lat="44.86851" lon="5.66993">
        <ele>548.4</ele>
        <time>2021-04-22T13:16:40Z</time>
      </trkpt>
      <trkpt lat="44.86853" lon="5.66984">
        <ele>548.7</ele>
        <time>2021-04-22T13:16:41Z</time>
      </trkpt>
      <trkpt lat="44.86854" lon="5.66976">
        <ele>549.1</ele>
        <time>2021-04-22T13:16:42Z</time>
      </trkpt>
      <trkpt lat="44.86855" lon="5.66968">
        <ele>549.4</ele>
        <time>2021-04-22T13:16:43Z</time>
      </trkpt>
      <trkpt lat="44.86856" lon="5.66961">
        <ele>549.7</ele>
        <time>2021-04-22T13:16:44Z</time>
      </trkpt>
      <trkpt lat="44.86857" lon="5.66955">
        <ele>550</ele>
        <time>2021-04-22T13:16:45Z</time>
      </trkpt>
      <trkpt lat="44.86858" lon="5.66949">
        <ele>550.3</ele>
        <time>2021-04-22T13:16:46Z</time>
      </trkpt>
      <trkpt lat="44.86858" lon="5.66943">
        <ele>550.6</ele>
        <time>2021-04-22T13:16:47Z</time>
      </trkpt>
      <trkpt lat="44.86859" lon="5.66939">
        <ele>550.8</ele>
        <time>2021-04-22T13:16:48Z</time>
      </trkpt>
      <trkpt lat="44.8686" lon="5.66934">
        <ele>551.1</ele>
        <time>2021-04-22T13:16:49Z</time>
      </trkpt>
      <trkpt lat="44.86861" lon="5.66929">
        <ele>551.4</ele>
        <time>2021-04-22T13:16:50Z</time>
      </trkpt>
      <trkpt lat="44.86862" lon="5.66923">
        <ele>551.7</ele>
        <time>2021-04-22T13:16:51Z</time>
      </trkpt>
      <trkpt lat="44.86863" lon="5.66918">
        <ele>552</ele>
        <time>2021-04-22T13:16:52Z</time>
      </trkpt>
      <trkpt lat="44.86863" lon="5.66915">
        <ele>552.2</ele>
        <time>2021-04-22T13:16:53Z</time>
      </trkpt>
      <trkpt lat="44.86863" lon="5.66911">
        <ele>552.4</ele>
        <time>2021-04-22T13:16:54Z</time>
      </trkpt>
      <trkpt lat="44.86861" lon="5.66913">
        <ele>552.6</ele>
        <time>2021-04-22T13:16:55Z</time>
      </trkpt>
      <trkpt lat="44.86863" lon="5.66903">
        <ele>553.2</ele>
        <time>2021-04-22T13:16:56Z</time>
      </trkpt>
      <trkpt lat="44.86864" lon="5.66895">
        <ele>553.7</ele>
        <time>2021-04-22T13:16:58Z</time>
      </trkpt>
      <trkpt lat="44.86866" lon="5.66886">
        <ele>554.2</ele>
        <time>2021-04-22T13:17:00Z</time>
      </trkpt>
      <trkpt lat="44.86867" lon="5.66882">
        <ele>554.4</ele>
        <time>2021-04-22T13:17:01Z</time>
      </trkpt>
      <trkpt lat="44.86867" lon="5.66877">
        <ele>554.7</ele>
        <time>2021-04-22T13:17:02Z</time>
      </trkpt>
      <trkpt lat="44.86867" lon="5.66872">
        <ele>554.9</ele>
        <time>2021-04-22T13:17:04Z</time>
      </trkpt>
      <trkpt lat="44.86868" lon="5.66868">
        <ele>555.2</ele>
        <time>2021-04-22T13:17:05Z</time>
      </trkpt>
      <trkpt lat="44.86868" lon="5.66864">
        <ele>555.4</ele>
        <time>2021-04-22T13:17:06Z</time>
      </trkpt>
      <trkpt lat="44.86868" lon="5.66859">
        <ele>555.6</ele>
        <time>2021-04-22T13:17:07Z</time>
      </trkpt>
      <trkpt lat="44.86868" lon="5.66853">
        <ele>555.9</ele>
        <time>2021-04-22T13:17:09Z</time>
      </trkpt>
      <trkpt lat="44.86868" lon="5.66846">
        <ele>556.3</ele>
        <time>2021-04-22T13:17:11Z</time>
      </trkpt>
      <trkpt lat="44.86868" lon="5.66841">
        <ele>556.5</ele>
        <time>2021-04-22T13:17:12Z</time>
      </trkpt>
      <trkpt lat="44.86867" lon="5.66833">
        <ele>557</ele>
        <time>2021-04-22T13:17:14Z</time>
      </trkpt>
      <trkpt lat="44.86867" lon="5.66825">
        <ele>557.5</ele>
        <time>2021-04-22T13:17:16Z</time>
      </trkpt>
      <trkpt lat="44.8687" lon="5.66821">
        <ele>557.9</ele>
        <time>2021-04-22T13:17:17Z</time>
      </trkpt>
      <trkpt lat="44.86873" lon="5.66821">
        <ele>558.1</ele>
        <time>2021-04-22T13:17:18Z</time>
      </trkpt>
      <trkpt lat="44.86876" lon="5.66823">
        <ele>559</ele>
        <time>2021-04-22T13:17:20Z</time>
      </trkpt>
      <trkpt lat="44.86877" lon="5.66825">
        <ele>559.1</ele>
        <time>2021-04-22T13:17:21Z</time>
      </trkpt>
      <trkpt lat="44.86878" lon="5.66832">
        <ele>559.4</ele>
        <time>2021-04-22T13:17:23Z</time>
      </trkpt>
      <trkpt lat="44.86878" lon="5.66839">
        <ele>559.7</ele>
        <time>2021-04-22T13:17:25Z</time>
      </trkpt>
      <trkpt lat="44.86879" lon="5.66844">
        <ele>559.9</ele>
        <time>2021-04-22T13:17:26Z</time>
      </trkpt>
      <trkpt lat="44.86879" lon="5.66848">
        <ele>560.1</ele>
        <time>2021-04-22T13:17:27Z</time>
      </trkpt>
      <trkpt lat="44.8688" lon="5.66851">
        <ele>560.2</ele>
        <time>2021-04-22T13:17:28Z</time>
      </trkpt>
      <trkpt lat="44.86881" lon="5.66854">
        <ele>560.4</ele>
        <time>2021-04-22T13:17:30Z</time>
      </trkpt>
      <trkpt lat="44.86882" lon="5.66858">
        <ele>560.5</ele>
        <time>2021-04-22T13:17:31Z</time>
      </trkpt>
      <trkpt lat="44.86882" lon="5.66863">
        <ele>560.7</ele>
        <time>2021-04-22T13:17:32Z</time>
      </trkpt>
      <trkpt lat="44.86883" lon="5.66865">
        <ele>560.8</ele>
        <time>2021-04-22T13:17:33Z</time>
      </trkpt>
      <trkpt lat="44.86883" lon="5.66867">
        <ele>560.9</ele>
        <time>2021-04-22T13:17:34Z</time>
      </trkpt>
      <trkpt lat="44.86883" lon="5.66871">
        <ele>561</ele>
        <time>2021-04-22T13:17:36Z</time>
      </trkpt>
      <trkpt lat="44.86885" lon="5.66876">
        <ele>561.3</ele>
        <time>2021-04-22T13:17:37Z</time>
      </trkpt>
      <trkpt lat="44.86886" lon="5.66878">
        <ele>561.4</ele>
        <time>2021-04-22T13:17:38Z</time>
      </trkpt>
      <trkpt lat="44.86887" lon="5.66884">
        <ele>561.7</ele>
        <time>2021-04-22T13:17:40Z</time>
      </trkpt>
      <trkpt lat="44.86888" lon="5.66885">
        <ele>561.8</ele>
        <time>2021-04-22T13:17:41Z</time>
      </trkpt>
      <trkpt lat="44.8689" lon="5.6689">
        <ele>562</ele>
        <time>2021-04-22T13:17:42Z</time>
      </trkpt>
      <trkpt lat="44.86891" lon="5.66893">
        <ele>562.2</ele>
        <time>2021-04-22T13:17:44Z</time>
      </trkpt>
      <trkpt lat="44.86893" lon="5.66898">
        <ele>562.5</ele>
        <time>2021-04-22T13:17:46Z</time>
      </trkpt>
      <trkpt lat="44.86896" lon="5.66902">
        <ele>562.8</ele>
        <time>2021-04-22T13:17:48Z</time>
      </trkpt>
      <trkpt lat="44.86897" lon="5.66906">
        <ele>562.9</ele>
        <time>2021-04-22T13:17:49Z</time>
      </trkpt>
      <trkpt lat="44.86899" lon="5.66911">
        <ele>563.2</ele>
        <time>2021-04-22T13:17:51Z</time>
      </trkpt>
      <trkpt lat="44.86901" lon="5.66914">
        <ele>563.4</ele>
        <time>2021-04-22T13:17:52Z</time>
      </trkpt>
      <trkpt lat="44.86902" lon="5.66915">
        <ele>563.5</ele>
        <time>2021-04-22T13:17:53Z</time>
      </trkpt>
      <trkpt lat="44.86903" lon="5.66918">
        <ele>563.7</ele>
        <time>2021-04-22T13:17:54Z</time>
      </trkpt>
      <trkpt lat="44.86904" lon="5.66924">
        <ele>564</ele>
        <time>2021-04-22T13:17:56Z</time>
      </trkpt>
      <trkpt lat="44.86906" lon="5.6693">
        <ele>564.3</ele>
        <time>2021-04-22T13:17:58Z</time>
      </trkpt>
      <trkpt lat="44.86907" lon="5.66937">
        <ele>564.6</ele>
        <time>2021-04-22T13:18:00Z</time>
      </trkpt>
      <trkpt lat="44.86908" lon="5.66941">
        <ele>564.8</ele>
        <time>2021-04-22T13:18:01Z</time>
      </trkpt>
      <trkpt lat="44.86909" lon="5.66947">
        <ele>565.1</ele>
        <time>2021-04-22T13:18:03Z</time>
      </trkpt>
      <trkpt lat="44.86909" lon="5.66952">
        <ele>565.4</ele>
        <time>2021-04-22T13:18:05Z</time>
      </trkpt>
      <trkpt lat="44.8691" lon="5.66955">
        <ele>565.5</ele>
        <time>2021-04-22T13:18:06Z</time>
      </trkpt>
      <trkpt lat="44.8691" lon="5.6696">
        <ele>565.8</ele>
        <time>2021-04-22T13:18:08Z</time>
      </trkpt>
      <trkpt lat="44.8691" lon="5.66966">
        <ele>566.1</ele>
        <time>2021-04-22T13:18:09Z</time>
      </trkpt>
      <trkpt lat="44.8691" lon="5.66968">
        <ele>566.2</ele>
        <time>2021-04-22T13:18:10Z</time>
      </trkpt>
      <trkpt lat="44.86909" lon="5.66974">
        <ele>566.5</ele>
        <time>2021-04-22T13:18:12Z</time>
      </trkpt>
      <trkpt lat="44.86909" lon="5.66977">
        <ele>566.6</ele>
        <time>2021-04-22T13:18:13Z</time>
      </trkpt>
      <trkpt lat="44.86907" lon="5.66984">
        <ele>566.9</ele>
        <time>2021-04-22T13:18:15Z</time>
      </trkpt>
      <trkpt lat="44.86907" lon="5.66989">
        <ele>567.2</ele>
        <time>2021-04-22T13:18:16Z</time>
      </trkpt>
      <trkpt lat="44.86907" lon="5.66998">
        <ele>567.5</ele>
        <time>2021-04-22T13:18:18Z</time>
      </trkpt>
      <trkpt lat="44.86906" lon="5.67004">
        <ele>567.8</ele>
        <time>2021-04-22T13:18:20Z</time>
      </trkpt>
      <trkpt lat="44.86906" lon="5.67009">
        <ele>568.1</ele>
        <time>2021-04-22T13:18:21Z</time>
      </trkpt>
      <trkpt lat="44.86906" lon="5.67013">
        <ele>568.3</ele>
        <time>2021-04-22T13:18:22Z</time>
      </trkpt>
      <trkpt lat="44.86904" lon="5.6702">
        <ele>568.7</ele>
        <time>2021-04-22T13:18:24Z</time>
      </trkpt>
      <trkpt lat="44.86904" lon="5.67026">
        <ele>569</ele>
        <time>2021-04-22T13:18:26Z</time>
      </trkpt>
      <trkpt lat="44.86905" lon="5.6703">
        <ele>569.3</ele>
        <time>2021-04-22T13:18:27Z</time>
      </trkpt>
      <trkpt lat="44.86906" lon="5.67037">
        <ele>569.6</ele>
        <time>2021-04-22T13:18:28Z</time>
      </trkpt>
      <trkpt lat="44.86909" lon="5.6704">
        <ele>569.9</ele>
        <time>2021-04-22T13:18:30Z</time>
      </trkpt>
      <trkpt lat="44.86912" lon="5.67043">
        <ele>570.2</ele>
        <time>2021-04-22T13:18:31Z</time>
      </trkpt>
      <trkpt lat="44.86917" lon="5.67043">
        <ele>570.6</ele>
        <time>2021-04-22T13:18:32Z</time>
      </trkpt>
      <trkpt lat="44.86922" lon="5.67043">
        <ele>570.9</ele>
        <time>2021-04-22T13:18:34Z</time>
      </trkpt>
      <trkpt lat="44.86926" lon="5.67041">
        <ele>571.2</ele>
        <time>2021-04-22T13:18:35Z</time>
      </trkpt>
      <trkpt lat="44.8693" lon="5.67036">
        <ele>571.5</ele>
        <time>2021-04-22T13:18:36Z</time>
      </trkpt>
      <trkpt lat="44.86932" lon="5.67032">
        <ele>571.7</ele>
        <time>2021-04-22T13:18:37Z</time>
      </trkpt>
      <trkpt lat="44.86932" lon="5.67026">
        <ele>571.9</ele>
        <time>2021-04-22T13:18:39Z</time>
      </trkpt>
      <trkpt lat="44.86931" lon="5.67018">
        <ele>572.2</ele>
        <time>2021-04-22T13:18:41Z</time>
      </trkpt>
      <trkpt lat="44.86932" lon="5.67014">
        <ele>572.3</ele>
        <time>2021-04-22T13:18:42Z</time>
      </trkpt>
      <trkpt lat="44.86932" lon="5.67008">
        <ele>572.5</ele>
        <time>2021-04-22T13:18:43Z</time>
      </trkpt>
      <trkpt lat="44.86933" lon="5.66999">
        <ele>572.8</ele>
        <time>2021-04-22T13:18:45Z</time>
      </trkpt>
      <trkpt lat="44.86933" lon="5.66995">
        <ele>572.9</ele>
        <time>2021-04-22T13:18:46Z</time>
      </trkpt>
      <trkpt lat="44.86933" lon="5.66987">
        <ele>573.2</ele>
        <time>2021-04-22T13:18:48Z</time>
      </trkpt>
      <trkpt lat="44.86932" lon="5.66984">
        <ele>573.4</ele>
        <time>2021-04-22T13:18:49Z</time>
      </trkpt>
      <trkpt lat="44.86932" lon="5.66978">
        <ele>573.6</ele>
        <time>2021-04-22T13:18:50Z</time>
      </trkpt>
      <trkpt lat="44.86932" lon="5.66974">
        <ele>573.8</ele>
        <time>2021-04-22T13:18:51Z</time>
      </trkpt>
      <trkpt lat="44.86933" lon="5.66969">
        <ele>574</ele>
        <time>2021-04-22T13:18:53Z</time>
      </trkpt>
      <trkpt lat="44.86933" lon="5.66964">
        <ele>574.3</ele>
        <time>2021-04-22T13:18:55Z</time>
      </trkpt>
      <trkpt lat="44.86933" lon="5.66958">
        <ele>574.5</ele>
        <time>2021-04-22T13:18:57Z</time>
      </trkpt>
      <trkpt lat="44.86934" lon="5.66954">
        <ele>574.8</ele>
        <time>2021-04-22T13:18:58Z</time>
      </trkpt>
      <trkpt lat="44.86934" lon="5.66952">
        <ele>574.8</ele>
        <time>2021-04-22T13:18:59Z</time>
      </trkpt>
      <trkpt lat="44.86933" lon="5.66949">
        <ele>575</ele>
        <time>2021-04-22T13:19:00Z</time>
      </trkpt>
      <trkpt lat="44.86934" lon="5.66943">
        <ele>575.3</ele>
        <time>2021-04-22T13:19:02Z</time>
      </trkpt>
      <trkpt lat="44.86934" lon="5.66938">
        <ele>575.5</ele>
        <time>2021-04-22T13:19:03Z</time>
      </trkpt>
      <trkpt lat="44.86934" lon="5.66937">
        <ele>575.6</ele>
        <time>2021-04-22T13:19:04Z</time>
      </trkpt>
      <trkpt lat="44.86934" lon="5.66933">
        <ele>575.8</ele>
        <time>2021-04-22T13:19:05Z</time>
      </trkpt>
      <trkpt lat="44.86934" lon="5.66931">
        <ele>575.9</ele>
        <time>2021-04-22T13:19:06Z</time>
      </trkpt>
      <trkpt lat="44.86934" lon="5.66928">
        <ele>576.1</ele>
        <time>2021-04-22T13:19:07Z</time>
      </trkpt>
      <trkpt lat="44.86932" lon="5.66922">
        <ele>576.4</ele>
        <time>2021-04-22T13:19:09Z</time>
      </trkpt>
      <trkpt lat="44.86932" lon="5.66916">
        <ele>576.7</ele>
        <time>2021-04-22T13:19:11Z</time>
      </trkpt>
      <trkpt lat="44.86932" lon="5.66912">
        <ele>577</ele>
        <time>2021-04-22T13:19:12Z</time>
      </trkpt>
      <trkpt lat="44.86932" lon="5.6691">
        <ele>577</ele>
        <time>2021-04-22T13:19:13Z</time>
      </trkpt>
      <trkpt lat="44.86932" lon="5.66906">
        <ele>577.3</ele>
        <time>2021-04-22T13:19:14Z</time>
      </trkpt>
      <trkpt lat="44.86932" lon="5.66902">
        <ele>577.5</ele>
        <time>2021-04-22T13:19:15Z</time>
      </trkpt>
      <trkpt lat="44.86932" lon="5.66896">
        <ele>577.8</ele>
        <time>2021-04-22T13:19:17Z</time>
      </trkpt>
      <trkpt lat="44.86933" lon="5.66893">
        <ele>578</ele>
        <time>2021-04-22T13:19:18Z</time>
      </trkpt>
      <trkpt lat="44.86934" lon="5.66886">
        <ele>578.4</ele>
        <time>2021-04-22T13:19:20Z</time>
      </trkpt>
      <trkpt lat="44.86934" lon="5.66883">
        <ele>578.5</ele>
        <time>2021-04-22T13:19:21Z</time>
      </trkpt>
      <trkpt lat="44.86934" lon="5.66878">
        <ele>578.8</ele>
        <time>2021-04-22T13:19:23Z</time>
      </trkpt>
      <trkpt lat="44.86934" lon="5.66874">
        <ele>579</ele>
        <time>2021-04-22T13:19:24Z</time>
      </trkpt>
      <trkpt lat="44.86935" lon="5.66869">
        <ele>579.3</ele>
        <time>2021-04-22T13:19:26Z</time>
      </trkpt>
      <trkpt lat="44.86935" lon="5.66867">
        <ele>579.4</ele>
        <time>2021-04-22T13:19:27Z</time>
      </trkpt>
      <trkpt lat="44.86935" lon="5.66864">
        <ele>579.6</ele>
        <time>2021-04-22T13:19:28Z</time>
      </trkpt>
      <trkpt lat="44.86936" lon="5.6686">
        <ele>579.8</ele>
        <time>2021-04-22T13:19:29Z</time>
      </trkpt>
      <trkpt lat="44.86936" lon="5.66859">
        <ele>579.9</ele>
        <time>2021-04-22T13:19:30Z</time>
      </trkpt>
      <trkpt lat="44.86937" lon="5.66855">
        <ele>579.9</ele>
        <time>2021-04-22T13:19:31Z</time>
      </trkpt>
      <trkpt lat="44.86938" lon="5.66854">
        <ele>579.8</ele>
        <time>2021-04-22T13:19:32Z</time>
      </trkpt>
      <trkpt lat="44.86939" lon="5.66849">
        <ele>579.5</ele>
        <time>2021-04-22T13:19:33Z</time>
      </trkpt>
      <trkpt lat="44.8694" lon="5.66847">
        <ele>579.4</ele>
        <time>2021-04-22T13:19:34Z</time>
      </trkpt>
      <trkpt lat="44.86941" lon="5.66842">
        <ele>579.8</ele>
        <time>2021-04-22T13:19:36Z</time>
      </trkpt>
      <trkpt lat="44.86943" lon="5.6684">
        <ele>580</ele>
        <time>2021-04-22T13:19:37Z</time>
      </trkpt>
      <trkpt lat="44.86945" lon="5.66837">
        <ele>580.3</ele>
        <time>2021-04-22T13:19:39Z</time>
      </trkpt>
      <trkpt lat="44.86946" lon="5.66835">
        <ele>580.5</ele>
        <time>2021-04-22T13:19:40Z</time>
      </trkpt>
      <trkpt lat="44.8695" lon="5.66832">
        <ele>580.9</ele>
        <time>2021-04-22T13:19:42Z</time>
      </trkpt>
      <trkpt lat="44.86953" lon="5.6683">
        <ele>581.2</ele>
        <time>2021-04-22T13:19:44Z</time>
      </trkpt>
      <trkpt lat="44.86956" lon="5.66828">
        <ele>581.5</ele>
        <time>2021-04-22T13:19:45Z</time>
      </trkpt>
      <trkpt lat="44.86957" lon="5.66827">
        <ele>581.6</ele>
        <time>2021-04-22T13:19:46Z</time>
      </trkpt>
      <trkpt lat="44.8696" lon="5.66826">
        <ele>581.8</ele>
        <time>2021-04-22T13:19:47Z</time>
      </trkpt>
      <trkpt lat="44.86961" lon="5.66825">
        <ele>581.9</ele>
        <time>2021-04-22T13:19:48Z</time>
      </trkpt>
      <trkpt lat="44.86964" lon="5.66825">
        <ele>582.2</ele>
        <time>2021-04-22T13:19:49Z</time>
      </trkpt>
      <trkpt lat="44.86965" lon="5.66825">
        <ele>582.3</ele>
        <time>2021-04-22T13:19:50Z</time>
      </trkpt>
      <trkpt lat="44.86967" lon="5.66824">
        <ele>582.5</ele>
        <time>2021-04-22T13:19:51Z</time>
      </trkpt>
      <trkpt lat="44.86968" lon="5.66824">
        <ele>582.6</ele>
        <time>2021-04-22T13:19:52Z</time>
      </trkpt>
      <trkpt lat="44.86971" lon="5.66823">
        <ele>582.8</ele>
        <time>2021-04-22T13:19:53Z</time>
      </trkpt>
      <trkpt lat="44.86972" lon="5.66823">
        <ele>582.9</ele>
        <time>2021-04-22T13:19:54Z</time>
      </trkpt>
      <trkpt lat="44.86975" lon="5.66823">
        <ele>583.1</ele>
        <time>2021-04-22T13:19:55Z</time>
      </trkpt>
      <trkpt lat="44.86976" lon="5.66822">
        <ele>583.2</ele>
        <time>2021-04-22T13:19:56Z</time>
      </trkpt>
      <trkpt lat="44.8698" lon="5.66822">
        <ele>583.5</ele>
        <time>2021-04-22T13:19:57Z</time>
      </trkpt>
      <trkpt lat="44.86981" lon="5.66822">
        <ele>583.6</ele>
        <time>2021-04-22T13:19:58Z</time>
      </trkpt>
      <trkpt lat="44.86985" lon="5.66822">
        <ele>583.9</ele>
        <time>2021-04-22T13:20:00Z</time>
      </trkpt>
      <trkpt lat="44.86988" lon="5.66822">
        <ele>584.2</ele>
        <time>2021-04-22T13:20:01Z</time>
      </trkpt>
      <trkpt lat="44.86989" lon="5.66821">
        <ele>584.3</ele>
        <time>2021-04-22T13:20:02Z</time>
      </trkpt>
      <trkpt lat="44.86992" lon="5.66821">
        <ele>584.5</ele>
        <time>2021-04-22T13:20:03Z</time>
      </trkpt>
      <trkpt lat="44.86993" lon="5.66822">
        <ele>584.6</ele>
        <time>2021-04-22T13:20:04Z</time>
      </trkpt>
      <trkpt lat="44.86997" lon="5.66821">
        <ele>584.9</ele>
        <time>2021-04-22T13:20:05Z</time>
      </trkpt>
      <trkpt lat="44.86997" lon="5.66821">
        <ele>584.9</ele>
        <time>2021-04-22T13:20:06Z</time>
      </trkpt>
      <trkpt lat="44.87" lon="5.6682">
        <ele>585.2</ele>
        <time>2021-04-22T13:20:07Z</time>
      </trkpt>
      <trkpt lat="44.87004" lon="5.6682">
        <ele>585.5</ele>
        <time>2021-04-22T13:20:08Z</time>
      </trkpt>
      <trkpt lat="44.87008" lon="5.66819">
        <ele>585.8</ele>
        <time>2021-04-22T13:20:10Z</time>
      </trkpt>
      <trkpt lat="44.87009" lon="5.66819">
        <ele>585.9</ele>
        <time>2021-04-22T13:20:11Z</time>
      </trkpt>
      <trkpt lat="44.87012" lon="5.66819">
        <ele>586.1</ele>
        <time>2021-04-22T13:20:12Z</time>
      </trkpt>
      <trkpt lat="44.87013" lon="5.66819">
        <ele>586.2</ele>
        <time>2021-04-22T13:20:13Z</time>
      </trkpt>
      <trkpt lat="44.87015" lon="5.66818">
        <ele>586.4</ele>
        <time>2021-04-22T13:20:14Z</time>
      </trkpt>
      <trkpt lat="44.87019" lon="5.66817">
        <ele>586.7</ele>
        <time>2021-04-22T13:20:16Z</time>
      </trkpt>
      <trkpt lat="44.87022" lon="5.66816">
        <ele>587</ele>
        <time>2021-04-22T13:20:17Z</time>
      </trkpt>
      <trkpt lat="44.87023" lon="5.66816">
        <ele>587.1</ele>
        <time>2021-04-22T13:20:18Z</time>
      </trkpt>
      <trkpt lat="44.87027" lon="5.66815">
        <ele>587.3</ele>
        <time>2021-04-22T13:20:19Z</time>
      </trkpt>
      <trkpt lat="44.87028" lon="5.66815">
        <ele>587.4</ele>
        <time>2021-04-22T13:20:20Z</time>
      </trkpt>
      <trkpt lat="44.87031" lon="5.66814">
        <ele>587.7</ele>
        <time>2021-04-22T13:20:21Z</time>
      </trkpt>
      <trkpt lat="44.87032" lon="5.66814">
        <ele>587.7</ele>
        <time>2021-04-22T13:20:22Z</time>
      </trkpt>
      <trkpt lat="44.87035" lon="5.66814">
        <ele>588</ele>
        <time>2021-04-22T13:20:23Z</time>
      </trkpt>
      <trkpt lat="44.87036" lon="5.66813">
        <ele>588.1</ele>
        <time>2021-04-22T13:20:24Z</time>
      </trkpt>
      <trkpt lat="44.8704" lon="5.66813">
        <ele>588.4</ele>
        <time>2021-04-22T13:20:25Z</time>
      </trkpt>
      <trkpt lat="44.87041" lon="5.66813">
        <ele>588.5</ele>
        <time>2021-04-22T13:20:26Z</time>
      </trkpt>
      <trkpt lat="44.87045" lon="5.66813">
        <ele>588.8</ele>
        <time>2021-04-22T13:20:27Z</time>
      </trkpt>
      <trkpt lat="44.87046" lon="5.66813">
        <ele>588.9</ele>
        <time>2021-04-22T13:20:28Z</time>
      </trkpt>
      <trkpt lat="44.8705" lon="5.66812">
        <ele>589.3</ele>
        <time>2021-04-22T13:20:30Z</time>
      </trkpt>
      <trkpt lat="44.87055" lon="5.66811">
        <ele>589.7</ele>
        <time>2021-04-22T13:20:31Z</time>
      </trkpt>
      <trkpt lat="44.87057" lon="5.66811">
        <ele>589.9</ele>
        <time>2021-04-22T13:20:32Z</time>
      </trkpt>
      <trkpt lat="44.87061" lon="5.66812">
        <ele>590.2</ele>
        <time>2021-04-22T13:20:34Z</time>
      </trkpt>
      <trkpt lat="44.87064" lon="5.66812">
        <ele>590.5</ele>
        <time>2021-04-22T13:20:36Z</time>
      </trkpt>
      <trkpt lat="44.87067" lon="5.66813">
        <ele>590.8</ele>
        <time>2021-04-22T13:20:37Z</time>
      </trkpt>
      <trkpt lat="44.87069" lon="5.66813">
        <ele>590.9</ele>
        <time>2021-04-22T13:20:38Z</time>
      </trkpt>
      <trkpt lat="44.87072" lon="5.66813">
        <ele>591.1</ele>
        <time>2021-04-22T13:20:39Z</time>
      </trkpt>
      <trkpt lat="44.87073" lon="5.66812">
        <ele>591.2</ele>
        <time>2021-04-22T13:20:40Z</time>
      </trkpt>
      <trkpt lat="44.87076" lon="5.66812">
        <ele>591.5</ele>
        <time>2021-04-22T13:20:41Z</time>
      </trkpt>
      <trkpt lat="44.87077" lon="5.66813">
        <ele>591.6</ele>
        <time>2021-04-22T13:20:42Z</time>
      </trkpt>
      <trkpt lat="44.8708" lon="5.66813">
        <ele>591.9</ele>
        <time>2021-04-22T13:20:43Z</time>
      </trkpt>
      <trkpt lat="44.87081" lon="5.66813">
        <ele>592</ele>
        <time>2021-04-22T13:20:44Z</time>
      </trkpt>
      <trkpt lat="44.87084" lon="5.66814">
        <ele>592.3</ele>
        <time>2021-04-22T13:20:45Z</time>
      </trkpt>
      <trkpt lat="44.87085" lon="5.66814">
        <ele>592.4</ele>
        <time>2021-04-22T13:20:46Z</time>
      </trkpt>
      <trkpt lat="44.87088" lon="5.66815">
        <ele>592.7</ele>
        <time>2021-04-22T13:20:47Z</time>
      </trkpt>
      <trkpt lat="44.87089" lon="5.66814">
        <ele>592.8</ele>
        <time>2021-04-22T13:20:48Z</time>
      </trkpt>
      <trkpt lat="44.87092" lon="5.66814">
        <ele>593.1</ele>
        <time>2021-04-22T13:20:49Z</time>
      </trkpt>
      <trkpt lat="44.87093" lon="5.66813">
        <ele>593.2</ele>
        <time>2021-04-22T13:20:50Z</time>
      </trkpt>
      <trkpt lat="44.87095" lon="5.66812">
        <ele>593.4</ele>
        <time>2021-04-22T13:20:51Z</time>
      </trkpt>
      <trkpt lat="44.87097" lon="5.66809">
        <ele>593.7</ele>
        <time>2021-04-22T13:20:53Z</time>
      </trkpt>
      <trkpt lat="44.87099" lon="5.66805">
        <ele>594.1</ele>
        <time>2021-04-22T13:20:54Z</time>
      </trkpt>
      <trkpt lat="44.871" lon="5.66804">
        <ele>594.2</ele>
        <time>2021-04-22T13:20:55Z</time>
      </trkpt>
      <trkpt lat="44.87101" lon="5.66796">
        <ele>594.7</ele>
        <time>2021-04-22T13:20:57Z</time>
      </trkpt>
      <trkpt lat="44.87101" lon="5.66792">
        <ele>594.9</ele>
        <time>2021-04-22T13:20:58Z</time>
      </trkpt>
      <trkpt lat="44.871" lon="5.66785">
        <ele>595.3</ele>
        <time>2021-04-22T13:21:00Z</time>
      </trkpt>
      <trkpt lat="44.87097" lon="5.6678">
        <ele>595.6</ele>
        <time>2021-04-22T13:21:01Z</time>
      </trkpt>
      <trkpt lat="44.87091" lon="5.66775">
        <ele>596</ele>
        <time>2021-04-22T13:21:03Z</time>
      </trkpt>
      <trkpt lat="44.87089" lon="5.66773">
        <ele>596.1</ele>
        <time>2021-04-22T13:21:04Z</time>
      </trkpt>
      <trkpt lat="44.87085" lon="5.6677">
        <ele>596.4</ele>
        <time>2021-04-22T13:21:06Z</time>
      </trkpt>
      <trkpt lat="44.87083" lon="5.66769">
        <ele>596.5</ele>
        <time>2021-04-22T13:21:07Z</time>
      </trkpt>
      <trkpt lat="44.87081" lon="5.66768">
        <ele>596.6</ele>
        <time>2021-04-22T13:21:08Z</time>
      </trkpt>
      <trkpt lat="44.87077" lon="5.66765">
        <ele>596.8</ele>
        <time>2021-04-22T13:21:09Z</time>
      </trkpt>
      <trkpt lat="44.87074" lon="5.66763">
        <ele>597</ele>
        <time>2021-04-22T13:21:10Z</time>
      </trkpt>
      <trkpt lat="44.8707" lon="5.66761">
        <ele>597.3</ele>
        <time>2021-04-22T13:21:12Z</time>
      </trkpt>
      <trkpt lat="44.87068" lon="5.6676">
        <ele>597.4</ele>
        <time>2021-04-22T13:21:13Z</time>
      </trkpt>
      <trkpt lat="44.87066" lon="5.66759">
        <ele>597.5</ele>
        <time>2021-04-22T13:21:14Z</time>
      </trkpt>
      <trkpt lat="44.87062" lon="5.66757">
        <ele>597.8</ele>
        <time>2021-04-22T13:21:16Z</time>
      </trkpt>
      <trkpt lat="44.87059" lon="5.66755">
        <ele>598.1</ele>
        <time>2021-04-22T13:21:17Z</time>
      </trkpt>
      <trkpt lat="44.87058" lon="5.66754">
        <ele>598.1</ele>
        <time>2021-04-22T13:21:18Z</time>
      </trkpt>
      <trkpt lat="44.87056" lon="5.66751">
        <ele>598.4</ele>
        <time>2021-04-22T13:21:19Z</time>
      </trkpt>
      <trkpt lat="44.87054" lon="5.6675">
        <ele>598.5</ele>
        <time>2021-04-22T13:21:20Z</time>
      </trkpt>
      <trkpt lat="44.87051" lon="5.66746">
        <ele>598.9</ele>
        <time>2021-04-22T13:21:22Z</time>
      </trkpt>
      <trkpt lat="44.87048" lon="5.66743">
        <ele>599.1</ele>
        <time>2021-04-22T13:21:23Z</time>
      </trkpt>
      <trkpt lat="44.87048" lon="5.66742">
        <ele>599.2</ele>
        <time>2021-04-22T13:21:24Z</time>
      </trkpt>
      <trkpt lat="44.87045" lon="5.66738">
        <ele>599.5</ele>
        <time>2021-04-22T13:21:25Z</time>
      </trkpt>
      <trkpt lat="44.87045" lon="5.66737">
        <ele>599.6</ele>
        <time>2021-04-22T13:21:26Z</time>
      </trkpt>
      <trkpt lat="44.87043" lon="5.66732">
        <ele>599.9</ele>
        <time>2021-04-22T13:21:27Z</time>
      </trkpt>
      <trkpt lat="44.87043" lon="5.6673">
        <ele>600</ele>
        <time>2021-04-22T13:21:28Z</time>
      </trkpt>
      <trkpt lat="44.87041" lon="5.66724">
        <ele>600.4</ele>
        <time>2021-04-22T13:21:30Z</time>
      </trkpt>
      <trkpt lat="44.8704" lon="5.66718">
        <ele>600.8</ele>
        <time>2021-04-22T13:21:32Z</time>
      </trkpt>
      <trkpt lat="44.8704" lon="5.66714">
        <ele>601</ele>
        <time>2021-04-22T13:21:33Z</time>
      </trkpt>
      <trkpt lat="44.8704" lon="5.66712">
        <ele>601.1</ele>
        <time>2021-04-22T13:21:34Z</time>
      </trkpt>
      <trkpt lat="44.8704" lon="5.66708">
        <ele>601.4</ele>
        <time>2021-04-22T13:21:35Z</time>
      </trkpt>
      <trkpt lat="44.8704" lon="5.66706">
        <ele>601.5</ele>
        <time>2021-04-22T13:21:36Z</time>
      </trkpt>
      <trkpt lat="44.8704" lon="5.66701">
        <ele>601.8</ele>
        <time>2021-04-22T13:21:37Z</time>
      </trkpt>
      <trkpt lat="44.8704" lon="5.66699">
        <ele>601.9</ele>
        <time>2021-04-22T13:21:38Z</time>
      </trkpt>
      <trkpt lat="44.87039" lon="5.66693">
        <ele>602.2</ele>
        <time>2021-04-22T13:21:39Z</time>
      </trkpt>
      <trkpt lat="44.87039" lon="5.66691">
        <ele>602.4</ele>
        <time>2021-04-22T13:21:40Z</time>
      </trkpt>
      <trkpt lat="44.8704" lon="5.66683">
        <ele>602.9</ele>
        <time>2021-04-22T13:21:42Z</time>
      </trkpt>
      <trkpt lat="44.8704" lon="5.66677">
        <ele>603.2</ele>
        <time>2021-04-22T13:21:44Z</time>
      </trkpt>
      <trkpt lat="44.87041" lon="5.66674">
        <ele>603.4</ele>
        <time>2021-04-22T13:21:45Z</time>
      </trkpt>
      <trkpt lat="44.87042" lon="5.66669">
        <ele>603.8</ele>
        <time>2021-04-22T13:21:47Z</time>
      </trkpt>
      <trkpt lat="44.87044" lon="5.66665">
        <ele>604.1</ele>
        <time>2021-04-22T13:21:48Z</time>
      </trkpt>
      <trkpt lat="44.87044" lon="5.66664">
        <ele>604.2</ele>
        <time>2021-04-22T13:21:49Z</time>
      </trkpt>
      <trkpt lat="44.87047" lon="5.66658">
        <ele>604.7</ele>
        <time>2021-04-22T13:21:51Z</time>
      </trkpt>
      <trkpt lat="44.87047" lon="5.66656">
        <ele>604.8</ele>
        <time>2021-04-22T13:21:52Z</time>
      </trkpt>
      <trkpt lat="44.87048" lon="5.66654">
        <ele>604.9</ele>
        <time>2021-04-22T13:21:53Z</time>
      </trkpt>
      <trkpt lat="44.8705" lon="5.66648">
        <ele>605.1</ele>
        <time>2021-04-22T13:21:55Z</time>
      </trkpt>
      <trkpt lat="44.8705" lon="5.66647">
        <ele>605.2</ele>
        <time>2021-04-22T13:21:56Z</time>
      </trkpt>
      <trkpt lat="44.87051" lon="5.66645">
        <ele>605.3</ele>
        <time>2021-04-22T13:21:57Z</time>
      </trkpt>
      <trkpt lat="44.87051" lon="5.66642">
        <ele>605.4</ele>
        <time>2021-04-22T13:21:58Z</time>
      </trkpt>
      <trkpt lat="44.87052" lon="5.66635">
        <ele>605.7</ele>
        <time>2021-04-22T13:22:00Z</time>
      </trkpt>
      <trkpt lat="44.87051" lon="5.6663">
        <ele>605.9</ele>
        <time>2021-04-22T13:22:02Z</time>
      </trkpt>
      <trkpt lat="44.87051" lon="5.66626">
        <ele>606</ele>
        <time>2021-04-22T13:22:03Z</time>
      </trkpt>
      <trkpt lat="44.87048" lon="5.66621">
        <ele>606.1</ele>
        <time>2021-04-22T13:22:05Z</time>
      </trkpt>
      <trkpt lat="44.87046" lon="5.66618">
        <ele>606.2</ele>
        <time>2021-04-22T13:22:06Z</time>
      </trkpt>
      <trkpt lat="44.87044" lon="5.66615">
        <ele>606.3</ele>
        <time>2021-04-22T13:22:07Z</time>
      </trkpt>
      <trkpt lat="44.87041" lon="5.66611">
        <ele>606.4</ele>
        <time>2021-04-22T13:22:08Z</time>
      </trkpt>
      <trkpt lat="44.87038" lon="5.66609">
        <ele>606.4</ele>
        <time>2021-04-22T13:22:10Z</time>
      </trkpt>
      <trkpt lat="44.87035" lon="5.66607">
        <ele>606.5</ele>
        <time>2021-04-22T13:22:12Z</time>
      </trkpt>
      <trkpt lat="44.87031" lon="5.66605">
        <ele>606.6</ele>
        <time>2021-04-22T13:22:13Z</time>
      </trkpt>
      <trkpt lat="44.8703" lon="5.66605">
        <ele>606.6</ele>
        <time>2021-04-22T13:22:14Z</time>
      </trkpt>
      <trkpt lat="44.87027" lon="5.66605">
        <ele>606.7</ele>
        <time>2021-04-22T13:22:15Z</time>
      </trkpt>
      <trkpt lat="44.87023" lon="5.66602">
        <ele>606.8</ele>
        <time>2021-04-22T13:22:17Z</time>
      </trkpt>
      <trkpt lat="44.87017" lon="5.66599">
        <ele>606.9</ele>
        <time>2021-04-22T13:22:19Z</time>
      </trkpt>
      <trkpt lat="44.87013" lon="5.66597">
        <ele>607</ele>
        <time>2021-04-22T13:22:20Z</time>
      </trkpt>
      <trkpt lat="44.87011" lon="5.66596">
        <ele>607.1</ele>
        <time>2021-04-22T13:22:21Z</time>
      </trkpt>
      <trkpt lat="44.87008" lon="5.66595">
        <ele>607.2</ele>
        <time>2021-04-22T13:22:23Z</time>
      </trkpt>
      <trkpt lat="44.87004" lon="5.66593">
        <ele>607.3</ele>
        <time>2021-04-22T13:22:25Z</time>
      </trkpt>
      <trkpt lat="44.86999" lon="5.66591">
        <ele>607.5</ele>
        <time>2021-04-22T13:22:26Z</time>
      </trkpt>
      <trkpt lat="44.86997" lon="5.6659">
        <ele>607.6</ele>
        <time>2021-04-22T13:22:27Z</time>
      </trkpt>
      <trkpt lat="44.86994" lon="5.66588">
        <ele>607.8</ele>
        <time>2021-04-22T13:22:29Z</time>
      </trkpt>
      <trkpt lat="44.86993" lon="5.66588">
        <ele>607.8</ele>
        <time>2021-04-22T13:22:30Z</time>
      </trkpt>
      <trkpt lat="44.86989" lon="5.66584">
        <ele>608.1</ele>
        <time>2021-04-22T13:22:32Z</time>
      </trkpt>
      <trkpt lat="44.86984" lon="5.66581">
        <ele>608.3</ele>
        <time>2021-04-22T13:22:34Z</time>
      </trkpt>
      <trkpt lat="44.8698" lon="5.66578">
        <ele>608.5</ele>
        <time>2021-04-22T13:22:36Z</time>
      </trkpt>
      <trkpt lat="44.86978" lon="5.66576">
        <ele>608.7</ele>
        <time>2021-04-22T13:22:37Z</time>
      </trkpt>
      <trkpt lat="44.86974" lon="5.66575">
        <ele>609</ele>
        <time>2021-04-22T13:22:39Z</time>
      </trkpt>
      <trkpt lat="44.86971" lon="5.66573">
        <ele>609.1</ele>
        <time>2021-04-22T13:22:40Z</time>
      </trkpt>
      <trkpt lat="44.86967" lon="5.6657">
        <ele>609.4</ele>
        <time>2021-04-22T13:22:41Z</time>
      </trkpt>
      <trkpt lat="44.86963" lon="5.66567">
        <ele>609.8</ele>
        <time>2021-04-22T13:22:43Z</time>
      </trkpt>
      <trkpt lat="44.86962" lon="5.66566">
        <ele>609.9</ele>
        <time>2021-04-22T13:22:44Z</time>
      </trkpt>
      <trkpt lat="44.8696" lon="5.66565">
        <ele>610</ele>
        <time>2021-04-22T13:22:45Z</time>
      </trkpt>
      <trkpt lat="44.86957" lon="5.66562">
        <ele>610.3</ele>
        <time>2021-04-22T13:22:47Z</time>
      </trkpt>
      <trkpt lat="44.86954" lon="5.6656">
        <ele>610.6</ele>
        <time>2021-04-22T13:22:48Z</time>
      </trkpt>
      <trkpt lat="44.86951" lon="5.66557">
        <ele>610.9</ele>
        <time>2021-04-22T13:22:50Z</time>
      </trkpt>
      <trkpt lat="44.86948" lon="5.66555">
        <ele>611.2</ele>
        <time>2021-04-22T13:22:51Z</time>
      </trkpt>
      <trkpt lat="44.86946" lon="5.66554">
        <ele>611.4</ele>
        <time>2021-04-22T13:22:52Z</time>
      </trkpt>
      <trkpt lat="44.86943" lon="5.66551">
        <ele>611.7</ele>
        <time>2021-04-22T13:22:54Z</time>
      </trkpt>
      <trkpt lat="44.8694" lon="5.66549">
        <ele>612</ele>
        <time>2021-04-22T13:22:55Z</time>
      </trkpt>
      <trkpt lat="44.86939" lon="5.66548">
        <ele>612.1</ele>
        <time>2021-04-22T13:22:56Z</time>
      </trkpt>
      <trkpt lat="44.86935" lon="5.66545">
        <ele>612.5</ele>
        <time>2021-04-22T13:22:58Z</time>
      </trkpt>
      <trkpt lat="44.86932" lon="5.66541">
        <ele>612.8</ele>
        <time>2021-04-22T13:22:59Z</time>
      </trkpt>
      <trkpt lat="44.8693" lon="5.66539">
        <ele>613</ele>
        <time>2021-04-22T13:23:00Z</time>
      </trkpt>
      <trkpt lat="44.86928" lon="5.66535">
        <ele>613.2</ele>
        <time>2021-04-22T13:23:02Z</time>
      </trkpt>
      <trkpt lat="44.86926" lon="5.66532">
        <ele>613.5</ele>
        <time>2021-04-22T13:23:03Z</time>
      </trkpt>
      <trkpt lat="44.86924" lon="5.66529">
        <ele>613.7</ele>
        <time>2021-04-22T13:23:04Z</time>
      </trkpt>
      <trkpt lat="44.86922" lon="5.66524">
        <ele>614</ele>
        <time>2021-04-22T13:23:06Z</time>
      </trkpt>
      <trkpt lat="44.8692" lon="5.66521">
        <ele>614.3</ele>
        <time>2021-04-22T13:23:07Z</time>
      </trkpt>
      <trkpt lat="44.86918" lon="5.66517">
        <ele>614.5</ele>
        <time>2021-04-22T13:23:09Z</time>
      </trkpt>
      <trkpt lat="44.86917" lon="5.66512">
        <ele>614.7</ele>
        <time>2021-04-22T13:23:10Z</time>
      </trkpt>
      <trkpt lat="44.86916" lon="5.66507">
        <ele>615</ele>
        <time>2021-04-22T13:23:11Z</time>
      </trkpt>
      <trkpt lat="44.86915" lon="5.66504">
        <ele>615.2</ele>
        <time>2021-04-22T13:23:12Z</time>
      </trkpt>
      <trkpt lat="44.86913" lon="5.665">
        <ele>615.4</ele>
        <time>2021-04-22T13:23:14Z</time>
      </trkpt>
      <trkpt lat="44.86912" lon="5.66496">
        <ele>615.7</ele>
        <time>2021-04-22T13:23:16Z</time>
      </trkpt>
      <trkpt lat="44.86911" lon="5.66492">
        <ele>615.8</ele>
        <time>2021-04-22T13:23:17Z</time>
      </trkpt>
      <trkpt lat="44.86909" lon="5.66486">
        <ele>616.2</ele>
        <time>2021-04-22T13:23:19Z</time>
      </trkpt>
      <trkpt lat="44.86907" lon="5.6648">
        <ele>616.5</ele>
        <time>2021-04-22T13:23:21Z</time>
      </trkpt>
      <trkpt lat="44.86906" lon="5.66477">
        <ele>616.7</ele>
        <time>2021-04-22T13:23:22Z</time>
      </trkpt>
      <trkpt lat="44.86905" lon="5.66471">
        <ele>617</ele>
        <time>2021-04-22T13:23:24Z</time>
      </trkpt>
      <trkpt lat="44.86903" lon="5.66466">
        <ele>617.3</ele>
        <time>2021-04-22T13:23:26Z</time>
      </trkpt>
      <trkpt lat="44.86901" lon="5.6646">
        <ele>617.7</ele>
        <time>2021-04-22T13:23:27Z</time>
      </trkpt>
      <trkpt lat="44.869" lon="5.66458">
        <ele>617.8</ele>
        <time>2021-04-22T13:23:28Z</time>
      </trkpt>
      <trkpt lat="44.86898" lon="5.66453">
        <ele>618.1</ele>
        <time>2021-04-22T13:23:30Z</time>
      </trkpt>
      <trkpt lat="44.86897" lon="5.66451">
        <ele>618.3</ele>
        <time>2021-04-22T13:23:31Z</time>
      </trkpt>
      <trkpt lat="44.86897" lon="5.66446">
        <ele>618.5</ele>
        <time>2021-04-22T13:23:33Z</time>
      </trkpt>
      <trkpt lat="44.86895" lon="5.66443">
        <ele>618.8</ele>
        <time>2021-04-22T13:23:34Z</time>
      </trkpt>
      <trkpt lat="44.86894" lon="5.66439">
        <ele>619</ele>
        <time>2021-04-22T13:23:35Z</time>
      </trkpt>
      <trkpt lat="44.86892" lon="5.66433">
        <ele>619.4</ele>
        <time>2021-04-22T13:23:37Z</time>
      </trkpt>
      <trkpt lat="44.86892" lon="5.66429">
        <ele>619.7</ele>
        <time>2021-04-22T13:23:38Z</time>
      </trkpt>
      <trkpt lat="44.86891" lon="5.66425">
        <ele>620</ele>
        <time>2021-04-22T13:23:39Z</time>
      </trkpt>
      <trkpt lat="44.8689" lon="5.6642">
        <ele>620.3</ele>
        <time>2021-04-22T13:23:41Z</time>
      </trkpt>
      <trkpt lat="44.86889" lon="5.66414">
        <ele>620.7</ele>
        <time>2021-04-22T13:23:43Z</time>
      </trkpt>
      <trkpt lat="44.86888" lon="5.6641">
        <ele>621</ele>
        <time>2021-04-22T13:23:44Z</time>
      </trkpt>
      <trkpt lat="44.86888" lon="5.66404">
        <ele>621.3</ele>
        <time>2021-04-22T13:23:46Z</time>
      </trkpt>
      <trkpt lat="44.86888" lon="5.66399">
        <ele>621.7</ele>
        <time>2021-04-22T13:23:47Z</time>
      </trkpt>
      <trkpt lat="44.86888" lon="5.66395">
        <ele>621.9</ele>
        <time>2021-04-22T13:23:49Z</time>
      </trkpt>
      <trkpt lat="44.86888" lon="5.66393">
        <ele>622</ele>
        <time>2021-04-22T13:23:50Z</time>
      </trkpt>
      <trkpt lat="44.86889" lon="5.66389">
        <ele>622.3</ele>
        <time>2021-04-22T13:23:51Z</time>
      </trkpt>
      <trkpt lat="44.8689" lon="5.66385">
        <ele>622.5</ele>
        <time>2021-04-22T13:23:52Z</time>
      </trkpt>
      <trkpt lat="44.86891" lon="5.66382">
        <ele>622.7</ele>
        <time>2021-04-22T13:23:53Z</time>
      </trkpt>
      <trkpt lat="44.86893" lon="5.66377">
        <ele>623</ele>
        <time>2021-04-22T13:23:55Z</time>
      </trkpt>
      <trkpt lat="44.86895" lon="5.66373">
        <ele>623.2</ele>
        <time>2021-04-22T13:23:57Z</time>
      </trkpt>
      <trkpt lat="44.86899" lon="5.6637">
        <ele>623.5</ele>
        <time>2021-04-22T13:23:58Z</time>
      </trkpt>
      <trkpt lat="44.869" lon="5.66368">
        <ele>623.6</ele>
        <time>2021-04-22T13:23:59Z</time>
      </trkpt>
      <trkpt lat="44.86902" lon="5.66367">
        <ele>623.7</ele>
        <time>2021-04-22T13:24:01Z</time>
      </trkpt>
      <trkpt lat="44.86905" lon="5.66363">
        <ele>623.8</ele>
        <time>2021-04-22T13:24:03Z</time>
      </trkpt>
      <trkpt lat="44.86906" lon="5.6636">
        <ele>624</ele>
        <time>2021-04-22T13:24:04Z</time>
      </trkpt>
      <trkpt lat="44.8691" lon="5.66357">
        <ele>624.2</ele>
        <time>2021-04-22T13:24:06Z</time>
      </trkpt>
      <trkpt lat="44.86911" lon="5.66355">
        <ele>624.3</ele>
        <time>2021-04-22T13:24:07Z</time>
      </trkpt>
      <trkpt lat="44.86914" lon="5.66348">
        <ele>624.5</ele>
        <time>2021-04-22T13:24:09Z</time>
      </trkpt>
      <trkpt lat="44.86917" lon="5.66346">
        <ele>624.8</ele>
        <time>2021-04-22T13:24:11Z</time>
      </trkpt>
      <trkpt lat="44.8692" lon="5.66343">
        <ele>625</ele>
        <time>2021-04-22T13:24:13Z</time>
      </trkpt>
      <trkpt lat="44.86922" lon="5.6634">
        <ele>625.1</ele>
        <time>2021-04-22T13:24:14Z</time>
      </trkpt>
      <trkpt lat="44.86925" lon="5.66334">
        <ele>625.4</ele>
        <time>2021-04-22T13:24:16Z</time>
      </trkpt>
      <trkpt lat="44.86928" lon="5.6633">
        <ele>625.7</ele>
        <time>2021-04-22T13:24:18Z</time>
      </trkpt>
      <trkpt lat="44.8693" lon="5.66326">
        <ele>626</ele>
        <time>2021-04-22T13:24:20Z</time>
      </trkpt>
      <trkpt lat="44.86933" lon="5.66323">
        <ele>626.2</ele>
        <time>2021-04-22T13:24:21Z</time>
      </trkpt>
      <trkpt lat="44.86933" lon="5.66322">
        <ele>626.3</ele>
        <time>2021-04-22T13:24:22Z</time>
      </trkpt>
      <trkpt lat="44.86935" lon="5.66318">
        <ele>626.5</ele>
        <time>2021-04-22T13:24:23Z</time>
      </trkpt>
      <trkpt lat="44.86936" lon="5.66316">
        <ele>626.6</ele>
        <time>2021-04-22T13:24:24Z</time>
      </trkpt>
      <trkpt lat="44.86938" lon="5.66313">
        <ele>626.8</ele>
        <time>2021-04-22T13:24:25Z</time>
      </trkpt>
      <trkpt lat="44.86939" lon="5.66308">
        <ele>627.1</ele>
        <time>2021-04-22T13:24:26Z</time>
      </trkpt>
      <trkpt lat="44.86942" lon="5.66304">
        <ele>627.4</ele>
        <time>2021-04-22T13:24:28Z</time>
      </trkpt>
      <trkpt lat="44.86942" lon="5.66302">
        <ele>627.5</ele>
        <time>2021-04-22T13:24:29Z</time>
      </trkpt>
      <trkpt lat="44.86943" lon="5.66297">
        <ele>627.8</ele>
        <time>2021-04-22T13:24:30Z</time>
      </trkpt>
      <trkpt lat="44.86943" lon="5.66295">
        <ele>628</ele>
        <time>2021-04-22T13:24:31Z</time>
      </trkpt>
      <trkpt lat="44.86945" lon="5.6629">
        <ele>628.3</ele>
        <time>2021-04-22T13:24:32Z</time>
      </trkpt>
      <trkpt lat="44.86945" lon="5.66285">
        <ele>628.6</ele>
        <time>2021-04-22T13:24:34Z</time>
      </trkpt>
      <trkpt lat="44.86946" lon="5.66283">
        <ele>628.7</ele>
        <time>2021-04-22T13:24:35Z</time>
      </trkpt>
      <trkpt lat="44.86947" lon="5.66278">
        <ele>629.1</ele>
        <time>2021-04-22T13:24:36Z</time>
      </trkpt>
      <trkpt lat="44.86948" lon="5.66274">
        <ele>629.4</ele>
        <time>2021-04-22T13:24:37Z</time>
      </trkpt>
      <trkpt lat="44.86948" lon="5.66272">
        <ele>629.4</ele>
        <time>2021-04-22T13:24:38Z</time>
      </trkpt>
      <trkpt lat="44.86948" lon="5.66268">
        <ele>629.7</ele>
        <time>2021-04-22T13:24:40Z</time>
      </trkpt>
      <trkpt lat="44.86948" lon="5.66265">
        <ele>629.9</ele>
        <time>2021-04-22T13:24:41Z</time>
      </trkpt>
      <trkpt lat="44.86949" lon="5.66259">
        <ele>630.3</ele>
        <time>2021-04-22T13:24:43Z</time>
      </trkpt>
      <trkpt lat="44.8695" lon="5.66255">
        <ele>630.5</ele>
        <time>2021-04-22T13:24:44Z</time>
      </trkpt>
      <trkpt lat="44.86952" lon="5.66251">
        <ele>630.8</ele>
        <time>2021-04-22T13:24:46Z</time>
      </trkpt>
      <trkpt lat="44.86952" lon="5.66248">
        <ele>631</ele>
        <time>2021-04-22T13:24:47Z</time>
      </trkpt>
      <trkpt lat="44.86953" lon="5.66243">
        <ele>631.3</ele>
        <time>2021-04-22T13:24:49Z</time>
      </trkpt>
      <trkpt lat="44.86955" lon="5.66239">
        <ele>631.6</ele>
        <time>2021-04-22T13:24:51Z</time>
      </trkpt>
      <trkpt lat="44.86957" lon="5.66235">
        <ele>631.9</ele>
        <time>2021-04-22T13:24:52Z</time>
      </trkpt>
      <trkpt lat="44.86957" lon="5.66234">
        <ele>631.9</ele>
        <time>2021-04-22T13:24:53Z</time>
      </trkpt>
      <trkpt lat="44.86958" lon="5.66231">
        <ele>632.2</ele>
        <time>2021-04-22T13:24:54Z</time>
      </trkpt>
      <trkpt lat="44.86961" lon="5.66225">
        <ele>632.5</ele>
        <time>2021-04-22T13:24:56Z</time>
      </trkpt>
      <trkpt lat="44.86963" lon="5.66221">
        <ele>632.9</ele>
        <time>2021-04-22T13:24:58Z</time>
      </trkpt>
      <trkpt lat="44.86965" lon="5.66217">
        <ele>633.1</ele>
        <time>2021-04-22T13:24:59Z</time>
      </trkpt>
      <trkpt lat="44.86966" lon="5.66216">
        <ele>633.2</ele>
        <time>2021-04-22T13:25:00Z</time>
      </trkpt>
      <trkpt lat="44.86968" lon="5.66213">
        <ele>633.5</ele>
        <time>2021-04-22T13:25:01Z</time>
      </trkpt>
      <trkpt lat="44.86969" lon="5.66211">
        <ele>633.6</ele>
        <time>2021-04-22T13:25:02Z</time>
      </trkpt>
      <trkpt lat="44.86971" lon="5.66209">
        <ele>633.8</ele>
        <time>2021-04-22T13:25:03Z</time>
      </trkpt>
      <trkpt lat="44.86972" lon="5.66207">
        <ele>634</ele>
        <time>2021-04-22T13:25:04Z</time>
      </trkpt>
      <trkpt lat="44.86974" lon="5.66203">
        <ele>634.2</ele>
        <time>2021-04-22T13:25:06Z</time>
      </trkpt>
      <trkpt lat="44.86977" lon="5.66199">
        <ele>634.5</ele>
        <time>2021-04-22T13:25:08Z</time>
      </trkpt>
      <trkpt lat="44.86979" lon="5.66197">
        <ele>634.7</ele>
        <time>2021-04-22T13:25:09Z</time>
      </trkpt>
      <trkpt lat="44.86982" lon="5.66192">
        <ele>635.1</ele>
        <time>2021-04-22T13:25:11Z</time>
      </trkpt>
      <trkpt lat="44.86985" lon="5.6619">
        <ele>635.3</ele>
        <time>2021-04-22T13:25:12Z</time>
      </trkpt>
      <trkpt lat="44.86988" lon="5.66187">
        <ele>635.6</ele>
        <time>2021-04-22T13:25:14Z</time>
      </trkpt>
      <trkpt lat="44.86989" lon="5.66186">
        <ele>635.8</ele>
        <time>2021-04-22T13:25:15Z</time>
      </trkpt>
      <trkpt lat="44.86992" lon="5.66184">
        <ele>636</ele>
        <time>2021-04-22T13:25:17Z</time>
      </trkpt>
      <trkpt lat="44.86996" lon="5.66182">
        <ele>636.4</ele>
        <time>2021-04-22T13:25:19Z</time>
      </trkpt>
      <trkpt lat="44.86999" lon="5.66179">
        <ele>636.8</ele>
        <time>2021-04-22T13:25:21Z</time>
      </trkpt>
      <trkpt lat="44.87002" lon="5.66178">
        <ele>637</ele>
        <time>2021-04-22T13:25:22Z</time>
      </trkpt>
      <trkpt lat="44.87006" lon="5.66176">
        <ele>637.4</ele>
        <time>2021-04-22T13:25:24Z</time>
      </trkpt>
      <trkpt lat="44.87007" lon="5.66176">
        <ele>637.5</ele>
        <time>2021-04-22T13:25:25Z</time>
      </trkpt>
      <trkpt lat="44.8701" lon="5.66174">
        <ele>637.9</ele>
        <time>2021-04-22T13:25:27Z</time>
      </trkpt>
      <trkpt lat="44.87011" lon="5.66174">
        <ele>638</ele>
        <time>2021-04-22T13:25:28Z</time>
      </trkpt>
      <trkpt lat="44.87015" lon="5.66173">
        <ele>638.5</ele>
        <time>2021-04-22T13:25:30Z</time>
      </trkpt>
      <trkpt lat="44.87018" lon="5.6617">
        <ele>638.8</ele>
        <time>2021-04-22T13:25:32Z</time>
      </trkpt>
      <trkpt lat="44.87022" lon="5.66166">
        <ele>639.3</ele>
        <time>2021-04-22T13:25:34Z</time>
      </trkpt>
      <trkpt lat="44.87023" lon="5.66163">
        <ele>639.5</ele>
        <time>2021-04-22T13:25:35Z</time>
      </trkpt>
      <trkpt lat="44.87024" lon="5.66158">
        <ele>639.9</ele>
        <time>2021-04-22T13:25:37Z</time>
      </trkpt>
      <trkpt lat="44.87024" lon="5.66153">
        <ele>640.3</ele>
        <time>2021-04-22T13:25:38Z</time>
      </trkpt>
      <trkpt lat="44.87024" lon="5.66149">
        <ele>640.4</ele>
        <time>2021-04-22T13:25:39Z</time>
      </trkpt>
      <trkpt lat="44.87023" lon="5.66146">
        <ele>640.6</ele>
        <time>2021-04-22T13:25:41Z</time>
      </trkpt>
      <trkpt lat="44.87023" lon="5.66141">
        <ele>640.7</ele>
        <time>2021-04-22T13:25:42Z</time>
      </trkpt>
      <trkpt lat="44.87021" lon="5.66138">
        <ele>640.8</ele>
        <time>2021-04-22T13:25:43Z</time>
      </trkpt>
      <trkpt lat="44.87018" lon="5.66134">
        <ele>641</ele>
        <time>2021-04-22T13:25:45Z</time>
      </trkpt>
      <trkpt lat="44.87015" lon="5.6613">
        <ele>641</ele>
        <time>2021-04-22T13:25:47Z</time>
      </trkpt>
      <trkpt lat="44.87013" lon="5.66127">
        <ele>641.1</ele>
        <time>2021-04-22T13:25:48Z</time>
      </trkpt>
      <trkpt lat="44.87011" lon="5.66125">
        <ele>641.1</ele>
        <time>2021-04-22T13:25:49Z</time>
      </trkpt>
      <trkpt lat="44.87009" lon="5.66123">
        <ele>641.1</ele>
        <time>2021-04-22T13:25:51Z</time>
      </trkpt>
      <trkpt lat="44.87005" lon="5.6612">
        <ele>641.1</ele>
        <time>2021-04-22T13:25:52Z</time>
      </trkpt>
      <trkpt lat="44.87002" lon="5.66117">
        <ele>641.2</ele>
        <time>2021-04-22T13:25:54Z</time>
      </trkpt>
      <trkpt lat="44.86999" lon="5.66113">
        <ele>641.2</ele>
        <time>2021-04-22T13:25:56Z</time>
      </trkpt>
      <trkpt lat="44.86996" lon="5.66111">
        <ele>641.2</ele>
        <time>2021-04-22T13:25:57Z</time>
      </trkpt>
      <trkpt lat="44.86995" lon="5.66111">
        <ele>641.2</ele>
        <time>2021-04-22T13:25:58Z</time>
      </trkpt>
      <trkpt lat="44.86992" lon="5.66108">
        <ele>641.3</ele>
        <time>2021-04-22T13:26:00Z</time>
      </trkpt>
      <trkpt lat="44.8699" lon="5.66105">
        <ele>641.4</ele>
        <time>2021-04-22T13:26:01Z</time>
      </trkpt>
      <trkpt lat="44.86989" lon="5.66105">
        <ele>641.4</ele>
        <time>2021-04-22T13:26:02Z</time>
      </trkpt>
      <trkpt lat="44.86986" lon="5.66102">
        <ele>641.5</ele>
        <time>2021-04-22T13:26:03Z</time>
      </trkpt>
      <trkpt lat="44.86985" lon="5.661">
        <ele>641.6</ele>
        <time>2021-04-22T13:26:04Z</time>
      </trkpt>
      <trkpt lat="44.86981" lon="5.66097">
        <ele>641.8</ele>
        <time>2021-04-22T13:26:06Z</time>
      </trkpt>
      <trkpt lat="44.86979" lon="5.66095">
        <ele>641.9</ele>
        <time>2021-04-22T13:26:07Z</time>
      </trkpt>
      <trkpt lat="44.86976" lon="5.66092">
        <ele>642.1</ele>
        <time>2021-04-22T13:26:09Z</time>
      </trkpt>
      <trkpt lat="44.86973" lon="5.6609">
        <ele>642.3</ele>
        <time>2021-04-22T13:26:10Z</time>
      </trkpt>
      <trkpt lat="44.86971" lon="5.66089">
        <ele>642.4</ele>
        <time>2021-04-22T13:26:11Z</time>
      </trkpt>
      <trkpt lat="44.86968" lon="5.66087">
        <ele>642.6</ele>
        <time>2021-04-22T13:26:12Z</time>
      </trkpt>
      <trkpt lat="44.86964" lon="5.66083">
        <ele>642.9</ele>
        <time>2021-04-22T13:26:14Z</time>
      </trkpt>
      <trkpt lat="44.8696" lon="5.66079">
        <ele>643.3</ele>
        <time>2021-04-22T13:26:16Z</time>
      </trkpt>
      <trkpt lat="44.86957" lon="5.66076">
        <ele>643.6</ele>
        <time>2021-04-22T13:26:18Z</time>
      </trkpt>
      <trkpt lat="44.86953" lon="5.66073">
        <ele>643.9</ele>
        <time>2021-04-22T13:26:20Z</time>
      </trkpt>
      <trkpt lat="44.86949" lon="5.6607">
        <ele>644.3</ele>
        <time>2021-04-22T13:26:22Z</time>
      </trkpt>
      <trkpt lat="44.86947" lon="5.66069">
        <ele>644.5</ele>
        <time>2021-04-22T13:26:23Z</time>
      </trkpt>
      <trkpt lat="44.86946" lon="5.66068">
        <ele>644.6</ele>
        <time>2021-04-22T13:26:24Z</time>
      </trkpt>
      <trkpt lat="44.86943" lon="5.66065">
        <ele>644.8</ele>
        <time>2021-04-22T13:26:25Z</time>
      </trkpt>
      <trkpt lat="44.86939" lon="5.66062">
        <ele>645.2</ele>
        <time>2021-04-22T13:26:27Z</time>
      </trkpt>
      <trkpt lat="44.86936" lon="5.66061">
        <ele>645.5</ele>
        <time>2021-04-22T13:26:28Z</time>
      </trkpt>
      <trkpt lat="44.86935" lon="5.6606">
        <ele>645.6</ele>
        <time>2021-04-22T13:26:29Z</time>
      </trkpt>
      <trkpt lat="44.86932" lon="5.66059">
        <ele>645.9</ele>
        <time>2021-04-22T13:26:30Z</time>
      </trkpt>
      <trkpt lat="44.86931" lon="5.66058">
        <ele>646</ele>
        <time>2021-04-22T13:26:31Z</time>
      </trkpt>
      <trkpt lat="44.86927" lon="5.66056">
        <ele>646.4</ele>
        <time>2021-04-22T13:26:33Z</time>
      </trkpt>
      <trkpt lat="44.86924" lon="5.66053">
        <ele>646.7</ele>
        <time>2021-04-22T13:26:34Z</time>
      </trkpt>
      <trkpt lat="44.86923" lon="5.66052">
        <ele>646.8</ele>
        <time>2021-04-22T13:26:35Z</time>
      </trkpt>
      <trkpt lat="44.86919" lon="5.6605">
        <ele>647.2</ele>
        <time>2021-04-22T13:26:37Z</time>
      </trkpt>
      <trkpt lat="44.86918" lon="5.6605">
        <ele>647.3</ele>
        <time>2021-04-22T13:26:38Z</time>
      </trkpt>
      <trkpt lat="44.86914" lon="5.66048">
        <ele>647.6</ele>
        <time>2021-04-22T13:26:39Z</time>
      </trkpt>
      <trkpt lat="44.86912" lon="5.66047">
        <ele>647.8</ele>
        <time>2021-04-22T13:26:40Z</time>
      </trkpt>
      <trkpt lat="44.86909" lon="5.66045">
        <ele>648.1</ele>
        <time>2021-04-22T13:26:42Z</time>
      </trkpt>
      <trkpt lat="44.86906" lon="5.66045">
        <ele>648.3</ele>
        <time>2021-04-22T13:26:43Z</time>
      </trkpt>
      <trkpt lat="44.86903" lon="5.66044">
        <ele>648.6</ele>
        <time>2021-04-22T13:26:45Z</time>
      </trkpt>
      <trkpt lat="44.86901" lon="5.66043">
        <ele>648.9</ele>
        <time>2021-04-22T13:26:46Z</time>
      </trkpt>
      <trkpt lat="44.86897" lon="5.66043">
        <ele>649.3</ele>
        <time>2021-04-22T13:26:48Z</time>
      </trkpt>
      <trkpt lat="44.86893" lon="5.66042">
        <ele>649.6</ele>
        <time>2021-04-22T13:26:49Z</time>
      </trkpt>
      <trkpt lat="44.8689" lon="5.66041">
        <ele>650</ele>
        <time>2021-04-22T13:26:51Z</time>
      </trkpt>
      <trkpt lat="44.86888" lon="5.6604">
        <ele>650.1</ele>
        <time>2021-04-22T13:26:52Z</time>
      </trkpt>
      <trkpt lat="44.86885" lon="5.66037">
        <ele>650.5</ele>
        <time>2021-04-22T13:26:54Z</time>
      </trkpt>
      <trkpt lat="44.86882" lon="5.66036">
        <ele>650.8</ele>
        <time>2021-04-22T13:26:55Z</time>
      </trkpt>
      <trkpt lat="44.86879" lon="5.66034">
        <ele>651.2</ele>
        <time>2021-04-22T13:26:57Z</time>
      </trkpt>
      <trkpt lat="44.86877" lon="5.66032">
        <ele>651.5</ele>
        <time>2021-04-22T13:26:58Z</time>
      </trkpt>
      <trkpt lat="44.86874" lon="5.66029">
        <ele>651.9</ele>
        <time>2021-04-22T13:27:00Z</time>
      </trkpt>
      <trkpt lat="44.86871" lon="5.66024">
        <ele>652.4</ele>
        <time>2021-04-22T13:27:02Z</time>
      </trkpt>
      <trkpt lat="44.86869" lon="5.66021">
        <ele>652.7</ele>
        <time>2021-04-22T13:27:03Z</time>
      </trkpt>
      <trkpt lat="44.86868" lon="5.66016">
        <ele>653.1</ele>
        <time>2021-04-22T13:27:04Z</time>
      </trkpt>
      <trkpt lat="44.86866" lon="5.6601">
        <ele>653.6</ele>
        <time>2021-04-22T13:27:06Z</time>
      </trkpt>
      <trkpt lat="44.86866" lon="5.66008">
        <ele>653.9</ele>
        <time>2021-04-22T13:27:07Z</time>
      </trkpt>
      <trkpt lat="44.86866" lon="5.66006">
        <ele>653.9</ele>
        <time>2021-04-22T13:27:08Z</time>
      </trkpt>
      <trkpt lat="44.86868" lon="5.65999">
        <ele>654</ele>
        <time>2021-04-22T13:27:10Z</time>
      </trkpt>
      <trkpt lat="44.8687" lon="5.65994">
        <ele>654.1</ele>
        <time>2021-04-22T13:27:12Z</time>
      </trkpt>
      <trkpt lat="44.86871" lon="5.65991">
        <ele>654.2</ele>
        <time>2021-04-22T13:27:13Z</time>
      </trkpt>
      <trkpt lat="44.86873" lon="5.65987">
        <ele>654.2</ele>
        <time>2021-04-22T13:27:15Z</time>
      </trkpt>
      <trkpt lat="44.86876" lon="5.65983">
        <ele>654.3</ele>
        <time>2021-04-22T13:27:16Z</time>
      </trkpt>
      <trkpt lat="44.86877" lon="5.65981">
        <ele>654.3</ele>
        <time>2021-04-22T13:27:17Z</time>
      </trkpt>
      <trkpt lat="44.86879" lon="5.65977">
        <ele>654.4</ele>
        <time>2021-04-22T13:27:18Z</time>
      </trkpt>
      <trkpt lat="44.86881" lon="5.65972">
        <ele>654.5</ele>
        <time>2021-04-22T13:27:20Z</time>
      </trkpt>
      <trkpt lat="44.86882" lon="5.6597">
        <ele>654.5</ele>
        <time>2021-04-22T13:27:21Z</time>
      </trkpt>
      <trkpt lat="44.86883" lon="5.65968">
        <ele>654.6</ele>
        <time>2021-04-22T13:27:22Z</time>
      </trkpt>
      <trkpt lat="44.86886" lon="5.65964">
        <ele>654.6</ele>
        <time>2021-04-22T13:27:23Z</time>
      </trkpt>
      <trkpt lat="44.86887" lon="5.65962">
        <ele>654.7</ele>
        <time>2021-04-22T13:27:24Z</time>
      </trkpt>
      <trkpt lat="44.86889" lon="5.65959">
        <ele>654.7</ele>
        <time>2021-04-22T13:27:26Z</time>
      </trkpt>
      <trkpt lat="44.86889" lon="5.65958">
        <ele>654.7</ele>
        <time>2021-04-22T13:27:27Z</time>
      </trkpt>
      <trkpt lat="44.86891" lon="5.65953">
        <ele>654.9</ele>
        <time>2021-04-22T13:27:28Z</time>
      </trkpt>
      <trkpt lat="44.86892" lon="5.65952">
        <ele>654.9</ele>
        <time>2021-04-22T13:27:29Z</time>
      </trkpt>
      <trkpt lat="44.86894" lon="5.65949">
        <ele>655</ele>
        <time>2021-04-22T13:27:30Z</time>
      </trkpt>
      <trkpt lat="44.86897" lon="5.65946">
        <ele>655.1</ele>
        <time>2021-04-22T13:27:32Z</time>
      </trkpt>
      <trkpt lat="44.86897" lon="5.65945">
        <ele>655.2</ele>
        <time>2021-04-22T13:27:33Z</time>
      </trkpt>
      <trkpt lat="44.86899" lon="5.65942">
        <ele>655.3</ele>
        <time>2021-04-22T13:27:34Z</time>
      </trkpt>
      <trkpt lat="44.86901" lon="5.65939">
        <ele>655.4</ele>
        <time>2021-04-22T13:27:36Z</time>
      </trkpt>
      <trkpt lat="44.86903" lon="5.65936">
        <ele>655.6</ele>
        <time>2021-04-22T13:27:37Z</time>
      </trkpt>
      <trkpt lat="44.86904" lon="5.65934">
        <ele>655.7</ele>
        <time>2021-04-22T13:27:38Z</time>
      </trkpt>
      <trkpt lat="44.86906" lon="5.6593">
        <ele>655.9</ele>
        <time>2021-04-22T13:27:39Z</time>
      </trkpt>
      <trkpt lat="44.86907" lon="5.65928">
        <ele>656.1</ele>
        <time>2021-04-22T13:27:41Z</time>
      </trkpt>
      <trkpt lat="44.86908" lon="5.65926">
        <ele>656.2</ele>
        <time>2021-04-22T13:27:42Z</time>
      </trkpt>
      <trkpt lat="44.86909" lon="5.65924">
        <ele>656.3</ele>
        <time>2021-04-22T13:27:43Z</time>
      </trkpt>
      <trkpt lat="44.86911" lon="5.6592">
        <ele>656.6</ele>
        <time>2021-04-22T13:27:45Z</time>
      </trkpt>
      <trkpt lat="44.86913" lon="5.65917">
        <ele>656.8</ele>
        <time>2021-04-22T13:27:46Z</time>
      </trkpt>
      <trkpt lat="44.86916" lon="5.65915">
        <ele>657.1</ele>
        <time>2021-04-22T13:27:48Z</time>
      </trkpt>
      <trkpt lat="44.86919" lon="5.65911">
        <ele>657.4</ele>
        <time>2021-04-22T13:27:49Z</time>
      </trkpt>
      <trkpt lat="44.8692" lon="5.6591">
        <ele>657.5</ele>
        <time>2021-04-22T13:27:50Z</time>
      </trkpt>
      <trkpt lat="44.86923" lon="5.65906">
        <ele>657.9</ele>
        <time>2021-04-22T13:27:52Z</time>
      </trkpt>
      <trkpt lat="44.86926" lon="5.65903">
        <ele>658.2</ele>
        <time>2021-04-22T13:27:54Z</time>
      </trkpt>
      <trkpt lat="44.86929" lon="5.65901">
        <ele>658.4</ele>
        <time>2021-04-22T13:27:55Z</time>
      </trkpt>
      <trkpt lat="44.86932" lon="5.65897">
        <ele>658.8</ele>
        <time>2021-04-22T13:27:57Z</time>
      </trkpt>
      <trkpt lat="44.86935" lon="5.65894">
        <ele>659.1</ele>
        <time>2021-04-22T13:27:59Z</time>
      </trkpt>
      <trkpt lat="44.86937" lon="5.65891">
        <ele>659.3</ele>
        <time>2021-04-22T13:28:00Z</time>
      </trkpt>
      <trkpt lat="44.86938" lon="5.6589">
        <ele>659.4</ele>
        <time>2021-04-22T13:28:01Z</time>
      </trkpt>
      <trkpt lat="44.86941" lon="5.65886">
        <ele>659.8</ele>
        <time>2021-04-22T13:28:03Z</time>
      </trkpt>
      <trkpt lat="44.86945" lon="5.65882">
        <ele>660.2</ele>
        <time>2021-04-22T13:28:05Z</time>
      </trkpt>
      <trkpt lat="44.86948" lon="5.65878">
        <ele>660.5</ele>
        <time>2021-04-22T13:28:06Z</time>
      </trkpt>
      <trkpt lat="44.86949" lon="5.65877">
        <ele>660.7</ele>
        <time>2021-04-22T13:28:07Z</time>
      </trkpt>
      <trkpt lat="44.86951" lon="5.65874">
        <ele>661</ele>
        <time>2021-04-22T13:28:09Z</time>
      </trkpt>
      <trkpt lat="44.86954" lon="5.65872">
        <ele>661.3</ele>
        <time>2021-04-22T13:28:10Z</time>
      </trkpt>
      <trkpt lat="44.86957" lon="5.65869">
        <ele>661.6</ele>
        <time>2021-04-22T13:28:11Z</time>
      </trkpt>
      <trkpt lat="44.86958" lon="5.65868">
        <ele>661.8</ele>
        <time>2021-04-22T13:28:12Z</time>
      </trkpt>
      <trkpt lat="44.86961" lon="5.65866">
        <ele>662</ele>
        <time>2021-04-22T13:28:14Z</time>
      </trkpt>
      <trkpt lat="44.86962" lon="5.65865">
        <ele>662.1</ele>
        <time>2021-04-22T13:28:15Z</time>
      </trkpt>
      <trkpt lat="44.86964" lon="5.65862">
        <ele>662.4</ele>
        <time>2021-04-22T13:28:16Z</time>
      </trkpt>
      <trkpt lat="44.86967" lon="5.65859">
        <ele>662.7</ele>
        <time>2021-04-22T13:28:18Z</time>
      </trkpt>
      <trkpt lat="44.86969" lon="5.65856">
        <ele>663.1</ele>
        <time>2021-04-22T13:28:19Z</time>
      </trkpt>
      <trkpt lat="44.86971" lon="5.65854">
        <ele>663.3</ele>
        <time>2021-04-22T13:28:20Z</time>
      </trkpt>
      <trkpt lat="44.86974" lon="5.6585">
        <ele>663.6</ele>
        <time>2021-04-22T13:28:22Z</time>
      </trkpt>
      <trkpt lat="44.86976" lon="5.65847">
        <ele>664</ele>
        <time>2021-04-22T13:28:24Z</time>
      </trkpt>
      <trkpt lat="44.8698" lon="5.65843">
        <ele>664.4</ele>
        <time>2021-04-22T13:28:26Z</time>
      </trkpt>
      <trkpt lat="44.86983" lon="5.6584">
        <ele>664.7</ele>
        <time>2021-04-22T13:28:27Z</time>
      </trkpt>
      <trkpt lat="44.86986" lon="5.65836">
        <ele>665.2</ele>
        <time>2021-04-22T13:28:29Z</time>
      </trkpt>
      <trkpt lat="44.86987" lon="5.65835">
        <ele>665.3</ele>
        <time>2021-04-22T13:28:30Z</time>
      </trkpt>
      <trkpt lat="44.86988" lon="5.65834">
        <ele>665.5</ele>
        <time>2021-04-22T13:28:31Z</time>
      </trkpt>
      <trkpt lat="44.86992" lon="5.6583">
        <ele>665.9</ele>
        <time>2021-04-22T13:28:32Z</time>
      </trkpt>
      <trkpt lat="44.86993" lon="5.65829">
        <ele>666.1</ele>
        <time>2021-04-22T13:28:34Z</time>
      </trkpt>
      <trkpt lat="44.86997" lon="5.65825">
        <ele>666.6</ele>
        <time>2021-04-22T13:28:36Z</time>
      </trkpt>
      <trkpt lat="44.87" lon="5.65821">
        <ele>667</ele>
        <time>2021-04-22T13:28:38Z</time>
      </trkpt>
      <trkpt lat="44.87002" lon="5.65819">
        <ele>667.4</ele>
        <time>2021-04-22T13:28:39Z</time>
      </trkpt>
      <trkpt lat="44.87005" lon="5.65816">
        <ele>667.8</ele>
        <time>2021-04-22T13:28:40Z</time>
      </trkpt>
      <trkpt lat="44.87008" lon="5.65814">
        <ele>668.1</ele>
        <time>2021-04-22T13:28:42Z</time>
      </trkpt>
      <trkpt lat="44.87009" lon="5.65813">
        <ele>668.2</ele>
        <time>2021-04-22T13:28:43Z</time>
      </trkpt>
      <trkpt lat="44.87012" lon="5.6581">
        <ele>668.6</ele>
        <time>2021-04-22T13:28:44Z</time>
      </trkpt>
      <trkpt lat="44.87013" lon="5.6581">
        <ele>668.8</ele>
        <time>2021-04-22T13:28:45Z</time>
      </trkpt>
      <trkpt lat="44.87017" lon="5.65808">
        <ele>669.2</ele>
        <time>2021-04-22T13:28:47Z</time>
      </trkpt>
      <trkpt lat="44.87021" lon="5.65807">
        <ele>669.6</ele>
        <time>2021-04-22T13:28:48Z</time>
      </trkpt>
      <trkpt lat="44.87024" lon="5.65806">
        <ele>670</ele>
        <time>2021-04-22T13:28:50Z</time>
      </trkpt>
      <trkpt lat="44.87025" lon="5.65805">
        <ele>670.1</ele>
        <time>2021-04-22T13:28:51Z</time>
      </trkpt>
      <trkpt lat="44.8703" lon="5.65804">
        <ele>670.7</ele>
        <time>2021-04-22T13:28:53Z</time>
      </trkpt>
      <trkpt lat="44.87033" lon="5.65803">
        <ele>671</ele>
        <time>2021-04-22T13:28:55Z</time>
      </trkpt>
      <trkpt lat="44.87037" lon="5.65801">
        <ele>671.4</ele>
        <time>2021-04-22T13:28:57Z</time>
      </trkpt>
      <trkpt lat="44.8704" lon="5.65799">
        <ele>671.8</ele>
        <time>2021-04-22T13:28:59Z</time>
      </trkpt>
      <trkpt lat="44.87042" lon="5.65798">
        <ele>672.1</ele>
        <time>2021-04-22T13:29:00Z</time>
      </trkpt>
      <trkpt lat="44.87046" lon="5.65796">
        <ele>672.5</ele>
        <time>2021-04-22T13:29:02Z</time>
      </trkpt>
      <trkpt lat="44.87048" lon="5.65792">
        <ele>672.8</ele>
        <time>2021-04-22T13:29:04Z</time>
      </trkpt>
      <trkpt lat="44.8705" lon="5.65788">
        <ele>673.1</ele>
        <time>2021-04-22T13:29:05Z</time>
      </trkpt>
      <trkpt lat="44.87052" lon="5.65782">
        <ele>673.6</ele>
        <time>2021-04-22T13:29:07Z</time>
      </trkpt>
      <trkpt lat="44.87052" lon="5.65778">
        <ele>673.8</ele>
        <time>2021-04-22T13:29:08Z</time>
      </trkpt>
      <trkpt lat="44.87052" lon="5.65773">
        <ele>674.1</ele>
        <time>2021-04-22T13:29:10Z</time>
      </trkpt>
      <trkpt lat="44.87052" lon="5.65769">
        <ele>674.3</ele>
        <time>2021-04-22T13:29:11Z</time>
      </trkpt>
      <trkpt lat="44.87052" lon="5.65767">
        <ele>674.4</ele>
        <time>2021-04-22T13:29:12Z</time>
      </trkpt>
      <trkpt lat="44.87051" lon="5.65764">
        <ele>674.5</ele>
        <time>2021-04-22T13:29:13Z</time>
      </trkpt>
      <trkpt lat="44.87051" lon="5.65759">
        <ele>674.8</ele>
        <time>2021-04-22T13:29:15Z</time>
      </trkpt>
      <trkpt lat="44.87051" lon="5.65754">
        <ele>675</ele>
        <time>2021-04-22T13:29:16Z</time>
      </trkpt>
      <trkpt lat="44.87051" lon="5.65751">
        <ele>675.2</ele>
        <time>2021-04-22T13:29:17Z</time>
      </trkpt>
      <trkpt lat="44.87051" lon="5.65745">
        <ele>675.5</ele>
        <time>2021-04-22T13:29:19Z</time>
      </trkpt>
      <trkpt lat="44.87051" lon="5.65742">
        <ele>675.6</ele>
        <time>2021-04-22T13:29:20Z</time>
      </trkpt>
      <trkpt lat="44.87051" lon="5.6574">
        <ele>675.7</ele>
        <time>2021-04-22T13:29:21Z</time>
      </trkpt>
      <trkpt lat="44.87052" lon="5.65737">
        <ele>675.9</ele>
        <time>2021-04-22T13:29:23Z</time>
      </trkpt>
      <trkpt lat="44.87052" lon="5.65731">
        <ele>676.1</ele>
        <time>2021-04-22T13:29:25Z</time>
      </trkpt>
      <trkpt lat="44.87054" lon="5.65726">
        <ele>676.3</ele>
        <time>2021-04-22T13:29:27Z</time>
      </trkpt>
      <trkpt lat="44.87056" lon="5.65722">
        <ele>676.5</ele>
        <time>2021-04-22T13:29:29Z</time>
      </trkpt>
      <trkpt lat="44.87058" lon="5.65716">
        <ele>676.8</ele>
        <time>2021-04-22T13:29:31Z</time>
      </trkpt>
      <trkpt lat="44.87061" lon="5.65712">
        <ele>677</ele>
        <time>2021-04-22T13:29:33Z</time>
      </trkpt>
      <trkpt lat="44.87065" lon="5.65709">
        <ele>677.3</ele>
        <time>2021-04-22T13:29:34Z</time>
      </trkpt>
      <trkpt lat="44.87066" lon="5.65708">
        <ele>677.3</ele>
        <time>2021-04-22T13:29:35Z</time>
      </trkpt>
      <trkpt lat="44.87069" lon="5.65706">
        <ele>677.5</ele>
        <time>2021-04-22T13:29:37Z</time>
      </trkpt>
      <trkpt lat="44.87071" lon="5.65704">
        <ele>677.7</ele>
        <time>2021-04-22T13:29:39Z</time>
      </trkpt>
      <trkpt lat="44.87073" lon="5.65701">
        <ele>677.8</ele>
        <time>2021-04-22T13:29:40Z</time>
      </trkpt>
      <trkpt lat="44.87077" lon="5.65699">
        <ele>678</ele>
        <time>2021-04-22T13:29:42Z</time>
      </trkpt>
      <trkpt lat="44.8708" lon="5.65697">
        <ele>678.2</ele>
        <time>2021-04-22T13:29:43Z</time>
      </trkpt>
      <trkpt lat="44.87082" lon="5.65696">
        <ele>678.3</ele>
        <time>2021-04-22T13:29:44Z</time>
      </trkpt>
      <trkpt lat="44.87085" lon="5.65695">
        <ele>678.5</ele>
        <time>2021-04-22T13:29:46Z</time>
      </trkpt>
      <trkpt lat="44.87087" lon="5.65693">
        <ele>678.6</ele>
        <time>2021-04-22T13:29:47Z</time>
      </trkpt>
      <trkpt lat="44.87091" lon="5.65689">
        <ele>678.9</ele>
        <time>2021-04-22T13:29:49Z</time>
      </trkpt>
      <trkpt lat="44.87094" lon="5.65685">
        <ele>679.2</ele>
        <time>2021-04-22T13:29:51Z</time>
      </trkpt>
      <trkpt lat="44.87097" lon="5.65682">
        <ele>679.5</ele>
        <time>2021-04-22T13:29:52Z</time>
      </trkpt>
      <trkpt lat="44.87098" lon="5.6568">
        <ele>679.6</ele>
        <time>2021-04-22T13:29:53Z</time>
      </trkpt>
      <trkpt lat="44.87101" lon="5.65675">
        <ele>680</ele>
        <time>2021-04-22T13:29:55Z</time>
      </trkpt>
      <trkpt lat="44.87102" lon="5.65673">
        <ele>680.1</ele>
        <time>2021-04-22T13:29:56Z</time>
      </trkpt>
      <trkpt lat="44.87105" lon="5.65668">
        <ele>680.4</ele>
        <time>2021-04-22T13:29:58Z</time>
      </trkpt>
      <trkpt lat="44.87106" lon="5.65665">
        <ele>680.7</ele>
        <time>2021-04-22T13:29:59Z</time>
      </trkpt>
      <trkpt lat="44.87109" lon="5.6566">
        <ele>681</ele>
        <time>2021-04-22T13:30:01Z</time>
      </trkpt>
      <trkpt lat="44.8711" lon="5.65655">
        <ele>681.3</ele>
        <time>2021-04-22T13:30:02Z</time>
      </trkpt>
      <trkpt lat="44.87111" lon="5.65653">
        <ele>681.5</ele>
        <time>2021-04-22T13:30:03Z</time>
      </trkpt>
      <trkpt lat="44.87113" lon="5.65648">
        <ele>681.9</ele>
        <time>2021-04-22T13:30:05Z</time>
      </trkpt>
      <trkpt lat="44.87115" lon="5.65644">
        <ele>682.2</ele>
        <time>2021-04-22T13:30:06Z</time>
      </trkpt>
      <trkpt lat="44.87117" lon="5.65639">
        <ele>682.6</ele>
        <time>2021-04-22T13:30:08Z</time>
      </trkpt>
      <trkpt lat="44.87118" lon="5.65636">
        <ele>682.9</ele>
        <time>2021-04-22T13:30:09Z</time>
      </trkpt>
      <trkpt lat="44.8712" lon="5.65631">
        <ele>683.3</ele>
        <time>2021-04-22T13:30:11Z</time>
      </trkpt>
      <trkpt lat="44.87123" lon="5.65627">
        <ele>683.7</ele>
        <time>2021-04-22T13:30:13Z</time>
      </trkpt>
      <trkpt lat="44.87125" lon="5.65623">
        <ele>684.1</ele>
        <time>2021-04-22T13:30:14Z</time>
      </trkpt>
      <trkpt lat="44.87127" lon="5.65621">
        <ele>684.3</ele>
        <time>2021-04-22T13:30:16Z</time>
      </trkpt>
      <trkpt lat="44.87129" lon="5.65617">
        <ele>684.7</ele>
        <time>2021-04-22T13:30:18Z</time>
      </trkpt>
      <trkpt lat="44.87131" lon="5.65612">
        <ele>685.1</ele>
        <time>2021-04-22T13:30:19Z</time>
      </trkpt>
      <trkpt lat="44.87132" lon="5.65611">
        <ele>685.2</ele>
        <time>2021-04-22T13:30:20Z</time>
      </trkpt>
      <trkpt lat="44.87135" lon="5.65606">
        <ele>685.7</ele>
        <time>2021-04-22T13:30:22Z</time>
      </trkpt>
      <trkpt lat="44.87135" lon="5.65604">
        <ele>685.9</ele>
        <time>2021-04-22T13:30:23Z</time>
      </trkpt>
      <trkpt lat="44.87136" lon="5.65602">
        <ele>686</ele>
        <time>2021-04-22T13:30:24Z</time>
      </trkpt>
      <trkpt lat="44.87139" lon="5.65597">
        <ele>686.6</ele>
        <time>2021-04-22T13:30:26Z</time>
      </trkpt>
      <trkpt lat="44.87141" lon="5.65595">
        <ele>686.8</ele>
        <time>2021-04-22T13:30:27Z</time>
      </trkpt>
      <trkpt lat="44.87142" lon="5.65593">
        <ele>687</ele>
        <time>2021-04-22T13:30:28Z</time>
      </trkpt>
      <trkpt lat="44.87145" lon="5.65589">
        <ele>687.4</ele>
        <time>2021-04-22T13:30:30Z</time>
      </trkpt>
      <trkpt lat="44.87149" lon="5.65586">
        <ele>687.8</ele>
        <time>2021-04-22T13:30:32Z</time>
      </trkpt>
      <trkpt lat="44.87152" lon="5.65583">
        <ele>688.1</ele>
        <time>2021-04-22T13:30:33Z</time>
      </trkpt>
      <trkpt lat="44.87155" lon="5.65582">
        <ele>688.3</ele>
        <time>2021-04-22T13:30:35Z</time>
      </trkpt>
      <trkpt lat="44.87156" lon="5.65581">
        <ele>688.5</ele>
        <time>2021-04-22T13:30:36Z</time>
      </trkpt>
      <trkpt lat="44.8716" lon="5.6558">
        <ele>688.8</ele>
        <time>2021-04-22T13:30:38Z</time>
      </trkpt>
      <trkpt lat="44.87163" lon="5.65579">
        <ele>688.9</ele>
        <time>2021-04-22T13:30:39Z</time>
      </trkpt>
      <trkpt lat="44.87166" lon="5.65579">
        <ele>689.1</ele>
        <time>2021-04-22T13:30:41Z</time>
      </trkpt>
      <trkpt lat="44.87168" lon="5.65579">
        <ele>689.3</ele>
        <time>2021-04-22T13:30:42Z</time>
      </trkpt>
      <trkpt lat="44.87172" lon="5.65579">
        <ele>689.5</ele>
        <time>2021-04-22T13:30:44Z</time>
      </trkpt>
      <trkpt lat="44.87176" lon="5.65579">
        <ele>689.8</ele>
        <time>2021-04-22T13:30:45Z</time>
      </trkpt>
      <trkpt lat="44.87177" lon="5.65579">
        <ele>689.8</ele>
        <time>2021-04-22T13:30:46Z</time>
      </trkpt>
      <trkpt lat="44.87181" lon="5.65578">
        <ele>690.1</ele>
        <time>2021-04-22T13:30:48Z</time>
      </trkpt>
      <trkpt lat="44.87184" lon="5.65578">
        <ele>690.3</ele>
        <time>2021-04-22T13:30:49Z</time>
      </trkpt>
      <trkpt lat="44.87188" lon="5.65578">
        <ele>690.5</ele>
        <time>2021-04-22T13:30:51Z</time>
      </trkpt>
      <trkpt lat="44.8719" lon="5.65578">
        <ele>690.7</ele>
        <time>2021-04-22T13:30:52Z</time>
      </trkpt>
      <trkpt lat="44.87195" lon="5.65577">
        <ele>691</ele>
        <time>2021-04-22T13:30:54Z</time>
      </trkpt>
      <trkpt lat="44.87197" lon="5.65576">
        <ele>691.2</ele>
        <time>2021-04-22T13:30:55Z</time>
      </trkpt>
      <trkpt lat="44.87201" lon="5.65574">
        <ele>691.6</ele>
        <time>2021-04-22T13:30:57Z</time>
      </trkpt>
      <trkpt lat="44.87204" lon="5.65572">
        <ele>691.9</ele>
        <time>2021-04-22T13:30:58Z</time>
      </trkpt>
      <trkpt lat="44.87206" lon="5.65571">
        <ele>692</ele>
        <time>2021-04-22T13:30:59Z</time>
      </trkpt>
      <trkpt lat="44.87209" lon="5.65568">
        <ele>692.3</ele>
        <time>2021-04-22T13:31:01Z</time>
      </trkpt>
      <trkpt lat="44.87209" lon="5.65567">
        <ele>692.4</ele>
        <time>2021-04-22T13:31:02Z</time>
      </trkpt>
      <trkpt lat="44.87211" lon="5.65565">
        <ele>692.6</ele>
        <time>2021-04-22T13:31:03Z</time>
      </trkpt>
      <trkpt lat="44.87214" lon="5.65562">
        <ele>692.9</ele>
        <time>2021-04-22T13:31:04Z</time>
      </trkpt>
      <trkpt lat="44.87217" lon="5.65559">
        <ele>693.2</ele>
        <time>2021-04-22T13:31:06Z</time>
      </trkpt>
      <trkpt lat="44.87218" lon="5.65558">
        <ele>693.3</ele>
        <time>2021-04-22T13:31:07Z</time>
      </trkpt>
      <trkpt lat="44.87221" lon="5.65555">
        <ele>693.7</ele>
        <time>2021-04-22T13:31:08Z</time>
      </trkpt>
      <trkpt lat="44.87222" lon="5.65554">
        <ele>693.8</ele>
        <time>2021-04-22T13:31:09Z</time>
      </trkpt>
      <trkpt lat="44.87224" lon="5.65553">
        <ele>693.9</ele>
        <time>2021-04-22T13:31:10Z</time>
      </trkpt>
      <trkpt lat="44.87226" lon="5.65549">
        <ele>694.3</ele>
        <time>2021-04-22T13:31:12Z</time>
      </trkpt>
      <trkpt lat="44.87228" lon="5.65546">
        <ele>694.6</ele>
        <time>2021-04-22T13:31:13Z</time>
      </trkpt>
      <trkpt lat="44.87231" lon="5.65544">
        <ele>694.9</ele>
        <time>2021-04-22T13:31:15Z</time>
      </trkpt>
      <trkpt lat="44.87234" lon="5.65542">
        <ele>695.2</ele>
        <time>2021-04-22T13:31:16Z</time>
      </trkpt>
      <trkpt lat="44.87237" lon="5.6554">
        <ele>695.5</ele>
        <time>2021-04-22T13:31:18Z</time>
      </trkpt>
      <trkpt lat="44.87238" lon="5.65539">
        <ele>695.6</ele>
        <time>2021-04-22T13:31:19Z</time>
      </trkpt>
      <trkpt lat="44.87242" lon="5.65538">
        <ele>696</ele>
        <time>2021-04-22T13:31:20Z</time>
      </trkpt>
      <trkpt lat="44.87243" lon="5.65537">
        <ele>696.1</ele>
        <time>2021-04-22T13:31:21Z</time>
      </trkpt>
      <trkpt lat="44.87247" lon="5.65537">
        <ele>696.4</ele>
        <time>2021-04-22T13:31:23Z</time>
      </trkpt>
      <trkpt lat="44.8725" lon="5.65536">
        <ele>696.7</ele>
        <time>2021-04-22T13:31:25Z</time>
      </trkpt>
      <trkpt lat="44.87252" lon="5.65535">
        <ele>696.9</ele>
        <time>2021-04-22T13:31:26Z</time>
      </trkpt>
      <trkpt lat="44.87256" lon="5.65534">
        <ele>697.2</ele>
        <time>2021-04-22T13:31:28Z</time>
      </trkpt>
      <trkpt lat="44.87258" lon="5.65534">
        <ele>697.4</ele>
        <time>2021-04-22T13:31:29Z</time>
      </trkpt>
      <trkpt lat="44.87262" lon="5.65534">
        <ele>697.7</ele>
        <time>2021-04-22T13:31:31Z</time>
      </trkpt>
      <trkpt lat="44.87266" lon="5.65534">
        <ele>698</ele>
        <time>2021-04-22T13:31:33Z</time>
      </trkpt>
      <trkpt lat="44.87268" lon="5.65534">
        <ele>698.3</ele>
        <time>2021-04-22T13:31:34Z</time>
      </trkpt>
      <trkpt lat="44.87271" lon="5.65534">
        <ele>698.5</ele>
        <time>2021-04-22T13:31:36Z</time>
      </trkpt>
      <trkpt lat="44.87274" lon="5.65534">
        <ele>698.8</ele>
        <time>2021-04-22T13:31:37Z</time>
      </trkpt>
      <trkpt lat="44.87275" lon="5.65535">
        <ele>698.9</ele>
        <time>2021-04-22T13:31:38Z</time>
      </trkpt>
      <trkpt lat="44.8728" lon="5.65537">
        <ele>699.2</ele>
        <time>2021-04-22T13:31:40Z</time>
      </trkpt>
      <trkpt lat="44.87283" lon="5.65537">
        <ele>699.6</ele>
        <time>2021-04-22T13:31:42Z</time>
      </trkpt>
      <trkpt lat="44.87286" lon="5.65537">
        <ele>699.8</ele>
        <time>2021-04-22T13:31:43Z</time>
      </trkpt>
      <trkpt lat="44.87289" lon="5.65538">
        <ele>700.1</ele>
        <time>2021-04-22T13:31:44Z</time>
      </trkpt>
      <trkpt lat="44.87294" lon="5.65539">
        <ele>700.5</ele>
        <time>2021-04-22T13:31:46Z</time>
      </trkpt>
      <trkpt lat="44.87297" lon="5.6554">
        <ele>700.8</ele>
        <time>2021-04-22T13:31:47Z</time>
      </trkpt>
      <trkpt lat="44.87299" lon="5.6554">
        <ele>701</ele>
        <time>2021-04-22T13:31:49Z</time>
      </trkpt>
      <trkpt lat="44.87303" lon="5.6554">
        <ele>701.3</ele>
        <time>2021-04-22T13:31:51Z</time>
      </trkpt>
      <trkpt lat="44.87307" lon="5.6554">
        <ele>701.7</ele>
        <time>2021-04-22T13:31:52Z</time>
      </trkpt>
      <trkpt lat="44.87308" lon="5.6554">
        <ele>701.8</ele>
        <time>2021-04-22T13:31:53Z</time>
      </trkpt>
      <trkpt lat="44.87313" lon="5.6554">
        <ele>702.3</ele>
        <time>2021-04-22T13:31:55Z</time>
      </trkpt>
      <trkpt lat="44.87315" lon="5.65541">
        <ele>702.5</ele>
        <time>2021-04-22T13:31:56Z</time>
      </trkpt>
      <trkpt lat="44.87317" lon="5.65541">
        <ele>702.6</ele>
        <time>2021-04-22T13:31:57Z</time>
      </trkpt>
      <trkpt lat="44.8732" lon="5.65541">
        <ele>703</ele>
        <time>2021-04-22T13:31:58Z</time>
      </trkpt>
      <trkpt lat="44.87322" lon="5.65542">
        <ele>703.3</ele>
        <time>2021-04-22T13:32:00Z</time>
      </trkpt>
      <trkpt lat="44.87325" lon="5.65542">
        <ele>703.6</ele>
        <time>2021-04-22T13:32:01Z</time>
      </trkpt>
      <trkpt lat="44.8733" lon="5.65542">
        <ele>704.1</ele>
        <time>2021-04-22T13:32:02Z</time>
      </trkpt>
      <trkpt lat="44.87331" lon="5.65542">
        <ele>704.3</ele>
        <time>2021-04-22T13:32:03Z</time>
      </trkpt>
      <trkpt lat="44.87334" lon="5.65543">
        <ele>704.6</ele>
        <time>2021-04-22T13:32:04Z</time>
      </trkpt>
      <trkpt lat="44.87337" lon="5.65543">
        <ele>704.9</ele>
        <time>2021-04-22T13:32:06Z</time>
      </trkpt>
      <trkpt lat="44.87341" lon="5.65543">
        <ele>705.4</ele>
        <time>2021-04-22T13:32:08Z</time>
      </trkpt>
      <trkpt lat="44.87344" lon="5.65543">
        <ele>705.8</ele>
        <time>2021-04-22T13:32:09Z</time>
      </trkpt>
      <trkpt lat="44.87345" lon="5.65543">
        <ele>706</ele>
        <time>2021-04-22T13:32:10Z</time>
      </trkpt>
      <trkpt lat="44.87349" lon="5.65544">
        <ele>706.4</ele>
        <time>2021-04-22T13:32:12Z</time>
      </trkpt>
      <trkpt lat="44.87352" lon="5.65544">
        <ele>706.7</ele>
        <time>2021-04-22T13:32:13Z</time>
      </trkpt>
      <trkpt lat="44.87357" lon="5.65545">
        <ele>707.4</ele>
        <time>2021-04-22T13:32:15Z</time>
      </trkpt>
      <trkpt lat="44.87361" lon="5.65545">
        <ele>707.8</ele>
        <time>2021-04-22T13:32:17Z</time>
      </trkpt>
      <trkpt lat="44.87364" lon="5.65545">
        <ele>708.2</ele>
        <time>2021-04-22T13:32:18Z</time>
      </trkpt>
      <trkpt lat="44.87365" lon="5.65545">
        <ele>708.3</ele>
        <time>2021-04-22T13:32:19Z</time>
      </trkpt>
      <trkpt lat="44.87366" lon="5.65545">
        <ele>708.6</ele>
        <time>2021-04-22T13:32:20Z</time>
      </trkpt>
      <trkpt lat="44.87368" lon="5.65545">
        <ele>708.8</ele>
        <time>2021-04-22T13:32:21Z</time>
      </trkpt>
      <trkpt lat="44.87372" lon="5.65544">
        <ele>709.3</ele>
        <time>2021-04-22T13:32:22Z</time>
      </trkpt>
      <trkpt lat="44.87374" lon="5.65543">
        <ele>709.4</ele>
        <time>2021-04-22T13:32:23Z</time>
      </trkpt>
      <trkpt lat="44.87378" lon="5.6554">
        <ele>709.5</ele>
        <time>2021-04-22T13:32:25Z</time>
      </trkpt>
      <trkpt lat="44.87379" lon="5.65539">
        <ele>709.5</ele>
        <time>2021-04-22T13:32:26Z</time>
      </trkpt>
      <trkpt lat="44.8738" lon="5.65538">
        <ele>709.5</ele>
        <time>2021-04-22T13:32:27Z</time>
      </trkpt>
      <trkpt lat="44.87383" lon="5.65527">
        <ele>709.6</ele>
        <time>2021-04-22T13:32:30Z</time>
      </trkpt>
      <trkpt lat="44.87383" lon="5.65521">
        <ele>709.6</ele>
        <time>2021-04-22T13:32:31Z</time>
      </trkpt>
      <trkpt lat="44.87382" lon="5.65515">
        <ele>709.6</ele>
        <time>2021-04-22T13:32:33Z</time>
      </trkpt>
      <trkpt lat="44.8738" lon="5.65509">
        <ele>709.6</ele>
        <time>2021-04-22T13:32:34Z</time>
      </trkpt>
      <trkpt lat="44.87379" lon="5.65507">
        <ele>709.6</ele>
        <time>2021-04-22T13:32:35Z</time>
      </trkpt>
      <trkpt lat="44.87374" lon="5.65501">
        <ele>709.7</ele>
        <time>2021-04-22T13:32:36Z</time>
      </trkpt>
      <trkpt lat="44.87371" lon="5.65498">
        <ele>709.9</ele>
        <time>2021-04-22T13:32:38Z</time>
      </trkpt>
      <trkpt lat="44.87365" lon="5.65494">
        <ele>710.1</ele>
        <time>2021-04-22T13:32:40Z</time>
      </trkpt>
      <trkpt lat="44.87363" lon="5.65492">
        <ele>710.2</ele>
        <time>2021-04-22T13:32:41Z</time>
      </trkpt>
      <trkpt lat="44.87358" lon="5.65489">
        <ele>710.4</ele>
        <time>2021-04-22T13:32:42Z</time>
      </trkpt>
      <trkpt lat="44.87355" lon="5.65486">
        <ele>710.6</ele>
        <time>2021-04-22T13:32:44Z</time>
      </trkpt>
      <trkpt lat="44.87351" lon="5.65484">
        <ele>710.8</ele>
        <time>2021-04-22T13:32:45Z</time>
      </trkpt>
      <trkpt lat="44.8735" lon="5.65483">
        <ele>710.8</ele>
        <time>2021-04-22T13:32:46Z</time>
      </trkpt>
      <trkpt lat="44.87347" lon="5.65479">
        <ele>711</ele>
        <time>2021-04-22T13:32:47Z</time>
      </trkpt>
      <trkpt lat="44.87344" lon="5.65474">
        <ele>711.2</ele>
        <time>2021-04-22T13:32:48Z</time>
      </trkpt>
      <trkpt lat="44.87341" lon="5.6547">
        <ele>711.4</ele>
        <time>2021-04-22T13:32:50Z</time>
      </trkpt>
      <trkpt lat="44.87338" lon="5.65466">
        <ele>711.7</ele>
        <time>2021-04-22T13:32:51Z</time>
      </trkpt>
      <trkpt lat="44.87334" lon="5.65459">
        <ele>712</ele>
        <time>2021-04-22T13:32:53Z</time>
      </trkpt>
      <trkpt lat="44.87331" lon="5.65451">
        <ele>712.3</ele>
        <time>2021-04-22T13:32:55Z</time>
      </trkpt>
      <trkpt lat="44.87328" lon="5.65446">
        <ele>712.5</ele>
        <time>2021-04-22T13:32:56Z</time>
      </trkpt>
      <trkpt lat="44.87326" lon="5.65444">
        <ele>712.7</ele>
        <time>2021-04-22T13:32:57Z</time>
      </trkpt>
      <trkpt lat="44.87324" lon="5.65439">
        <ele>712.8</ele>
        <time>2021-04-22T13:32:59Z</time>
      </trkpt>
      <trkpt lat="44.87321" lon="5.65434">
        <ele>713.1</ele>
        <time>2021-04-22T13:33:00Z</time>
      </trkpt>
      <trkpt lat="44.87319" lon="5.65429">
        <ele>713.3</ele>
        <time>2021-04-22T13:33:01Z</time>
      </trkpt>
      <trkpt lat="44.87317" lon="5.65425">
        <ele>713.5</ele>
        <time>2021-04-22T13:33:02Z</time>
      </trkpt>
      <trkpt lat="44.87315" lon="5.6542">
        <ele>713.7</ele>
        <time>2021-04-22T13:33:03Z</time>
      </trkpt>
      <trkpt lat="44.87313" lon="5.65416">
        <ele>713.9</ele>
        <time>2021-04-22T13:33:05Z</time>
      </trkpt>
      <trkpt lat="44.8731" lon="5.65412">
        <ele>714.2</ele>
        <time>2021-04-22T13:33:06Z</time>
      </trkpt>
      <trkpt lat="44.87305" lon="5.65405">
        <ele>714.5</ele>
        <time>2021-04-22T13:33:08Z</time>
      </trkpt>
      <trkpt lat="44.87302" lon="5.65399">
        <ele>714.8</ele>
        <time>2021-04-22T13:33:10Z</time>
      </trkpt>
      <trkpt lat="44.873" lon="5.65394">
        <ele>715</ele>
        <time>2021-04-22T13:33:11Z</time>
      </trkpt>
      <trkpt lat="44.87297" lon="5.65388">
        <ele>715.3</ele>
        <time>2021-04-22T13:33:13Z</time>
      </trkpt>
      <trkpt lat="44.87293" lon="5.65382">
        <ele>715.6</ele>
        <time>2021-04-22T13:33:14Z</time>
      </trkpt>
      <trkpt lat="44.8729" lon="5.65376">
        <ele>715.9</ele>
        <time>2021-04-22T13:33:16Z</time>
      </trkpt>
      <trkpt lat="44.87286" lon="5.6537">
        <ele>716.2</ele>
        <time>2021-04-22T13:33:18Z</time>
      </trkpt>
      <trkpt lat="44.87285" lon="5.65365">
        <ele>716.4</ele>
        <time>2021-04-22T13:33:19Z</time>
      </trkpt>
      <trkpt lat="44.87281" lon="5.65359">
        <ele>716.7</ele>
        <time>2021-04-22T13:33:21Z</time>
      </trkpt>
      <trkpt lat="44.87279" lon="5.65355">
        <ele>716.9</ele>
        <time>2021-04-22T13:33:22Z</time>
      </trkpt>
      <trkpt lat="44.87278" lon="5.65354">
        <ele>717</ele>
        <time>2021-04-22T13:33:23Z</time>
      </trkpt>
      <trkpt lat="44.87275" lon="5.65348">
        <ele>717.2</ele>
        <time>2021-04-22T13:33:25Z</time>
      </trkpt>
      <trkpt lat="44.87273" lon="5.65345">
        <ele>717.4</ele>
        <time>2021-04-22T13:33:26Z</time>
      </trkpt>
      <trkpt lat="44.8727" lon="5.65338">
        <ele>717.7</ele>
        <time>2021-04-22T13:33:28Z</time>
      </trkpt>
      <trkpt lat="44.87267" lon="5.65332">
        <ele>718</ele>
        <time>2021-04-22T13:33:30Z</time>
      </trkpt>
      <trkpt lat="44.87265" lon="5.65329">
        <ele>718.2</ele>
        <time>2021-04-22T13:33:31Z</time>
      </trkpt>
      <trkpt lat="44.87263" lon="5.65327">
        <ele>718.4</ele>
        <time>2021-04-22T13:33:32Z</time>
      </trkpt>
      <trkpt lat="44.87261" lon="5.65323">
        <ele>718.5</ele>
        <time>2021-04-22T13:33:33Z</time>
      </trkpt>
      <trkpt lat="44.87258" lon="5.65317">
        <ele>718.8</ele>
        <time>2021-04-22T13:33:35Z</time>
      </trkpt>
      <trkpt lat="44.87256" lon="5.65314">
        <ele>718.9</ele>
        <time>2021-04-22T13:33:36Z</time>
      </trkpt>
      <trkpt lat="44.87253" lon="5.65307">
        <ele>719.3</ele>
        <time>2021-04-22T13:33:38Z</time>
      </trkpt>
      <trkpt lat="44.87251" lon="5.65301">
        <ele>719.5</ele>
        <time>2021-04-22T13:33:39Z</time>
      </trkpt>
      <trkpt lat="44.87251" lon="5.65295">
        <ele>719.7</ele>
        <time>2021-04-22T13:33:40Z</time>
      </trkpt>
      <trkpt lat="44.8725" lon="5.65291">
        <ele>719.8</ele>
        <time>2021-04-22T13:33:41Z</time>
      </trkpt>
      <trkpt lat="44.87249" lon="5.65284">
        <ele>720.1</ele>
        <time>2021-04-22T13:33:43Z</time>
      </trkpt>
      <trkpt lat="44.87249" lon="5.6528">
        <ele>720.2</ele>
        <time>2021-04-22T13:33:44Z</time>
      </trkpt>
      <trkpt lat="44.8725" lon="5.65275">
        <ele>720.4</ele>
        <time>2021-04-22T13:33:45Z</time>
      </trkpt>
      <trkpt lat="44.87251" lon="5.65268">
        <ele>720.6</ele>
        <time>2021-04-22T13:33:46Z</time>
      </trkpt>
      <trkpt lat="44.87252" lon="5.65263">
        <ele>720.8</ele>
        <time>2021-04-22T13:33:48Z</time>
      </trkpt>
      <trkpt lat="44.87253" lon="5.6526">
        <ele>720.9</ele>
        <time>2021-04-22T13:33:49Z</time>
      </trkpt>
      <trkpt lat="44.87254" lon="5.65256">
        <ele>721</ele>
        <time>2021-04-22T13:33:50Z</time>
      </trkpt>
      <trkpt lat="44.87255" lon="5.6525">
        <ele>721.1</ele>
        <time>2021-04-22T13:33:51Z</time>
      </trkpt>
      <trkpt lat="44.87258" lon="5.65242">
        <ele>721.4</ele>
        <time>2021-04-22T13:33:52Z</time>
      </trkpt>
      <trkpt lat="44.87259" lon="5.65236">
        <ele>721.5</ele>
        <time>2021-04-22T13:33:53Z</time>
      </trkpt>
      <trkpt lat="44.8726" lon="5.65232">
        <ele>721.6</ele>
        <time>2021-04-22T13:33:55Z</time>
      </trkpt>
      <trkpt lat="44.87261" lon="5.65228">
        <ele>721.7</ele>
        <time>2021-04-22T13:33:56Z</time>
      </trkpt>
      <trkpt lat="44.87263" lon="5.65222">
        <ele>721.7</ele>
        <time>2021-04-22T13:33:57Z</time>
      </trkpt>
      <trkpt lat="44.87264" lon="5.65216">
        <ele>721.7</ele>
        <time>2021-04-22T13:33:59Z</time>
      </trkpt>
      <trkpt lat="44.87266" lon="5.65209">
        <ele>721.7</ele>
        <time>2021-04-22T13:34:00Z</time>
      </trkpt>
      <trkpt lat="44.87268" lon="5.65203">
        <ele>721.9</ele>
        <time>2021-04-22T13:34:02Z</time>
      </trkpt>
      <trkpt lat="44.8727" lon="5.65197">
        <ele>722</ele>
        <time>2021-04-22T13:34:03Z</time>
      </trkpt>
      <trkpt lat="44.87273" lon="5.65189">
        <ele>722.2</ele>
        <time>2021-04-22T13:34:05Z</time>
      </trkpt>
      <trkpt lat="44.87276" lon="5.65179">
        <ele>722.4</ele>
        <time>2021-04-22T13:34:07Z</time>
      </trkpt>
      <trkpt lat="44.87278" lon="5.65173">
        <ele>722.5</ele>
        <time>2021-04-22T13:34:08Z</time>
      </trkpt>
      <trkpt lat="44.87281" lon="5.65164">
        <ele>722.7</ele>
        <time>2021-04-22T13:34:10Z</time>
      </trkpt>
      <trkpt lat="44.87286" lon="5.65154">
        <ele>723</ele>
        <time>2021-04-22T13:34:12Z</time>
      </trkpt>
      <trkpt lat="44.87289" lon="5.65149">
        <ele>723.1</ele>
        <time>2021-04-22T13:34:13Z</time>
      </trkpt>
      <trkpt lat="44.87293" lon="5.65143">
        <ele>723.3</ele>
        <time>2021-04-22T13:34:15Z</time>
      </trkpt>
      <trkpt lat="44.87296" lon="5.65139">
        <ele>723.4</ele>
        <time>2021-04-22T13:34:16Z</time>
      </trkpt>
      <trkpt lat="44.87301" lon="5.65133">
        <ele>723.5</ele>
        <time>2021-04-22T13:34:18Z</time>
      </trkpt>
      <trkpt lat="44.87304" lon="5.6513">
        <ele>723.6</ele>
        <time>2021-04-22T13:34:19Z</time>
      </trkpt>
      <trkpt lat="44.87309" lon="5.65125">
        <ele>723.8</ele>
        <time>2021-04-22T13:34:21Z</time>
      </trkpt>
      <trkpt lat="44.87313" lon="5.65121">
        <ele>723.9</ele>
        <time>2021-04-22T13:34:22Z</time>
      </trkpt>
      <trkpt lat="44.87318" lon="5.65118">
        <ele>724.1</ele>
        <time>2021-04-22T13:34:23Z</time>
      </trkpt>
      <trkpt lat="44.87321" lon="5.65116">
        <ele>724.2</ele>
        <time>2021-04-22T13:34:25Z</time>
      </trkpt>
      <trkpt lat="44.87325" lon="5.65113">
        <ele>724.3</ele>
        <time>2021-04-22T13:34:26Z</time>
      </trkpt>
      <trkpt lat="44.87328" lon="5.6511">
        <ele>724.5</ele>
        <time>2021-04-22T13:34:27Z</time>
      </trkpt>
      <trkpt lat="44.87332" lon="5.65108">
        <ele>724.6</ele>
        <time>2021-04-22T13:34:29Z</time>
      </trkpt>
      <trkpt lat="44.87335" lon="5.65105">
        <ele>724.7</ele>
        <time>2021-04-22T13:34:30Z</time>
      </trkpt>
      <trkpt lat="44.87338" lon="5.65102">
        <ele>724.8</ele>
        <time>2021-04-22T13:34:31Z</time>
      </trkpt>
      <trkpt lat="44.87341" lon="5.651">
        <ele>725</ele>
        <time>2021-04-22T13:34:32Z</time>
      </trkpt>
      <trkpt lat="44.87345" lon="5.65096">
        <ele>725.1</ele>
        <time>2021-04-22T13:34:33Z</time>
      </trkpt>
      <trkpt lat="44.87349" lon="5.65092">
        <ele>725.3</ele>
        <time>2021-04-22T13:34:35Z</time>
      </trkpt>
      <trkpt lat="44.87352" lon="5.65089">
        <ele>725.4</ele>
        <time>2021-04-22T13:34:36Z</time>
      </trkpt>
      <trkpt lat="44.87356" lon="5.65085">
        <ele>725.6</ele>
        <time>2021-04-22T13:34:38Z</time>
      </trkpt>
      <trkpt lat="44.87359" lon="5.65081">
        <ele>725.7</ele>
        <time>2021-04-22T13:34:39Z</time>
      </trkpt>
      <trkpt lat="44.87362" lon="5.65076">
        <ele>725.9</ele>
        <time>2021-04-22T13:34:41Z</time>
      </trkpt>
      <trkpt lat="44.87364" lon="5.65072">
        <ele>726</ele>
        <time>2021-04-22T13:34:42Z</time>
      </trkpt>
      <trkpt lat="44.87367" lon="5.65066">
        <ele>726.1</ele>
        <time>2021-04-22T13:34:43Z</time>
      </trkpt>
      <trkpt lat="44.87369" lon="5.65061">
        <ele>726.3</ele>
        <time>2021-04-22T13:34:45Z</time>
      </trkpt>
      <trkpt lat="44.87372" lon="5.65057">
        <ele>726.4</ele>
        <time>2021-04-22T13:34:46Z</time>
      </trkpt>
      <trkpt lat="44.87375" lon="5.6505">
        <ele>726.5</ele>
        <time>2021-04-22T13:34:48Z</time>
      </trkpt>
      <trkpt lat="44.87378" lon="5.65042">
        <ele>726.7</ele>
        <time>2021-04-22T13:34:50Z</time>
      </trkpt>
      <trkpt lat="44.8738" lon="5.65038">
        <ele>726.8</ele>
        <time>2021-04-22T13:34:51Z</time>
      </trkpt>
      <trkpt lat="44.87384" lon="5.6503">
        <ele>727</ele>
        <time>2021-04-22T13:34:53Z</time>
      </trkpt>
      <trkpt lat="44.87386" lon="5.65026">
        <ele>727</ele>
        <time>2021-04-22T13:34:54Z</time>
      </trkpt>
      <trkpt lat="44.87389" lon="5.65017">
        <ele>727.2</ele>
        <time>2021-04-22T13:34:56Z</time>
      </trkpt>
      <trkpt lat="44.87391" lon="5.65013">
        <ele>727.3</ele>
        <time>2021-04-22T13:34:57Z</time>
      </trkpt>
      <trkpt lat="44.87395" lon="5.65004">
        <ele>727.5</ele>
        <time>2021-04-22T13:34:59Z</time>
      </trkpt>
      <trkpt lat="44.87398" lon="5.64998">
        <ele>727.7</ele>
        <time>2021-04-22T13:35:00Z</time>
      </trkpt>
      <trkpt lat="44.87402" lon="5.6499">
        <ele>727.9</ele>
        <time>2021-04-22T13:35:02Z</time>
      </trkpt>
      <trkpt lat="44.87405" lon="5.64986">
        <ele>727.9</ele>
        <time>2021-04-22T13:35:03Z</time>
      </trkpt>
      <trkpt lat="44.87408" lon="5.64982">
        <ele>728.1</ele>
        <time>2021-04-22T13:35:04Z</time>
      </trkpt>
      <trkpt lat="44.87413" lon="5.64975">
        <ele>728.3</ele>
        <time>2021-04-22T13:35:06Z</time>
      </trkpt>
      <trkpt lat="44.8742" lon="5.6497">
        <ele>728.5</ele>
        <time>2021-04-22T13:35:08Z</time>
      </trkpt>
      <trkpt lat="44.87423" lon="5.64967">
        <ele>728.5</ele>
        <time>2021-04-22T13:35:09Z</time>
      </trkpt>
      <trkpt lat="44.8743" lon="5.64964">
        <ele>728.7</ele>
        <time>2021-04-22T13:35:11Z</time>
      </trkpt>
      <trkpt lat="44.87438" lon="5.64963">
        <ele>728.9</ele>
        <time>2021-04-22T13:35:13Z</time>
      </trkpt>
      <trkpt lat="44.87445" lon="5.64963">
        <ele>729</ele>
        <time>2021-04-22T13:35:15Z</time>
      </trkpt>
      <trkpt lat="44.8745" lon="5.64963">
        <ele>729.1</ele>
        <time>2021-04-22T13:35:16Z</time>
      </trkpt>
      <trkpt lat="44.87454" lon="5.64965">
        <ele>729.2</ele>
        <time>2021-04-22T13:35:17Z</time>
      </trkpt>
      <trkpt lat="44.87459" lon="5.64967">
        <ele>729.3</ele>
        <time>2021-04-22T13:35:18Z</time>
      </trkpt>
      <trkpt lat="44.87464" lon="5.64969">
        <ele>729.3</ele>
        <time>2021-04-22T13:35:19Z</time>
      </trkpt>
      <trkpt lat="44.87467" lon="5.64971">
        <ele>729.4</ele>
        <time>2021-04-22T13:35:21Z</time>
      </trkpt>
      <trkpt lat="44.87473" lon="5.64975">
        <ele>729.5</ele>
        <time>2021-04-22T13:35:22Z</time>
      </trkpt>
      <trkpt lat="44.87478" lon="5.64977">
        <ele>729.6</ele>
        <time>2021-04-22T13:35:24Z</time>
      </trkpt>
      <trkpt lat="44.87481" lon="5.64979">
        <ele>729.7</ele>
        <time>2021-04-22T13:35:25Z</time>
      </trkpt>
      <trkpt lat="44.87485" lon="5.64981">
        <ele>729.8</ele>
        <time>2021-04-22T13:35:26Z</time>
      </trkpt>
      <trkpt lat="44.87488" lon="5.64983">
        <ele>729.8</ele>
        <time>2021-04-22T13:35:27Z</time>
      </trkpt>
      <trkpt lat="44.87495" lon="5.64987">
        <ele>730</ele>
        <time>2021-04-22T13:35:29Z</time>
      </trkpt>
      <trkpt lat="44.875" lon="5.6499">
        <ele>730.1</ele>
        <time>2021-04-22T13:35:31Z</time>
      </trkpt>
      <trkpt lat="44.87504" lon="5.64991">
        <ele>730.1</ele>
        <time>2021-04-22T13:35:32Z</time>
      </trkpt>
      <trkpt lat="44.87508" lon="5.64994">
        <ele>730.2</ele>
        <time>2021-04-22T13:35:33Z</time>
      </trkpt>
      <trkpt lat="44.87513" lon="5.64997">
        <ele>730.3</ele>
        <time>2021-04-22T13:35:34Z</time>
      </trkpt>
      <trkpt lat="44.87518" lon="5.65001">
        <ele>730.4</ele>
        <time>2021-04-22T13:35:36Z</time>
      </trkpt>
      <trkpt lat="44.87522" lon="5.65002">
        <ele>730.5</ele>
        <time>2021-04-22T13:35:37Z</time>
      </trkpt>
      <trkpt lat="44.87529" lon="5.65006">
        <ele>730.7</ele>
        <time>2021-04-22T13:35:39Z</time>
      </trkpt>
      <trkpt lat="44.87533" lon="5.65009">
        <ele>730.8</ele>
        <time>2021-04-22T13:35:40Z</time>
      </trkpt>
      <trkpt lat="44.87537" lon="5.65011">
        <ele>730.9</ele>
        <time>2021-04-22T13:35:41Z</time>
      </trkpt>
      <trkpt lat="44.87544" lon="5.65015">
        <ele>731</ele>
        <time>2021-04-22T13:35:43Z</time>
      </trkpt>
      <trkpt lat="44.87551" lon="5.6502">
        <ele>731.2</ele>
        <time>2021-04-22T13:35:45Z</time>
      </trkpt>
      <trkpt lat="44.87557" lon="5.65024">
        <ele>731.3</ele>
        <time>2021-04-22T13:35:46Z</time>
      </trkpt>
      <trkpt lat="44.87561" lon="5.65026">
        <ele>731.4</ele>
        <time>2021-04-22T13:35:48Z</time>
      </trkpt>
      <trkpt lat="44.87565" lon="5.65028">
        <ele>731.5</ele>
        <time>2021-04-22T13:35:49Z</time>
      </trkpt>
      <trkpt lat="44.87568" lon="5.6503">
        <ele>731.6</ele>
        <time>2021-04-22T13:35:50Z</time>
      </trkpt>
      <trkpt lat="44.87573" lon="5.65032">
        <ele>731.7</ele>
        <time>2021-04-22T13:35:51Z</time>
      </trkpt>
      <trkpt lat="44.87577" lon="5.65035">
        <ele>731.8</ele>
        <time>2021-04-22T13:35:52Z</time>
      </trkpt>
      <trkpt lat="44.87582" lon="5.65037">
        <ele>731.9</ele>
        <time>2021-04-22T13:35:53Z</time>
      </trkpt>
      <trkpt lat="44.87586" lon="5.6504">
        <ele>732</ele>
        <time>2021-04-22T13:35:55Z</time>
      </trkpt>
      <trkpt lat="44.87589" lon="5.65043">
        <ele>732.1</ele>
        <time>2021-04-22T13:35:56Z</time>
      </trkpt>
      <trkpt lat="44.87594" lon="5.65045">
        <ele>732.2</ele>
        <time>2021-04-22T13:35:58Z</time>
      </trkpt>
      <trkpt lat="44.87598" lon="5.65047">
        <ele>732.3</ele>
        <time>2021-04-22T13:35:59Z</time>
      </trkpt>
      <trkpt lat="44.87603" lon="5.65051">
        <ele>732.5</ele>
        <time>2021-04-22T13:36:01Z</time>
      </trkpt>
      <trkpt lat="44.87606" lon="5.65052">
        <ele>732.5</ele>
        <time>2021-04-22T13:36:02Z</time>
      </trkpt>
      <trkpt lat="44.87613" lon="5.65056">
        <ele>732.7</ele>
        <time>2021-04-22T13:36:04Z</time>
      </trkpt>
      <trkpt lat="44.8762" lon="5.6506">
        <ele>732.9</ele>
        <time>2021-04-22T13:36:06Z</time>
      </trkpt>
      <trkpt lat="44.87624" lon="5.65061">
        <ele>733</ele>
        <time>2021-04-22T13:36:07Z</time>
      </trkpt>
      <trkpt lat="44.87628" lon="5.65063">
        <ele>733.1</ele>
        <time>2021-04-22T13:36:09Z</time>
      </trkpt>
      <trkpt lat="44.87632" lon="5.65065">
        <ele>733.1</ele>
        <time>2021-04-22T13:36:10Z</time>
      </trkpt>
      <trkpt lat="44.87636" lon="5.65066">
        <ele>733.2</ele>
        <time>2021-04-22T13:36:11Z</time>
      </trkpt>
      <trkpt lat="44.8764" lon="5.65068">
        <ele>733.3</ele>
        <time>2021-04-22T13:36:12Z</time>
      </trkpt>
      <trkpt lat="44.87645" lon="5.6507">
        <ele>733.4</ele>
        <time>2021-04-22T13:36:13Z</time>
      </trkpt>
      <trkpt lat="44.8765" lon="5.65071">
        <ele>733.5</ele>
        <time>2021-04-22T13:36:15Z</time>
      </trkpt>
      <trkpt lat="44.87655" lon="5.65071">
        <ele>733.6</ele>
        <time>2021-04-22T13:36:16Z</time>
      </trkpt>
      <trkpt lat="44.8766" lon="5.65071">
        <ele>733.7</ele>
        <time>2021-04-22T13:36:17Z</time>
      </trkpt>
      <trkpt lat="44.87665" lon="5.65071">
        <ele>733.8</ele>
        <time>2021-04-22T13:36:19Z</time>
      </trkpt>
      <trkpt lat="44.87669" lon="5.65071">
        <ele>733.9</ele>
        <time>2021-04-22T13:36:20Z</time>
      </trkpt>
      <trkpt lat="44.87674" lon="5.6507">
        <ele>734</ele>
        <time>2021-04-22T13:36:21Z</time>
      </trkpt>
      <trkpt lat="44.87683" lon="5.65069">
        <ele>734.2</ele>
        <time>2021-04-22T13:36:23Z</time>
      </trkpt>
      <trkpt lat="44.87687" lon="5.65068">
        <ele>734.2</ele>
        <time>2021-04-22T13:36:24Z</time>
      </trkpt>
      <trkpt lat="44.87693" lon="5.65067">
        <ele>734.4</ele>
        <time>2021-04-22T13:36:26Z</time>
      </trkpt>
      <trkpt lat="44.877" lon="5.65067">
        <ele>734.5</ele>
        <time>2021-04-22T13:36:27Z</time>
      </trkpt>
      <trkpt lat="44.87706" lon="5.65066">
        <ele>734.6</ele>
        <time>2021-04-22T13:36:29Z</time>
      </trkpt>
      <trkpt lat="44.87711" lon="5.65065">
        <ele>734.7</ele>
        <time>2021-04-22T13:36:30Z</time>
      </trkpt>
      <trkpt lat="44.87716" lon="5.65064">
        <ele>734.8</ele>
        <time>2021-04-22T13:36:31Z</time>
      </trkpt>
      <trkpt lat="44.87723" lon="5.65062">
        <ele>734.9</ele>
        <time>2021-04-22T13:36:32Z</time>
      </trkpt>
      <trkpt lat="44.87727" lon="5.65062">
        <ele>735</ele>
        <time>2021-04-22T13:36:34Z</time>
      </trkpt>
      <trkpt lat="44.87735" lon="5.65062">
        <ele>735.1</ele>
        <time>2021-04-22T13:36:36Z</time>
      </trkpt>
      <trkpt lat="44.87742" lon="5.65059">
        <ele>735.3</ele>
        <time>2021-04-22T13:36:38Z</time>
      </trkpt>
      <trkpt lat="44.87748" lon="5.65059">
        <ele>735.4</ele>
        <time>2021-04-22T13:36:39Z</time>
      </trkpt>
      <trkpt lat="44.87757" lon="5.65058">
        <ele>735.7</ele>
        <time>2021-04-22T13:36:41Z</time>
      </trkpt>
      <trkpt lat="44.87764" lon="5.65057">
        <ele>735.8</ele>
        <time>2021-04-22T13:36:43Z</time>
      </trkpt>
      <trkpt lat="44.87769" lon="5.65056">
        <ele>736</ele>
        <time>2021-04-22T13:36:44Z</time>
      </trkpt>
      <trkpt lat="44.87776" lon="5.65054">
        <ele>736.1</ele>
        <time>2021-04-22T13:36:45Z</time>
      </trkpt>
      <trkpt lat="44.87781" lon="5.65052">
        <ele>736.3</ele>
        <time>2021-04-22T13:36:47Z</time>
      </trkpt>
      <trkpt lat="44.87785" lon="5.6505">
        <ele>736.4</ele>
        <time>2021-04-22T13:36:48Z</time>
      </trkpt>
      <trkpt lat="44.87792" lon="5.65047">
        <ele>736.6</ele>
        <time>2021-04-22T13:36:50Z</time>
      </trkpt>
      <trkpt lat="44.87797" lon="5.65043">
        <ele>736.7</ele>
        <time>2021-04-22T13:36:51Z</time>
      </trkpt>
      <trkpt lat="44.87801" lon="5.65039">
        <ele>736.8</ele>
        <time>2021-04-22T13:36:52Z</time>
      </trkpt>
      <trkpt lat="44.87804" lon="5.65037">
        <ele>736.9</ele>
        <time>2021-04-22T13:36:53Z</time>
      </trkpt>
      <trkpt lat="44.87807" lon="5.65033">
        <ele>737</ele>
        <time>2021-04-22T13:36:54Z</time>
      </trkpt>
      <trkpt lat="44.8781" lon="5.65028">
        <ele>737.1</ele>
        <time>2021-04-22T13:36:55Z</time>
      </trkpt>
      <trkpt lat="44.87814" lon="5.65022">
        <ele>737.3</ele>
        <time>2021-04-22T13:36:57Z</time>
      </trkpt>
      <trkpt lat="44.87818" lon="5.65015">
        <ele>737.4</ele>
        <time>2021-04-22T13:36:59Z</time>
      </trkpt>
      <trkpt lat="44.87821" lon="5.65009">
        <ele>737.5</ele>
        <time>2021-04-22T13:37:00Z</time>
      </trkpt>
      <trkpt lat="44.87824" lon="5.65003">
        <ele>737.6</ele>
        <time>2021-04-22T13:37:01Z</time>
      </trkpt>
      <trkpt lat="44.87827" lon="5.64995">
        <ele>737.8</ele>
        <time>2021-04-22T13:37:03Z</time>
      </trkpt>
      <trkpt lat="44.8783" lon="5.64986">
        <ele>737.9</ele>
        <time>2021-04-22T13:37:04Z</time>
      </trkpt>
      <trkpt lat="44.87832" lon="5.64979">
        <ele>738</ele>
        <time>2021-04-22T13:37:06Z</time>
      </trkpt>
      <trkpt lat="44.87836" lon="5.64969">
        <ele>738.1</ele>
        <time>2021-04-22T13:37:08Z</time>
      </trkpt>
      <trkpt lat="44.87839" lon="5.64962">
        <ele>738.3</ele>
        <time>2021-04-22T13:37:09Z</time>
      </trkpt>
      <trkpt lat="44.87841" lon="5.64956">
        <ele>738.4</ele>
        <time>2021-04-22T13:37:10Z</time>
      </trkpt>
      <trkpt lat="44.87846" lon="5.64946">
        <ele>738.6</ele>
        <time>2021-04-22T13:37:12Z</time>
      </trkpt>
      <trkpt lat="44.8785" lon="5.64939">
        <ele>738.8</ele>
        <time>2021-04-22T13:37:13Z</time>
      </trkpt>
      <trkpt lat="44.87855" lon="5.64935">
        <ele>739</ele>
        <time>2021-04-22T13:37:14Z</time>
      </trkpt>
      <trkpt lat="44.87857" lon="5.64926">
        <ele>739.2</ele>
        <time>2021-04-22T13:37:16Z</time>
      </trkpt>
      <trkpt lat="44.8786" lon="5.64916">
        <ele>739.4</ele>
        <time>2021-04-22T13:37:18Z</time>
      </trkpt>
      <trkpt lat="44.87863" lon="5.64911">
        <ele>739.5</ele>
        <time>2021-04-22T13:37:19Z</time>
      </trkpt>
      <trkpt lat="44.87868" lon="5.64903">
        <ele>739.7</ele>
        <time>2021-04-22T13:37:21Z</time>
      </trkpt>
      <trkpt lat="44.87872" lon="5.64898">
        <ele>739.8</ele>
        <time>2021-04-22T13:37:22Z</time>
      </trkpt>
      <trkpt lat="44.87877" lon="5.64891">
        <ele>740</ele>
        <time>2021-04-22T13:37:24Z</time>
      </trkpt>
      <trkpt lat="44.87882" lon="5.64887">
        <ele>740.1</ele>
        <time>2021-04-22T13:37:25Z</time>
      </trkpt>
      <trkpt lat="44.8789" lon="5.64882">
        <ele>740.4</ele>
        <time>2021-04-22T13:37:27Z</time>
      </trkpt>
      <trkpt lat="44.87896" lon="5.64879">
        <ele>740.5</ele>
        <time>2021-04-22T13:37:29Z</time>
      </trkpt>
      <trkpt lat="44.87903" lon="5.64879">
        <ele>740.6</ele>
        <time>2021-04-22T13:37:31Z</time>
      </trkpt>
      <trkpt lat="44.8791" lon="5.64879">
        <ele>740.8</ele>
        <time>2021-04-22T13:37:33Z</time>
      </trkpt>
      <trkpt lat="44.87915" lon="5.6488">
        <ele>740.8</ele>
        <time>2021-04-22T13:37:34Z</time>
      </trkpt>
      <trkpt lat="44.87919" lon="5.64882">
        <ele>740.9</ele>
        <time>2021-04-22T13:37:35Z</time>
      </trkpt>
      <trkpt lat="44.87925" lon="5.64884">
        <ele>741</ele>
        <time>2021-04-22T13:37:37Z</time>
      </trkpt>
      <trkpt lat="44.87928" lon="5.64886">
        <ele>741.1</ele>
        <time>2021-04-22T13:37:38Z</time>
      </trkpt>
      <trkpt lat="44.87931" lon="5.64889">
        <ele>741.1</ele>
        <time>2021-04-22T13:37:39Z</time>
      </trkpt>
      <trkpt lat="44.87938" lon="5.64891">
        <ele>741.2</ele>
        <time>2021-04-22T13:37:41Z</time>
      </trkpt>
      <trkpt lat="44.87941" lon="5.64892">
        <ele>741.3</ele>
        <time>2021-04-22T13:37:42Z</time>
      </trkpt>
      <trkpt lat="44.87946" lon="5.64894">
        <ele>741.4</ele>
        <time>2021-04-22T13:37:43Z</time>
      </trkpt>
      <trkpt lat="44.87951" lon="5.64896">
        <ele>741.5</ele>
        <time>2021-04-22T13:37:45Z</time>
      </trkpt>
      <trkpt lat="44.87955" lon="5.64897">
        <ele>741.6</ele>
        <time>2021-04-22T13:37:46Z</time>
      </trkpt>
      <trkpt lat="44.87959" lon="5.64898">
        <ele>741.7</ele>
        <time>2021-04-22T13:37:47Z</time>
      </trkpt>
      <trkpt lat="44.87967" lon="5.649">
        <ele>741.9</ele>
        <time>2021-04-22T13:37:49Z</time>
      </trkpt>
      <trkpt lat="44.87974" lon="5.64902">
        <ele>742.1</ele>
        <time>2021-04-22T13:37:51Z</time>
      </trkpt>
      <trkpt lat="44.87979" lon="5.64903">
        <ele>742.2</ele>
        <time>2021-04-22T13:37:52Z</time>
      </trkpt>
      <trkpt lat="44.87984" lon="5.64904">
        <ele>742.4</ele>
        <time>2021-04-22T13:37:54Z</time>
      </trkpt>
      <trkpt lat="44.87988" lon="5.64905">
        <ele>742.5</ele>
        <time>2021-04-22T13:37:55Z</time>
      </trkpt>
      <trkpt lat="44.87995" lon="5.64905">
        <ele>742.7</ele>
        <time>2021-04-22T13:37:57Z</time>
      </trkpt>
      <trkpt lat="44.87999" lon="5.64905">
        <ele>742.8</ele>
        <time>2021-04-22T13:37:58Z</time>
      </trkpt>
      <trkpt lat="44.88005" lon="5.64905">
        <ele>742.9</ele>
        <time>2021-04-22T13:37:59Z</time>
      </trkpt>
      <trkpt lat="44.88012" lon="5.64903">
        <ele>743.1</ele>
        <time>2021-04-22T13:38:01Z</time>
      </trkpt>
      <trkpt lat="44.88018" lon="5.64901">
        <ele>743.2</ele>
        <time>2021-04-22T13:38:02Z</time>
      </trkpt>
      <trkpt lat="44.88023" lon="5.64898">
        <ele>743.3</ele>
        <time>2021-04-22T13:38:03Z</time>
      </trkpt>
      <trkpt lat="44.88026" lon="5.64896">
        <ele>743.4</ele>
        <time>2021-04-22T13:38:05Z</time>
      </trkpt>
      <trkpt lat="44.88033" lon="5.64892">
        <ele>743.5</ele>
        <time>2021-04-22T13:38:07Z</time>
      </trkpt>
      <trkpt lat="44.88037" lon="5.6489">
        <ele>743.5</ele>
        <time>2021-04-22T13:38:08Z</time>
      </trkpt>
      <trkpt lat="44.88041" lon="5.64887">
        <ele>743.5</ele>
        <time>2021-04-22T13:38:09Z</time>
      </trkpt>
      <trkpt lat="44.88048" lon="5.64883">
        <ele>743.5</ele>
        <time>2021-04-22T13:38:10Z</time>
      </trkpt>
      <trkpt lat="44.88051" lon="5.64881">
        <ele>743.5</ele>
        <time>2021-04-22T13:38:12Z</time>
      </trkpt>
      <trkpt lat="44.88054" lon="5.64878">
        <ele>743.5</ele>
        <time>2021-04-22T13:38:13Z</time>
      </trkpt>
      <trkpt lat="44.88057" lon="5.64876">
        <ele>743.4</ele>
        <time>2021-04-22T13:38:14Z</time>
      </trkpt>
      <trkpt lat="44.88061" lon="5.64873">
        <ele>743.5</ele>
        <time>2021-04-22T13:38:15Z</time>
      </trkpt>
      <trkpt lat="44.88065" lon="5.64871">
        <ele>743.6</ele>
        <time>2021-04-22T13:38:16Z</time>
      </trkpt>
      <trkpt lat="44.88072" lon="5.64868">
        <ele>743.8</ele>
        <time>2021-04-22T13:38:18Z</time>
      </trkpt>
      <trkpt lat="44.88076" lon="5.64867">
        <ele>743.9</ele>
        <time>2021-04-22T13:38:19Z</time>
      </trkpt>
      <trkpt lat="44.8808" lon="5.64866">
        <ele>744</ele>
        <time>2021-04-22T13:38:20Z</time>
      </trkpt>
      <trkpt lat="44.88086" lon="5.64865">
        <ele>744.1</ele>
        <time>2021-04-22T13:38:21Z</time>
      </trkpt>
      <trkpt lat="44.8809" lon="5.64865">
        <ele>744.2</ele>
        <time>2021-04-22T13:38:22Z</time>
      </trkpt>
      <trkpt lat="44.88096" lon="5.64866">
        <ele>744.3</ele>
        <time>2021-04-22T13:38:24Z</time>
      </trkpt>
      <trkpt lat="44.88102" lon="5.64866">
        <ele>744.4</ele>
        <time>2021-04-22T13:38:25Z</time>
      </trkpt>
      <trkpt lat="44.88107" lon="5.64867">
        <ele>744.5</ele>
        <time>2021-04-22T13:38:27Z</time>
      </trkpt>
      <trkpt lat="44.88111" lon="5.64868">
        <ele>744.6</ele>
        <time>2021-04-22T13:38:28Z</time>
      </trkpt>
      <trkpt lat="44.88116" lon="5.64869">
        <ele>744.7</ele>
        <time>2021-04-22T13:38:29Z</time>
      </trkpt>
      <trkpt lat="44.8812" lon="5.6487">
        <ele>744.8</ele>
        <time>2021-04-22T13:38:30Z</time>
      </trkpt>
      <trkpt lat="44.88125" lon="5.6487">
        <ele>744.9</ele>
        <time>2021-04-22T13:38:32Z</time>
      </trkpt>
      <trkpt lat="44.88131" lon="5.64871">
        <ele>745.1</ele>
        <time>2021-04-22T13:38:34Z</time>
      </trkpt>
      <trkpt lat="44.88137" lon="5.64871">
        <ele>745.2</ele>
        <time>2021-04-22T13:38:36Z</time>
      </trkpt>
      <trkpt lat="44.88142" lon="5.64871">
        <ele>745.4</ele>
        <time>2021-04-22T13:38:37Z</time>
      </trkpt>
      <trkpt lat="44.88146" lon="5.64869">
        <ele>745.5</ele>
        <time>2021-04-22T13:38:38Z</time>
      </trkpt>
      <trkpt lat="44.8815" lon="5.64867">
        <ele>745.6</ele>
        <time>2021-04-22T13:38:40Z</time>
      </trkpt>
      <trkpt lat="44.88156" lon="5.64864">
        <ele>745.8</ele>
        <time>2021-04-22T13:38:42Z</time>
      </trkpt>
      <trkpt lat="44.88159" lon="5.64861">
        <ele>745.9</ele>
        <time>2021-04-22T13:38:43Z</time>
      </trkpt>
      <trkpt lat="44.88164" lon="5.64857">
        <ele>746</ele>
        <time>2021-04-22T13:38:44Z</time>
      </trkpt>
      <trkpt lat="44.88168" lon="5.64854">
        <ele>746.1</ele>
        <time>2021-04-22T13:38:46Z</time>
      </trkpt>
      <trkpt lat="44.8817" lon="5.6485">
        <ele>746.2</ele>
        <time>2021-04-22T13:38:47Z</time>
      </trkpt>
      <trkpt lat="44.88174" lon="5.64845">
        <ele>746.4</ele>
        <time>2021-04-22T13:38:48Z</time>
      </trkpt>
      <trkpt lat="44.88177" lon="5.64841">
        <ele>746.5</ele>
        <time>2021-04-22T13:38:49Z</time>
      </trkpt>
      <trkpt lat="44.88182" lon="5.64833">
        <ele>746.6</ele>
        <time>2021-04-22T13:38:50Z</time>
      </trkpt>
      <trkpt lat="44.88185" lon="5.64829">
        <ele>746.7</ele>
        <time>2021-04-22T13:38:52Z</time>
      </trkpt>
      <trkpt lat="44.8819" lon="5.64822">
        <ele>746.9</ele>
        <time>2021-04-22T13:38:53Z</time>
      </trkpt>
      <trkpt lat="44.88194" lon="5.64817">
        <ele>747</ele>
        <time>2021-04-22T13:38:55Z</time>
      </trkpt>
      <trkpt lat="44.88197" lon="5.64813">
        <ele>747.1</ele>
        <time>2021-04-22T13:38:56Z</time>
      </trkpt>
      <trkpt lat="44.88201" lon="5.64806">
        <ele>747.2</ele>
        <time>2021-04-22T13:38:58Z</time>
      </trkpt>
      <trkpt lat="44.88207" lon="5.64799">
        <ele>747.3</ele>
        <time>2021-04-22T13:39:00Z</time>
      </trkpt>
      <trkpt lat="44.8821" lon="5.64794">
        <ele>747.4</ele>
        <time>2021-04-22T13:39:01Z</time>
      </trkpt>
      <trkpt lat="44.88213" lon="5.6479">
        <ele>747.5</ele>
        <time>2021-04-22T13:39:02Z</time>
      </trkpt>
      <trkpt lat="44.88218" lon="5.64783">
        <ele>747.6</ele>
        <time>2021-04-22T13:39:04Z</time>
      </trkpt>
      <trkpt lat="44.88223" lon="5.64777">
        <ele>747.8</ele>
        <time>2021-04-22T13:39:06Z</time>
      </trkpt>
      <trkpt lat="44.88227" lon="5.64772">
        <ele>747.9</ele>
        <time>2021-04-22T13:39:07Z</time>
      </trkpt>
      <trkpt lat="44.88232" lon="5.64765">
        <ele>748</ele>
        <time>2021-04-22T13:39:09Z</time>
      </trkpt>
      <trkpt lat="44.88234" lon="5.64762">
        <ele>748.1</ele>
        <time>2021-04-22T13:39:10Z</time>
      </trkpt>
      <trkpt lat="44.88239" lon="5.64756">
        <ele>748.2</ele>
        <time>2021-04-22T13:39:12Z</time>
      </trkpt>
      <trkpt lat="44.88242" lon="5.64753">
        <ele>748.3</ele>
        <time>2021-04-22T13:39:13Z</time>
      </trkpt>
      <trkpt lat="44.88248" lon="5.64745">
        <ele>748.5</ele>
        <time>2021-04-22T13:39:15Z</time>
      </trkpt>
      <trkpt lat="44.88252" lon="5.64739">
        <ele>748.7</ele>
        <time>2021-04-22T13:39:17Z</time>
      </trkpt>
      <trkpt lat="44.88255" lon="5.64736">
        <ele>748.7</ele>
        <time>2021-04-22T13:39:18Z</time>
      </trkpt>
      <trkpt lat="44.88258" lon="5.64731">
        <ele>748.8</ele>
        <time>2021-04-22T13:39:19Z</time>
      </trkpt>
      <trkpt lat="44.88262" lon="5.64725">
        <ele>749</ele>
        <time>2021-04-22T13:39:20Z</time>
      </trkpt>
      <trkpt lat="44.88267" lon="5.6472">
        <ele>749.1</ele>
        <time>2021-04-22T13:39:22Z</time>
      </trkpt>
      <trkpt lat="44.88271" lon="5.64715">
        <ele>749.2</ele>
        <time>2021-04-22T13:39:23Z</time>
      </trkpt>
      <trkpt lat="44.88276" lon="5.64708">
        <ele>749.4</ele>
        <time>2021-04-22T13:39:24Z</time>
      </trkpt>
      <trkpt lat="44.88279" lon="5.64703">
        <ele>749.6</ele>
        <time>2021-04-22T13:39:26Z</time>
      </trkpt>
      <trkpt lat="44.88285" lon="5.64696">
        <ele>749.8</ele>
        <time>2021-04-22T13:39:28Z</time>
      </trkpt>
      <trkpt lat="44.88289" lon="5.64691">
        <ele>749.9</ele>
        <time>2021-04-22T13:39:29Z</time>
      </trkpt>
      <trkpt lat="44.88295" lon="5.64683">
        <ele>750.1</ele>
        <time>2021-04-22T13:39:30Z</time>
      </trkpt>
      <trkpt lat="44.88299" lon="5.64677">
        <ele>750.3</ele>
        <time>2021-04-22T13:39:32Z</time>
      </trkpt>
      <trkpt lat="44.88303" lon="5.64672">
        <ele>750.4</ele>
        <time>2021-04-22T13:39:33Z</time>
      </trkpt>
      <trkpt lat="44.88308" lon="5.64665">
        <ele>750.5</ele>
        <time>2021-04-22T13:39:34Z</time>
      </trkpt>
      <trkpt lat="44.88311" lon="5.64662">
        <ele>750.6</ele>
        <time>2021-04-22T13:39:36Z</time>
      </trkpt>
      <trkpt lat="44.88314" lon="5.64658">
        <ele>750.7</ele>
        <time>2021-04-22T13:39:37Z</time>
      </trkpt>
      <trkpt lat="44.8832" lon="5.64652">
        <ele>750.9</ele>
        <time>2021-04-22T13:39:38Z</time>
      </trkpt>
      <trkpt lat="44.88325" lon="5.64647">
        <ele>751</ele>
        <time>2021-04-22T13:39:40Z</time>
      </trkpt>
      <trkpt lat="44.88328" lon="5.64643">
        <ele>751</ele>
        <time>2021-04-22T13:39:41Z</time>
      </trkpt>
      <trkpt lat="44.88336" lon="5.64639">
        <ele>751.2</ele>
        <time>2021-04-22T13:39:43Z</time>
      </trkpt>
      <trkpt lat="44.8834" lon="5.64636">
        <ele>751.3</ele>
        <time>2021-04-22T13:39:44Z</time>
      </trkpt>
      <trkpt lat="44.88344" lon="5.64632">
        <ele>751.4</ele>
        <time>2021-04-22T13:39:45Z</time>
      </trkpt>
      <trkpt lat="44.88348" lon="5.64629">
        <ele>751.5</ele>
        <time>2021-04-22T13:39:46Z</time>
      </trkpt>
      <trkpt lat="44.88352" lon="5.64626">
        <ele>751.6</ele>
        <time>2021-04-22T13:39:47Z</time>
      </trkpt>
      <trkpt lat="44.88357" lon="5.64622">
        <ele>751.7</ele>
        <time>2021-04-22T13:39:48Z</time>
      </trkpt>
      <trkpt lat="44.88361" lon="5.64618">
        <ele>751.8</ele>
        <time>2021-04-22T13:39:49Z</time>
      </trkpt>
      <trkpt lat="44.88365" lon="5.64614">
        <ele>751.9</ele>
        <time>2021-04-22T13:39:50Z</time>
      </trkpt>
      <trkpt lat="44.88369" lon="5.6461">
        <ele>752</ele>
        <time>2021-04-22T13:39:51Z</time>
      </trkpt>
      <trkpt lat="44.88374" lon="5.64607">
        <ele>752.1</ele>
        <time>2021-04-22T13:39:52Z</time>
      </trkpt>
      <trkpt lat="44.88378" lon="5.64603">
        <ele>752.2</ele>
        <time>2021-04-22T13:39:53Z</time>
      </trkpt>
      <trkpt lat="44.88382" lon="5.646">
        <ele>752.3</ele>
        <time>2021-04-22T13:39:54Z</time>
      </trkpt>
      <trkpt lat="44.88386" lon="5.64597">
        <ele>752.4</ele>
        <time>2021-04-22T13:39:55Z</time>
      </trkpt>
      <trkpt lat="44.8839" lon="5.64593">
        <ele>752.5</ele>
        <time>2021-04-22T13:39:56Z</time>
      </trkpt>
      <trkpt lat="44.88394" lon="5.64589">
        <ele>752.6</ele>
        <time>2021-04-22T13:39:57Z</time>
      </trkpt>
      <trkpt lat="44.88397" lon="5.64586">
        <ele>752.7</ele>
        <time>2021-04-22T13:39:58Z</time>
      </trkpt>
      <trkpt lat="44.88401" lon="5.64582">
        <ele>752.9</ele>
        <time>2021-04-22T13:39:59Z</time>
      </trkpt>
      <trkpt lat="44.88405" lon="5.64579">
        <ele>753</ele>
        <time>2021-04-22T13:40:00Z</time>
      </trkpt>
      <trkpt lat="44.88409" lon="5.64576">
        <ele>753.1</ele>
        <time>2021-04-22T13:40:01Z</time>
      </trkpt>
      <trkpt lat="44.88413" lon="5.64573">
        <ele>753.2</ele>
        <time>2021-04-22T13:40:02Z</time>
      </trkpt>
      <trkpt lat="44.88416" lon="5.6457">
        <ele>753.3</ele>
        <time>2021-04-22T13:40:03Z</time>
      </trkpt>
      <trkpt lat="44.88419" lon="5.64568">
        <ele>753.4</ele>
        <time>2021-04-22T13:40:04Z</time>
      </trkpt>
      <trkpt lat="44.88423" lon="5.64565">
        <ele>753.6</ele>
        <time>2021-04-22T13:40:05Z</time>
      </trkpt>
      <trkpt lat="44.88427" lon="5.64562">
        <ele>753.7</ele>
        <time>2021-04-22T13:40:06Z</time>
      </trkpt>
      <trkpt lat="44.8843" lon="5.6456">
        <ele>753.8</ele>
        <time>2021-04-22T13:40:07Z</time>
      </trkpt>
      <trkpt lat="44.88434" lon="5.64556">
        <ele>753.9</ele>
        <time>2021-04-22T13:40:08Z</time>
      </trkpt>
      <trkpt lat="44.88438" lon="5.64553">
        <ele>754</ele>
        <time>2021-04-22T13:40:09Z</time>
      </trkpt>
      <trkpt lat="44.88442" lon="5.6455">
        <ele>754.2</ele>
        <time>2021-04-22T13:40:10Z</time>
      </trkpt>
      <trkpt lat="44.88447" lon="5.64546">
        <ele>754.3</ele>
        <time>2021-04-22T13:40:11Z</time>
      </trkpt>
      <trkpt lat="44.88453" lon="5.64535">
        <ele>754.6</ele>
        <time>2021-04-22T13:40:13Z</time>
      </trkpt>
      <trkpt lat="44.88457" lon="5.64526">
        <ele>754.8</ele>
        <time>2021-04-22T13:40:15Z</time>
      </trkpt>
      <trkpt lat="44.88459" lon="5.64519">
        <ele>754.9</ele>
        <time>2021-04-22T13:40:16Z</time>
      </trkpt>
      <trkpt lat="44.88463" lon="5.6451">
        <ele>755.1</ele>
        <time>2021-04-22T13:40:18Z</time>
      </trkpt>
      <trkpt lat="44.88464" lon="5.64505">
        <ele>755.2</ele>
        <time>2021-04-22T13:40:19Z</time>
      </trkpt>
      <trkpt lat="44.88465" lon="5.64499">
        <ele>755.3</ele>
        <time>2021-04-22T13:40:20Z</time>
      </trkpt>
      <trkpt lat="44.88466" lon="5.64493">
        <ele>755.4</ele>
        <time>2021-04-22T13:40:21Z</time>
      </trkpt>
      <trkpt lat="44.88467" lon="5.64486">
        <ele>755.5</ele>
        <time>2021-04-22T13:40:22Z</time>
      </trkpt>
      <trkpt lat="44.88468" lon="5.64478">
        <ele>755.6</ele>
        <time>2021-04-22T13:40:24Z</time>
      </trkpt>
      <trkpt lat="44.88468" lon="5.64471">
        <ele>755.7</ele>
        <time>2021-04-22T13:40:25Z</time>
      </trkpt>
      <trkpt lat="44.88468" lon="5.64461">
        <ele>755.9</ele>
        <time>2021-04-22T13:40:26Z</time>
      </trkpt>
      <trkpt lat="44.88468" lon="5.64454">
        <ele>756</ele>
        <time>2021-04-22T13:40:28Z</time>
      </trkpt>
      <trkpt lat="44.88467" lon="5.64446">
        <ele>756.2</ele>
        <time>2021-04-22T13:40:29Z</time>
      </trkpt>
      <trkpt lat="44.88468" lon="5.64438">
        <ele>756.3</ele>
        <time>2021-04-22T13:40:30Z</time>
      </trkpt>
      <trkpt lat="44.88467" lon="5.6443">
        <ele>756.4</ele>
        <time>2021-04-22T13:40:31Z</time>
      </trkpt>
      <trkpt lat="44.88467" lon="5.64423">
        <ele>756.5</ele>
        <time>2021-04-22T13:40:33Z</time>
      </trkpt>
      <trkpt lat="44.88467" lon="5.64417">
        <ele>756.6</ele>
        <time>2021-04-22T13:40:34Z</time>
      </trkpt>
      <trkpt lat="44.88467" lon="5.64406">
        <ele>756.8</ele>
        <time>2021-04-22T13:40:36Z</time>
      </trkpt>
      <trkpt lat="44.88467" lon="5.64397">
        <ele>756.9</ele>
        <time>2021-04-22T13:40:37Z</time>
      </trkpt>
      <trkpt lat="44.88466" lon="5.6439">
        <ele>757.1</ele>
        <time>2021-04-22T13:40:39Z</time>
      </trkpt>
      <trkpt lat="44.88467" lon="5.64383">
        <ele>757.2</ele>
        <time>2021-04-22T13:40:40Z</time>
      </trkpt>
      <trkpt lat="44.88467" lon="5.64373">
        <ele>757.3</ele>
        <time>2021-04-22T13:40:42Z</time>
      </trkpt>
      <trkpt lat="44.88467" lon="5.64367">
        <ele>757.4</ele>
        <time>2021-04-22T13:40:43Z</time>
      </trkpt>
      <trkpt lat="44.88468" lon="5.64361">
        <ele>757.5</ele>
        <time>2021-04-22T13:40:44Z</time>
      </trkpt>
      <trkpt lat="44.88468" lon="5.64356">
        <ele>757.6</ele>
        <time>2021-04-22T13:40:45Z</time>
      </trkpt>
      <trkpt lat="44.8847" lon="5.64347">
        <ele>757.7</ele>
        <time>2021-04-22T13:40:47Z</time>
      </trkpt>
      <trkpt lat="44.88471" lon="5.64341">
        <ele>757.8</ele>
        <time>2021-04-22T13:40:48Z</time>
      </trkpt>
      <trkpt lat="44.88473" lon="5.64333">
        <ele>757.9</ele>
        <time>2021-04-22T13:40:50Z</time>
      </trkpt>
      <trkpt lat="44.88476" lon="5.64326">
        <ele>758.1</ele>
        <time>2021-04-22T13:40:51Z</time>
      </trkpt>
      <trkpt lat="44.88477" lon="5.64323">
        <ele>758.1</ele>
        <time>2021-04-22T13:40:52Z</time>
      </trkpt>
      <trkpt lat="44.88479" lon="5.64317">
        <ele>758.2</ele>
        <time>2021-04-22T13:40:53Z</time>
      </trkpt>
      <trkpt lat="44.88481" lon="5.64313">
        <ele>758.3</ele>
        <time>2021-04-22T13:40:54Z</time>
      </trkpt>
      <trkpt lat="44.88484" lon="5.64307">
        <ele>758.4</ele>
        <time>2021-04-22T13:40:55Z</time>
      </trkpt>
      <trkpt lat="44.88488" lon="5.643">
        <ele>758.6</ele>
        <time>2021-04-22T13:40:57Z</time>
      </trkpt>
      <trkpt lat="44.88493" lon="5.64293">
        <ele>758.8</ele>
        <time>2021-04-22T13:40:59Z</time>
      </trkpt>
      <trkpt lat="44.88497" lon="5.64287">
        <ele>758.9</ele>
        <time>2021-04-22T13:41:00Z</time>
      </trkpt>
      <trkpt lat="44.885" lon="5.64281">
        <ele>759.1</ele>
        <time>2021-04-22T13:41:01Z</time>
      </trkpt>
      <trkpt lat="44.88504" lon="5.64275">
        <ele>759.2</ele>
        <time>2021-04-22T13:41:03Z</time>
      </trkpt>
      <trkpt lat="44.88507" lon="5.6427">
        <ele>759.3</ele>
        <time>2021-04-22T13:41:04Z</time>
      </trkpt>
      <trkpt lat="44.8851" lon="5.64267">
        <ele>759.4</ele>
        <time>2021-04-22T13:41:05Z</time>
      </trkpt>
      <trkpt lat="44.88513" lon="5.64263">
        <ele>759.5</ele>
        <time>2021-04-22T13:41:07Z</time>
      </trkpt>
      <trkpt lat="44.88516" lon="5.64259">
        <ele>759.6</ele>
        <time>2021-04-22T13:41:08Z</time>
      </trkpt>
      <trkpt lat="44.88519" lon="5.64254">
        <ele>759.8</ele>
        <time>2021-04-22T13:41:09Z</time>
      </trkpt>
      <trkpt lat="44.88522" lon="5.6425">
        <ele>759.9</ele>
        <time>2021-04-22T13:41:10Z</time>
      </trkpt>
      <trkpt lat="44.88526" lon="5.64244">
        <ele>760</ele>
        <time>2021-04-22T13:41:12Z</time>
      </trkpt>
      <trkpt lat="44.88528" lon="5.6424">
        <ele>760.1</ele>
        <time>2021-04-22T13:41:13Z</time>
      </trkpt>
      <trkpt lat="44.88532" lon="5.64235">
        <ele>760.2</ele>
        <time>2021-04-22T13:41:14Z</time>
      </trkpt>
      <trkpt lat="44.88539" lon="5.64228">
        <ele>760.4</ele>
        <time>2021-04-22T13:41:16Z</time>
      </trkpt>
      <trkpt lat="44.88542" lon="5.64222">
        <ele>760.5</ele>
        <time>2021-04-22T13:41:17Z</time>
      </trkpt>
      <trkpt lat="44.88545" lon="5.64217">
        <ele>760.6</ele>
        <time>2021-04-22T13:41:18Z</time>
      </trkpt>
      <trkpt lat="44.88549" lon="5.64208">
        <ele>760.8</ele>
        <time>2021-04-22T13:41:20Z</time>
      </trkpt>
      <trkpt lat="44.88552" lon="5.64203">
        <ele>760.9</ele>
        <time>2021-04-22T13:41:21Z</time>
      </trkpt>
      <trkpt lat="44.88556" lon="5.64195">
        <ele>761</ele>
        <time>2021-04-22T13:41:23Z</time>
      </trkpt>
      <trkpt lat="44.88562" lon="5.64186">
        <ele>761.2</ele>
        <time>2021-04-22T13:41:25Z</time>
      </trkpt>
      <trkpt lat="44.88566" lon="5.64178">
        <ele>761.4</ele>
        <time>2021-04-22T13:41:27Z</time>
      </trkpt>
      <trkpt lat="44.88568" lon="5.64174">
        <ele>761.5</ele>
        <time>2021-04-22T13:41:28Z</time>
      </trkpt>
      <trkpt lat="44.88572" lon="5.6417">
        <ele>761.6</ele>
        <time>2021-04-22T13:41:29Z</time>
      </trkpt>
      <trkpt lat="44.88575" lon="5.64165">
        <ele>761.7</ele>
        <time>2021-04-22T13:41:30Z</time>
      </trkpt>
      <trkpt lat="44.88579" lon="5.64158">
        <ele>761.9</ele>
        <time>2021-04-22T13:41:32Z</time>
      </trkpt>
      <trkpt lat="44.88582" lon="5.64154">
        <ele>762</ele>
        <time>2021-04-22T13:41:33Z</time>
      </trkpt>
      <trkpt lat="44.88585" lon="5.64149">
        <ele>762.2</ele>
        <time>2021-04-22T13:41:34Z</time>
      </trkpt>
      <trkpt lat="44.88589" lon="5.64143">
        <ele>762.4</ele>
        <time>2021-04-22T13:41:36Z</time>
      </trkpt>
      <trkpt lat="44.88593" lon="5.64136">
        <ele>762.6</ele>
        <time>2021-04-22T13:41:38Z</time>
      </trkpt>
      <trkpt lat="44.88595" lon="5.64131">
        <ele>762.7</ele>
        <time>2021-04-22T13:41:39Z</time>
      </trkpt>
      <trkpt lat="44.88597" lon="5.64125">
        <ele>762.8</ele>
        <time>2021-04-22T13:41:40Z</time>
      </trkpt>
      <trkpt lat="44.886" lon="5.64116">
        <ele>763</ele>
        <time>2021-04-22T13:41:42Z</time>
      </trkpt>
      <trkpt lat="44.88602" lon="5.64107">
        <ele>763.1</ele>
        <time>2021-04-22T13:41:44Z</time>
      </trkpt>
      <trkpt lat="44.88604" lon="5.641">
        <ele>763.2</ele>
        <time>2021-04-22T13:41:45Z</time>
      </trkpt>
      <trkpt lat="44.88605" lon="5.6409">
        <ele>763.4</ele>
        <time>2021-04-22T13:41:47Z</time>
      </trkpt>
      <trkpt lat="44.88605" lon="5.64081">
        <ele>763.6</ele>
        <time>2021-04-22T13:41:49Z</time>
      </trkpt>
      <trkpt lat="44.88606" lon="5.64073">
        <ele>763.7</ele>
        <time>2021-04-22T13:41:50Z</time>
      </trkpt>
      <trkpt lat="44.88607" lon="5.64065">
        <ele>763.9</ele>
        <time>2021-04-22T13:41:52Z</time>
      </trkpt>
      <trkpt lat="44.88607" lon="5.64058">
        <ele>764</ele>
        <time>2021-04-22T13:41:53Z</time>
      </trkpt>
      <trkpt lat="44.88607" lon="5.64049">
        <ele>764.2</ele>
        <time>2021-04-22T13:41:55Z</time>
      </trkpt>
      <trkpt lat="44.88607" lon="5.64042">
        <ele>764.3</ele>
        <time>2021-04-22T13:41:56Z</time>
      </trkpt>
      <trkpt lat="44.88607" lon="5.64035">
        <ele>764.4</ele>
        <time>2021-04-22T13:41:57Z</time>
      </trkpt>
      <trkpt lat="44.88607" lon="5.6403">
        <ele>764.5</ele>
        <time>2021-04-22T13:41:58Z</time>
      </trkpt>
      <trkpt lat="44.88606" lon="5.64024">
        <ele>764.7</ele>
        <time>2021-04-22T13:41:59Z</time>
      </trkpt>
      <trkpt lat="44.88606" lon="5.64016">
        <ele>764.8</ele>
        <time>2021-04-22T13:42:01Z</time>
      </trkpt>
      <trkpt lat="44.88607" lon="5.64007">
        <ele>765</ele>
        <time>2021-04-22T13:42:03Z</time>
      </trkpt>
      <trkpt lat="44.88607" lon="5.64">
        <ele>765.2</ele>
        <time>2021-04-22T13:42:04Z</time>
      </trkpt>
      <trkpt lat="44.88607" lon="5.63992">
        <ele>765.4</ele>
        <time>2021-04-22T13:42:06Z</time>
      </trkpt>
      <trkpt lat="44.88607" lon="5.63988">
        <ele>765.4</ele>
        <time>2021-04-22T13:42:07Z</time>
      </trkpt>
      <trkpt lat="44.88607" lon="5.63979">
        <ele>765.4</ele>
        <time>2021-04-22T13:42:09Z</time>
      </trkpt>
      <trkpt lat="44.88607" lon="5.63974">
        <ele>765.5</ele>
        <time>2021-04-22T13:42:10Z</time>
      </trkpt>
      <trkpt lat="44.88607" lon="5.63962">
        <ele>765.5</ele>
        <time>2021-04-22T13:42:12Z</time>
      </trkpt>
      <trkpt lat="44.88606" lon="5.63953">
        <ele>765.6</ele>
        <time>2021-04-22T13:42:14Z</time>
      </trkpt>
      <trkpt lat="44.88607" lon="5.63946">
        <ele>765.7</ele>
        <time>2021-04-22T13:42:16Z</time>
      </trkpt>
      <trkpt lat="44.88608" lon="5.63939">
        <ele>765.7</ele>
        <time>2021-04-22T13:42:17Z</time>
      </trkpt>
      <trkpt lat="44.88608" lon="5.6393">
        <ele>765.8</ele>
        <time>2021-04-22T13:42:19Z</time>
      </trkpt>
      <trkpt lat="44.88611" lon="5.63922">
        <ele>765.9</ele>
        <time>2021-04-22T13:42:21Z</time>
      </trkpt>
      <trkpt lat="44.88613" lon="5.63917">
        <ele>765.9</ele>
        <time>2021-04-22T13:42:22Z</time>
      </trkpt>
      <trkpt lat="44.88615" lon="5.63912">
        <ele>766.1</ele>
        <time>2021-04-22T13:42:23Z</time>
      </trkpt>
      <trkpt lat="44.88618" lon="5.63906">
        <ele>766.3</ele>
        <time>2021-04-22T13:42:25Z</time>
      </trkpt>
      <trkpt lat="44.88621" lon="5.63902">
        <ele>766.5</ele>
        <time>2021-04-22T13:42:26Z</time>
      </trkpt>
      <trkpt lat="44.88626" lon="5.63896">
        <ele>766.8</ele>
        <time>2021-04-22T13:42:28Z</time>
      </trkpt>
      <trkpt lat="44.88631" lon="5.63891">
        <ele>767.1</ele>
        <time>2021-04-22T13:42:30Z</time>
      </trkpt>
      <trkpt lat="44.88635" lon="5.63885">
        <ele>767.4</ele>
        <time>2021-04-22T13:42:32Z</time>
      </trkpt>
      <trkpt lat="44.88641" lon="5.6388">
        <ele>767.7</ele>
        <time>2021-04-22T13:42:34Z</time>
      </trkpt>
      <trkpt lat="44.88643" lon="5.63878">
        <ele>767.8</ele>
        <time>2021-04-22T13:42:35Z</time>
      </trkpt>
      <trkpt lat="44.88647" lon="5.63875">
        <ele>768</ele>
        <time>2021-04-22T13:42:37Z</time>
      </trkpt>
      <trkpt lat="44.8865" lon="5.63873">
        <ele>768.2</ele>
        <time>2021-04-22T13:42:38Z</time>
      </trkpt>
      <trkpt lat="44.88656" lon="5.63871">
        <ele>768.5</ele>
        <time>2021-04-22T13:42:40Z</time>
      </trkpt>
      <trkpt lat="44.88658" lon="5.63868">
        <ele>768.6</ele>
        <time>2021-04-22T13:42:41Z</time>
      </trkpt>
      <trkpt lat="44.88662" lon="5.63864">
        <ele>768.9</ele>
        <time>2021-04-22T13:42:42Z</time>
      </trkpt>
      <trkpt lat="44.88666" lon="5.63862">
        <ele>769.1</ele>
        <time>2021-04-22T13:42:44Z</time>
      </trkpt>
      <trkpt lat="44.88669" lon="5.6386">
        <ele>769.3</ele>
        <time>2021-04-22T13:42:45Z</time>
      </trkpt>
      <trkpt lat="44.88674" lon="5.63857">
        <ele>769.6</ele>
        <time>2021-04-22T13:42:46Z</time>
      </trkpt>
      <trkpt lat="44.88677" lon="5.63855">
        <ele>769.8</ele>
        <time>2021-04-22T13:42:48Z</time>
      </trkpt>
      <trkpt lat="44.88681" lon="5.63853">
        <ele>770</ele>
        <time>2021-04-22T13:42:49Z</time>
      </trkpt>
      <trkpt lat="44.88685" lon="5.63852">
        <ele>770.2</ele>
        <time>2021-04-22T13:42:50Z</time>
      </trkpt>
      <trkpt lat="44.88689" lon="5.63851">
        <ele>770.4</ele>
        <time>2021-04-22T13:42:52Z</time>
      </trkpt>
      <trkpt lat="44.88694" lon="5.63852">
        <ele>770.7</ele>
        <time>2021-04-22T13:42:54Z</time>
      </trkpt>
      <trkpt lat="44.88698" lon="5.63851">
        <ele>770.9</ele>
        <time>2021-04-22T13:42:55Z</time>
      </trkpt>
      <trkpt lat="44.88702" lon="5.6385">
        <ele>771.1</ele>
        <time>2021-04-22T13:42:57Z</time>
      </trkpt>
      <trkpt lat="44.88708" lon="5.6385">
        <ele>771.5</ele>
        <time>2021-04-22T13:42:59Z</time>
      </trkpt>
      <trkpt lat="44.88713" lon="5.63851">
        <ele>771.8</ele>
        <time>2021-04-22T13:43:01Z</time>
      </trkpt>
      <trkpt lat="44.88718" lon="5.63851">
        <ele>772.1</ele>
        <time>2021-04-22T13:43:03Z</time>
      </trkpt>
      <trkpt lat="44.88723" lon="5.6385">
        <ele>772.1</ele>
        <time>2021-04-22T13:43:05Z</time>
      </trkpt>
      <trkpt lat="44.88727" lon="5.63851">
        <ele>772.1</ele>
        <time>2021-04-22T13:43:06Z</time>
      </trkpt>
      <trkpt lat="44.88732" lon="5.63851">
        <ele>772.3</ele>
        <time>2021-04-22T13:43:08Z</time>
      </trkpt>
      <trkpt lat="44.88735" lon="5.6385">
        <ele>772.4</ele>
        <time>2021-04-22T13:43:09Z</time>
      </trkpt>
      <trkpt lat="44.88741" lon="5.63849">
        <ele>772.6</ele>
        <time>2021-04-22T13:43:11Z</time>
      </trkpt>
      <trkpt lat="44.88747" lon="5.63847">
        <ele>772.9</ele>
        <time>2021-04-22T13:43:13Z</time>
      </trkpt>
      <trkpt lat="44.88752" lon="5.63846">
        <ele>773.1</ele>
        <time>2021-04-22T13:43:14Z</time>
      </trkpt>
      <trkpt lat="44.88757" lon="5.63842">
        <ele>773.3</ele>
        <time>2021-04-22T13:43:16Z</time>
      </trkpt>
      <trkpt lat="44.8876" lon="5.6384">
        <ele>773.4</ele>
        <time>2021-04-22T13:43:17Z</time>
      </trkpt>
      <trkpt lat="44.88764" lon="5.63838">
        <ele>773.6</ele>
        <time>2021-04-22T13:43:18Z</time>
      </trkpt>
      <trkpt lat="44.88768" lon="5.63834">
        <ele>773.8</ele>
        <time>2021-04-22T13:43:20Z</time>
      </trkpt>
      <trkpt lat="44.88771" lon="5.63831">
        <ele>773.9</ele>
        <time>2021-04-22T13:43:21Z</time>
      </trkpt>
      <trkpt lat="44.88776" lon="5.63827">
        <ele>774.1</ele>
        <time>2021-04-22T13:43:23Z</time>
      </trkpt>
      <trkpt lat="44.88782" lon="5.63823">
        <ele>774.4</ele>
        <time>2021-04-22T13:43:25Z</time>
      </trkpt>
      <trkpt lat="44.88785" lon="5.6382">
        <ele>774.5</ele>
        <time>2021-04-22T13:43:26Z</time>
      </trkpt>
      <trkpt lat="44.88789" lon="5.63817">
        <ele>774.7</ele>
        <time>2021-04-22T13:43:27Z</time>
      </trkpt>
      <trkpt lat="44.88793" lon="5.63815">
        <ele>774.9</ele>
        <time>2021-04-22T13:43:29Z</time>
      </trkpt>
      <trkpt lat="44.88794" lon="5.63813">
        <ele>775</ele>
        <time>2021-04-22T13:43:30Z</time>
      </trkpt>
      <trkpt lat="44.88799" lon="5.63809">
        <ele>775.2</ele>
        <time>2021-04-22T13:43:31Z</time>
      </trkpt>
      <trkpt lat="44.88802" lon="5.63807">
        <ele>775.3</ele>
        <time>2021-04-22T13:43:32Z</time>
      </trkpt>
      <trkpt lat="44.88806" lon="5.63804">
        <ele>775.5</ele>
        <time>2021-04-22T13:43:34Z</time>
      </trkpt>
      <trkpt lat="44.88809" lon="5.63801">
        <ele>775.7</ele>
        <time>2021-04-22T13:43:35Z</time>
      </trkpt>
      <trkpt lat="44.88813" lon="5.63798">
        <ele>775.9</ele>
        <time>2021-04-22T13:43:36Z</time>
      </trkpt>
      <trkpt lat="44.88816" lon="5.63796">
        <ele>776</ele>
        <time>2021-04-22T13:43:37Z</time>
      </trkpt>
      <trkpt lat="44.88819" lon="5.63793">
        <ele>776.2</ele>
        <time>2021-04-22T13:43:38Z</time>
      </trkpt>
      <trkpt lat="44.88823" lon="5.6379">
        <ele>776.3</ele>
        <time>2021-04-22T13:43:40Z</time>
      </trkpt>
      <trkpt lat="44.88826" lon="5.63788">
        <ele>776.5</ele>
        <time>2021-04-22T13:43:41Z</time>
      </trkpt>
      <trkpt lat="44.8883" lon="5.63785">
        <ele>776.7</ele>
        <time>2021-04-22T13:43:42Z</time>
      </trkpt>
      <trkpt lat="44.88836" lon="5.63782">
        <ele>776.9</ele>
        <time>2021-04-22T13:43:44Z</time>
      </trkpt>
      <trkpt lat="44.88839" lon="5.6378">
        <ele>777.1</ele>
        <time>2021-04-22T13:43:45Z</time>
      </trkpt>
      <trkpt lat="44.88843" lon="5.63777">
        <ele>777.2</ele>
        <time>2021-04-22T13:43:46Z</time>
      </trkpt>
      <trkpt lat="44.88848" lon="5.63773">
        <ele>777.5</ele>
        <time>2021-04-22T13:43:48Z</time>
      </trkpt>
      <trkpt lat="44.88852" lon="5.63771">
        <ele>777.7</ele>
        <time>2021-04-22T13:43:49Z</time>
      </trkpt>
      <trkpt lat="44.88857" lon="5.63767">
        <ele>778</ele>
        <time>2021-04-22T13:43:51Z</time>
      </trkpt>
      <trkpt lat="44.8886" lon="5.63764">
        <ele>778.2</ele>
        <time>2021-04-22T13:43:52Z</time>
      </trkpt>
      <trkpt lat="44.88865" lon="5.63761">
        <ele>778.4</ele>
        <time>2021-04-22T13:43:53Z</time>
      </trkpt>
      <trkpt lat="44.88869" lon="5.63758">
        <ele>778.6</ele>
        <time>2021-04-22T13:43:55Z</time>
      </trkpt>
      <trkpt lat="44.88874" lon="5.63754">
        <ele>778.9</ele>
        <time>2021-04-22T13:43:57Z</time>
      </trkpt>
      <trkpt lat="44.88878" lon="5.6375">
        <ele>779.1</ele>
        <time>2021-04-22T13:43:58Z</time>
      </trkpt>
      <trkpt lat="44.88881" lon="5.63747">
        <ele>779.3</ele>
        <time>2021-04-22T13:44:00Z</time>
      </trkpt>
      <trkpt lat="44.88882" lon="5.63746">
        <ele>779.4</ele>
        <time>2021-04-22T13:44:01Z</time>
      </trkpt>
      <trkpt lat="44.88886" lon="5.63742">
        <ele>779.6</ele>
        <time>2021-04-22T13:44:03Z</time>
      </trkpt>
      <trkpt lat="44.88888" lon="5.63739">
        <ele>779.8</ele>
        <time>2021-04-22T13:44:04Z</time>
      </trkpt>
      <trkpt lat="44.88892" lon="5.63735">
        <ele>780</ele>
        <time>2021-04-22T13:44:05Z</time>
      </trkpt>
      <trkpt lat="44.88895" lon="5.63731">
        <ele>780.2</ele>
        <time>2021-04-22T13:44:07Z</time>
      </trkpt>
      <trkpt lat="44.88898" lon="5.63728">
        <ele>780.4</ele>
        <time>2021-04-22T13:44:08Z</time>
      </trkpt>
      <trkpt lat="44.88903" lon="5.63725">
        <ele>780.6</ele>
        <time>2021-04-22T13:44:10Z</time>
      </trkpt>
      <trkpt lat="44.88906" lon="5.63722">
        <ele>780.8</ele>
        <time>2021-04-22T13:44:11Z</time>
      </trkpt>
      <trkpt lat="44.88908" lon="5.6372">
        <ele>780.9</ele>
        <time>2021-04-22T13:44:12Z</time>
      </trkpt>
      <trkpt lat="44.88912" lon="5.63715">
        <ele>781.2</ele>
        <time>2021-04-22T13:44:14Z</time>
      </trkpt>
      <trkpt lat="44.88915" lon="5.63713">
        <ele>781.3</ele>
        <time>2021-04-22T13:44:15Z</time>
      </trkpt>
      <trkpt lat="44.88919" lon="5.63709">
        <ele>781.5</ele>
        <time>2021-04-22T13:44:17Z</time>
      </trkpt>
      <trkpt lat="44.88922" lon="5.63706">
        <ele>781.7</ele>
        <time>2021-04-22T13:44:18Z</time>
      </trkpt>
      <trkpt lat="44.88925" lon="5.63702">
        <ele>781.8</ele>
        <time>2021-04-22T13:44:19Z</time>
      </trkpt>
      <trkpt lat="44.88928" lon="5.637">
        <ele>782</ele>
        <time>2021-04-22T13:44:20Z</time>
      </trkpt>
      <trkpt lat="44.88931" lon="5.63696">
        <ele>782.2</ele>
        <time>2021-04-22T13:44:21Z</time>
      </trkpt>
      <trkpt lat="44.88936" lon="5.63694">
        <ele>782.4</ele>
        <time>2021-04-22T13:44:23Z</time>
      </trkpt>
      <trkpt lat="44.88938" lon="5.6369">
        <ele>782.5</ele>
        <time>2021-04-22T13:44:24Z</time>
      </trkpt>
      <trkpt lat="44.88942" lon="5.63685">
        <ele>782.7</ele>
        <time>2021-04-22T13:44:25Z</time>
      </trkpt>
      <trkpt lat="44.88945" lon="5.63682">
        <ele>782.9</ele>
        <time>2021-04-22T13:44:27Z</time>
      </trkpt>
      <trkpt lat="44.88946" lon="5.63681">
        <ele>782.9</ele>
        <time>2021-04-22T13:44:28Z</time>
      </trkpt>
      <trkpt lat="44.88948" lon="5.63678">
        <ele>783.1</ele>
        <time>2021-04-22T13:44:29Z</time>
      </trkpt>
      <trkpt lat="44.8895" lon="5.63676">
        <ele>783.2</ele>
        <time>2021-04-22T13:44:30Z</time>
      </trkpt>
      <trkpt lat="44.88955" lon="5.63671">
        <ele>783.5</ele>
        <time>2021-04-22T13:44:32Z</time>
      </trkpt>
      <trkpt lat="44.88957" lon="5.63669">
        <ele>783.6</ele>
        <time>2021-04-22T13:44:33Z</time>
      </trkpt>
      <trkpt lat="44.8896" lon="5.63666">
        <ele>783.8</ele>
        <time>2021-04-22T13:44:34Z</time>
      </trkpt>
      <trkpt lat="44.88963" lon="5.63662">
        <ele>784</ele>
        <time>2021-04-22T13:44:36Z</time>
      </trkpt>
      <trkpt lat="44.88966" lon="5.63658">
        <ele>784.2</ele>
        <time>2021-04-22T13:44:37Z</time>
      </trkpt>
      <trkpt lat="44.88971" lon="5.63655">
        <ele>784.5</ele>
        <time>2021-04-22T13:44:39Z</time>
      </trkpt>
      <trkpt lat="44.88974" lon="5.63652">
        <ele>784.7</ele>
        <time>2021-04-22T13:44:40Z</time>
      </trkpt>
      <trkpt lat="44.88977" lon="5.63648">
        <ele>784.9</ele>
        <time>2021-04-22T13:44:41Z</time>
      </trkpt>
      <trkpt lat="44.88978" lon="5.63647">
        <ele>784.9</ele>
        <time>2021-04-22T13:44:42Z</time>
      </trkpt>
      <trkpt lat="44.88981" lon="5.63645">
        <ele>785.1</ele>
        <time>2021-04-22T13:44:44Z</time>
      </trkpt>
      <trkpt lat="44.88984" lon="5.63642">
        <ele>785.3</ele>
        <time>2021-04-22T13:44:45Z</time>
      </trkpt>
      <trkpt lat="44.88987" lon="5.63637">
        <ele>785.5</ele>
        <time>2021-04-22T13:44:46Z</time>
      </trkpt>
      <trkpt lat="44.8899" lon="5.63634">
        <ele>785.7</ele>
        <time>2021-04-22T13:44:48Z</time>
      </trkpt>
      <trkpt lat="44.88993" lon="5.6363">
        <ele>785.9</ele>
        <time>2021-04-22T13:44:50Z</time>
      </trkpt>
      <trkpt lat="44.88995" lon="5.63629">
        <ele>786</ele>
        <time>2021-04-22T13:44:51Z</time>
      </trkpt>
      <trkpt lat="44.89" lon="5.63624">
        <ele>786.3</ele>
        <time>2021-04-22T13:44:53Z</time>
      </trkpt>
      <trkpt lat="44.89003" lon="5.63621">
        <ele>786.5</ele>
        <time>2021-04-22T13:44:54Z</time>
      </trkpt>
      <trkpt lat="44.89007" lon="5.63617">
        <ele>786.7</ele>
        <time>2021-04-22T13:44:56Z</time>
      </trkpt>
      <trkpt lat="44.89012" lon="5.6361">
        <ele>787</ele>
        <time>2021-04-22T13:44:58Z</time>
      </trkpt>
      <trkpt lat="44.89017" lon="5.63605">
        <ele>787.3</ele>
        <time>2021-04-22T13:45:00Z</time>
      </trkpt>
      <trkpt lat="44.8902" lon="5.63602">
        <ele>787.5</ele>
        <time>2021-04-22T13:45:01Z</time>
      </trkpt>
      <trkpt lat="44.89025" lon="5.63596">
        <ele>787.8</ele>
        <time>2021-04-22T13:45:03Z</time>
      </trkpt>
      <trkpt lat="44.89029" lon="5.63592">
        <ele>788</ele>
        <time>2021-04-22T13:45:05Z</time>
      </trkpt>
      <trkpt lat="44.89032" lon="5.63589">
        <ele>788.1</ele>
        <time>2021-04-22T13:45:06Z</time>
      </trkpt>
      <trkpt lat="44.89037" lon="5.63584">
        <ele>788.4</ele>
        <time>2021-04-22T13:45:08Z</time>
      </trkpt>
      <trkpt lat="44.8904" lon="5.63582">
        <ele>788.5</ele>
        <time>2021-04-22T13:45:09Z</time>
      </trkpt>
      <trkpt lat="44.89044" lon="5.63578">
        <ele>788.7</ele>
        <time>2021-04-22T13:45:11Z</time>
      </trkpt>
      <trkpt lat="44.89047" lon="5.63577">
        <ele>788.9</ele>
        <time>2021-04-22T13:45:12Z</time>
      </trkpt>
      <trkpt lat="44.89052" lon="5.63573">
        <ele>789.1</ele>
        <time>2021-04-22T13:45:14Z</time>
      </trkpt>
      <trkpt lat="44.89055" lon="5.6357">
        <ele>789.3</ele>
        <time>2021-04-22T13:45:15Z</time>
      </trkpt>
      <trkpt lat="44.89056" lon="5.63568">
        <ele>789.3</ele>
        <time>2021-04-22T13:45:16Z</time>
      </trkpt>
      <trkpt lat="44.89059" lon="5.63565">
        <ele>789.5</ele>
        <time>2021-04-22T13:45:17Z</time>
      </trkpt>
      <trkpt lat="44.89062" lon="5.63563">
        <ele>789.6</ele>
        <time>2021-04-22T13:45:18Z</time>
      </trkpt>
      <trkpt lat="44.89065" lon="5.6356">
        <ele>789.8</ele>
        <time>2021-04-22T13:45:20Z</time>
      </trkpt>
      <trkpt lat="44.89068" lon="5.63557">
        <ele>789.9</ele>
        <time>2021-04-22T13:45:21Z</time>
      </trkpt>
      <trkpt lat="44.89071" lon="5.63554">
        <ele>790.1</ele>
        <time>2021-04-22T13:45:22Z</time>
      </trkpt>
      <trkpt lat="44.89075" lon="5.63551">
        <ele>790.3</ele>
        <time>2021-04-22T13:45:24Z</time>
      </trkpt>
      <trkpt lat="44.89078" lon="5.63548">
        <ele>790.4</ele>
        <time>2021-04-22T13:45:25Z</time>
      </trkpt>
      <trkpt lat="44.89081" lon="5.63547">
        <ele>790.6</ele>
        <time>2021-04-22T13:45:27Z</time>
      </trkpt>
      <trkpt lat="44.89085" lon="5.63543">
        <ele>790.8</ele>
        <time>2021-04-22T13:45:29Z</time>
      </trkpt>
      <trkpt lat="44.89087" lon="5.6354">
        <ele>790.9</ele>
        <time>2021-04-22T13:45:30Z</time>
      </trkpt>
      <trkpt lat="44.89092" lon="5.63537">
        <ele>791.1</ele>
        <time>2021-04-22T13:45:32Z</time>
      </trkpt>
      <trkpt lat="44.89095" lon="5.63535">
        <ele>791.3</ele>
        <time>2021-04-22T13:45:33Z</time>
      </trkpt>
      <trkpt lat="44.891" lon="5.63529">
        <ele>791.5</ele>
        <time>2021-04-22T13:45:35Z</time>
      </trkpt>
      <trkpt lat="44.89104" lon="5.63526">
        <ele>791.7</ele>
        <time>2021-04-22T13:45:37Z</time>
      </trkpt>
      <trkpt lat="44.89107" lon="5.63523">
        <ele>791.9</ele>
        <time>2021-04-22T13:45:38Z</time>
      </trkpt>
      <trkpt lat="44.89109" lon="5.63522">
        <ele>792</ele>
        <time>2021-04-22T13:45:39Z</time>
      </trkpt>
      <trkpt lat="44.89113" lon="5.63518">
        <ele>792.2</ele>
        <time>2021-04-22T13:45:41Z</time>
      </trkpt>
      <trkpt lat="44.89116" lon="5.63516">
        <ele>792.4</ele>
        <time>2021-04-22T13:45:42Z</time>
      </trkpt>
      <trkpt lat="44.8912" lon="5.63513">
        <ele>792.6</ele>
        <time>2021-04-22T13:45:43Z</time>
      </trkpt>
      <trkpt lat="44.89123" lon="5.63511">
        <ele>792.7</ele>
        <time>2021-04-22T13:45:45Z</time>
      </trkpt>
      <trkpt lat="44.89124" lon="5.6351">
        <ele>792.8</ele>
        <time>2021-04-22T13:45:46Z</time>
      </trkpt>
      <trkpt lat="44.89128" lon="5.63506">
        <ele>793</ele>
        <time>2021-04-22T13:45:48Z</time>
      </trkpt>
      <trkpt lat="44.89132" lon="5.63502">
        <ele>793.3</ele>
        <time>2021-04-22T13:45:49Z</time>
      </trkpt>
      <trkpt lat="44.89134" lon="5.635">
        <ele>793.4</ele>
        <time>2021-04-22T13:45:50Z</time>
      </trkpt>
      <trkpt lat="44.89137" lon="5.63497">
        <ele>793.6</ele>
        <time>2021-04-22T13:45:52Z</time>
      </trkpt>
      <trkpt lat="44.89141" lon="5.63494">
        <ele>793.8</ele>
        <time>2021-04-22T13:45:53Z</time>
      </trkpt>
      <trkpt lat="44.89144" lon="5.6349">
        <ele>794</ele>
        <time>2021-04-22T13:45:54Z</time>
      </trkpt>
      <trkpt lat="44.89148" lon="5.63488">
        <ele>794.2</ele>
        <time>2021-04-22T13:45:56Z</time>
      </trkpt>
      <trkpt lat="44.89149" lon="5.63487">
        <ele>794.3</ele>
        <time>2021-04-22T13:45:57Z</time>
      </trkpt>
      <trkpt lat="44.89152" lon="5.63483">
        <ele>794.5</ele>
        <time>2021-04-22T13:45:59Z</time>
      </trkpt>
      <trkpt lat="44.89155" lon="5.63479">
        <ele>794.7</ele>
        <time>2021-04-22T13:46:01Z</time>
      </trkpt>
      <trkpt lat="44.89156" lon="5.63478">
        <ele>794.8</ele>
        <time>2021-04-22T13:46:02Z</time>
      </trkpt>
      <trkpt lat="44.8916" lon="5.63473">
        <ele>795</ele>
        <time>2021-04-22T13:46:04Z</time>
      </trkpt>
      <trkpt lat="44.89162" lon="5.63471">
        <ele>795.2</ele>
        <time>2021-04-22T13:46:05Z</time>
      </trkpt>
      <trkpt lat="44.89167" lon="5.63468">
        <ele>795.4</ele>
        <time>2021-04-22T13:46:07Z</time>
      </trkpt>
      <trkpt lat="44.8917" lon="5.63465">
        <ele>795.6</ele>
        <time>2021-04-22T13:46:08Z</time>
      </trkpt>
      <trkpt lat="44.89173" lon="5.63462">
        <ele>795.8</ele>
        <time>2021-04-22T13:46:09Z</time>
      </trkpt>
      <trkpt lat="44.89176" lon="5.63458">
        <ele>796</ele>
        <time>2021-04-22T13:46:11Z</time>
      </trkpt>
      <trkpt lat="44.8918" lon="5.63455">
        <ele>796.2</ele>
        <time>2021-04-22T13:46:13Z</time>
      </trkpt>
      <trkpt lat="44.89183" lon="5.63452">
        <ele>796.4</ele>
        <time>2021-04-22T13:46:15Z</time>
      </trkpt>
      <trkpt lat="44.89186" lon="5.6345">
        <ele>796.5</ele>
        <time>2021-04-22T13:46:16Z</time>
      </trkpt>
      <trkpt lat="44.8919" lon="5.63446">
        <ele>796.7</ele>
        <time>2021-04-22T13:46:18Z</time>
      </trkpt>
      <trkpt lat="44.89192" lon="5.63444">
        <ele>796.9</ele>
        <time>2021-04-22T13:46:19Z</time>
      </trkpt>
      <trkpt lat="44.89197" lon="5.63439">
        <ele>797.1</ele>
        <time>2021-04-22T13:46:21Z</time>
      </trkpt>
      <trkpt lat="44.892" lon="5.63437">
        <ele>797.3</ele>
        <time>2021-04-22T13:46:22Z</time>
      </trkpt>
      <trkpt lat="44.89204" lon="5.63434">
        <ele>797.5</ele>
        <time>2021-04-22T13:46:24Z</time>
      </trkpt>
      <trkpt lat="44.89209" lon="5.63432">
        <ele>797.7</ele>
        <time>2021-04-22T13:46:26Z</time>
      </trkpt>
      <trkpt lat="44.89215" lon="5.6343">
        <ele>797.9</ele>
        <time>2021-04-22T13:46:28Z</time>
      </trkpt>
      <trkpt lat="44.89217" lon="5.63429">
        <ele>798</ele>
        <time>2021-04-22T13:46:29Z</time>
      </trkpt>
      <trkpt lat="44.89223" lon="5.63429">
        <ele>798.3</ele>
        <time>2021-04-22T13:46:31Z</time>
      </trkpt>
      <trkpt lat="44.89227" lon="5.6343">
        <ele>798.5</ele>
        <time>2021-04-22T13:46:33Z</time>
      </trkpt>
      <trkpt lat="44.89231" lon="5.63431">
        <ele>798.6</ele>
        <time>2021-04-22T13:46:34Z</time>
      </trkpt>
      <trkpt lat="44.89236" lon="5.63433">
        <ele>798.9</ele>
        <time>2021-04-22T13:46:36Z</time>
      </trkpt>
      <trkpt lat="44.8924" lon="5.63437">
        <ele>799.1</ele>
        <time>2021-04-22T13:46:38Z</time>
      </trkpt>
      <trkpt lat="44.89245" lon="5.63441">
        <ele>799.3</ele>
        <time>2021-04-22T13:46:40Z</time>
      </trkpt>
      <trkpt lat="44.89248" lon="5.63443">
        <ele>799.5</ele>
        <time>2021-04-22T13:46:41Z</time>
      </trkpt>
      <trkpt lat="44.89251" lon="5.63447">
        <ele>799.6</ele>
        <time>2021-04-22T13:46:42Z</time>
      </trkpt>
      <trkpt lat="44.89252" lon="5.63448">
        <ele>799.7</ele>
        <time>2021-04-22T13:46:43Z</time>
      </trkpt>
      <trkpt lat="44.89255" lon="5.63455">
        <ele>800</ele>
        <time>2021-04-22T13:46:45Z</time>
      </trkpt>
      <trkpt lat="44.89256" lon="5.63457">
        <ele>800.1</ele>
        <time>2021-04-22T13:46:46Z</time>
      </trkpt>
      <trkpt lat="44.89257" lon="5.63459">
        <ele>800.2</ele>
        <time>2021-04-22T13:46:47Z</time>
      </trkpt>
      <trkpt lat="44.89261" lon="5.63464">
        <ele>800.4</ele>
        <time>2021-04-22T13:46:48Z</time>
      </trkpt>
      <trkpt lat="44.89264" lon="5.63468">
        <ele>800.6</ele>
        <time>2021-04-22T13:46:50Z</time>
      </trkpt>
      <trkpt lat="44.89266" lon="5.63472">
        <ele>800.7</ele>
        <time>2021-04-22T13:46:51Z</time>
      </trkpt>
      <trkpt lat="44.89268" lon="5.63474">
        <ele>800.8</ele>
        <time>2021-04-22T13:46:52Z</time>
      </trkpt>
      <trkpt lat="44.8927" lon="5.63477">
        <ele>801</ele>
        <time>2021-04-22T13:46:53Z</time>
      </trkpt>
      <trkpt lat="44.89274" lon="5.63482">
        <ele>801.2</ele>
        <time>2021-04-22T13:46:55Z</time>
      </trkpt>
      <trkpt lat="44.89276" lon="5.63486">
        <ele>801.4</ele>
        <time>2021-04-22T13:46:56Z</time>
      </trkpt>
      <trkpt lat="44.89277" lon="5.63488">
        <ele>801.5</ele>
        <time>2021-04-22T13:46:57Z</time>
      </trkpt>
      <trkpt lat="44.89279" lon="5.63491">
        <ele>801.7</ele>
        <time>2021-04-22T13:46:58Z</time>
      </trkpt>
      <trkpt lat="44.89281" lon="5.63495">
        <ele>801.8</ele>
        <time>2021-04-22T13:47:00Z</time>
      </trkpt>
      <trkpt lat="44.89283" lon="5.63498">
        <ele>802</ele>
        <time>2021-04-22T13:47:01Z</time>
      </trkpt>
      <trkpt lat="44.89286" lon="5.63502">
        <ele>802.2</ele>
        <time>2021-04-22T13:47:02Z</time>
      </trkpt>
      <trkpt lat="44.89288" lon="5.63505">
        <ele>802.3</ele>
        <time>2021-04-22T13:47:03Z</time>
      </trkpt>
      <trkpt lat="44.8929" lon="5.63508">
        <ele>802.5</ele>
        <time>2021-04-22T13:47:04Z</time>
      </trkpt>
      <trkpt lat="44.89293" lon="5.63512">
        <ele>802.7</ele>
        <time>2021-04-22T13:47:06Z</time>
      </trkpt>
      <trkpt lat="44.89296" lon="5.63515">
        <ele>802.8</ele>
        <time>2021-04-22T13:47:07Z</time>
      </trkpt>
      <trkpt lat="44.89297" lon="5.63517">
        <ele>802.9</ele>
        <time>2021-04-22T13:47:08Z</time>
      </trkpt>
      <trkpt lat="44.893" lon="5.63522">
        <ele>803.1</ele>
        <time>2021-04-22T13:47:10Z</time>
      </trkpt>
      <trkpt lat="44.89302" lon="5.63524">
        <ele>803.3</ele>
        <time>2021-04-22T13:47:11Z</time>
      </trkpt>
      <trkpt lat="44.89305" lon="5.63527">
        <ele>803.4</ele>
        <time>2021-04-22T13:47:13Z</time>
      </trkpt>
      <trkpt lat="44.89307" lon="5.6353">
        <ele>803.6</ele>
        <time>2021-04-22T13:47:14Z</time>
      </trkpt>
      <trkpt lat="44.89311" lon="5.63534">
        <ele>803.8</ele>
        <time>2021-04-22T13:47:16Z</time>
      </trkpt>
      <trkpt lat="44.89314" lon="5.63536">
        <ele>803.9</ele>
        <time>2021-04-22T13:47:17Z</time>
      </trkpt>
      <trkpt lat="44.89317" lon="5.6354">
        <ele>804.2</ele>
        <time>2021-04-22T13:47:19Z</time>
      </trkpt>
      <trkpt lat="44.8932" lon="5.63542">
        <ele>804.3</ele>
        <time>2021-04-22T13:47:20Z</time>
      </trkpt>
      <trkpt lat="44.89325" lon="5.63546">
        <ele>804.6</ele>
        <time>2021-04-22T13:47:22Z</time>
      </trkpt>
      <trkpt lat="44.89328" lon="5.63548">
        <ele>804.8</ele>
        <time>2021-04-22T13:47:23Z</time>
      </trkpt>
      <trkpt lat="44.8933" lon="5.63549">
        <ele>804.9</ele>
        <time>2021-04-22T13:47:24Z</time>
      </trkpt>
      <trkpt lat="44.89334" lon="5.63552">
        <ele>805.1</ele>
        <time>2021-04-22T13:47:26Z</time>
      </trkpt>
      <trkpt lat="44.89338" lon="5.63555">
        <ele>805.4</ele>
        <time>2021-04-22T13:47:27Z</time>
      </trkpt>
      <trkpt lat="44.89344" lon="5.63558">
        <ele>805.7</ele>
        <time>2021-04-22T13:47:29Z</time>
      </trkpt>
      <trkpt lat="44.89346" lon="5.6356">
        <ele>805.9</ele>
        <time>2021-04-22T13:47:30Z</time>
      </trkpt>
      <trkpt lat="44.89349" lon="5.63562">
        <ele>806</ele>
        <time>2021-04-22T13:47:31Z</time>
      </trkpt>
      <trkpt lat="44.89353" lon="5.63563">
        <ele>806.3</ele>
        <time>2021-04-22T13:47:33Z</time>
      </trkpt>
      <trkpt lat="44.89357" lon="5.63565">
        <ele>806.6</ele>
        <time>2021-04-22T13:47:34Z</time>
      </trkpt>
      <trkpt lat="44.89358" lon="5.63565">
        <ele>806.7</ele>
        <time>2021-04-22T13:47:35Z</time>
      </trkpt>
      <trkpt lat="44.89362" lon="5.63567">
        <ele>806.9</ele>
        <time>2021-04-22T13:47:37Z</time>
      </trkpt>
      <trkpt lat="44.89366" lon="5.63568">
        <ele>807.1</ele>
        <time>2021-04-22T13:47:38Z</time>
      </trkpt>
      <trkpt lat="44.8937" lon="5.63569">
        <ele>807.4</ele>
        <time>2021-04-22T13:47:40Z</time>
      </trkpt>
      <trkpt lat="44.89373" lon="5.63569">
        <ele>807.6</ele>
        <time>2021-04-22T13:47:41Z</time>
      </trkpt>
      <trkpt lat="44.89378" lon="5.6357">
        <ele>807.8</ele>
        <time>2021-04-22T13:47:43Z</time>
      </trkpt>
      <trkpt lat="44.89381" lon="5.63568">
        <ele>808</ele>
        <time>2021-04-22T13:47:44Z</time>
      </trkpt>
      <trkpt lat="44.89385" lon="5.63568">
        <ele>808.2</ele>
        <time>2021-04-22T13:47:46Z</time>
      </trkpt>
      <trkpt lat="44.89387" lon="5.63567">
        <ele>808.3</ele>
        <time>2021-04-22T13:47:47Z</time>
      </trkpt>
      <trkpt lat="44.89391" lon="5.63566">
        <ele>808.5</ele>
        <time>2021-04-22T13:47:48Z</time>
      </trkpt>
      <trkpt lat="44.89396" lon="5.63562">
        <ele>808.8</ele>
        <time>2021-04-22T13:47:50Z</time>
      </trkpt>
      <trkpt lat="44.894" lon="5.6356">
        <ele>809.1</ele>
        <time>2021-04-22T13:47:51Z</time>
      </trkpt>
      <trkpt lat="44.89404" lon="5.63557">
        <ele>809.3</ele>
        <time>2021-04-22T13:47:52Z</time>
      </trkpt>
      <trkpt lat="44.8941" lon="5.63554">
        <ele>809.6</ele>
        <time>2021-04-22T13:47:54Z</time>
      </trkpt>
      <trkpt lat="44.89414" lon="5.63553">
        <ele>809.7</ele>
        <time>2021-04-22T13:47:55Z</time>
      </trkpt>
      <trkpt lat="44.89419" lon="5.63553">
        <ele>810</ele>
        <time>2021-04-22T13:47:57Z</time>
      </trkpt>
      <trkpt lat="44.89425" lon="5.63552">
        <ele>810.2</ele>
        <time>2021-04-22T13:47:59Z</time>
      </trkpt>
      <trkpt lat="44.89429" lon="5.63551">
        <ele>810.3</ele>
        <time>2021-04-22T13:48:00Z</time>
      </trkpt>
      <trkpt lat="44.89432" lon="5.63551">
        <ele>810.4</ele>
        <time>2021-04-22T13:48:01Z</time>
      </trkpt>
      <trkpt lat="44.89437" lon="5.6355">
        <ele>810.6</ele>
        <time>2021-04-22T13:48:02Z</time>
      </trkpt>
      <trkpt lat="44.89441" lon="5.6355">
        <ele>810.8</ele>
        <time>2021-04-22T13:48:04Z</time>
      </trkpt>
      <trkpt lat="44.89447" lon="5.63549">
        <ele>811</ele>
        <time>2021-04-22T13:48:06Z</time>
      </trkpt>
      <trkpt lat="44.89452" lon="5.63548">
        <ele>811.2</ele>
        <time>2021-04-22T13:48:08Z</time>
      </trkpt>
      <trkpt lat="44.89455" lon="5.63547">
        <ele>811.3</ele>
        <time>2021-04-22T13:48:09Z</time>
      </trkpt>
      <trkpt lat="44.89461" lon="5.63546">
        <ele>811.5</ele>
        <time>2021-04-22T13:48:11Z</time>
      </trkpt>
      <trkpt lat="44.89464" lon="5.63546">
        <ele>811.6</ele>
        <time>2021-04-22T13:48:12Z</time>
      </trkpt>
      <trkpt lat="44.89467" lon="5.63545">
        <ele>811.8</ele>
        <time>2021-04-22T13:48:13Z</time>
      </trkpt>
      <trkpt lat="44.89472" lon="5.63543">
        <ele>812</ele>
        <time>2021-04-22T13:48:15Z</time>
      </trkpt>
      <trkpt lat="44.89476" lon="5.63543">
        <ele>812.1</ele>
        <time>2021-04-22T13:48:16Z</time>
      </trkpt>
      <trkpt lat="44.8948" lon="5.63542">
        <ele>812.3</ele>
        <time>2021-04-22T13:48:17Z</time>
      </trkpt>
      <trkpt lat="44.89484" lon="5.63542">
        <ele>812.5</ele>
        <time>2021-04-22T13:48:18Z</time>
      </trkpt>
      <trkpt lat="44.89489" lon="5.63541">
        <ele>812.7</ele>
        <time>2021-04-22T13:48:20Z</time>
      </trkpt>
      <trkpt lat="44.89491" lon="5.63541">
        <ele>812.8</ele>
        <time>2021-04-22T13:48:21Z</time>
      </trkpt>
      <trkpt lat="44.89497" lon="5.6354">
        <ele>813.1</ele>
        <time>2021-04-22T13:48:23Z</time>
      </trkpt>
      <trkpt lat="44.89499" lon="5.63539">
        <ele>813.2</ele>
        <time>2021-04-22T13:48:24Z</time>
      </trkpt>
      <trkpt lat="44.89503" lon="5.63539">
        <ele>813.4</ele>
        <time>2021-04-22T13:48:25Z</time>
      </trkpt>
      <trkpt lat="44.89507" lon="5.63538">
        <ele>813.6</ele>
        <time>2021-04-22T13:48:26Z</time>
      </trkpt>
      <trkpt lat="44.89511" lon="5.63537">
        <ele>813.8</ele>
        <time>2021-04-22T13:48:27Z</time>
      </trkpt>
      <trkpt lat="44.89514" lon="5.63537">
        <ele>814</ele>
        <time>2021-04-22T13:48:29Z</time>
      </trkpt>
      <trkpt lat="44.89518" lon="5.63536">
        <ele>814.2</ele>
        <time>2021-04-22T13:48:30Z</time>
      </trkpt>
      <trkpt lat="44.89519" lon="5.63536">
        <ele>814.3</ele>
        <time>2021-04-22T13:48:31Z</time>
      </trkpt>
      <trkpt lat="44.89524" lon="5.63535">
        <ele>814.5</ele>
        <time>2021-04-22T13:48:33Z</time>
      </trkpt>
      <trkpt lat="44.89527" lon="5.63535">
        <ele>814.7</ele>
        <time>2021-04-22T13:48:34Z</time>
      </trkpt>
      <trkpt lat="44.89531" lon="5.63535">
        <ele>814.9</ele>
        <time>2021-04-22T13:48:35Z</time>
      </trkpt>
      <trkpt lat="44.89536" lon="5.63534">
        <ele>815.2</ele>
        <time>2021-04-22T13:48:36Z</time>
      </trkpt>
      <trkpt lat="44.89539" lon="5.63533">
        <ele>815.3</ele>
        <time>2021-04-22T13:48:38Z</time>
      </trkpt>
      <trkpt lat="44.89542" lon="5.63532">
        <ele>815.4</ele>
        <time>2021-04-22T13:48:39Z</time>
      </trkpt>
      <trkpt lat="44.89548" lon="5.63531">
        <ele>815.8</ele>
        <time>2021-04-22T13:48:41Z</time>
      </trkpt>
      <trkpt lat="44.89554" lon="5.63529">
        <ele>816.1</ele>
        <time>2021-04-22T13:48:43Z</time>
      </trkpt>
      <trkpt lat="44.89558" lon="5.63528">
        <ele>816.3</ele>
        <time>2021-04-22T13:48:44Z</time>
      </trkpt>
      <trkpt lat="44.89561" lon="5.63527">
        <ele>816.5</ele>
        <time>2021-04-22T13:48:45Z</time>
      </trkpt>
      <trkpt lat="44.89564" lon="5.63527">
        <ele>816.6</ele>
        <time>2021-04-22T13:48:46Z</time>
      </trkpt>
      <trkpt lat="44.89567" lon="5.63525">
        <ele>816.8</ele>
        <time>2021-04-22T13:48:48Z</time>
      </trkpt>
      <trkpt lat="44.89569" lon="5.63525">
        <ele>816.9</ele>
        <time>2021-04-22T13:48:49Z</time>
      </trkpt>
      <trkpt lat="44.89572" lon="5.63524">
        <ele>817.1</ele>
        <time>2021-04-22T13:48:50Z</time>
      </trkpt>
      <trkpt lat="44.89576" lon="5.63523">
        <ele>817.3</ele>
        <time>2021-04-22T13:48:52Z</time>
      </trkpt>
      <trkpt lat="44.89579" lon="5.63521">
        <ele>817.5</ele>
        <time>2021-04-22T13:48:53Z</time>
      </trkpt>
      <trkpt lat="44.89582" lon="5.63519">
        <ele>817.7</ele>
        <time>2021-04-22T13:48:54Z</time>
      </trkpt>
      <trkpt lat="44.89585" lon="5.63519">
        <ele>817.9</ele>
        <time>2021-04-22T13:48:56Z</time>
      </trkpt>
      <trkpt lat="44.8959" lon="5.63517">
        <ele>818.2</ele>
        <time>2021-04-22T13:48:58Z</time>
      </trkpt>
      <trkpt lat="44.89594" lon="5.63516">
        <ele>818.5</ele>
        <time>2021-04-22T13:49:00Z</time>
      </trkpt>
      <trkpt lat="44.89598" lon="5.63513">
        <ele>818.7</ele>
        <time>2021-04-22T13:49:01Z</time>
      </trkpt>
      <trkpt lat="44.896" lon="5.63513">
        <ele>818.8</ele>
        <time>2021-04-22T13:49:02Z</time>
      </trkpt>
      <trkpt lat="44.89603" lon="5.63512">
        <ele>818.9</ele>
        <time>2021-04-22T13:49:03Z</time>
      </trkpt>
      <trkpt lat="44.89607" lon="5.63508">
        <ele>819.2</ele>
        <time>2021-04-22T13:49:05Z</time>
      </trkpt>
      <trkpt lat="44.89611" lon="5.63505">
        <ele>819.4</ele>
        <time>2021-04-22T13:49:07Z</time>
      </trkpt>
      <trkpt lat="44.89614" lon="5.63503">
        <ele>819.7</ele>
        <time>2021-04-22T13:49:08Z</time>
      </trkpt>
      <trkpt lat="44.89616" lon="5.63502">
        <ele>819.7</ele>
        <time>2021-04-22T13:49:09Z</time>
      </trkpt>
      <trkpt lat="44.8962" lon="5.63499">
        <ele>820</ele>
        <time>2021-04-22T13:49:11Z</time>
      </trkpt>
      <trkpt lat="44.89624" lon="5.63497">
        <ele>820.2</ele>
        <time>2021-04-22T13:49:13Z</time>
      </trkpt>
      <trkpt lat="44.89628" lon="5.63492">
        <ele>820.4</ele>
        <time>2021-04-22T13:49:15Z</time>
      </trkpt>
      <trkpt lat="44.89631" lon="5.6349">
        <ele>820.6</ele>
        <time>2021-04-22T13:49:16Z</time>
      </trkpt>
      <trkpt lat="44.89634" lon="5.63487">
        <ele>820.7</ele>
        <time>2021-04-22T13:49:17Z</time>
      </trkpt>
      <trkpt lat="44.89636" lon="5.63484">
        <ele>820.8</ele>
        <time>2021-04-22T13:49:18Z</time>
      </trkpt>
      <trkpt lat="44.8964" lon="5.63482">
        <ele>821</ele>
        <time>2021-04-22T13:49:20Z</time>
      </trkpt>
      <trkpt lat="44.89643" lon="5.63478">
        <ele>821.2</ele>
        <time>2021-04-22T13:49:21Z</time>
      </trkpt>
      <trkpt lat="44.89645" lon="5.63477">
        <ele>821.3</ele>
        <time>2021-04-22T13:49:22Z</time>
      </trkpt>
      <trkpt lat="44.89647" lon="5.63473">
        <ele>821.4</ele>
        <time>2021-04-22T13:49:24Z</time>
      </trkpt>
      <trkpt lat="44.8965" lon="5.6347">
        <ele>821.6</ele>
        <time>2021-04-22T13:49:26Z</time>
      </trkpt>
      <trkpt lat="44.89652" lon="5.63468">
        <ele>821.7</ele>
        <time>2021-04-22T13:49:27Z</time>
      </trkpt>
      <trkpt lat="44.89656" lon="5.63463">
        <ele>822</ele>
        <time>2021-04-22T13:49:29Z</time>
      </trkpt>
      <trkpt lat="44.89661" lon="5.6346">
        <ele>822.2</ele>
        <time>2021-04-22T13:49:30Z</time>
      </trkpt>
      <trkpt lat="44.89664" lon="5.63457">
        <ele>822.4</ele>
        <time>2021-04-22T13:49:32Z</time>
      </trkpt>
      <trkpt lat="44.89667" lon="5.63454">
        <ele>822.6</ele>
        <time>2021-04-22T13:49:33Z</time>
      </trkpt>
      <trkpt lat="44.89671" lon="5.63451">
        <ele>822.9</ele>
        <time>2021-04-22T13:49:35Z</time>
      </trkpt>
      <trkpt lat="44.89674" lon="5.63447">
        <ele>823.1</ele>
        <time>2021-04-22T13:49:36Z</time>
      </trkpt>
      <trkpt lat="44.89678" lon="5.63444">
        <ele>823.3</ele>
        <time>2021-04-22T13:49:37Z</time>
      </trkpt>
      <trkpt lat="44.89682" lon="5.63439">
        <ele>823.6</ele>
        <time>2021-04-22T13:49:39Z</time>
      </trkpt>
      <trkpt lat="44.89684" lon="5.63437">
        <ele>823.7</ele>
        <time>2021-04-22T13:49:40Z</time>
      </trkpt>
      <trkpt lat="44.89686" lon="5.63436">
        <ele>823.8</ele>
        <time>2021-04-22T13:49:41Z</time>
      </trkpt>
      <trkpt lat="44.8969" lon="5.63433">
        <ele>824.1</ele>
        <time>2021-04-22T13:49:43Z</time>
      </trkpt>
      <trkpt lat="44.89692" lon="5.6343">
        <ele>824.2</ele>
        <time>2021-04-22T13:49:44Z</time>
      </trkpt>
      <trkpt lat="44.89695" lon="5.63429">
        <ele>824.4</ele>
        <time>2021-04-22T13:49:45Z</time>
      </trkpt>
      <trkpt lat="44.89698" lon="5.63426">
        <ele>824.6</ele>
        <time>2021-04-22T13:49:46Z</time>
      </trkpt>
      <trkpt lat="44.89701" lon="5.63424">
        <ele>824.8</ele>
        <time>2021-04-22T13:49:47Z</time>
      </trkpt>
      <trkpt lat="44.89705" lon="5.63421">
        <ele>825</ele>
        <time>2021-04-22T13:49:49Z</time>
      </trkpt>
      <trkpt lat="44.89708" lon="5.63418">
        <ele>825.2</ele>
        <time>2021-04-22T13:49:51Z</time>
      </trkpt>
      <trkpt lat="44.89712" lon="5.63414">
        <ele>825.5</ele>
        <time>2021-04-22T13:49:53Z</time>
      </trkpt>
      <trkpt lat="44.89714" lon="5.63411">
        <ele>825.6</ele>
        <time>2021-04-22T13:49:54Z</time>
      </trkpt>
      <trkpt lat="44.89719" lon="5.63406">
        <ele>825.9</ele>
        <time>2021-04-22T13:49:56Z</time>
      </trkpt>
      <trkpt lat="44.89721" lon="5.63404">
        <ele>826.1</ele>
        <time>2021-04-22T13:49:57Z</time>
      </trkpt>
      <trkpt lat="44.89725" lon="5.63399">
        <ele>826.4</ele>
        <time>2021-04-22T13:49:59Z</time>
      </trkpt>
      <trkpt lat="44.89726" lon="5.63397">
        <ele>826.5</ele>
        <time>2021-04-22T13:50:00Z</time>
      </trkpt>
      <trkpt lat="44.8973" lon="5.63389">
        <ele>826.9</ele>
        <time>2021-04-22T13:50:02Z</time>
      </trkpt>
      <trkpt lat="44.89733" lon="5.63382">
        <ele>827.2</ele>
        <time>2021-04-22T13:50:04Z</time>
      </trkpt>
      <trkpt lat="44.89734" lon="5.63375">
        <ele>827.5</ele>
        <time>2021-04-22T13:50:06Z</time>
      </trkpt>
      <trkpt lat="44.89734" lon="5.63369">
        <ele>827.7</ele>
        <time>2021-04-22T13:50:07Z</time>
      </trkpt>
      <trkpt lat="44.89734" lon="5.63362">
        <ele>828</ele>
        <time>2021-04-22T13:50:09Z</time>
      </trkpt>
      <trkpt lat="44.89734" lon="5.63355">
        <ele>828.3</ele>
        <time>2021-04-22T13:50:11Z</time>
      </trkpt>
      <trkpt lat="44.89734" lon="5.63349">
        <ele>828.5</ele>
        <time>2021-04-22T13:50:13Z</time>
      </trkpt>
      <trkpt lat="44.89733" lon="5.63343">
        <ele>828.8</ele>
        <time>2021-04-22T13:50:15Z</time>
      </trkpt>
      <trkpt lat="44.89733" lon="5.63337">
        <ele>829</ele>
        <time>2021-04-22T13:50:17Z</time>
      </trkpt>
      <trkpt lat="44.89733" lon="5.63332">
        <ele>829.1</ele>
        <time>2021-04-22T13:50:18Z</time>
      </trkpt>
      <trkpt lat="44.89732" lon="5.63327">
        <ele>829.3</ele>
        <time>2021-04-22T13:50:20Z</time>
      </trkpt>
      <trkpt lat="44.89731" lon="5.63324">
        <ele>829.4</ele>
        <time>2021-04-22T13:50:21Z</time>
      </trkpt>
      <trkpt lat="44.89731" lon="5.63318">
        <ele>829.6</ele>
        <time>2021-04-22T13:50:23Z</time>
      </trkpt>
      <trkpt lat="44.8973" lon="5.63313">
        <ele>829.8</ele>
        <time>2021-04-22T13:50:24Z</time>
      </trkpt>
      <trkpt lat="44.8973" lon="5.63309">
        <ele>829.9</ele>
        <time>2021-04-22T13:50:25Z</time>
      </trkpt>
      <trkpt lat="44.89729" lon="5.63304">
        <ele>830</ele>
        <time>2021-04-22T13:50:27Z</time>
      </trkpt>
      <trkpt lat="44.89729" lon="5.633">
        <ele>830.2</ele>
        <time>2021-04-22T13:50:28Z</time>
      </trkpt>
      <trkpt lat="44.89729" lon="5.63294">
        <ele>830.3</ele>
        <time>2021-04-22T13:50:29Z</time>
      </trkpt>
      <trkpt lat="44.89729" lon="5.63292">
        <ele>830.4</ele>
        <time>2021-04-22T13:50:30Z</time>
      </trkpt>
      <trkpt lat="44.8973" lon="5.63288">
        <ele>830.5</ele>
        <time>2021-04-22T13:50:31Z</time>
      </trkpt>
      <trkpt lat="44.89731" lon="5.63281">
        <ele>830.7</ele>
        <time>2021-04-22T13:50:32Z</time>
      </trkpt>
      <trkpt lat="44.89732" lon="5.63278">
        <ele>830.8</ele>
        <time>2021-04-22T13:50:34Z</time>
      </trkpt>
      <trkpt lat="44.89734" lon="5.63272">
        <ele>831</ele>
        <time>2021-04-22T13:50:35Z</time>
      </trkpt>
      <trkpt lat="44.89735" lon="5.63269">
        <ele>831.1</ele>
        <time>2021-04-22T13:50:37Z</time>
      </trkpt>
      <trkpt lat="44.89736" lon="5.63262">
        <ele>831.4</ele>
        <time>2021-04-22T13:50:39Z</time>
      </trkpt>
      <trkpt lat="44.89738" lon="5.63256">
        <ele>831.6</ele>
        <time>2021-04-22T13:50:40Z</time>
      </trkpt>
      <trkpt lat="44.89739" lon="5.63254">
        <ele>831.7</ele>
        <time>2021-04-22T13:50:41Z</time>
      </trkpt>
      <trkpt lat="44.8974" lon="5.63251">
        <ele>831.9</ele>
        <time>2021-04-22T13:50:42Z</time>
      </trkpt>
      <trkpt lat="44.89743" lon="5.63246">
        <ele>832.1</ele>
        <time>2021-04-22T13:50:44Z</time>
      </trkpt>
      <trkpt lat="44.89744" lon="5.63242">
        <ele>832.3</ele>
        <time>2021-04-22T13:50:45Z</time>
      </trkpt>
      <trkpt lat="44.89745" lon="5.63238">
        <ele>832.5</ele>
        <time>2021-04-22T13:50:46Z</time>
      </trkpt>
      <trkpt lat="44.89747" lon="5.63232">
        <ele>832.8</ele>
        <time>2021-04-22T13:50:48Z</time>
      </trkpt>
      <trkpt lat="44.8975" lon="5.63224">
        <ele>833.1</ele>
        <time>2021-04-22T13:50:50Z</time>
      </trkpt>
      <trkpt lat="44.89751" lon="5.6322">
        <ele>833.3</ele>
        <time>2021-04-22T13:50:51Z</time>
      </trkpt>
      <trkpt lat="44.89753" lon="5.63213">
        <ele>833.6</ele>
        <time>2021-04-22T13:50:53Z</time>
      </trkpt>
      <trkpt lat="44.89755" lon="5.63209">
        <ele>833.8</ele>
        <time>2021-04-22T13:50:54Z</time>
      </trkpt>
      <trkpt lat="44.89756" lon="5.63207">
        <ele>833.9</ele>
        <time>2021-04-22T13:50:55Z</time>
      </trkpt>
      <trkpt lat="44.89758" lon="5.63201">
        <ele>834.2</ele>
        <time>2021-04-22T13:50:57Z</time>
      </trkpt>
      <trkpt lat="44.89759" lon="5.63197">
        <ele>834.4</ele>
        <time>2021-04-22T13:50:58Z</time>
      </trkpt>
      <trkpt lat="44.8976" lon="5.63193">
        <ele>834.5</ele>
        <time>2021-04-22T13:50:59Z</time>
      </trkpt>
      <trkpt lat="44.8976" lon="5.63189">
        <ele>834.7</ele>
        <time>2021-04-22T13:51:00Z</time>
      </trkpt>
      <trkpt lat="44.89761" lon="5.63183">
        <ele>834.9</ele>
        <time>2021-04-22T13:51:02Z</time>
      </trkpt>
      <trkpt lat="44.89759" lon="5.63178">
        <ele>835.2</ele>
        <time>2021-04-22T13:51:04Z</time>
      </trkpt>
      <trkpt lat="44.89759" lon="5.63174">
        <ele>835.3</ele>
        <time>2021-04-22T13:51:05Z</time>
      </trkpt>
      <trkpt lat="44.89757" lon="5.63171">
        <ele>835.5</ele>
        <time>2021-04-22T13:51:06Z</time>
      </trkpt>
      <trkpt lat="44.89755" lon="5.63164">
        <ele>835.7</ele>
        <time>2021-04-22T13:51:08Z</time>
      </trkpt>
      <trkpt lat="44.89753" lon="5.63156">
        <ele>836.1</ele>
        <time>2021-04-22T13:51:10Z</time>
      </trkpt>
      <trkpt lat="44.89751" lon="5.63151">
        <ele>836.2</ele>
        <time>2021-04-22T13:51:11Z</time>
      </trkpt>
      <trkpt lat="44.89747" lon="5.63145">
        <ele>836.5</ele>
        <time>2021-04-22T13:51:13Z</time>
      </trkpt>
      <trkpt lat="44.89745" lon="5.63142">
        <ele>836.7</ele>
        <time>2021-04-22T13:51:14Z</time>
      </trkpt>
      <trkpt lat="44.89743" lon="5.63137">
        <ele>836.9</ele>
        <time>2021-04-22T13:51:15Z</time>
      </trkpt>
      <trkpt lat="44.89741" lon="5.63133">
        <ele>837</ele>
        <time>2021-04-22T13:51:16Z</time>
      </trkpt>
      <trkpt lat="44.8974" lon="5.63126">
        <ele>837.3</ele>
        <time>2021-04-22T13:51:18Z</time>
      </trkpt>
      <trkpt lat="44.89739" lon="5.63124">
        <ele>837.4</ele>
        <time>2021-04-22T13:51:19Z</time>
      </trkpt>
      <trkpt lat="44.89739" lon="5.63121">
        <ele>837.5</ele>
        <time>2021-04-22T13:51:20Z</time>
      </trkpt>
      <trkpt lat="44.89739" lon="5.63115">
        <ele>837.7</ele>
        <time>2021-04-22T13:51:21Z</time>
      </trkpt>
      <trkpt lat="44.89739" lon="5.6311">
        <ele>837.9</ele>
        <time>2021-04-22T13:51:23Z</time>
      </trkpt>
      <trkpt lat="44.89739" lon="5.63103">
        <ele>838.1</ele>
        <time>2021-04-22T13:51:24Z</time>
      </trkpt>
      <trkpt lat="44.8974" lon="5.63098">
        <ele>838.3</ele>
        <time>2021-04-22T13:51:25Z</time>
      </trkpt>
      <trkpt lat="44.89742" lon="5.63094">
        <ele>838.5</ele>
        <time>2021-04-22T13:51:26Z</time>
      </trkpt>
      <trkpt lat="44.89744" lon="5.63089">
        <ele>838.7</ele>
        <time>2021-04-22T13:51:27Z</time>
      </trkpt>
      <trkpt lat="44.89745" lon="5.63086">
        <ele>838.9</ele>
        <time>2021-04-22T13:51:29Z</time>
      </trkpt>
      <trkpt lat="44.89747" lon="5.63082">
        <ele>839</ele>
        <time>2021-04-22T13:51:30Z</time>
      </trkpt>
      <trkpt lat="44.89749" lon="5.63079">
        <ele>839.2</ele>
        <time>2021-04-22T13:51:31Z</time>
      </trkpt>
      <trkpt lat="44.89753" lon="5.63075">
        <ele>839.4</ele>
        <time>2021-04-22T13:51:33Z</time>
      </trkpt>
      <trkpt lat="44.89756" lon="5.63072">
        <ele>839.6</ele>
        <time>2021-04-22T13:51:34Z</time>
      </trkpt>
      <trkpt lat="44.8976" lon="5.63069">
        <ele>839.9</ele>
        <time>2021-04-22T13:51:36Z</time>
      </trkpt>
      <trkpt lat="44.89765" lon="5.63065">
        <ele>840.1</ele>
        <time>2021-04-22T13:51:38Z</time>
      </trkpt>
      <trkpt lat="44.89769" lon="5.63064">
        <ele>840.4</ele>
        <time>2021-04-22T13:51:39Z</time>
      </trkpt>
      <trkpt lat="44.89772" lon="5.63063">
        <ele>840.5</ele>
        <time>2021-04-22T13:51:41Z</time>
      </trkpt>
      <trkpt lat="44.89775" lon="5.63062">
        <ele>840.7</ele>
        <time>2021-04-22T13:51:42Z</time>
      </trkpt>
      <trkpt lat="44.89781" lon="5.63061">
        <ele>841</ele>
        <time>2021-04-22T13:51:44Z</time>
      </trkpt>
      <trkpt lat="44.89784" lon="5.6306">
        <ele>841.2</ele>
        <time>2021-04-22T13:51:45Z</time>
      </trkpt>
      <trkpt lat="44.89789" lon="5.63059">
        <ele>841.5</ele>
        <time>2021-04-22T13:51:47Z</time>
      </trkpt>
      <trkpt lat="44.89792" lon="5.63058">
        <ele>841.7</ele>
        <time>2021-04-22T13:51:48Z</time>
      </trkpt>
      <trkpt lat="44.89795" lon="5.63058">
        <ele>841.9</ele>
        <time>2021-04-22T13:51:49Z</time>
      </trkpt>
      <trkpt lat="44.89797" lon="5.63057">
        <ele>842.1</ele>
        <time>2021-04-22T13:51:50Z</time>
      </trkpt>
      <trkpt lat="44.89801" lon="5.63057">
        <ele>842.3</ele>
        <time>2021-04-22T13:51:52Z</time>
      </trkpt>
      <trkpt lat="44.89803" lon="5.63055">
        <ele>842.5</ele>
        <time>2021-04-22T13:51:53Z</time>
      </trkpt>
      <trkpt lat="44.89807" lon="5.63053">
        <ele>842.8</ele>
        <time>2021-04-22T13:51:54Z</time>
      </trkpt>
      <trkpt lat="44.8981" lon="5.63052">
        <ele>843.1</ele>
        <time>2021-04-22T13:51:56Z</time>
      </trkpt>
      <trkpt lat="44.89813" lon="5.63051">
        <ele>843.2</ele>
        <time>2021-04-22T13:51:57Z</time>
      </trkpt>
      <trkpt lat="44.89817" lon="5.6305">
        <ele>843.5</ele>
        <time>2021-04-22T13:51:59Z</time>
      </trkpt>
      <trkpt lat="44.8982" lon="5.63048">
        <ele>843.7</ele>
        <time>2021-04-22T13:52:00Z</time>
      </trkpt>
      <trkpt lat="44.89822" lon="5.63045">
        <ele>844</ele>
        <time>2021-04-22T13:52:01Z</time>
      </trkpt>
      <trkpt lat="44.89825" lon="5.6304">
        <ele>844.2</ele>
        <time>2021-04-22T13:52:03Z</time>
      </trkpt>
      <trkpt lat="44.89829" lon="5.63033">
        <ele>844.6</ele>
        <time>2021-04-22T13:52:05Z</time>
      </trkpt>
      <trkpt lat="44.89831" lon="5.63027">
        <ele>844.9</ele>
        <time>2021-04-22T13:52:06Z</time>
      </trkpt>
      <trkpt lat="44.89831" lon="5.63022">
        <ele>845.1</ele>
        <time>2021-04-22T13:52:08Z</time>
      </trkpt>
      <trkpt lat="44.8983" lon="5.63017">
        <ele>845.2</ele>
        <time>2021-04-22T13:52:09Z</time>
      </trkpt>
      <trkpt lat="44.89828" lon="5.63012">
        <ele>845.4</ele>
        <time>2021-04-22T13:52:10Z</time>
      </trkpt>
      <trkpt lat="44.89825" lon="5.63005">
        <ele>845.6</ele>
        <time>2021-04-22T13:52:11Z</time>
      </trkpt>
      <trkpt lat="44.89823" lon="5.63001">
        <ele>845.8</ele>
        <time>2021-04-22T13:52:13Z</time>
      </trkpt>
      <trkpt lat="44.8982" lon="5.62999">
        <ele>845.8</ele>
        <time>2021-04-22T13:52:14Z</time>
      </trkpt>
      <trkpt lat="44.89817" lon="5.62997">
        <ele>846</ele>
        <time>2021-04-22T13:52:15Z</time>
      </trkpt>
      <trkpt lat="44.89812" lon="5.62995">
        <ele>846.1</ele>
        <time>2021-04-22T13:52:17Z</time>
      </trkpt>
      <trkpt lat="44.89809" lon="5.62993">
        <ele>846.2</ele>
        <time>2021-04-22T13:52:18Z</time>
      </trkpt>
      <trkpt lat="44.89804" lon="5.62991">
        <ele>846.4</ele>
        <time>2021-04-22T13:52:20Z</time>
      </trkpt>
      <trkpt lat="44.898" lon="5.62989">
        <ele>846.5</ele>
        <time>2021-04-22T13:52:21Z</time>
      </trkpt>
      <trkpt lat="44.89798" lon="5.62986">
        <ele>846.6</ele>
        <time>2021-04-22T13:52:22Z</time>
      </trkpt>
      <trkpt lat="44.89794" lon="5.62982">
        <ele>846.8</ele>
        <time>2021-04-22T13:52:24Z</time>
      </trkpt>
      <trkpt lat="44.89792" lon="5.6298">
        <ele>846.9</ele>
        <time>2021-04-22T13:52:25Z</time>
      </trkpt>
      <trkpt lat="44.89791" lon="5.62976">
        <ele>847</ele>
        <time>2021-04-22T13:52:26Z</time>
      </trkpt>
      <trkpt lat="44.89789" lon="5.62971">
        <ele>847.1</ele>
        <time>2021-04-22T13:52:27Z</time>
      </trkpt>
      <trkpt lat="44.89787" lon="5.62966">
        <ele>847.2</ele>
        <time>2021-04-22T13:52:28Z</time>
      </trkpt>
      <trkpt lat="44.89786" lon="5.62959">
        <ele>847.4</ele>
        <time>2021-04-22T13:52:30Z</time>
      </trkpt>
      <trkpt lat="44.89785" lon="5.62953">
        <ele>847.6</ele>
        <time>2021-04-22T13:52:31Z</time>
      </trkpt>
      <trkpt lat="44.89786" lon="5.62944">
        <ele>847.8</ele>
        <time>2021-04-22T13:52:33Z</time>
      </trkpt>
      <trkpt lat="44.89788" lon="5.62936">
        <ele>847.9</ele>
        <time>2021-04-22T13:52:35Z</time>
      </trkpt>
      <trkpt lat="44.8979" lon="5.62932">
        <ele>848.1</ele>
        <time>2021-04-22T13:52:36Z</time>
      </trkpt>
      <trkpt lat="44.89792" lon="5.62928">
        <ele>848.2</ele>
        <time>2021-04-22T13:52:37Z</time>
      </trkpt>
      <trkpt lat="44.89794" lon="5.62923">
        <ele>848.3</ele>
        <time>2021-04-22T13:52:38Z</time>
      </trkpt>
      <trkpt lat="44.89796" lon="5.62917">
        <ele>848.5</ele>
        <time>2021-04-22T13:52:40Z</time>
      </trkpt>
      <trkpt lat="44.89798" lon="5.62914">
        <ele>848.6</ele>
        <time>2021-04-22T13:52:41Z</time>
      </trkpt>
      <trkpt lat="44.898" lon="5.62908">
        <ele>848.8</ele>
        <time>2021-04-22T13:52:43Z</time>
      </trkpt>
      <trkpt lat="44.89801" lon="5.62904">
        <ele>848.9</ele>
        <time>2021-04-22T13:52:44Z</time>
      </trkpt>
      <trkpt lat="44.89803" lon="5.62901">
        <ele>849</ele>
        <time>2021-04-22T13:52:45Z</time>
      </trkpt>
      <trkpt lat="44.89805" lon="5.62895">
        <ele>849.3</ele>
        <time>2021-04-22T13:52:46Z</time>
      </trkpt>
      <trkpt lat="44.89807" lon="5.62891">
        <ele>849.4</ele>
        <time>2021-04-22T13:52:47Z</time>
      </trkpt>
      <trkpt lat="44.89809" lon="5.62887">
        <ele>849.6</ele>
        <time>2021-04-22T13:52:49Z</time>
      </trkpt>
      <trkpt lat="44.8981" lon="5.62883">
        <ele>849.8</ele>
        <time>2021-04-22T13:52:50Z</time>
      </trkpt>
      <trkpt lat="44.89812" lon="5.62879">
        <ele>849.9</ele>
        <time>2021-04-22T13:52:51Z</time>
      </trkpt>
      <trkpt lat="44.89813" lon="5.62875">
        <ele>850.1</ele>
        <time>2021-04-22T13:52:52Z</time>
      </trkpt>
      <trkpt lat="44.89815" lon="5.6287">
        <ele>850.3</ele>
        <time>2021-04-22T13:52:53Z</time>
      </trkpt>
      <trkpt lat="44.89817" lon="5.62865">
        <ele>850.5</ele>
        <time>2021-04-22T13:52:55Z</time>
      </trkpt>
      <trkpt lat="44.89818" lon="5.62863">
        <ele>850.6</ele>
        <time>2021-04-22T13:52:56Z</time>
      </trkpt>
      <trkpt lat="44.89821" lon="5.62857">
        <ele>850.8</ele>
        <time>2021-04-22T13:52:58Z</time>
      </trkpt>
      <trkpt lat="44.89823" lon="5.62852">
        <ele>851</ele>
        <time>2021-04-22T13:52:59Z</time>
      </trkpt>
      <trkpt lat="44.89826" lon="5.62847">
        <ele>851.2</ele>
        <time>2021-04-22T13:53:01Z</time>
      </trkpt>
      <trkpt lat="44.89829" lon="5.62841">
        <ele>851.4</ele>
        <time>2021-04-22T13:53:03Z</time>
      </trkpt>
      <trkpt lat="44.89832" lon="5.62837">
        <ele>851.6</ele>
        <time>2021-04-22T13:53:05Z</time>
      </trkpt>
      <trkpt lat="44.89836" lon="5.62832">
        <ele>851.9</ele>
        <time>2021-04-22T13:53:07Z</time>
      </trkpt>
      <trkpt lat="44.89841" lon="5.62827">
        <ele>852.2</ele>
        <time>2021-04-22T13:53:09Z</time>
      </trkpt>
      <trkpt lat="44.89846" lon="5.62823">
        <ele>852.5</ele>
        <time>2021-04-22T13:53:11Z</time>
      </trkpt>
      <trkpt lat="44.89851" lon="5.62819">
        <ele>852.7</ele>
        <time>2021-04-22T13:53:13Z</time>
      </trkpt>
      <trkpt lat="44.89856" lon="5.62814">
        <ele>853</ele>
        <time>2021-04-22T13:53:15Z</time>
      </trkpt>
      <trkpt lat="44.89861" lon="5.62811">
        <ele>853.3</ele>
        <time>2021-04-22T13:53:17Z</time>
      </trkpt>
      <trkpt lat="44.89864" lon="5.6281">
        <ele>853.4</ele>
        <time>2021-04-22T13:53:18Z</time>
      </trkpt>
      <trkpt lat="44.89867" lon="5.62809">
        <ele>853.5</ele>
        <time>2021-04-22T13:53:19Z</time>
      </trkpt>
      <trkpt lat="44.89872" lon="5.62807">
        <ele>853.8</ele>
        <time>2021-04-22T13:53:21Z</time>
      </trkpt>
      <trkpt lat="44.89877" lon="5.62805">
        <ele>854</ele>
        <time>2021-04-22T13:53:23Z</time>
      </trkpt>
      <trkpt lat="44.8988" lon="5.62804">
        <ele>854.2</ele>
        <time>2021-04-22T13:53:24Z</time>
      </trkpt>
      <trkpt lat="44.89883" lon="5.62803">
        <ele>854.4</ele>
        <time>2021-04-22T13:53:25Z</time>
      </trkpt>
      <trkpt lat="44.89887" lon="5.62802">
        <ele>854.5</ele>
        <time>2021-04-22T13:53:26Z</time>
      </trkpt>
      <trkpt lat="44.89891" lon="5.62802">
        <ele>854.7</ele>
        <time>2021-04-22T13:53:28Z</time>
      </trkpt>
      <trkpt lat="44.89895" lon="5.62801">
        <ele>854.9</ele>
        <time>2021-04-22T13:53:29Z</time>
      </trkpt>
      <trkpt lat="44.89897" lon="5.628">
        <ele>855.1</ele>
        <time>2021-04-22T13:53:30Z</time>
      </trkpt>
      <trkpt lat="44.89901" lon="5.62799">
        <ele>855.3</ele>
        <time>2021-04-22T13:53:32Z</time>
      </trkpt>
      <trkpt lat="44.89904" lon="5.62799">
        <ele>855.5</ele>
        <time>2021-04-22T13:53:33Z</time>
      </trkpt>
      <trkpt lat="44.89909" lon="5.62798">
        <ele>855.7</ele>
        <time>2021-04-22T13:53:35Z</time>
      </trkpt>
      <trkpt lat="44.89912" lon="5.62797">
        <ele>855.9</ele>
        <time>2021-04-22T13:53:36Z</time>
      </trkpt>
      <trkpt lat="44.89916" lon="5.62796">
        <ele>856.1</ele>
        <time>2021-04-22T13:53:37Z</time>
      </trkpt>
      <trkpt lat="44.89921" lon="5.62793">
        <ele>856.3</ele>
        <time>2021-04-22T13:53:39Z</time>
      </trkpt>
      <trkpt lat="44.89925" lon="5.62793">
        <ele>856.5</ele>
        <time>2021-04-22T13:53:40Z</time>
      </trkpt>
      <trkpt lat="44.89928" lon="5.62792">
        <ele>856.7</ele>
        <time>2021-04-22T13:53:41Z</time>
      </trkpt>
      <trkpt lat="44.89932" lon="5.62792">
        <ele>856.9</ele>
        <time>2021-04-22T13:53:43Z</time>
      </trkpt>
      <trkpt lat="44.89936" lon="5.6279">
        <ele>857.1</ele>
        <time>2021-04-22T13:53:44Z</time>
      </trkpt>
      <trkpt lat="44.89937" lon="5.6279">
        <ele>857.2</ele>
        <time>2021-04-22T13:53:45Z</time>
      </trkpt>
      <trkpt lat="44.89941" lon="5.62789">
        <ele>857.4</ele>
        <time>2021-04-22T13:53:46Z</time>
      </trkpt>
      <trkpt lat="44.89944" lon="5.62788">
        <ele>857.5</ele>
        <time>2021-04-22T13:53:47Z</time>
      </trkpt>
      <trkpt lat="44.89948" lon="5.62786">
        <ele>857.8</ele>
        <time>2021-04-22T13:53:49Z</time>
      </trkpt>
      <trkpt lat="44.89953" lon="5.62785">
        <ele>858.1</ele>
        <time>2021-04-22T13:53:50Z</time>
      </trkpt>
      <trkpt lat="44.89955" lon="5.62785">
        <ele>858.2</ele>
        <time>2021-04-22T13:53:51Z</time>
      </trkpt>
      <trkpt lat="44.89958" lon="5.62784">
        <ele>858.4</ele>
        <time>2021-04-22T13:53:53Z</time>
      </trkpt>
      <trkpt lat="44.89961" lon="5.62783">
        <ele>858.5</ele>
        <time>2021-04-22T13:53:54Z</time>
      </trkpt>
      <trkpt lat="44.89964" lon="5.62784">
        <ele>858.7</ele>
        <time>2021-04-22T13:53:55Z</time>
      </trkpt>
      <trkpt lat="44.89969" lon="5.62784">
        <ele>858.9</ele>
        <time>2021-04-22T13:53:57Z</time>
      </trkpt>
      <trkpt lat="44.89974" lon="5.62784">
        <ele>859.2</ele>
        <time>2021-04-22T13:53:58Z</time>
      </trkpt>
      <trkpt lat="44.89976" lon="5.62784">
        <ele>859.3</ele>
        <time>2021-04-22T13:53:59Z</time>
      </trkpt>
      <trkpt lat="44.89978" lon="5.62784">
        <ele>859.4</ele>
        <time>2021-04-22T13:54:01Z</time>
      </trkpt>
      <trkpt lat="44.89982" lon="5.62784">
        <ele>859.6</ele>
        <time>2021-04-22T13:54:03Z</time>
      </trkpt>
      <trkpt lat="44.89985" lon="5.62785">
        <ele>859.7</ele>
        <time>2021-04-22T13:54:04Z</time>
      </trkpt>
      <trkpt lat="44.89988" lon="5.62786">
        <ele>859.9</ele>
        <time>2021-04-22T13:54:05Z</time>
      </trkpt>
      <trkpt lat="44.89994" lon="5.62786">
        <ele>860.1</ele>
        <time>2021-04-22T13:54:07Z</time>
      </trkpt>
      <trkpt lat="44.89999" lon="5.62788">
        <ele>860.4</ele>
        <time>2021-04-22T13:54:08Z</time>
      </trkpt>
      <trkpt lat="44.90002" lon="5.62789">
        <ele>860.6</ele>
        <time>2021-04-22T13:54:10Z</time>
      </trkpt>
      <trkpt lat="44.90004" lon="5.6279">
        <ele>860.6</ele>
        <time>2021-04-22T13:54:11Z</time>
      </trkpt>
      <trkpt lat="44.90008" lon="5.62791">
        <ele>860.8</ele>
        <time>2021-04-22T13:54:13Z</time>
      </trkpt>
      <trkpt lat="44.90013" lon="5.62793">
        <ele>861.1</ele>
        <time>2021-04-22T13:54:15Z</time>
      </trkpt>
      <trkpt lat="44.90018" lon="5.62795">
        <ele>861.4</ele>
        <time>2021-04-22T13:54:17Z</time>
      </trkpt>
      <trkpt lat="44.90023" lon="5.62797">
        <ele>861.6</ele>
        <time>2021-04-22T13:54:19Z</time>
      </trkpt>
      <trkpt lat="44.90026" lon="5.62797">
        <ele>861.8</ele>
        <time>2021-04-22T13:54:20Z</time>
      </trkpt>
      <trkpt lat="44.90032" lon="5.628">
        <ele>862.1</ele>
        <time>2021-04-22T13:54:22Z</time>
      </trkpt>
      <trkpt lat="44.90037" lon="5.62803">
        <ele>862.3</ele>
        <time>2021-04-22T13:54:24Z</time>
      </trkpt>
      <trkpt lat="44.90041" lon="5.62804">
        <ele>862.6</ele>
        <time>2021-04-22T13:54:26Z</time>
      </trkpt>
      <trkpt lat="44.90044" lon="5.62807">
        <ele>862.7</ele>
        <time>2021-04-22T13:54:27Z</time>
      </trkpt>
      <trkpt lat="44.90045" lon="5.62807">
        <ele>862.8</ele>
        <time>2021-04-22T13:54:28Z</time>
      </trkpt>
      <trkpt lat="44.90047" lon="5.62809">
        <ele>862.9</ele>
        <time>2021-04-22T13:54:29Z</time>
      </trkpt>
      <trkpt lat="44.90051" lon="5.62811">
        <ele>863.1</ele>
        <time>2021-04-22T13:54:30Z</time>
      </trkpt>
      <trkpt lat="44.90056" lon="5.62816">
        <ele>863.5</ele>
        <time>2021-04-22T13:54:32Z</time>
      </trkpt>
      <trkpt lat="44.9006" lon="5.62819">
        <ele>863.7</ele>
        <time>2021-04-22T13:54:34Z</time>
      </trkpt>
      <trkpt lat="44.90063" lon="5.62822">
        <ele>864</ele>
        <time>2021-04-22T13:54:35Z</time>
      </trkpt>
      <trkpt lat="44.90067" lon="5.62826">
        <ele>864.3</ele>
        <time>2021-04-22T13:54:37Z</time>
      </trkpt>
      <trkpt lat="44.9007" lon="5.62829">
        <ele>864.5</ele>
        <time>2021-04-22T13:54:38Z</time>
      </trkpt>
      <trkpt lat="44.90072" lon="5.62833">
        <ele>864.8</ele>
        <time>2021-04-22T13:54:39Z</time>
      </trkpt>
      <trkpt lat="44.90074" lon="5.62839">
        <ele>865.1</ele>
        <time>2021-04-22T13:54:41Z</time>
      </trkpt>
      <trkpt lat="44.90075" lon="5.6284">
        <ele>865.2</ele>
        <time>2021-04-22T13:54:42Z</time>
      </trkpt>
      <trkpt lat="44.90076" lon="5.62842">
        <ele>865.3</ele>
        <time>2021-04-22T13:54:43Z</time>
      </trkpt>
      <trkpt lat="44.90078" lon="5.62845">
        <ele>865.5</ele>
        <time>2021-04-22T13:54:44Z</time>
      </trkpt>
      <trkpt lat="44.9008" lon="5.62849">
        <ele>865.7</ele>
        <time>2021-04-22T13:54:45Z</time>
      </trkpt>
      <trkpt lat="44.90086" lon="5.62852">
        <ele>866</ele>
        <time>2021-04-22T13:54:47Z</time>
      </trkpt>
      <trkpt lat="44.90089" lon="5.62855">
        <ele>866.3</ele>
        <time>2021-04-22T13:54:48Z</time>
      </trkpt>
      <trkpt lat="44.90095" lon="5.62857">
        <ele>866.6</ele>
        <time>2021-04-22T13:54:50Z</time>
      </trkpt>
      <trkpt lat="44.90098" lon="5.62857">
        <ele>866.8</ele>
        <time>2021-04-22T13:54:51Z</time>
      </trkpt>
      <trkpt lat="44.90101" lon="5.62857">
        <ele>867</ele>
        <time>2021-04-22T13:54:52Z</time>
      </trkpt>
      <trkpt lat="44.90107" lon="5.62856">
        <ele>867.3</ele>
        <time>2021-04-22T13:54:54Z</time>
      </trkpt>
      <trkpt lat="44.9011" lon="5.62856">
        <ele>867.5</ele>
        <time>2021-04-22T13:54:55Z</time>
      </trkpt>
      <trkpt lat="44.90113" lon="5.62854">
        <ele>867.7</ele>
        <time>2021-04-22T13:54:56Z</time>
      </trkpt>
      <trkpt lat="44.90116" lon="5.62852">
        <ele>867.9</ele>
        <time>2021-04-22T13:54:57Z</time>
      </trkpt>
      <trkpt lat="44.9012" lon="5.6285">
        <ele>868.1</ele>
        <time>2021-04-22T13:54:58Z</time>
      </trkpt>
      <trkpt lat="44.90125" lon="5.62843">
        <ele>868.5</ele>
        <time>2021-04-22T13:55:00Z</time>
      </trkpt>
      <trkpt lat="44.90131" lon="5.6284">
        <ele>868.8</ele>
        <time>2021-04-22T13:55:02Z</time>
      </trkpt>
      <trkpt lat="44.90134" lon="5.62838">
        <ele>869</ele>
        <time>2021-04-22T13:55:03Z</time>
      </trkpt>
      <trkpt lat="44.9014" lon="5.62837">
        <ele>869.3</ele>
        <time>2021-04-22T13:55:05Z</time>
      </trkpt>
      <trkpt lat="44.90143" lon="5.62836">
        <ele>869.5</ele>
        <time>2021-04-22T13:55:06Z</time>
      </trkpt>
      <trkpt lat="44.90147" lon="5.62835">
        <ele>869.7</ele>
        <time>2021-04-22T13:55:08Z</time>
      </trkpt>
      <trkpt lat="44.90151" lon="5.62835">
        <ele>869.9</ele>
        <time>2021-04-22T13:55:09Z</time>
      </trkpt>
      <trkpt lat="44.90155" lon="5.62836">
        <ele>870.1</ele>
        <time>2021-04-22T13:55:10Z</time>
      </trkpt>
      <trkpt lat="44.90158" lon="5.62837">
        <ele>870.3</ele>
        <time>2021-04-22T13:55:12Z</time>
      </trkpt>
      <trkpt lat="44.90163" lon="5.62839">
        <ele>870.5</ele>
        <time>2021-04-22T13:55:13Z</time>
      </trkpt>
      <trkpt lat="44.90165" lon="5.62841">
        <ele>870.7</ele>
        <time>2021-04-22T13:55:14Z</time>
      </trkpt>
      <trkpt lat="44.9017" lon="5.62844">
        <ele>871</ele>
        <time>2021-04-22T13:55:16Z</time>
      </trkpt>
      <trkpt lat="44.90171" lon="5.62846">
        <ele>871.1</ele>
        <time>2021-04-22T13:55:17Z</time>
      </trkpt>
      <trkpt lat="44.90172" lon="5.62847">
        <ele>871.2</ele>
        <time>2021-04-22T13:55:18Z</time>
      </trkpt>
      <trkpt lat="44.90176" lon="5.62852">
        <ele>871.5</ele>
        <time>2021-04-22T13:55:19Z</time>
      </trkpt>
      <trkpt lat="44.90181" lon="5.62856">
        <ele>871.9</ele>
        <time>2021-04-22T13:55:21Z</time>
      </trkpt>
      <trkpt lat="44.90182" lon="5.62858">
        <ele>872</ele>
        <time>2021-04-22T13:55:22Z</time>
      </trkpt>
      <trkpt lat="44.90186" lon="5.62863">
        <ele>872.3</ele>
        <time>2021-04-22T13:55:24Z</time>
      </trkpt>
      <trkpt lat="44.90189" lon="5.62864">
        <ele>872.5</ele>
        <time>2021-04-22T13:55:25Z</time>
      </trkpt>
      <trkpt lat="44.90192" lon="5.62867">
        <ele>872.7</ele>
        <time>2021-04-22T13:55:26Z</time>
      </trkpt>
      <trkpt lat="44.90195" lon="5.6287">
        <ele>873</ele>
        <time>2021-04-22T13:55:27Z</time>
      </trkpt>
      <trkpt lat="44.90198" lon="5.62873">
        <ele>873.2</ele>
        <time>2021-04-22T13:55:28Z</time>
      </trkpt>
      <trkpt lat="44.90203" lon="5.62876">
        <ele>873.6</ele>
        <time>2021-04-22T13:55:30Z</time>
      </trkpt>
      <trkpt lat="44.90207" lon="5.62878">
        <ele>873.8</ele>
        <time>2021-04-22T13:55:31Z</time>
      </trkpt>
      <trkpt lat="44.90207" lon="5.62878">
        <ele>873.8</ele>
        <time>2021-04-22T13:55:32Z</time>
      </trkpt>
      <trkpt lat="44.90211" lon="5.6288">
        <ele>874.1</ele>
        <time>2021-04-22T13:55:33Z</time>
      </trkpt>
      <trkpt lat="44.90213" lon="5.6288">
        <ele>874.2</ele>
        <time>2021-04-22T13:55:34Z</time>
      </trkpt>
      <trkpt lat="44.90216" lon="5.6288">
        <ele>874.3</ele>
        <time>2021-04-22T13:55:35Z</time>
      </trkpt>
      <trkpt lat="44.9022" lon="5.6288">
        <ele>874.5</ele>
        <time>2021-04-22T13:55:37Z</time>
      </trkpt>
      <trkpt lat="44.90221" lon="5.6288">
        <ele>874.6</ele>
        <time>2021-04-22T13:55:38Z</time>
      </trkpt>
      <trkpt lat="44.90224" lon="5.6288">
        <ele>874.8</ele>
        <time>2021-04-22T13:55:39Z</time>
      </trkpt>
      <trkpt lat="44.90225" lon="5.6288">
        <ele>874.9</ele>
        <time>2021-04-22T13:55:40Z</time>
      </trkpt>
      <trkpt lat="44.90228" lon="5.62878">
        <ele>875</ele>
        <time>2021-04-22T13:55:41Z</time>
      </trkpt>
      <trkpt lat="44.90234" lon="5.62876">
        <ele>875.3</ele>
        <time>2021-04-22T13:55:43Z</time>
      </trkpt>
      <trkpt lat="44.90239" lon="5.62874">
        <ele>875.6</ele>
        <time>2021-04-22T13:55:45Z</time>
      </trkpt>
      <trkpt lat="44.90244" lon="5.62872">
        <ele>875.9</ele>
        <time>2021-04-22T13:55:47Z</time>
      </trkpt>
      <trkpt lat="44.90247" lon="5.6287">
        <ele>876.1</ele>
        <time>2021-04-22T13:55:48Z</time>
      </trkpt>
      <trkpt lat="44.9025" lon="5.62869">
        <ele>876.3</ele>
        <time>2021-04-22T13:55:49Z</time>
      </trkpt>
      <trkpt lat="44.90255" lon="5.62866">
        <ele>876.7</ele>
        <time>2021-04-22T13:55:51Z</time>
      </trkpt>
      <trkpt lat="44.9026" lon="5.62866">
        <ele>877</ele>
        <time>2021-04-22T13:55:52Z</time>
      </trkpt>
      <trkpt lat="44.90264" lon="5.62866">
        <ele>877.4</ele>
        <time>2021-04-22T13:55:54Z</time>
      </trkpt>
      <trkpt lat="44.90265" lon="5.62867">
        <ele>877.5</ele>
        <time>2021-04-22T13:55:55Z</time>
      </trkpt>
      <trkpt lat="44.90267" lon="5.62868">
        <ele>877.6</ele>
        <time>2021-04-22T13:55:56Z</time>
      </trkpt>
      <trkpt lat="44.90269" lon="5.62869">
        <ele>877.8</ele>
        <time>2021-04-22T13:55:57Z</time>
      </trkpt>
      <trkpt lat="44.90274" lon="5.62875">
        <ele>878.2</ele>
        <time>2021-04-22T13:55:59Z</time>
      </trkpt>
      <trkpt lat="44.90278" lon="5.62881">
        <ele>878.7</ele>
        <time>2021-04-22T13:56:01Z</time>
      </trkpt>
      <trkpt lat="44.90281" lon="5.62884">
        <ele>879</ele>
        <time>2021-04-22T13:56:02Z</time>
      </trkpt>
      <trkpt lat="44.90286" lon="5.62887">
        <ele>879.4</ele>
        <time>2021-04-22T13:56:03Z</time>
      </trkpt>
      <trkpt lat="44.90289" lon="5.62888">
        <ele>879.6</ele>
        <time>2021-04-22T13:56:05Z</time>
      </trkpt>
      <trkpt lat="44.90293" lon="5.62889">
        <ele>879.8</ele>
        <time>2021-04-22T13:56:06Z</time>
      </trkpt>
      <trkpt lat="44.90299" lon="5.62889">
        <ele>880.2</ele>
        <time>2021-04-22T13:56:08Z</time>
      </trkpt>
      <trkpt lat="44.90304" lon="5.6289">
        <ele>880.5</ele>
        <time>2021-04-22T13:56:10Z</time>
      </trkpt>
      <trkpt lat="44.90306" lon="5.62889">
        <ele>880.6</ele>
        <time>2021-04-22T13:56:11Z</time>
      </trkpt>
      <trkpt lat="44.90307" lon="5.62889">
        <ele>880.7</ele>
        <time>2021-04-22T13:56:12Z</time>
      </trkpt>
      <trkpt lat="44.90312" lon="5.62886">
        <ele>881</ele>
        <time>2021-04-22T13:56:14Z</time>
      </trkpt>
      <trkpt lat="44.90314" lon="5.62884">
        <ele>881.1</ele>
        <time>2021-04-22T13:56:15Z</time>
      </trkpt>
      <trkpt lat="44.90318" lon="5.62882">
        <ele>881.3</ele>
        <time>2021-04-22T13:56:16Z</time>
      </trkpt>
      <trkpt lat="44.90322" lon="5.62879">
        <ele>881.5</ele>
        <time>2021-04-22T13:56:17Z</time>
      </trkpt>
      <trkpt lat="44.90326" lon="5.62874">
        <ele>881.8</ele>
        <time>2021-04-22T13:56:19Z</time>
      </trkpt>
      <trkpt lat="44.9033" lon="5.6287">
        <ele>882</ele>
        <time>2021-04-22T13:56:21Z</time>
      </trkpt>
      <trkpt lat="44.90334" lon="5.62867">
        <ele>882.2</ele>
        <time>2021-04-22T13:56:23Z</time>
      </trkpt>
      <trkpt lat="44.90336" lon="5.62864">
        <ele>882.3</ele>
        <time>2021-04-22T13:56:24Z</time>
      </trkpt>
      <trkpt lat="44.90341" lon="5.62857">
        <ele>882.6</ele>
        <time>2021-04-22T13:56:26Z</time>
      </trkpt>
      <trkpt lat="44.90343" lon="5.62854">
        <ele>882.8</ele>
        <time>2021-04-22T13:56:27Z</time>
      </trkpt>
      <trkpt lat="44.90346" lon="5.6285">
        <ele>882.9</ele>
        <time>2021-04-22T13:56:28Z</time>
      </trkpt>
      <trkpt lat="44.90348" lon="5.62847">
        <ele>883.1</ele>
        <time>2021-04-22T13:56:29Z</time>
      </trkpt>
      <trkpt lat="44.90352" lon="5.6284">
        <ele>883.3</ele>
        <time>2021-04-22T13:56:30Z</time>
      </trkpt>
      <trkpt lat="44.90356" lon="5.62833">
        <ele>883.6</ele>
        <time>2021-04-22T13:56:32Z</time>
      </trkpt>
      <trkpt lat="44.90359" lon="5.62828">
        <ele>883.8</ele>
        <time>2021-04-22T13:56:33Z</time>
      </trkpt>
      <trkpt lat="44.90362" lon="5.62824">
        <ele>884</ele>
        <time>2021-04-22T13:56:34Z</time>
      </trkpt>
      <trkpt lat="44.90366" lon="5.62818">
        <ele>884.3</ele>
        <time>2021-04-22T13:56:36Z</time>
      </trkpt>
      <trkpt lat="44.90368" lon="5.62812">
        <ele>884.5</ele>
        <time>2021-04-22T13:56:38Z</time>
      </trkpt>
      <trkpt lat="44.90369" lon="5.62808">
        <ele>884.7</ele>
        <time>2021-04-22T13:56:39Z</time>
      </trkpt>
      <trkpt lat="44.90373" lon="5.628">
        <ele>885.1</ele>
        <time>2021-04-22T13:56:41Z</time>
      </trkpt>
      <trkpt lat="44.90374" lon="5.62796">
        <ele>885.3</ele>
        <time>2021-04-22T13:56:42Z</time>
      </trkpt>
      <trkpt lat="44.90379" lon="5.6279">
        <ele>885.6</ele>
        <time>2021-04-22T13:56:44Z</time>
      </trkpt>
      <trkpt lat="44.90382" lon="5.62785">
        <ele>885.8</ele>
        <time>2021-04-22T13:56:45Z</time>
      </trkpt>
      <trkpt lat="44.90385" lon="5.6278">
        <ele>886.1</ele>
        <time>2021-04-22T13:56:47Z</time>
      </trkpt>
      <trkpt lat="44.90388" lon="5.62776">
        <ele>886.4</ele>
        <time>2021-04-22T13:56:48Z</time>
      </trkpt>
      <trkpt lat="44.90391" lon="5.62767">
        <ele>886.8</ele>
        <time>2021-04-22T13:56:50Z</time>
      </trkpt>
      <trkpt lat="44.90394" lon="5.62761">
        <ele>887</ele>
        <time>2021-04-22T13:56:52Z</time>
      </trkpt>
      <trkpt lat="44.90396" lon="5.62758">
        <ele>887.2</ele>
        <time>2021-04-22T13:56:53Z</time>
      </trkpt>
      <trkpt lat="44.90402" lon="5.62753">
        <ele>887.5</ele>
        <time>2021-04-22T13:56:55Z</time>
      </trkpt>
      <trkpt lat="44.90408" lon="5.62748">
        <ele>887.9</ele>
        <time>2021-04-22T13:56:57Z</time>
      </trkpt>
      <trkpt lat="44.90413" lon="5.62745">
        <ele>888.2</ele>
        <time>2021-04-22T13:56:59Z</time>
      </trkpt>
      <trkpt lat="44.90416" lon="5.62745">
        <ele>888.4</ele>
        <time>2021-04-22T13:57:00Z</time>
      </trkpt>
      <trkpt lat="44.90422" lon="5.62743">
        <ele>888.8</ele>
        <time>2021-04-22T13:57:02Z</time>
      </trkpt>
      <trkpt lat="44.90428" lon="5.62739">
        <ele>889.2</ele>
        <time>2021-04-22T13:57:04Z</time>
      </trkpt>
      <trkpt lat="44.90433" lon="5.62736">
        <ele>889.6</ele>
        <time>2021-04-22T13:57:06Z</time>
      </trkpt>
      <trkpt lat="44.90436" lon="5.62734">
        <ele>889.8</ele>
        <time>2021-04-22T13:57:07Z</time>
      </trkpt>
      <trkpt lat="44.90441" lon="5.6273">
        <ele>890.1</ele>
        <time>2021-04-22T13:57:09Z</time>
      </trkpt>
      <trkpt lat="44.90446" lon="5.62725">
        <ele>890.5</ele>
        <time>2021-04-22T13:57:11Z</time>
      </trkpt>
      <trkpt lat="44.90451" lon="5.6272">
        <ele>890.9</ele>
        <time>2021-04-22T13:57:13Z</time>
      </trkpt>
      <trkpt lat="44.90455" lon="5.62716">
        <ele>891.2</ele>
        <time>2021-04-22T13:57:15Z</time>
      </trkpt>
      <trkpt lat="44.9046" lon="5.62713">
        <ele>891.4</ele>
        <time>2021-04-22T13:57:17Z</time>
      </trkpt>
      <trkpt lat="44.90463" lon="5.62711">
        <ele>891.6</ele>
        <time>2021-04-22T13:57:18Z</time>
      </trkpt>
      <trkpt lat="44.90466" lon="5.62707">
        <ele>891.9</ele>
        <time>2021-04-22T13:57:19Z</time>
      </trkpt>
      <trkpt lat="44.90469" lon="5.62703">
        <ele>892.1</ele>
        <time>2021-04-22T13:57:21Z</time>
      </trkpt>
      <trkpt lat="44.90471" lon="5.62699">
        <ele>892.3</ele>
        <time>2021-04-22T13:57:22Z</time>
      </trkpt>
      <trkpt lat="44.90472" lon="5.62696">
        <ele>892.5</ele>
        <time>2021-04-22T13:57:23Z</time>
      </trkpt>
      <trkpt lat="44.90475" lon="5.62691">
        <ele>892.7</ele>
        <time>2021-04-22T13:57:24Z</time>
      </trkpt>
      <trkpt lat="44.90478" lon="5.62687">
        <ele>893</ele>
        <time>2021-04-22T13:57:26Z</time>
      </trkpt>
      <trkpt lat="44.90479" lon="5.62684">
        <ele>893.1</ele>
        <time>2021-04-22T13:57:27Z</time>
      </trkpt>
      <trkpt lat="44.90481" lon="5.62681">
        <ele>893.3</ele>
        <time>2021-04-22T13:57:28Z</time>
      </trkpt>
      <trkpt lat="44.90485" lon="5.62677">
        <ele>893.6</ele>
        <time>2021-04-22T13:57:29Z</time>
      </trkpt>
      <trkpt lat="44.90487" lon="5.62674">
        <ele>893.8</ele>
        <time>2021-04-22T13:57:31Z</time>
      </trkpt>
      <trkpt lat="44.90488" lon="5.62673">
        <ele>893.8</ele>
        <time>2021-04-22T13:57:32Z</time>
      </trkpt>
      <trkpt lat="44.9049" lon="5.62671">
        <ele>894</ele>
        <time>2021-04-22T13:57:33Z</time>
      </trkpt>
      <trkpt lat="44.90493" lon="5.62667">
        <ele>894.2</ele>
        <time>2021-04-22T13:57:35Z</time>
      </trkpt>
      <trkpt lat="44.90495" lon="5.62664">
        <ele>894.4</ele>
        <time>2021-04-22T13:57:36Z</time>
      </trkpt>
      <trkpt lat="44.90498" lon="5.62661">
        <ele>894.6</ele>
        <time>2021-04-22T13:57:38Z</time>
      </trkpt>
      <trkpt lat="44.905" lon="5.62657">
        <ele>894.8</ele>
        <time>2021-04-22T13:57:39Z</time>
      </trkpt>
      <trkpt lat="44.90501" lon="5.62656">
        <ele>894.8</ele>
        <time>2021-04-22T13:57:40Z</time>
      </trkpt>
      <trkpt lat="44.90505" lon="5.62653">
        <ele>895.1</ele>
        <time>2021-04-22T13:57:42Z</time>
      </trkpt>
      <trkpt lat="44.90507" lon="5.62651">
        <ele>895.2</ele>
        <time>2021-04-22T13:57:43Z</time>
      </trkpt>
      <trkpt lat="44.90508" lon="5.62651">
        <ele>895.3</ele>
        <time>2021-04-22T13:57:44Z</time>
      </trkpt>
      <trkpt lat="44.9051" lon="5.62648">
        <ele>895.4</ele>
        <time>2021-04-22T13:57:45Z</time>
      </trkpt>
      <trkpt lat="44.90513" lon="5.62644">
        <ele>895.5</ele>
        <time>2021-04-22T13:57:46Z</time>
      </trkpt>
      <trkpt lat="44.90516" lon="5.62641">
        <ele>895.7</ele>
        <time>2021-04-22T13:57:48Z</time>
      </trkpt>
      <trkpt lat="44.90517" lon="5.6264">
        <ele>895.8</ele>
        <time>2021-04-22T13:57:49Z</time>
      </trkpt>
      <trkpt lat="44.9052" lon="5.62636">
        <ele>896</ele>
        <time>2021-04-22T13:57:51Z</time>
      </trkpt>
      <trkpt lat="44.90523" lon="5.62634">
        <ele>896.2</ele>
        <time>2021-04-22T13:57:52Z</time>
      </trkpt>
      <trkpt lat="44.90528" lon="5.62632">
        <ele>896.5</ele>
        <time>2021-04-22T13:57:54Z</time>
      </trkpt>
      <trkpt lat="44.90533" lon="5.62628">
        <ele>896.8</ele>
        <time>2021-04-22T13:57:56Z</time>
      </trkpt>
      <trkpt lat="44.90536" lon="5.62627">
        <ele>897</ele>
        <time>2021-04-22T13:57:57Z</time>
      </trkpt>
      <trkpt lat="44.90538" lon="5.62625">
        <ele>897.2</ele>
        <time>2021-04-22T13:57:59Z</time>
      </trkpt>
      <trkpt lat="44.90544" lon="5.62624">
        <ele>897.5</ele>
        <time>2021-04-22T13:58:01Z</time>
      </trkpt>
      <trkpt lat="44.90548" lon="5.62623">
        <ele>897.7</ele>
        <time>2021-04-22T13:58:03Z</time>
      </trkpt>
      <trkpt lat="44.90552" lon="5.62621">
        <ele>897.9</ele>
        <time>2021-04-22T13:58:04Z</time>
      </trkpt>
      <trkpt lat="44.90555" lon="5.62619">
        <ele>898</ele>
        <time>2021-04-22T13:58:06Z</time>
      </trkpt>
      <trkpt lat="44.90558" lon="5.62619">
        <ele>898.1</ele>
        <time>2021-04-22T13:58:07Z</time>
      </trkpt>
      <trkpt lat="44.90559" lon="5.62619">
        <ele>898.1</ele>
        <time>2021-04-22T13:58:08Z</time>
      </trkpt>
      <trkpt lat="44.90563" lon="5.6262">
        <ele>898.3</ele>
        <time>2021-04-22T13:58:10Z</time>
      </trkpt>
      <trkpt lat="44.90567" lon="5.6262">
        <ele>898.4</ele>
        <time>2021-04-22T13:58:11Z</time>
      </trkpt>
      <trkpt lat="44.90568" lon="5.6262">
        <ele>898.5</ele>
        <time>2021-04-22T13:58:12Z</time>
      </trkpt>
      <trkpt lat="44.90571" lon="5.62619">
        <ele>898.6</ele>
        <time>2021-04-22T13:58:13Z</time>
      </trkpt>
      <trkpt lat="44.90576" lon="5.62619">
        <ele>898.7</ele>
        <time>2021-04-22T13:58:15Z</time>
      </trkpt>
      <trkpt lat="44.90581" lon="5.6262">
        <ele>898.8</ele>
        <time>2021-04-22T13:58:17Z</time>
      </trkpt>
      <trkpt lat="44.90582" lon="5.62621">
        <ele>898.8</ele>
        <time>2021-04-22T13:58:18Z</time>
      </trkpt>
      <trkpt lat="44.90584" lon="5.62621">
        <ele>898.9</ele>
        <time>2021-04-22T13:58:19Z</time>
      </trkpt>
      <trkpt lat="44.90588" lon="5.62622">
        <ele>898.9</ele>
        <time>2021-04-22T13:58:21Z</time>
      </trkpt>
      <trkpt lat="44.90592" lon="5.62623">
        <ele>899</ele>
        <time>2021-04-22T13:58:22Z</time>
      </trkpt>
      <trkpt lat="44.90596" lon="5.62625">
        <ele>899</ele>
        <time>2021-04-22T13:58:24Z</time>
      </trkpt>
      <trkpt lat="44.906" lon="5.62628">
        <ele>899.1</ele>
        <time>2021-04-22T13:58:25Z</time>
      </trkpt>
      <trkpt lat="44.90605" lon="5.62631">
        <ele>899.1</ele>
        <time>2021-04-22T13:58:27Z</time>
      </trkpt>
      <trkpt lat="44.9061" lon="5.62634">
        <ele>899.1</ele>
        <time>2021-04-22T13:58:29Z</time>
      </trkpt>
      <trkpt lat="44.90613" lon="5.62635">
        <ele>899.1</ele>
        <time>2021-04-22T13:58:30Z</time>
      </trkpt>
      <trkpt lat="44.9062" lon="5.62638">
        <ele>899.1</ele>
        <time>2021-04-22T13:58:32Z</time>
      </trkpt>
      <trkpt lat="44.90623" lon="5.6264">
        <ele>899.1</ele>
        <time>2021-04-22T13:58:33Z</time>
      </trkpt>
      <trkpt lat="44.90627" lon="5.62643">
        <ele>899</ele>
        <time>2021-04-22T13:58:34Z</time>
      </trkpt>
      <trkpt lat="44.90635" lon="5.62646">
        <ele>898.9</ele>
        <time>2021-04-22T13:58:36Z</time>
      </trkpt>
      <trkpt lat="44.90641" lon="5.62649">
        <ele>898.7</ele>
        <time>2021-04-22T13:58:37Z</time>
      </trkpt>
      <trkpt lat="44.90645" lon="5.62651">
        <ele>898.6</ele>
        <time>2021-04-22T13:58:39Z</time>
      </trkpt>
      <trkpt lat="44.90649" lon="5.62654">
        <ele>898.5</ele>
        <time>2021-04-22T13:58:40Z</time>
      </trkpt>
      <trkpt lat="44.90657" lon="5.62659">
        <ele>898.1</ele>
        <time>2021-04-22T13:58:42Z</time>
      </trkpt>
      <trkpt lat="44.90661" lon="5.62662">
        <ele>897.9</ele>
        <time>2021-04-22T13:58:43Z</time>
      </trkpt>
      <trkpt lat="44.90666" lon="5.62665">
        <ele>897.7</ele>
        <time>2021-04-22T13:58:44Z</time>
      </trkpt>
      <trkpt lat="44.9067" lon="5.62669">
        <ele>897.5</ele>
        <time>2021-04-22T13:58:45Z</time>
      </trkpt>
      <trkpt lat="44.90674" lon="5.62673">
        <ele>897.2</ele>
        <time>2021-04-22T13:58:46Z</time>
      </trkpt>
      <trkpt lat="44.90678" lon="5.62679">
        <ele>896.9</ele>
        <time>2021-04-22T13:58:47Z</time>
      </trkpt>
      <trkpt lat="44.90683" lon="5.62684">
        <ele>896.5</ele>
        <time>2021-04-22T13:58:48Z</time>
      </trkpt>
      <trkpt lat="44.90688" lon="5.6269">
        <ele>896.1</ele>
        <time>2021-04-22T13:58:49Z</time>
      </trkpt>
      <trkpt lat="44.90692" lon="5.62696">
        <ele>895.6</ele>
        <time>2021-04-22T13:58:50Z</time>
      </trkpt>
      <trkpt lat="44.90698" lon="5.62703">
        <ele>895.1</ele>
        <time>2021-04-22T13:58:51Z</time>
      </trkpt>
      <trkpt lat="44.90703" lon="5.6271">
        <ele>894.5</ele>
        <time>2021-04-22T13:58:52Z</time>
      </trkpt>
      <trkpt lat="44.90708" lon="5.62718">
        <ele>893.9</ele>
        <time>2021-04-22T13:58:53Z</time>
      </trkpt>
      <trkpt lat="44.90713" lon="5.62726">
        <ele>893.3</ele>
        <time>2021-04-22T13:58:54Z</time>
      </trkpt>
      <trkpt lat="44.90718" lon="5.62736">
        <ele>892.8</ele>
        <time>2021-04-22T13:58:55Z</time>
      </trkpt>
      <trkpt lat="44.90722" lon="5.62746">
        <ele>892.2</ele>
        <time>2021-04-22T13:58:56Z</time>
      </trkpt>
      <trkpt lat="44.90726" lon="5.62757">
        <ele>891.6</ele>
        <time>2021-04-22T13:58:57Z</time>
      </trkpt>
      <trkpt lat="44.90731" lon="5.62768">
        <ele>891</ele>
        <time>2021-04-22T13:58:58Z</time>
      </trkpt>
      <trkpt lat="44.90736" lon="5.62778">
        <ele>890.4</ele>
        <time>2021-04-22T13:58:59Z</time>
      </trkpt>
      <trkpt lat="44.90743" lon="5.62786">
        <ele>889.8</ele>
        <time>2021-04-22T13:59:00Z</time>
      </trkpt>
      <trkpt lat="44.90751" lon="5.62792">
        <ele>889.2</ele>
        <time>2021-04-22T13:59:01Z</time>
      </trkpt>
      <trkpt lat="44.90759" lon="5.62797">
        <ele>888.6</ele>
        <time>2021-04-22T13:59:02Z</time>
      </trkpt>
      <trkpt lat="44.90766" lon="5.62804">
        <ele>888</ele>
        <time>2021-04-22T13:59:03Z</time>
      </trkpt>
      <trkpt lat="44.90771" lon="5.62815">
        <ele>886.6</ele>
        <time>2021-04-22T13:59:04Z</time>
      </trkpt>
      <trkpt lat="44.90772" lon="5.62828">
        <ele>885.7</ele>
        <time>2021-04-22T13:59:05Z</time>
      </trkpt>
      <trkpt lat="44.90774" lon="5.62842">
        <ele>884.9</ele>
        <time>2021-04-22T13:59:06Z</time>
      </trkpt>
      <trkpt lat="44.90777" lon="5.62855">
        <ele>884.1</ele>
        <time>2021-04-22T13:59:07Z</time>
      </trkpt>
      <trkpt lat="44.90781" lon="5.62868">
        <ele>883.3</ele>
        <time>2021-04-22T13:59:08Z</time>
      </trkpt>
      <trkpt lat="44.90785" lon="5.6288">
        <ele>882.5</ele>
        <time>2021-04-22T13:59:09Z</time>
      </trkpt>
      <trkpt lat="44.90789" lon="5.62893">
        <ele>881.7</ele>
        <time>2021-04-22T13:59:10Z</time>
      </trkpt>
      <trkpt lat="44.90794" lon="5.62904">
        <ele>880.9</ele>
        <time>2021-04-22T13:59:11Z</time>
      </trkpt>
      <trkpt lat="44.90799" lon="5.62916">
        <ele>880</ele>
        <time>2021-04-22T13:59:12Z</time>
      </trkpt>
      <trkpt lat="44.90805" lon="5.62927">
        <ele>879.2</ele>
        <time>2021-04-22T13:59:13Z</time>
      </trkpt>
      <trkpt lat="44.90812" lon="5.62939">
        <ele>878.3</ele>
        <time>2021-04-22T13:59:14Z</time>
      </trkpt>
      <trkpt lat="44.90819" lon="5.62951">
        <ele>877.4</ele>
        <time>2021-04-22T13:59:15Z</time>
      </trkpt>
      <trkpt lat="44.90826" lon="5.62962">
        <ele>876.6</ele>
        <time>2021-04-22T13:59:16Z</time>
      </trkpt>
      <trkpt lat="44.90834" lon="5.62973">
        <ele>876</ele>
        <time>2021-04-22T13:59:17Z</time>
      </trkpt>
      <trkpt lat="44.90841" lon="5.62984">
        <ele>875.4</ele>
        <time>2021-04-22T13:59:18Z</time>
      </trkpt>
      <trkpt lat="44.9085" lon="5.62994">
        <ele>874.9</ele>
        <time>2021-04-22T13:59:19Z</time>
      </trkpt>
      <trkpt lat="44.90858" lon="5.63004">
        <ele>874.4</ele>
        <time>2021-04-22T13:59:20Z</time>
      </trkpt>
      <trkpt lat="44.90868" lon="5.63013">
        <ele>873.4</ele>
        <time>2021-04-22T13:59:21Z</time>
      </trkpt>
      <trkpt lat="44.90877" lon="5.63022">
        <ele>872.4</ele>
        <time>2021-04-22T13:59:22Z</time>
      </trkpt>
      <trkpt lat="44.90887" lon="5.6303">
        <ele>871.4</ele>
        <time>2021-04-22T13:59:23Z</time>
      </trkpt>
      <trkpt lat="44.90897" lon="5.63037">
        <ele>870.5</ele>
        <time>2021-04-22T13:59:24Z</time>
      </trkpt>
      <trkpt lat="44.90907" lon="5.63044">
        <ele>869.5</ele>
        <time>2021-04-22T13:59:25Z</time>
      </trkpt>
      <trkpt lat="44.90918" lon="5.63051">
        <ele>868.5</ele>
        <time>2021-04-22T13:59:26Z</time>
      </trkpt>
      <trkpt lat="44.90928" lon="5.63057">
        <ele>867.5</ele>
        <time>2021-04-22T13:59:27Z</time>
      </trkpt>
      <trkpt lat="44.90939" lon="5.63062">
        <ele>866.5</ele>
        <time>2021-04-22T13:59:28Z</time>
      </trkpt>
      <trkpt lat="44.90949" lon="5.63068">
        <ele>865.4</ele>
        <time>2021-04-22T13:59:29Z</time>
      </trkpt>
      <trkpt lat="44.90961" lon="5.63074">
        <ele>864.2</ele>
        <time>2021-04-22T13:59:30Z</time>
      </trkpt>
      <trkpt lat="44.90971" lon="5.6308">
        <ele>863</ele>
        <time>2021-04-22T13:59:31Z</time>
      </trkpt>
      <trkpt lat="44.90982" lon="5.63087">
        <ele>861.9</ele>
        <time>2021-04-22T13:59:32Z</time>
      </trkpt>
      <trkpt lat="44.90992" lon="5.63094">
        <ele>860.9</ele>
        <time>2021-04-22T13:59:33Z</time>
      </trkpt>
      <trkpt lat="44.91002" lon="5.631">
        <ele>859.9</ele>
        <time>2021-04-22T13:59:34Z</time>
      </trkpt>
      <trkpt lat="44.91013" lon="5.63106">
        <ele>858.9</ele>
        <time>2021-04-22T13:59:35Z</time>
      </trkpt>
      <trkpt lat="44.91023" lon="5.63111">
        <ele>857.9</ele>
        <time>2021-04-22T13:59:36Z</time>
      </trkpt>
      <trkpt lat="44.91034" lon="5.63116">
        <ele>857</ele>
        <time>2021-04-22T13:59:37Z</time>
      </trkpt>
      <trkpt lat="44.91044" lon="5.63122">
        <ele>856.1</ele>
        <time>2021-04-22T13:59:38Z</time>
      </trkpt>
      <trkpt lat="44.91054" lon="5.63127">
        <ele>855.3</ele>
        <time>2021-04-22T13:59:39Z</time>
      </trkpt>
      <trkpt lat="44.91063" lon="5.63133">
        <ele>854.6</ele>
        <time>2021-04-22T13:59:40Z</time>
      </trkpt>
      <trkpt lat="44.91073" lon="5.63139">
        <ele>854</ele>
        <time>2021-04-22T13:59:41Z</time>
      </trkpt>
      <trkpt lat="44.91083" lon="5.63144">
        <ele>853.4</ele>
        <time>2021-04-22T13:59:42Z</time>
      </trkpt>
      <trkpt lat="44.91093" lon="5.63149">
        <ele>852.7</ele>
        <time>2021-04-22T13:59:43Z</time>
      </trkpt>
      <trkpt lat="44.91102" lon="5.63155">
        <ele>852.2</ele>
        <time>2021-04-22T13:59:44Z</time>
      </trkpt>
      <trkpt lat="44.91112" lon="5.6316">
        <ele>851.6</ele>
        <time>2021-04-22T13:59:45Z</time>
      </trkpt>
      <trkpt lat="44.91121" lon="5.63165">
        <ele>851.1</ele>
        <time>2021-04-22T13:59:46Z</time>
      </trkpt>
      <trkpt lat="44.91131" lon="5.6317">
        <ele>850.5</ele>
        <time>2021-04-22T13:59:47Z</time>
      </trkpt>
      <trkpt lat="44.9114" lon="5.63175">
        <ele>850.1</ele>
        <time>2021-04-22T13:59:48Z</time>
      </trkpt>
      <trkpt lat="44.9115" lon="5.63179">
        <ele>849.7</ele>
        <time>2021-04-22T13:59:49Z</time>
      </trkpt>
      <trkpt lat="44.91159" lon="5.63184">
        <ele>849.4</ele>
        <time>2021-04-22T13:59:50Z</time>
      </trkpt>
      <trkpt lat="44.91169" lon="5.63189">
        <ele>849</ele>
        <time>2021-04-22T13:59:51Z</time>
      </trkpt>
      <trkpt lat="44.91178" lon="5.63194">
        <ele>848.7</ele>
        <time>2021-04-22T13:59:52Z</time>
      </trkpt>
      <trkpt lat="44.91186" lon="5.63199">
        <ele>848.5</ele>
        <time>2021-04-22T13:59:53Z</time>
      </trkpt>
      <trkpt lat="44.91195" lon="5.63205">
        <ele>848.2</ele>
        <time>2021-04-22T13:59:54Z</time>
      </trkpt>
      <trkpt lat="44.91203" lon="5.63211">
        <ele>847.9</ele>
        <time>2021-04-22T13:59:55Z</time>
      </trkpt>
      <trkpt lat="44.91212" lon="5.63216">
        <ele>847.6</ele>
        <time>2021-04-22T13:59:56Z</time>
      </trkpt>
      <trkpt lat="44.91221" lon="5.6322">
        <ele>847.4</ele>
        <time>2021-04-22T13:59:57Z</time>
      </trkpt>
      <trkpt lat="44.91229" lon="5.63224">
        <ele>847.1</ele>
        <time>2021-04-22T13:59:58Z</time>
      </trkpt>
      <trkpt lat="44.91237" lon="5.63228">
        <ele>846.9</ele>
        <time>2021-04-22T13:59:59Z</time>
      </trkpt>
      <trkpt lat="44.91244" lon="5.63233">
        <ele>846.6</ele>
        <time>2021-04-22T14:00:00Z</time>
      </trkpt>
      <trkpt lat="44.91252" lon="5.63238">
        <ele>846.4</ele>
        <time>2021-04-22T14:00:01Z</time>
      </trkpt>
      <trkpt lat="44.91259" lon="5.63242">
        <ele>846.2</ele>
        <time>2021-04-22T14:00:02Z</time>
      </trkpt>
      <trkpt lat="44.91267" lon="5.63247">
        <ele>846</ele>
        <time>2021-04-22T14:00:03Z</time>
      </trkpt>
      <trkpt lat="44.91275" lon="5.63251">
        <ele>845.8</ele>
        <time>2021-04-22T14:00:04Z</time>
      </trkpt>
      <trkpt lat="44.91282" lon="5.63255">
        <ele>845.6</ele>
        <time>2021-04-22T14:00:05Z</time>
      </trkpt>
      <trkpt lat="44.9129" lon="5.63261">
        <ele>845.3</ele>
        <time>2021-04-22T14:00:06Z</time>
      </trkpt>
      <trkpt lat="44.91298" lon="5.63267">
        <ele>845.2</ele>
        <time>2021-04-22T14:00:07Z</time>
      </trkpt>
      <trkpt lat="44.91306" lon="5.63272">
        <ele>845</ele>
        <time>2021-04-22T14:00:08Z</time>
      </trkpt>
      <trkpt lat="44.91314" lon="5.63274">
        <ele>844.6</ele>
        <time>2021-04-22T14:00:09Z</time>
      </trkpt>
      <trkpt lat="44.91322" lon="5.63277">
        <ele>844.2</ele>
        <time>2021-04-22T14:00:10Z</time>
      </trkpt>
      <trkpt lat="44.9133" lon="5.6328">
        <ele>843.8</ele>
        <time>2021-04-22T14:00:11Z</time>
      </trkpt>
      <trkpt lat="44.91338" lon="5.63285">
        <ele>843.5</ele>
        <time>2021-04-22T14:00:12Z</time>
      </trkpt>
      <trkpt lat="44.91346" lon="5.63289">
        <ele>843.1</ele>
        <time>2021-04-22T14:00:13Z</time>
      </trkpt>
      <trkpt lat="44.91354" lon="5.63293">
        <ele>842.7</ele>
        <time>2021-04-22T14:00:14Z</time>
      </trkpt>
      <trkpt lat="44.91361" lon="5.63297">
        <ele>842.3</ele>
        <time>2021-04-22T14:00:15Z</time>
      </trkpt>
      <trkpt lat="44.91369" lon="5.63301">
        <ele>841.9</ele>
        <time>2021-04-22T14:00:16Z</time>
      </trkpt>
      <trkpt lat="44.91376" lon="5.63305">
        <ele>841.4</ele>
        <time>2021-04-22T14:00:17Z</time>
      </trkpt>
      <trkpt lat="44.91384" lon="5.63309">
        <ele>841</ele>
        <time>2021-04-22T14:00:18Z</time>
      </trkpt>
      <trkpt lat="44.91392" lon="5.63313">
        <ele>840.6</ele>
        <time>2021-04-22T14:00:19Z</time>
      </trkpt>
      <trkpt lat="44.914" lon="5.63317">
        <ele>840.3</ele>
        <time>2021-04-22T14:00:20Z</time>
      </trkpt>
      <trkpt lat="44.91409" lon="5.63321">
        <ele>840</ele>
        <time>2021-04-22T14:00:21Z</time>
      </trkpt>
      <trkpt lat="44.91417" lon="5.63326">
        <ele>839.8</ele>
        <time>2021-04-22T14:00:22Z</time>
      </trkpt>
      <trkpt lat="44.91426" lon="5.63332">
        <ele>839.3</ele>
        <time>2021-04-22T14:00:23Z</time>
      </trkpt>
      <trkpt lat="44.91434" lon="5.63336">
        <ele>838.8</ele>
        <time>2021-04-22T14:00:24Z</time>
      </trkpt>
      <trkpt lat="44.91442" lon="5.63341">
        <ele>838.3</ele>
        <time>2021-04-22T14:00:25Z</time>
      </trkpt>
      <trkpt lat="44.91451" lon="5.63345">
        <ele>837.8</ele>
        <time>2021-04-22T14:00:26Z</time>
      </trkpt>
      <trkpt lat="44.91459" lon="5.63349">
        <ele>837.2</ele>
        <time>2021-04-22T14:00:27Z</time>
      </trkpt>
      <trkpt lat="44.91467" lon="5.63353">
        <ele>836.6</ele>
        <time>2021-04-22T14:00:28Z</time>
      </trkpt>
      <trkpt lat="44.91475" lon="5.63357">
        <ele>836</ele>
        <time>2021-04-22T14:00:29Z</time>
      </trkpt>
      <trkpt lat="44.91483" lon="5.63362">
        <ele>835.4</ele>
        <time>2021-04-22T14:00:30Z</time>
      </trkpt>
      <trkpt lat="44.91492" lon="5.63366">
        <ele>834.7</ele>
        <time>2021-04-22T14:00:31Z</time>
      </trkpt>
      <trkpt lat="44.915" lon="5.63371">
        <ele>834</ele>
        <time>2021-04-22T14:00:32Z</time>
      </trkpt>
      <trkpt lat="44.91508" lon="5.63375">
        <ele>833.4</ele>
        <time>2021-04-22T14:00:33Z</time>
      </trkpt>
      <trkpt lat="44.91517" lon="5.63379">
        <ele>832.7</ele>
        <time>2021-04-22T14:00:34Z</time>
      </trkpt>
      <trkpt lat="44.91525" lon="5.63384">
        <ele>832</ele>
        <time>2021-04-22T14:00:35Z</time>
      </trkpt>
      <trkpt lat="44.91533" lon="5.63388">
        <ele>831.3</ele>
        <time>2021-04-22T14:00:36Z</time>
      </trkpt>
      <trkpt lat="44.91542" lon="5.63394">
        <ele>830.7</ele>
        <time>2021-04-22T14:00:37Z</time>
      </trkpt>
      <trkpt lat="44.91551" lon="5.63399">
        <ele>830.5</ele>
        <time>2021-04-22T14:00:38Z</time>
      </trkpt>
      <trkpt lat="44.91559" lon="5.63403">
        <ele>830.2</ele>
        <time>2021-04-22T14:00:39Z</time>
      </trkpt>
      <trkpt lat="44.91568" lon="5.63408">
        <ele>829.7</ele>
        <time>2021-04-22T14:00:40Z</time>
      </trkpt>
      <trkpt lat="44.91577" lon="5.63411">
        <ele>829.1</ele>
        <time>2021-04-22T14:00:41Z</time>
      </trkpt>
      <trkpt lat="44.91587" lon="5.63414">
        <ele>828.5</ele>
        <time>2021-04-22T14:00:42Z</time>
      </trkpt>
      <trkpt lat="44.91597" lon="5.63415">
        <ele>827.8</ele>
        <time>2021-04-22T14:00:43Z</time>
      </trkpt>
      <trkpt lat="44.91606" lon="5.63418">
        <ele>827</ele>
        <time>2021-04-22T14:00:44Z</time>
      </trkpt>
      <trkpt lat="44.91614" lon="5.63424">
        <ele>826.7</ele>
        <time>2021-04-22T14:00:45Z</time>
      </trkpt>
      <trkpt lat="44.91622" lon="5.63433">
        <ele>826.3</ele>
        <time>2021-04-22T14:00:46Z</time>
      </trkpt>
      <trkpt lat="44.91631" lon="5.63441">
        <ele>826</ele>
        <time>2021-04-22T14:00:47Z</time>
      </trkpt>
      <trkpt lat="44.91639" lon="5.63448">
        <ele>825.6</ele>
        <time>2021-04-22T14:00:48Z</time>
      </trkpt>
      <trkpt lat="44.91648" lon="5.63453">
        <ele>825.1</ele>
        <time>2021-04-22T14:00:49Z</time>
      </trkpt>
      <trkpt lat="44.91657" lon="5.63457">
        <ele>824.5</ele>
        <time>2021-04-22T14:00:50Z</time>
      </trkpt>
      <trkpt lat="44.91666" lon="5.63461">
        <ele>823.9</ele>
        <time>2021-04-22T14:00:51Z</time>
      </trkpt>
      <trkpt lat="44.91674" lon="5.63466">
        <ele>823.4</ele>
        <time>2021-04-22T14:00:52Z</time>
      </trkpt>
      <trkpt lat="44.91681" lon="5.6347">
        <ele>822.9</ele>
        <time>2021-04-22T14:00:53Z</time>
      </trkpt>
      <trkpt lat="44.91687" lon="5.63473">
        <ele>822.4</ele>
        <time>2021-04-22T14:00:54Z</time>
      </trkpt>
      <trkpt lat="44.91694" lon="5.63476">
        <ele>821.9</ele>
        <time>2021-04-22T14:00:55Z</time>
      </trkpt>
      <trkpt lat="44.91701" lon="5.63478">
        <ele>821.4</ele>
        <time>2021-04-22T14:00:56Z</time>
      </trkpt>
      <trkpt lat="44.91708" lon="5.63481">
        <ele>820.9</ele>
        <time>2021-04-22T14:00:57Z</time>
      </trkpt>
      <trkpt lat="44.91715" lon="5.63484">
        <ele>820.4</ele>
        <time>2021-04-22T14:00:58Z</time>
      </trkpt>
      <trkpt lat="44.91721" lon="5.63488">
        <ele>820</ele>
        <time>2021-04-22T14:00:59Z</time>
      </trkpt>
      <trkpt lat="44.91727" lon="5.63492">
        <ele>819.6</ele>
        <time>2021-04-22T14:01:00Z</time>
      </trkpt>
      <trkpt lat="44.91734" lon="5.63496">
        <ele>819.3</ele>
        <time>2021-04-22T14:01:01Z</time>
      </trkpt>
      <trkpt lat="44.91741" lon="5.635">
        <ele>818.9</ele>
        <time>2021-04-22T14:01:02Z</time>
      </trkpt>
      <trkpt lat="44.91747" lon="5.63504">
        <ele>818.6</ele>
        <time>2021-04-22T14:01:03Z</time>
      </trkpt>
      <trkpt lat="44.91754" lon="5.63508">
        <ele>818.2</ele>
        <time>2021-04-22T14:01:04Z</time>
      </trkpt>
      <trkpt lat="44.91761" lon="5.63511">
        <ele>817.9</ele>
        <time>2021-04-22T14:01:05Z</time>
      </trkpt>
      <trkpt lat="44.91768" lon="5.63515">
        <ele>817.4</ele>
        <time>2021-04-22T14:01:06Z</time>
      </trkpt>
      <trkpt lat="44.91774" lon="5.6352">
        <ele>817</ele>
        <time>2021-04-22T14:01:07Z</time>
      </trkpt>
      <trkpt lat="44.91781" lon="5.63524">
        <ele>816.6</ele>
        <time>2021-04-22T14:01:08Z</time>
      </trkpt>
      <trkpt lat="44.91789" lon="5.63527">
        <ele>816.2</ele>
        <time>2021-04-22T14:01:09Z</time>
      </trkpt>
      <trkpt lat="44.91795" lon="5.6353">
        <ele>815.8</ele>
        <time>2021-04-22T14:01:10Z</time>
      </trkpt>
      <trkpt lat="44.91801" lon="5.63533">
        <ele>815.5</ele>
        <time>2021-04-22T14:01:11Z</time>
      </trkpt>
      <trkpt lat="44.91808" lon="5.63536">
        <ele>815.3</ele>
        <time>2021-04-22T14:01:12Z</time>
      </trkpt>
      <trkpt lat="44.91815" lon="5.63539">
        <ele>815</ele>
        <time>2021-04-22T14:01:13Z</time>
      </trkpt>
      <trkpt lat="44.91821" lon="5.63543">
        <ele>814.6</ele>
        <time>2021-04-22T14:01:14Z</time>
      </trkpt>
      <trkpt lat="44.91827" lon="5.63547">
        <ele>814.2</ele>
        <time>2021-04-22T14:01:15Z</time>
      </trkpt>
      <trkpt lat="44.91833" lon="5.6355">
        <ele>813.8</ele>
        <time>2021-04-22T14:01:16Z</time>
      </trkpt>
      <trkpt lat="44.91839" lon="5.63553">
        <ele>813.4</ele>
        <time>2021-04-22T14:01:17Z</time>
      </trkpt>
      <trkpt lat="44.91845" lon="5.63556">
        <ele>813.1</ele>
        <time>2021-04-22T14:01:18Z</time>
      </trkpt>
      <trkpt lat="44.91852" lon="5.63559">
        <ele>812.8</ele>
        <time>2021-04-22T14:01:19Z</time>
      </trkpt>
      <trkpt lat="44.91859" lon="5.63561">
        <ele>812.5</ele>
        <time>2021-04-22T14:01:20Z</time>
      </trkpt>
      <trkpt lat="44.91866" lon="5.63563">
        <ele>812.2</ele>
        <time>2021-04-22T14:01:21Z</time>
      </trkpt>
      <trkpt lat="44.91873" lon="5.63566">
        <ele>811.9</ele>
        <time>2021-04-22T14:01:22Z</time>
      </trkpt>
      <trkpt lat="44.9188" lon="5.6357">
        <ele>811.6</ele>
        <time>2021-04-22T14:01:23Z</time>
      </trkpt>
      <trkpt lat="44.91887" lon="5.63572">
        <ele>811.3</ele>
        <time>2021-04-22T14:01:24Z</time>
      </trkpt>
      <trkpt lat="44.91894" lon="5.63575">
        <ele>811</ele>
        <time>2021-04-22T14:01:25Z</time>
      </trkpt>
      <trkpt lat="44.91901" lon="5.63578">
        <ele>810.8</ele>
        <time>2021-04-22T14:01:26Z</time>
      </trkpt>
      <trkpt lat="44.91907" lon="5.63581">
        <ele>810.5</ele>
        <time>2021-04-22T14:01:27Z</time>
      </trkpt>
      <trkpt lat="44.91914" lon="5.63584">
        <ele>810.3</ele>
        <time>2021-04-22T14:01:28Z</time>
      </trkpt>
      <trkpt lat="44.91921" lon="5.63587">
        <ele>810.1</ele>
        <time>2021-04-22T14:01:29Z</time>
      </trkpt>
      <trkpt lat="44.91928" lon="5.63589">
        <ele>809.8</ele>
        <time>2021-04-22T14:01:30Z</time>
      </trkpt>
      <trkpt lat="44.91935" lon="5.63592">
        <ele>809.6</ele>
        <time>2021-04-22T14:01:31Z</time>
      </trkpt>
      <trkpt lat="44.91942" lon="5.63594">
        <ele>809.3</ele>
        <time>2021-04-22T14:01:32Z</time>
      </trkpt>
      <trkpt lat="44.91949" lon="5.63595">
        <ele>809.1</ele>
        <time>2021-04-22T14:01:33Z</time>
      </trkpt>
      <trkpt lat="44.91956" lon="5.63597">
        <ele>808.8</ele>
        <time>2021-04-22T14:01:34Z</time>
      </trkpt>
      <trkpt lat="44.91963" lon="5.63597">
        <ele>808.6</ele>
        <time>2021-04-22T14:01:35Z</time>
      </trkpt>
      <trkpt lat="44.9197" lon="5.63599">
        <ele>808.4</ele>
        <time>2021-04-22T14:01:36Z</time>
      </trkpt>
      <trkpt lat="44.91978" lon="5.63601">
        <ele>808.2</ele>
        <time>2021-04-22T14:01:37Z</time>
      </trkpt>
      <trkpt lat="44.91985" lon="5.63604">
        <ele>807.9</ele>
        <time>2021-04-22T14:01:38Z</time>
      </trkpt>
      <trkpt lat="44.91992" lon="5.63607">
        <ele>807.7</ele>
        <time>2021-04-22T14:01:39Z</time>
      </trkpt>
      <trkpt lat="44.91999" lon="5.63608">
        <ele>807.5</ele>
        <time>2021-04-22T14:01:40Z</time>
      </trkpt>
      <trkpt lat="44.92006" lon="5.63611">
        <ele>807.4</ele>
        <time>2021-04-22T14:01:41Z</time>
      </trkpt>
      <trkpt lat="44.92013" lon="5.63614">
        <ele>807.2</ele>
        <time>2021-04-22T14:01:42Z</time>
      </trkpt>
      <trkpt lat="44.9202" lon="5.63616">
        <ele>807</ele>
        <time>2021-04-22T14:01:43Z</time>
      </trkpt>
      <trkpt lat="44.92026" lon="5.63618">
        <ele>806.9</ele>
        <time>2021-04-22T14:01:44Z</time>
      </trkpt>
      <trkpt lat="44.92033" lon="5.6362">
        <ele>806.7</ele>
        <time>2021-04-22T14:01:45Z</time>
      </trkpt>
      <trkpt lat="44.9204" lon="5.63622">
        <ele>806.6</ele>
        <time>2021-04-22T14:01:46Z</time>
      </trkpt>
      <trkpt lat="44.92047" lon="5.63625">
        <ele>806.4</ele>
        <time>2021-04-22T14:01:47Z</time>
      </trkpt>
      <trkpt lat="44.92053" lon="5.63628">
        <ele>806.3</ele>
        <time>2021-04-22T14:01:48Z</time>
      </trkpt>
      <trkpt lat="44.9206" lon="5.6363">
        <ele>806.2</ele>
        <time>2021-04-22T14:01:49Z</time>
      </trkpt>
      <trkpt lat="44.92067" lon="5.63632">
        <ele>806</ele>
        <time>2021-04-22T14:01:50Z</time>
      </trkpt>
      <trkpt lat="44.92073" lon="5.63633">
        <ele>806</ele>
        <time>2021-04-22T14:01:51Z</time>
      </trkpt>
      <trkpt lat="44.9208" lon="5.63635">
        <ele>805.9</ele>
        <time>2021-04-22T14:01:52Z</time>
      </trkpt>
      <trkpt lat="44.92086" lon="5.63637">
        <ele>805.5</ele>
        <time>2021-04-22T14:01:53Z</time>
      </trkpt>
      <trkpt lat="44.92093" lon="5.63639">
        <ele>805.1</ele>
        <time>2021-04-22T14:01:54Z</time>
      </trkpt>
      <trkpt lat="44.921" lon="5.63641">
        <ele>804.6</ele>
        <time>2021-04-22T14:01:55Z</time>
      </trkpt>
      <trkpt lat="44.92106" lon="5.63643">
        <ele>804.3</ele>
        <time>2021-04-22T14:01:56Z</time>
      </trkpt>
      <trkpt lat="44.92112" lon="5.63646">
        <ele>804.3</ele>
        <time>2021-04-22T14:01:57Z</time>
      </trkpt>
      <trkpt lat="44.92118" lon="5.63648">
        <ele>804.2</ele>
        <time>2021-04-22T14:01:58Z</time>
      </trkpt>
      <trkpt lat="44.92124" lon="5.6365">
        <ele>804.2</ele>
        <time>2021-04-22T14:01:59Z</time>
      </trkpt>
      <trkpt lat="44.9213" lon="5.63651">
        <ele>804.1</ele>
        <time>2021-04-22T14:02:00Z</time>
      </trkpt>
      <trkpt lat="44.92136" lon="5.63654">
        <ele>804</ele>
        <time>2021-04-22T14:02:01Z</time>
      </trkpt>
      <trkpt lat="44.92141" lon="5.63657">
        <ele>804</ele>
        <time>2021-04-22T14:02:02Z</time>
      </trkpt>
      <trkpt lat="44.92147" lon="5.63659">
        <ele>804</ele>
        <time>2021-04-22T14:02:03Z</time>
      </trkpt>
      <trkpt lat="44.92153" lon="5.63661">
        <ele>804</ele>
        <time>2021-04-22T14:02:04Z</time>
      </trkpt>
      <trkpt lat="44.92159" lon="5.63662">
        <ele>803.9</ele>
        <time>2021-04-22T14:02:05Z</time>
      </trkpt>
      <trkpt lat="44.92164" lon="5.63664">
        <ele>803.9</ele>
        <time>2021-04-22T14:02:06Z</time>
      </trkpt>
      <trkpt lat="44.9217" lon="5.63666">
        <ele>803.9</ele>
        <time>2021-04-22T14:02:07Z</time>
      </trkpt>
      <trkpt lat="44.92176" lon="5.63668">
        <ele>803.9</ele>
        <time>2021-04-22T14:02:08Z</time>
      </trkpt>
      <trkpt lat="44.92181" lon="5.6367">
        <ele>803.9</ele>
        <time>2021-04-22T14:02:09Z</time>
      </trkpt>
      <trkpt lat="44.92187" lon="5.63672">
        <ele>803.9</ele>
        <time>2021-04-22T14:02:10Z</time>
      </trkpt>
      <trkpt lat="44.92193" lon="5.63673">
        <ele>803.9</ele>
        <time>2021-04-22T14:02:11Z</time>
      </trkpt>
      <trkpt lat="44.92198" lon="5.63675">
        <ele>803.8</ele>
        <time>2021-04-22T14:02:12Z</time>
      </trkpt>
      <trkpt lat="44.92203" lon="5.63677">
        <ele>803.8</ele>
        <time>2021-04-22T14:02:13Z</time>
      </trkpt>
      <trkpt lat="44.92208" lon="5.63679">
        <ele>803.8</ele>
        <time>2021-04-22T14:02:14Z</time>
      </trkpt>
      <trkpt lat="44.92214" lon="5.63681">
        <ele>803.8</ele>
        <time>2021-04-22T14:02:15Z</time>
      </trkpt>
      <trkpt lat="44.92219" lon="5.63683">
        <ele>803.8</ele>
        <time>2021-04-22T14:02:16Z</time>
      </trkpt>
      <trkpt lat="44.92224" lon="5.63685">
        <ele>803.8</ele>
        <time>2021-04-22T14:02:17Z</time>
      </trkpt>
      <trkpt lat="44.92229" lon="5.63687">
        <ele>803.7</ele>
        <time>2021-04-22T14:02:18Z</time>
      </trkpt>
      <trkpt lat="44.92234" lon="5.63688">
        <ele>803.7</ele>
        <time>2021-04-22T14:02:19Z</time>
      </trkpt>
      <trkpt lat="44.92239" lon="5.6369">
        <ele>803.7</ele>
        <time>2021-04-22T14:02:20Z</time>
      </trkpt>
      <trkpt lat="44.92244" lon="5.63691">
        <ele>803.7</ele>
        <time>2021-04-22T14:02:21Z</time>
      </trkpt>
      <trkpt lat="44.92249" lon="5.63693">
        <ele>803.7</ele>
        <time>2021-04-22T14:02:22Z</time>
      </trkpt>
      <trkpt lat="44.92254" lon="5.63696">
        <ele>803.6</ele>
        <time>2021-04-22T14:02:23Z</time>
      </trkpt>
      <trkpt lat="44.92257" lon="5.63697">
        <ele>803.6</ele>
        <time>2021-04-22T14:02:24Z</time>
      </trkpt>
      <trkpt lat="44.92262" lon="5.63698">
        <ele>803.6</ele>
        <time>2021-04-22T14:02:25Z</time>
      </trkpt>
      <trkpt lat="44.92267" lon="5.637">
        <ele>803.6</ele>
        <time>2021-04-22T14:02:26Z</time>
      </trkpt>
      <trkpt lat="44.92272" lon="5.63703">
        <ele>803.6</ele>
        <time>2021-04-22T14:02:27Z</time>
      </trkpt>
      <trkpt lat="44.92278" lon="5.63704">
        <ele>803.5</ele>
        <time>2021-04-22T14:02:28Z</time>
      </trkpt>
      <trkpt lat="44.92283" lon="5.63706">
        <ele>803.5</ele>
        <time>2021-04-22T14:02:29Z</time>
      </trkpt>
      <trkpt lat="44.92288" lon="5.63708">
        <ele>803.5</ele>
        <time>2021-04-22T14:02:30Z</time>
      </trkpt>
      <trkpt lat="44.92293" lon="5.6371">
        <ele>803.4</ele>
        <time>2021-04-22T14:02:31Z</time>
      </trkpt>
      <trkpt lat="44.92298" lon="5.63712">
        <ele>803.4</ele>
        <time>2021-04-22T14:02:32Z</time>
      </trkpt>
      <trkpt lat="44.92302" lon="5.63714">
        <ele>803.3</ele>
        <time>2021-04-22T14:02:33Z</time>
      </trkpt>
      <trkpt lat="44.92307" lon="5.63715">
        <ele>803.3</ele>
        <time>2021-04-22T14:02:34Z</time>
      </trkpt>
      <trkpt lat="44.92312" lon="5.63717">
        <ele>803.2</ele>
        <time>2021-04-22T14:02:35Z</time>
      </trkpt>
      <trkpt lat="44.92317" lon="5.63719">
        <ele>803.2</ele>
        <time>2021-04-22T14:02:36Z</time>
      </trkpt>
      <trkpt lat="44.92322" lon="5.63721">
        <ele>803.1</ele>
        <time>2021-04-22T14:02:37Z</time>
      </trkpt>
      <trkpt lat="44.92327" lon="5.63722">
        <ele>803.1</ele>
        <time>2021-04-22T14:02:38Z</time>
      </trkpt>
      <trkpt lat="44.92332" lon="5.63724">
        <ele>803.1</ele>
        <time>2021-04-22T14:02:39Z</time>
      </trkpt>
      <trkpt lat="44.92337" lon="5.63725">
        <ele>803</ele>
        <time>2021-04-22T14:02:40Z</time>
      </trkpt>
      <trkpt lat="44.92342" lon="5.63726">
        <ele>803</ele>
        <time>2021-04-22T14:02:41Z</time>
      </trkpt>
      <trkpt lat="44.92347" lon="5.63726">
        <ele>802.9</ele>
        <time>2021-04-22T14:02:42Z</time>
      </trkpt>
      <trkpt lat="44.92353" lon="5.63728">
        <ele>802.9</ele>
        <time>2021-04-22T14:02:43Z</time>
      </trkpt>
      <trkpt lat="44.92358" lon="5.6373">
        <ele>802.8</ele>
        <time>2021-04-22T14:02:44Z</time>
      </trkpt>
      <trkpt lat="44.92363" lon="5.63732">
        <ele>802.8</ele>
        <time>2021-04-22T14:02:45Z</time>
      </trkpt>
      <trkpt lat="44.92368" lon="5.63734">
        <ele>802.7</ele>
        <time>2021-04-22T14:02:46Z</time>
      </trkpt>
      <trkpt lat="44.92373" lon="5.63737">
        <ele>802.6</ele>
        <time>2021-04-22T14:02:47Z</time>
      </trkpt>
      <trkpt lat="44.92379" lon="5.63738">
        <ele>802.6</ele>
        <time>2021-04-22T14:02:48Z</time>
      </trkpt>
      <trkpt lat="44.92384" lon="5.6374">
        <ele>802.5</ele>
        <time>2021-04-22T14:02:49Z</time>
      </trkpt>
      <trkpt lat="44.9239" lon="5.63742">
        <ele>802.4</ele>
        <time>2021-04-22T14:02:50Z</time>
      </trkpt>
      <trkpt lat="44.92395" lon="5.63744">
        <ele>802.3</ele>
        <time>2021-04-22T14:02:51Z</time>
      </trkpt>
      <trkpt lat="44.924" lon="5.63746">
        <ele>802.2</ele>
        <time>2021-04-22T14:02:52Z</time>
      </trkpt>
      <trkpt lat="44.92406" lon="5.63748">
        <ele>802.1</ele>
        <time>2021-04-22T14:02:53Z</time>
      </trkpt>
      <trkpt lat="44.92411" lon="5.6375">
        <ele>802.1</ele>
        <time>2021-04-22T14:02:54Z</time>
      </trkpt>
      <trkpt lat="44.92416" lon="5.63752">
        <ele>802</ele>
        <time>2021-04-22T14:02:55Z</time>
      </trkpt>
      <trkpt lat="44.92421" lon="5.63754">
        <ele>801.9</ele>
        <time>2021-04-22T14:02:56Z</time>
      </trkpt>
      <trkpt lat="44.92427" lon="5.63756">
        <ele>801.8</ele>
        <time>2021-04-22T14:02:57Z</time>
      </trkpt>
      <trkpt lat="44.92432" lon="5.63758">
        <ele>801.6</ele>
        <time>2021-04-22T14:02:58Z</time>
      </trkpt>
      <trkpt lat="44.92437" lon="5.6376">
        <ele>801.5</ele>
        <time>2021-04-22T14:02:59Z</time>
      </trkpt>
      <trkpt lat="44.92442" lon="5.63761">
        <ele>801.4</ele>
        <time>2021-04-22T14:03:00Z</time>
      </trkpt>
      <trkpt lat="44.92448" lon="5.63762">
        <ele>801.3</ele>
        <time>2021-04-22T14:03:01Z</time>
      </trkpt>
      <trkpt lat="44.92453" lon="5.63763">
        <ele>801.2</ele>
        <time>2021-04-22T14:03:02Z</time>
      </trkpt>
      <trkpt lat="44.92458" lon="5.63765">
        <ele>801.1</ele>
        <time>2021-04-22T14:03:03Z</time>
      </trkpt>
      <trkpt lat="44.92463" lon="5.63766">
        <ele>801</ele>
        <time>2021-04-22T14:03:04Z</time>
      </trkpt>
      <trkpt lat="44.92468" lon="5.63768">
        <ele>800.9</ele>
        <time>2021-04-22T14:03:05Z</time>
      </trkpt>
      <trkpt lat="44.92473" lon="5.63769">
        <ele>800.8</ele>
        <time>2021-04-22T14:03:06Z</time>
      </trkpt>
      <trkpt lat="44.92478" lon="5.63771">
        <ele>800.7</ele>
        <time>2021-04-22T14:03:07Z</time>
      </trkpt>
      <trkpt lat="44.92483" lon="5.63774">
        <ele>800.6</ele>
        <time>2021-04-22T14:03:08Z</time>
      </trkpt>
      <trkpt lat="44.92489" lon="5.63776">
        <ele>800.4</ele>
        <time>2021-04-22T14:03:09Z</time>
      </trkpt>
      <trkpt lat="44.92495" lon="5.63778">
        <ele>800.3</ele>
        <time>2021-04-22T14:03:10Z</time>
      </trkpt>
      <trkpt lat="44.925" lon="5.6378">
        <ele>800.2</ele>
        <time>2021-04-22T14:03:11Z</time>
      </trkpt>
      <trkpt lat="44.92506" lon="5.63781">
        <ele>800</ele>
        <time>2021-04-22T14:03:12Z</time>
      </trkpt>
      <trkpt lat="44.92512" lon="5.63783">
        <ele>799.9</ele>
        <time>2021-04-22T14:03:13Z</time>
      </trkpt>
      <trkpt lat="44.92518" lon="5.63785">
        <ele>799.8</ele>
        <time>2021-04-22T14:03:14Z</time>
      </trkpt>
      <trkpt lat="44.92523" lon="5.63787">
        <ele>799.7</ele>
        <time>2021-04-22T14:03:15Z</time>
      </trkpt>
      <trkpt lat="44.92529" lon="5.63789">
        <ele>799.5</ele>
        <time>2021-04-22T14:03:16Z</time>
      </trkpt>
      <trkpt lat="44.92534" lon="5.63791">
        <ele>799.4</ele>
        <time>2021-04-22T14:03:17Z</time>
      </trkpt>
      <trkpt lat="44.9254" lon="5.63793">
        <ele>799.3</ele>
        <time>2021-04-22T14:03:18Z</time>
      </trkpt>
      <trkpt lat="44.92546" lon="5.63795">
        <ele>799.1</ele>
        <time>2021-04-22T14:03:19Z</time>
      </trkpt>
      <trkpt lat="44.92551" lon="5.63796">
        <ele>799</ele>
        <time>2021-04-22T14:03:20Z</time>
      </trkpt>
      <trkpt lat="44.92557" lon="5.63797">
        <ele>798.8</ele>
        <time>2021-04-22T14:03:21Z</time>
      </trkpt>
      <trkpt lat="44.92562" lon="5.63799">
        <ele>798.8</ele>
        <time>2021-04-22T14:03:22Z</time>
      </trkpt>
      <trkpt lat="44.92568" lon="5.63801">
        <ele>798.7</ele>
        <time>2021-04-22T14:03:23Z</time>
      </trkpt>
      <trkpt lat="44.92573" lon="5.63804">
        <ele>798.6</ele>
        <time>2021-04-22T14:03:24Z</time>
      </trkpt>
      <trkpt lat="44.92578" lon="5.63807">
        <ele>798.5</ele>
        <time>2021-04-22T14:03:25Z</time>
      </trkpt>
      <trkpt lat="44.92583" lon="5.63811">
        <ele>798.4</ele>
        <time>2021-04-22T14:03:26Z</time>
      </trkpt>
      <trkpt lat="44.92588" lon="5.63812">
        <ele>798.4</ele>
        <time>2021-04-22T14:03:27Z</time>
      </trkpt>
      <trkpt lat="44.92594" lon="5.63811">
        <ele>798.2</ele>
        <time>2021-04-22T14:03:28Z</time>
      </trkpt>
      <trkpt lat="44.92599" lon="5.63809">
        <ele>797.9</ele>
        <time>2021-04-22T14:03:29Z</time>
      </trkpt>
      <trkpt lat="44.92605" lon="5.63807">
        <ele>797.7</ele>
        <time>2021-04-22T14:03:30Z</time>
      </trkpt>
      <trkpt lat="44.92611" lon="5.63807">
        <ele>797.6</ele>
        <time>2021-04-22T14:03:31Z</time>
      </trkpt>
      <trkpt lat="44.92617" lon="5.63809">
        <ele>797.5</ele>
        <time>2021-04-22T14:03:32Z</time>
      </trkpt>
      <trkpt lat="44.92622" lon="5.63811">
        <ele>797.3</ele>
        <time>2021-04-22T14:03:33Z</time>
      </trkpt>
      <trkpt lat="44.92628" lon="5.63813">
        <ele>797.2</ele>
        <time>2021-04-22T14:03:34Z</time>
      </trkpt>
      <trkpt lat="44.92633" lon="5.63816">
        <ele>797</ele>
        <time>2021-04-22T14:03:35Z</time>
      </trkpt>
      <trkpt lat="44.92639" lon="5.63818">
        <ele>796.9</ele>
        <time>2021-04-22T14:03:36Z</time>
      </trkpt>
      <trkpt lat="44.92644" lon="5.63821">
        <ele>796.8</ele>
        <time>2021-04-22T14:03:37Z</time>
      </trkpt>
      <trkpt lat="44.9265" lon="5.63824">
        <ele>796.6</ele>
        <time>2021-04-22T14:03:38Z</time>
      </trkpt>
      <trkpt lat="44.92655" lon="5.63827">
        <ele>796.5</ele>
        <time>2021-04-22T14:03:39Z</time>
      </trkpt>
      <trkpt lat="44.92661" lon="5.63829">
        <ele>796.4</ele>
        <time>2021-04-22T14:03:40Z</time>
      </trkpt>
      <trkpt lat="44.92667" lon="5.63832">
        <ele>796.2</ele>
        <time>2021-04-22T14:03:41Z</time>
      </trkpt>
      <trkpt lat="44.92673" lon="5.63835">
        <ele>796</ele>
        <time>2021-04-22T14:03:42Z</time>
      </trkpt>
      <trkpt lat="44.92679" lon="5.63837">
        <ele>795.9</ele>
        <time>2021-04-22T14:03:43Z</time>
      </trkpt>
      <trkpt lat="44.92685" lon="5.63839">
        <ele>795.7</ele>
        <time>2021-04-22T14:03:44Z</time>
      </trkpt>
      <trkpt lat="44.92691" lon="5.63841">
        <ele>795.5</ele>
        <time>2021-04-22T14:03:45Z</time>
      </trkpt>
      <trkpt lat="44.92697" lon="5.63843">
        <ele>795.4</ele>
        <time>2021-04-22T14:03:46Z</time>
      </trkpt>
      <trkpt lat="44.92703" lon="5.63845">
        <ele>795.2</ele>
        <time>2021-04-22T14:03:47Z</time>
      </trkpt>
      <trkpt lat="44.92709" lon="5.63847">
        <ele>795.1</ele>
        <time>2021-04-22T14:03:48Z</time>
      </trkpt>
      <trkpt lat="44.92715" lon="5.63849">
        <ele>794.9</ele>
        <time>2021-04-22T14:03:49Z</time>
      </trkpt>
      <trkpt lat="44.92721" lon="5.63851">
        <ele>794.7</ele>
        <time>2021-04-22T14:03:50Z</time>
      </trkpt>
      <trkpt lat="44.92727" lon="5.63853">
        <ele>794.6</ele>
        <time>2021-04-22T14:03:51Z</time>
      </trkpt>
      <trkpt lat="44.92733" lon="5.63856">
        <ele>794.4</ele>
        <time>2021-04-22T14:03:52Z</time>
      </trkpt>
      <trkpt lat="44.92739" lon="5.63858">
        <ele>794.3</ele>
        <time>2021-04-22T14:03:53Z</time>
      </trkpt>
      <trkpt lat="44.92745" lon="5.6386">
        <ele>794.1</ele>
        <time>2021-04-22T14:03:54Z</time>
      </trkpt>
      <trkpt lat="44.92751" lon="5.63863">
        <ele>793.9</ele>
        <time>2021-04-22T14:03:55Z</time>
      </trkpt>
      <trkpt lat="44.92757" lon="5.63866">
        <ele>793.8</ele>
        <time>2021-04-22T14:03:56Z</time>
      </trkpt>
      <trkpt lat="44.92763" lon="5.63868">
        <ele>793.6</ele>
        <time>2021-04-22T14:03:57Z</time>
      </trkpt>
      <trkpt lat="44.9277" lon="5.6387">
        <ele>793.4</ele>
        <time>2021-04-22T14:03:58Z</time>
      </trkpt>
      <trkpt lat="44.92776" lon="5.63872">
        <ele>793.3</ele>
        <time>2021-04-22T14:03:59Z</time>
      </trkpt>
      <trkpt lat="44.92782" lon="5.63874">
        <ele>793.1</ele>
        <time>2021-04-22T14:04:00Z</time>
      </trkpt>
      <trkpt lat="44.92789" lon="5.63877">
        <ele>792.9</ele>
        <time>2021-04-22T14:04:01Z</time>
      </trkpt>
      <trkpt lat="44.92795" lon="5.63879">
        <ele>792.8</ele>
        <time>2021-04-22T14:04:02Z</time>
      </trkpt>
      <trkpt lat="44.92802" lon="5.63882">
        <ele>792.6</ele>
        <time>2021-04-22T14:04:03Z</time>
      </trkpt>
      <trkpt lat="44.92808" lon="5.63884">
        <ele>792.5</ele>
        <time>2021-04-22T14:04:04Z</time>
      </trkpt>
      <trkpt lat="44.92815" lon="5.63887">
        <ele>792.4</ele>
        <time>2021-04-22T14:04:05Z</time>
      </trkpt>
      <trkpt lat="44.92821" lon="5.63889">
        <ele>792.2</ele>
        <time>2021-04-22T14:04:06Z</time>
      </trkpt>
      <trkpt lat="44.92827" lon="5.63891">
        <ele>792.1</ele>
        <time>2021-04-22T14:04:07Z</time>
      </trkpt>
      <trkpt lat="44.92834" lon="5.63894">
        <ele>791.9</ele>
        <time>2021-04-22T14:04:08Z</time>
      </trkpt>
      <trkpt lat="44.92841" lon="5.63896">
        <ele>791.8</ele>
        <time>2021-04-22T14:04:09Z</time>
      </trkpt>
      <trkpt lat="44.92847" lon="5.639">
        <ele>791.6</ele>
        <time>2021-04-22T14:04:10Z</time>
      </trkpt>
      <trkpt lat="44.92854" lon="5.63904">
        <ele>791.5</ele>
        <time>2021-04-22T14:04:11Z</time>
      </trkpt>
      <trkpt lat="44.9286" lon="5.63908">
        <ele>791.3</ele>
        <time>2021-04-22T14:04:12Z</time>
      </trkpt>
      <trkpt lat="44.92866" lon="5.63913">
        <ele>791.2</ele>
        <time>2021-04-22T14:04:13Z</time>
      </trkpt>
      <trkpt lat="44.92872" lon="5.63917">
        <ele>791</ele>
        <time>2021-04-22T14:04:14Z</time>
      </trkpt>
      <trkpt lat="44.92879" lon="5.63921">
        <ele>790.9</ele>
        <time>2021-04-22T14:04:15Z</time>
      </trkpt>
      <trkpt lat="44.92886" lon="5.63923">
        <ele>790.8</ele>
        <time>2021-04-22T14:04:16Z</time>
      </trkpt>
      <trkpt lat="44.92893" lon="5.63926">
        <ele>790.8</ele>
        <time>2021-04-22T14:04:17Z</time>
      </trkpt>
      <trkpt lat="44.929" lon="5.63929">
        <ele>790.8</ele>
        <time>2021-04-22T14:04:18Z</time>
      </trkpt>
      <trkpt lat="44.92906" lon="5.63934">
        <ele>790.8</ele>
        <time>2021-04-22T14:04:19Z</time>
      </trkpt>
      <trkpt lat="44.92911" lon="5.63939">
        <ele>790.8</ele>
        <time>2021-04-22T14:04:20Z</time>
      </trkpt>
      <trkpt lat="44.92917" lon="5.63945">
        <ele>790.7</ele>
        <time>2021-04-22T14:04:21Z</time>
      </trkpt>
      <trkpt lat="44.92922" lon="5.63948">
        <ele>790.6</ele>
        <time>2021-04-22T14:04:22Z</time>
      </trkpt>
      <trkpt lat="44.92928" lon="5.63945">
        <ele>790.4</ele>
        <time>2021-04-22T14:04:23Z</time>
      </trkpt>
      <trkpt lat="44.92932" lon="5.63937">
        <ele>789.9</ele>
        <time>2021-04-22T14:04:24Z</time>
      </trkpt>
      <trkpt lat="44.92932" lon="5.63927">
        <ele>789.8</ele>
        <time>2021-04-22T14:04:25Z</time>
      </trkpt>
      <trkpt lat="44.92931" lon="5.63918">
        <ele>789.9</ele>
        <time>2021-04-22T14:04:26Z</time>
      </trkpt>
      <trkpt lat="44.92931" lon="5.6391">
        <ele>790.1</ele>
        <time>2021-04-22T14:04:27Z</time>
      </trkpt>
      <trkpt lat="44.92932" lon="5.63902">
        <ele>790.1</ele>
        <time>2021-04-22T14:04:28Z</time>
      </trkpt>
      <trkpt lat="44.92934" lon="5.63894">
        <ele>790</ele>
        <time>2021-04-22T14:04:29Z</time>
      </trkpt>
      <trkpt lat="44.92937" lon="5.63887">
        <ele>790</ele>
        <time>2021-04-22T14:04:30Z</time>
      </trkpt>
      <trkpt lat="44.9294" lon="5.63879">
        <ele>790</ele>
        <time>2021-04-22T14:04:31Z</time>
      </trkpt>
      <trkpt lat="44.92941" lon="5.6387">
        <ele>790</ele>
        <time>2021-04-22T14:04:32Z</time>
      </trkpt>
      <trkpt lat="44.92943" lon="5.63862">
        <ele>790</ele>
        <time>2021-04-22T14:04:33Z</time>
      </trkpt>
      <trkpt lat="44.92944" lon="5.63854">
        <ele>789.9</ele>
        <time>2021-04-22T14:04:34Z</time>
      </trkpt>
      <trkpt lat="44.92945" lon="5.63847">
        <ele>789.9</ele>
        <time>2021-04-22T14:04:35Z</time>
      </trkpt>
      <trkpt lat="44.92946" lon="5.6384">
        <ele>789.9</ele>
        <time>2021-04-22T14:04:36Z</time>
      </trkpt>
      <trkpt lat="44.92947" lon="5.63834">
        <ele>789.9</ele>
        <time>2021-04-22T14:04:37Z</time>
      </trkpt>
      <trkpt lat="44.92946" lon="5.63832">
        <ele>789.9</ele>
        <time>2021-04-22T14:04:38Z</time>
      </trkpt>
      <trkpt lat="44.92946" lon="5.6383">
        <ele>789.9</ele>
        <time>2021-04-22T14:04:39Z</time>
      </trkpt>
      <trkpt lat="44.92945" lon="5.6383">
        <ele>789.9</ele>
        <time>2021-04-22T14:04:40Z</time>
      </trkpt>
      <trkpt lat="44.92945" lon="5.6383">
        <ele>789.9</ele>
        <time>2021-04-22T14:04:41Z</time>
      </trkpt>
      <trkpt lat="44.92945" lon="5.6383">
        <ele>789.9</ele>
        <time>2021-04-22T14:04:42Z</time>
      </trkpt>
      <trkpt lat="44.92945" lon="5.6383">
        <ele>789.9</ele>
        <time>2021-04-22T14:04:43Z</time>
      </trkpt>
      <trkpt lat="44.92945" lon="5.6383">
        <ele>789.9</ele>
        <time>2021-04-22T14:04:44Z</time>
      </trkpt>
      <trkpt lat="44.92945" lon="5.6383">
        <ele>789.9</ele>
        <time>2021-04-22T14:04:45Z</time>
      </trkpt>
      <trkpt lat="44.92945" lon="5.6383">
        <ele>789.9</ele>
        <time>2021-04-22T14:04:46Z</time>
      </trkpt>
      <trkpt lat="44.92945" lon="5.6383">
        <ele>789.9</ele>
        <time>2021-04-22T14:04:47Z</time>
      </trkpt>
      <trkpt lat="44.92944" lon="5.63828">
        <ele>789.9</ele>
        <time>2021-04-22T14:04:48Z</time>
      </trkpt>
      <trkpt lat="44.92943" lon="5.63827">
        <ele>789.9</ele>
        <time>2021-04-22T14:04:49Z</time>
      </trkpt>
      <trkpt lat="44.92941" lon="5.63826">
        <ele>789.9</ele>
        <time>2021-04-22T14:04:51Z</time>
      </trkpt>
      <trkpt lat="44.9294" lon="5.63828">
        <ele>789.9</ele>
        <time>2021-04-22T14:04:52Z</time>
      </trkpt>
      <trkpt lat="44.92941" lon="5.6383">
        <ele>789.9</ele>
        <time>2021-04-22T14:04:54Z</time>
      </trkpt>
      <trkpt lat="44.92942" lon="5.63829">
        <ele>789.9</ele>
        <time>2021-04-22T14:04:56Z</time>
      </trkpt>
      <trkpt lat="44.92942" lon="5.63829">
        <ele>789.9</ele>
        <time>2021-04-22T14:04:57Z</time>
      </trkpt>
      <trkpt lat="44.92942" lon="5.63829">
        <ele>789.9</ele>
        <time>2021-04-22T14:04:58Z</time>
      </trkpt>
      <trkpt lat="44.92942" lon="5.63829">
        <ele>789.9</ele>
        <time>2021-04-22T14:04:59Z</time>
      </trkpt>
      <trkpt lat="44.92941" lon="5.63829">
        <ele>789.9</ele>
        <time>2021-04-22T14:05:00Z</time>
      </trkpt>
      <trkpt lat="44.92941" lon="5.63829">
        <ele>789.9</ele>
        <time>2021-04-22T14:05:01Z</time>
      </trkpt>
      <trkpt lat="44.92941" lon="5.6383">
        <ele>789.9</ele>
        <time>2021-04-22T14:05:02Z</time>
      </trkpt>
    </trkseg>
  </trk>
</gpx>